<?xml version='1.0' encoding='UTF-8'?><gpx version="1.1" creator="JPX - https://github.com/jenetics/jpx" xmlns="http://www.topografix.com/GPX/1/1"><trk><trkseg><trkpt lat="44.5012507" lon="8.8990524"><ele>99.2</ele><time>2026-04-03T11:35:50.999Z</time></trkpt><trkpt lat="44.5011799" lon="8.8990191"><ele>98.4</ele><time>2026-04-03T11:35:53.953Z</time></trkpt><trkpt lat="44.5011237" lon="8.899072"><ele>97.6</ele><time>2026-04-03T11:35:56.075Z</time></trkpt><trkpt lat="44.5010549" lon="8.8991438"><ele>96.8</ele><time>2026-04-03T11:35:57.077Z</time></trkpt><trkpt lat="44.5011108" lon="8.8993333"><ele>96.0</ele><time>2026-04-03T11:36:01.999Z</time></trkpt><trkpt lat="44.5011426" lon="8.8994675"><ele>96.0</ele><time>2026-04-03T11:36:03.999Z</time></trkpt><trkpt lat="44.5009571" lon="8.8996725"><ele>96.0</ele><time>2026-04-03T11:36:09.999Z</time></trkpt><trkpt lat="44.5008875" lon="8.8997662"><ele>96.0</ele><time>2026-04-03T11:36:10.999Z</time></trkpt><trkpt lat="44.5008241" lon="8.8998594"><ele>96.0</ele><time>2026-04-03T11:36:11.999Z</time></trkpt><trkpt lat="44.5007661" lon="8.8999291"><ele>96.0</ele><time>2026-04-03T11:36:13Z</time></trkpt><trkpt lat="44.5006427" lon="8.9000285"><ele>96.0</ele><time>2026-04-03T11:36:14.104Z</time></trkpt><trkpt lat="44.5004684" lon="8.9001442"><ele>96.0</ele><time>2026-04-03T11:36:15.999Z</time></trkpt><trkpt lat="44.5003565" lon="8.9001984"><ele>95.25</ele><time>2026-04-03T11:36:17.103Z</time></trkpt><trkpt lat="44.5001944" lon="8.9003413"><ele>94.5</ele><time>2026-04-03T11:36:18.999Z</time></trkpt><trkpt lat="44.5001295" lon="8.9003454"><ele>93.75</ele><time>2026-04-03T11:36:20.109Z</time></trkpt><trkpt lat="44.4999576" lon="8.9003463"><ele>93.0</ele><time>2026-04-03T11:36:22.157Z</time></trkpt><trkpt lat="44.499881" lon="8.9003802"><ele>93.0</ele><time>2026-04-03T11:36:23.136Z</time></trkpt><trkpt lat="44.4997599" lon="8.9004506"><ele>93.0</ele><time>2026-04-03T11:36:24.999Z</time></trkpt><trkpt lat="44.4996887" lon="8.9004938"><ele>93.0</ele><time>2026-04-03T11:36:25.999Z</time></trkpt><trkpt lat="44.4996445" lon="8.9005775"><ele>93.0</ele><time>2026-04-03T11:36:27.162Z</time></trkpt><trkpt lat="44.499623" lon="8.9006888"><ele>93.0</ele><time>2026-04-03T11:36:28.157Z</time></trkpt><trkpt lat="44.499536" lon="8.9007516"><ele>93.0</ele><time>2026-04-03T11:36:29.134Z</time></trkpt><trkpt lat="44.4995829" lon="8.90086"><ele>93.0</ele><time>2026-04-03T11:36:31.999Z</time></trkpt><trkpt lat="44.4996763" lon="8.9010172"><ele>93.0</ele><time>2026-04-03T11:36:38.999Z</time></trkpt><trkpt lat="44.4997249" lon="8.9009463"><ele>93.0</ele><time>2026-04-03T11:36:39.999Z</time></trkpt><trkpt lat="44.4997846" lon="8.9008978"><ele>93.0</ele><time>2026-04-03T11:36:40.999Z</time></trkpt><trkpt lat="44.4998806" lon="8.9008707"><ele>93.0</ele><time>2026-04-03T11:36:42.1Z</time></trkpt><trkpt lat="44.4999778" lon="8.9008252"><ele>93.0</ele><time>2026-04-03T11:36:43.169Z</time></trkpt><trkpt lat="44.5000698" lon="8.9007828"><ele>93.0</ele><time>2026-04-03T11:36:44.178Z</time></trkpt><trkpt lat="44.5001676" lon="8.9007359"><ele>93.0</ele><time>2026-04-03T11:36:45.108Z</time></trkpt><trkpt lat="44.5003579" lon="8.9006637"><ele>95.0</ele><time>2026-04-03T11:36:46.999Z</time></trkpt><trkpt lat="44.5004636" lon="8.9006"><ele>97.0</ele><time>2026-04-03T11:36:48Z</time></trkpt><trkpt lat="44.5005699" lon="8.9005323"><ele>99.0</ele><time>2026-04-03T11:36:48.999Z</time></trkpt><trkpt lat="44.5006706" lon="8.9004625"><ele>101.0</ele><time>2026-04-03T11:36:50.123Z</time></trkpt><trkpt lat="44.5008544" lon="8.9003499"><ele>101.0</ele><time>2026-04-03T11:36:51.999Z</time></trkpt><trkpt lat="44.5009411" lon="8.9002855"><ele>101.0</ele><time>2026-04-03T11:36:53.154Z</time></trkpt><trkpt lat="44.5010237" lon="8.9002163"><ele>101.0</ele><time>2026-04-03T11:36:54.113Z</time></trkpt><trkpt lat="44.5011057" lon="8.9001327"><ele>101.0</ele><time>2026-04-03T11:36:55.103Z</time></trkpt><trkpt lat="44.5011969" lon="8.9000308"><ele>101.0</ele><time>2026-04-03T11:36:56.104Z</time></trkpt><trkpt lat="44.5012822" lon="8.8999253"><ele>100.75</ele><time>2026-04-03T11:36:57.16Z</time></trkpt><trkpt lat="44.5013702" lon="8.8998124"><ele>100.5</ele><time>2026-04-03T11:36:58.13Z</time></trkpt><trkpt lat="44.5014436" lon="8.8997098"><ele>100.25</ele><time>2026-04-03T11:36:59.173Z</time></trkpt><trkpt lat="44.5015049" lon="8.8996096"><ele>100.0</ele><time>2026-04-03T11:37:00.102Z</time></trkpt><trkpt lat="44.5016219" lon="8.8994232"><ele>100.0</ele><time>2026-04-03T11:37:02.195Z</time></trkpt><trkpt lat="44.5016627" lon="8.8993403"><ele>100.0</ele><time>2026-04-03T11:37:03.139Z</time></trkpt><trkpt lat="44.5017193" lon="8.8992543"><ele>100.0</ele><time>2026-04-03T11:37:04.163Z</time></trkpt><trkpt lat="44.5017723" lon="8.8991891"><ele>100.0</ele><time>2026-04-03T11:37:05.105Z</time></trkpt><trkpt lat="44.5018485" lon="8.8990761"><ele>100.0</ele><time>2026-04-03T11:37:07.16Z</time></trkpt><trkpt lat="44.5019562" lon="8.8989178"><ele>100.0</ele><time>2026-04-03T11:37:10Z</time></trkpt><trkpt lat="44.5020251" lon="8.8987608"><ele>100.0</ele><time>2026-04-03T11:37:12.114Z</time></trkpt><trkpt lat="44.5020573" lon="8.8986804"><ele>100.0</ele><time>2026-04-03T11:37:13.166Z</time></trkpt><trkpt lat="44.5020863" lon="8.8985742"><ele>100.0</ele><time>2026-04-03T11:37:14.158Z</time></trkpt><trkpt lat="44.5021242" lon="8.8984117"><ele>100.0</ele><time>2026-04-03T11:37:16.101Z</time></trkpt><trkpt lat="44.5021628" lon="8.8982821"><ele>100.6</ele><time>2026-04-03T11:37:17.999Z</time></trkpt><trkpt lat="44.5021967" lon="8.8981877"><ele>101.2</ele><time>2026-04-03T11:37:19.999Z</time></trkpt><trkpt lat="44.5022195" lon="8.8980863"><ele>101.80000000000001</ele><time>2026-04-03T11:37:21.999Z</time></trkpt><trkpt lat="44.5022481" lon="8.8979206"><ele>102.4</ele><time>2026-04-03T11:37:23.999Z</time></trkpt><trkpt lat="44.5022575" lon="8.8978313"><ele>103.0</ele><time>2026-04-03T11:37:25.103Z</time></trkpt><trkpt lat="44.5023127" lon="8.8976316"><ele>105.33333333333334</ele><time>2026-04-03T11:37:27.101Z</time></trkpt><trkpt lat="44.5023754" lon="8.8973806"><ele>107.66666666666666</ele><time>2026-04-03T11:37:29.177Z</time></trkpt><trkpt lat="44.5024601" lon="8.8971327"><ele>110.0</ele><time>2026-04-03T11:37:31.107Z</time></trkpt><trkpt lat="44.502497" lon="8.897014"><ele>110.0</ele><time>2026-04-03T11:37:32.166Z</time></trkpt><trkpt lat="44.5025583" lon="8.8968846"><ele>110.0</ele><time>2026-04-03T11:37:33.184Z</time></trkpt><trkpt lat="44.5026143" lon="8.8967742"><ele>110.0</ele><time>2026-04-03T11:37:34.194Z</time></trkpt><trkpt lat="44.5026739" lon="8.8966642"><ele>110.0</ele><time>2026-04-03T11:37:35.101Z</time></trkpt><trkpt lat="44.5027293" lon="8.8965643"><ele>110.0</ele><time>2026-04-03T11:37:36.109Z</time></trkpt><trkpt lat="44.5027985" lon="8.8964772"><ele>111.0</ele><time>2026-04-03T11:37:37.177Z</time></trkpt><trkpt lat="44.5028686" lon="8.8963861"><ele>112.0</ele><time>2026-04-03T11:37:38.125Z</time></trkpt><trkpt lat="44.502922" lon="8.8963203"><ele>113.0</ele><time>2026-04-03T11:37:39.165Z</time></trkpt><trkpt lat="44.5030782" lon="8.8962005"><ele>114.0</ele><time>2026-04-03T11:37:41.101Z</time></trkpt><trkpt lat="44.5031605" lon="8.8961409"><ele>115.0</ele><time>2026-04-03T11:37:42.153Z</time></trkpt><trkpt lat="44.5032589" lon="8.8960827"><ele>112.6</ele><time>2026-04-03T11:37:43.162Z</time></trkpt><trkpt lat="44.5033447" lon="8.8960179"><ele>110.2</ele><time>2026-04-03T11:37:44.133Z</time></trkpt><trkpt lat="44.5034292" lon="8.8959516"><ele>107.80000000000001</ele><time>2026-04-03T11:37:45.102Z</time></trkpt><trkpt lat="44.5035064" lon="8.89588"><ele>105.4</ele><time>2026-04-03T11:37:46.107Z</time></trkpt><trkpt lat="44.503584" lon="8.8958179"><ele>103.0</ele><time>2026-04-03T11:37:47.153Z</time></trkpt><trkpt lat="44.503641" lon="8.8957438"><ele>102.5</ele><time>2026-04-03T11:37:48.147Z</time></trkpt><trkpt lat="44.5037371" lon="8.895674"><ele>102.0</ele><time>2026-04-03T11:37:49.176Z</time></trkpt><trkpt lat="44.5038123" lon="8.8955734"><ele>101.5</ele><time>2026-04-03T11:37:50.106Z</time></trkpt><trkpt lat="44.5039263" lon="8.8953283"><ele>101.0</ele><time>2026-04-03T11:37:52.103Z</time></trkpt><trkpt lat="44.5039639" lon="8.8951981"><ele>101.0</ele><time>2026-04-03T11:37:53.101Z</time></trkpt><trkpt lat="44.5040189" lon="8.8949048"><ele>101.0</ele><time>2026-04-03T11:37:55.102Z</time></trkpt><trkpt lat="44.5040423" lon="8.8947619"><ele>101.0</ele><time>2026-04-03T11:37:56.1Z</time></trkpt><trkpt lat="44.5040662" lon="8.8946169"><ele>101.0</ele><time>2026-04-03T11:37:57.147Z</time></trkpt><trkpt lat="44.5040852" lon="8.8944685"><ele>101.0</ele><time>2026-04-03T11:37:58.123Z</time></trkpt><trkpt lat="44.5041001" lon="8.8943108"><ele>101.0</ele><time>2026-04-03T11:37:59.158Z</time></trkpt><trkpt lat="44.5041153" lon="8.8941581"><ele>101.0</ele><time>2026-04-03T11:38:00.102Z</time></trkpt><trkpt lat="44.504136" lon="8.8940201"><ele>101.0</ele><time>2026-04-03T11:38:01.101Z</time></trkpt><trkpt lat="44.504172" lon="8.8937245"><ele>101.66666666666666</ele><time>2026-04-03T11:38:02.999Z</time></trkpt><trkpt lat="44.5042179" lon="8.8935953"><ele>102.33333333333334</ele><time>2026-04-03T11:38:04.1Z</time></trkpt><trkpt lat="44.5043585" lon="8.8933818"><ele>103.0</ele><time>2026-04-03T11:38:06.101Z</time></trkpt><trkpt lat="44.5045066" lon="8.8931927"><ele>103.25</ele><time>2026-04-03T11:38:08.101Z</time></trkpt><trkpt lat="44.5046254" lon="8.8931163"><ele>103.5</ele><time>2026-04-03T11:38:09.101Z</time></trkpt><trkpt lat="44.5047082" lon="8.8930173"><ele>103.75</ele><time>2026-04-03T11:38:10.103Z</time></trkpt><trkpt lat="44.5047886" lon="8.8929047"><ele>104.0</ele><time>2026-04-03T11:38:11.188Z</time></trkpt><trkpt lat="44.5048426" lon="8.892764"><ele>104.0</ele><time>2026-04-03T11:38:12.151Z</time></trkpt><trkpt lat="44.504887" lon="8.8926183"><ele>104.0</ele><time>2026-04-03T11:38:13.139Z</time></trkpt><trkpt lat="44.5049293" lon="8.8924636"><ele>104.0</ele><time>2026-04-03T11:38:14.15Z</time></trkpt><trkpt lat="44.5049655" lon="8.8923066"><ele>104.0</ele><time>2026-04-03T11:38:15.1Z</time></trkpt><trkpt lat="44.5049978" lon="8.8921423"><ele>105.5</ele><time>2026-04-03T11:38:16.101Z</time></trkpt><trkpt lat="44.5050323" lon="8.8919671"><ele>107.0</ele><time>2026-04-03T11:38:17.16Z</time></trkpt><trkpt lat="44.5050639" lon="8.8918001"><ele>108.5</ele><time>2026-04-03T11:38:18.161Z</time></trkpt><trkpt lat="44.505106" lon="8.8916291"><ele>110.0</ele><time>2026-04-03T11:38:19.102Z</time></trkpt><trkpt lat="44.5051689" lon="8.8914698"><ele>111.75</ele><time>2026-04-03T11:38:20.103Z</time></trkpt><trkpt lat="44.5052325" lon="8.891314"><ele>113.5</ele><time>2026-04-03T11:38:21.105Z</time></trkpt><trkpt lat="44.5053091" lon="8.8911509"><ele>115.25</ele><time>2026-04-03T11:38:22.168Z</time></trkpt><trkpt lat="44.5053643" lon="8.8909814"><ele>117.0</ele><time>2026-04-03T11:38:23.141Z</time></trkpt><trkpt lat="44.5054233" lon="8.8908316"><ele>117.0</ele><time>2026-04-03T11:38:24.175Z</time></trkpt><trkpt lat="44.5054998" lon="8.8906949"><ele>117.0</ele><time>2026-04-03T11:38:25.1Z</time></trkpt><trkpt lat="44.5055837" lon="8.8905748"><ele>117.0</ele><time>2026-04-03T11:38:26.105Z</time></trkpt><trkpt lat="44.5056769" lon="8.8904622"><ele>117.0</ele><time>2026-04-03T11:38:27.1Z</time></trkpt><trkpt lat="44.5057523" lon="8.8903352"><ele>117.5</ele><time>2026-04-03T11:38:28.164Z</time></trkpt><trkpt lat="44.5058377" lon="8.890074"><ele>118.0</ele><time>2026-04-03T11:38:30.105Z</time></trkpt><trkpt lat="44.5058438" lon="8.8899278"><ele>118.5</ele><time>2026-04-03T11:38:31.1Z</time></trkpt><trkpt lat="44.5058324" lon="8.8897802"><ele>119.0</ele><time>2026-04-03T11:38:32.126Z</time></trkpt><trkpt lat="44.5057998" lon="8.889633"><ele>119.0</ele><time>2026-04-03T11:38:33.142Z</time></trkpt><trkpt lat="44.5057701" lon="8.8894842"><ele>119.0</ele><time>2026-04-03T11:38:34.189Z</time></trkpt><trkpt lat="44.5057098" lon="8.8891608"><ele>119.0</ele><time>2026-04-03T11:38:36.105Z</time></trkpt><trkpt lat="44.5056813" lon="8.8889945"><ele>119.0</ele><time>2026-04-03T11:38:36.999Z</time></trkpt><trkpt lat="44.5056562" lon="8.8888441"><ele>119.0</ele><time>2026-04-03T11:38:38.103Z</time></trkpt><trkpt lat="44.5056371" lon="8.888537"><ele>119.0</ele><time>2026-04-03T11:38:40.121Z</time></trkpt><trkpt lat="44.505659" lon="8.888391"><ele>119.0</ele><time>2026-04-03T11:38:41.107Z</time></trkpt><trkpt lat="44.5057066" lon="8.8882503"><ele>119.0</ele><time>2026-04-03T11:38:42.162Z</time></trkpt><trkpt lat="44.5057742" lon="8.8881324"><ele>119.0</ele><time>2026-04-03T11:38:43.102Z</time></trkpt><trkpt lat="44.505856" lon="8.8880222"><ele>119.0</ele><time>2026-04-03T11:38:44.105Z</time></trkpt><trkpt lat="44.5059454" lon="8.8879274"><ele>119.0</ele><time>2026-04-03T11:38:45.105Z</time></trkpt><trkpt lat="44.506032" lon="8.8878554"><ele>119.0</ele><time>2026-04-03T11:38:46.156Z</time></trkpt><trkpt lat="44.5061258" lon="8.8878027"><ele>119.0</ele><time>2026-04-03T11:38:47.154Z</time></trkpt><trkpt lat="44.5062278" lon="8.8877525"><ele>119.0</ele><time>2026-04-03T11:38:48.173Z</time></trkpt><trkpt lat="44.5063215" lon="8.8877087"><ele>119.0</ele><time>2026-04-03T11:38:49.17Z</time></trkpt><trkpt lat="44.5064154" lon="8.887653"><ele>119.0</ele><time>2026-04-03T11:38:50.1Z</time></trkpt><trkpt lat="44.5064902" lon="8.8876019"><ele>119.0</ele><time>2026-04-03T11:38:51.108Z</time></trkpt><trkpt lat="44.5065674" lon="8.8875522"><ele>119.16666666666666</ele><time>2026-04-03T11:38:52.197Z</time></trkpt><trkpt lat="44.5066352" lon="8.8875173"><ele>119.33333333333333</ele><time>2026-04-03T11:38:53.176Z</time></trkpt><trkpt lat="44.5067058" lon="8.8874992"><ele>119.5</ele><time>2026-04-03T11:38:54.144Z</time></trkpt><trkpt lat="44.5067702" lon="8.8874844"><ele>119.66666666666666</ele><time>2026-04-03T11:38:55.105Z</time></trkpt><trkpt lat="44.5068756" lon="8.8874537"><ele>119.83333333333333</ele><time>2026-04-03T11:38:57.154Z</time></trkpt><trkpt lat="44.506985" lon="8.8874042"><ele>120.0</ele><time>2026-04-03T11:38:59.999Z</time></trkpt><trkpt lat="44.5070737" lon="8.8873373"><ele>120.2</ele><time>2026-04-03T11:39:19.122Z</time></trkpt><trkpt lat="44.5070826" lon="8.8874337"><ele>120.4</ele><time>2026-04-03T11:40:09.17Z</time></trkpt><trkpt lat="44.5072171" lon="8.8874051"><ele>120.6</ele><time>2026-04-03T11:40:20.999Z</time></trkpt><trkpt lat="44.5073101" lon="8.8873311"><ele>120.8</ele><time>2026-04-03T11:40:22.999Z</time></trkpt><trkpt lat="44.5073669" lon="8.8872926"><ele>121.0</ele><time>2026-04-03T11:40:23.999Z</time></trkpt><trkpt lat="44.5074713" lon="8.8872132"><ele>121.00000000000001</ele><time>2026-04-03T11:40:25.999Z</time></trkpt><trkpt lat="44.5075363" lon="8.8871748"><ele>121.0</ele><time>2026-04-03T11:40:27.102Z</time></trkpt><trkpt lat="44.5076528" lon="8.8870653"><ele>121.0</ele><time>2026-04-03T11:40:28.999Z</time></trkpt><trkpt lat="44.5077033" lon="8.8869985"><ele>121.0</ele><time>2026-04-03T11:40:29.999Z</time></trkpt><trkpt lat="44.5077407" lon="8.8869203"><ele>121.00000000000001</ele><time>2026-04-03T11:40:30.999Z</time></trkpt><trkpt lat="44.5077759" lon="8.886826"><ele>121.0</ele><time>2026-04-03T11:40:32.183Z</time></trkpt><trkpt lat="44.5078049" lon="8.8867322"><ele>122.8</ele><time>2026-04-03T11:40:33.17Z</time></trkpt><trkpt lat="44.5078234" lon="8.8866275"><ele>124.6</ele><time>2026-04-03T11:40:34.194Z</time></trkpt><trkpt lat="44.507836" lon="8.8864133"><ele>126.4</ele><time>2026-04-03T11:40:36Z</time></trkpt><trkpt lat="44.5078371" lon="8.886301"><ele>128.2</ele><time>2026-04-03T11:40:36.999Z</time></trkpt><trkpt lat="44.5078264" lon="8.8861868"><ele>130.0</ele><time>2026-04-03T11:40:37.999Z</time></trkpt><trkpt lat="44.5078178" lon="8.8860689"><ele>132.2</ele><time>2026-04-03T11:40:39.102Z</time></trkpt><trkpt lat="44.507814" lon="8.8858288"><ele>134.4</ele><time>2026-04-03T11:40:41.188Z</time></trkpt><trkpt lat="44.5077891" lon="8.8857008"><ele>136.6</ele><time>2026-04-03T11:40:42.166Z</time></trkpt><trkpt lat="44.5077628" lon="8.8855805"><ele>138.8</ele><time>2026-04-03T11:40:43.153Z</time></trkpt><trkpt lat="44.5077462" lon="8.8854666"><ele>141.0</ele><time>2026-04-03T11:40:44.148Z</time></trkpt><trkpt lat="44.5077377" lon="8.8853511"><ele>141.0</ele><time>2026-04-03T11:40:45.104Z</time></trkpt><trkpt lat="44.5077382" lon="8.8852481"><ele>141.0</ele><time>2026-04-03T11:40:46.107Z</time></trkpt><trkpt lat="44.5077323" lon="8.8851516"><ele>141.0</ele><time>2026-04-03T11:40:47.126Z</time></trkpt><trkpt lat="44.5077358" lon="8.8850402"><ele>141.0</ele><time>2026-04-03T11:40:48.143Z</time></trkpt><trkpt lat="44.5077379" lon="8.8849425"><ele>141.0</ele><time>2026-04-03T11:40:49.136Z</time></trkpt><trkpt lat="44.5077493" lon="8.8848384"><ele>141.0</ele><time>2026-04-03T11:40:50.102Z</time></trkpt><trkpt lat="44.5078241" lon="8.8846715"><ele>139.25</ele><time>2026-04-03T11:40:52.141Z</time></trkpt><trkpt lat="44.5079697" lon="8.8845473"><ele>137.5</ele><time>2026-04-03T11:40:54.153Z</time></trkpt><trkpt lat="44.5080498" lon="8.8844776"><ele>135.75</ele><time>2026-04-03T11:40:55.106Z</time></trkpt><trkpt lat="44.5081384" lon="8.8843931"><ele>134.0</ele><time>2026-04-03T11:40:56.104Z</time></trkpt><trkpt lat="44.508276" lon="8.8842286"><ele>134.0</ele><time>2026-04-03T11:40:58.147Z</time></trkpt><trkpt lat="44.5083476" lon="8.8841673"><ele>134.0</ele><time>2026-04-03T11:40:59.147Z</time></trkpt><trkpt lat="44.5084333" lon="8.8841238"><ele>134.0</ele><time>2026-04-03T11:41:00.102Z</time></trkpt><trkpt lat="44.5085048" lon="8.8840994"><ele>134.0</ele><time>2026-04-03T11:41:01.101Z</time></trkpt><trkpt lat="44.508588" lon="8.8840803"><ele>134.0</ele><time>2026-04-03T11:41:02.179Z</time></trkpt><trkpt lat="44.5087585" lon="8.8840544"><ele>132.75</ele><time>2026-04-03T11:41:04.114Z</time></trkpt><trkpt lat="44.508937" lon="8.8840217"><ele>131.5</ele><time>2026-04-03T11:41:06.104Z</time></trkpt><trkpt lat="44.5090269" lon="8.8839896"><ele>130.25</ele><time>2026-04-03T11:41:07.142Z</time></trkpt><trkpt lat="44.5091028" lon="8.8839365"><ele>129.0</ele><time>2026-04-03T11:41:08.103Z</time></trkpt><trkpt lat="44.5091118" lon="8.8837519"><ele>129.0</ele><time>2026-04-03T11:41:09.162Z</time></trkpt><trkpt lat="44.5091906" lon="8.8836978"><ele>129.0</ele><time>2026-04-03T11:41:10.108Z</time></trkpt><trkpt lat="44.5092496" lon="8.8835913"><ele>129.0</ele><time>2026-04-03T11:41:11.104Z</time></trkpt><trkpt lat="44.5094774" lon="8.8837001"><ele>129.0</ele><time>2026-04-03T11:41:13.144Z</time></trkpt><trkpt lat="44.5096514" lon="8.883613"><ele>129.2</ele><time>2026-04-03T11:41:14.999Z</time></trkpt><trkpt lat="44.5097303" lon="8.8835602"><ele>129.4</ele><time>2026-04-03T11:41:15.999Z</time></trkpt><trkpt lat="44.5098164" lon="8.8835135"><ele>129.6</ele><time>2026-04-03T11:41:16.999Z</time></trkpt><trkpt lat="44.5098919" lon="8.8834521"><ele>129.8</ele><time>2026-04-03T11:41:18Z</time></trkpt><trkpt lat="44.5099771" lon="8.8833896"><ele>130.0</ele><time>2026-04-03T11:41:18.999Z</time></trkpt><trkpt lat="44.5100735" lon="8.8833397"><ele>130.0</ele><time>2026-04-03T11:41:19.999Z</time></trkpt><trkpt lat="44.5101713" lon="8.8832799"><ele>130.0</ele><time>2026-04-03T11:41:20.999Z</time></trkpt><trkpt lat="44.5102716" lon="8.8832272"><ele>130.0</ele><time>2026-04-03T11:41:21.999Z</time></trkpt><trkpt lat="44.5103678" lon="8.8831799"><ele>130.0</ele><time>2026-04-03T11:41:22.999Z</time></trkpt><trkpt lat="44.5104627" lon="8.8831083"><ele>130.0</ele><time>2026-04-03T11:41:23.999Z</time></trkpt><trkpt lat="44.5105478" lon="8.8830307"><ele>130.0</ele><time>2026-04-03T11:41:24.999Z</time></trkpt><trkpt lat="44.5106233" lon="8.8829278"><ele>130.0</ele><time>2026-04-03T11:41:25.999Z</time></trkpt><trkpt lat="44.5106831" lon="8.8828064"><ele>130.0</ele><time>2026-04-03T11:41:26.999Z</time></trkpt><trkpt lat="44.5107352" lon="8.8826763"><ele>130.0</ele><time>2026-04-03T11:41:27.999Z</time></trkpt><trkpt lat="44.5107781" lon="8.882543"><ele>130.0</ele><time>2026-04-03T11:41:29Z</time></trkpt><trkpt lat="44.5108139" lon="8.8823993"><ele>131.5</ele><time>2026-04-03T11:41:29.999Z</time></trkpt><trkpt lat="44.5108448" lon="8.8822566"><ele>133.0</ele><time>2026-04-03T11:41:31Z</time></trkpt><trkpt lat="44.5108753" lon="8.8821034"><ele>134.5</ele><time>2026-04-03T11:41:31.999Z</time></trkpt><trkpt lat="44.5109105" lon="8.8819479"><ele>136.0</ele><time>2026-04-03T11:41:33.405Z</time></trkpt><trkpt lat="44.51096" lon="8.8816186"><ele>137.5</ele><time>2026-04-03T11:41:34.999Z</time></trkpt><trkpt lat="44.5109756" lon="8.881458"><ele>139.0</ele><time>2026-04-03T11:41:35.999Z</time></trkpt><trkpt lat="44.5109946" lon="8.8812791"><ele>140.5</ele><time>2026-04-03T11:41:36.999Z</time></trkpt><trkpt lat="44.5110166" lon="8.8810943"><ele>142.0</ele><time>2026-04-03T11:41:37.999Z</time></trkpt><trkpt lat="44.5110355" lon="8.8809143"><ele>144.25</ele><time>2026-04-03T11:41:38.999Z</time></trkpt><trkpt lat="44.5110663" lon="8.8807188"><ele>146.5</ele><time>2026-04-03T11:41:39.999Z</time></trkpt><trkpt lat="44.5111022" lon="8.8805273"><ele>148.75</ele><time>2026-04-03T11:41:41.115Z</time></trkpt><trkpt lat="44.5111266" lon="8.8803472"><ele>151.0</ele><time>2026-04-03T11:41:42.123Z</time></trkpt><trkpt lat="44.511144" lon="8.8801854"><ele>150.25</ele><time>2026-04-03T11:41:43.122Z</time></trkpt><trkpt lat="44.5111657" lon="8.8800316"><ele>149.5</ele><time>2026-04-03T11:41:44.135Z</time></trkpt><trkpt lat="44.5111891" lon="8.8798796"><ele>148.75</ele><time>2026-04-03T11:41:45.102Z</time></trkpt><trkpt lat="44.5112949" lon="8.8796193"><ele>148.0</ele><time>2026-04-03T11:41:47.182Z</time></trkpt><trkpt lat="44.511445" lon="8.8793956"><ele>148.0</ele><time>2026-04-03T11:41:48.999Z</time></trkpt><trkpt lat="44.511531" lon="8.8792764"><ele>148.0</ele><time>2026-04-03T11:41:49.999Z</time></trkpt><trkpt lat="44.511615" lon="8.8791514"><ele>148.0</ele><time>2026-04-03T11:41:51.101Z</time></trkpt><trkpt lat="44.5117842" lon="8.8789178"><ele>148.5</ele><time>2026-04-03T11:41:53.103Z</time></trkpt><trkpt lat="44.5118674" lon="8.8788169"><ele>149.0</ele><time>2026-04-03T11:41:54.11Z</time></trkpt><trkpt lat="44.5120194" lon="8.8786652"><ele>149.5</ele><time>2026-04-03T11:41:56.104Z</time></trkpt><trkpt lat="44.5121045" lon="8.8786002"><ele>150.0</ele><time>2026-04-03T11:41:57.1Z</time></trkpt><trkpt lat="44.5122423" lon="8.878591"><ele>150.0</ele><time>2026-04-03T11:41:58.103Z</time></trkpt><trkpt lat="44.5123137" lon="8.8785362"><ele>150.0</ele><time>2026-04-03T11:41:59.107Z</time></trkpt><trkpt lat="44.5123871" lon="8.8784477"><ele>150.0</ele><time>2026-04-03T11:42:00.103Z</time></trkpt><trkpt lat="44.5124435" lon="8.8783602"><ele>150.0</ele><time>2026-04-03T11:42:01.173Z</time></trkpt><trkpt lat="44.5124703" lon="8.8782578"><ele>150.0</ele><time>2026-04-03T11:42:02.155Z</time></trkpt><trkpt lat="44.512516" lon="8.8780955"><ele>151.0</ele><time>2026-04-03T11:42:04.206Z</time></trkpt><trkpt lat="44.5125637" lon="8.8779636"><ele>152.0</ele><time>2026-04-03T11:42:06.101Z</time></trkpt><trkpt lat="44.5126076" lon="8.8778415"><ele>153.0</ele><time>2026-04-03T11:42:08.203Z</time></trkpt><trkpt lat="44.5126576" lon="8.8776946"><ele>154.0</ele><time>2026-04-03T11:42:11Z</time></trkpt><trkpt lat="44.5126884" lon="8.8776053"><ele>155.0</ele><time>2026-04-03T11:42:12.999Z</time></trkpt><trkpt lat="44.5127174" lon="8.8774837"><ele>156.2</ele><time>2026-04-03T11:42:15.125Z</time></trkpt><trkpt lat="44.5127437" lon="8.8773282"><ele>157.4</ele><time>2026-04-03T11:42:17.101Z</time></trkpt><trkpt lat="44.5127891" lon="8.8771709"><ele>158.60000000000002</ele><time>2026-04-03T11:42:19.103Z</time></trkpt><trkpt lat="44.5128347" lon="8.876989"><ele>159.8</ele><time>2026-04-03T11:42:21.183Z</time></trkpt><trkpt lat="44.5128667" lon="8.8769124"><ele>161.0</ele><time>2026-04-03T11:42:22.132Z</time></trkpt><trkpt lat="44.5129069" lon="8.8768407"><ele>159.60000000000002</ele><time>2026-04-03T11:42:23.173Z</time></trkpt><trkpt lat="44.5129527" lon="8.8767511"><ele>158.20000000000002</ele><time>2026-04-03T11:42:24.161Z</time></trkpt><trkpt lat="44.5129886" lon="8.8766443"><ele>156.8</ele><time>2026-04-03T11:42:25.105Z</time></trkpt><trkpt lat="44.5130293" lon="8.8765591"><ele>155.4</ele><time>2026-04-03T11:42:26.101Z</time></trkpt><trkpt lat="44.5130614" lon="8.8764628"><ele>154.0</ele><time>2026-04-03T11:42:27.207Z</time></trkpt><trkpt lat="44.5130984" lon="8.8762298"><ele>154.0</ele><time>2026-04-03T11:42:29.191Z</time></trkpt><trkpt lat="44.5131487" lon="8.875994"><ele>154.0</ele><time>2026-04-03T11:42:31.181Z</time></trkpt><trkpt lat="44.5131719" lon="8.8758729"><ele>154.0</ele><time>2026-04-03T11:42:32.196Z</time></trkpt><trkpt lat="44.5131873" lon="8.8757455"><ele>154.0</ele><time>2026-04-03T11:42:33.204Z</time></trkpt><trkpt lat="44.513192" lon="8.8756106"><ele>154.5</ele><time>2026-04-03T11:42:34.211Z</time></trkpt><trkpt lat="44.5132005" lon="8.8753375"><ele>155.0</ele><time>2026-04-03T11:42:35.999Z</time></trkpt><trkpt lat="44.5132113" lon="8.8752025"><ele>155.5</ele><time>2026-04-03T11:42:37.206Z</time></trkpt><trkpt lat="44.5132293" lon="8.8750663"><ele>156.0</ele><time>2026-04-03T11:42:38.193Z</time></trkpt><trkpt lat="44.5132537" lon="8.8749488"><ele>157.5</ele><time>2026-04-03T11:42:39.142Z</time></trkpt><trkpt lat="44.5132832" lon="8.8748403"><ele>159.0</ele><time>2026-04-03T11:42:40.103Z</time></trkpt><trkpt lat="44.5133232" lon="8.8747372"><ele>160.5</ele><time>2026-04-03T11:42:41.101Z</time></trkpt><trkpt lat="44.5133684" lon="8.8745532"><ele>162.0</ele><time>2026-04-03T11:42:43.217Z</time></trkpt><trkpt lat="44.5134528" lon="8.8743615"><ele>163.2</ele><time>2026-04-03T11:42:45.999Z</time></trkpt><trkpt lat="44.5134997" lon="8.8742564"><ele>164.39999999999998</ele><time>2026-04-03T11:42:48.17Z</time></trkpt><trkpt lat="44.5134566" lon="8.8740104"><ele>165.60000000000002</ele><time>2026-04-03T11:42:49.999Z</time></trkpt><trkpt lat="44.513438" lon="8.8739005"><ele>166.8</ele><time>2026-04-03T11:42:51.104Z</time></trkpt><trkpt lat="44.513425" lon="8.8738021"><ele>168.0</ele><time>2026-04-03T11:42:52.148Z</time></trkpt><trkpt lat="44.5134123" lon="8.873662"><ele>168.0</ele><time>2026-04-03T11:42:53.174Z</time></trkpt><trkpt lat="44.5133889" lon="8.8735333"><ele>168.0</ele><time>2026-04-03T11:42:54.147Z</time></trkpt><trkpt lat="44.5133037" lon="8.8732786"><ele>168.0</ele><time>2026-04-03T11:42:56.101Z</time></trkpt><trkpt lat="44.5132503" lon="8.8731705"><ele>168.0</ele><time>2026-04-03T11:42:57.124Z</time></trkpt><trkpt lat="44.5131764" lon="8.8730663"><ele>166.5</ele><time>2026-04-03T11:42:58.133Z</time></trkpt><trkpt lat="44.5130908" lon="8.872957"><ele>165.0</ele><time>2026-04-03T11:42:59.126Z</time></trkpt><trkpt lat="44.5129916" lon="8.8728401"><ele>163.5</ele><time>2026-04-03T11:43:00.101Z</time></trkpt><trkpt lat="44.512902" lon="8.8727636"><ele>162.0</ele><time>2026-04-03T11:43:01.109Z</time></trkpt><trkpt lat="44.5128119" lon="8.8726414"><ele>164.75</ele><time>2026-04-03T11:43:02.177Z</time></trkpt><trkpt lat="44.5127226" lon="8.8725195"><ele>167.5</ele><time>2026-04-03T11:43:03.176Z</time></trkpt><trkpt lat="44.512631" lon="8.8724138"><ele>170.25</ele><time>2026-04-03T11:43:04.151Z</time></trkpt><trkpt lat="44.5125522" lon="8.8723296"><ele>173.0</ele><time>2026-04-03T11:43:05.107Z</time></trkpt><trkpt lat="44.5124584" lon="8.8722118"><ele>173.0</ele><time>2026-04-03T11:43:06.103Z</time></trkpt><trkpt lat="44.512376" lon="8.8721008"><ele>173.0</ele><time>2026-04-03T11:43:07.151Z</time></trkpt><trkpt lat="44.5122828" lon="8.8720037"><ele>173.0</ele><time>2026-04-03T11:43:08.145Z</time></trkpt><trkpt lat="44.5121964" lon="8.8718866"><ele>173.0</ele><time>2026-04-03T11:43:09.147Z</time></trkpt><trkpt lat="44.512113" lon="8.8717965"><ele>175.25</ele><time>2026-04-03T11:43:10.107Z</time></trkpt><trkpt lat="44.5120312" lon="8.8717023"><ele>177.5</ele><time>2026-04-03T11:43:11.101Z</time></trkpt><trkpt lat="44.5119436" lon="8.8715811"><ele>179.75</ele><time>2026-04-03T11:43:12.163Z</time></trkpt><trkpt lat="44.5118582" lon="8.8714638"><ele>182.0</ele><time>2026-04-03T11:43:13.103Z</time></trkpt><trkpt lat="44.5117699" lon="8.8713265"><ele>182.0</ele><time>2026-04-03T11:43:14.191Z</time></trkpt><trkpt lat="44.5116843" lon="8.8712033"><ele>182.0</ele><time>2026-04-03T11:43:15.103Z</time></trkpt><trkpt lat="44.5115209" lon="8.870946"><ele>182.0</ele><time>2026-04-03T11:43:17.204Z</time></trkpt><trkpt lat="44.5114445" lon="8.870819"><ele>178.33333333333331</ele><time>2026-04-03T11:43:18.173Z</time></trkpt><trkpt lat="44.5113684" lon="8.8706794"><ele>174.66666666666666</ele><time>2026-04-03T11:43:19.182Z</time></trkpt><trkpt lat="44.511237" lon="8.8704467"><ele>171.0</ele><time>2026-04-03T11:43:21.109Z</time></trkpt><trkpt lat="44.5111219" lon="8.8702303"><ele>175.0</ele><time>2026-04-03T11:43:22.999Z</time></trkpt><trkpt lat="44.5110569" lon="8.8700819"><ele>179.0</ele><time>2026-04-03T11:43:23.999Z</time></trkpt><trkpt lat="44.5109943" lon="8.8699561"><ele>183.0</ele><time>2026-04-03T11:43:25.107Z</time></trkpt><trkpt lat="44.5108617" lon="8.869691"><ele>183.0</ele><time>2026-04-03T11:43:26.999Z</time></trkpt><trkpt lat="44.510811" lon="8.8695809"><ele>183.0</ele><time>2026-04-03T11:43:28.105Z</time></trkpt><trkpt lat="44.510739" lon="8.8694787"><ele>183.0</ele><time>2026-04-03T11:43:29.233Z</time></trkpt><trkpt lat="44.5106811" lon="8.8692319"><ele>183.0</ele><time>2026-04-03T11:43:31.11Z</time></trkpt><trkpt lat="44.5106309" lon="8.8690842"><ele>184.0</ele><time>2026-04-03T11:43:32.159Z</time></trkpt><trkpt lat="44.5105812" lon="8.8689489"><ele>185.0</ele><time>2026-04-03T11:43:33.194Z</time></trkpt><trkpt lat="44.5105268" lon="8.8688195"><ele>186.0</ele><time>2026-04-03T11:43:34.16Z</time></trkpt><trkpt lat="44.5104675" lon="8.8686975"><ele>187.0</ele><time>2026-04-03T11:43:35.1Z</time></trkpt><trkpt lat="44.5104038" lon="8.8685845"><ele>188.0</ele><time>2026-04-03T11:43:36.103Z</time></trkpt><trkpt lat="44.5103347" lon="8.8684708"><ele>185.25</ele><time>2026-04-03T11:43:37.167Z</time></trkpt><trkpt lat="44.5102804" lon="8.8683465"><ele>182.5</ele><time>2026-04-03T11:43:38.14Z</time></trkpt><trkpt lat="44.5102203" lon="8.8682209"><ele>179.75</ele><time>2026-04-03T11:43:39.158Z</time></trkpt><trkpt lat="44.5100913" lon="8.8679674"><ele>177.0</ele><time>2026-04-03T11:43:40.999Z</time></trkpt><trkpt lat="44.510013" lon="8.8678444"><ele>177.0</ele><time>2026-04-03T11:43:41.999Z</time></trkpt><trkpt lat="44.5099306" lon="8.8677249"><ele>177.0</ele><time>2026-04-03T11:43:43.179Z</time></trkpt><trkpt lat="44.5098419" lon="8.8676212"><ele>177.0</ele><time>2026-04-03T11:43:44.183Z</time></trkpt><trkpt lat="44.5096716" lon="8.8674808"><ele>177.0</ele><time>2026-04-03T11:43:45.999Z</time></trkpt><trkpt lat="44.5095786" lon="8.8674166"><ele>179.75</ele><time>2026-04-03T11:43:47.156Z</time></trkpt><trkpt lat="44.5094846" lon="8.8673429"><ele>182.5</ele><time>2026-04-03T11:43:48.183Z</time></trkpt><trkpt lat="44.5093971" lon="8.8672679"><ele>185.25</ele><time>2026-04-03T11:43:49.16Z</time></trkpt><trkpt lat="44.5092784" lon="8.8670171"><ele>188.0</ele><time>2026-04-03T11:43:51.105Z</time></trkpt><trkpt lat="44.5091896" lon="8.8667787"><ele>186.75</ele><time>2026-04-03T11:43:53.138Z</time></trkpt><trkpt lat="44.5091573" lon="8.8666777"><ele>185.5</ele><time>2026-04-03T11:43:54.131Z</time></trkpt><trkpt lat="44.5091589" lon="8.8663478"><ele>184.25</ele><time>2026-04-03T11:43:55.999Z</time></trkpt><trkpt lat="44.5091593" lon="8.8662086"><ele>183.0</ele><time>2026-04-03T11:43:57.173Z</time></trkpt><trkpt lat="44.5091532" lon="8.8660582"><ele>183.75</ele><time>2026-04-03T11:43:58.145Z</time></trkpt><trkpt lat="44.5091401" lon="8.8659024"><ele>184.5</ele><time>2026-04-03T11:43:59.122Z</time></trkpt><trkpt lat="44.5091119" lon="8.8657203"><ele>185.25</ele><time>2026-04-03T11:44:00.109Z</time></trkpt><trkpt lat="44.509081" lon="8.8654471"><ele>186.0</ele><time>2026-04-03T11:44:01.999Z</time></trkpt><trkpt lat="44.5090408" lon="8.8652852"><ele>186.0</ele><time>2026-04-03T11:44:03.13Z</time></trkpt><trkpt lat="44.5089934" lon="8.8651665"><ele>186.0</ele><time>2026-04-03T11:44:04.151Z</time></trkpt><trkpt lat="44.508964" lon="8.8650288"><ele>186.0</ele><time>2026-04-03T11:44:05.102Z</time></trkpt><trkpt lat="44.5088924" lon="8.8647588"><ele>186.0</ele><time>2026-04-03T11:44:06.999Z</time></trkpt><trkpt lat="44.5088737" lon="8.8646565"><ele>187.8</ele><time>2026-04-03T11:44:08Z</time></trkpt><trkpt lat="44.5088534" lon="8.8645514"><ele>189.60000000000002</ele><time>2026-04-03T11:44:09.191Z</time></trkpt><trkpt lat="44.5088605" lon="8.8643211"><ele>191.4</ele><time>2026-04-03T11:44:11.101Z</time></trkpt><trkpt lat="44.5088686" lon="8.8642233"><ele>193.2</ele><time>2026-04-03T11:44:12.19Z</time></trkpt><trkpt lat="44.5088885" lon="8.8641178"><ele>195.0</ele><time>2026-04-03T11:44:13.155Z</time></trkpt><trkpt lat="44.5089145" lon="8.8640246"><ele>195.2</ele><time>2026-04-03T11:44:14.19Z</time></trkpt><trkpt lat="44.5089472" lon="8.8639391"><ele>195.4</ele><time>2026-04-03T11:44:15.107Z</time></trkpt><trkpt lat="44.5089966" lon="8.8638398"><ele>195.60000000000002</ele><time>2026-04-03T11:44:16.101Z</time></trkpt><trkpt lat="44.5090898" lon="8.8638143"><ele>195.8</ele><time>2026-04-03T11:44:17.193Z</time></trkpt><trkpt lat="44.5092444" lon="8.8637068"><ele>196.0</ele><time>2026-04-03T11:44:19.104Z</time></trkpt><trkpt lat="44.5093777" lon="8.8634855"><ele>195.5</ele><time>2026-04-03T11:44:20.999Z</time></trkpt><trkpt lat="44.5094369" lon="8.8633745"><ele>195.0</ele><time>2026-04-03T11:44:22.102Z</time></trkpt><trkpt lat="44.5094933" lon="8.8632611"><ele>194.5</ele><time>2026-04-03T11:44:23.102Z</time></trkpt><trkpt lat="44.5095425" lon="8.8631468"><ele>194.0</ele><time>2026-04-03T11:44:24.214Z</time></trkpt><trkpt lat="44.5096427" lon="8.8629229"><ele>202.5</ele><time>2026-04-03T11:44:26.103Z</time></trkpt><trkpt lat="44.5097816" lon="8.8626572"><ele>211.0</ele><time>2026-04-03T11:44:28.101Z</time></trkpt><trkpt lat="44.50993" lon="8.8624256"><ele>211.0</ele><time>2026-04-03T11:44:29.999Z</time></trkpt><trkpt lat="44.5099853" lon="8.8622962"><ele>211.0</ele><time>2026-04-03T11:44:31.217Z</time></trkpt><trkpt lat="44.5100444" lon="8.8621562"><ele>211.0</ele><time>2026-04-03T11:44:32.207Z</time></trkpt><trkpt lat="44.5101047" lon="8.8620194"><ele>211.0</ele><time>2026-04-03T11:44:33.214Z</time></trkpt><trkpt lat="44.5101571" lon="8.8618799"><ele>211.20000000000002</ele><time>2026-04-03T11:44:34.179Z</time></trkpt><trkpt lat="44.5102051" lon="8.8617421"><ele>211.4</ele><time>2026-04-03T11:44:35.109Z</time></trkpt><trkpt lat="44.5102571" lon="8.8616039"><ele>211.6</ele><time>2026-04-03T11:44:36.101Z</time></trkpt><trkpt lat="44.5103054" lon="8.8614654"><ele>211.8</ele><time>2026-04-03T11:44:37.192Z</time></trkpt><trkpt lat="44.510361" lon="8.8613525"><ele>212.0</ele><time>2026-04-03T11:44:38.128Z</time></trkpt><trkpt lat="44.5104203" lon="8.8612272"><ele>214.5</ele><time>2026-04-03T11:44:39.134Z</time></trkpt><trkpt lat="44.5104683" lon="8.8611219"><ele>217.0</ele><time>2026-04-03T11:44:40.105Z</time></trkpt><trkpt lat="44.510523" lon="8.860991"><ele>219.5</ele><time>2026-04-03T11:44:41.102Z</time></trkpt><trkpt lat="44.5106423" lon="8.8607997"><ele>222.0</ele><time>2026-04-03T11:44:43.181Z</time></trkpt><trkpt lat="44.5106942" lon="8.860676"><ele>222.0</ele><time>2026-04-03T11:44:44.202Z</time></trkpt><trkpt lat="44.510875" lon="8.8605391"><ele>222.0</ele><time>2026-04-03T11:44:46.109Z</time></trkpt><trkpt lat="44.5109699" lon="8.8604385"><ele>222.0</ele><time>2026-04-03T11:44:47.187Z</time></trkpt><trkpt lat="44.511048" lon="8.8603289"><ele>222.0</ele><time>2026-04-03T11:44:48.152Z</time></trkpt><trkpt lat="44.5111169" lon="8.8602086"><ele>218.75</ele><time>2026-04-03T11:44:49.111Z</time></trkpt><trkpt lat="44.5111771" lon="8.8600884"><ele>215.5</ele><time>2026-04-03T11:44:50.107Z</time></trkpt><trkpt lat="44.5112298" lon="8.8599705"><ele>212.25</ele><time>2026-04-03T11:44:51.108Z</time></trkpt><trkpt lat="44.5112896" lon="8.8598695"><ele>209.0</ele><time>2026-04-03T11:44:52.101Z</time></trkpt><trkpt lat="44.5112557" lon="8.8595059"><ele>209.0</ele><time>2026-04-03T11:44:54.164Z</time></trkpt><trkpt lat="44.511237" lon="8.8593746"><ele>209.0</ele><time>2026-04-03T11:44:55.103Z</time></trkpt><trkpt lat="44.5112314" lon="8.8592355"><ele>209.0</ele><time>2026-04-03T11:44:56.101Z</time></trkpt><trkpt lat="44.5112868" lon="8.8589975"><ele>209.0</ele><time>2026-04-03T11:44:57.999Z</time></trkpt><trkpt lat="44.511376" lon="8.8588311"><ele>214.33333333333334</ele><time>2026-04-03T11:44:59.999Z</time></trkpt><trkpt lat="44.5114669" lon="8.8587496"><ele>219.66666666666669</ele><time>2026-04-03T11:45:01.104Z</time></trkpt><trkpt lat="44.5116085" lon="8.8585655"><ele>225.0</ele><time>2026-04-03T11:45:03.105Z</time></trkpt><trkpt lat="44.5117058" lon="8.8583329"><ele>225.0</ele><time>2026-04-03T11:45:04.999Z</time></trkpt><trkpt lat="44.5117391" lon="8.8582246"><ele>225.0</ele><time>2026-04-03T11:45:06.105Z</time></trkpt><trkpt lat="44.5117914" lon="8.8579704"><ele>225.0</ele><time>2026-04-03T11:45:08Z</time></trkpt><trkpt lat="44.5118291" lon="8.8578444"><ele>225.0</ele><time>2026-04-03T11:45:09.106Z</time></trkpt><trkpt lat="44.5118475" lon="8.8576658"><ele>224.75</ele><time>2026-04-03T11:45:10.999Z</time></trkpt><trkpt lat="44.5117758" lon="8.8574285"><ele>224.5</ele><time>2026-04-03T11:45:13.104Z</time></trkpt><trkpt lat="44.5117366" lon="8.8573436"><ele>224.25</ele><time>2026-04-03T11:45:14.104Z</time></trkpt><trkpt lat="44.5116418" lon="8.8571311"><ele>224.0</ele><time>2026-04-03T11:45:16.103Z</time></trkpt><trkpt lat="44.5116185" lon="8.8570297"><ele>224.00000000000003</ele><time>2026-04-03T11:45:17.106Z</time></trkpt><trkpt lat="44.5116121" lon="8.8569155"><ele>224.0</ele><time>2026-04-03T11:45:18.152Z</time></trkpt><trkpt lat="44.5116483" lon="8.8568399"><ele>224.0</ele><time>2026-04-03T11:45:19.173Z</time></trkpt><trkpt lat="44.5117021" lon="8.8567535"><ele>224.0</ele><time>2026-04-03T11:45:20.103Z</time></trkpt><trkpt lat="44.5117565" lon="8.8566674"><ele>224.00000000000003</ele><time>2026-04-03T11:45:21.101Z</time></trkpt><trkpt lat="44.511818" lon="8.8565689"><ele>224.0</ele><time>2026-04-03T11:45:22.187Z</time></trkpt><trkpt lat="44.5119523" lon="8.8563765"><ele>224.0</ele><time>2026-04-03T11:45:23.999Z</time></trkpt><trkpt lat="44.5119877" lon="8.856259"><ele>223.99999999999997</ele><time>2026-04-03T11:45:24.999Z</time></trkpt><trkpt lat="44.511961" lon="8.8560683"><ele>223.99999999999997</ele><time>2026-04-03T11:45:25.999Z</time></trkpt><trkpt lat="44.5119746" lon="8.855938"><ele>224.0</ele><time>2026-04-03T11:45:26.999Z</time></trkpt><trkpt lat="44.5119809" lon="8.8557998"><ele>224.0</ele><time>2026-04-03T11:45:28.168Z</time></trkpt><trkpt lat="44.5119233" lon="8.8555756"><ele>224.79999999999998</ele><time>2026-04-03T11:45:29.999Z</time></trkpt><trkpt lat="44.5118923" lon="8.8554572"><ele>225.59999999999997</ele><time>2026-04-03T11:45:30.999Z</time></trkpt><trkpt lat="44.5118744" lon="8.8553531"><ele>226.4</ele><time>2026-04-03T11:45:32.181Z</time></trkpt><trkpt lat="44.5118409" lon="8.8551902"><ele>227.2</ele><time>2026-04-03T11:45:33.157Z</time></trkpt><trkpt lat="44.5118384" lon="8.8550474"><ele>228.0</ele><time>2026-04-03T11:45:34.158Z</time></trkpt><trkpt lat="44.5118503" lon="8.8549118"><ele>230.0</ele><time>2026-04-03T11:45:35.104Z</time></trkpt><trkpt lat="44.5118539" lon="8.854746"><ele>232.0</ele><time>2026-04-03T11:45:36.107Z</time></trkpt><trkpt lat="44.5118844" lon="8.854461"><ele>234.0</ele><time>2026-04-03T11:45:37.999Z</time></trkpt><trkpt lat="44.5119132" lon="8.8543352"><ele>236.0</ele><time>2026-04-03T11:45:39.103Z</time></trkpt><trkpt lat="44.5119396" lon="8.8541957"><ele>236.20000000000002</ele><time>2026-04-03T11:45:40.102Z</time></trkpt><trkpt lat="44.5119716" lon="8.8540681"><ele>236.40000000000003</ele><time>2026-04-03T11:45:41.116Z</time></trkpt><trkpt lat="44.5120051" lon="8.8539429"><ele>236.6</ele><time>2026-04-03T11:45:42.104Z</time></trkpt><trkpt lat="44.5120328" lon="8.8538442"><ele>236.8</ele><time>2026-04-03T11:45:43.172Z</time></trkpt><trkpt lat="44.5120473" lon="8.8537108"><ele>237.0</ele><time>2026-04-03T11:45:44.102Z</time></trkpt><trkpt lat="44.5121157" lon="8.8536178"><ele>239.0</ele><time>2026-04-03T11:45:45.101Z</time></trkpt><trkpt lat="44.5121874" lon="8.8535214"><ele>241.0</ele><time>2026-04-03T11:45:46.102Z</time></trkpt><trkpt lat="44.5122517" lon="8.8534121"><ele>243.0</ele><time>2026-04-03T11:45:47.157Z</time></trkpt><trkpt lat="44.5122948" lon="8.8532774"><ele>245.0</ele><time>2026-04-03T11:45:48.176Z</time></trkpt><trkpt lat="44.5123579" lon="8.8531656"><ele>247.0</ele><time>2026-04-03T11:45:49.132Z</time></trkpt><trkpt lat="44.5123757" lon="8.853033"><ele>247.0</ele><time>2026-04-03T11:45:50.105Z</time></trkpt><trkpt lat="44.5123998" lon="8.8527551"><ele>247.0</ele><time>2026-04-03T11:45:51.999Z</time></trkpt><trkpt lat="44.5124116" lon="8.852633"><ele>247.0</ele><time>2026-04-03T11:45:52.999Z</time></trkpt><trkpt lat="44.512454" lon="8.8525258"><ele>247.0</ele><time>2026-04-03T11:45:53.999Z</time></trkpt><trkpt lat="44.5124873" lon="8.8524381"><ele>247.0</ele><time>2026-04-03T11:45:54.999Z</time></trkpt><trkpt lat="44.5125959" lon="8.8523819"><ele>247.2</ele><time>2026-04-03T11:45:55.999Z</time></trkpt><trkpt lat="44.5126712" lon="8.8522959"><ele>247.39999999999998</ele><time>2026-04-03T11:45:56.999Z</time></trkpt><trkpt lat="44.5127404" lon="8.8521969"><ele>247.60000000000002</ele><time>2026-04-03T11:45:57.999Z</time></trkpt><trkpt lat="44.5127966" lon="8.8520697"><ele>247.8</ele><time>2026-04-03T11:45:58.999Z</time></trkpt><trkpt lat="44.5128236" lon="8.8519256"><ele>248.0</ele><time>2026-04-03T11:46:00Z</time></trkpt><trkpt lat="44.5128594" lon="8.8517831"><ele>250.0</ele><time>2026-04-03T11:46:00.999Z</time></trkpt><trkpt lat="44.5129023" lon="8.851643"><ele>252.0</ele><time>2026-04-03T11:46:01.999Z</time></trkpt><trkpt lat="44.5129158" lon="8.8515562"><ele>254.0</ele><time>2026-04-03T11:46:02.999Z</time></trkpt><trkpt lat="44.512815" lon="8.8513727"><ele>256.0</ele><time>2026-04-03T11:46:03.999Z</time></trkpt><trkpt lat="44.5127687" lon="8.8512607"><ele>258.0</ele><time>2026-04-03T11:46:04.999Z</time></trkpt><trkpt lat="44.5127391" lon="8.8511338"><ele>258.0</ele><time>2026-04-03T11:46:05.999Z</time></trkpt><trkpt lat="44.5126453" lon="8.8510152"><ele>258.0</ele><time>2026-04-03T11:46:07.127Z</time></trkpt><trkpt lat="44.5125705" lon="8.8508598"><ele>258.0</ele><time>2026-04-03T11:46:08.186Z</time></trkpt><trkpt lat="44.5124912" lon="8.850687"><ele>258.0</ele><time>2026-04-03T11:46:09.146Z</time></trkpt><trkpt lat="44.5124491" lon="8.8505224"><ele>258.3333333333333</ele><time>2026-04-03T11:46:10.104Z</time></trkpt><trkpt lat="44.5124176" lon="8.8503132"><ele>258.66666666666663</ele><time>2026-04-03T11:46:11.102Z</time></trkpt><trkpt lat="44.5124357" lon="8.8499462"><ele>259.0</ele><time>2026-04-03T11:46:13.104Z</time></trkpt><trkpt lat="44.5125026" lon="8.8495988"><ele>257.0</ele><time>2026-04-03T11:46:14.999Z</time></trkpt><trkpt lat="44.5125398" lon="8.84945"><ele>255.0</ele><time>2026-04-03T11:46:16.187Z</time></trkpt><trkpt lat="44.5125707" lon="8.8492962"><ele>253.0</ele><time>2026-04-03T11:46:17.144Z</time></trkpt><trkpt lat="44.512643" lon="8.8491818"><ele>251.0</ele><time>2026-04-03T11:46:18.156Z</time></trkpt><trkpt lat="44.512762" lon="8.8489472"><ele>255.0</ele><time>2026-04-03T11:46:20.105Z</time></trkpt><trkpt lat="44.5129073" lon="8.8487487"><ele>259.0</ele><time>2026-04-03T11:46:22.151Z</time></trkpt><trkpt lat="44.5129894" lon="8.848695"><ele>263.0</ele><time>2026-04-03T11:46:23.113Z</time></trkpt><trkpt lat="44.5130812" lon="8.8486892"><ele>267.0</ele><time>2026-04-03T11:46:24.161Z</time></trkpt><trkpt lat="44.5131716" lon="8.848655"><ele>267.0</ele><time>2026-04-03T11:46:25.109Z</time></trkpt><trkpt lat="44.5132274" lon="8.8487474"><ele>267.0</ele><time>2026-04-03T11:46:27.163Z</time></trkpt><trkpt lat="44.5132934" lon="8.8488249"><ele>267.0</ele><time>2026-04-03T11:46:28.999Z</time></trkpt><trkpt lat="44.5133457" lon="8.8489518"><ele>267.0</ele><time>2026-04-03T11:46:31.999Z</time></trkpt><trkpt lat="44.5133516" lon="8.8490679"><ele>267.0</ele><time>2026-04-03T11:46:32.999Z</time></trkpt><trkpt lat="44.5132972" lon="8.8492329"><ele>269.2</ele><time>2026-04-03T11:46:34.999Z</time></trkpt><trkpt lat="44.5132241" lon="8.8493398"><ele>271.4</ele><time>2026-04-03T11:46:36Z</time></trkpt><trkpt lat="44.513163" lon="8.8494731"><ele>273.6</ele><time>2026-04-03T11:46:36.999Z</time></trkpt><trkpt lat="44.5131167" lon="8.8496053"><ele>275.8</ele><time>2026-04-03T11:46:37.999Z</time></trkpt><trkpt lat="44.5130966" lon="8.849754"><ele>278.0</ele><time>2026-04-03T11:46:38.999Z</time></trkpt><trkpt lat="44.5130769" lon="8.8499026"><ele>278.0</ele><time>2026-04-03T11:46:39.999Z</time></trkpt><trkpt lat="44.5130528" lon="8.850058"><ele>278.0</ele><time>2026-04-03T11:46:40.999Z</time></trkpt><trkpt lat="44.513049" lon="8.8502196"><ele>278.0</ele><time>2026-04-03T11:46:41.999Z</time></trkpt><trkpt lat="44.5130619" lon="8.8503727"><ele>278.0</ele><time>2026-04-03T11:46:42.999Z</time></trkpt><trkpt lat="44.5131085" lon="8.8505411"><ele>277.75</ele><time>2026-04-03T11:46:43.999Z</time></trkpt><trkpt lat="44.5131699" lon="8.8506742"><ele>277.5</ele><time>2026-04-03T11:46:44.999Z</time></trkpt><trkpt lat="44.5132258" lon="8.8507999"><ele>277.25</ele><time>2026-04-03T11:46:46.105Z</time></trkpt><trkpt lat="44.5133446" lon="8.8510188"><ele>277.0</ele><time>2026-04-03T11:46:47.999Z</time></trkpt><trkpt lat="44.5133936" lon="8.8511899"><ele>277.66666666666663</ele><time>2026-04-03T11:46:49.103Z</time></trkpt><trkpt lat="44.5134165" lon="8.8514572"><ele>278.3333333333333</ele><time>2026-04-03T11:46:50.999Z</time></trkpt><trkpt lat="44.513385" lon="8.8516445"><ele>279.0</ele><time>2026-04-03T11:46:52.104Z</time></trkpt><trkpt lat="44.5133563" lon="8.8520912"><ele>279.0</ele><time>2026-04-03T11:46:53.999Z</time></trkpt><trkpt lat="44.51338" lon="8.8522771"><ele>279.0</ele><time>2026-04-03T11:46:54.999Z</time></trkpt><trkpt lat="44.5134086" lon="8.8524491"><ele>279.0</ele><time>2026-04-03T11:46:56.102Z</time></trkpt><trkpt lat="44.5134532" lon="8.8527611"><ele>279.1666666666667</ele><time>2026-04-03T11:46:57.999Z</time></trkpt><trkpt lat="44.513465" lon="8.8528975"><ele>279.3333333333333</ele><time>2026-04-03T11:46:58.999Z</time></trkpt><trkpt lat="44.5134917" lon="8.853011"><ele>279.5</ele><time>2026-04-03T11:47:00Z</time></trkpt><trkpt lat="44.5135418" lon="8.853096"><ele>279.66666666666663</ele><time>2026-04-03T11:47:01.102Z</time></trkpt><trkpt lat="44.5135977" lon="8.8531397"><ele>279.8333333333333</ele><time>2026-04-03T11:47:02.144Z</time></trkpt><trkpt lat="44.5136724" lon="8.8531959"><ele>280.0</ele><time>2026-04-03T11:47:03.152Z</time></trkpt><trkpt lat="44.5137729" lon="8.8531498"><ele>286.0</ele><time>2026-04-03T11:47:05.105Z</time></trkpt><trkpt lat="44.5138285" lon="8.8530263"><ele>292.0</ele><time>2026-04-03T11:47:06.104Z</time></trkpt><trkpt lat="44.5137552" lon="8.8528107"><ele>298.0</ele><time>2026-04-03T11:47:07.17Z</time></trkpt><trkpt lat="44.5138047" lon="8.8525997"><ele>304.0</ele><time>2026-04-03T11:47:09.118Z</time></trkpt><trkpt lat="44.5138877" lon="8.8524093"><ele>304.0</ele><time>2026-04-03T11:47:11.103Z</time></trkpt><trkpt lat="44.5139595" lon="8.852411"><ele>304.0</ele><time>2026-04-03T11:47:12.104Z</time></trkpt><trkpt lat="44.5142058" lon="8.8525688"><ele>304.0</ele><time>2026-04-03T11:47:14.187Z</time></trkpt><trkpt lat="44.5144278" lon="8.8526965"><ele>304.0</ele><time>2026-04-03T11:47:15.999Z</time></trkpt><trkpt lat="44.5145287" lon="8.8527664"><ele>304.0</ele><time>2026-04-03T11:47:17.18Z</time></trkpt><trkpt lat="44.5146422" lon="8.8528441"><ele>304.0</ele><time>2026-04-03T11:47:18.202Z</time></trkpt><trkpt lat="44.5147505" lon="8.8529029"><ele>304.0</ele><time>2026-04-03T11:47:19.174Z</time></trkpt><trkpt lat="44.5149755" lon="8.8529309"><ele>307.4</ele><time>2026-04-03T11:47:21.109Z</time></trkpt><trkpt lat="44.5150746" lon="8.8529028"><ele>310.79999999999995</ele><time>2026-04-03T11:47:22.159Z</time></trkpt><trkpt lat="44.5151521" lon="8.8528292"><ele>314.20000000000005</ele><time>2026-04-03T11:47:23.187Z</time></trkpt><trkpt lat="44.5152355" lon="8.8527398"><ele>317.6</ele><time>2026-04-03T11:47:24.176Z</time></trkpt><trkpt lat="44.5153054" lon="8.8526614"><ele>321.0</ele><time>2026-04-03T11:47:25.113Z</time></trkpt><trkpt lat="44.5153658" lon="8.8525893"><ele>321.0</ele><time>2026-04-03T11:47:26.103Z</time></trkpt><trkpt lat="44.5152715" lon="8.852496"><ele>321.0</ele><time>2026-04-03T11:47:28.148Z</time></trkpt><trkpt lat="44.515025" lon="8.8522443"><ele>321.0</ele><time>2026-04-03T11:47:29.999Z</time></trkpt><trkpt lat="44.5149168" lon="8.8521633"><ele>321.0</ele><time>2026-04-03T11:47:31.101Z</time></trkpt><trkpt lat="44.5148691" lon="8.852097"><ele>321.0</ele><time>2026-04-03T11:47:32.165Z</time></trkpt><trkpt lat="44.5147071" lon="8.8520807"><ele>321.0</ele><time>2026-04-03T11:47:33.999Z</time></trkpt><trkpt lat="44.5146498" lon="8.852007"><ele>321.0</ele><time>2026-04-03T11:47:34.999Z</time></trkpt><trkpt lat="44.5146164" lon="8.8519128"><ele>321.0</ele><time>2026-04-03T11:47:35.999Z</time></trkpt><trkpt lat="44.514628" lon="8.85182"><ele>322.0</ele><time>2026-04-03T11:47:36.999Z</time></trkpt><trkpt lat="44.5146931" lon="8.8517577"><ele>323.0</ele><time>2026-04-03T11:47:37.999Z</time></trkpt><trkpt lat="44.5147483" lon="8.851696"><ele>324.0</ele><time>2026-04-03T11:47:39Z</time></trkpt><trkpt lat="44.514892" lon="8.8516317"><ele>325.0</ele><time>2026-04-03T11:47:40.999Z</time></trkpt><trkpt lat="44.5150244" lon="8.851587"><ele>326.0</ele><time>2026-04-03T11:47:42.101Z</time></trkpt><trkpt lat="44.5151355" lon="8.851546"><ele>326.0</ele><time>2026-04-03T11:47:43.105Z</time></trkpt><trkpt lat="44.5152414" lon="8.8515067"><ele>326.0</ele><time>2026-04-03T11:47:44.19Z</time></trkpt><trkpt lat="44.5153444" lon="8.851467"><ele>326.0</ele><time>2026-04-03T11:47:45.1Z</time></trkpt><trkpt lat="44.5154533" lon="8.8514469"><ele>326.0</ele><time>2026-04-03T11:47:46.102Z</time></trkpt><trkpt lat="44.5155576" lon="8.8514871"><ele>326.0</ele><time>2026-04-03T11:47:47.126Z</time></trkpt><trkpt lat="44.5156663" lon="8.8515608"><ele>327.0</ele><time>2026-04-03T11:47:48.108Z</time></trkpt><trkpt lat="44.515865" lon="8.8517392"><ele>328.0</ele><time>2026-04-03T11:47:49.999Z</time></trkpt><trkpt lat="44.5159602" lon="8.8518367"><ele>329.0</ele><time>2026-04-03T11:47:51.102Z</time></trkpt><trkpt lat="44.516147" lon="8.8520192"><ele>329.6666666666667</ele><time>2026-04-03T11:47:53Z</time></trkpt><trkpt lat="44.5162356" lon="8.8520871"><ele>330.3333333333333</ele><time>2026-04-03T11:47:54.109Z</time></trkpt><trkpt lat="44.5164177" lon="8.8521598"><ele>331.0</ele><time>2026-04-03T11:47:56.106Z</time></trkpt><trkpt lat="44.5165679" lon="8.8519765"><ele>334.25</ele><time>2026-04-03T11:47:57.999Z</time></trkpt><trkpt lat="44.5166057" lon="8.8518697"><ele>337.5</ele><time>2026-04-03T11:47:58.999Z</time></trkpt><trkpt lat="44.5166222" lon="8.851751"><ele>340.75</ele><time>2026-04-03T11:48:00.105Z</time></trkpt><trkpt lat="44.5166456" lon="8.8516142"><ele>344.0</ele><time>2026-04-03T11:48:01.103Z</time></trkpt><trkpt lat="44.5166312" lon="8.851288"><ele>344.0</ele><time>2026-04-03T11:48:03Z</time></trkpt><trkpt lat="44.5166242" lon="8.851154"><ele>344.0</ele><time>2026-04-03T11:48:03.999Z</time></trkpt><trkpt lat="44.5166175" lon="8.8510106"><ele>344.0</ele><time>2026-04-03T11:48:05.104Z</time></trkpt><trkpt lat="44.5166126" lon="8.8508873"><ele>344.0</ele><time>2026-04-03T11:48:06.101Z</time></trkpt><trkpt lat="44.516664" lon="8.8507714"><ele>344.0</ele><time>2026-04-03T11:48:07.103Z</time></trkpt><trkpt lat="44.5167138" lon="8.8506676"><ele>343.4</ele><time>2026-04-03T11:48:08.101Z</time></trkpt><trkpt lat="44.5167631" lon="8.8505775"><ele>342.79999999999995</ele><time>2026-04-03T11:48:08.999Z</time></trkpt><trkpt lat="44.5167987" lon="8.8504937"><ele>342.20000000000005</ele><time>2026-04-03T11:48:09.999Z</time></trkpt><trkpt lat="44.5168943" lon="8.8504284"><ele>341.6</ele><time>2026-04-03T11:48:11.1Z</time></trkpt><trkpt lat="44.5169703" lon="8.8503602"><ele>341.0</ele><time>2026-04-03T11:48:12.103Z</time></trkpt><trkpt lat="44.5170869" lon="8.850163"><ele>346.0</ele><time>2026-04-03T11:48:14.137Z</time></trkpt><trkpt lat="44.5171446" lon="8.8500945"><ele>351.0</ele><time>2026-04-03T11:48:15.107Z</time></trkpt><trkpt lat="44.5172475" lon="8.8500738"><ele>356.0</ele><time>2026-04-03T11:48:17.102Z</time></trkpt><trkpt lat="44.517285" lon="8.8501492"><ele>361.0</ele><time>2026-04-03T11:48:18.164Z</time></trkpt><trkpt lat="44.5172913" lon="8.8503323"><ele>366.0</ele><time>2026-04-03T11:48:20.1Z</time></trkpt><trkpt lat="44.5172629" lon="8.8504788"><ele>367.0</ele><time>2026-04-03T11:48:21.108Z</time></trkpt><trkpt lat="44.517251" lon="8.8505912"><ele>368.0</ele><time>2026-04-03T11:48:22.189Z</time></trkpt><trkpt lat="44.5172332" lon="8.8506867"><ele>369.0</ele><time>2026-04-03T11:48:23.156Z</time></trkpt><trkpt lat="44.5171949" lon="8.8508347"><ele>370.0</ele><time>2026-04-03T11:48:24.178Z</time></trkpt><trkpt lat="44.5171707" lon="8.8509562"><ele>371.0</ele><time>2026-04-03T11:48:25.102Z</time></trkpt><trkpt lat="44.5171571" lon="8.8510763"><ele>372.0</ele><time>2026-04-03T11:48:26.106Z</time></trkpt><trkpt lat="44.517174" lon="8.8511979"><ele>372.20000000000005</ele><time>2026-04-03T11:48:27.147Z</time></trkpt><trkpt lat="44.5172078" lon="8.8513045"><ele>372.4</ele><time>2026-04-03T11:48:28.159Z</time></trkpt><trkpt lat="44.5172576" lon="8.851413"><ele>372.6</ele><time>2026-04-03T11:48:29.145Z</time></trkpt><trkpt lat="44.517302" lon="8.8515148"><ele>372.79999999999995</ele><time>2026-04-03T11:48:30.101Z</time></trkpt><trkpt lat="44.5173878" lon="8.851684"><ele>373.0</ele><time>2026-04-03T11:48:32.147Z</time></trkpt><trkpt lat="44.517429" lon="8.8518105"><ele>373.2</ele><time>2026-04-03T11:48:33.174Z</time></trkpt><trkpt lat="44.5174679" lon="8.8519176"><ele>373.4</ele><time>2026-04-03T11:48:34.133Z</time></trkpt><trkpt lat="44.5174869" lon="8.8520183"><ele>373.59999999999997</ele><time>2026-04-03T11:48:35.102Z</time></trkpt><trkpt lat="44.5174524" lon="8.8522454"><ele>373.79999999999995</ele><time>2026-04-03T11:48:37.151Z</time></trkpt><trkpt lat="44.5174102" lon="8.8523683"><ele>374.0</ele><time>2026-04-03T11:48:38.137Z</time></trkpt><trkpt lat="44.5173618" lon="8.8524819"><ele>374.0</ele><time>2026-04-03T11:48:39.153Z</time></trkpt><trkpt lat="44.5173156" lon="8.852605"><ele>374.0</ele><time>2026-04-03T11:48:40.104Z</time></trkpt><trkpt lat="44.5172382" lon="8.852843"><ele>374.0</ele><time>2026-04-03T11:48:42.187Z</time></trkpt><trkpt lat="44.5172224" lon="8.8529664"><ele>374.0</ele><time>2026-04-03T11:48:43.165Z</time></trkpt><trkpt lat="44.5172362" lon="8.8530974"><ele>375.0</ele><time>2026-04-03T11:48:44.156Z</time></trkpt><trkpt lat="44.5172722" lon="8.8532171"><ele>376.0</ele><time>2026-04-03T11:48:45.105Z</time></trkpt><trkpt lat="44.5173324" lon="8.8533042"><ele>377.0</ele><time>2026-04-03T11:48:45.999Z</time></trkpt><trkpt lat="44.5173958" lon="8.8534061"><ele>378.0</ele><time>2026-04-03T11:48:47.16Z</time></trkpt><trkpt lat="44.5174683" lon="8.853481"><ele>379.0</ele><time>2026-04-03T11:48:48.19Z</time></trkpt><trkpt lat="44.5175477" lon="8.8535576"><ele>379.4</ele><time>2026-04-03T11:48:49.165Z</time></trkpt><trkpt lat="44.517635" lon="8.8536295"><ele>379.79999999999995</ele><time>2026-04-03T11:48:50.103Z</time></trkpt><trkpt lat="44.5177222" lon="8.8536905"><ele>380.20000000000005</ele><time>2026-04-03T11:48:51.104Z</time></trkpt><trkpt lat="44.51781" lon="8.8537599"><ele>380.6</ele><time>2026-04-03T11:48:52.174Z</time></trkpt><trkpt lat="44.5179027" lon="8.8538194"><ele>381.0</ele><time>2026-04-03T11:48:53.163Z</time></trkpt><trkpt lat="44.5179937" lon="8.8538758"><ele>384.5</ele><time>2026-04-03T11:48:54.171Z</time></trkpt><trkpt lat="44.518159" lon="8.8539847"><ele>388.0</ele><time>2026-04-03T11:48:56.1Z</time></trkpt><trkpt lat="44.5182431" lon="8.8540486"><ele>391.5</ele><time>2026-04-03T11:48:57.187Z</time></trkpt><trkpt lat="44.5183325" lon="8.8541013"><ele>395.0</ele><time>2026-04-03T11:48:58.166Z</time></trkpt><trkpt lat="44.5184172" lon="8.8541226"><ele>395.0</ele><time>2026-04-03T11:48:59.134Z</time></trkpt><trkpt lat="44.5185802" lon="8.8540356"><ele>395.0</ele><time>2026-04-03T11:49:00.999Z</time></trkpt><trkpt lat="44.5186431" lon="8.8539589"><ele>395.0</ele><time>2026-04-03T11:49:02.157Z</time></trkpt><trkpt lat="44.518686" lon="8.8538521"><ele>395.0</ele><time>2026-04-03T11:49:03.156Z</time></trkpt><trkpt lat="44.5187132" lon="8.8537348"><ele>395.0</ele><time>2026-04-03T11:49:04.165Z</time></trkpt><trkpt lat="44.518745" lon="8.8536417"><ele>403.0</ele><time>2026-04-03T11:49:05.107Z</time></trkpt><trkpt lat="44.518773" lon="8.8535174"><ele>411.0</ele><time>2026-04-03T11:49:06.107Z</time></trkpt><trkpt lat="44.5187887" lon="8.8533699"><ele>419.0</ele><time>2026-04-03T11:49:07.102Z</time></trkpt><trkpt lat="44.5188131" lon="8.8532458"><ele>427.0</ele><time>2026-04-03T11:49:08.179Z</time></trkpt><trkpt lat="44.5188101" lon="8.8529334"><ele>427.0</ele><time>2026-04-03T11:49:09.999Z</time></trkpt><trkpt lat="44.5187978" lon="8.8528101"><ele>427.00000000000006</ele><time>2026-04-03T11:49:11.178Z</time></trkpt><trkpt lat="44.5187825" lon="8.8526433"><ele>427.00000000000006</ele><time>2026-04-03T11:49:12.153Z</time></trkpt><trkpt lat="44.5187684" lon="8.852483"><ele>427.0</ele><time>2026-04-03T11:49:13.14Z</time></trkpt><trkpt lat="44.5187777" lon="8.8523472"><ele>427.0</ele><time>2026-04-03T11:49:14.164Z</time></trkpt><trkpt lat="44.5188194" lon="8.8520658"><ele>427.6</ele><time>2026-04-03T11:49:16.102Z</time></trkpt><trkpt lat="44.5188436" lon="8.8519261"><ele>428.20000000000005</ele><time>2026-04-03T11:49:17.174Z</time></trkpt><trkpt lat="44.5188831" lon="8.8517804"><ele>428.8</ele><time>2026-04-03T11:49:18.147Z</time></trkpt><trkpt lat="44.5189275" lon="8.851645"><ele>429.4</ele><time>2026-04-03T11:49:19.118Z</time></trkpt><trkpt lat="44.5189811" lon="8.8515235"><ele>430.0</ele><time>2026-04-03T11:49:20.105Z</time></trkpt><trkpt lat="44.5190265" lon="8.8513907"><ele>430.0</ele><time>2026-04-03T11:49:21.104Z</time></trkpt><trkpt lat="44.5190776" lon="8.8512716"><ele>430.0</ele><time>2026-04-03T11:49:22.191Z</time></trkpt><trkpt lat="44.5191008" lon="8.8511111"><ele>430.0</ele><time>2026-04-03T11:49:23.189Z</time></trkpt><trkpt lat="44.5191226" lon="8.8509311"><ele>430.0</ele><time>2026-04-03T11:49:24.17Z</time></trkpt><trkpt lat="44.5191616" lon="8.8505836"><ele>431.0</ele><time>2026-04-03T11:49:26.103Z</time></trkpt><trkpt lat="44.5191657" lon="8.8504117"><ele>432.0</ele><time>2026-04-03T11:49:27.166Z</time></trkpt><trkpt lat="44.5191548" lon="8.8502444"><ele>433.0</ele><time>2026-04-03T11:49:28.141Z</time></trkpt><trkpt lat="44.5190976" lon="8.8499198"><ele>434.75</ele><time>2026-04-03T11:49:30.109Z</time></trkpt><trkpt lat="44.5190752" lon="8.8498111"><ele>436.5</ele><time>2026-04-03T11:49:31.109Z</time></trkpt><trkpt lat="44.5190858" lon="8.8495988"><ele>438.25</ele><time>2026-04-03T11:49:32.163Z</time></trkpt><trkpt lat="44.5191229" lon="8.8494431"><ele>440.0</ele><time>2026-04-03T11:49:33.17Z</time></trkpt><trkpt lat="44.519157" lon="8.8492906"><ele>440.0</ele><time>2026-04-03T11:49:34.155Z</time></trkpt><trkpt lat="44.5191886" lon="8.8491544"><ele>440.0</ele><time>2026-04-03T11:49:35.111Z</time></trkpt><trkpt lat="44.5193477" lon="8.8489484"><ele>440.0</ele><time>2026-04-03T11:49:37.156Z</time></trkpt><trkpt lat="44.5194273" lon="8.8488513"><ele>440.0</ele><time>2026-04-03T11:49:38.186Z</time></trkpt><trkpt lat="44.5195134" lon="8.8487487"><ele>444.4</ele><time>2026-04-03T11:49:39.134Z</time></trkpt><trkpt lat="44.5196055" lon="8.8486631"><ele>448.8</ele><time>2026-04-03T11:49:40.101Z</time></trkpt><trkpt lat="44.5196916" lon="8.848565"><ele>453.20000000000005</ele><time>2026-04-03T11:49:41.1Z</time></trkpt><trkpt lat="44.5197635" lon="8.8484497"><ele>457.6</ele><time>2026-04-03T11:49:42.194Z</time></trkpt><trkpt lat="44.5198203" lon="8.8483135"><ele>462.0</ele><time>2026-04-03T11:49:43.102Z</time></trkpt><trkpt lat="44.5198593" lon="8.8480684"><ele>462.0</ele><time>2026-04-03T11:49:45Z</time></trkpt><trkpt lat="44.5198785" lon="8.8479362"><ele>462.00000000000006</ele><time>2026-04-03T11:49:46.102Z</time></trkpt><trkpt lat="44.5199084" lon="8.847808"><ele>462.00000000000006</ele><time>2026-04-03T11:49:47.13Z</time></trkpt><trkpt lat="44.5199555" lon="8.8477036"><ele>462.0</ele><time>2026-04-03T11:49:48.107Z</time></trkpt><trkpt lat="44.5200243" lon="8.8476154"><ele>462.0</ele><time>2026-04-03T11:49:49.101Z</time></trkpt><trkpt lat="44.5202515" lon="8.8475857"><ele>463.0</ele><time>2026-04-03T11:49:50.999Z</time></trkpt><trkpt lat="44.5203512" lon="8.8475372"><ele>464.0</ele><time>2026-04-03T11:49:52.103Z</time></trkpt><trkpt lat="44.5204367" lon="8.8474739"><ele>465.0</ele><time>2026-04-03T11:49:53.104Z</time></trkpt><trkpt lat="44.5205955" lon="8.8472729"><ele>466.0</ele><time>2026-04-03T11:49:55.102Z</time></trkpt><trkpt lat="44.5206777" lon="8.8471516"><ele>466.0</ele><time>2026-04-03T11:49:56.105Z</time></trkpt><trkpt lat="44.5207211" lon="8.8470005"><ele>466.0</ele><time>2026-04-03T11:49:57.153Z</time></trkpt><trkpt lat="44.5207718" lon="8.8468524"><ele>466.0</ele><time>2026-04-03T11:49:58.185Z</time></trkpt><trkpt lat="44.5208229" lon="8.8467224"><ele>466.0</ele><time>2026-04-03T11:49:59.149Z</time></trkpt><trkpt lat="44.5208728" lon="8.8465864"><ele>466.0</ele><time>2026-04-03T11:50:00.102Z</time></trkpt><trkpt lat="44.5209351" lon="8.8464585"><ele>466.0</ele><time>2026-04-03T11:50:01.106Z</time></trkpt><trkpt lat="44.5210018" lon="8.8463409"><ele>466.0</ele><time>2026-04-03T11:50:02.157Z</time></trkpt><trkpt lat="44.5210762" lon="8.8462177"><ele>466.0</ele><time>2026-04-03T11:50:03.141Z</time></trkpt><trkpt lat="44.5211619" lon="8.8461298"><ele>466.0</ele><time>2026-04-03T11:50:04.167Z</time></trkpt><trkpt lat="44.5212324" lon="8.8460066"><ele>466.0</ele><time>2026-04-03T11:50:05.101Z</time></trkpt><trkpt lat="44.5212831" lon="8.8458586"><ele>463.6666666666667</ele><time>2026-04-03T11:50:06.105Z</time></trkpt><trkpt lat="44.521296" lon="8.8455315"><ele>461.33333333333337</ele><time>2026-04-03T11:50:07.999Z</time></trkpt><trkpt lat="44.5212949" lon="8.8453812"><ele>459.0</ele><time>2026-04-03T11:50:09.127Z</time></trkpt><trkpt lat="44.5212032" lon="8.8452155"><ele>466.0</ele><time>2026-04-03T11:50:10.105Z</time></trkpt><trkpt lat="44.5211275" lon="8.8450465"><ele>473.0</ele><time>2026-04-03T11:50:11.101Z</time></trkpt><trkpt lat="44.5209951" lon="8.8447218"><ele>480.0</ele><time>2026-04-03T11:50:13.134Z</time></trkpt><trkpt lat="44.5209392" lon="8.8445927"><ele>480.0</ele><time>2026-04-03T11:50:14.166Z</time></trkpt><trkpt lat="44.5208767" lon="8.8444503"><ele>480.0</ele><time>2026-04-03T11:50:15.103Z</time></trkpt><trkpt lat="44.5208122" lon="8.8442842"><ele>480.0</ele><time>2026-04-03T11:50:16.103Z</time></trkpt><trkpt lat="44.5207455" lon="8.844118"><ele>480.0</ele><time>2026-04-03T11:50:17.101Z</time></trkpt><trkpt lat="44.5206713" lon="8.84395"><ele>480.0</ele><time>2026-04-03T11:50:18.103Z</time></trkpt><trkpt lat="44.5204781" lon="8.8437423"><ele>480.0</ele><time>2026-04-03T11:50:19.999Z</time></trkpt><trkpt lat="44.5203483" lon="8.8436542"><ele>480.0</ele><time>2026-04-03T11:50:21.1Z</time></trkpt><trkpt lat="44.5201257" lon="8.8434649"><ele>489.0</ele><time>2026-04-03T11:50:23.104Z</time></trkpt><trkpt lat="44.5200327" lon="8.8433626"><ele>498.0</ele><time>2026-04-03T11:50:24.101Z</time></trkpt><trkpt lat="44.5198115" lon="8.8430602"><ele>507.0</ele><time>2026-04-03T11:50:26.147Z</time></trkpt><trkpt lat="44.5197219" lon="8.8429166"><ele>507.0</ele><time>2026-04-03T11:50:27.157Z</time></trkpt><trkpt lat="44.5196456" lon="8.8428154"><ele>507.0</ele><time>2026-04-03T11:50:28.161Z</time></trkpt><trkpt lat="44.5195984" lon="8.8425602"><ele>507.0</ele><time>2026-04-03T11:50:29.147Z</time></trkpt><trkpt lat="44.5195107" lon="8.8422048"><ele>505.66666666666663</ele><time>2026-04-03T11:50:31.108Z</time></trkpt><trkpt lat="44.519466" lon="8.8420162"><ele>504.3333333333333</ele><time>2026-04-03T11:50:32.152Z</time></trkpt><trkpt lat="44.5194422" lon="8.8418308"><ele>503.0</ele><time>2026-04-03T11:50:33.149Z</time></trkpt><trkpt lat="44.5194668" lon="8.8415134"><ele>503.0</ele><time>2026-04-03T11:50:34.999Z</time></trkpt><trkpt lat="44.5195115" lon="8.841377"><ele>503.0</ele><time>2026-04-03T11:50:36.107Z</time></trkpt><trkpt lat="44.5195606" lon="8.8412544"><ele>503.0</ele><time>2026-04-03T11:50:37.135Z</time></trkpt><trkpt lat="44.5195913" lon="8.8409841"><ele>503.0</ele><time>2026-04-03T11:50:39.167Z</time></trkpt><trkpt lat="44.5195775" lon="8.8408743"><ele>509.75</ele><time>2026-04-03T11:50:40.102Z</time></trkpt><trkpt lat="44.5195749" lon="8.8407595"><ele>516.5</ele><time>2026-04-03T11:50:42.167Z</time></trkpt><trkpt lat="44.5195382" lon="8.8406656"><ele>523.25</ele><time>2026-04-03T11:50:43.176Z</time></trkpt><trkpt lat="44.5194259" lon="8.8405871"><ele>530.0</ele><time>2026-04-03T11:50:45.111Z</time></trkpt><trkpt lat="44.5192693" lon="8.8404709"><ele>530.0</ele><time>2026-04-03T11:50:46.122Z</time></trkpt><trkpt lat="44.5191923" lon="8.8404057"><ele>530.0</ele><time>2026-04-03T11:50:47.161Z</time></trkpt><trkpt lat="44.5191035" lon="8.840288"><ele>530.0</ele><time>2026-04-03T11:50:48.157Z</time></trkpt><trkpt lat="44.5190591" lon="8.8401119"><ele>530.0</ele><time>2026-04-03T11:50:49.159Z</time></trkpt><trkpt lat="44.5189226" lon="8.8398328"><ele>532.0</ele><time>2026-04-03T11:50:51.104Z</time></trkpt><trkpt lat="44.5188614" lon="8.8396889"><ele>534.0</ele><time>2026-04-03T11:50:52.102Z</time></trkpt><trkpt lat="44.5187545" lon="8.8393848"><ele>536.0</ele><time>2026-04-03T11:50:54.154Z</time></trkpt><trkpt lat="44.5187164" lon="8.8392378"><ele>536.0</ele><time>2026-04-03T11:50:55.102Z</time></trkpt><trkpt lat="44.5186992" lon="8.8390802"><ele>536.0</ele><time>2026-04-03T11:50:56.107Z</time></trkpt><trkpt lat="44.518663" lon="8.8389141"><ele>536.0</ele><time>2026-04-03T11:50:57.208Z</time></trkpt><trkpt lat="44.5186358" lon="8.8387543"><ele>536.0</ele><time>2026-04-03T11:50:58.194Z</time></trkpt><trkpt lat="44.5186013" lon="8.8385984"><ele>539.75</ele><time>2026-04-03T11:50:59.158Z</time></trkpt><trkpt lat="44.5185173" lon="8.8383239"><ele>543.5</ele><time>2026-04-03T11:51:01.101Z</time></trkpt><trkpt lat="44.5184566" lon="8.8382143"><ele>547.25</ele><time>2026-04-03T11:51:02.217Z</time></trkpt><trkpt lat="44.5183902" lon="8.8380894"><ele>551.0</ele><time>2026-04-03T11:51:04.157Z</time></trkpt><trkpt lat="44.5184151" lon="8.8379611"><ele>551.0</ele><time>2026-04-03T11:51:06.106Z</time></trkpt><trkpt lat="44.5185055" lon="8.8378611"><ele>551.0</ele><time>2026-04-03T11:51:08.143Z</time></trkpt><trkpt lat="44.5185914" lon="8.8380828"><ele>551.0</ele><time>2026-04-03T11:51:10.105Z</time></trkpt><trkpt lat="44.5186125" lon="8.8381854"><ele>551.0</ele><time>2026-04-03T11:51:11.107Z</time></trkpt><trkpt lat="44.5186447" lon="8.8383247"><ele>551.0</ele><time>2026-04-03T11:51:12.139Z</time></trkpt><trkpt lat="44.5186694" lon="8.8384391"><ele>551.0</ele><time>2026-04-03T11:51:13.162Z</time></trkpt><trkpt lat="44.518719" lon="8.8385475"><ele>551.0</ele><time>2026-04-03T11:51:14.172Z</time></trkpt><trkpt lat="44.5187721" lon="8.8386888"><ele>551.0</ele><time>2026-04-03T11:51:15.105Z</time></trkpt><trkpt lat="44.5188321" lon="8.8388269"><ele>551.0</ele><time>2026-04-03T11:51:16.103Z</time></trkpt><trkpt lat="44.518889" lon="8.8389794"><ele>551.8</ele><time>2026-04-03T11:51:17.182Z</time></trkpt><trkpt lat="44.518947" lon="8.8391197"><ele>552.6</ele><time>2026-04-03T11:51:18.165Z</time></trkpt><trkpt lat="44.5190045" lon="8.8392482"><ele>553.4</ele><time>2026-04-03T11:51:19.149Z</time></trkpt><trkpt lat="44.519079" lon="8.8393874"><ele>554.2</ele><time>2026-04-03T11:51:20.113Z</time></trkpt><trkpt lat="44.5191649" lon="8.8394586"><ele>555.0</ele><time>2026-04-03T11:51:21.103Z</time></trkpt><trkpt lat="44.5192616" lon="8.8395423"><ele>555.0</ele><time>2026-04-03T11:51:22.17Z</time></trkpt><trkpt lat="44.5193699" lon="8.8395581"><ele>555.0</ele><time>2026-04-03T11:51:23.183Z</time></trkpt><trkpt lat="44.5195982" lon="8.8395385"><ele>555.0</ele><time>2026-04-03T11:51:24.999Z</time></trkpt><trkpt lat="44.5197062" lon="8.8395332"><ele>555.0</ele><time>2026-04-03T11:51:25.999Z</time></trkpt><trkpt lat="44.5198244" lon="8.8395347"><ele>561.5</ele><time>2026-04-03T11:51:27.18Z</time></trkpt><trkpt lat="44.5199382" lon="8.8395445"><ele>568.0</ele><time>2026-04-03T11:51:28.101Z</time></trkpt><trkpt lat="44.5200434" lon="8.8395702"><ele>574.5</ele><time>2026-04-03T11:51:29.171Z</time></trkpt><trkpt lat="44.520201" lon="8.8397965"><ele>581.0</ele><time>2026-04-03T11:51:31.106Z</time></trkpt><trkpt lat="44.5202703" lon="8.8399148"><ele>581.0</ele><time>2026-04-03T11:51:32.158Z</time></trkpt><trkpt lat="44.5203417" lon="8.8400695"><ele>581.0</ele><time>2026-04-03T11:51:33.166Z</time></trkpt><trkpt lat="44.5204102" lon="8.8402336"><ele>581.0</ele><time>2026-04-03T11:51:34.154Z</time></trkpt><trkpt lat="44.5204717" lon="8.8404064"><ele>581.0</ele><time>2026-04-03T11:51:35.104Z</time></trkpt><trkpt lat="44.5205392" lon="8.840565"><ele>582.0</ele><time>2026-04-03T11:51:36.103Z</time></trkpt><trkpt lat="44.5206073" lon="8.8407003"><ele>583.0</ele><time>2026-04-03T11:51:37.191Z</time></trkpt><trkpt lat="44.5206643" lon="8.8408286"><ele>584.0</ele><time>2026-04-03T11:51:38.157Z</time></trkpt><trkpt lat="44.5207311" lon="8.8409809"><ele>585.0</ele><time>2026-04-03T11:51:39.124Z</time></trkpt><trkpt lat="44.5208022" lon="8.8411208"><ele>585.0</ele><time>2026-04-03T11:51:40.103Z</time></trkpt><trkpt lat="44.520974" lon="8.8413459"><ele>585.0</ele><time>2026-04-03T11:51:42.167Z</time></trkpt><trkpt lat="44.5210681" lon="8.8414404"><ele>585.0</ele><time>2026-04-03T11:51:43.163Z</time></trkpt><trkpt lat="44.5211685" lon="8.8415434"><ele>586.6666666666666</ele><time>2026-04-03T11:51:44.163Z</time></trkpt><trkpt lat="44.5213604" lon="8.8417219"><ele>588.3333333333333</ele><time>2026-04-03T11:51:46.104Z</time></trkpt><trkpt lat="44.5214508" lon="8.8418179"><ele>590.0</ele><time>2026-04-03T11:51:47.184Z</time></trkpt><trkpt lat="44.5215424" lon="8.8419037"><ele>590.0</ele><time>2026-04-03T11:51:48.15Z</time></trkpt><trkpt lat="44.5216248" lon="8.8419657"><ele>590.0</ele><time>2026-04-03T11:51:49.168Z</time></trkpt><trkpt lat="44.5217167" lon="8.8420111"><ele>590.0</ele><time>2026-04-03T11:51:50.106Z</time></trkpt><trkpt lat="44.5218004" lon="8.8420199"><ele>590.0</ele><time>2026-04-03T11:51:51.104Z</time></trkpt><trkpt lat="44.5218791" lon="8.841996"><ele>590.0</ele><time>2026-04-03T11:51:52.159Z</time></trkpt><trkpt lat="44.5219119" lon="8.841911"><ele>590.0</ele><time>2026-04-03T11:51:53.181Z</time></trkpt><trkpt lat="44.5219462" lon="8.8417945"><ele>593.8</ele><time>2026-04-03T11:51:54.175Z</time></trkpt><trkpt lat="44.5219681" lon="8.84168"><ele>597.6</ele><time>2026-04-03T11:51:55.103Z</time></trkpt><trkpt lat="44.5219625" lon="8.8415265"><ele>601.4</ele><time>2026-04-03T11:51:56.102Z</time></trkpt><trkpt lat="44.5219665" lon="8.8413788"><ele>605.2</ele><time>2026-04-03T11:51:57.183Z</time></trkpt><trkpt lat="44.521969" lon="8.8412307"><ele>609.0</ele><time>2026-04-03T11:51:58.103Z</time></trkpt><trkpt lat="44.5219843" lon="8.8410846"><ele>612.0</ele><time>2026-04-03T11:51:59.102Z</time></trkpt><trkpt lat="44.5220438" lon="8.8407995"><ele>615.0</ele><time>2026-04-03T11:52:00.999Z</time></trkpt><trkpt lat="44.5220506" lon="8.8406136"><ele>618.0</ele><time>2026-04-03T11:52:02.104Z</time></trkpt><trkpt lat="44.5222745" lon="8.8404968"><ele>618.0</ele><time>2026-04-03T11:52:03.999Z</time></trkpt><trkpt lat="44.5224127" lon="8.8405176"><ele>618.0</ele><time>2026-04-03T11:52:04.999Z</time></trkpt><trkpt lat="44.522537" lon="8.8404805"><ele>618.0</ele><time>2026-04-03T11:52:05.999Z</time></trkpt><trkpt lat="44.5226487" lon="8.8404276"><ele>618.0</ele><time>2026-04-03T11:52:06.999Z</time></trkpt><trkpt lat="44.5227701" lon="8.8403411"><ele>618.0</ele><time>2026-04-03T11:52:07.999Z</time></trkpt><trkpt lat="44.5228758" lon="8.8402271"><ele>618.0</ele><time>2026-04-03T11:52:08.999Z</time></trkpt><trkpt lat="44.522981" lon="8.8401089"><ele>618.0</ele><time>2026-04-03T11:52:09.999Z</time></trkpt><trkpt lat="44.5230853" lon="8.8399977"><ele>618.0</ele><time>2026-04-03T11:52:10.999Z</time></trkpt><trkpt lat="44.5231932" lon="8.8399161"><ele>621.25</ele><time>2026-04-03T11:52:11.999Z</time></trkpt><trkpt lat="44.5233165" lon="8.8398687"><ele>624.5</ele><time>2026-04-03T11:52:12.999Z</time></trkpt><trkpt lat="44.5234371" lon="8.8398373"><ele>627.75</ele><time>2026-04-03T11:52:13.999Z</time></trkpt><trkpt lat="44.5235525" lon="8.8398235"><ele>631.0</ele><time>2026-04-03T11:52:14.999Z</time></trkpt><trkpt lat="44.5236848" lon="8.8399449"><ele>634.25</ele><time>2026-04-03T11:52:15.999Z</time></trkpt><trkpt lat="44.5238239" lon="8.8400155"><ele>637.5</ele><time>2026-04-03T11:52:17Z</time></trkpt><trkpt lat="44.5239691" lon="8.8400481"><ele>640.75</ele><time>2026-04-03T11:52:17.999Z</time></trkpt><trkpt lat="44.5241138" lon="8.8400745"><ele>644.0</ele><time>2026-04-03T11:52:18.999Z</time></trkpt><trkpt lat="44.5242485" lon="8.8400852"><ele>644.0</ele><time>2026-04-03T11:52:19.999Z</time></trkpt><trkpt lat="44.5243709" lon="8.8401107"><ele>644.0</ele><time>2026-04-03T11:52:20.999Z</time></trkpt><trkpt lat="44.5244939" lon="8.8401269"><ele>644.0</ele><time>2026-04-03T11:52:22.106Z</time></trkpt><trkpt lat="44.524724" lon="8.8401432"><ele>645.8000000000001</ele><time>2026-04-03T11:52:23.999Z</time></trkpt><trkpt lat="44.5248399" lon="8.8401574"><ele>647.6</ele><time>2026-04-03T11:52:24.999Z</time></trkpt><trkpt lat="44.5249462" lon="8.8401754"><ele>649.4</ele><time>2026-04-03T11:52:26Z</time></trkpt><trkpt lat="44.5250449" lon="8.8401912"><ele>651.2</ele><time>2026-04-03T11:52:26.999Z</time></trkpt><trkpt lat="44.5251477" lon="8.8401874"><ele>653.0</ele><time>2026-04-03T11:52:28.1Z</time></trkpt><trkpt lat="44.5252866" lon="8.8400892"><ele>653.0</ele><time>2026-04-03T11:52:29.999Z</time></trkpt><trkpt lat="44.5253342" lon="8.8399606"><ele>653.0</ele><time>2026-04-03T11:52:31Z</time></trkpt><trkpt lat="44.5253736" lon="8.839826"><ele>653.0</ele><time>2026-04-03T11:52:32Z</time></trkpt><trkpt lat="44.5253792" lon="8.8396828"><ele>653.0</ele><time>2026-04-03T11:52:33.1Z</time></trkpt><trkpt lat="44.5253445" lon="8.839454"><ele>653.0</ele><time>2026-04-03T11:52:34.999Z</time></trkpt><trkpt lat="44.5253313" lon="8.8393591"><ele>653.0</ele><time>2026-04-03T11:52:35.999Z</time></trkpt><trkpt lat="44.5252917" lon="8.8392821"><ele>653.0</ele><time>2026-04-03T11:52:36.999Z</time></trkpt><trkpt lat="44.5252486" lon="8.8392107"><ele>653.0</ele><time>2026-04-03T11:52:37.999Z</time></trkpt><trkpt lat="44.5251778" lon="8.8391772"><ele>653.0</ele><time>2026-04-03T11:52:38.999Z</time></trkpt><trkpt lat="44.5250708" lon="8.8391099"><ele>653.0</ele><time>2026-04-03T11:52:39.999Z</time></trkpt><trkpt lat="44.5249747" lon="8.8390873"><ele>657.25</ele><time>2026-04-03T11:52:40.999Z</time></trkpt><trkpt lat="44.5248571" lon="8.8390693"><ele>661.5</ele><time>2026-04-03T11:52:42Z</time></trkpt><trkpt lat="44.5246885" lon="8.8390875"><ele>665.75</ele><time>2026-04-03T11:52:43Z</time></trkpt><trkpt lat="44.524545" lon="8.8391169"><ele>670.0</ele><time>2026-04-03T11:52:44.178Z</time></trkpt><trkpt lat="44.5242905" lon="8.8391628"><ele>670.25</ele><time>2026-04-03T11:52:46.1Z</time></trkpt><trkpt lat="44.524178" lon="8.8392051"><ele>670.5</ele><time>2026-04-03T11:52:47.157Z</time></trkpt><trkpt lat="44.5240417" lon="8.8392085"><ele>670.75</ele><time>2026-04-03T11:52:48.122Z</time></trkpt><trkpt lat="44.5239829" lon="8.83909"><ele>671.0</ele><time>2026-04-03T11:52:49.117Z</time></trkpt><trkpt lat="44.5238513" lon="8.838685"><ele>671.0</ele><time>2026-04-03T11:52:50.999Z</time></trkpt><trkpt lat="44.5237542" lon="8.838522"><ele>671.0</ele><time>2026-04-03T11:52:52.176Z</time></trkpt><trkpt lat="44.5236493" lon="8.8383637"><ele>671.0</ele><time>2026-04-03T11:52:53.138Z</time></trkpt><trkpt lat="44.5235397" lon="8.8382369"><ele>671.0</ele><time>2026-04-03T11:52:54.148Z</time></trkpt><trkpt lat="44.523421" lon="8.838126"><ele>673.0</ele><time>2026-04-03T11:52:55.104Z</time></trkpt><trkpt lat="44.5233071" lon="8.8380113"><ele>675.0</ele><time>2026-04-03T11:52:56.103Z</time></trkpt><trkpt lat="44.523197" lon="8.8379233"><ele>677.0</ele><time>2026-04-03T11:52:57.176Z</time></trkpt><trkpt lat="44.5230911" lon="8.8378448"><ele>679.0</ele><time>2026-04-03T11:52:58.164Z</time></trkpt><trkpt lat="44.5229898" lon="8.8377254"><ele>680.0</ele><time>2026-04-03T11:52:59.112Z</time></trkpt><trkpt lat="44.5228927" lon="8.8376065"><ele>681.0</ele><time>2026-04-03T11:53:00.104Z</time></trkpt><trkpt lat="44.5228202" lon="8.8375298"><ele>682.0</ele><time>2026-04-03T11:53:01.105Z</time></trkpt><trkpt lat="44.5228097" lon="8.8373133"><ele>683.0</ele><time>2026-04-03T11:53:02.158Z</time></trkpt><trkpt lat="44.5227884" lon="8.837152"><ele>683.0</ele><time>2026-04-03T11:53:03.103Z</time></trkpt><trkpt lat="44.5227616" lon="8.8369654"><ele>683.0</ele><time>2026-04-03T11:53:04.106Z</time></trkpt><trkpt lat="44.5227282" lon="8.8367955"><ele>683.0</ele><time>2026-04-03T11:53:05.111Z</time></trkpt><trkpt lat="44.5227236" lon="8.836658"><ele>683.0</ele><time>2026-04-03T11:53:06.106Z</time></trkpt><trkpt lat="44.5227067" lon="8.8365398"><ele>683.0</ele><time>2026-04-03T11:53:07.105Z</time></trkpt><trkpt lat="44.5227187" lon="8.8363959"><ele>684.5</ele><time>2026-04-03T11:53:07.999Z</time></trkpt><trkpt lat="44.5227409" lon="8.8362546"><ele>686.0</ele><time>2026-04-03T11:53:08.999Z</time></trkpt><trkpt lat="44.5227936" lon="8.8361362"><ele>687.5</ele><time>2026-04-03T11:53:10.1Z</time></trkpt><trkpt lat="44.5229568" lon="8.8359747"><ele>689.0</ele><time>2026-04-03T11:53:12Z</time></trkpt><trkpt lat="44.5230531" lon="8.8360375"><ele>691.75</ele><time>2026-04-03T11:53:13Z</time></trkpt><trkpt lat="44.5231582" lon="8.8360651"><ele>694.5</ele><time>2026-04-03T11:53:13.999Z</time></trkpt><trkpt lat="44.5233063" lon="8.83619"><ele>697.25</ele><time>2026-04-03T11:53:14.999Z</time></trkpt><trkpt lat="44.5234467" lon="8.8362193"><ele>700.0</ele><time>2026-04-03T11:53:15.999Z</time></trkpt><trkpt lat="44.5235957" lon="8.8362584"><ele>703.6666666666667</ele><time>2026-04-03T11:53:16.999Z</time></trkpt><trkpt lat="44.5237356" lon="8.8362938"><ele>707.3333333333334</ele><time>2026-04-03T11:53:18.107Z</time></trkpt><trkpt lat="44.5240222" lon="8.8363641"><ele>711.0</ele><time>2026-04-03T11:53:19.999Z</time></trkpt><trkpt lat="44.5241619" lon="8.8364236"><ele>711.0</ele><time>2026-04-03T11:53:21.101Z</time></trkpt><trkpt lat="44.5242911" lon="8.8365047"><ele>711.0</ele><time>2026-04-03T11:53:22.105Z</time></trkpt><trkpt lat="44.5243979" lon="8.8365992"><ele>711.0</ele><time>2026-04-03T11:53:23.101Z</time></trkpt><trkpt lat="44.5245046" lon="8.8366939"><ele>711.0</ele><time>2026-04-03T11:53:24.102Z</time></trkpt><trkpt lat="44.5246013" lon="8.8367972"><ele>710.0</ele><time>2026-04-03T11:53:25.101Z</time></trkpt><trkpt lat="44.5246865" lon="8.8368924"><ele>709.0</ele><time>2026-04-03T11:53:26.105Z</time></trkpt><trkpt lat="44.5247835" lon="8.8369383"><ele>708.0</ele><time>2026-04-03T11:53:27.102Z</time></trkpt><trkpt lat="44.5248813" lon="8.8369451"><ele>707.0</ele><time>2026-04-03T11:53:28.11Z</time></trkpt><trkpt lat="44.5249581" lon="8.8369279"><ele>706.0</ele><time>2026-04-03T11:53:29.108Z</time></trkpt><trkpt lat="44.5250561" lon="8.836851"><ele>708.75</ele><time>2026-04-03T11:53:30.103Z</time></trkpt><trkpt lat="44.5251366" lon="8.8367545"><ele>711.5</ele><time>2026-04-03T11:53:31.105Z</time></trkpt><trkpt lat="44.5251013" lon="8.8365836"><ele>714.25</ele><time>2026-04-03T11:53:32.194Z</time></trkpt><trkpt lat="44.5250805" lon="8.8364491"><ele>717.0</ele><time>2026-04-03T11:53:33.127Z</time></trkpt><trkpt lat="44.5249725" lon="8.836208"><ele>717.0</ele><time>2026-04-03T11:53:35Z</time></trkpt><trkpt lat="44.5249018" lon="8.8360922"><ele>717.0</ele><time>2026-04-03T11:53:35.999Z</time></trkpt><trkpt lat="44.5248203" lon="8.8359854"><ele>717.0</ele><time>2026-04-03T11:53:37.154Z</time></trkpt><trkpt lat="44.5247407" lon="8.8358611"><ele>717.0</ele><time>2026-04-03T11:53:38.162Z</time></trkpt><trkpt lat="44.524665" lon="8.8357435"><ele>718.25</ele><time>2026-04-03T11:53:39.168Z</time></trkpt><trkpt lat="44.5245894" lon="8.8356239"><ele>719.5</ele><time>2026-04-03T11:53:40.102Z</time></trkpt><trkpt lat="44.5245041" lon="8.8354917"><ele>720.75</ele><time>2026-04-03T11:53:41.103Z</time></trkpt><trkpt lat="44.5244226" lon="8.8353742"><ele>722.0</ele><time>2026-04-03T11:53:42.161Z</time></trkpt><trkpt lat="44.5243346" lon="8.8352436"><ele>722.0</ele><time>2026-04-03T11:53:43.176Z</time></trkpt><trkpt lat="44.5242508" lon="8.8351412"><ele>722.0</ele><time>2026-04-03T11:53:44.163Z</time></trkpt><trkpt lat="44.5241692" lon="8.8350106"><ele>722.0</ele><time>2026-04-03T11:53:45.101Z</time></trkpt><trkpt lat="44.5240252" lon="8.8347584"><ele>726.25</ele><time>2026-04-03T11:53:47.181Z</time></trkpt><trkpt lat="44.5239697" lon="8.8346292"><ele>730.5</ele><time>2026-04-03T11:53:48.151Z</time></trkpt><trkpt lat="44.5239108" lon="8.8344738"><ele>734.75</ele><time>2026-04-03T11:53:49.194Z</time></trkpt><trkpt lat="44.52386" lon="8.8342883"><ele>739.0</ele><time>2026-04-03T11:53:50.102Z</time></trkpt><trkpt lat="44.5238112" lon="8.8341323"><ele>737.6</ele><time>2026-04-03T11:53:51.101Z</time></trkpt><trkpt lat="44.5237644" lon="8.8339772"><ele>736.2</ele><time>2026-04-03T11:53:52.196Z</time></trkpt><trkpt lat="44.5237231" lon="8.8338272"><ele>734.8000000000001</ele><time>2026-04-03T11:53:53.199Z</time></trkpt><trkpt lat="44.5236941" lon="8.8336835"><ele>733.4000000000001</ele><time>2026-04-03T11:53:54.152Z</time></trkpt><trkpt lat="44.5236916" lon="8.8335517"><ele>732.0</ele><time>2026-04-03T11:53:55.101Z</time></trkpt><trkpt lat="44.5237314" lon="8.8334485"><ele>738.25</ele><time>2026-04-03T11:53:56.112Z</time></trkpt><trkpt lat="44.5237566" lon="8.8333349"><ele>744.5</ele><time>2026-04-03T11:53:57.104Z</time></trkpt><trkpt lat="44.5239332" lon="8.8332032"><ele>750.75</ele><time>2026-04-03T11:53:59.103Z</time></trkpt><trkpt lat="44.5240658" lon="8.8332112"><ele>757.0</ele><time>2026-04-03T11:54:00.1Z</time></trkpt><trkpt lat="44.5241556" lon="8.8331404"><ele>757.0</ele><time>2026-04-03T11:54:01.104Z</time></trkpt><trkpt lat="44.5242273" lon="8.8330551"><ele>757.0</ele><time>2026-04-03T11:54:02.17Z</time></trkpt><trkpt lat="44.5243153" lon="8.8329744"><ele>757.0</ele><time>2026-04-03T11:54:03.138Z</time></trkpt><trkpt lat="44.5243982" lon="8.8328705"><ele>757.0</ele><time>2026-04-03T11:54:04.145Z</time></trkpt><trkpt lat="44.5244453" lon="8.8327731"><ele>757.0</ele><time>2026-04-03T11:54:05.102Z</time></trkpt><trkpt lat="44.5244151" lon="8.8326021"><ele>756.0</ele><time>2026-04-03T11:54:06.104Z</time></trkpt><trkpt lat="44.5244367" lon="8.8324777"><ele>755.0</ele><time>2026-04-03T11:54:07.166Z</time></trkpt><trkpt lat="44.5244309" lon="8.8322917"><ele>754.0</ele><time>2026-04-03T11:54:08.155Z</time></trkpt><trkpt lat="44.5244328" lon="8.8321076"><ele>753.0</ele><time>2026-04-03T11:54:09.173Z</time></trkpt><trkpt lat="44.5244447" lon="8.8319557"><ele>753.0</ele><time>2026-04-03T11:54:10.107Z</time></trkpt><trkpt lat="44.5244534" lon="8.8318184"><ele>753.0</ele><time>2026-04-03T11:54:11.101Z</time></trkpt><trkpt lat="44.5244707" lon="8.8316808"><ele>753.0</ele><time>2026-04-03T11:54:12.179Z</time></trkpt><trkpt lat="44.5244955" lon="8.8315336"><ele>753.0</ele><time>2026-04-03T11:54:13.135Z</time></trkpt><trkpt lat="44.524539" lon="8.8314046"><ele>753.0</ele><time>2026-04-03T11:54:14.171Z</time></trkpt><trkpt lat="44.5245885" lon="8.8312901"><ele>759.25</ele><time>2026-04-03T11:54:15.102Z</time></trkpt><trkpt lat="44.5247011" lon="8.8310317"><ele>765.5</ele><time>2026-04-03T11:54:17.108Z</time></trkpt><trkpt lat="44.5247664" lon="8.8308947"><ele>771.75</ele><time>2026-04-03T11:54:18.134Z</time></trkpt><trkpt lat="44.5248513" lon="8.830799"><ele>778.0</ele><time>2026-04-03T11:54:19.103Z</time></trkpt><trkpt lat="44.5249269" lon="8.8306933"><ele>778.0</ele><time>2026-04-03T11:54:20.105Z</time></trkpt><trkpt lat="44.52503" lon="8.8306226"><ele>778.0</ele><time>2026-04-03T11:54:21.185Z</time></trkpt><trkpt lat="44.5251099" lon="8.8305455"><ele>778.0</ele><time>2026-04-03T11:54:22.147Z</time></trkpt><trkpt lat="44.5251983" lon="8.8304807"><ele>778.0</ele><time>2026-04-03T11:54:23.181Z</time></trkpt><trkpt lat="44.5253016" lon="8.8304664"><ele>778.0</ele><time>2026-04-03T11:54:24.182Z</time></trkpt><trkpt lat="44.5253955" lon="8.8304429"><ele>782.0</ele><time>2026-04-03T11:54:25.102Z</time></trkpt><trkpt lat="44.5254945" lon="8.8304306"><ele>786.0</ele><time>2026-04-03T11:54:26.105Z</time></trkpt><trkpt lat="44.5255434" lon="8.8303153"><ele>790.0</ele><time>2026-04-03T11:54:27.179Z</time></trkpt><trkpt lat="44.5256094" lon="8.8302006"><ele>794.0</ele><time>2026-04-03T11:54:28.197Z</time></trkpt><trkpt lat="44.5256725" lon="8.8300854"><ele>798.0</ele><time>2026-04-03T11:54:29.166Z</time></trkpt><trkpt lat="44.5256304" lon="8.8297836"><ele>798.0</ele><time>2026-04-03T11:54:30.999Z</time></trkpt><trkpt lat="44.525445" lon="8.8295998"><ele>798.0</ele><time>2026-04-03T11:54:32.188Z</time></trkpt><trkpt lat="44.5253634" lon="8.8294704"><ele>798.0</ele><time>2026-04-03T11:54:33.165Z</time></trkpt><trkpt lat="44.525271" lon="8.8293412"><ele>797.0</ele><time>2026-04-03T11:54:34.158Z</time></trkpt><trkpt lat="44.5251693" lon="8.8292316"><ele>796.0</ele><time>2026-04-03T11:54:35.1Z</time></trkpt><trkpt lat="44.5249583" lon="8.8290849"><ele>795.0</ele><time>2026-04-03T11:54:37.103Z</time></trkpt><trkpt lat="44.5247172" lon="8.829023"><ele>795.0</ele><time>2026-04-03T11:54:39.106Z</time></trkpt><trkpt lat="44.5245001" lon="8.8290156"><ele>795.0</ele><time>2026-04-03T11:54:40.999Z</time></trkpt><trkpt lat="44.5243766" lon="8.8290153"><ele>795.0</ele><time>2026-04-03T11:54:42Z</time></trkpt><trkpt lat="44.524255" lon="8.829022"><ele>795.0</ele><time>2026-04-03T11:54:43.182Z</time></trkpt><trkpt lat="44.524154" lon="8.8289672"><ele>795.0</ele><time>2026-04-03T11:54:44.213Z</time></trkpt><trkpt lat="44.5239106" lon="8.8289264"><ele>795.0</ele><time>2026-04-03T11:54:46.106Z</time></trkpt><trkpt lat="44.5237995" lon="8.8288989"><ele>795.6666666666667</ele><time>2026-04-03T11:54:47.161Z</time></trkpt><trkpt lat="44.5236447" lon="8.8288862"><ele>796.3333333333334</ele><time>2026-04-03T11:54:48.153Z</time></trkpt><trkpt lat="44.5235209" lon="8.8288886"><ele>797.0</ele><time>2026-04-03T11:54:49.128Z</time></trkpt><trkpt lat="44.5232566" lon="8.8288473"><ele>797.0</ele><time>2026-04-03T11:54:51.101Z</time></trkpt><trkpt lat="44.5229919" lon="8.8287728"><ele>797.0</ele><time>2026-04-03T11:54:53.107Z</time></trkpt><trkpt lat="44.5227456" lon="8.8285948"><ele>795.0</ele><time>2026-04-03T11:54:54.999Z</time></trkpt><trkpt lat="44.5226376" lon="8.8284764"><ele>793.0</ele><time>2026-04-03T11:54:55.999Z</time></trkpt><trkpt lat="44.5225407" lon="8.8283294"><ele>791.0</ele><time>2026-04-03T11:54:56.999Z</time></trkpt><trkpt lat="44.5224494" lon="8.8281278"><ele>796.0</ele><time>2026-04-03T11:54:57.999Z</time></trkpt><trkpt lat="44.5224081" lon="8.8279263"><ele>801.0</ele><time>2026-04-03T11:54:58.999Z</time></trkpt><trkpt lat="44.5223744" lon="8.8276947"><ele>806.0</ele><time>2026-04-03T11:54:59.999Z</time></trkpt><trkpt lat="44.5223418" lon="8.82751"><ele>808.75</ele><time>2026-04-03T11:55:00.999Z</time></trkpt><trkpt lat="44.5223341" lon="8.8273443"><ele>811.5</ele><time>2026-04-03T11:55:01.999Z</time></trkpt><trkpt lat="44.5223282" lon="8.8271424"><ele>814.25</ele><time>2026-04-03T11:55:03Z</time></trkpt><trkpt lat="44.5223228" lon="8.8269317"><ele>817.0</ele><time>2026-04-03T11:55:04.109Z</time></trkpt><trkpt lat="44.5222989" lon="8.8265213"><ele>819.0</ele><time>2026-04-03T11:55:06.101Z</time></trkpt><trkpt lat="44.5222682" lon="8.8263276"><ele>821.0</ele><time>2026-04-03T11:55:07.103Z</time></trkpt><trkpt lat="44.5222244" lon="8.8261312"><ele>823.0</ele><time>2026-04-03T11:55:08.104Z</time></trkpt><trkpt lat="44.522176" lon="8.825961"><ele>825.0</ele><time>2026-04-03T11:55:09.101Z</time></trkpt><trkpt lat="44.5220121" lon="8.8256139"><ele>824.3333333333333</ele><time>2026-04-03T11:55:11.102Z</time></trkpt><trkpt lat="44.5219134" lon="8.8254412"><ele>823.6666666666666</ele><time>2026-04-03T11:55:12.15Z</time></trkpt><trkpt lat="44.5218086" lon="8.8252591"><ele>823.0</ele><time>2026-04-03T11:55:13.147Z</time></trkpt><trkpt lat="44.5216065" lon="8.824944"><ele>823.0</ele><time>2026-04-03T11:55:14.999Z</time></trkpt><trkpt lat="44.5215072" lon="8.8247958"><ele>823.0</ele><time>2026-04-03T11:55:16.104Z</time></trkpt><trkpt lat="44.5214108" lon="8.8246642"><ele>823.0</ele><time>2026-04-03T11:55:17.173Z</time></trkpt><trkpt lat="44.521326" lon="8.8245302"><ele>823.0</ele><time>2026-04-03T11:55:18.16Z</time></trkpt><trkpt lat="44.5212474" lon="8.8243985"><ele>820.75</ele><time>2026-04-03T11:55:19.132Z</time></trkpt><trkpt lat="44.5211998" lon="8.8242369"><ele>818.5</ele><time>2026-04-03T11:55:20.105Z</time></trkpt><trkpt lat="44.5211762" lon="8.8240708"><ele>816.25</ele><time>2026-04-03T11:55:21.115Z</time></trkpt><trkpt lat="44.5211811" lon="8.8239028"><ele>814.0</ele><time>2026-04-03T11:55:22.183Z</time></trkpt><trkpt lat="44.5212151" lon="8.8237409"><ele>816.0</ele><time>2026-04-03T11:55:23.14Z</time></trkpt><trkpt lat="44.521253" lon="8.82358"><ele>818.0</ele><time>2026-04-03T11:55:24.174Z</time></trkpt><trkpt lat="44.5212967" lon="8.8234169"><ele>820.0</ele><time>2026-04-03T11:55:25.102Z</time></trkpt><trkpt lat="44.521349" lon="8.8232623"><ele>822.0</ele><time>2026-04-03T11:55:26.102Z</time></trkpt><trkpt lat="44.5214002" lon="8.8230968"><ele>822.0</ele><time>2026-04-03T11:55:27.103Z</time></trkpt><trkpt lat="44.5215169" lon="8.8227605"><ele>822.0</ele><time>2026-04-03T11:55:29.151Z</time></trkpt><trkpt lat="44.5215693" lon="8.8225756"><ele>822.0</ele><time>2026-04-03T11:55:30.1Z</time></trkpt><trkpt lat="44.5216775" lon="8.8222169"><ele>823.75</ele><time>2026-04-03T11:55:32.184Z</time></trkpt><trkpt lat="44.5217306" lon="8.8220376"><ele>825.5</ele><time>2026-04-03T11:55:33.197Z</time></trkpt><trkpt lat="44.5217879" lon="8.8218583"><ele>827.25</ele><time>2026-04-03T11:55:34.139Z</time></trkpt><trkpt lat="44.5218378" lon="8.8216928"><ele>829.0</ele><time>2026-04-03T11:55:35.102Z</time></trkpt><trkpt lat="44.5218906" lon="8.8215349"><ele>830.8000000000001</ele><time>2026-04-03T11:55:36.106Z</time></trkpt><trkpt lat="44.5219286" lon="8.821391"><ele>832.6</ele><time>2026-04-03T11:55:37.155Z</time></trkpt><trkpt lat="44.5219183" lon="8.8212423"><ele>834.4</ele><time>2026-04-03T11:55:38.152Z</time></trkpt><trkpt lat="44.521887" lon="8.8211037"><ele>836.2</ele><time>2026-04-03T11:55:39.138Z</time></trkpt><trkpt lat="44.5218365" lon="8.8209703"><ele>838.0</ele><time>2026-04-03T11:55:40.104Z</time></trkpt><trkpt lat="44.5217429" lon="8.8208699"><ele>838.0</ele><time>2026-04-03T11:55:41.104Z</time></trkpt><trkpt lat="44.5215333" lon="8.8207393"><ele>838.0</ele><time>2026-04-03T11:55:43.167Z</time></trkpt><trkpt lat="44.5214218" lon="8.8206664"><ele>838.0</ele><time>2026-04-03T11:55:44.169Z</time></trkpt><trkpt lat="44.5213074" lon="8.8205907"><ele>841.5</ele><time>2026-04-03T11:55:45.104Z</time></trkpt><trkpt lat="44.5211873" lon="8.8205038"><ele>845.0</ele><time>2026-04-03T11:55:46.109Z</time></trkpt><trkpt lat="44.5210742" lon="8.8204422"><ele>848.5</ele><time>2026-04-03T11:55:47.181Z</time></trkpt><trkpt lat="44.5209536" lon="8.8203619"><ele>852.0</ele><time>2026-04-03T11:55:48.158Z</time></trkpt><trkpt lat="44.5208405" lon="8.8202952"><ele>852.0</ele><time>2026-04-03T11:55:49.146Z</time></trkpt><trkpt lat="44.5207204" lon="8.820207"><ele>852.0</ele><time>2026-04-03T11:55:50.112Z</time></trkpt><trkpt lat="44.5205959" lon="8.8201225"><ele>852.0</ele><time>2026-04-03T11:55:51.104Z</time></trkpt><trkpt lat="44.5204829" lon="8.8200386"><ele>852.0</ele><time>2026-04-03T11:55:52.141Z</time></trkpt><trkpt lat="44.5203695" lon="8.8199525"><ele>854.0</ele><time>2026-04-03T11:55:53.139Z</time></trkpt><trkpt lat="44.5202428" lon="8.8198574"><ele>856.0</ele><time>2026-04-03T11:55:54.151Z</time></trkpt><trkpt lat="44.520126" lon="8.8197842"><ele>858.0</ele><time>2026-04-03T11:55:55.106Z</time></trkpt><trkpt lat="44.5198692" lon="8.8196854"><ele>858.0</ele><time>2026-04-03T11:55:57.112Z</time></trkpt><trkpt lat="44.5197411" lon="8.8196704"><ele>858.0</ele><time>2026-04-03T11:55:58.145Z</time></trkpt><trkpt lat="44.5196171" lon="8.8196707"><ele>858.0</ele><time>2026-04-03T11:55:59.14Z</time></trkpt><trkpt lat="44.5194935" lon="8.8196825"><ele>858.0</ele><time>2026-04-03T11:56:00.104Z</time></trkpt><trkpt lat="44.5193715" lon="8.8197026"><ele>858.25</ele><time>2026-04-03T11:56:01.105Z</time></trkpt><trkpt lat="44.5192476" lon="8.8197163"><ele>858.5</ele><time>2026-04-03T11:56:02.1Z</time></trkpt><trkpt lat="44.5191141" lon="8.8197158"><ele>858.75</ele><time>2026-04-03T11:56:03.101Z</time></trkpt><trkpt lat="44.5190015" lon="8.8197008"><ele>859.0</ele><time>2026-04-03T11:56:04.152Z</time></trkpt><trkpt lat="44.5187693" lon="8.8196256"><ele>861.75</ele><time>2026-04-03T11:56:05.999Z</time></trkpt><trkpt lat="44.5186537" lon="8.8195704"><ele>864.5</ele><time>2026-04-03T11:56:07.189Z</time></trkpt><trkpt lat="44.5185717" lon="8.8194874"><ele>867.25</ele><time>2026-04-03T11:56:08.19Z</time></trkpt><trkpt lat="44.5184952" lon="8.8193789"><ele>870.0</ele><time>2026-04-03T11:56:09.159Z</time></trkpt><trkpt lat="44.5183932" lon="8.8192077"><ele>870.0</ele><time>2026-04-03T11:56:10.105Z</time></trkpt><trkpt lat="44.5183102" lon="8.8190856"><ele>870.0</ele><time>2026-04-03T11:56:11.1Z</time></trkpt><trkpt lat="44.5182138" lon="8.8189364"><ele>870.0</ele><time>2026-04-03T11:56:12.169Z</time></trkpt><trkpt lat="44.5181224" lon="8.8188236"><ele>870.0</ele><time>2026-04-03T11:56:13.184Z</time></trkpt><trkpt lat="44.5180324" lon="8.8187225"><ele>873.3333333333333</ele><time>2026-04-03T11:56:14.198Z</time></trkpt><trkpt lat="44.5178324" lon="8.8185604"><ele>876.6666666666666</ele><time>2026-04-03T11:56:16.102Z</time></trkpt><trkpt lat="44.5177168" lon="8.8184779"><ele>880.0</ele><time>2026-04-03T11:56:17.185Z</time></trkpt><trkpt lat="44.5175969" lon="8.8183905"><ele>880.0</ele><time>2026-04-03T11:56:18.123Z</time></trkpt><trkpt lat="44.5174714" lon="8.8183049"><ele>880.0</ele><time>2026-04-03T11:56:19.164Z</time></trkpt><trkpt lat="44.5173594" lon="8.8182055"><ele>880.0</ele><time>2026-04-03T11:56:20.151Z</time></trkpt><trkpt lat="44.5172321" lon="8.8181262"><ele>880.0</ele><time>2026-04-03T11:56:21.153Z</time></trkpt><trkpt lat="44.5171245" lon="8.8180168"><ele>876.5</ele><time>2026-04-03T11:56:22.162Z</time></trkpt><trkpt lat="44.5170051" lon="8.8179441"><ele>873.0</ele><time>2026-04-03T11:56:23.204Z</time></trkpt><trkpt lat="44.5168856" lon="8.8178786"><ele>869.5</ele><time>2026-04-03T11:56:24.158Z</time></trkpt><trkpt lat="44.5167758" lon="8.8178096"><ele>866.0</ele><time>2026-04-03T11:56:25.104Z</time></trkpt><trkpt lat="44.5166578" lon="8.8177445"><ele>869.6666666666667</ele><time>2026-04-03T11:56:26.107Z</time></trkpt><trkpt lat="44.5164379" lon="8.8176138"><ele>873.3333333333333</ele><time>2026-04-03T11:56:28.199Z</time></trkpt><trkpt lat="44.516324" lon="8.8175292"><ele>877.0</ele><time>2026-04-03T11:56:29.166Z</time></trkpt><trkpt lat="44.5161441" lon="8.8174049"><ele>877.0</ele><time>2026-04-03T11:56:31.105Z</time></trkpt><trkpt lat="44.5160598" lon="8.8173024"><ele>877.0</ele><time>2026-04-03T11:56:32.195Z</time></trkpt><trkpt lat="44.5159627" lon="8.8171818"><ele>877.0</ele><time>2026-04-03T11:56:33.173Z</time></trkpt><trkpt lat="44.515862" lon="8.8170346"><ele>877.0</ele><time>2026-04-03T11:56:34.166Z</time></trkpt><trkpt lat="44.5157622" lon="8.816892"><ele>878.0</ele><time>2026-04-03T11:56:35.105Z</time></trkpt><trkpt lat="44.5156766" lon="8.8167733"><ele>879.0</ele><time>2026-04-03T11:56:36.103Z</time></trkpt><trkpt lat="44.5155597" lon="8.8165507"><ele>880.0</ele><time>2026-04-03T11:56:37.16Z</time></trkpt><trkpt lat="44.5154364" lon="8.8163038"><ele>876.3333333333333</ele><time>2026-04-03T11:56:38.193Z</time></trkpt><trkpt lat="44.5153506" lon="8.8161037"><ele>872.6666666666667</ele><time>2026-04-03T11:56:39.109Z</time></trkpt><trkpt lat="44.515264" lon="8.8159029"><ele>869.0</ele><time>2026-04-03T11:56:40.107Z</time></trkpt><trkpt lat="44.5151845" lon="8.8156903"><ele>869.0</ele><time>2026-04-03T11:56:41.107Z</time></trkpt><trkpt lat="44.51515" lon="8.8155323"><ele>869.0</ele><time>2026-04-03T11:56:42.176Z</time></trkpt><trkpt lat="44.5150996" lon="8.8153387"><ele>869.0</ele><time>2026-04-03T11:56:43.154Z</time></trkpt><trkpt lat="44.5150425" lon="8.8151283"><ele>869.0</ele><time>2026-04-03T11:56:44.159Z</time></trkpt><trkpt lat="44.5149916" lon="8.8149298"><ele>869.0</ele><time>2026-04-03T11:56:45.104Z</time></trkpt><trkpt lat="44.5149539" lon="8.8147597"><ele>869.0</ele><time>2026-04-03T11:56:46.111Z</time></trkpt><trkpt lat="44.5149072" lon="8.8145462"><ele>869.0</ele><time>2026-04-03T11:56:47.185Z</time></trkpt><trkpt lat="44.5148665" lon="8.8143632"><ele>869.0</ele><time>2026-04-03T11:56:48.124Z</time></trkpt><trkpt lat="44.5148277" lon="8.8142046"><ele>869.25</ele><time>2026-04-03T11:56:49.139Z</time></trkpt><trkpt lat="44.5147888" lon="8.8140166"><ele>869.5</ele><time>2026-04-03T11:56:50.106Z</time></trkpt><trkpt lat="44.5147391" lon="8.8138357"><ele>869.75</ele><time>2026-04-03T11:56:51.104Z</time></trkpt><trkpt lat="44.5146813" lon="8.8136456"><ele>870.0</ele><time>2026-04-03T11:56:52.17Z</time></trkpt><trkpt lat="44.5146516" lon="8.8134385"><ele>870.0</ele><time>2026-04-03T11:56:53.119Z</time></trkpt><trkpt lat="44.5146089" lon="8.8132619"><ele>870.0</ele><time>2026-04-03T11:56:54.138Z</time></trkpt><trkpt lat="44.5145526" lon="8.8130472"><ele>870.0</ele><time>2026-04-03T11:56:55.114Z</time></trkpt><trkpt lat="44.5144618" lon="8.8126347"><ele>867.75</ele><time>2026-04-03T11:56:57.178Z</time></trkpt><trkpt lat="44.5144209" lon="8.8124267"><ele>865.5</ele><time>2026-04-03T11:56:58.164Z</time></trkpt><trkpt lat="44.51438" lon="8.8122261"><ele>863.25</ele><time>2026-04-03T11:56:59.115Z</time></trkpt><trkpt lat="44.5143558" lon="8.8120368"><ele>861.0</ele><time>2026-04-03T11:57:00.1Z</time></trkpt><trkpt lat="44.5142951" lon="8.8116154"><ele>861.0</ele><time>2026-04-03T11:57:02.151Z</time></trkpt><trkpt lat="44.5142752" lon="8.8114426"><ele>861.0</ele><time>2026-04-03T11:57:03.169Z</time></trkpt><trkpt lat="44.5142508" lon="8.8112594"><ele>861.0</ele><time>2026-04-03T11:57:04.16Z</time></trkpt><trkpt lat="44.5142323" lon="8.8110863"><ele>861.0</ele><time>2026-04-03T11:57:05.103Z</time></trkpt><trkpt lat="44.5142156" lon="8.8109032"><ele>859.0</ele><time>2026-04-03T11:57:06.111Z</time></trkpt><trkpt lat="44.5142185" lon="8.8107304"><ele>857.0</ele><time>2026-04-03T11:57:07.11Z</time></trkpt><trkpt lat="44.5141852" lon="8.8103764"><ele>855.0</ele><time>2026-04-03T11:57:09.114Z</time></trkpt><trkpt lat="44.5141725" lon="8.8100718"><ele>852.6666666666667</ele><time>2026-04-03T11:57:10.999Z</time></trkpt><trkpt lat="44.5141731" lon="8.8098856"><ele>850.3333333333334</ele><time>2026-04-03T11:57:11.999Z</time></trkpt><trkpt lat="44.5142045" lon="8.8097057"><ele>848.0</ele><time>2026-04-03T11:57:12.999Z</time></trkpt><trkpt lat="44.5143481" lon="8.8095346"><ele>848.0</ele><time>2026-04-03T11:57:13.999Z</time></trkpt><trkpt lat="44.5143916" lon="8.8093415"><ele>848.0</ele><time>2026-04-03T11:57:15.101Z</time></trkpt><trkpt lat="44.5144682" lon="8.8091305"><ele>848.0</ele><time>2026-04-03T11:57:16.118Z</time></trkpt><trkpt lat="44.5145527" lon="8.8089192"><ele>850.0</ele><time>2026-04-03T11:57:17.143Z</time></trkpt><trkpt lat="44.51462" lon="8.8086905"><ele>852.0</ele><time>2026-04-03T11:57:18.197Z</time></trkpt><trkpt lat="44.5147322" lon="8.8085517"><ele>854.0</ele><time>2026-04-03T11:57:19.129Z</time></trkpt><trkpt lat="44.5148629" lon="8.808524"><ele>852.25</ele><time>2026-04-03T11:57:20.108Z</time></trkpt><trkpt lat="44.5149754" lon="8.8083782"><ele>850.5</ele><time>2026-04-03T11:57:21.115Z</time></trkpt><trkpt lat="44.5151318" lon="8.8083473"><ele>848.75</ele><time>2026-04-03T11:57:22.196Z</time></trkpt><trkpt lat="44.5152167" lon="8.8081961"><ele>847.0</ele><time>2026-04-03T11:57:23.212Z</time></trkpt><trkpt lat="44.515307" lon="8.808035"><ele>847.5</ele><time>2026-04-03T11:57:24.185Z</time></trkpt><trkpt lat="44.5154529" lon="8.8079005"><ele>848.0</ele><time>2026-04-03T11:57:25.101Z</time></trkpt><trkpt lat="44.5155335" lon="8.807767"><ele>848.5</ele><time>2026-04-03T11:57:26.103Z</time></trkpt><trkpt lat="44.5156173" lon="8.8075972"><ele>849.0</ele><time>2026-04-03T11:57:27.197Z</time></trkpt><trkpt lat="44.5156939" lon="8.8074465"><ele>849.0</ele><time>2026-04-03T11:57:28.17Z</time></trkpt><trkpt lat="44.5157807" lon="8.8072958"><ele>849.0</ele><time>2026-04-03T11:57:29.188Z</time></trkpt><trkpt lat="44.5158333" lon="8.8071377"><ele>849.0</ele><time>2026-04-03T11:57:30.101Z</time></trkpt><trkpt lat="44.5159128" lon="8.8069837"><ele>849.0</ele><time>2026-04-03T11:57:31.101Z</time></trkpt><trkpt lat="44.5159978" lon="8.8068316"><ele>849.3333333333333</ele><time>2026-04-03T11:57:32.185Z</time></trkpt><trkpt lat="44.5160878" lon="8.8066772"><ele>849.6666666666666</ele><time>2026-04-03T11:57:33.188Z</time></trkpt><trkpt lat="44.5162894" lon="8.8063715"><ele>850.0</ele><time>2026-04-03T11:57:35.105Z</time></trkpt><trkpt lat="44.5164" lon="8.8062388"><ele>850.0</ele><time>2026-04-03T11:57:36.106Z</time></trkpt><trkpt lat="44.5164892" lon="8.8060896"><ele>850.0</ele><time>2026-04-03T11:57:37.17Z</time></trkpt><trkpt lat="44.5166033" lon="8.80599"><ele>850.0</ele><time>2026-04-03T11:57:38.152Z</time></trkpt><trkpt lat="44.5167251" lon="8.8058839"><ele>850.0</ele><time>2026-04-03T11:57:39.116Z</time></trkpt><trkpt lat="44.5168286" lon="8.8057807"><ele>848.25</ele><time>2026-04-03T11:57:40.106Z</time></trkpt><trkpt lat="44.5169322" lon="8.8056977"><ele>846.5</ele><time>2026-04-03T11:57:41.105Z</time></trkpt><trkpt lat="44.5170398" lon="8.8056373"><ele>844.75</ele><time>2026-04-03T11:57:42.104Z</time></trkpt><trkpt lat="44.5170872" lon="8.8054637"><ele>843.0</ele><time>2026-04-03T11:57:43.103Z</time></trkpt><trkpt lat="44.5171293" lon="8.8052095"><ele>842.75</ele><time>2026-04-03T11:57:44.999Z</time></trkpt><trkpt lat="44.5170725" lon="8.8050233"><ele>842.5</ele><time>2026-04-03T11:57:46.107Z</time></trkpt><trkpt lat="44.5169631" lon="8.8048071"><ele>842.25</ele><time>2026-04-03T11:57:48.105Z</time></trkpt><trkpt lat="44.5169104" lon="8.8046738"><ele>842.0</ele><time>2026-04-03T11:57:48.999Z</time></trkpt><trkpt lat="44.5168676" lon="8.8045457"><ele>842.0</ele><time>2026-04-03T11:57:49.999Z</time></trkpt><trkpt lat="44.5168108" lon="8.8044331"><ele>842.0</ele><time>2026-04-03T11:57:50.999Z</time></trkpt><trkpt lat="44.5167622" lon="8.8043025"><ele>842.0</ele><time>2026-04-03T11:57:51.999Z</time></trkpt><trkpt lat="44.516703" lon="8.8041774"><ele>842.0</ele><time>2026-04-03T11:57:52.999Z</time></trkpt><trkpt lat="44.5166573" lon="8.8040598"><ele>842.0</ele><time>2026-04-03T11:57:54.149Z</time></trkpt><trkpt lat="44.5166221" lon="8.8039486"><ele>843.6</ele><time>2026-04-03T11:57:55.11Z</time></trkpt><trkpt lat="44.5165918" lon="8.8038149"><ele>845.2</ele><time>2026-04-03T11:57:56.104Z</time></trkpt><trkpt lat="44.5165674" lon="8.8036909"><ele>846.8</ele><time>2026-04-03T11:57:57.168Z</time></trkpt><trkpt lat="44.5165624" lon="8.803542"><ele>848.4</ele><time>2026-04-03T11:57:58.152Z</time></trkpt><trkpt lat="44.5165483" lon="8.8033929"><ele>850.0</ele><time>2026-04-03T11:57:59.165Z</time></trkpt><trkpt lat="44.5165796" lon="8.8030888"><ele>852.0</ele><time>2026-04-03T11:58:01.106Z</time></trkpt><trkpt lat="44.5165978" lon="8.8029404"><ele>854.0</ele><time>2026-04-03T11:58:02.142Z</time></trkpt><trkpt lat="44.5166611" lon="8.8026391"><ele>856.0</ele><time>2026-04-03T11:58:04.124Z</time></trkpt><trkpt lat="44.5167599" lon="8.8023597"><ele>856.0</ele><time>2026-04-03T11:58:05.999Z</time></trkpt><trkpt lat="44.5168226" lon="8.802218"><ele>856.0</ele><time>2026-04-03T11:58:07.138Z</time></trkpt><trkpt lat="44.5168881" lon="8.8021048"><ele>856.0</ele><time>2026-04-03T11:58:08.18Z</time></trkpt><trkpt lat="44.5169573" lon="8.801983"><ele>856.0</ele><time>2026-04-03T11:58:09.178Z</time></trkpt><trkpt lat="44.5170129" lon="8.8018361"><ele>859.75</ele><time>2026-04-03T11:58:10.101Z</time></trkpt><trkpt lat="44.517147" lon="8.8015997"><ele>863.5</ele><time>2026-04-03T11:58:12.189Z</time></trkpt><trkpt lat="44.51722" lon="8.8015117"><ele>867.25</ele><time>2026-04-03T11:58:13.185Z</time></trkpt><trkpt lat="44.5172013" lon="8.8013342"><ele>871.0</ele><time>2026-04-03T11:58:14.155Z</time></trkpt><trkpt lat="44.517227" lon="8.8012029"><ele>871.0</ele><time>2026-04-03T11:58:15.105Z</time></trkpt><trkpt lat="44.5172127" lon="8.80104"><ele>870.9999999999999</ele><time>2026-04-03T11:58:16.156Z</time></trkpt><trkpt lat="44.5172115" lon="8.8009164"><ele>870.9999999999999</ele><time>2026-04-03T11:58:17.106Z</time></trkpt><trkpt lat="44.5172036" lon="8.8007921"><ele>871.0</ele><time>2026-04-03T11:58:18.101Z</time></trkpt><trkpt lat="44.5171827" lon="8.8006663"><ele>871.0</ele><time>2026-04-03T11:58:19.104Z</time></trkpt><trkpt lat="44.51709" lon="8.8004527"><ele>868.0</ele><time>2026-04-03T11:58:20.999Z</time></trkpt><trkpt lat="44.5170337" lon="8.8003205"><ele>864.9999999999999</ele><time>2026-04-03T11:58:21.999Z</time></trkpt><trkpt lat="44.5169741" lon="8.8002434"><ele>861.9999999999999</ele><time>2026-04-03T11:58:22.999Z</time></trkpt><trkpt lat="44.5169256" lon="8.8001372"><ele>859.0</ele><time>2026-04-03T11:58:23.999Z</time></trkpt><trkpt lat="44.5168781" lon="8.8000611"><ele>856.0</ele><time>2026-04-03T11:58:25.106Z</time></trkpt><trkpt lat="44.5169279" lon="8.799914"><ele>856.0</ele><time>2026-04-03T11:58:26.106Z</time></trkpt><trkpt lat="44.5169523" lon="8.7998258"><ele>856.0</ele><time>2026-04-03T11:58:27.1Z</time></trkpt><trkpt lat="44.5169758" lon="8.799684"><ele>856.0</ele><time>2026-04-03T11:58:28.101Z</time></trkpt><trkpt lat="44.517" lon="8.7995438"><ele>856.0</ele><time>2026-04-03T11:58:29.109Z</time></trkpt><trkpt lat="44.5170095" lon="8.7992721"><ele>857.6666666666666</ele><time>2026-04-03T11:58:31.107Z</time></trkpt><trkpt lat="44.5169982" lon="8.7991338"><ele>859.3333333333333</ele><time>2026-04-03T11:58:32.108Z</time></trkpt><trkpt lat="44.5169369" lon="8.7988651"><ele>861.0</ele><time>2026-04-03T11:58:34.195Z</time></trkpt><trkpt lat="44.5168562" lon="8.7986234"><ele>861.0</ele><time>2026-04-03T11:58:36.104Z</time></trkpt><trkpt lat="44.5167843" lon="8.798521"><ele>861.0</ele><time>2026-04-03T11:58:37.187Z</time></trkpt><trkpt lat="44.5165917" lon="8.7983855"><ele>861.0</ele><time>2026-04-03T11:58:39.157Z</time></trkpt><trkpt lat="44.5164877" lon="8.798342"><ele>861.0</ele><time>2026-04-03T11:58:40.112Z</time></trkpt><trkpt lat="44.51638" lon="8.7983132"><ele>861.5999999999999</ele><time>2026-04-03T11:58:41.112Z</time></trkpt><trkpt lat="44.516276" lon="8.7982931"><ele>862.1999999999999</ele><time>2026-04-03T11:58:42.204Z</time></trkpt><trkpt lat="44.5161644" lon="8.7982765"><ele>862.8000000000001</ele><time>2026-04-03T11:58:43.166Z</time></trkpt><trkpt lat="44.51606" lon="8.7982563"><ele>863.4000000000001</ele><time>2026-04-03T11:58:44.156Z</time></trkpt><trkpt lat="44.5159579" lon="8.7982414"><ele>864.0</ele><time>2026-04-03T11:58:45.107Z</time></trkpt><trkpt lat="44.5158493" lon="8.7982206"><ele>864.0</ele><time>2026-04-03T11:58:46.105Z</time></trkpt><trkpt lat="44.5157491" lon="8.798195"><ele>864.0000000000001</ele><time>2026-04-03T11:58:47.199Z</time></trkpt><trkpt lat="44.5156526" lon="8.7981784"><ele>864.0000000000001</ele><time>2026-04-03T11:58:48.16Z</time></trkpt><trkpt lat="44.5155701" lon="8.7981604"><ele>864.0</ele><time>2026-04-03T11:58:49.153Z</time></trkpt><trkpt lat="44.5154978" lon="8.7981359"><ele>864.0</ele><time>2026-04-03T11:58:50.111Z</time></trkpt><trkpt lat="44.5154152" lon="8.7979218"><ele>864.0</ele><time>2026-04-03T11:58:53.107Z</time></trkpt><trkpt lat="44.5154314" lon="8.7978172"><ele>864.0</ele><time>2026-04-03T11:58:54.18Z</time></trkpt><trkpt lat="44.5154367" lon="8.7977024"><ele>864.0</ele><time>2026-04-03T11:58:55.105Z</time></trkpt><trkpt lat="44.5154185" lon="8.7976004"><ele>864.0</ele><time>2026-04-03T11:58:56.104Z</time></trkpt><trkpt lat="44.5153976" lon="8.7974989"><ele>864.0</ele><time>2026-04-03T11:58:57.102Z</time></trkpt><trkpt lat="44.5153724" lon="8.7973922"><ele>864.0</ele><time>2026-04-03T11:58:58.103Z</time></trkpt><trkpt lat="44.5153234" lon="8.7972873"><ele>863.2</ele><time>2026-04-03T11:58:59.168Z</time></trkpt><trkpt lat="44.5153076" lon="8.7971902"><ele>862.4000000000001</ele><time>2026-04-03T11:59:00.103Z</time></trkpt><trkpt lat="44.5153033" lon="8.7970966"><ele>861.6</ele><time>2026-04-03T11:59:01.103Z</time></trkpt><trkpt lat="44.5153104" lon="8.7969939"><ele>860.8</ele><time>2026-04-03T11:59:02.185Z</time></trkpt><trkpt lat="44.5153752" lon="8.796951"><ele>860.0</ele><time>2026-04-03T11:59:03.162Z</time></trkpt><trkpt lat="44.515573" lon="8.7968973"><ele>861.25</ele><time>2026-04-03T11:59:05.999Z</time></trkpt><trkpt lat="44.5156734" lon="8.7968839"><ele>862.5</ele><time>2026-04-03T11:59:07.107Z</time></trkpt><trkpt lat="44.5157553" lon="8.7968784"><ele>863.75</ele><time>2026-04-03T11:59:08.123Z</time></trkpt><trkpt lat="44.5158694" lon="8.7968468"><ele>865.0</ele><time>2026-04-03T11:59:09.149Z</time></trkpt><trkpt lat="44.5160881" lon="8.7967904"><ele>865.0</ele><time>2026-04-03T11:59:11.109Z</time></trkpt><trkpt lat="44.5161835" lon="8.7967546"><ele>865.0</ele><time>2026-04-03T11:59:12.143Z</time></trkpt><trkpt lat="44.5162965" lon="8.7967163"><ele>865.0</ele><time>2026-04-03T11:59:13.152Z</time></trkpt><trkpt lat="44.5164013" lon="8.7966731"><ele>865.0</ele><time>2026-04-03T11:59:14.171Z</time></trkpt><trkpt lat="44.5165067" lon="8.7966334"><ele>865.0</ele><time>2026-04-03T11:59:15.104Z</time></trkpt><trkpt lat="44.5166143" lon="8.7965923"><ele>866.75</ele><time>2026-04-03T11:59:16.101Z</time></trkpt><trkpt lat="44.5168091" lon="8.7964814"><ele>868.5</ele><time>2026-04-03T11:59:18.146Z</time></trkpt><trkpt lat="44.5168956" lon="8.7963856"><ele>870.25</ele><time>2026-04-03T11:59:19.16Z</time></trkpt><trkpt lat="44.5169741" lon="8.796304"><ele>872.0</ele><time>2026-04-03T11:59:20.105Z</time></trkpt><trkpt lat="44.5170501" lon="8.7962256"><ele>872.75</ele><time>2026-04-03T11:59:21.113Z</time></trkpt><trkpt lat="44.5171665" lon="8.7960817"><ele>873.5</ele><time>2026-04-03T11:59:22.155Z</time></trkpt><trkpt lat="44.5172604" lon="8.7959792"><ele>874.25</ele><time>2026-04-03T11:59:23.176Z</time></trkpt><trkpt lat="44.5173288" lon="8.7958673"><ele>875.0</ele><time>2026-04-03T11:59:24.153Z</time></trkpt><trkpt lat="44.5173871" lon="8.7957501"><ele>875.0</ele><time>2026-04-03T11:59:25.111Z</time></trkpt><trkpt lat="44.517444" lon="8.7956337"><ele>875.0</ele><time>2026-04-03T11:59:26.109Z</time></trkpt><trkpt lat="44.5174921" lon="8.7955224"><ele>875.0</ele><time>2026-04-03T11:59:27.152Z</time></trkpt><trkpt lat="44.5175245" lon="8.7953971"><ele>875.0</ele><time>2026-04-03T11:59:28.185Z</time></trkpt><trkpt lat="44.5175358" lon="8.7952588"><ele>875.0</ele><time>2026-04-03T11:59:29.191Z</time></trkpt><trkpt lat="44.5175404" lon="8.7951188"><ele>874.6</ele><time>2026-04-03T11:59:30.102Z</time></trkpt><trkpt lat="44.5175569" lon="8.7949812"><ele>874.2</ele><time>2026-04-03T11:59:31.106Z</time></trkpt><trkpt lat="44.5175708" lon="8.7948446"><ele>873.8</ele><time>2026-04-03T11:59:32.201Z</time></trkpt><trkpt lat="44.517598" lon="8.7947037"><ele>873.4</ele><time>2026-04-03T11:59:33.174Z</time></trkpt><trkpt lat="44.5176388" lon="8.7945652"><ele>873.0</ele><time>2026-04-03T11:59:34.191Z</time></trkpt><trkpt lat="44.5176898" lon="8.7944326"><ele>872.5</ele><time>2026-04-03T11:59:35.107Z</time></trkpt><trkpt lat="44.5177538" lon="8.7943202"><ele>872.0</ele><time>2026-04-03T11:59:36.103Z</time></trkpt><trkpt lat="44.517822" lon="8.7942454"><ele>871.5</ele><time>2026-04-03T11:59:37.104Z</time></trkpt><trkpt lat="44.517918" lon="8.7942176"><ele>871.0</ele><time>2026-04-03T11:59:38.105Z</time></trkpt><trkpt lat="44.5181249" lon="8.7942389"><ele>871.0</ele><time>2026-04-03T11:59:39.999Z</time></trkpt><trkpt lat="44.5182272" lon="8.7942535"><ele>870.9999999999999</ele><time>2026-04-03T11:59:41.105Z</time></trkpt><trkpt lat="44.5183383" lon="8.7942724"><ele>870.9999999999999</ele><time>2026-04-03T11:59:42.124Z</time></trkpt><trkpt lat="44.5184504" lon="8.7942867"><ele>871.0</ele><time>2026-04-03T11:59:43.107Z</time></trkpt><trkpt lat="44.5185662" lon="8.7943165"><ele>871.0</ele><time>2026-04-03T11:59:44.105Z</time></trkpt><trkpt lat="44.5188099" lon="8.7944019"><ele>869.5</ele><time>2026-04-03T11:59:46.158Z</time></trkpt><trkpt lat="44.5189271" lon="8.7944861"><ele>868.0</ele><time>2026-04-03T11:59:47.149Z</time></trkpt><trkpt lat="44.5190412" lon="8.7945645"><ele>866.5</ele><time>2026-04-03T11:59:48.163Z</time></trkpt><trkpt lat="44.5191655" lon="8.7946307"><ele>865.0</ele><time>2026-04-03T11:59:49.197Z</time></trkpt><trkpt lat="44.5192824" lon="8.7946926"><ele>865.0</ele><time>2026-04-03T11:59:50.101Z</time></trkpt><trkpt lat="44.5194069" lon="8.7947502"><ele>865.0</ele><time>2026-04-03T11:59:51.104Z</time></trkpt><trkpt lat="44.5195327" lon="8.7948004"><ele>865.0</ele><time>2026-04-03T11:59:52.169Z</time></trkpt><trkpt lat="44.5196526" lon="8.7948497"><ele>865.0</ele><time>2026-04-03T11:59:53.154Z</time></trkpt><trkpt lat="44.5197853" lon="8.7948844"><ele>866.5</ele><time>2026-04-03T11:59:54.19Z</time></trkpt><trkpt lat="44.5199121" lon="8.7949414"><ele>868.0</ele><time>2026-04-03T11:59:55.101Z</time></trkpt><trkpt lat="44.5200346" lon="8.7949992"><ele>869.5</ele><time>2026-04-03T11:59:56.106Z</time></trkpt><trkpt lat="44.5201603" lon="8.7950522"><ele>871.0</ele><time>2026-04-03T11:59:57.183Z</time></trkpt><trkpt lat="44.5202834" lon="8.7951084"><ele>868.0</ele><time>2026-04-03T11:59:58.176Z</time></trkpt><trkpt lat="44.5204059" lon="8.7951567"><ele>865.0</ele><time>2026-04-03T11:59:59.182Z</time></trkpt><trkpt lat="44.520648" lon="8.7952544"><ele>862.0</ele><time>2026-04-03T12:00:01.103Z</time></trkpt><trkpt lat="44.5207629" lon="8.7953229"><ele>862.0</ele><time>2026-04-03T12:00:02.161Z</time></trkpt><trkpt lat="44.5208663" lon="8.7954036"><ele>862.0</ele><time>2026-04-03T12:00:03.165Z</time></trkpt><trkpt lat="44.5209648" lon="8.7954877"><ele>862.0</ele><time>2026-04-03T12:00:04.162Z</time></trkpt><trkpt lat="44.5211787" lon="8.7956052"><ele>864.0</ele><time>2026-04-03T12:00:06.128Z</time></trkpt><trkpt lat="44.5212922" lon="8.7956273"><ele>866.0</ele><time>2026-04-03T12:00:07.1Z</time></trkpt><trkpt lat="44.5214102" lon="8.7956495"><ele>868.0</ele><time>2026-04-03T12:00:08.148Z</time></trkpt><trkpt lat="44.5215244" lon="8.7956564"><ele>870.0</ele><time>2026-04-03T12:00:09.154Z</time></trkpt><trkpt lat="44.5217453" lon="8.7957195"><ele>870.0</ele><time>2026-04-03T12:00:11.107Z</time></trkpt><trkpt lat="44.5219556" lon="8.7958401"><ele>870.0</ele><time>2026-04-03T12:00:13.104Z</time></trkpt><trkpt lat="44.5221603" lon="8.79598"><ele>865.25</ele><time>2026-04-03T12:00:15Z</time></trkpt><trkpt lat="44.5222631" lon="8.796044"><ele>860.5</ele><time>2026-04-03T12:00:16.103Z</time></trkpt><trkpt lat="44.5223666" lon="8.7960986"><ele>855.75</ele><time>2026-04-03T12:00:17.102Z</time></trkpt><trkpt lat="44.5225823" lon="8.7961449"><ele>851.0</ele><time>2026-04-03T12:00:19.104Z</time></trkpt><trkpt lat="44.5226923" lon="8.7961623"><ele>851.0</ele><time>2026-04-03T12:00:20.104Z</time></trkpt><trkpt lat="44.5228015" lon="8.7961893"><ele>851.0</ele><time>2026-04-03T12:00:21.164Z</time></trkpt><trkpt lat="44.5229031" lon="8.7962261"><ele>851.0</ele><time>2026-04-03T12:00:22.164Z</time></trkpt><trkpt lat="44.523019" lon="8.7962612"><ele>851.0</ele><time>2026-04-03T12:00:23.17Z</time></trkpt><trkpt lat="44.5232348" lon="8.7963877"><ele>856.5</ele><time>2026-04-03T12:00:24.999Z</time></trkpt><trkpt lat="44.523333" lon="8.7964706"><ele>862.0</ele><time>2026-04-03T12:00:26.104Z</time></trkpt><trkpt lat="44.5234382" lon="8.7965456"><ele>867.5</ele><time>2026-04-03T12:00:27.123Z</time></trkpt><trkpt lat="44.5235401" lon="8.7966269"><ele>873.0</ele><time>2026-04-03T12:00:28.103Z</time></trkpt><trkpt lat="44.5236277" lon="8.7967105"><ele>871.0</ele><time>2026-04-03T12:00:29.103Z</time></trkpt><trkpt lat="44.5237973" lon="8.7969031"><ele>869.0</ele><time>2026-04-03T12:00:32.151Z</time></trkpt><trkpt lat="44.5239782" lon="8.7970614"><ele>867.0</ele><time>2026-04-03T12:00:33.154Z</time></trkpt><trkpt lat="44.5240742" lon="8.7971273"><ele>867.0</ele><time>2026-04-03T12:00:34.169Z</time></trkpt><trkpt lat="44.5242673" lon="8.7972387"><ele>867.0</ele><time>2026-04-03T12:00:36.104Z</time></trkpt><trkpt lat="44.5243533" lon="8.7972813"><ele>867.0</ele><time>2026-04-03T12:00:37.1Z</time></trkpt><trkpt lat="44.5244734" lon="8.7973067"><ele>867.0</ele><time>2026-04-03T12:00:38.135Z</time></trkpt><trkpt lat="44.5245807" lon="8.7973377"><ele>869.0</ele><time>2026-04-03T12:00:39.136Z</time></trkpt><trkpt lat="44.5246888" lon="8.7973648"><ele>871.0</ele><time>2026-04-03T12:00:40.102Z</time></trkpt><trkpt lat="44.5247956" lon="8.7973915"><ele>873.0</ele><time>2026-04-03T12:00:41.114Z</time></trkpt><trkpt lat="44.5248966" lon="8.7974028"><ele>875.0</ele><time>2026-04-03T12:00:42.159Z</time></trkpt><trkpt lat="44.5250021" lon="8.7973984"><ele>877.0</ele><time>2026-04-03T12:00:43.195Z</time></trkpt><trkpt lat="44.5251041" lon="8.7973863"><ele>877.0</ele><time>2026-04-03T12:00:44.192Z</time></trkpt><trkpt lat="44.5252958" lon="8.7972993"><ele>877.0</ele><time>2026-04-03T12:00:45.999Z</time></trkpt><trkpt lat="44.5253737" lon="8.7972347"><ele>877.0</ele><time>2026-04-03T12:00:47.159Z</time></trkpt><trkpt lat="44.5254576" lon="8.7971616"><ele>877.0</ele><time>2026-04-03T12:00:48.184Z</time></trkpt><trkpt lat="44.5255339" lon="8.7970901"><ele>878.0</ele><time>2026-04-03T12:00:49.155Z</time></trkpt><trkpt lat="44.5256556" lon="8.7969361"><ele>879.0</ele><time>2026-04-03T12:00:51.107Z</time></trkpt><trkpt lat="44.5257039" lon="8.7968623"><ele>880.0</ele><time>2026-04-03T12:00:52.183Z</time></trkpt><trkpt lat="44.525756" lon="8.7967757"><ele>881.0</ele><time>2026-04-03T12:00:53.134Z</time></trkpt><trkpt lat="44.5258123" lon="8.7966866"><ele>882.0</ele><time>2026-04-03T12:00:54.183Z</time></trkpt><trkpt lat="44.5258636" lon="8.7966107"><ele>882.0</ele><time>2026-04-03T12:00:55.105Z</time></trkpt><trkpt lat="44.5259202" lon="8.7965435"><ele>882.0</ele><time>2026-04-03T12:00:56.104Z</time></trkpt><trkpt lat="44.5259678" lon="8.7963685"><ele>882.0</ele><time>2026-04-03T12:00:58.174Z</time></trkpt><trkpt lat="44.5259898" lon="8.7962487"><ele>882.0</ele><time>2026-04-03T12:00:59.134Z</time></trkpt><trkpt lat="44.5260109" lon="8.796112"><ele>882.0</ele><time>2026-04-03T12:01:00.111Z</time></trkpt><trkpt lat="44.5260305" lon="8.7959679"><ele>882.5</ele><time>2026-04-03T12:01:01.103Z</time></trkpt><trkpt lat="44.526058" lon="8.7958272"><ele>883.0</ele><time>2026-04-03T12:01:02.158Z</time></trkpt><trkpt lat="44.5260876" lon="8.7956894"><ele>883.5</ele><time>2026-04-03T12:01:03.177Z</time></trkpt><trkpt lat="44.5261115" lon="8.7955567"><ele>884.0</ele><time>2026-04-03T12:01:04.178Z</time></trkpt><trkpt lat="44.5261427" lon="8.7953089"><ele>883.0</ele><time>2026-04-03T12:01:06.105Z</time></trkpt><trkpt lat="44.526147" lon="8.7951236"><ele>882.0000000000001</ele><time>2026-04-03T12:01:08.125Z</time></trkpt><trkpt lat="44.5260636" lon="8.79507"><ele>881.0000000000001</ele><time>2026-04-03T12:01:09.134Z</time></trkpt><trkpt lat="44.5260142" lon="8.7950108"><ele>880.0</ele><time>2026-04-03T12:01:10.101Z</time></trkpt><trkpt lat="44.5259078" lon="8.7950367"><ele>879.0</ele><time>2026-04-03T12:01:11.105Z</time></trkpt><trkpt lat="44.5258354" lon="8.7950203"><ele>879.0</ele><time>2026-04-03T12:01:12.105Z</time></trkpt><trkpt lat="44.5257605" lon="8.79501"><ele>879.0</ele><time>2026-04-03T12:01:13.146Z</time></trkpt><trkpt lat="44.5256501" lon="8.7949785"><ele>879.0</ele><time>2026-04-03T12:01:14.133Z</time></trkpt><trkpt lat="44.5255662" lon="8.7949487"><ele>879.0</ele><time>2026-04-03T12:01:15.11Z</time></trkpt><trkpt lat="44.5255008" lon="8.7948902"><ele>879.0</ele><time>2026-04-03T12:01:16.109Z</time></trkpt><trkpt lat="44.525435" lon="8.7948229"><ele>879.0</ele><time>2026-04-03T12:01:17.157Z</time></trkpt><trkpt lat="44.5254492" lon="8.7945909"><ele>876.5</ele><time>2026-04-03T12:01:19.108Z</time></trkpt><trkpt lat="44.5254788" lon="8.7942959"><ele>874.0</ele><time>2026-04-03T12:01:21.145Z</time></trkpt><trkpt lat="44.5255065" lon="8.7941496"><ele>871.5</ele><time>2026-04-03T12:01:22.128Z</time></trkpt><trkpt lat="44.5255367" lon="8.7940098"><ele>869.0</ele><time>2026-04-03T12:01:23.163Z</time></trkpt><trkpt lat="44.5255844" lon="8.7938831"><ele>869.0</ele><time>2026-04-03T12:01:24.191Z</time></trkpt><trkpt lat="44.5256372" lon="8.7937628"><ele>869.0000000000001</ele><time>2026-04-03T12:01:25.102Z</time></trkpt><trkpt lat="44.525667" lon="8.7936435"><ele>869.0000000000001</ele><time>2026-04-03T12:01:26.104Z</time></trkpt><trkpt lat="44.5256809" lon="8.7934996"><ele>869.0</ele><time>2026-04-03T12:01:27.162Z</time></trkpt><trkpt lat="44.5256955" lon="8.7933477"><ele>869.0</ele><time>2026-04-03T12:01:28.111Z</time></trkpt><trkpt lat="44.5256876" lon="8.7931984"><ele>867.25</ele><time>2026-04-03T12:01:29.157Z</time></trkpt><trkpt lat="44.5256733" lon="8.7930526"><ele>865.5</ele><time>2026-04-03T12:01:30.102Z</time></trkpt><trkpt lat="44.5256602" lon="8.7929241"><ele>863.75</ele><time>2026-04-03T12:01:31.106Z</time></trkpt><trkpt lat="44.5256629" lon="8.7926637"><ele>862.0</ele><time>2026-04-03T12:01:32.999Z</time></trkpt><trkpt lat="44.5256675" lon="8.7925394"><ele>862.0</ele><time>2026-04-03T12:01:34.101Z</time></trkpt><trkpt lat="44.5256438" lon="8.7922985"><ele>862.0</ele><time>2026-04-03T12:01:35.999Z</time></trkpt><trkpt lat="44.5256266" lon="8.7921605"><ele>862.0</ele><time>2026-04-03T12:01:36.999Z</time></trkpt><trkpt lat="44.5255953" lon="8.7920291"><ele>862.0</ele><time>2026-04-03T12:01:37.999Z</time></trkpt><trkpt lat="44.5255484" lon="8.7919017"><ele>860.0</ele><time>2026-04-03T12:01:38.999Z</time></trkpt><trkpt lat="44.5254906" lon="8.7917848"><ele>858.0</ele><time>2026-04-03T12:01:39.999Z</time></trkpt><trkpt lat="44.5254166" lon="8.7916575"><ele>856.0</ele><time>2026-04-03T12:01:41.103Z</time></trkpt><trkpt lat="44.5253391" lon="8.7915187"><ele>854.0</ele><time>2026-04-03T12:01:42.102Z</time></trkpt><trkpt lat="44.5252192" lon="8.7912303"><ele>857.0</ele><time>2026-04-03T12:01:44.1Z</time></trkpt><trkpt lat="44.5251329" lon="8.790917"><ele>860.0</ele><time>2026-04-03T12:01:46Z</time></trkpt><trkpt lat="44.5250794" lon="8.7907606"><ele>863.0</ele><time>2026-04-03T12:01:47.106Z</time></trkpt><trkpt lat="44.5250435" lon="8.7906039"><ele>863.0</ele><time>2026-04-03T12:01:48.101Z</time></trkpt><trkpt lat="44.5250147" lon="8.7904419"><ele>863.0</ele><time>2026-04-03T12:01:49.102Z</time></trkpt><trkpt lat="44.5249847" lon="8.7902717"><ele>863.0</ele><time>2026-04-03T12:01:50.105Z</time></trkpt><trkpt lat="44.5249306" lon="8.7899536"><ele>861.25</ele><time>2026-04-03T12:01:52.105Z</time></trkpt><trkpt lat="44.5248936" lon="8.7897933"><ele>859.5</ele><time>2026-04-03T12:01:53.1Z</time></trkpt><trkpt lat="44.5248333" lon="8.7894968"><ele>857.75</ele><time>2026-04-03T12:01:54.999Z</time></trkpt><trkpt lat="44.5248098" lon="8.7893562"><ele>856.0</ele><time>2026-04-03T12:01:56.101Z</time></trkpt><trkpt lat="44.5248131" lon="8.7891966"><ele>855.0</ele><time>2026-04-03T12:01:57.102Z</time></trkpt><trkpt lat="44.5247789" lon="8.7890415"><ele>854.0</ele><time>2026-04-03T12:01:58.102Z</time></trkpt><trkpt lat="44.5247782" lon="8.7887221"><ele>853.0</ele><time>2026-04-03T12:02:00.101Z</time></trkpt><trkpt lat="44.5248638" lon="8.7884046"><ele>853.0</ele><time>2026-04-03T12:02:01.999Z</time></trkpt><trkpt lat="44.5249264" lon="8.7882571"><ele>853.0</ele><time>2026-04-03T12:02:03.132Z</time></trkpt><trkpt lat="44.5249884" lon="8.7881456"><ele>853.0</ele><time>2026-04-03T12:02:04.148Z</time></trkpt><trkpt lat="44.5250275" lon="8.7879903"><ele>853.0</ele><time>2026-04-03T12:02:05.1Z</time></trkpt><trkpt lat="44.5250468" lon="8.7878342"><ele>853.0</ele><time>2026-04-03T12:02:06.102Z</time></trkpt><trkpt lat="44.525043" lon="8.787691"><ele>853.0</ele><time>2026-04-03T12:02:07.102Z</time></trkpt><trkpt lat="44.5250652" lon="8.7875764"><ele>853.0</ele><time>2026-04-03T12:02:08.104Z</time></trkpt><trkpt lat="44.5251202" lon="8.7873113"><ele>853.0</ele><time>2026-04-03T12:02:10.109Z</time></trkpt><trkpt lat="44.5251598" lon="8.7871553"><ele>853.0</ele><time>2026-04-03T12:02:11.104Z</time></trkpt><trkpt lat="44.5251902" lon="8.7869921"><ele>853.0</ele><time>2026-04-03T12:02:12.182Z</time></trkpt><trkpt lat="44.5252051" lon="8.7868463"><ele>853.0</ele><time>2026-04-03T12:02:13.16Z</time></trkpt><trkpt lat="44.5252355" lon="8.7865463"><ele>853.0</ele><time>2026-04-03T12:02:15.105Z</time></trkpt><trkpt lat="44.5252404" lon="8.7862833"><ele>852.5</ele><time>2026-04-03T12:02:17.167Z</time></trkpt><trkpt lat="44.5253847" lon="8.7860975"><ele>852.0</ele><time>2026-04-03T12:02:19.144Z</time></trkpt><trkpt lat="44.5254451" lon="8.7860209"><ele>851.5</ele><time>2026-04-03T12:02:20.109Z</time></trkpt><trkpt lat="44.5254993" lon="8.7859216"><ele>851.0</ele><time>2026-04-03T12:02:21.112Z</time></trkpt><trkpt lat="44.5255456" lon="8.7858157"><ele>854.0</ele><time>2026-04-03T12:02:22.133Z</time></trkpt><trkpt lat="44.5256323" lon="8.7857251"><ele>857.0</ele><time>2026-04-03T12:02:23.183Z</time></trkpt><trkpt lat="44.5257023" lon="8.7856365"><ele>859.9999999999999</ele><time>2026-04-03T12:02:24.202Z</time></trkpt><trkpt lat="44.5257634" lon="8.7855549"><ele>863.0</ele><time>2026-04-03T12:02:25.116Z</time></trkpt><trkpt lat="44.5258354" lon="8.78546"><ele>866.0</ele><time>2026-04-03T12:02:26.108Z</time></trkpt><trkpt lat="44.5259543" lon="8.7852768"><ele>866.0</ele><time>2026-04-03T12:02:27.999Z</time></trkpt><trkpt lat="44.5260437" lon="8.7852404"><ele>866.0</ele><time>2026-04-03T12:02:28.999Z</time></trkpt><trkpt lat="44.5261446" lon="8.7852274"><ele>866.0</ele><time>2026-04-03T12:02:30.113Z</time></trkpt><trkpt lat="44.5263255" lon="8.7852556"><ele>866.0</ele><time>2026-04-03T12:02:32.207Z</time></trkpt><trkpt lat="44.5264069" lon="8.7852893"><ele>867.6666666666667</ele><time>2026-04-03T12:02:33.191Z</time></trkpt><trkpt lat="44.5264761" lon="8.7853036"><ele>869.3333333333334</ele><time>2026-04-03T12:02:34.18Z</time></trkpt><trkpt lat="44.5265651" lon="8.7851945"><ele>871.0</ele><time>2026-04-03T12:02:36.172Z</time></trkpt><trkpt lat="44.5266324" lon="8.7851077"><ele>872.6666666666667</ele><time>2026-04-03T12:02:37.201Z</time></trkpt><trkpt lat="44.5266899" lon="8.7850133"><ele>874.3333333333334</ele><time>2026-04-03T12:02:38.155Z</time></trkpt><trkpt lat="44.5267399" lon="8.7849237"><ele>876.0</ele><time>2026-04-03T12:02:39.122Z</time></trkpt><trkpt lat="44.5268155" lon="8.7848431"><ele>876.0</ele><time>2026-04-03T12:02:40.105Z</time></trkpt><trkpt lat="44.5268772" lon="8.7847527"><ele>876.0</ele><time>2026-04-03T12:02:41.11Z</time></trkpt><trkpt lat="44.5269354" lon="8.7846754"><ele>876.0</ele><time>2026-04-03T12:02:42.172Z</time></trkpt><trkpt lat="44.5269846" lon="8.7845862"><ele>876.0</ele><time>2026-04-03T12:02:43.155Z</time></trkpt><trkpt lat="44.5270289" lon="8.784474"><ele>876.0</ele><time>2026-04-03T12:02:44.124Z</time></trkpt><trkpt lat="44.5270489" lon="8.7843575"><ele>876.0</ele><time>2026-04-03T12:02:45.103Z</time></trkpt><trkpt lat="44.5270595" lon="8.7842218"><ele>883.25</ele><time>2026-04-03T12:02:46.108Z</time></trkpt><trkpt lat="44.5270827" lon="8.78394"><ele>890.5</ele><time>2026-04-03T12:02:48Z</time></trkpt><trkpt lat="44.5271045" lon="8.7838051"><ele>897.75</ele><time>2026-04-03T12:02:48.999Z</time></trkpt><trkpt lat="44.5271688" lon="8.7837028"><ele>905.0</ele><time>2026-04-03T12:02:50.102Z</time></trkpt><trkpt lat="44.5272294" lon="8.7836021"><ele>904.0</ele><time>2026-04-03T12:02:51.105Z</time></trkpt><trkpt lat="44.5272609" lon="8.7834769"><ele>903.0</ele><time>2026-04-03T12:02:52.164Z</time></trkpt><trkpt lat="44.5272845" lon="8.7833457"><ele>902.0</ele><time>2026-04-03T12:02:53.138Z</time></trkpt><trkpt lat="44.5273128" lon="8.7832249"><ele>901.0</ele><time>2026-04-03T12:02:54.148Z</time></trkpt><trkpt lat="44.5273342" lon="8.7831"><ele>900.0</ele><time>2026-04-03T12:02:55.11Z</time></trkpt><trkpt lat="44.5273286" lon="8.7828593"><ele>900.0</ele><time>2026-04-03T12:02:57.159Z</time></trkpt><trkpt lat="44.5272895" lon="8.7827401"><ele>900.0</ele><time>2026-04-03T12:02:58.181Z</time></trkpt><trkpt lat="44.5272398" lon="8.7826508"><ele>900.0</ele><time>2026-04-03T12:02:59.115Z</time></trkpt><trkpt lat="44.5271734" lon="8.7824515"><ele>900.0</ele><time>2026-04-03T12:03:01.102Z</time></trkpt><trkpt lat="44.5271646" lon="8.7823394"><ele>900.0</ele><time>2026-04-03T12:03:02.103Z</time></trkpt><trkpt lat="44.5271626" lon="8.7822339"><ele>900.0</ele><time>2026-04-03T12:03:03.103Z</time></trkpt><trkpt lat="44.5272068" lon="8.7821294"><ele>900.0</ele><time>2026-04-03T12:03:04.177Z</time></trkpt><trkpt lat="44.5272236" lon="8.782025"><ele>900.0</ele><time>2026-04-03T12:03:05.107Z</time></trkpt><trkpt lat="44.527232" lon="8.7818785"><ele>900.0</ele><time>2026-04-03T12:03:06.111Z</time></trkpt><trkpt lat="44.5272548" lon="8.7817512"><ele>900.0</ele><time>2026-04-03T12:03:07.163Z</time></trkpt><trkpt lat="44.5272814" lon="8.7816174"><ele>898.0</ele><time>2026-04-03T12:03:08.124Z</time></trkpt><trkpt lat="44.5273676" lon="8.7813264"><ele>896.0</ele><time>2026-04-03T12:03:09.999Z</time></trkpt><trkpt lat="44.5274171" lon="8.7811798"><ele>894.0</ele><time>2026-04-03T12:03:11.106Z</time></trkpt><trkpt lat="44.5274654" lon="8.7810608"><ele>892.0</ele><time>2026-04-03T12:03:12.164Z</time></trkpt><trkpt lat="44.5275123" lon="8.7809359"><ele>889.6</ele><time>2026-04-03T12:03:13.199Z</time></trkpt><trkpt lat="44.5275569" lon="8.7808244"><ele>887.2</ele><time>2026-04-03T12:03:14.18Z</time></trkpt><trkpt lat="44.5276025" lon="8.7806888"><ele>884.8</ele><time>2026-04-03T12:03:15.107Z</time></trkpt><trkpt lat="44.527627" lon="8.7805505"><ele>882.4</ele><time>2026-04-03T12:03:16.107Z</time></trkpt><trkpt lat="44.5276479" lon="8.7804045"><ele>880.0</ele><time>2026-04-03T12:03:17.107Z</time></trkpt><trkpt lat="44.5276609" lon="8.7802635"><ele>877.0</ele><time>2026-04-03T12:03:18.15Z</time></trkpt><trkpt lat="44.5276881" lon="8.7800082"><ele>874.0</ele><time>2026-04-03T12:03:20.1Z</time></trkpt><trkpt lat="44.5276881" lon="8.7798754"><ele>871.0</ele><time>2026-04-03T12:03:21.113Z</time></trkpt><trkpt lat="44.5277062" lon="8.7796177"><ele>870.9999999999999</ele><time>2026-04-03T12:03:23.17Z</time></trkpt><trkpt lat="44.5277226" lon="8.7794855"><ele>871.0</ele><time>2026-04-03T12:03:24.203Z</time></trkpt><trkpt lat="44.527733" lon="8.7793591"><ele>871.0</ele><time>2026-04-03T12:03:25.108Z</time></trkpt><trkpt lat="44.5277512" lon="8.7792419"><ele>871.0</ele><time>2026-04-03T12:03:26.105Z</time></trkpt><trkpt lat="44.5277799" lon="8.7791224"><ele>870.9999999999999</ele><time>2026-04-03T12:03:27.17Z</time></trkpt><trkpt lat="44.5278033" lon="8.7790061"><ele>871.0</ele><time>2026-04-03T12:03:28.105Z</time></trkpt><trkpt lat="44.5278769" lon="8.7789419"><ele>874.4999999999999</ele><time>2026-04-03T12:03:29.107Z</time></trkpt><trkpt lat="44.528004" lon="8.7787769"><ele>878.0</ele><time>2026-04-03T12:03:31.1Z</time></trkpt><trkpt lat="44.528045" lon="8.7786861"><ele>881.5</ele><time>2026-04-03T12:03:32.186Z</time></trkpt><trkpt lat="44.5280853" lon="8.7786081"><ele>885.0</ele><time>2026-04-03T12:03:33.183Z</time></trkpt><trkpt lat="44.5281293" lon="8.7785431"><ele>888.4999999999999</ele><time>2026-04-03T12:03:34.178Z</time></trkpt><trkpt lat="44.5281664" lon="8.7784711"><ele>892.0</ele><time>2026-04-03T12:03:35.102Z</time></trkpt><trkpt lat="44.5282874" lon="8.778272"><ele>892.0</ele><time>2026-04-03T12:03:37.202Z</time></trkpt><trkpt lat="44.5283339" lon="8.7781673"><ele>892.0</ele><time>2026-04-03T12:03:38.182Z</time></trkpt><trkpt lat="44.5284222" lon="8.7780608"><ele>892.0</ele><time>2026-04-03T12:03:39.18Z</time></trkpt><trkpt lat="44.5284681" lon="8.7779434"><ele>892.0</ele><time>2026-04-03T12:03:40.105Z</time></trkpt><trkpt lat="44.5285865" lon="8.7777122"><ele>893.8</ele><time>2026-04-03T12:03:42.103Z</time></trkpt><trkpt lat="44.528627" lon="8.7775892"><ele>895.6</ele><time>2026-04-03T12:03:43.117Z</time></trkpt><trkpt lat="44.5287059" lon="8.7773712"><ele>897.3999999999999</ele><time>2026-04-03T12:03:45.101Z</time></trkpt><trkpt lat="44.5287356" lon="8.7772648"><ele>899.1999999999999</ele><time>2026-04-03T12:03:46.101Z</time></trkpt><trkpt lat="44.5287673" lon="8.7771609"><ele>901.0</ele><time>2026-04-03T12:03:47.165Z</time></trkpt><trkpt lat="44.5288015" lon="8.7770576"><ele>901.0</ele><time>2026-04-03T12:03:48.167Z</time></trkpt><trkpt lat="44.52883" lon="8.77696"><ele>900.9999999999999</ele><time>2026-04-03T12:03:49.134Z</time></trkpt><trkpt lat="44.5288486" lon="8.7768654"><ele>900.9999999999999</ele><time>2026-04-03T12:03:50.105Z</time></trkpt><trkpt lat="44.5288892" lon="8.7766811"><ele>901.0</ele><time>2026-04-03T12:03:51.999Z</time></trkpt><trkpt lat="44.528916" lon="8.7765202"><ele>901.0</ele><time>2026-04-03T12:03:54.175Z</time></trkpt><trkpt lat="44.5289948" lon="8.7763967"><ele>899.1999999999999</ele><time>2026-04-03T12:03:56.103Z</time></trkpt><trkpt lat="44.529198" lon="8.7763495"><ele>897.3999999999999</ele><time>2026-04-03T12:03:58.999Z</time></trkpt><trkpt lat="44.5292687" lon="8.7763705"><ele>895.6</ele><time>2026-04-03T12:04:00.105Z</time></trkpt><trkpt lat="44.5293481" lon="8.7763841"><ele>893.8</ele><time>2026-04-03T12:04:01.106Z</time></trkpt><trkpt lat="44.5294262" lon="8.7764053"><ele>892.0</ele><time>2026-04-03T12:04:02.156Z</time></trkpt><trkpt lat="44.5295097" lon="8.7764302"><ele>892.3333333333333</ele><time>2026-04-03T12:04:03.182Z</time></trkpt><trkpt lat="44.5295982" lon="8.776448"><ele>892.6666666666666</ele><time>2026-04-03T12:04:04.124Z</time></trkpt><trkpt lat="44.5296775" lon="8.7764725"><ele>893.0</ele><time>2026-04-03T12:04:05.105Z</time></trkpt><trkpt lat="44.5297547" lon="8.7764558"><ele>893.3333333333333</ele><time>2026-04-03T12:04:06.105Z</time></trkpt><trkpt lat="44.5298404" lon="8.7764315"><ele>893.6666666666666</ele><time>2026-04-03T12:04:07.143Z</time></trkpt><trkpt lat="44.5299345" lon="8.7764072"><ele>894.0</ele><time>2026-04-03T12:04:08.122Z</time></trkpt><trkpt lat="44.5300851" lon="8.7763472"><ele>894.0</ele><time>2026-04-03T12:04:10.101Z</time></trkpt><trkpt lat="44.5301528" lon="8.7763367"><ele>894.0</ele><time>2026-04-03T12:04:11.102Z</time></trkpt><trkpt lat="44.5302327" lon="8.776338"><ele>894.0</ele><time>2026-04-03T12:04:12.197Z</time></trkpt><trkpt lat="44.530321" lon="8.7763346"><ele>894.0</ele><time>2026-04-03T12:04:13.157Z</time></trkpt><trkpt lat="44.530403" lon="8.7763363"><ele>894.0</ele><time>2026-04-03T12:04:14.17Z</time></trkpt><trkpt lat="44.5304812" lon="8.7763372"><ele>894.0</ele><time>2026-04-03T12:04:15.106Z</time></trkpt><trkpt lat="44.5305603" lon="8.7763406"><ele>893.8000000000001</ele><time>2026-04-03T12:04:16.107Z</time></trkpt><trkpt lat="44.5306405" lon="8.7763589"><ele>893.6000000000001</ele><time>2026-04-03T12:04:17.185Z</time></trkpt><trkpt lat="44.5307296" lon="8.7763756"><ele>893.4</ele><time>2026-04-03T12:04:18.175Z</time></trkpt><trkpt lat="44.530823" lon="8.7763943"><ele>893.2</ele><time>2026-04-03T12:04:19.152Z</time></trkpt><trkpt lat="44.5309126" lon="8.7763958"><ele>893.0</ele><time>2026-04-03T12:04:20.106Z</time></trkpt><trkpt lat="44.5310922" lon="8.7763906"><ele>893.0</ele><time>2026-04-03T12:04:22.197Z</time></trkpt><trkpt lat="44.5311768" lon="8.7763797"><ele>893.0</ele><time>2026-04-03T12:04:23.206Z</time></trkpt><trkpt lat="44.5312585" lon="8.7763819"><ele>893.0</ele><time>2026-04-03T12:04:24.184Z</time></trkpt><trkpt lat="44.5314285" lon="8.7763918"><ele>893.0</ele><time>2026-04-03T12:04:26.107Z</time></trkpt><trkpt lat="44.5315134" lon="8.776414"><ele>893.0</ele><time>2026-04-03T12:04:27.17Z</time></trkpt><trkpt lat="44.531605" lon="8.7764354"><ele>891.25</ele><time>2026-04-03T12:04:28.115Z</time></trkpt><trkpt lat="44.5317021" lon="8.7764667"><ele>889.5</ele><time>2026-04-03T12:04:29.178Z</time></trkpt><trkpt lat="44.5318838" lon="8.7764994"><ele>887.75</ele><time>2026-04-03T12:04:31.111Z</time></trkpt><trkpt lat="44.5319674" lon="8.7764983"><ele>886.0</ele><time>2026-04-03T12:04:32.188Z</time></trkpt><trkpt lat="44.5320557" lon="8.7764836"><ele>884.8</ele><time>2026-04-03T12:04:33.167Z</time></trkpt><trkpt lat="44.5321482" lon="8.7764937"><ele>883.5999999999999</ele><time>2026-04-03T12:04:34.147Z</time></trkpt><trkpt lat="44.5323074" lon="8.7765353"><ele>882.4</ele><time>2026-04-03T12:04:36.101Z</time></trkpt><trkpt lat="44.5323815" lon="8.7765636"><ele>881.2</ele><time>2026-04-03T12:04:37.173Z</time></trkpt><trkpt lat="44.5324504" lon="8.7765892"><ele>880.0</ele><time>2026-04-03T12:04:38.193Z</time></trkpt><trkpt lat="44.5325198" lon="8.7766133"><ele>880.0</ele><time>2026-04-03T12:04:39.157Z</time></trkpt><trkpt lat="44.532629" lon="8.7766497"><ele>880.0</ele><time>2026-04-03T12:04:41.108Z</time></trkpt><trkpt lat="44.5326939" lon="8.7766604"><ele>880.0</ele><time>2026-04-03T12:04:42.105Z</time></trkpt><trkpt lat="44.5328092" lon="8.7766767"><ele>880.0</ele><time>2026-04-03T12:04:44.133Z</time></trkpt><trkpt lat="44.5329282" lon="8.7767074"><ele>880.0</ele><time>2026-04-03T12:04:46.11Z</time></trkpt><trkpt lat="44.53303" lon="8.7767475"><ele>880.4</ele><time>2026-04-03T12:04:48.106Z</time></trkpt><trkpt lat="44.5331307" lon="8.776773"><ele>880.8</ele><time>2026-04-03T12:04:50.106Z</time></trkpt><trkpt lat="44.5332279" lon="8.7768497"><ele>881.2</ele><time>2026-04-03T12:04:52.152Z</time></trkpt><trkpt lat="44.5333318" lon="8.7769228"><ele>881.6</ele><time>2026-04-03T12:04:54.177Z</time></trkpt><trkpt lat="44.5334307" lon="8.7770028"><ele>882.0</ele><time>2026-04-03T12:04:56.106Z</time></trkpt><trkpt lat="44.5335248" lon="8.7770633"><ele>882.0</ele><time>2026-04-03T12:04:58.16Z</time></trkpt><trkpt lat="44.5335787" lon="8.7771212"><ele>882.0</ele><time>2026-04-03T12:04:59.107Z</time></trkpt><trkpt lat="44.533681" lon="8.7771856"><ele>882.0</ele><time>2026-04-03T12:05:01.104Z</time></trkpt><trkpt lat="44.5338243" lon="8.7772978"><ele>882.0</ele><time>2026-04-03T12:05:04.164Z</time></trkpt><trkpt lat="44.5339254" lon="8.7773902"><ele>880.8</ele><time>2026-04-03T12:05:06.106Z</time></trkpt><trkpt lat="44.5340328" lon="8.7774802"><ele>879.6</ele><time>2026-04-03T12:05:08.215Z</time></trkpt><trkpt lat="44.5340867" lon="8.7775296"><ele>878.3999999999999</ele><time>2026-04-03T12:05:09.181Z</time></trkpt><trkpt lat="44.5341709" lon="8.7776103"><ele>877.1999999999999</ele><time>2026-04-03T12:05:11.111Z</time></trkpt><trkpt lat="44.5342634" lon="8.7777055"><ele>876.0</ele><time>2026-04-03T12:05:13.151Z</time></trkpt><trkpt lat="44.5343503" lon="8.7777786"><ele>876.0</ele><time>2026-04-03T12:05:15.104Z</time></trkpt><trkpt lat="44.5344607" lon="8.7778494"><ele>876.0</ele><time>2026-04-03T12:05:17.109Z</time></trkpt><trkpt lat="44.5345242" lon="8.7779064"><ele>876.0</ele><time>2026-04-03T12:05:18.104Z</time></trkpt><trkpt lat="44.5345968" lon="8.7779719"><ele>876.0</ele><time>2026-04-03T12:05:19.183Z</time></trkpt><trkpt lat="44.534661" lon="8.7780189"><ele>876.0</ele><time>2026-04-03T12:05:20.101Z</time></trkpt><trkpt lat="44.5347333" lon="8.778082"><ele>876.0</ele><time>2026-04-03T12:05:21.102Z</time></trkpt><trkpt lat="44.5348049" lon="8.7781304"><ele>873.5999999999999</ele><time>2026-04-03T12:05:22.101Z</time></trkpt><trkpt lat="44.534872" lon="8.7781867"><ele>871.1999999999999</ele><time>2026-04-03T12:05:23.103Z</time></trkpt><trkpt lat="44.5349364" lon="8.7782559"><ele>868.8000000000001</ele><time>2026-04-03T12:05:24.105Z</time></trkpt><trkpt lat="44.535004" lon="8.7783116"><ele>866.4000000000001</ele><time>2026-04-03T12:05:25.101Z</time></trkpt><trkpt lat="44.5351395" lon="8.7784086"><ele>864.0</ele><time>2026-04-03T12:05:27.186Z</time></trkpt><trkpt lat="44.5352031" lon="8.7784653"><ele>863.0</ele><time>2026-04-03T12:05:28.182Z</time></trkpt><trkpt lat="44.5352705" lon="8.7785301"><ele>862.0000000000001</ele><time>2026-04-03T12:05:29.197Z</time></trkpt><trkpt lat="44.5354103" lon="8.7786413"><ele>861.0000000000001</ele><time>2026-04-03T12:05:31.101Z</time></trkpt><trkpt lat="44.5354829" lon="8.7787111"><ele>860.0</ele><time>2026-04-03T12:05:32.171Z</time></trkpt><trkpt lat="44.5355557" lon="8.7787762"><ele>859.0</ele><time>2026-04-03T12:05:33.187Z</time></trkpt><trkpt lat="44.535633" lon="8.7788418"><ele>859.0</ele><time>2026-04-03T12:05:34.175Z</time></trkpt><trkpt lat="44.5357091" lon="8.7789152"><ele>859.0000000000001</ele><time>2026-04-03T12:05:35.106Z</time></trkpt><trkpt lat="44.5357873" lon="8.7789984"><ele>859.0000000000001</ele><time>2026-04-03T12:05:36.101Z</time></trkpt><trkpt lat="44.5358752" lon="8.7790742"><ele>859.0</ele><time>2026-04-03T12:05:37.183Z</time></trkpt><trkpt lat="44.5359615" lon="8.7791475"><ele>859.0</ele><time>2026-04-03T12:05:38.164Z</time></trkpt><trkpt lat="44.5360528" lon="8.7792198"><ele>859.0</ele><time>2026-04-03T12:05:39.177Z</time></trkpt><trkpt lat="44.5362492" lon="8.7793697"><ele>859.0</ele><time>2026-04-03T12:05:41.104Z</time></trkpt><trkpt lat="44.5363431" lon="8.7794598"><ele>859.0</ele><time>2026-04-03T12:05:42.2Z</time></trkpt><trkpt lat="44.5364382" lon="8.7795338"><ele>859.0</ele><time>2026-04-03T12:05:43.14Z</time></trkpt><trkpt lat="44.5365357" lon="8.7796068"><ele>859.0</ele><time>2026-04-03T12:05:44.121Z</time></trkpt><trkpt lat="44.5366347" lon="8.7796765"><ele>859.0</ele><time>2026-04-03T12:05:45.103Z</time></trkpt><trkpt lat="44.5368287" lon="8.7798289"><ele>859.0</ele><time>2026-04-03T12:05:47.141Z</time></trkpt><trkpt lat="44.5369221" lon="8.7799143"><ele>859.0</ele><time>2026-04-03T12:05:48.145Z</time></trkpt><trkpt lat="44.537012" lon="8.7799865"><ele>857.4000000000001</ele><time>2026-04-03T12:05:49.106Z</time></trkpt><trkpt lat="44.5370989" lon="8.780061"><ele>855.8000000000001</ele><time>2026-04-03T12:05:50.107Z</time></trkpt><trkpt lat="44.5371799" lon="8.7801463"><ele>854.2</ele><time>2026-04-03T12:05:51.112Z</time></trkpt><trkpt lat="44.5372626" lon="8.7802243"><ele>852.5999999999999</ele><time>2026-04-03T12:05:52.179Z</time></trkpt><trkpt lat="44.5373307" lon="8.7803213"><ele>851.0</ele><time>2026-04-03T12:05:53.178Z</time></trkpt><trkpt lat="44.5374103" lon="8.7804078"><ele>851.0</ele><time>2026-04-03T12:05:54.134Z</time></trkpt><trkpt lat="44.5374894" lon="8.7805316"><ele>851.0</ele><time>2026-04-03T12:05:55.103Z</time></trkpt><trkpt lat="44.5375779" lon="8.7806233"><ele>851.0</ele><time>2026-04-03T12:05:56.105Z</time></trkpt><trkpt lat="44.537667" lon="8.78072"><ele>851.0</ele><time>2026-04-03T12:05:57.186Z</time></trkpt><trkpt lat="44.5377596" lon="8.7808194"><ele>851.0</ele><time>2026-04-03T12:05:58.182Z</time></trkpt><trkpt lat="44.5378488" lon="8.7809224"><ele>851.0</ele><time>2026-04-03T12:05:59.136Z</time></trkpt><trkpt lat="44.5380113" lon="8.7811327"><ele>851.0</ele><time>2026-04-03T12:06:01.106Z</time></trkpt><trkpt lat="44.5380762" lon="8.7812255"><ele>851.0</ele><time>2026-04-03T12:06:02.143Z</time></trkpt><trkpt lat="44.5381286" lon="8.7812861"><ele>849.0</ele><time>2026-04-03T12:06:03.154Z</time></trkpt><trkpt lat="44.5382151" lon="8.7813266"><ele>847.0</ele><time>2026-04-03T12:06:04.178Z</time></trkpt><trkpt lat="44.5383895" lon="8.7813322"><ele>845.0</ele><time>2026-04-03T12:06:06.102Z</time></trkpt><trkpt lat="44.5385738" lon="8.7812775"><ele>845.0</ele><time>2026-04-03T12:06:07.999Z</time></trkpt><trkpt lat="44.5386687" lon="8.7812394"><ele>845.0</ele><time>2026-04-03T12:06:09.1Z</time></trkpt><trkpt lat="44.5388583" lon="8.7811713"><ele>845.0</ele><time>2026-04-03T12:06:11.101Z</time></trkpt><trkpt lat="44.5389622" lon="8.7811366"><ele>845.0</ele><time>2026-04-03T12:06:12.101Z</time></trkpt><trkpt lat="44.5390651" lon="8.7810935"><ele>837.6666666666667</ele><time>2026-04-03T12:06:13.104Z</time></trkpt><trkpt lat="44.5392663" lon="8.7810096"><ele>830.3333333333333</ele><time>2026-04-03T12:06:15.102Z</time></trkpt><trkpt lat="44.539365" lon="8.7809742"><ele>823.0</ele><time>2026-04-03T12:06:16.101Z</time></trkpt><trkpt lat="44.5395696" lon="8.7809087"><ele>823.0</ele><time>2026-04-03T12:06:17.999Z</time></trkpt><trkpt lat="44.5396655" lon="8.7808729"><ele>823.0</ele><time>2026-04-03T12:06:19.102Z</time></trkpt><trkpt lat="44.5397592" lon="8.7808351"><ele>823.0</ele><time>2026-04-03T12:06:20.107Z</time></trkpt><trkpt lat="44.5399541" lon="8.7807755"><ele>823.0</ele><time>2026-04-03T12:06:22.177Z</time></trkpt><trkpt lat="44.5400346" lon="8.7807407"><ele>823.0</ele><time>2026-04-03T12:06:23.163Z</time></trkpt><trkpt lat="44.5401979" lon="8.7806237"><ele>823.0</ele><time>2026-04-03T12:06:24.999Z</time></trkpt><trkpt lat="44.5402666" lon="8.7805455"><ele>823.0</ele><time>2026-04-03T12:06:25.999Z</time></trkpt><trkpt lat="44.5403491" lon="8.7804763"><ele>823.0</ele><time>2026-04-03T12:06:27.138Z</time></trkpt><trkpt lat="44.5404439" lon="8.780409"><ele>824.25</ele><time>2026-04-03T12:06:28.177Z</time></trkpt><trkpt lat="44.5405344" lon="8.7803619"><ele>825.5</ele><time>2026-04-03T12:06:29.104Z</time></trkpt><trkpt lat="44.5406361" lon="8.7803315"><ele>826.75</ele><time>2026-04-03T12:06:30.105Z</time></trkpt><trkpt lat="44.5408171" lon="8.7802297"><ele>828.0</ele><time>2026-04-03T12:06:32.175Z</time></trkpt><trkpt lat="44.5409015" lon="8.780162"><ele>827.5</ele><time>2026-04-03T12:06:33.189Z</time></trkpt><trkpt lat="44.5410595" lon="8.780025"><ele>827.0</ele><time>2026-04-03T12:06:35.105Z</time></trkpt><trkpt lat="44.5411384" lon="8.7799513"><ele>826.5</ele><time>2026-04-03T12:06:36.103Z</time></trkpt><trkpt lat="44.5412107" lon="8.7798813"><ele>826.0</ele><time>2026-04-03T12:06:37.195Z</time></trkpt><trkpt lat="44.5413633" lon="8.7797499"><ele>825.9999999999999</ele><time>2026-04-03T12:06:39.193Z</time></trkpt><trkpt lat="44.5414295" lon="8.7796863"><ele>826.0</ele><time>2026-04-03T12:06:40.106Z</time></trkpt><trkpt lat="44.541527" lon="8.7796737"><ele>826.0</ele><time>2026-04-03T12:06:41.102Z</time></trkpt><trkpt lat="44.5416079" lon="8.7796335"><ele>826.0</ele><time>2026-04-03T12:06:42.168Z</time></trkpt><trkpt lat="44.5416915" lon="8.7795943"><ele>825.9999999999999</ele><time>2026-04-03T12:06:43.12Z</time></trkpt><trkpt lat="44.5417675" lon="8.7795285"><ele>826.0</ele><time>2026-04-03T12:06:44.183Z</time></trkpt><trkpt lat="44.5418409" lon="8.7794502"><ele>826.0</ele><time>2026-04-03T12:06:45.109Z</time></trkpt><trkpt lat="44.5419051" lon="8.7793694"><ele>826.0</ele><time>2026-04-03T12:06:46.107Z</time></trkpt><trkpt lat="44.5419687" lon="8.7792786"><ele>826.0</ele><time>2026-04-03T12:06:47.182Z</time></trkpt><trkpt lat="44.5420378" lon="8.7791938"><ele>826.0</ele><time>2026-04-03T12:06:48.173Z</time></trkpt><trkpt lat="44.5421099" lon="8.7791083"><ele>826.0</ele><time>2026-04-03T12:06:49.117Z</time></trkpt><trkpt lat="44.54217" lon="8.7790172"><ele>826.4</ele><time>2026-04-03T12:06:50.108Z</time></trkpt><trkpt lat="44.5422276" lon="8.7789121"><ele>826.8</ele><time>2026-04-03T12:06:51.116Z</time></trkpt><trkpt lat="44.5422908" lon="8.7788138"><ele>827.1999999999999</ele><time>2026-04-03T12:06:52.101Z</time></trkpt><trkpt lat="44.5423533" lon="8.7787226"><ele>827.5999999999999</ele><time>2026-04-03T12:06:53.105Z</time></trkpt><trkpt lat="44.5423997" lon="8.7786306"><ele>828.0</ele><time>2026-04-03T12:06:54.16Z</time></trkpt><trkpt lat="44.5424657" lon="8.7785312"><ele>825.8</ele><time>2026-04-03T12:06:55.106Z</time></trkpt><trkpt lat="44.5425209" lon="8.7784416"><ele>823.5999999999999</ele><time>2026-04-03T12:06:56.107Z</time></trkpt><trkpt lat="44.5425826" lon="8.7783438"><ele>821.4000000000001</ele><time>2026-04-03T12:06:57.105Z</time></trkpt><trkpt lat="44.5426347" lon="8.7782428"><ele>819.2</ele><time>2026-04-03T12:06:58.125Z</time></trkpt><trkpt lat="44.5427038" lon="8.7781451"><ele>817.0</ele><time>2026-04-03T12:06:59.109Z</time></trkpt><trkpt lat="44.5427587" lon="8.7780412"><ele>817.0</ele><time>2026-04-03T12:07:00.102Z</time></trkpt><trkpt lat="44.5428153" lon="8.7779272"><ele>817.0</ele><time>2026-04-03T12:07:01.138Z</time></trkpt><trkpt lat="44.5428251" lon="8.7777915"><ele>817.0</ele><time>2026-04-03T12:07:02.153Z</time></trkpt><trkpt lat="44.5428573" lon="8.7776719"><ele>817.0</ele><time>2026-04-03T12:07:03.102Z</time></trkpt><trkpt lat="44.5428496" lon="8.7775081"><ele>817.0</ele><time>2026-04-03T12:07:04.16Z</time></trkpt><trkpt lat="44.5429016" lon="8.7772826"><ele>815.6666666666666</ele><time>2026-04-03T12:07:06.111Z</time></trkpt><trkpt lat="44.5429173" lon="8.7771385"><ele>814.3333333333333</ele><time>2026-04-03T12:07:07.178Z</time></trkpt><trkpt lat="44.5429241" lon="8.7770154"><ele>813.0</ele><time>2026-04-03T12:07:08.171Z</time></trkpt><trkpt lat="44.5429114" lon="8.7769055"><ele>811.6666666666667</ele><time>2026-04-03T12:07:09.173Z</time></trkpt><trkpt lat="44.5428984" lon="8.7767803"><ele>810.3333333333334</ele><time>2026-04-03T12:07:10.108Z</time></trkpt><trkpt lat="44.5428866" lon="8.776661"><ele>809.0</ele><time>2026-04-03T12:07:11.107Z</time></trkpt><trkpt lat="44.5428669" lon="8.7765578"><ele>809.0000000000001</ele><time>2026-04-03T12:07:12.182Z</time></trkpt><trkpt lat="44.5428417" lon="8.7764546"><ele>809.0</ele><time>2026-04-03T12:07:13.115Z</time></trkpt><trkpt lat="44.5428197" lon="8.7763319"><ele>809.0</ele><time>2026-04-03T12:07:14.137Z</time></trkpt><trkpt lat="44.5427744" lon="8.7762215"><ele>809.0</ele><time>2026-04-03T12:07:15.105Z</time></trkpt><trkpt lat="44.5427448" lon="8.7761244"><ele>809.0000000000001</ele><time>2026-04-03T12:07:16.106Z</time></trkpt><trkpt lat="44.5427494" lon="8.7760015"><ele>809.0</ele><time>2026-04-03T12:07:17.18Z</time></trkpt><trkpt lat="44.5427824" lon="8.7759151"><ele>809.4000000000001</ele><time>2026-04-03T12:07:18.174Z</time></trkpt><trkpt lat="44.5428277" lon="8.7758386"><ele>809.8</ele><time>2026-04-03T12:07:19.16Z</time></trkpt><trkpt lat="44.5428436" lon="8.7757357"><ele>810.2</ele><time>2026-04-03T12:07:20.106Z</time></trkpt><trkpt lat="44.5428449" lon="8.7756168"><ele>810.5999999999999</ele><time>2026-04-03T12:07:21.102Z</time></trkpt><trkpt lat="44.5428496" lon="8.7755141"><ele>811.0</ele><time>2026-04-03T12:07:22.188Z</time></trkpt><trkpt lat="44.542842" lon="8.775244"><ele>807.75</ele><time>2026-04-03T12:07:24.186Z</time></trkpt><trkpt lat="44.5428536" lon="8.7751048"><ele>804.5</ele><time>2026-04-03T12:07:25.101Z</time></trkpt><trkpt lat="44.5428711" lon="8.7749628"><ele>801.25</ele><time>2026-04-03T12:07:26.104Z</time></trkpt><trkpt lat="44.5428725" lon="8.7747232"><ele>798.0</ele><time>2026-04-03T12:07:27.999Z</time></trkpt><trkpt lat="44.542855" lon="8.7746017"><ele>798.0</ele><time>2026-04-03T12:07:28.999Z</time></trkpt><trkpt lat="44.5428312" lon="8.7744968"><ele>798.0</ele><time>2026-04-03T12:07:29.999Z</time></trkpt><trkpt lat="44.5427894" lon="8.7743886"><ele>798.0</ele><time>2026-04-03T12:07:31.104Z</time></trkpt><trkpt lat="44.5427157" lon="8.7741616"><ele>798.0</ele><time>2026-04-03T12:07:33Z</time></trkpt><trkpt lat="44.5426843" lon="8.7740631"><ele>798.0</ele><time>2026-04-03T12:07:33.999Z</time></trkpt><trkpt lat="44.5426267" lon="8.7739813"><ele>798.2</ele><time>2026-04-03T12:07:34.999Z</time></trkpt><trkpt lat="44.5425925" lon="8.7738618"><ele>798.4</ele><time>2026-04-03T12:07:36.198Z</time></trkpt><trkpt lat="44.5425758" lon="8.7737587"><ele>798.6</ele><time>2026-04-03T12:07:37.16Z</time></trkpt><trkpt lat="44.5426273" lon="8.7735574"><ele>798.8000000000001</ele><time>2026-04-03T12:07:39.166Z</time></trkpt><trkpt lat="44.5426796" lon="8.7734518"><ele>799.0</ele><time>2026-04-03T12:07:40.101Z</time></trkpt><trkpt lat="44.5427341" lon="8.7733354"><ele>799.0</ele><time>2026-04-03T12:07:41.1Z</time></trkpt><trkpt lat="44.5427648" lon="8.7731609"><ele>799.0</ele><time>2026-04-03T12:07:42.182Z</time></trkpt><trkpt lat="44.5428022" lon="8.7730227"><ele>799.0</ele><time>2026-04-03T12:07:43.174Z</time></trkpt><trkpt lat="44.5428302" lon="8.7728906"><ele>799.0</ele><time>2026-04-03T12:07:44.148Z</time></trkpt><trkpt lat="44.5428391" lon="8.7727565"><ele>799.0</ele><time>2026-04-03T12:07:45.103Z</time></trkpt><trkpt lat="44.5428627" lon="8.7726448"><ele>798.9999999999999</ele><time>2026-04-03T12:07:46.132Z</time></trkpt><trkpt lat="44.5429043" lon="8.7725451"><ele>799.0</ele><time>2026-04-03T12:07:47.163Z</time></trkpt><trkpt lat="44.5429546" lon="8.7724543"><ele>799.0</ele><time>2026-04-03T12:07:48.16Z</time></trkpt><trkpt lat="44.5430476" lon="8.7724301"><ele>799.0</ele><time>2026-04-03T12:07:49.164Z</time></trkpt><trkpt lat="44.5431054" lon="8.7723692"><ele>798.9999999999999</ele><time>2026-04-03T12:07:50.109Z</time></trkpt><trkpt lat="44.5431972" lon="8.772358"><ele>799.0</ele><time>2026-04-03T12:07:51.101Z</time></trkpt><trkpt lat="44.5432714" lon="8.7723574"><ele>798.9999999999999</ele><time>2026-04-03T12:07:52.167Z</time></trkpt><trkpt lat="44.5433509" lon="8.7723404"><ele>799.0</ele><time>2026-04-03T12:07:53.183Z</time></trkpt><trkpt lat="44.5434298" lon="8.7722973"><ele>799.0</ele><time>2026-04-03T12:07:54.106Z</time></trkpt><trkpt lat="44.5434895" lon="8.7722249"><ele>799.0</ele><time>2026-04-03T12:07:55.11Z</time></trkpt><trkpt lat="44.5435415" lon="8.7721459"><ele>798.9999999999999</ele><time>2026-04-03T12:07:56.106Z</time></trkpt><trkpt lat="44.5435761" lon="8.7720419"><ele>799.0</ele><time>2026-04-03T12:07:57.16Z</time></trkpt><trkpt lat="44.5436328" lon="8.771937"><ele>797.2</ele><time>2026-04-03T12:07:58.174Z</time></trkpt><trkpt lat="44.5437028" lon="8.7718457"><ele>795.4000000000001</ele><time>2026-04-03T12:07:59.113Z</time></trkpt><trkpt lat="44.5438085" lon="8.7717754"><ele>793.6</ele><time>2026-04-03T12:08:00.113Z</time></trkpt><trkpt lat="44.5438878" lon="8.7717151"><ele>791.8</ele><time>2026-04-03T12:08:01.113Z</time></trkpt><trkpt lat="44.5440011" lon="8.7716672"><ele>790.0</ele><time>2026-04-03T12:08:02.144Z</time></trkpt><trkpt lat="44.5441055" lon="8.771608"><ele>788.8</ele><time>2026-04-03T12:08:03.154Z</time></trkpt><trkpt lat="44.5442096" lon="8.771565"><ele>787.6</ele><time>2026-04-03T12:08:04.103Z</time></trkpt><trkpt lat="44.5443236" lon="8.771522"><ele>786.4000000000001</ele><time>2026-04-03T12:08:05.103Z</time></trkpt><trkpt lat="44.5444333" lon="8.7714911"><ele>785.2</ele><time>2026-04-03T12:08:06.111Z</time></trkpt><trkpt lat="44.5445266" lon="8.7714598"><ele>784.0</ele><time>2026-04-03T12:08:07.16Z</time></trkpt><trkpt lat="44.5446289" lon="8.7714494"><ele>783.0</ele><time>2026-04-03T12:08:08.175Z</time></trkpt><trkpt lat="44.5448241" lon="8.7714764"><ele>782.0</ele><time>2026-04-03T12:08:10.105Z</time></trkpt><trkpt lat="44.544917" lon="8.7715101"><ele>781.0</ele><time>2026-04-03T12:08:11.104Z</time></trkpt><trkpt lat="44.5449989" lon="8.7715665"><ele>780.0</ele><time>2026-04-03T12:08:12.129Z</time></trkpt><trkpt lat="44.5451694" lon="8.771652"><ele>780.0</ele><time>2026-04-03T12:08:14.146Z</time></trkpt><trkpt lat="44.5452605" lon="8.7716868"><ele>780.0</ele><time>2026-04-03T12:08:15.101Z</time></trkpt><trkpt lat="44.5453545" lon="8.7717037"><ele>780.0</ele><time>2026-04-03T12:08:16.104Z</time></trkpt><trkpt lat="44.545446" lon="8.7717247"><ele>780.0</ele><time>2026-04-03T12:08:17.145Z</time></trkpt><trkpt lat="44.545539" lon="8.771734"><ele>780.0</ele><time>2026-04-03T12:08:18.184Z</time></trkpt><trkpt lat="44.5456308" lon="8.7717269"><ele>778.0</ele><time>2026-04-03T12:08:19.17Z</time></trkpt><trkpt lat="44.545732" lon="8.7716931"><ele>776.0</ele><time>2026-04-03T12:08:20.103Z</time></trkpt><trkpt lat="44.5458203" lon="8.7716726"><ele>774.0</ele><time>2026-04-03T12:08:21.104Z</time></trkpt><trkpt lat="44.5459092" lon="8.77167"><ele>772.0</ele><time>2026-04-03T12:08:22.192Z</time></trkpt><trkpt lat="44.5460007" lon="8.7716846"><ele>770.0</ele><time>2026-04-03T12:08:23.15Z</time></trkpt><trkpt lat="44.5460826" lon="8.7717195"><ele>768.8</ele><time>2026-04-03T12:08:24.149Z</time></trkpt><trkpt lat="44.5462382" lon="8.771833"><ele>767.6</ele><time>2026-04-03T12:08:26.107Z</time></trkpt><trkpt lat="44.5463036" lon="8.7718881"><ele>766.4000000000001</ele><time>2026-04-03T12:08:27.199Z</time></trkpt><trkpt lat="44.5463701" lon="8.7719285"><ele>765.2</ele><time>2026-04-03T12:08:28.193Z</time></trkpt><trkpt lat="44.5464472" lon="8.7719937"><ele>764.0</ele><time>2026-04-03T12:08:29.164Z</time></trkpt><trkpt lat="44.5465215" lon="8.772048"><ele>767.75</ele><time>2026-04-03T12:08:30.109Z</time></trkpt><trkpt lat="44.5465922" lon="8.7720932"><ele>771.5</ele><time>2026-04-03T12:08:31.104Z</time></trkpt><trkpt lat="44.5466597" lon="8.7721288"><ele>775.25</ele><time>2026-04-03T12:08:32.202Z</time></trkpt><trkpt lat="44.5467874" lon="8.772176"><ele>779.0</ele><time>2026-04-03T12:08:33.144Z</time></trkpt><trkpt lat="44.5470692" lon="8.772236"><ele>779.0</ele><time>2026-04-03T12:08:35.102Z</time></trkpt><trkpt lat="44.5471649" lon="8.7723046"><ele>779.0</ele><time>2026-04-03T12:08:36.155Z</time></trkpt><trkpt lat="44.547322" lon="8.7723858"><ele>779.0</ele><time>2026-04-03T12:08:38.108Z</time></trkpt><trkpt lat="44.5474" lon="8.77241"><ele>779.0</ele><time>2026-04-03T12:08:39.105Z</time></trkpt><trkpt lat="44.5475069" lon="8.772438"><ele>779.0000000000001</ele><time>2026-04-03T12:08:40.106Z</time></trkpt><trkpt lat="44.5475972" lon="8.7724571"><ele>779.0</ele><time>2026-04-03T12:08:41.154Z</time></trkpt><trkpt lat="44.5476662" lon="8.7724232"><ele>779.0</ele><time>2026-04-03T12:08:42.104Z</time></trkpt><trkpt lat="44.5477605" lon="8.7723958"><ele>779.0</ele><time>2026-04-03T12:08:43.152Z</time></trkpt><trkpt lat="44.5478502" lon="8.7723738"><ele>779.0000000000001</ele><time>2026-04-03T12:08:44.168Z</time></trkpt><trkpt lat="44.5479424" lon="8.7723392"><ele>779.0</ele><time>2026-04-03T12:08:45.102Z</time></trkpt><trkpt lat="44.5480345" lon="8.7723283"><ele>778.4000000000001</ele><time>2026-04-03T12:08:46.1Z</time></trkpt><trkpt lat="44.5481281" lon="8.7723405"><ele>777.8</ele><time>2026-04-03T12:08:47.164Z</time></trkpt><trkpt lat="44.5482089" lon="8.7723391"><ele>777.2</ele><time>2026-04-03T12:08:48.166Z</time></trkpt><trkpt lat="44.5483087" lon="8.7723349"><ele>776.5999999999999</ele><time>2026-04-03T12:08:49.139Z</time></trkpt><trkpt lat="44.5484092" lon="8.77236"><ele>776.0</ele><time>2026-04-03T12:08:50.107Z</time></trkpt><trkpt lat="44.5485095" lon="8.7723862"><ele>776.0</ele><time>2026-04-03T12:08:51.101Z</time></trkpt><trkpt lat="44.5486257" lon="8.772408"><ele>776.0</ele><time>2026-04-03T12:08:52.192Z</time></trkpt><trkpt lat="44.5487317" lon="8.7724154"><ele>776.0</ele><time>2026-04-03T12:08:52.999Z</time></trkpt><trkpt lat="44.5488255" lon="8.7724305"><ele>776.0</ele><time>2026-04-03T12:08:54.19Z</time></trkpt><trkpt lat="44.5489137" lon="8.7724778"><ele>776.0</ele><time>2026-04-03T12:08:55.102Z</time></trkpt><trkpt lat="44.5490114" lon="8.7724861"><ele>775.1666666666667</ele><time>2026-04-03T12:08:56.106Z</time></trkpt><trkpt lat="44.5490946" lon="8.7724698"><ele>774.3333333333334</ele><time>2026-04-03T12:08:57.159Z</time></trkpt><trkpt lat="44.5491719" lon="8.7724708"><ele>773.5</ele><time>2026-04-03T12:08:58.156Z</time></trkpt><trkpt lat="44.549253" lon="8.7724941"><ele>772.6666666666667</ele><time>2026-04-03T12:08:59.126Z</time></trkpt><trkpt lat="44.5493549" lon="8.7724975"><ele>771.8333333333334</ele><time>2026-04-03T12:09:00.102Z</time></trkpt><trkpt lat="44.5494407" lon="8.772513"><ele>771.0</ele><time>2026-04-03T12:09:01.105Z</time></trkpt><trkpt lat="44.5495188" lon="8.7725397"><ele>771.5</ele><time>2026-04-03T12:09:02.134Z</time></trkpt><trkpt lat="44.5496063" lon="8.7725589"><ele>772.0</ele><time>2026-04-03T12:09:03.145Z</time></trkpt><trkpt lat="44.5496909" lon="8.7725751"><ele>772.5</ele><time>2026-04-03T12:09:04.15Z</time></trkpt><trkpt lat="44.5497272" lon="8.7727005"><ele>773.0</ele><time>2026-04-03T12:09:05.106Z</time></trkpt><trkpt lat="44.5497902" lon="8.7727857"><ele>773.5</ele><time>2026-04-03T12:09:06.102Z</time></trkpt><trkpt lat="44.5498269" lon="8.7728946"><ele>774.0</ele><time>2026-04-03T12:09:07.177Z</time></trkpt><trkpt lat="44.5499335" lon="8.7730132"><ele>774.0</ele><time>2026-04-03T12:09:09.102Z</time></trkpt><trkpt lat="44.5499996" lon="8.7730286"><ele>774.0</ele><time>2026-04-03T12:09:10.108Z</time></trkpt><trkpt lat="44.5501009" lon="8.7730657"><ele>774.0</ele><time>2026-04-03T12:09:12.114Z</time></trkpt><trkpt lat="44.5502852" lon="8.7730544"><ele>774.0</ele><time>2026-04-03T12:09:14.103Z</time></trkpt><trkpt lat="44.5503796" lon="8.7730549"><ele>770.5</ele><time>2026-04-03T12:09:15.101Z</time></trkpt><trkpt lat="44.5505615" lon="8.7731114"><ele>767.0</ele><time>2026-04-03T12:09:17.101Z</time></trkpt><trkpt lat="44.5506326" lon="8.7731918"><ele>763.5</ele><time>2026-04-03T12:09:18.143Z</time></trkpt><trkpt lat="44.5507066" lon="8.77326"><ele>760.0</ele><time>2026-04-03T12:09:19.105Z</time></trkpt><trkpt lat="44.5507724" lon="8.7733328"><ele>760.0</ele><time>2026-04-03T12:09:20.108Z</time></trkpt><trkpt lat="44.5508162" lon="8.7734309"><ele>760.0</ele><time>2026-04-03T12:09:21.109Z</time></trkpt><trkpt lat="44.5508504" lon="8.7735238"><ele>760.0</ele><time>2026-04-03T12:09:22.106Z</time></trkpt><trkpt lat="44.5509284" lon="8.7736942"><ele>760.0</ele><time>2026-04-03T12:09:24.103Z</time></trkpt><trkpt lat="44.5509748" lon="8.7737666"><ele>760.0</ele><time>2026-04-03T12:09:25.101Z</time></trkpt><trkpt lat="44.5510283" lon="8.7738247"><ele>760.0</ele><time>2026-04-03T12:09:26.103Z</time></trkpt><trkpt lat="44.5511058" lon="8.7738418"><ele>761.0</ele><time>2026-04-03T12:09:27.102Z</time></trkpt><trkpt lat="44.5511729" lon="8.7738914"><ele>762.0</ele><time>2026-04-03T12:09:28.103Z</time></trkpt><trkpt lat="44.5512391" lon="8.7739594"><ele>763.0</ele><time>2026-04-03T12:09:29.105Z</time></trkpt><trkpt lat="44.5513063" lon="8.7739238"><ele>764.0</ele><time>2026-04-03T12:09:30.104Z</time></trkpt><trkpt lat="44.5513995" lon="8.773889"><ele>765.0</ele><time>2026-04-03T12:09:32.1Z</time></trkpt><trkpt lat="44.5515433" lon="8.7738431"><ele>765.0</ele><time>2026-04-03T12:09:33.101Z</time></trkpt><trkpt lat="44.5516236" lon="8.7737973"><ele>765.0</ele><time>2026-04-03T12:09:34.102Z</time></trkpt><trkpt lat="44.5517063" lon="8.7737128"><ele>765.0</ele><time>2026-04-03T12:09:35.111Z</time></trkpt><trkpt lat="44.5517932" lon="8.773656"><ele>765.0</ele><time>2026-04-03T12:09:36.112Z</time></trkpt><trkpt lat="44.5518731" lon="8.7736191"><ele>765.0</ele><time>2026-04-03T12:09:37.108Z</time></trkpt><trkpt lat="44.551959" lon="8.7735539"><ele>763.0</ele><time>2026-04-03T12:09:38.141Z</time></trkpt><trkpt lat="44.5520491" lon="8.7734864"><ele>761.0</ele><time>2026-04-03T12:09:39.168Z</time></trkpt><trkpt lat="44.5521326" lon="8.7734322"><ele>759.0</ele><time>2026-04-03T12:09:40.107Z</time></trkpt><trkpt lat="44.5522132" lon="8.7733651"><ele>757.0</ele><time>2026-04-03T12:09:41.101Z</time></trkpt><trkpt lat="44.5523033" lon="8.7733115"><ele>755.0</ele><time>2026-04-03T12:09:42.194Z</time></trkpt><trkpt lat="44.5525177" lon="8.7732594"><ele>755.0</ele><time>2026-04-03T12:09:44.104Z</time></trkpt><trkpt lat="44.5527075" lon="8.7732633"><ele>755.0</ele><time>2026-04-03T12:09:46.101Z</time></trkpt><trkpt lat="44.5527909" lon="8.7732744"><ele>755.0</ele><time>2026-04-03T12:09:47.199Z</time></trkpt><trkpt lat="44.5528919" lon="8.7732664"><ele>755.0</ele><time>2026-04-03T12:09:48.179Z</time></trkpt><trkpt lat="44.5529919" lon="8.7732545"><ele>755.75</ele><time>2026-04-03T12:09:49.203Z</time></trkpt><trkpt lat="44.5531819" lon="8.7732408"><ele>756.5</ele><time>2026-04-03T12:09:51.111Z</time></trkpt><trkpt lat="44.5532486" lon="8.7732188"><ele>757.25</ele><time>2026-04-03T12:09:52.163Z</time></trkpt><trkpt lat="44.5533342" lon="8.7731275"><ele>758.0</ele><time>2026-04-03T12:09:54.181Z</time></trkpt><trkpt lat="44.5534233" lon="8.7729764"><ele>758.0</ele><time>2026-04-03T12:09:56.115Z</time></trkpt><trkpt lat="44.5534734" lon="8.7728863"><ele>758.0</ele><time>2026-04-03T12:09:57.204Z</time></trkpt><trkpt lat="44.5535315" lon="8.7727817"><ele>758.0</ele><time>2026-04-03T12:09:58.133Z</time></trkpt><trkpt lat="44.5535924" lon="8.7726937"><ele>758.0</ele><time>2026-04-03T12:09:59.184Z</time></trkpt><trkpt lat="44.5537306" lon="8.7725646"><ele>758.0</ele><time>2026-04-03T12:10:01.105Z</time></trkpt><trkpt lat="44.5537897" lon="8.7724845"><ele>758.0</ele><time>2026-04-03T12:10:02.195Z</time></trkpt><trkpt lat="44.553904" lon="8.7723435"><ele>758.0</ele><time>2026-04-03T12:10:03.999Z</time></trkpt><trkpt lat="44.5539468" lon="8.7722135"><ele>758.0</ele><time>2026-04-03T12:10:05Z</time></trkpt><trkpt lat="44.5539896" lon="8.7721093"><ele>758.0</ele><time>2026-04-03T12:10:06.1Z</time></trkpt><trkpt lat="44.5540152" lon="8.7719927"><ele>758.0</ele><time>2026-04-03T12:10:07.112Z</time></trkpt><trkpt lat="44.5540578" lon="8.7717695"><ele>758.0</ele><time>2026-04-03T12:10:08.999Z</time></trkpt><trkpt lat="44.5540768" lon="8.7716568"><ele>758.0</ele><time>2026-04-03T12:10:10.105Z</time></trkpt><trkpt lat="44.5541118" lon="8.77155"><ele>758.0</ele><time>2026-04-03T12:10:11.143Z</time></trkpt><trkpt lat="44.5541855" lon="8.7714489"><ele>758.0</ele><time>2026-04-03T12:10:12.188Z</time></trkpt><trkpt lat="44.5543492" lon="8.7712985"><ele>758.0</ele><time>2026-04-03T12:10:14.103Z</time></trkpt><trkpt lat="44.5544758" lon="8.7711635"><ele>758.0</ele><time>2026-04-03T12:10:16.101Z</time></trkpt><trkpt lat="44.5545468" lon="8.7710955"><ele>758.0</ele><time>2026-04-03T12:10:17.112Z</time></trkpt><trkpt lat="44.5546298" lon="8.7710532"><ele>758.0</ele><time>2026-04-03T12:10:18.153Z</time></trkpt><trkpt lat="44.5547184" lon="8.7710295"><ele>758.0</ele><time>2026-04-03T12:10:19.125Z</time></trkpt><trkpt lat="44.5548069" lon="8.7710202"><ele>758.8333333333333</ele><time>2026-04-03T12:10:20.104Z</time></trkpt><trkpt lat="44.5548818" lon="8.771012"><ele>759.6666666666666</ele><time>2026-04-03T12:10:21.106Z</time></trkpt><trkpt lat="44.554952" lon="8.7709989"><ele>760.5</ele><time>2026-04-03T12:10:22.163Z</time></trkpt><trkpt lat="44.5550389" lon="8.7710102"><ele>761.3333333333334</ele><time>2026-04-03T12:10:23.105Z</time></trkpt><trkpt lat="44.5551327" lon="8.7710486"><ele>762.1666666666667</ele><time>2026-04-03T12:10:24.104Z</time></trkpt><trkpt lat="44.5552053" lon="8.771076"><ele>763.0</ele><time>2026-04-03T12:10:25.104Z</time></trkpt><trkpt lat="44.5552944" lon="8.7711507"><ele>763.6666666666667</ele><time>2026-04-03T12:10:26.109Z</time></trkpt><trkpt lat="44.555373" lon="8.771221"><ele>764.3333333333334</ele><time>2026-04-03T12:10:27.174Z</time></trkpt><trkpt lat="44.5554267" lon="8.7712837"><ele>765.0</ele><time>2026-04-03T12:10:28.141Z</time></trkpt><trkpt lat="44.5554671" lon="8.7713984"><ele>765.6666666666666</ele><time>2026-04-03T12:10:29.139Z</time></trkpt><trkpt lat="44.5555041" lon="8.7715305"><ele>766.3333333333333</ele><time>2026-04-03T12:10:30.104Z</time></trkpt><trkpt lat="44.5555327" lon="8.7716466"><ele>767.0</ele><time>2026-04-03T12:10:31.103Z</time></trkpt><trkpt lat="44.5555631" lon="8.7717631"><ele>767.0</ele><time>2026-04-03T12:10:32.137Z</time></trkpt><trkpt lat="44.5556065" lon="8.7718489"><ele>767.0</ele><time>2026-04-03T12:10:33.102Z</time></trkpt><trkpt lat="44.5556488" lon="8.7719835"><ele>767.0</ele><time>2026-04-03T12:10:34.123Z</time></trkpt><trkpt lat="44.5557582" lon="8.772199"><ele>767.0</ele><time>2026-04-03T12:10:36.109Z</time></trkpt><trkpt lat="44.5558154" lon="8.7723075"><ele>770.5</ele><time>2026-04-03T12:10:37.141Z</time></trkpt><trkpt lat="44.5558842" lon="8.7724021"><ele>774.0</ele><time>2026-04-03T12:10:38.144Z</time></trkpt><trkpt lat="44.5559274" lon="8.7724871"><ele>777.5</ele><time>2026-04-03T12:10:39.166Z</time></trkpt><trkpt lat="44.5560565" lon="8.7727061"><ele>781.0</ele><time>2026-04-03T12:10:41.14Z</time></trkpt><trkpt lat="44.5561271" lon="8.7728138"><ele>781.1666666666666</ele><time>2026-04-03T12:10:42.149Z</time></trkpt><trkpt lat="44.5561814" lon="8.7729228"><ele>781.3333333333333</ele><time>2026-04-03T12:10:43.148Z</time></trkpt><trkpt lat="44.556228" lon="8.7730213"><ele>781.5</ele><time>2026-04-03T12:10:44.131Z</time></trkpt><trkpt lat="44.5562891" lon="8.7731157"><ele>781.6666666666667</ele><time>2026-04-03T12:10:45.102Z</time></trkpt><trkpt lat="44.556325" lon="8.7732053"><ele>781.8333333333334</ele><time>2026-04-03T12:10:46.103Z</time></trkpt><trkpt lat="44.5563667" lon="8.7732992"><ele>782.0</ele><time>2026-04-03T12:10:47.103Z</time></trkpt><trkpt lat="44.5564107" lon="8.7734032"><ele>782.0</ele><time>2026-04-03T12:10:48.105Z</time></trkpt><trkpt lat="44.5564523" lon="8.7734777"><ele>782.0</ele><time>2026-04-03T12:10:49.201Z</time></trkpt><trkpt lat="44.5565232" lon="8.7736465"><ele>782.0</ele><time>2026-04-03T12:10:51.103Z</time></trkpt><trkpt lat="44.5566691" lon="8.7736969"><ele>782.0</ele><time>2026-04-03T12:10:53.152Z</time></trkpt><trkpt lat="44.5568792" lon="8.7737519"><ele>782.2</ele><time>2026-04-03T12:10:54.999Z</time></trkpt><trkpt lat="44.556978" lon="8.7737537"><ele>782.4000000000001</ele><time>2026-04-03T12:10:55.999Z</time></trkpt><trkpt lat="44.5570898" lon="8.7737702"><ele>782.5999999999999</ele><time>2026-04-03T12:10:56.999Z</time></trkpt><trkpt lat="44.5571772" lon="8.7737927"><ele>782.8</ele><time>2026-04-03T12:10:57.999Z</time></trkpt><trkpt lat="44.5572633" lon="8.7738363"><ele>783.0</ele><time>2026-04-03T12:10:59.109Z</time></trkpt><trkpt lat="44.5574586" lon="8.7739169"><ele>783.0</ele><time>2026-04-03T12:11:01.155Z</time></trkpt><trkpt lat="44.557559" lon="8.7739518"><ele>783.0</ele><time>2026-04-03T12:11:02.195Z</time></trkpt><trkpt lat="44.557667" lon="8.773968"><ele>783.0</ele><time>2026-04-03T12:11:03.142Z</time></trkpt><trkpt lat="44.5578607" lon="8.7739576"><ele>783.0</ele><time>2026-04-03T12:11:05.111Z</time></trkpt><trkpt lat="44.5579628" lon="8.7739243"><ele>783.2</ele><time>2026-04-03T12:11:06.105Z</time></trkpt><trkpt lat="44.5580487" lon="8.7739154"><ele>783.4</ele><time>2026-04-03T12:11:07.153Z</time></trkpt><trkpt lat="44.5581434" lon="8.7738918"><ele>783.6</ele><time>2026-04-03T12:11:08.198Z</time></trkpt><trkpt lat="44.5582414" lon="8.7738946"><ele>783.8000000000001</ele><time>2026-04-03T12:11:09.183Z</time></trkpt><trkpt lat="44.5583574" lon="8.7739197"><ele>784.0</ele><time>2026-04-03T12:11:10.103Z</time></trkpt><trkpt lat="44.5584319" lon="8.7739541"><ele>784.0</ele><time>2026-04-03T12:11:11.107Z</time></trkpt><trkpt lat="44.558508" lon="8.7739746"><ele>784.0</ele><time>2026-04-03T12:11:12.193Z</time></trkpt><trkpt lat="44.5585765" lon="8.7739497"><ele>784.0</ele><time>2026-04-03T12:11:13.176Z</time></trkpt><trkpt lat="44.5587576" lon="8.7738597"><ele>784.0</ele><time>2026-04-03T12:11:15.101Z</time></trkpt><trkpt lat="44.5588565" lon="8.7737877"><ele>784.2</ele><time>2026-04-03T12:11:16.101Z</time></trkpt><trkpt lat="44.5589441" lon="8.7737316"><ele>784.4000000000001</ele><time>2026-04-03T12:11:17.169Z</time></trkpt><trkpt lat="44.5590312" lon="8.7736784"><ele>784.6</ele><time>2026-04-03T12:11:18.19Z</time></trkpt><trkpt lat="44.5591164" lon="8.7736087"><ele>784.8</ele><time>2026-04-03T12:11:19.165Z</time></trkpt><trkpt lat="44.5592122" lon="8.7735645"><ele>785.0</ele><time>2026-04-03T12:11:20.102Z</time></trkpt><trkpt lat="44.5593071" lon="8.7735135"><ele>783.2</ele><time>2026-04-03T12:11:21.107Z</time></trkpt><trkpt lat="44.5594669" lon="8.7734505"><ele>781.4</ele><time>2026-04-03T12:11:23.112Z</time></trkpt><trkpt lat="44.5595532" lon="8.7734453"><ele>779.5999999999999</ele><time>2026-04-03T12:11:24.146Z</time></trkpt><trkpt lat="44.5596505" lon="8.7734315"><ele>777.8</ele><time>2026-04-03T12:11:25.104Z</time></trkpt><trkpt lat="44.5597429" lon="8.7734279"><ele>776.0</ele><time>2026-04-03T12:11:26.109Z</time></trkpt><trkpt lat="44.5598213" lon="8.773427"><ele>775.6666666666667</ele><time>2026-04-03T12:11:27.135Z</time></trkpt><trkpt lat="44.5599046" lon="8.7734253"><ele>775.3333333333334</ele><time>2026-04-03T12:11:28.138Z</time></trkpt><trkpt lat="44.5599954" lon="8.7734294"><ele>775.0</ele><time>2026-04-03T12:11:29.165Z</time></trkpt><trkpt lat="44.5600626" lon="8.7734382"><ele>774.6666666666667</ele><time>2026-04-03T12:11:30.102Z</time></trkpt><trkpt lat="44.5601466" lon="8.7734198"><ele>774.3333333333334</ele><time>2026-04-03T12:11:31.153Z</time></trkpt><trkpt lat="44.5602161" lon="8.7734126"><ele>774.0</ele><time>2026-04-03T12:11:32.165Z</time></trkpt><trkpt lat="44.5602926" lon="8.7733837"><ele>770.4000000000001</ele><time>2026-04-03T12:11:33.168Z</time></trkpt><trkpt lat="44.5603691" lon="8.7733503"><ele>766.8</ele><time>2026-04-03T12:11:34.152Z</time></trkpt><trkpt lat="44.5605178" lon="8.7732529"><ele>763.2</ele><time>2026-04-03T12:11:36Z</time></trkpt><trkpt lat="44.5605885" lon="8.7732001"><ele>759.5999999999999</ele><time>2026-04-03T12:11:37.184Z</time></trkpt><trkpt lat="44.5606691" lon="8.7731441"><ele>756.0</ele><time>2026-04-03T12:11:38.165Z</time></trkpt><trkpt lat="44.560755" lon="8.7729512"><ele>756.0</ele><time>2026-04-03T12:11:39.999Z</time></trkpt><trkpt lat="44.5608172" lon="8.7728405"><ele>756.0</ele><time>2026-04-03T12:11:41.101Z</time></trkpt><trkpt lat="44.5609064" lon="8.7726204"><ele>756.0</ele><time>2026-04-03T12:11:43.104Z</time></trkpt><trkpt lat="44.5609633" lon="8.772517"><ele>756.0</ele><time>2026-04-03T12:11:44.103Z</time></trkpt><trkpt lat="44.5610331" lon="8.7723868"><ele>754.0</ele><time>2026-04-03T12:11:46.103Z</time></trkpt><trkpt lat="44.5612349" lon="8.7723277"><ele>752.0</ele><time>2026-04-03T12:11:48.999Z</time></trkpt><trkpt lat="44.5612948" lon="8.7723005"><ele>750.0</ele><time>2026-04-03T12:11:49.999Z</time></trkpt><trkpt lat="44.5615106" lon="8.7721949"><ele>750.0</ele><time>2026-04-03T12:11:53.101Z</time></trkpt><trkpt lat="44.561592" lon="8.7721452"><ele>750.0</ele><time>2026-04-03T12:11:54.102Z</time></trkpt><trkpt lat="44.5618219" lon="8.7720165"><ele>750.0</ele><time>2026-04-03T12:11:55.999Z</time></trkpt><trkpt lat="44.5619068" lon="8.7719533"><ele>750.0</ele><time>2026-04-03T12:11:57Z</time></trkpt><trkpt lat="44.5619555" lon="8.7718964"><ele>748.6</ele><time>2026-04-03T12:11:57.999Z</time></trkpt><trkpt lat="44.5620251" lon="8.7718315"><ele>747.2</ele><time>2026-04-03T12:11:58.999Z</time></trkpt><trkpt lat="44.5620991" lon="8.7718495"><ele>745.8</ele><time>2026-04-03T12:11:59.999Z</time></trkpt><trkpt lat="44.5622007" lon="8.7719057"><ele>744.4</ele><time>2026-04-03T12:12:02.102Z</time></trkpt><trkpt lat="44.5622668" lon="8.7720939"><ele>743.0</ele><time>2026-04-03T12:12:04.1Z</time></trkpt><trkpt lat="44.5623051" lon="8.7721935"><ele>743.0</ele><time>2026-04-03T12:12:05.101Z</time></trkpt><trkpt lat="44.5623379" lon="8.7722919"><ele>743.0</ele><time>2026-04-03T12:12:06.101Z</time></trkpt><trkpt lat="44.5624031" lon="8.7725132"><ele>743.0</ele><time>2026-04-03T12:12:07.999Z</time></trkpt><trkpt lat="44.5624584" lon="8.7726009"><ele>743.0</ele><time>2026-04-03T12:12:08.999Z</time></trkpt><trkpt lat="44.562519" lon="8.7727098"><ele>743.0</ele><time>2026-04-03T12:12:09.999Z</time></trkpt><trkpt lat="44.5625803" lon="8.7728229"><ele>742.25</ele><time>2026-04-03T12:12:11.102Z</time></trkpt><trkpt lat="44.5626392" lon="8.772928"><ele>741.5</ele><time>2026-04-03T12:12:12.107Z</time></trkpt><trkpt lat="44.5627188" lon="8.7730007"><ele>740.75</ele><time>2026-04-03T12:12:13.103Z</time></trkpt><trkpt lat="44.5628453" lon="8.773218"><ele>740.0</ele><time>2026-04-03T12:12:15.104Z</time></trkpt><trkpt lat="44.5629699" lon="8.7734249"><ele>740.0</ele><time>2026-04-03T12:12:16.999Z</time></trkpt><trkpt lat="44.5630194" lon="8.7735156"><ele>740.0</ele><time>2026-04-03T12:12:18.102Z</time></trkpt><trkpt lat="44.5631063" lon="8.7737875"><ele>740.0</ele><time>2026-04-03T12:12:19.999Z</time></trkpt><trkpt lat="44.5631301" lon="8.7739092"><ele>740.0</ele><time>2026-04-03T12:12:21.115Z</time></trkpt><trkpt lat="44.5631674" lon="8.7740305"><ele>737.6</ele><time>2026-04-03T12:12:22.144Z</time></trkpt><trkpt lat="44.5632116" lon="8.774148"><ele>735.2</ele><time>2026-04-03T12:12:23.157Z</time></trkpt><trkpt lat="44.5632721" lon="8.774231"><ele>732.8</ele><time>2026-04-03T12:12:24.162Z</time></trkpt><trkpt lat="44.5633901" lon="8.7743777"><ele>730.4</ele><time>2026-04-03T12:12:25.999Z</time></trkpt><trkpt lat="44.5634405" lon="8.7744402"><ele>728.0</ele><time>2026-04-03T12:12:27.104Z</time></trkpt><trkpt lat="44.563544" lon="8.7744944"><ele>728.5</ele><time>2026-04-03T12:12:28.999Z</time></trkpt><trkpt lat="44.5636161" lon="8.7744883"><ele>729.0</ele><time>2026-04-03T12:12:29.999Z</time></trkpt><trkpt lat="44.5636831" lon="8.7744221"><ele>729.5</ele><time>2026-04-03T12:12:30.999Z</time></trkpt><trkpt lat="44.5637492" lon="8.7743986"><ele>730.0</ele><time>2026-04-03T12:12:31.999Z</time></trkpt><trkpt lat="44.5638145" lon="8.7743409"><ele>730.5</ele><time>2026-04-03T12:12:33Z</time></trkpt><trkpt lat="44.5638777" lon="8.7743157"><ele>731.0</ele><time>2026-04-03T12:12:33.999Z</time></trkpt><trkpt lat="44.5639659" lon="8.7743048"><ele>728.5</ele><time>2026-04-03T12:12:35.999Z</time></trkpt><trkpt lat="44.5639966" lon="8.7744096"><ele>726.0</ele><time>2026-04-03T12:12:37.103Z</time></trkpt><trkpt lat="44.5640214" lon="8.7745264"><ele>723.5</ele><time>2026-04-03T12:12:38.999Z</time></trkpt><trkpt lat="44.5640046" lon="8.7748616"><ele>721.0</ele><time>2026-04-03T12:12:42.999Z</time></trkpt><trkpt lat="44.5639833" lon="8.7750148"><ele>718.5</ele><time>2026-04-03T12:12:44.102Z</time></trkpt><trkpt lat="44.5639793" lon="8.7752983"><ele>716.0</ele><time>2026-04-03T12:12:46.105Z</time></trkpt><trkpt lat="44.5640641" lon="8.775458"><ele>713.5</ele><time>2026-04-03T12:12:48Z</time></trkpt><trkpt lat="44.564122" lon="8.7755202"><ele>711.0</ele><time>2026-04-03T12:12:48.999Z</time></trkpt><trkpt lat="44.5641813" lon="8.7755953"><ele>711.0</ele><time>2026-04-03T12:12:49.999Z</time></trkpt><trkpt lat="44.5642448" lon="8.7756463"><ele>711.0</ele><time>2026-04-03T12:12:51Z</time></trkpt><trkpt lat="44.5643114" lon="8.7757097"><ele>711.0</ele><time>2026-04-03T12:12:52.102Z</time></trkpt><trkpt lat="44.5644312" lon="8.7758201"><ele>711.0</ele><time>2026-04-03T12:12:53.999Z</time></trkpt><trkpt lat="44.5644852" lon="8.7759859"><ele>711.0</ele><time>2026-04-03T12:12:56.101Z</time></trkpt><trkpt lat="44.5645183" lon="8.7761711"><ele>711.1666666666666</ele><time>2026-04-03T12:12:58Z</time></trkpt><trkpt lat="44.5645326" lon="8.7762702"><ele>711.3333333333334</ele><time>2026-04-03T12:12:58.999Z</time></trkpt><trkpt lat="44.5645474" lon="8.7763733"><ele>711.5</ele><time>2026-04-03T12:12:59.999Z</time></trkpt><trkpt lat="44.5645663" lon="8.7764816"><ele>711.6666666666667</ele><time>2026-04-03T12:13:00.999Z</time></trkpt><trkpt lat="44.5645917" lon="8.7765837"><ele>711.8333333333334</ele><time>2026-04-03T12:13:01.999Z</time></trkpt><trkpt lat="44.5646172" lon="8.7766888"><ele>712.0</ele><time>2026-04-03T12:13:03Z</time></trkpt><trkpt lat="44.5646448" lon="8.7767814"><ele>708.75</ele><time>2026-04-03T12:13:03.999Z</time></trkpt><trkpt lat="44.5646887" lon="8.7769538"><ele>705.5</ele><time>2026-04-03T12:13:05.999Z</time></trkpt><trkpt lat="44.5647181" lon="8.777119"><ele>702.25</ele><time>2026-04-03T12:13:08.105Z</time></trkpt><trkpt lat="44.5647491" lon="8.7772912"><ele>699.0</ele><time>2026-04-03T12:13:10Z</time></trkpt><trkpt lat="44.5647512" lon="8.777482"><ele>699.0</ele><time>2026-04-03T12:13:12.999Z</time></trkpt><trkpt lat="44.5647151" lon="8.7776204"><ele>699.0</ele><time>2026-04-03T12:13:14.999Z</time></trkpt><trkpt lat="44.5646783" lon="8.7778187"><ele>699.0</ele><time>2026-04-03T12:13:17.999Z</time></trkpt><trkpt lat="44.5646826" lon="8.7779631"><ele>699.0</ele><time>2026-04-03T12:13:19.999Z</time></trkpt><trkpt lat="44.5647" lon="8.7780502"><ele>699.0</ele><time>2026-04-03T12:13:20.999Z</time></trkpt><trkpt lat="44.5647574" lon="8.7781931"><ele>696.25</ele><time>2026-04-03T12:13:23.101Z</time></trkpt><trkpt lat="44.564878" lon="8.7783492"><ele>693.5</ele><time>2026-04-03T12:13:25.999Z</time></trkpt><trkpt lat="44.5649886" lon="8.7784028"><ele>690.75</ele><time>2026-04-03T12:13:28.102Z</time></trkpt><trkpt lat="44.565121" lon="8.7783805"><ele>688.0</ele><time>2026-04-03T12:13:30.102Z</time></trkpt><trkpt lat="44.5652969" lon="8.778374"><ele>688.1666666666667</ele><time>2026-04-03T12:13:32.999Z</time></trkpt><trkpt lat="44.5653701" lon="8.7783803"><ele>688.3333333333334</ele><time>2026-04-03T12:13:34.135Z</time></trkpt><trkpt lat="44.5654333" lon="8.77838"><ele>688.5</ele><time>2026-04-03T12:13:35.105Z</time></trkpt><trkpt lat="44.5655406" lon="8.7783482"><ele>688.6666666666666</ele><time>2026-04-03T12:13:37.168Z</time></trkpt><trkpt lat="44.5656398" lon="8.7782606"><ele>688.8333333333333</ele><time>2026-04-03T12:13:39.17Z</time></trkpt><trkpt lat="44.5657019" lon="8.7782066"><ele>689.0</ele><time>2026-04-03T12:13:40.109Z</time></trkpt><trkpt lat="44.5657531" lon="8.7781213"><ele>689.0</ele><time>2026-04-03T12:13:41.104Z</time></trkpt><trkpt lat="44.5658219" lon="8.7779993"><ele>689.0</ele><time>2026-04-03T12:13:43.154Z</time></trkpt><trkpt lat="44.5658713" lon="8.7779218"><ele>689.0</ele><time>2026-04-03T12:13:44.142Z</time></trkpt><trkpt lat="44.5659502" lon="8.777825"><ele>689.0</ele><time>2026-04-03T12:13:46.107Z</time></trkpt><trkpt lat="44.566113" lon="8.77773"><ele>689.0</ele><time>2026-04-03T12:13:48.999Z</time></trkpt><trkpt lat="44.5661811" lon="8.7777926"><ele>689.0</ele><time>2026-04-03T12:13:51Z</time></trkpt><trkpt lat="44.5662373" lon="8.7778969"><ele>689.0</ele><time>2026-04-03T12:13:54.107Z</time></trkpt><trkpt lat="44.5662323" lon="8.778069"><ele>689.0</ele><time>2026-04-03T12:13:56.103Z</time></trkpt><trkpt lat="44.566226" lon="8.7782211"><ele>689.0</ele><time>2026-04-03T12:13:58.108Z</time></trkpt><trkpt lat="44.5662207" lon="8.7783762"><ele>689.0</ele><time>2026-04-03T12:14:00.126Z</time></trkpt><trkpt lat="44.5662104" lon="8.7785036"><ele>689.0</ele><time>2026-04-03T12:14:01.101Z</time></trkpt><trkpt lat="44.5661862" lon="8.778619"><ele>689.0</ele><time>2026-04-03T12:14:02.102Z</time></trkpt><trkpt lat="44.5661567" lon="8.7787178"><ele>689.0</ele><time>2026-04-03T12:14:03.101Z</time></trkpt><trkpt lat="44.5661233" lon="8.7788149"><ele>689.0</ele><time>2026-04-03T12:14:04.106Z</time></trkpt><trkpt lat="44.5660843" lon="8.7790164"><ele>689.0</ele><time>2026-04-03T12:14:06.106Z</time></trkpt><trkpt lat="44.5660366" lon="8.7790973"><ele>689.0</ele><time>2026-04-03T12:14:07.164Z</time></trkpt><trkpt lat="44.5660015" lon="8.7791713"><ele>689.0</ele><time>2026-04-03T12:14:08.106Z</time></trkpt><trkpt lat="44.565962" lon="8.7792428"><ele>689.0</ele><time>2026-04-03T12:14:09.203Z</time></trkpt><trkpt lat="44.5658936" lon="8.7793783"><ele>689.0</ele><time>2026-04-03T12:14:11.105Z</time></trkpt><trkpt lat="44.5658627" lon="8.7794642"><ele>689.0</ele><time>2026-04-03T12:14:12.187Z</time></trkpt><trkpt lat="44.5658268" lon="8.7796351"><ele>689.1666666666666</ele><time>2026-04-03T12:14:14.184Z</time></trkpt><trkpt lat="44.5657885" lon="8.779741"><ele>689.3333333333333</ele><time>2026-04-03T12:14:15.101Z</time></trkpt><trkpt lat="44.5657637" lon="8.7798253"><ele>689.5</ele><time>2026-04-03T12:14:16.104Z</time></trkpt><trkpt lat="44.5657482" lon="8.7799276"><ele>689.6666666666666</ele><time>2026-04-03T12:14:17.203Z</time></trkpt><trkpt lat="44.5657041" lon="8.7800164"><ele>689.8333333333334</ele><time>2026-04-03T12:14:18.151Z</time></trkpt><trkpt lat="44.5656667" lon="8.7801229"><ele>690.0</ele><time>2026-04-03T12:14:19.104Z</time></trkpt><trkpt lat="44.5656276" lon="8.7802372"><ele>689.0</ele><time>2026-04-03T12:14:20.113Z</time></trkpt><trkpt lat="44.5655951" lon="8.7803497"><ele>688.0</ele><time>2026-04-03T12:14:21.105Z</time></trkpt><trkpt lat="44.565557" lon="8.780455"><ele>687.0</ele><time>2026-04-03T12:14:22.206Z</time></trkpt><trkpt lat="44.5655174" lon="8.7805527"><ele>686.0</ele><time>2026-04-03T12:14:23.197Z</time></trkpt><trkpt lat="44.5654741" lon="8.7806511"><ele>685.0</ele><time>2026-04-03T12:14:24.206Z</time></trkpt><trkpt lat="44.5653804" lon="8.7808551"><ele>682.8333333333334</ele><time>2026-04-03T12:14:25.999Z</time></trkpt><trkpt lat="44.5653406" lon="8.7809584"><ele>680.6666666666667</ele><time>2026-04-03T12:14:27.201Z</time></trkpt><trkpt lat="44.5652971" lon="8.7810531"><ele>678.5</ele><time>2026-04-03T12:14:28.16Z</time></trkpt><trkpt lat="44.5652566" lon="8.7811416"><ele>676.3333333333334</ele><time>2026-04-03T12:14:29.157Z</time></trkpt><trkpt lat="44.565229" lon="8.7812412"><ele>674.1666666666666</ele><time>2026-04-03T12:14:30.103Z</time></trkpt><trkpt lat="44.5652174" lon="8.7813444"><ele>672.0</ele><time>2026-04-03T12:14:31.108Z</time></trkpt><trkpt lat="44.5652208" lon="8.7814455"><ele>672.0</ele><time>2026-04-03T12:14:32.152Z</time></trkpt><trkpt lat="44.5652359" lon="8.7815545"><ele>672.0</ele><time>2026-04-03T12:14:33.143Z</time></trkpt><trkpt lat="44.5652576" lon="8.7816541"><ele>672.0</ele><time>2026-04-03T12:14:34.137Z</time></trkpt><trkpt lat="44.5652797" lon="8.7817512"><ele>672.0</ele><time>2026-04-03T12:14:35.11Z</time></trkpt><trkpt lat="44.5653078" lon="8.7818336"><ele>672.0</ele><time>2026-04-03T12:14:36.11Z</time></trkpt><trkpt lat="44.5653752" lon="8.7820475"><ele>671.8</ele><time>2026-04-03T12:14:37.999Z</time></trkpt><trkpt lat="44.5654083" lon="8.7821376"><ele>671.6</ele><time>2026-04-03T12:14:39.173Z</time></trkpt><trkpt lat="44.5654956" lon="8.7823622"><ele>671.4</ele><time>2026-04-03T12:14:41.107Z</time></trkpt><trkpt lat="44.5655454" lon="8.7824646"><ele>671.1999999999999</ele><time>2026-04-03T12:14:42.167Z</time></trkpt><trkpt lat="44.5656002" lon="8.7825463"><ele>671.0</ele><time>2026-04-03T12:14:43.156Z</time></trkpt><trkpt lat="44.5656599" lon="8.7826253"><ele>669.5999999999999</ele><time>2026-04-03T12:14:44.144Z</time></trkpt><trkpt lat="44.5657102" lon="8.7827018"><ele>668.2</ele><time>2026-04-03T12:14:45.106Z</time></trkpt><trkpt lat="44.5657769" lon="8.7827928"><ele>666.8</ele><time>2026-04-03T12:14:47.168Z</time></trkpt><trkpt lat="44.5657679" lon="8.7829489"><ele>665.4000000000001</ele><time>2026-04-03T12:14:49.999Z</time></trkpt><trkpt lat="44.5656528" lon="8.7831163"><ele>664.0</ele><time>2026-04-03T12:14:52.109Z</time></trkpt><trkpt lat="44.5655978" lon="8.7831746"><ele>664.0</ele><time>2026-04-03T12:14:53.102Z</time></trkpt><trkpt lat="44.5655486" lon="8.7832495"><ele>664.0</ele><time>2026-04-03T12:14:54.187Z</time></trkpt><trkpt lat="44.5655265" lon="8.783353"><ele>664.0</ele><time>2026-04-03T12:14:55.111Z</time></trkpt><trkpt lat="44.5655134" lon="8.7834472"><ele>664.0</ele><time>2026-04-03T12:14:56.103Z</time></trkpt><trkpt lat="44.5655171" lon="8.783548"><ele>664.0</ele><time>2026-04-03T12:14:57.168Z</time></trkpt><trkpt lat="44.5655198" lon="8.7836696"><ele>664.0</ele><time>2026-04-03T12:14:58.189Z</time></trkpt><trkpt lat="44.5655258" lon="8.7837855"><ele>662.6666666666667</ele><time>2026-04-03T12:14:59.1Z</time></trkpt><trkpt lat="44.5655322" lon="8.7838982"><ele>661.3333333333334</ele><time>2026-04-03T12:15:00.101Z</time></trkpt><trkpt lat="44.5655396" lon="8.7840136"><ele>660.0</ele><time>2026-04-03T12:15:01.196Z</time></trkpt><trkpt lat="44.5655612" lon="8.7841248"><ele>658.6666666666666</ele><time>2026-04-03T12:15:02.192Z</time></trkpt><trkpt lat="44.5655738" lon="8.7842547"><ele>657.3333333333333</ele><time>2026-04-03T12:15:03.193Z</time></trkpt><trkpt lat="44.5655999" lon="8.7843729"><ele>656.0</ele><time>2026-04-03T12:15:04.189Z</time></trkpt><trkpt lat="44.5656192" lon="8.7844895"><ele>654.5</ele><time>2026-04-03T12:15:05.103Z</time></trkpt><trkpt lat="44.5656421" lon="8.7847281"><ele>653.0</ele><time>2026-04-03T12:15:07.183Z</time></trkpt><trkpt lat="44.565648" lon="8.7848363"><ele>651.5</ele><time>2026-04-03T12:15:08.193Z</time></trkpt><trkpt lat="44.565647" lon="8.7849319"><ele>650.0</ele><time>2026-04-03T12:15:09.192Z</time></trkpt><trkpt lat="44.5656457" lon="8.7852321"><ele>650.0</ele><time>2026-04-03T12:15:11.102Z</time></trkpt><trkpt lat="44.5656723" lon="8.7853416"><ele>650.0</ele><time>2026-04-03T12:15:12.2Z</time></trkpt><trkpt lat="44.5657134" lon="8.785443"><ele>650.0</ele><time>2026-04-03T12:15:13.155Z</time></trkpt><trkpt lat="44.5657619" lon="8.7855469"><ele>650.0</ele><time>2026-04-03T12:15:14.182Z</time></trkpt><trkpt lat="44.5658161" lon="8.7856458"><ele>650.0</ele><time>2026-04-03T12:15:15.105Z</time></trkpt><trkpt lat="44.5658685" lon="8.7857192"><ele>650.0</ele><time>2026-04-03T12:15:16.105Z</time></trkpt><trkpt lat="44.5659232" lon="8.7858081"><ele>650.0</ele><time>2026-04-03T12:15:17.168Z</time></trkpt><trkpt lat="44.5659748" lon="8.7859021"><ele>650.0</ele><time>2026-04-03T12:15:18.14Z</time></trkpt><trkpt lat="44.5660191" lon="8.7859854"><ele>650.0</ele><time>2026-04-03T12:15:19.164Z</time></trkpt><trkpt lat="44.5660445" lon="8.7861139"><ele>650.0</ele><time>2026-04-03T12:15:20.107Z</time></trkpt><trkpt lat="44.5660671" lon="8.7862227"><ele>650.0</ele><time>2026-04-03T12:15:21.108Z</time></trkpt><trkpt lat="44.566102" lon="8.7863397"><ele>650.0</ele><time>2026-04-03T12:15:22.104Z</time></trkpt><trkpt lat="44.5661428" lon="8.7864416"><ele>649.6</ele><time>2026-04-03T12:15:23.103Z</time></trkpt><trkpt lat="44.5661864" lon="8.7865229"><ele>649.2</ele><time>2026-04-03T12:15:24.136Z</time></trkpt><trkpt lat="44.566265" lon="8.7866321"><ele>648.8</ele><time>2026-04-03T12:15:26.105Z</time></trkpt><trkpt lat="44.5662548" lon="8.7867604"><ele>648.4</ele><time>2026-04-03T12:15:27.122Z</time></trkpt><trkpt lat="44.5662272" lon="8.7869323"><ele>648.0</ele><time>2026-04-03T12:15:29.104Z</time></trkpt><trkpt lat="44.5661866" lon="8.7870122"><ele>649.2857142857143</ele><time>2026-04-03T12:15:30.103Z</time></trkpt><trkpt lat="44.5661665" lon="8.7870975"><ele>650.5714285714286</ele><time>2026-04-03T12:15:31.164Z</time></trkpt><trkpt lat="44.566178" lon="8.7871965"><ele>651.8571428571429</ele><time>2026-04-03T12:15:32.133Z</time></trkpt><trkpt lat="44.566203" lon="8.7872869"><ele>653.1428571428571</ele><time>2026-04-03T12:15:33.148Z</time></trkpt><trkpt lat="44.5662366" lon="8.7873872"><ele>654.4285714285714</ele><time>2026-04-03T12:15:34.171Z</time></trkpt><trkpt lat="44.5662737" lon="8.7874782"><ele>655.7142857142857</ele><time>2026-04-03T12:15:35.105Z</time></trkpt><trkpt lat="44.5663169" lon="8.7875907"><ele>657.0</ele><time>2026-04-03T12:15:36.108Z</time></trkpt><trkpt lat="44.5663521" lon="8.7876934"><ele>658.3333333333334</ele><time>2026-04-03T12:15:37.181Z</time></trkpt><trkpt lat="44.5663997" lon="8.7877745"><ele>659.6666666666666</ele><time>2026-04-03T12:15:38.171Z</time></trkpt><trkpt lat="44.5664514" lon="8.787856"><ele>661.0</ele><time>2026-04-03T12:15:39.182Z</time></trkpt><trkpt lat="44.5665026" lon="8.7879337"><ele>662.3333333333333</ele><time>2026-04-03T12:15:40.108Z</time></trkpt><trkpt lat="44.5665568" lon="8.7880085"><ele>663.6666666666666</ele><time>2026-04-03T12:15:41.107Z</time></trkpt><trkpt lat="44.5666218" lon="8.7881664"><ele>665.0</ele><time>2026-04-03T12:15:43.191Z</time></trkpt><trkpt lat="44.56664" lon="8.7882556"><ele>665.0</ele><time>2026-04-03T12:15:44.145Z</time></trkpt><trkpt lat="44.5666071" lon="8.7883822"><ele>665.0</ele><time>2026-04-03T12:15:45.101Z</time></trkpt><trkpt lat="44.5665976" lon="8.7884769"><ele>665.0</ele><time>2026-04-03T12:15:46.109Z</time></trkpt><trkpt lat="44.5665949" lon="8.7885846"><ele>665.0</ele><time>2026-04-03T12:15:47.167Z</time></trkpt><trkpt lat="44.5665921" lon="8.7886953"><ele>665.0</ele><time>2026-04-03T12:15:48.203Z</time></trkpt><trkpt lat="44.5666001" lon="8.7888015"><ele>665.0</ele><time>2026-04-03T12:15:49.204Z</time></trkpt><trkpt lat="44.5666079" lon="8.7889533"><ele>665.4285714285714</ele><time>2026-04-03T12:15:51.106Z</time></trkpt><trkpt lat="44.5665908" lon="8.7890472"><ele>665.8571428571429</ele><time>2026-04-03T12:15:52.183Z</time></trkpt><trkpt lat="44.5665407" lon="8.7891361"><ele>666.2857142857142</ele><time>2026-04-03T12:15:53.159Z</time></trkpt><trkpt lat="44.5665011" lon="8.7892071"><ele>666.7142857142858</ele><time>2026-04-03T12:15:54.198Z</time></trkpt><trkpt lat="44.5664578" lon="8.7892841"><ele>667.1428571428571</ele><time>2026-04-03T12:15:55.104Z</time></trkpt><trkpt lat="44.5664066" lon="8.7893761"><ele>667.5714285714286</ele><time>2026-04-03T12:15:56.105Z</time></trkpt><trkpt lat="44.5663563" lon="8.7894655"><ele>668.0</ele><time>2026-04-03T12:15:57.175Z</time></trkpt><trkpt lat="44.5663046" lon="8.7895588"><ele>669.5</ele><time>2026-04-03T12:15:58.193Z</time></trkpt><trkpt lat="44.5662537" lon="8.7896601"><ele>671.0</ele><time>2026-04-03T12:15:59.177Z</time></trkpt><trkpt lat="44.5662004" lon="8.7897584"><ele>672.5</ele><time>2026-04-03T12:16:00.106Z</time></trkpt><trkpt lat="44.5661461" lon="8.7898531"><ele>674.0</ele><time>2026-04-03T12:16:01.111Z</time></trkpt><trkpt lat="44.566097" lon="8.7899446"><ele>675.5</ele><time>2026-04-03T12:16:02.158Z</time></trkpt><trkpt lat="44.5660417" lon="8.7900303"><ele>677.0</ele><time>2026-04-03T12:16:03.197Z</time></trkpt><trkpt lat="44.5659848" lon="8.7901179"><ele>673.4000000000001</ele><time>2026-04-03T12:16:04.197Z</time></trkpt><trkpt lat="44.5659326" lon="8.7901913"><ele>669.8000000000001</ele><time>2026-04-03T12:16:05.105Z</time></trkpt><trkpt lat="44.5658837" lon="8.7902603"><ele>666.2</ele><time>2026-04-03T12:16:06.107Z</time></trkpt><trkpt lat="44.5657935" lon="8.7903686"><ele>662.6</ele><time>2026-04-03T12:16:08.191Z</time></trkpt><trkpt lat="44.5657203" lon="8.7904897"><ele>659.0</ele><time>2026-04-03T12:16:10.112Z</time></trkpt><trkpt lat="44.5656902" lon="8.7906503"><ele>659.0</ele><time>2026-04-03T12:16:12.165Z</time></trkpt><trkpt lat="44.5657052" lon="8.7908118"><ele>659.0</ele><time>2026-04-03T12:16:14.142Z</time></trkpt><trkpt lat="44.5657274" lon="8.790899"><ele>659.0</ele><time>2026-04-03T12:16:15.111Z</time></trkpt><trkpt lat="44.5657575" lon="8.7909812"><ele>659.0</ele><time>2026-04-03T12:16:16.111Z</time></trkpt><trkpt lat="44.5657886" lon="8.7910677"><ele>659.0</ele><time>2026-04-03T12:16:17.17Z</time></trkpt><trkpt lat="44.5658155" lon="8.7911796"><ele>659.0</ele><time>2026-04-03T12:16:18.139Z</time></trkpt><trkpt lat="44.5658353" lon="8.7912832"><ele>658.0</ele><time>2026-04-03T12:16:19.164Z</time></trkpt><trkpt lat="44.5658386" lon="8.7914631"><ele>657.0</ele><time>2026-04-03T12:16:21.108Z</time></trkpt><trkpt lat="44.5658118" lon="8.7915975"><ele>656.0</ele><time>2026-04-03T12:16:22.166Z</time></trkpt><trkpt lat="44.5657952" lon="8.7917226"><ele>655.0</ele><time>2026-04-03T12:16:23.141Z</time></trkpt><trkpt lat="44.5657814" lon="8.7918451"><ele>654.0</ele><time>2026-04-03T12:16:24.158Z</time></trkpt><trkpt lat="44.5657833" lon="8.7919634"><ele>652.5</ele><time>2026-04-03T12:16:25.112Z</time></trkpt><trkpt lat="44.5658056" lon="8.7920825"><ele>651.0</ele><time>2026-04-03T12:16:26.108Z</time></trkpt><trkpt lat="44.5658415" lon="8.7921934"><ele>649.5</ele><time>2026-04-03T12:16:27.185Z</time></trkpt><trkpt lat="44.5658863" lon="8.7922777"><ele>648.0</ele><time>2026-04-03T12:16:28.157Z</time></trkpt><trkpt lat="44.5659418" lon="8.7923574"><ele>646.5</ele><time>2026-04-03T12:16:29.108Z</time></trkpt><trkpt lat="44.5659829" lon="8.7924416"><ele>645.0</ele><time>2026-04-03T12:16:30.11Z</time></trkpt><trkpt lat="44.5660508" lon="8.7925106"><ele>645.8</ele><time>2026-04-03T12:16:31.103Z</time></trkpt><trkpt lat="44.5661964" lon="8.7926039"><ele>646.6</ele><time>2026-04-03T12:16:33.156Z</time></trkpt><trkpt lat="44.5662804" lon="8.7926492"><ele>647.4000000000001</ele><time>2026-04-03T12:16:34.169Z</time></trkpt><trkpt lat="44.5663731" lon="8.7926781"><ele>648.2</ele><time>2026-04-03T12:16:35.102Z</time></trkpt><trkpt lat="44.5664494" lon="8.7927262"><ele>649.0</ele><time>2026-04-03T12:16:36.114Z</time></trkpt><trkpt lat="44.566525" lon="8.7927649"><ele>644.4000000000001</ele><time>2026-04-03T12:16:37.105Z</time></trkpt><trkpt lat="44.5665877" lon="8.7928088"><ele>639.8000000000001</ele><time>2026-04-03T12:16:38.1Z</time></trkpt><trkpt lat="44.5667248" lon="8.7928704"><ele>635.2</ele><time>2026-04-03T12:16:40.109Z</time></trkpt><trkpt lat="44.5668105" lon="8.7928969"><ele>630.6</ele><time>2026-04-03T12:16:41.108Z</time></trkpt><trkpt lat="44.56689" lon="8.7929079"><ele>626.0</ele><time>2026-04-03T12:16:42.163Z</time></trkpt><trkpt lat="44.5669963" lon="8.7928998"><ele>626.0</ele><time>2026-04-03T12:16:43.168Z</time></trkpt><trkpt lat="44.5670874" lon="8.7928905"><ele>626.0</ele><time>2026-04-03T12:16:44.166Z</time></trkpt><trkpt lat="44.5671729" lon="8.7928864"><ele>626.0</ele><time>2026-04-03T12:16:45.106Z</time></trkpt><trkpt lat="44.5672702" lon="8.7928834"><ele>626.0</ele><time>2026-04-03T12:16:46.104Z</time></trkpt><trkpt lat="44.5673554" lon="8.7928791"><ele>626.0</ele><time>2026-04-03T12:16:47.188Z</time></trkpt><trkpt lat="44.5674401" lon="8.7928897"><ele>626.0</ele><time>2026-04-03T12:16:48.181Z</time></trkpt><trkpt lat="44.5675316" lon="8.7928913"><ele>626.0</ele><time>2026-04-03T12:16:49.163Z</time></trkpt><trkpt lat="44.5676216" lon="8.7929106"><ele>626.0</ele><time>2026-04-03T12:16:50.107Z</time></trkpt><trkpt lat="44.5677236" lon="8.7929361"><ele>626.0</ele><time>2026-04-03T12:16:51.112Z</time></trkpt><trkpt lat="44.5678154" lon="8.7929768"><ele>626.0</ele><time>2026-04-03T12:16:52.165Z</time></trkpt><trkpt lat="44.5679104" lon="8.7930113"><ele>626.0</ele><time>2026-04-03T12:16:53.161Z</time></trkpt><trkpt lat="44.5679973" lon="8.793048"><ele>625.0</ele><time>2026-04-03T12:16:54.189Z</time></trkpt><trkpt lat="44.5680864" lon="8.793093"><ele>624.0</ele><time>2026-04-03T12:16:55.102Z</time></trkpt><trkpt lat="44.5681616" lon="8.793138"><ele>623.0</ele><time>2026-04-03T12:16:56.106Z</time></trkpt><trkpt lat="44.5682412" lon="8.7931673"><ele>622.0</ele><time>2026-04-03T12:16:57.189Z</time></trkpt><trkpt lat="44.5683236" lon="8.7931867"><ele>621.0</ele><time>2026-04-03T12:16:58.156Z</time></trkpt><trkpt lat="44.5684071" lon="8.7931905"><ele>620.0</ele><time>2026-04-03T12:16:59.177Z</time></trkpt><trkpt lat="44.5684957" lon="8.7931688"><ele>620.0</ele><time>2026-04-03T12:17:00.104Z</time></trkpt><trkpt lat="44.5685678" lon="8.7931512"><ele>620.0</ele><time>2026-04-03T12:17:01.106Z</time></trkpt><trkpt lat="44.5686803" lon="8.793134"><ele>620.0</ele><time>2026-04-03T12:17:03.102Z</time></trkpt><trkpt lat="44.5687689" lon="8.7931635"><ele>620.0</ele><time>2026-04-03T12:17:05Z</time></trkpt><trkpt lat="44.5686007" lon="8.7933325"><ele>620.0</ele><time>2026-04-03T12:17:12.105Z</time></trkpt><trkpt lat="44.5685362" lon="8.7933968"><ele>620.0</ele><time>2026-04-03T12:17:13.106Z</time></trkpt><trkpt lat="44.5683891" lon="8.7935315"><ele>620.0</ele><time>2026-04-03T12:17:15.101Z</time></trkpt><trkpt lat="44.5683052" lon="8.7936208"><ele>620.0</ele><time>2026-04-03T12:17:16.107Z</time></trkpt><trkpt lat="44.5682233" lon="8.7937226"><ele>617.8</ele><time>2026-04-03T12:17:17.105Z</time></trkpt><trkpt lat="44.5681427" lon="8.7938109"><ele>615.6</ele><time>2026-04-03T12:17:18.163Z</time></trkpt><trkpt lat="44.5680565" lon="8.7938774"><ele>613.4</ele><time>2026-04-03T12:17:19.167Z</time></trkpt><trkpt lat="44.5679774" lon="8.7938939"><ele>611.2</ele><time>2026-04-03T12:17:20.11Z</time></trkpt><trkpt lat="44.567884" lon="8.7939331"><ele>609.0</ele><time>2026-04-03T12:17:21.114Z</time></trkpt><trkpt lat="44.5678035" lon="8.7939578"><ele>609.0</ele><time>2026-04-03T12:17:22.102Z</time></trkpt><trkpt lat="44.5677405" lon="8.7940088"><ele>609.0</ele><time>2026-04-03T12:17:23.109Z</time></trkpt><trkpt lat="44.567634" lon="8.794285"><ele>609.0</ele><time>2026-04-03T12:17:26.102Z</time></trkpt><trkpt lat="44.5676097" lon="8.7944052"><ele>609.0</ele><time>2026-04-03T12:17:27.173Z</time></trkpt><trkpt lat="44.5675911" lon="8.7945311"><ele>606.5</ele><time>2026-04-03T12:17:28.166Z</time></trkpt><trkpt lat="44.5675797" lon="8.7946681"><ele>604.0</ele><time>2026-04-03T12:17:29.135Z</time></trkpt><trkpt lat="44.5675609" lon="8.7948033"><ele>601.5</ele><time>2026-04-03T12:17:30.107Z</time></trkpt><trkpt lat="44.5675475" lon="8.7949243"><ele>599.0</ele><time>2026-04-03T12:17:31.106Z</time></trkpt><trkpt lat="44.5675599" lon="8.7950287"><ele>596.5</ele><time>2026-04-03T12:17:32.196Z</time></trkpt><trkpt lat="44.5675948" lon="8.7951057"><ele>594.0</ele><time>2026-04-03T12:17:33.145Z</time></trkpt><trkpt lat="44.567644" lon="8.79518"><ele>593.3333333333334</ele><time>2026-04-03T12:17:34.152Z</time></trkpt><trkpt lat="44.5677048" lon="8.7952582"><ele>592.6666666666666</ele><time>2026-04-03T12:17:35.106Z</time></trkpt><trkpt lat="44.5677775" lon="8.7953125"><ele>592.0</ele><time>2026-04-03T12:17:36.104Z</time></trkpt><trkpt lat="44.5678524" lon="8.7953344"><ele>591.3333333333333</ele><time>2026-04-03T12:17:37.152Z</time></trkpt><trkpt lat="44.5679252" lon="8.7953229"><ele>590.6666666666666</ele><time>2026-04-03T12:17:38.136Z</time></trkpt><trkpt lat="44.5679987" lon="8.7952139"><ele>590.0</ele><time>2026-04-03T12:17:39.128Z</time></trkpt><trkpt lat="44.5680664" lon="8.7951345"><ele>590.0</ele><time>2026-04-03T12:17:40.101Z</time></trkpt><trkpt lat="44.5681365" lon="8.7950519"><ele>590.0</ele><time>2026-04-03T12:17:41.101Z</time></trkpt><trkpt lat="44.568213" lon="8.7950058"><ele>590.0</ele><time>2026-04-03T12:17:42.192Z</time></trkpt><trkpt lat="44.568318" lon="8.7949563"><ele>590.0</ele><time>2026-04-03T12:17:43.14Z</time></trkpt><trkpt lat="44.5684118" lon="8.7949101"><ele>590.0</ele><time>2026-04-03T12:17:44.204Z</time></trkpt><trkpt lat="44.5685103" lon="8.7948648"><ele>590.0</ele><time>2026-04-03T12:17:45.107Z</time></trkpt><trkpt lat="44.5686121" lon="8.7948378"><ele>590.0</ele><time>2026-04-03T12:17:46.113Z</time></trkpt><trkpt lat="44.568715" lon="8.7948113"><ele>590.0</ele><time>2026-04-03T12:17:47.181Z</time></trkpt><trkpt lat="44.5688107" lon="8.7947681"><ele>590.0</ele><time>2026-04-03T12:17:48.181Z</time></trkpt><trkpt lat="44.5688974" lon="8.7947139"><ele>590.0</ele><time>2026-04-03T12:17:49.14Z</time></trkpt><trkpt lat="44.5689697" lon="8.7946767"><ele>585.8</ele><time>2026-04-03T12:17:50.108Z</time></trkpt><trkpt lat="44.5690765" lon="8.7946128"><ele>581.6</ele><time>2026-04-03T12:17:51.106Z</time></trkpt><trkpt lat="44.569155" lon="8.7945988"><ele>577.4</ele><time>2026-04-03T12:17:52.186Z</time></trkpt><trkpt lat="44.5692456" lon="8.7945774"><ele>573.2</ele><time>2026-04-03T12:17:53.189Z</time></trkpt><trkpt lat="44.5693227" lon="8.7945712"><ele>569.0</ele><time>2026-04-03T12:17:54.187Z</time></trkpt><trkpt lat="44.5694146" lon="8.7946109"><ele>569.0</ele><time>2026-04-03T12:17:55.104Z</time></trkpt><trkpt lat="44.5695081" lon="8.7946276"><ele>569.0</ele><time>2026-04-03T12:17:56.111Z</time></trkpt><trkpt lat="44.5696043" lon="8.7946089"><ele>569.0</ele><time>2026-04-03T12:17:57.204Z</time></trkpt><trkpt lat="44.5696869" lon="8.7945944"><ele>569.0</ele><time>2026-04-03T12:17:58.16Z</time></trkpt><trkpt lat="44.5697729" lon="8.7945426"><ele>569.0</ele><time>2026-04-03T12:17:59.208Z</time></trkpt><trkpt lat="44.5699391" lon="8.7944283"><ele>568.5</ele><time>2026-04-03T12:18:00.999Z</time></trkpt><trkpt lat="44.5700208" lon="8.7943632"><ele>568.0</ele><time>2026-04-03T12:18:02.17Z</time></trkpt><trkpt lat="44.5701137" lon="8.7943053"><ele>567.5</ele><time>2026-04-03T12:18:03.175Z</time></trkpt><trkpt lat="44.5701825" lon="8.794244"><ele>567.0</ele><time>2026-04-03T12:18:04.2Z</time></trkpt><trkpt lat="44.5702601" lon="8.7942046"><ele>566.5</ele><time>2026-04-03T12:18:05.107Z</time></trkpt><trkpt lat="44.5703248" lon="8.7941293"><ele>566.0</ele><time>2026-04-03T12:18:06.101Z</time></trkpt><trkpt lat="44.5703903" lon="8.7940261"><ele>567.4</ele><time>2026-04-03T12:18:07.159Z</time></trkpt><trkpt lat="44.5704209" lon="8.7939259"><ele>568.8</ele><time>2026-04-03T12:18:08.17Z</time></trkpt><trkpt lat="44.5704185" lon="8.7938072"><ele>570.1999999999999</ele><time>2026-04-03T12:18:09.173Z</time></trkpt><trkpt lat="44.5704122" lon="8.793716"><ele>571.6</ele><time>2026-04-03T12:18:10.101Z</time></trkpt><trkpt lat="44.5703788" lon="8.7935622"><ele>573.0</ele><time>2026-04-03T12:18:12.173Z</time></trkpt><trkpt lat="44.5703545" lon="8.7934123"><ele>567.75</ele><time>2026-04-03T12:18:14.143Z</time></trkpt><trkpt lat="44.5705277" lon="8.7933333"><ele>562.5</ele><time>2026-04-03T12:18:18.104Z</time></trkpt><trkpt lat="44.5706378" lon="8.7933171"><ele>557.25</ele><time>2026-04-03T12:18:20.117Z</time></trkpt><trkpt lat="44.5707414" lon="8.7932649"><ele>552.0</ele><time>2026-04-03T12:18:22.182Z</time></trkpt><trkpt lat="44.5708693" lon="8.7932001"><ele>552.0</ele><time>2026-04-03T12:18:23.154Z</time></trkpt><trkpt lat="44.5709391" lon="8.793168"><ele>552.0</ele><time>2026-04-03T12:18:24.192Z</time></trkpt><trkpt lat="44.5710091" lon="8.7931467"><ele>552.0</ele><time>2026-04-03T12:18:25.104Z</time></trkpt><trkpt lat="44.5710939" lon="8.7932024"><ele>552.0</ele><time>2026-04-03T12:18:26.111Z</time></trkpt><trkpt lat="44.5711674" lon="8.7932489"><ele>552.0</ele><time>2026-04-03T12:18:27.16Z</time></trkpt><trkpt lat="44.5712217" lon="8.793317"><ele>552.0</ele><time>2026-04-03T12:18:28.186Z</time></trkpt><trkpt lat="44.5712737" lon="8.7933922"><ele>547.0</ele><time>2026-04-03T12:18:29.18Z</time></trkpt><trkpt lat="44.5713353" lon="8.793446"><ele>542.0</ele><time>2026-04-03T12:18:30.104Z</time></trkpt><trkpt lat="44.5714002" lon="8.7934505"><ele>537.0</ele><time>2026-04-03T12:18:31.105Z</time></trkpt><trkpt lat="44.5714957" lon="8.7933799"><ele>532.0</ele><time>2026-04-03T12:18:33.167Z</time></trkpt><trkpt lat="44.5715531" lon="8.7932303"><ele>527.0</ele><time>2026-04-03T12:18:35.103Z</time></trkpt><trkpt lat="44.5715747" lon="8.7930485"><ele>527.0</ele><time>2026-04-03T12:18:37.107Z</time></trkpt><trkpt lat="44.5715701" lon="8.7929548"><ele>527.0</ele><time>2026-04-03T12:18:38.102Z</time></trkpt><trkpt lat="44.5715704" lon="8.7928631"><ele>527.0</ele><time>2026-04-03T12:18:39.161Z</time></trkpt><trkpt lat="44.5715713" lon="8.7927604"><ele>527.0</ele><time>2026-04-03T12:18:40.108Z</time></trkpt><trkpt lat="44.5715792" lon="8.7926409"><ele>527.0</ele><time>2026-04-03T12:18:41.102Z</time></trkpt><trkpt lat="44.5715901" lon="8.7925226"><ele>527.0</ele><time>2026-04-03T12:18:42.163Z</time></trkpt><trkpt lat="44.5716021" lon="8.7924047"><ele>528.8000000000001</ele><time>2026-04-03T12:18:43.137Z</time></trkpt><trkpt lat="44.5716079" lon="8.7922861"><ele>530.6</ele><time>2026-04-03T12:18:44.149Z</time></trkpt><trkpt lat="44.5716153" lon="8.7920202"><ele>532.4000000000001</ele><time>2026-04-03T12:18:46.107Z</time></trkpt><trkpt lat="44.5716163" lon="8.791909"><ele>534.2</ele><time>2026-04-03T12:18:47.169Z</time></trkpt><trkpt lat="44.5716156" lon="8.7917981"><ele>536.0</ele><time>2026-04-03T12:18:48.161Z</time></trkpt><trkpt lat="44.5716225" lon="8.7916626"><ele>536.0</ele><time>2026-04-03T12:18:49.147Z</time></trkpt><trkpt lat="44.571639" lon="8.7915633"><ele>536.0</ele><time>2026-04-03T12:18:50.108Z</time></trkpt><trkpt lat="44.5716576" lon="8.7914513"><ele>536.0</ele><time>2026-04-03T12:18:51.104Z</time></trkpt><trkpt lat="44.5716871" lon="8.7912512"><ele>536.0</ele><time>2026-04-03T12:18:53.184Z</time></trkpt><trkpt lat="44.5717027" lon="8.7911629"><ele>536.0</ele><time>2026-04-03T12:18:54.167Z</time></trkpt><trkpt lat="44.571702" lon="8.7910141"><ele>536.0</ele><time>2026-04-03T12:18:56.107Z</time></trkpt><trkpt lat="44.5717796" lon="8.7910122"><ele>536.0</ele><time>2026-04-03T12:18:57.152Z</time></trkpt><trkpt lat="44.5718508" lon="8.7910236"><ele>536.0</ele><time>2026-04-03T12:18:58.999Z</time></trkpt><trkpt lat="44.5719427" lon="8.7911615"><ele>536.0</ele><time>2026-04-03T12:19:02.104Z</time></trkpt><trkpt lat="44.5719134" lon="8.7912577"><ele>536.0</ele><time>2026-04-03T12:19:03.19Z</time></trkpt><trkpt lat="44.5718926" lon="8.7913646"><ele>536.0</ele><time>2026-04-03T12:19:04.162Z</time></trkpt><trkpt lat="44.5719058" lon="8.7915961"><ele>536.0</ele><time>2026-04-03T12:19:06.999Z</time></trkpt><trkpt lat="44.5719225" lon="8.7917303"><ele>536.0</ele><time>2026-04-03T12:19:08.999Z</time></trkpt><trkpt lat="44.5719585" lon="8.7918377"><ele>536.0</ele><time>2026-04-03T12:19:10.111Z</time></trkpt><trkpt lat="44.5719891" lon="8.7919169"><ele>536.0</ele><time>2026-04-03T12:19:11.1Z</time></trkpt><trkpt lat="44.5720434" lon="8.7921066"><ele>536.0</ele><time>2026-04-03T12:19:13.134Z</time></trkpt><trkpt lat="44.572071" lon="8.7921946"><ele>530.8333333333333</ele><time>2026-04-03T12:19:14.133Z</time></trkpt><trkpt lat="44.5720937" lon="8.7922801"><ele>525.6666666666666</ele><time>2026-04-03T12:19:15.102Z</time></trkpt><trkpt lat="44.5720944" lon="8.7924105"><ele>520.5</ele><time>2026-04-03T12:19:16.134Z</time></trkpt><trkpt lat="44.5721224" lon="8.7925641"><ele>515.3333333333334</ele><time>2026-04-03T12:19:18.132Z</time></trkpt><trkpt lat="44.5721769" lon="8.7926471"><ele>510.1666666666667</ele><time>2026-04-03T12:19:20Z</time></trkpt><trkpt lat="44.5722459" lon="8.7926176"><ele>505.0</ele><time>2026-04-03T12:19:21.999Z</time></trkpt><trkpt lat="44.5722952" lon="8.7925313"><ele>505.0</ele><time>2026-04-03T12:19:23.999Z</time></trkpt><trkpt lat="44.572312" lon="8.7923891"><ele>505.0</ele><time>2026-04-03T12:19:26.186Z</time></trkpt><trkpt lat="44.5723229" lon="8.7922724"><ele>505.0</ele><time>2026-04-03T12:19:27.156Z</time></trkpt><trkpt lat="44.5723302" lon="8.7920975"><ele>505.0</ele><time>2026-04-03T12:19:29.107Z</time></trkpt><trkpt lat="44.5723321" lon="8.7920078"><ele>505.0</ele><time>2026-04-03T12:19:30.106Z</time></trkpt><trkpt lat="44.5723292" lon="8.7918276"><ele>505.25</ele><time>2026-04-03T12:19:32.143Z</time></trkpt><trkpt lat="44.5723387" lon="8.7916679"><ele>505.5</ele><time>2026-04-03T12:19:34.109Z</time></trkpt><trkpt lat="44.5723564" lon="8.7915139"><ele>505.75</ele><time>2026-04-03T12:19:36.103Z</time></trkpt><trkpt lat="44.5724282" lon="8.7913169"><ele>506.0</ele><time>2026-04-03T12:19:37.999Z</time></trkpt><trkpt lat="44.5724525" lon="8.7912183"><ele>505.99999999999994</ele><time>2026-04-03T12:19:38.999Z</time></trkpt><trkpt lat="44.5724882" lon="8.7911148"><ele>506.0</ele><time>2026-04-03T12:19:40.106Z</time></trkpt><trkpt lat="44.5724888" lon="8.7909849"><ele>506.0</ele><time>2026-04-03T12:19:41.111Z</time></trkpt><trkpt lat="44.5724873" lon="8.7908615"><ele>506.0</ele><time>2026-04-03T12:19:42.113Z</time></trkpt><trkpt lat="44.5725017" lon="8.7907634"><ele>505.99999999999994</ele><time>2026-04-03T12:19:43.104Z</time></trkpt><trkpt lat="44.5725116" lon="8.7906485"><ele>506.0</ele><time>2026-04-03T12:19:44.103Z</time></trkpt><trkpt lat="44.5725205" lon="8.7905327"><ele>505.0</ele><time>2026-04-03T12:19:45.11Z</time></trkpt><trkpt lat="44.5725346" lon="8.7904021"><ele>504.0</ele><time>2026-04-03T12:19:46.106Z</time></trkpt><trkpt lat="44.5725476" lon="8.7902419"><ele>503.0</ele><time>2026-04-03T12:19:47.107Z</time></trkpt><trkpt lat="44.5725562" lon="8.790118"><ele>502.0</ele><time>2026-04-03T12:19:48.109Z</time></trkpt><trkpt lat="44.5725572" lon="8.7900009"><ele>501.0</ele><time>2026-04-03T12:19:49.106Z</time></trkpt><trkpt lat="44.5725753" lon="8.7898886"><ele>500.6</ele><time>2026-04-03T12:19:50.102Z</time></trkpt><trkpt lat="44.5726045" lon="8.7896554"><ele>500.20000000000005</ele><time>2026-04-03T12:19:52.103Z</time></trkpt><trkpt lat="44.5726194" lon="8.7895478"><ele>499.79999999999995</ele><time>2026-04-03T12:19:53.105Z</time></trkpt><trkpt lat="44.572626" lon="8.7894417"><ele>499.4</ele><time>2026-04-03T12:19:54.106Z</time></trkpt><trkpt lat="44.572634" lon="8.7893468"><ele>499.0</ele><time>2026-04-03T12:19:55.109Z</time></trkpt><trkpt lat="44.5726401" lon="8.7892587"><ele>499.0</ele><time>2026-04-03T12:19:56.113Z</time></trkpt><trkpt lat="44.5726317" lon="8.7891091"><ele>499.0</ele><time>2026-04-03T12:19:58.183Z</time></trkpt><trkpt lat="44.5726413" lon="8.7890039"><ele>499.0</ele><time>2026-04-03T12:20:00.105Z</time></trkpt><trkpt lat="44.572752" lon="8.7889679"><ele>499.0</ele><time>2026-04-03T12:20:01.999Z</time></trkpt><trkpt lat="44.5729462" lon="8.7889856"><ele>497.5</ele><time>2026-04-03T12:20:06.114Z</time></trkpt><trkpt lat="44.5731042" lon="8.7890318"><ele>496.0</ele><time>2026-04-03T12:20:08.104Z</time></trkpt><trkpt lat="44.5731831" lon="8.7890562"><ele>494.5</ele><time>2026-04-03T12:20:09.103Z</time></trkpt><trkpt lat="44.5732559" lon="8.7890655"><ele>493.0</ele><time>2026-04-03T12:20:10.103Z</time></trkpt><trkpt lat="44.573389" lon="8.7891118"><ele>493.0</ele><time>2026-04-03T12:20:12.102Z</time></trkpt><trkpt lat="44.5735172" lon="8.78916"><ele>492.99999999999994</ele><time>2026-04-03T12:20:14.101Z</time></trkpt><trkpt lat="44.5735805" lon="8.7891963"><ele>492.99999999999994</ele><time>2026-04-03T12:20:15.102Z</time></trkpt><trkpt lat="44.5736536" lon="8.7892219"><ele>493.0</ele><time>2026-04-03T12:20:16.101Z</time></trkpt><trkpt lat="44.5737225" lon="8.7892576"><ele>493.0</ele><time>2026-04-03T12:20:17.101Z</time></trkpt><trkpt lat="44.5738798" lon="8.7892871"><ele>494.1666666666667</ele><time>2026-04-03T12:20:19.108Z</time></trkpt><trkpt lat="44.5739692" lon="8.7892954"><ele>495.33333333333337</ele><time>2026-04-03T12:20:20.103Z</time></trkpt><trkpt lat="44.5740547" lon="8.7893065"><ele>496.5</ele><time>2026-04-03T12:20:21.103Z</time></trkpt><trkpt lat="44.5741439" lon="8.7893294"><ele>497.66666666666663</ele><time>2026-04-03T12:20:22.101Z</time></trkpt><trkpt lat="44.5742266" lon="8.7893571"><ele>498.8333333333333</ele><time>2026-04-03T12:20:23.104Z</time></trkpt><trkpt lat="44.5743134" lon="8.7893625"><ele>500.0</ele><time>2026-04-03T12:20:24.105Z</time></trkpt><trkpt lat="44.5744004" lon="8.7893969"><ele>510.0</ele><time>2026-04-03T12:20:25.1Z</time></trkpt><trkpt lat="44.5746143" lon="8.7894955"><ele>520.0</ele><time>2026-04-03T12:20:27.101Z</time></trkpt><trkpt lat="44.5746957" lon="8.7895339"><ele>530.0</ele><time>2026-04-03T12:20:28.103Z</time></trkpt><trkpt lat="44.5747717" lon="8.7895656"><ele>540.0</ele><time>2026-04-03T12:20:29.109Z</time></trkpt><trkpt lat="44.5749339" lon="8.7895779"><ele>540.0</ele><time>2026-04-03T12:20:31.114Z</time></trkpt><trkpt lat="44.5750137" lon="8.7895672"><ele>540.0</ele><time>2026-04-03T12:20:32.106Z</time></trkpt><trkpt lat="44.5751055" lon="8.7895396"><ele>540.0</ele><time>2026-04-03T12:20:33.147Z</time></trkpt><trkpt lat="44.5751865" lon="8.7895155"><ele>540.0</ele><time>2026-04-03T12:20:34.186Z</time></trkpt><trkpt lat="44.5752672" lon="8.7894801"><ele>540.0</ele><time>2026-04-03T12:20:35.107Z</time></trkpt><trkpt lat="44.5753337" lon="8.7894178"><ele>540.0</ele><time>2026-04-03T12:20:36.11Z</time></trkpt><trkpt lat="44.5754171" lon="8.7893615"><ele>538.8571428571429</ele><time>2026-04-03T12:20:37.13Z</time></trkpt><trkpt lat="44.5754954" lon="8.7893139"><ele>537.7142857142857</ele><time>2026-04-03T12:20:38.14Z</time></trkpt><trkpt lat="44.5755594" lon="8.7892656"><ele>536.5714285714286</ele><time>2026-04-03T12:20:39.149Z</time></trkpt><trkpt lat="44.575626" lon="8.7892338"><ele>535.4285714285714</ele><time>2026-04-03T12:20:40.111Z</time></trkpt><trkpt lat="44.5756847" lon="8.7891905"><ele>534.2857142857142</ele><time>2026-04-03T12:20:41.105Z</time></trkpt><trkpt lat="44.5757369" lon="8.7891385"><ele>533.1428571428571</ele><time>2026-04-03T12:20:42.151Z</time></trkpt><trkpt lat="44.5757784" lon="8.7890446"><ele>532.0</ele><time>2026-04-03T12:20:43.165Z</time></trkpt><trkpt lat="44.5757716" lon="8.7889362"><ele>532.0</ele><time>2026-04-03T12:20:44.109Z</time></trkpt><trkpt lat="44.575855" lon="8.7887722"><ele>532.0</ele><time>2026-04-03T12:20:46.155Z</time></trkpt><trkpt lat="44.5758806" lon="8.7886479"><ele>532.0</ele><time>2026-04-03T12:20:47.159Z</time></trkpt><trkpt lat="44.5759245" lon="8.7885491"><ele>532.0</ele><time>2026-04-03T12:20:48.18Z</time></trkpt><trkpt lat="44.5759591" lon="8.7884421"><ele>532.0</ele><time>2026-04-03T12:20:49.149Z</time></trkpt><trkpt lat="44.5760386" lon="8.7883707"><ele>533.4</ele><time>2026-04-03T12:20:51.104Z</time></trkpt><trkpt lat="44.576158" lon="8.7883795"><ele>534.8000000000001</ele><time>2026-04-03T12:20:53.102Z</time></trkpt><trkpt lat="44.5762386" lon="8.7883445"><ele>536.2</ele><time>2026-04-03T12:20:55.101Z</time></trkpt><trkpt lat="44.5763058" lon="8.7882162"><ele>537.6</ele><time>2026-04-03T12:20:57.215Z</time></trkpt><trkpt lat="44.5764213" lon="8.7881492"><ele>539.0</ele><time>2026-04-03T12:20:58.183Z</time></trkpt><trkpt lat="44.5764979" lon="8.7880772"><ele>539.0</ele><time>2026-04-03T12:20:59.168Z</time></trkpt><trkpt lat="44.5765639" lon="8.7879796"><ele>539.0</ele><time>2026-04-03T12:21:00.102Z</time></trkpt><trkpt lat="44.5766446" lon="8.7878656"><ele>539.0</ele><time>2026-04-03T12:21:01.104Z</time></trkpt><trkpt lat="44.5767764" lon="8.787803"><ele>539.0</ele><time>2026-04-03T12:21:02.169Z</time></trkpt><trkpt lat="44.5769709" lon="8.7875775"><ele>541.6666666666666</ele><time>2026-04-03T12:21:04.137Z</time></trkpt><trkpt lat="44.5771403" lon="8.7873441"><ele>544.3333333333334</ele><time>2026-04-03T12:21:06.108Z</time></trkpt><trkpt lat="44.5772238" lon="8.7872317"><ele>547.0</ele><time>2026-04-03T12:21:07.143Z</time></trkpt><trkpt lat="44.5773176" lon="8.7871256"><ele>547.0</ele><time>2026-04-03T12:21:08.174Z</time></trkpt><trkpt lat="44.5774045" lon="8.7870407"><ele>547.0</ele><time>2026-04-03T12:21:09.169Z</time></trkpt><trkpt lat="44.5775002" lon="8.7869384"><ele>547.0</ele><time>2026-04-03T12:21:10.107Z</time></trkpt><trkpt lat="44.5775859" lon="8.786822"><ele>547.0</ele><time>2026-04-03T12:21:11.11Z</time></trkpt><trkpt lat="44.5776629" lon="8.7867132"><ele>548.6</ele><time>2026-04-03T12:21:12.167Z</time></trkpt><trkpt lat="44.5777413" lon="8.7866034"><ele>550.2</ele><time>2026-04-03T12:21:13.133Z</time></trkpt><trkpt lat="44.5778243" lon="8.786498"><ele>551.8</ele><time>2026-04-03T12:21:14.141Z</time></trkpt><trkpt lat="44.5779072" lon="8.7863905"><ele>553.4</ele><time>2026-04-03T12:21:15.104Z</time></trkpt><trkpt lat="44.5779805" lon="8.7862928"><ele>555.0</ele><time>2026-04-03T12:21:16.103Z</time></trkpt><trkpt lat="44.5780572" lon="8.7862002"><ele>555.0</ele><time>2026-04-03T12:21:17.151Z</time></trkpt><trkpt lat="44.5781355" lon="8.7860705"><ele>555.0</ele><time>2026-04-03T12:21:18.153Z</time></trkpt><trkpt lat="44.5782163" lon="8.7859737"><ele>555.0</ele><time>2026-04-03T12:21:19.189Z</time></trkpt><trkpt lat="44.5782838" lon="8.7858678"><ele>555.0</ele><time>2026-04-03T12:21:20.104Z</time></trkpt><trkpt lat="44.5783589" lon="8.7857704"><ele>555.0</ele><time>2026-04-03T12:21:21.103Z</time></trkpt><trkpt lat="44.5784284" lon="8.7856649"><ele>549.6</ele><time>2026-04-03T12:21:22.18Z</time></trkpt><trkpt lat="44.5784854" lon="8.7855701"><ele>544.2</ele><time>2026-04-03T12:21:23.173Z</time></trkpt><trkpt lat="44.5785471" lon="8.7854803"><ele>538.8</ele><time>2026-04-03T12:21:24.158Z</time></trkpt><trkpt lat="44.5785678" lon="8.7853471"><ele>533.4</ele><time>2026-04-03T12:21:25.105Z</time></trkpt><trkpt lat="44.5786265" lon="8.7852196"><ele>528.0</ele><time>2026-04-03T12:21:26.108Z</time></trkpt><trkpt lat="44.5786656" lon="8.7850927"><ele>527.6</ele><time>2026-04-03T12:21:27.107Z</time></trkpt><trkpt lat="44.5787153" lon="8.7849717"><ele>527.1999999999999</ele><time>2026-04-03T12:21:28.107Z</time></trkpt><trkpt lat="44.5787672" lon="8.7848512"><ele>526.8</ele><time>2026-04-03T12:21:29.106Z</time></trkpt><trkpt lat="44.5788247" lon="8.7847269"><ele>526.4</ele><time>2026-04-03T12:21:30.108Z</time></trkpt><trkpt lat="44.5788768" lon="8.7845878"><ele>526.0</ele><time>2026-04-03T12:21:31.188Z</time></trkpt><trkpt lat="44.5789265" lon="8.7844677"><ele>526.0</ele><time>2026-04-03T12:21:32.106Z</time></trkpt><trkpt lat="44.5789904" lon="8.7843642"><ele>526.0</ele><time>2026-04-03T12:21:33.181Z</time></trkpt><trkpt lat="44.5790431" lon="8.784279"><ele>526.0</ele><time>2026-04-03T12:21:34.184Z</time></trkpt><trkpt lat="44.5791169" lon="8.7841696"><ele>526.0</ele><time>2026-04-03T12:21:36.106Z</time></trkpt><trkpt lat="44.5792045" lon="8.7842369"><ele>526.0</ele><time>2026-04-03T12:21:37.205Z</time></trkpt><trkpt lat="44.5792786" lon="8.7843473"><ele>526.0</ele><time>2026-04-03T12:21:39.143Z</time></trkpt><trkpt lat="44.5793233" lon="8.7844652"><ele>526.0</ele><time>2026-04-03T12:21:41.112Z</time></trkpt><trkpt lat="44.5793475" lon="8.7845851"><ele>526.0</ele><time>2026-04-03T12:21:42.19Z</time></trkpt><trkpt lat="44.5793865" lon="8.7846899"><ele>526.0</ele><time>2026-04-03T12:21:43.198Z</time></trkpt><trkpt lat="44.5794132" lon="8.7848214"><ele>526.0</ele><time>2026-04-03T12:21:44.173Z</time></trkpt><trkpt lat="44.57944" lon="8.7849441"><ele>526.0</ele><time>2026-04-03T12:21:45.106Z</time></trkpt><trkpt lat="44.5794635" lon="8.7850394"><ele>526.0</ele><time>2026-04-03T12:21:46.1Z</time></trkpt><trkpt lat="44.5794862" lon="8.7851617"><ele>526.0</ele><time>2026-04-03T12:21:47.179Z</time></trkpt><trkpt lat="44.5795098" lon="8.7852894"><ele>526.0</ele><time>2026-04-03T12:21:48.201Z</time></trkpt><trkpt lat="44.5795305" lon="8.7854218"><ele>526.0</ele><time>2026-04-03T12:21:49.19Z</time></trkpt><trkpt lat="44.5795497" lon="8.7855576"><ele>521.8333333333334</ele><time>2026-04-03T12:21:50.1Z</time></trkpt><trkpt lat="44.5795782" lon="8.785681"><ele>517.6666666666667</ele><time>2026-04-03T12:21:51.105Z</time></trkpt><trkpt lat="44.5795864" lon="8.7858093"><ele>513.5</ele><time>2026-04-03T12:21:52.172Z</time></trkpt><trkpt lat="44.5795865" lon="8.7859314"><ele>509.33333333333337</ele><time>2026-04-03T12:21:53.149Z</time></trkpt><trkpt lat="44.579589" lon="8.7860523"><ele>505.1666666666667</ele><time>2026-04-03T12:21:54.146Z</time></trkpt><trkpt lat="44.5796124" lon="8.7861358"><ele>501.0</ele><time>2026-04-03T12:21:55.109Z</time></trkpt><trkpt lat="44.5796452" lon="8.7862629"><ele>501.0</ele><time>2026-04-03T12:21:56.103Z</time></trkpt><trkpt lat="44.5796773" lon="8.7863726"><ele>501.0</ele><time>2026-04-03T12:21:57.148Z</time></trkpt><trkpt lat="44.5797018" lon="8.786484"><ele>501.0</ele><time>2026-04-03T12:21:58.156Z</time></trkpt><trkpt lat="44.5797232" lon="8.7865708"><ele>501.0</ele><time>2026-04-03T12:21:59.103Z</time></trkpt><trkpt lat="44.5797377" lon="8.7867741"><ele>501.0</ele><time>2026-04-03T12:22:01.143Z</time></trkpt><trkpt lat="44.5797359" lon="8.7868896"><ele>504.4</ele><time>2026-04-03T12:22:02.158Z</time></trkpt><trkpt lat="44.5797258" lon="8.7869957"><ele>507.8</ele><time>2026-04-03T12:22:03.148Z</time></trkpt><trkpt lat="44.5797014" lon="8.7871493"><ele>511.19999999999993</ele><time>2026-04-03T12:22:05.105Z</time></trkpt><trkpt lat="44.579721" lon="8.7872348"><ele>514.6</ele><time>2026-04-03T12:22:06.107Z</time></trkpt><trkpt lat="44.5798017" lon="8.7873687"><ele>518.0</ele><time>2026-04-03T12:22:08.144Z</time></trkpt><trkpt lat="44.5798394" lon="8.7874608"><ele>518.0</ele><time>2026-04-03T12:22:09.142Z</time></trkpt><trkpt lat="44.5798846" lon="8.7875544"><ele>518.0</ele><time>2026-04-03T12:22:10.11Z</time></trkpt><trkpt lat="44.5799325" lon="8.7876428"><ele>518.0</ele><time>2026-04-03T12:22:11.103Z</time></trkpt><trkpt lat="44.5799769" lon="8.7877484"><ele>518.0</ele><time>2026-04-03T12:22:12.146Z</time></trkpt><trkpt lat="44.5800226" lon="8.7878451"><ele>518.0</ele><time>2026-04-03T12:22:13.155Z</time></trkpt><trkpt lat="44.5800876" lon="8.7879482"><ele>518.0</ele><time>2026-04-03T12:22:14.178Z</time></trkpt><trkpt lat="44.5801478" lon="8.7880628"><ele>516.0</ele><time>2026-04-03T12:22:15.106Z</time></trkpt><trkpt lat="44.5802004" lon="8.78816"><ele>514.0</ele><time>2026-04-03T12:22:16.111Z</time></trkpt><trkpt lat="44.5802479" lon="8.788247"><ele>512.0</ele><time>2026-04-03T12:22:17.189Z</time></trkpt><trkpt lat="44.5802876" lon="8.7883291"><ele>510.0</ele><time>2026-04-03T12:22:18.183Z</time></trkpt><trkpt lat="44.5803291" lon="8.7884271"><ele>507.99999999999994</ele><time>2026-04-03T12:22:19.15Z</time></trkpt><trkpt lat="44.5803643" lon="8.7885116"><ele>506.0</ele><time>2026-04-03T12:22:20.108Z</time></trkpt><trkpt lat="44.58037" lon="8.7886009"><ele>506.0</ele><time>2026-04-03T12:22:21.102Z</time></trkpt><trkpt lat="44.5804564" lon="8.788731"><ele>506.0</ele><time>2026-04-03T12:22:23.185Z</time></trkpt><trkpt lat="44.5805643" lon="8.7888245"><ele>506.0</ele><time>2026-04-03T12:22:25.101Z</time></trkpt><trkpt lat="44.5806236" lon="8.7888965"><ele>506.0</ele><time>2026-04-03T12:22:26.107Z</time></trkpt><trkpt lat="44.5806756" lon="8.7889521"><ele>506.0</ele><time>2026-04-03T12:22:27.197Z</time></trkpt><trkpt lat="44.5807288" lon="8.7890133"><ele>506.0</ele><time>2026-04-03T12:22:28.189Z</time></trkpt><trkpt lat="44.5808021" lon="8.7891748"><ele>506.0</ele><time>2026-04-03T12:22:30.107Z</time></trkpt><trkpt lat="44.5808338" lon="8.7892747"><ele>506.0</ele><time>2026-04-03T12:22:31.102Z</time></trkpt><trkpt lat="44.580859" lon="8.7893614"><ele>506.0</ele><time>2026-04-03T12:22:32.174Z</time></trkpt><trkpt lat="44.5808673" lon="8.7895796"><ele>506.0</ele><time>2026-04-03T12:22:34.1Z</time></trkpt><trkpt lat="44.5809102" lon="8.7898307"><ele>509.6</ele><time>2026-04-03T12:22:36.105Z</time></trkpt><trkpt lat="44.5809472" lon="8.7900571"><ele>513.2</ele><time>2026-04-03T12:22:37.999Z</time></trkpt><trkpt lat="44.5809732" lon="8.7901714"><ele>516.8</ele><time>2026-04-03T12:22:39.103Z</time></trkpt><trkpt lat="44.5810024" lon="8.7902704"><ele>520.4</ele><time>2026-04-03T12:22:40.102Z</time></trkpt><trkpt lat="44.581029" lon="8.7903598"><ele>524.0</ele><time>2026-04-03T12:22:41.107Z</time></trkpt><trkpt lat="44.5810677" lon="8.7904312"><ele>523.5</ele><time>2026-04-03T12:22:41.999Z</time></trkpt><trkpt lat="44.5811126" lon="8.7905242"><ele>523.0</ele><time>2026-04-03T12:22:42.999Z</time></trkpt><trkpt lat="44.5811604" lon="8.7906021"><ele>522.5</ele><time>2026-04-03T12:22:44.105Z</time></trkpt><trkpt lat="44.5812213" lon="8.790674"><ele>522.0</ele><time>2026-04-03T12:22:45.102Z</time></trkpt><trkpt lat="44.5812773" lon="8.7907301"><ele>521.5</ele><time>2026-04-03T12:22:46.103Z</time></trkpt><trkpt lat="44.5813317" lon="8.7907784"><ele>521.0</ele><time>2026-04-03T12:22:47.1Z</time></trkpt><trkpt lat="44.5814761" lon="8.7908254"><ele>521.0</ele><time>2026-04-03T12:22:49.101Z</time></trkpt><trkpt lat="44.5815627" lon="8.7908271"><ele>521.0</ele><time>2026-04-03T12:22:50.1Z</time></trkpt><trkpt lat="44.5816516" lon="8.790808"><ele>521.0</ele><time>2026-04-03T12:22:51.106Z</time></trkpt><trkpt lat="44.5817438" lon="8.7908251"><ele>521.0</ele><time>2026-04-03T12:22:52.103Z</time></trkpt><trkpt lat="44.581835" lon="8.7908215"><ele>521.0</ele><time>2026-04-03T12:22:53.104Z</time></trkpt><trkpt lat="44.5819214" lon="8.7908495"><ele>521.0</ele><time>2026-04-03T12:22:54.104Z</time></trkpt><trkpt lat="44.581998" lon="8.7908866"><ele>519.0</ele><time>2026-04-03T12:22:55.105Z</time></trkpt><trkpt lat="44.582058" lon="8.7909253"><ele>517.0</ele><time>2026-04-03T12:22:56.104Z</time></trkpt><trkpt lat="44.5821074" lon="8.7910734"><ele>515.0</ele><time>2026-04-03T12:22:58.102Z</time></trkpt><trkpt lat="44.5821756" lon="8.7911957"><ele>513.0</ele><time>2026-04-03T12:23:00.109Z</time></trkpt><trkpt lat="44.5823125" lon="8.7912389"><ele>511.0</ele><time>2026-04-03T12:23:02.11Z</time></trkpt><trkpt lat="44.5823992" lon="8.7912234"><ele>521.0</ele><time>2026-04-03T12:23:03.211Z</time></trkpt><trkpt lat="44.5825755" lon="8.7911805"><ele>531.0</ele><time>2026-04-03T12:23:05.104Z</time></trkpt><trkpt lat="44.5826369" lon="8.7911001"><ele>541.0</ele><time>2026-04-03T12:23:06.194Z</time></trkpt><trkpt lat="44.5827108" lon="8.7910662"><ele>551.0</ele><time>2026-04-03T12:23:07.105Z</time></trkpt><trkpt lat="44.5828751" lon="8.7911086"><ele>551.6</ele><time>2026-04-03T12:23:09.155Z</time></trkpt><trkpt lat="44.5830567" lon="8.7911315"><ele>552.2</ele><time>2026-04-03T12:23:11.105Z</time></trkpt><trkpt lat="44.583143" lon="8.7911455"><ele>552.8</ele><time>2026-04-03T12:23:12.159Z</time></trkpt><trkpt lat="44.5832331" lon="8.7911678"><ele>553.4</ele><time>2026-04-03T12:23:13.163Z</time></trkpt><trkpt lat="44.5833173" lon="8.7911818"><ele>554.0</ele><time>2026-04-03T12:23:14.137Z</time></trkpt><trkpt lat="44.5834047" lon="8.7911818"><ele>554.0</ele><time>2026-04-03T12:23:15.108Z</time></trkpt><trkpt lat="44.5835067" lon="8.7911827"><ele>554.0</ele><time>2026-04-03T12:23:16.102Z</time></trkpt><trkpt lat="44.5835979" lon="8.7911407"><ele>554.0</ele><time>2026-04-03T12:23:17.165Z</time></trkpt><trkpt lat="44.5836937" lon="8.7911084"><ele>554.0</ele><time>2026-04-03T12:23:18.155Z</time></trkpt><trkpt lat="44.5837939" lon="8.7910491"><ele>554.0</ele><time>2026-04-03T12:23:19.165Z</time></trkpt><trkpt lat="44.5838818" lon="8.7909821"><ele>548.0</ele><time>2026-04-03T12:23:20.108Z</time></trkpt><trkpt lat="44.5839826" lon="8.7909289"><ele>542.0</ele><time>2026-04-03T12:23:21.108Z</time></trkpt><trkpt lat="44.5840771" lon="8.7908763"><ele>536.0</ele><time>2026-04-03T12:23:22.166Z</time></trkpt><trkpt lat="44.5841773" lon="8.7908406"><ele>530.0</ele><time>2026-04-03T12:23:23.173Z</time></trkpt><trkpt lat="44.5842622" lon="8.7907938"><ele>524.0</ele><time>2026-04-03T12:23:24.13Z</time></trkpt><trkpt lat="44.5843179" lon="8.790739"><ele>524.0</ele><time>2026-04-03T12:23:25.103Z</time></trkpt><trkpt lat="44.5843785" lon="8.7906824"><ele>524.0</ele><time>2026-04-03T12:23:26.107Z</time></trkpt><trkpt lat="44.5844393" lon="8.7906466"><ele>524.0</ele><time>2026-04-03T12:23:27.145Z</time></trkpt><trkpt lat="44.5845373" lon="8.7906816"><ele>524.0</ele><time>2026-04-03T12:23:28.172Z</time></trkpt><trkpt lat="44.5846027" lon="8.7906617"><ele>524.0</ele><time>2026-04-03T12:23:29.163Z</time></trkpt><trkpt lat="44.5846788" lon="8.7906145"><ele>524.0</ele><time>2026-04-03T12:23:30.1Z</time></trkpt><trkpt lat="44.5847398" lon="8.7905472"><ele>524.6</ele><time>2026-04-03T12:23:31.113Z</time></trkpt><trkpt lat="44.5847798" lon="8.7904709"><ele>525.2</ele><time>2026-04-03T12:23:32.184Z</time></trkpt><trkpt lat="44.584837" lon="8.7904164"><ele>525.8000000000001</ele><time>2026-04-03T12:23:33.181Z</time></trkpt><trkpt lat="44.5849253" lon="8.7904024"><ele>526.4</ele><time>2026-04-03T12:23:34.158Z</time></trkpt><trkpt lat="44.5850436" lon="8.7903271"><ele>527.0</ele><time>2026-04-03T12:23:36.108Z</time></trkpt><trkpt lat="44.5851408" lon="8.7903689"><ele>527.0</ele><time>2026-04-03T12:23:38.145Z</time></trkpt><trkpt lat="44.5851963" lon="8.7904499"><ele>527.0</ele><time>2026-04-03T12:23:40.104Z</time></trkpt><trkpt lat="44.5852456" lon="8.7907357"><ele>527.0</ele><time>2026-04-03T12:23:42.999Z</time></trkpt><trkpt lat="44.585273" lon="8.7908319"><ele>527.0</ele><time>2026-04-03T12:23:44.114Z</time></trkpt><trkpt lat="44.5852941" lon="8.7909166"><ele>527.0</ele><time>2026-04-03T12:23:45.106Z</time></trkpt><trkpt lat="44.585318" lon="8.7910178"><ele>528.3333333333333</ele><time>2026-04-03T12:23:46.109Z</time></trkpt><trkpt lat="44.5853533" lon="8.7911228"><ele>529.6666666666666</ele><time>2026-04-03T12:23:47.208Z</time></trkpt><trkpt lat="44.5853923" lon="8.7911997"><ele>531.0</ele><time>2026-04-03T12:23:48.164Z</time></trkpt><trkpt lat="44.5854264" lon="8.7912866"><ele>532.3333333333334</ele><time>2026-04-03T12:23:49.203Z</time></trkpt><trkpt lat="44.5854695" lon="8.7914417"><ele>533.6666666666667</ele><time>2026-04-03T12:23:51.106Z</time></trkpt><trkpt lat="44.5854844" lon="8.7915534"><ele>535.0</ele><time>2026-04-03T12:23:52.203Z</time></trkpt><trkpt lat="44.5855179" lon="8.7916522"><ele>535.0</ele><time>2026-04-03T12:23:53.161Z</time></trkpt><trkpt lat="44.5855734" lon="8.7917807"><ele>535.0</ele><time>2026-04-03T12:23:55.102Z</time></trkpt><trkpt lat="44.5856583" lon="8.7917784"><ele>535.0</ele><time>2026-04-03T12:23:56.108Z</time></trkpt><trkpt lat="44.5858" lon="8.7916551"><ele>535.0</ele><time>2026-04-03T12:23:58.999Z</time></trkpt><trkpt lat="44.585916" lon="8.7915806"><ele>535.0</ele><time>2026-04-03T12:24:00.999Z</time></trkpt><trkpt lat="44.5859897" lon="8.7914741"><ele>535.0</ele><time>2026-04-03T12:24:03.143Z</time></trkpt><trkpt lat="44.5860857" lon="8.7913196"><ele>535.0</ele><time>2026-04-03T12:24:05.111Z</time></trkpt><trkpt lat="44.5861506" lon="8.7912685"><ele>535.0</ele><time>2026-04-03T12:24:06.102Z</time></trkpt><trkpt lat="44.586208" lon="8.7912233"><ele>535.0</ele><time>2026-04-03T12:24:07.186Z</time></trkpt><trkpt lat="44.5862675" lon="8.7911883"><ele>534.8</ele><time>2026-04-03T12:24:08.181Z</time></trkpt><trkpt lat="44.586401" lon="8.7912521"><ele>534.6</ele><time>2026-04-03T12:24:10.103Z</time></trkpt><trkpt lat="44.5864637" lon="8.7913099"><ele>534.4</ele><time>2026-04-03T12:24:11.11Z</time></trkpt><trkpt lat="44.5865612" lon="8.7914568"><ele>534.2</ele><time>2026-04-03T12:24:13.158Z</time></trkpt><trkpt lat="44.5866253" lon="8.7915142"><ele>534.0</ele><time>2026-04-03T12:24:14.105Z</time></trkpt><trkpt lat="44.5866738" lon="8.7917036"><ele>534.0</ele><time>2026-04-03T12:24:16.109Z</time></trkpt><trkpt lat="44.5867168" lon="8.7917763"><ele>534.0</ele><time>2026-04-03T12:24:17.165Z</time></trkpt><trkpt lat="44.5867692" lon="8.7918283"><ele>534.0</ele><time>2026-04-03T12:24:18.165Z</time></trkpt><trkpt lat="44.586817" lon="8.7918929"><ele>534.0</ele><time>2026-04-03T12:24:19.184Z</time></trkpt><trkpt lat="44.5869138" lon="8.7919634"><ele>534.0</ele><time>2026-04-03T12:24:21.11Z</time></trkpt><trkpt lat="44.5870672" lon="8.7920151"><ele>536.1666666666666</ele><time>2026-04-03T12:24:23.185Z</time></trkpt><trkpt lat="44.5871689" lon="8.7920569"><ele>538.3333333333334</ele><time>2026-04-03T12:24:24.169Z</time></trkpt><trkpt lat="44.5872293" lon="8.7921049"><ele>540.5</ele><time>2026-04-03T12:24:25.103Z</time></trkpt><trkpt lat="44.587314" lon="8.7921519"><ele>542.6666666666667</ele><time>2026-04-03T12:24:26.103Z</time></trkpt><trkpt lat="44.5873972" lon="8.7921666"><ele>544.8333333333334</ele><time>2026-04-03T12:24:27.189Z</time></trkpt><trkpt lat="44.5874955" lon="8.7921771"><ele>547.0</ele><time>2026-04-03T12:24:28.177Z</time></trkpt><trkpt lat="44.5875842" lon="8.7921852"><ele>547.0</ele><time>2026-04-03T12:24:29.142Z</time></trkpt><trkpt lat="44.5876734" lon="8.7921925"><ele>547.0</ele><time>2026-04-03T12:24:30.103Z</time></trkpt><trkpt lat="44.5877741" lon="8.7922327"><ele>547.0</ele><time>2026-04-03T12:24:31.109Z</time></trkpt><trkpt lat="44.5878524" lon="8.7922361"><ele>547.0</ele><time>2026-04-03T12:24:32.163Z</time></trkpt><trkpt lat="44.5879339" lon="8.7922216"><ele>547.0</ele><time>2026-04-03T12:24:33.19Z</time></trkpt><trkpt lat="44.5880076" lon="8.7921937"><ele>547.0</ele><time>2026-04-03T12:24:34.176Z</time></trkpt><trkpt lat="44.5880781" lon="8.7921506"><ele>543.3333333333334</ele><time>2026-04-03T12:24:35.103Z</time></trkpt><trkpt lat="44.5881481" lon="8.792119"><ele>539.6666666666667</ele><time>2026-04-03T12:24:36.108Z</time></trkpt><trkpt lat="44.5882403" lon="8.7921214"><ele>536.0</ele><time>2026-04-03T12:24:38.118Z</time></trkpt><trkpt lat="44.5882842" lon="8.7921982"><ele>532.3333333333334</ele><time>2026-04-03T12:24:39.166Z</time></trkpt><trkpt lat="44.5883687" lon="8.7923568"><ele>528.6666666666666</ele><time>2026-04-03T12:24:41.101Z</time></trkpt><trkpt lat="44.5884024" lon="8.7924465"><ele>525.0</ele><time>2026-04-03T12:24:42.108Z</time></trkpt><trkpt lat="44.5884365" lon="8.7925255"><ele>531.75</ele><time>2026-04-03T12:24:43.108Z</time></trkpt><trkpt lat="44.5885013" lon="8.7927631"><ele>538.5</ele><time>2026-04-03T12:24:45.105Z</time></trkpt><trkpt lat="44.588566" lon="8.7928999"><ele>545.25</ele><time>2026-04-03T12:24:47.179Z</time></trkpt><trkpt lat="44.58861" lon="8.7930755"><ele>552.0</ele><time>2026-04-03T12:24:49.163Z</time></trkpt><trkpt lat="44.5886529" lon="8.7931426"><ele>550.2</ele><time>2026-04-03T12:24:50.103Z</time></trkpt><trkpt lat="44.5886918" lon="8.7932245"><ele>548.4000000000001</ele><time>2026-04-03T12:24:51.104Z</time></trkpt><trkpt lat="44.5887242" lon="8.7933055"><ele>546.5999999999999</ele><time>2026-04-03T12:24:52.158Z</time></trkpt><trkpt lat="44.5887868" lon="8.793331"><ele>544.8</ele><time>2026-04-03T12:24:53.183Z</time></trkpt><trkpt lat="44.5889017" lon="8.7933081"><ele>543.0</ele><time>2026-04-03T12:24:55.11Z</time></trkpt><trkpt lat="44.5890186" lon="8.7931888"><ele>543.0</ele><time>2026-04-03T12:24:57.2Z</time></trkpt><trkpt lat="44.5890666" lon="8.7931109"><ele>543.0</ele><time>2026-04-03T12:24:58.11Z</time></trkpt><trkpt lat="44.5891247" lon="8.7930242"><ele>543.0</ele><time>2026-04-03T12:24:59.184Z</time></trkpt><trkpt lat="44.5891831" lon="8.7929439"><ele>543.0</ele><time>2026-04-03T12:25:00.109Z</time></trkpt><trkpt lat="44.5892447" lon="8.7928495"><ele>543.0</ele><time>2026-04-03T12:25:01.101Z</time></trkpt><trkpt lat="44.5893084" lon="8.7927526"><ele>543.0</ele><time>2026-04-03T12:25:02.19Z</time></trkpt><trkpt lat="44.5893692" lon="8.792655"><ele>542.0</ele><time>2026-04-03T12:25:03.196Z</time></trkpt><trkpt lat="44.5894612" lon="8.7925697"><ele>541.0</ele><time>2026-04-03T12:25:04.163Z</time></trkpt><trkpt lat="44.589543" lon="8.7924781"><ele>540.0</ele><time>2026-04-03T12:25:05.103Z</time></trkpt><trkpt lat="44.5896376" lon="8.792415"><ele>539.0</ele><time>2026-04-03T12:25:06.116Z</time></trkpt><trkpt lat="44.5897141" lon="8.7923523"><ele>538.0</ele><time>2026-04-03T12:25:07.167Z</time></trkpt><trkpt lat="44.589791" lon="8.7922881"><ele>538.0</ele><time>2026-04-03T12:25:08.189Z</time></trkpt><trkpt lat="44.5898881" lon="8.792249"><ele>538.0</ele><time>2026-04-03T12:25:09.107Z</time></trkpt><trkpt lat="44.5899584" lon="8.7921963"><ele>538.0</ele><time>2026-04-03T12:25:10.105Z</time></trkpt><trkpt lat="44.5900108" lon="8.7921003"><ele>538.0</ele><time>2026-04-03T12:25:11.109Z</time></trkpt><trkpt lat="44.5900616" lon="8.7920147"><ele>538.0</ele><time>2026-04-03T12:25:12.108Z</time></trkpt><trkpt lat="44.5901001" lon="8.7919121"><ele>538.0</ele><time>2026-04-03T12:25:13.101Z</time></trkpt><trkpt lat="44.5901302" lon="8.7918247"><ele>536.1999999999999</ele><time>2026-04-03T12:25:14.192Z</time></trkpt><trkpt lat="44.5902364" lon="8.7917253"><ele>534.4</ele><time>2026-04-03T12:25:16.109Z</time></trkpt><trkpt lat="44.5903024" lon="8.7917161"><ele>532.5999999999999</ele><time>2026-04-03T12:25:17.207Z</time></trkpt><trkpt lat="44.5903835" lon="8.7917405"><ele>530.8</ele><time>2026-04-03T12:25:18.167Z</time></trkpt><trkpt lat="44.590461" lon="8.7918003"><ele>529.0</ele><time>2026-04-03T12:25:19.196Z</time></trkpt><trkpt lat="44.5905293" lon="8.7918787"><ele>529.0</ele><time>2026-04-03T12:25:20.1Z</time></trkpt><trkpt lat="44.5905924" lon="8.7919809"><ele>529.0</ele><time>2026-04-03T12:25:21.108Z</time></trkpt><trkpt lat="44.5906393" lon="8.7920555"><ele>529.0</ele><time>2026-04-03T12:25:22.187Z</time></trkpt><trkpt lat="44.5906664" lon="8.7921354"><ele>529.0</ele><time>2026-04-03T12:25:23.152Z</time></trkpt><trkpt lat="44.5906883" lon="8.7922342"><ele>529.0</ele><time>2026-04-03T12:25:24.173Z</time></trkpt><trkpt lat="44.5906965" lon="8.7924282"><ele>529.0</ele><time>2026-04-03T12:25:26.102Z</time></trkpt><trkpt lat="44.5907125" lon="8.7925428"><ele>529.0</ele><time>2026-04-03T12:25:27.101Z</time></trkpt><trkpt lat="44.5907406" lon="8.7926289"><ele>529.0</ele><time>2026-04-03T12:25:28.173Z</time></trkpt><trkpt lat="44.5907646" lon="8.7927343"><ele>529.0</ele><time>2026-04-03T12:25:29.168Z</time></trkpt><trkpt lat="44.5907867" lon="8.7928369"><ele>529.0</ele><time>2026-04-03T12:25:30.109Z</time></trkpt><trkpt lat="44.5908047" lon="8.7929274"><ele>529.0</ele><time>2026-04-03T12:25:31.108Z</time></trkpt><trkpt lat="44.5908452" lon="8.7930244"><ele>529.0</ele><time>2026-04-03T12:25:32.161Z</time></trkpt><trkpt lat="44.5908834" lon="8.7931184"><ele>529.0</ele><time>2026-04-03T12:25:33.164Z</time></trkpt><trkpt lat="44.5909074" lon="8.7932226"><ele>532.0</ele><time>2026-04-03T12:25:34.148Z</time></trkpt><trkpt lat="44.5909294" lon="8.7933099"><ele>535.0</ele><time>2026-04-03T12:25:35.105Z</time></trkpt><trkpt lat="44.5910024" lon="8.7934659"><ele>538.0</ele><time>2026-04-03T12:25:37.147Z</time></trkpt><trkpt lat="44.5910487" lon="8.7935369"><ele>541.0</ele><time>2026-04-03T12:25:38.159Z</time></trkpt><trkpt lat="44.59111" lon="8.7935864"><ele>544.0</ele><time>2026-04-03T12:25:39.145Z</time></trkpt><trkpt lat="44.5911651" lon="8.7936413"><ele>547.0</ele><time>2026-04-03T12:25:40.107Z</time></trkpt><trkpt lat="44.5912247" lon="8.7937047"><ele>548.1666666666667</ele><time>2026-04-03T12:25:41.108Z</time></trkpt><trkpt lat="44.5912858" lon="8.7937672"><ele>549.3333333333334</ele><time>2026-04-03T12:25:42.143Z</time></trkpt><trkpt lat="44.5913477" lon="8.7938248"><ele>550.5</ele><time>2026-04-03T12:25:43.144Z</time></trkpt><trkpt lat="44.5914151" lon="8.7938937"><ele>551.6666666666666</ele><time>2026-04-03T12:25:44.172Z</time></trkpt><trkpt lat="44.5914884" lon="8.7939451"><ele>552.8333333333333</ele><time>2026-04-03T12:25:45.104Z</time></trkpt><trkpt lat="44.5915668" lon="8.7939794"><ele>554.0</ele><time>2026-04-03T12:25:46.106Z</time></trkpt><trkpt lat="44.5916464" lon="8.7940187"><ele>554.0</ele><time>2026-04-03T12:25:47.101Z</time></trkpt><trkpt lat="44.5917183" lon="8.7940698"><ele>554.0</ele><time>2026-04-03T12:25:48.102Z</time></trkpt><trkpt lat="44.5917663" lon="8.7941389"><ele>554.0</ele><time>2026-04-03T12:25:49.196Z</time></trkpt><trkpt lat="44.5918134" lon="8.7942513"><ele>554.0</ele><time>2026-04-03T12:25:50.107Z</time></trkpt><trkpt lat="44.5918495" lon="8.7943579"><ele>554.0</ele><time>2026-04-03T12:25:51.107Z</time></trkpt><trkpt lat="44.5918778" lon="8.7944565"><ele>554.0</ele><time>2026-04-03T12:25:52.182Z</time></trkpt><trkpt lat="44.5919032" lon="8.7945449"><ele>557.0</ele><time>2026-04-03T12:25:53.157Z</time></trkpt><trkpt lat="44.5919163" lon="8.7946423"><ele>560.0</ele><time>2026-04-03T12:25:54.152Z</time></trkpt><trkpt lat="44.5919525" lon="8.7947791"><ele>563.0</ele><time>2026-04-03T12:25:56.108Z</time></trkpt><trkpt lat="44.5919943" lon="8.7949017"><ele>566.0</ele><time>2026-04-03T12:25:58.152Z</time></trkpt><trkpt lat="44.5922082" lon="8.7949292"><ele>566.0</ele><time>2026-04-03T12:26:00.103Z</time></trkpt><trkpt lat="44.5923031" lon="8.7949456"><ele>566.0</ele><time>2026-04-03T12:26:01.101Z</time></trkpt><trkpt lat="44.592402" lon="8.794954"><ele>566.0</ele><time>2026-04-03T12:26:02.105Z</time></trkpt><trkpt lat="44.5924975" lon="8.7949555"><ele>566.0</ele><time>2026-04-03T12:26:03.174Z</time></trkpt><trkpt lat="44.5925912" lon="8.7949432"><ele>566.0</ele><time>2026-04-03T12:26:04.205Z</time></trkpt><trkpt lat="44.5927805" lon="8.7948788"><ele>566.0</ele><time>2026-04-03T12:26:06.106Z</time></trkpt><trkpt lat="44.5928181" lon="8.7947756"><ele>566.0</ele><time>2026-04-03T12:26:07.209Z</time></trkpt><trkpt lat="44.5928907" lon="8.7947279"><ele>566.0</ele><time>2026-04-03T12:26:08.156Z</time></trkpt><trkpt lat="44.593027" lon="8.7946258"><ele>566.0</ele><time>2026-04-03T12:26:10Z</time></trkpt><trkpt lat="44.5931042" lon="8.7945547"><ele>566.0</ele><time>2026-04-03T12:26:10.999Z</time></trkpt><trkpt lat="44.5931809" lon="8.7945056"><ele>570.75</ele><time>2026-04-03T12:26:12.101Z</time></trkpt><trkpt lat="44.5933482" lon="8.7944404"><ele>575.5</ele><time>2026-04-03T12:26:14Z</time></trkpt><trkpt lat="44.5934347" lon="8.7944191"><ele>580.25</ele><time>2026-04-03T12:26:15.102Z</time></trkpt><trkpt lat="44.5935348" lon="8.7943967"><ele>585.0</ele><time>2026-04-03T12:26:16.101Z</time></trkpt><trkpt lat="44.5936314" lon="8.7943742"><ele>579.6666666666666</ele><time>2026-04-03T12:26:17.1Z</time></trkpt><trkpt lat="44.5938164" lon="8.7943297"><ele>574.3333333333333</ele><time>2026-04-03T12:26:19.105Z</time></trkpt><trkpt lat="44.5939033" lon="8.794282"><ele>569.0</ele><time>2026-04-03T12:26:20.104Z</time></trkpt><trkpt lat="44.5941036" lon="8.7941763"><ele>569.0</ele><time>2026-04-03T12:26:21.999Z</time></trkpt><trkpt lat="44.5942068" lon="8.7941472"><ele>569.0</ele><time>2026-04-03T12:26:22.999Z</time></trkpt><trkpt lat="44.5942776" lon="8.7940837"><ele>569.0</ele><time>2026-04-03T12:26:23.999Z</time></trkpt><trkpt lat="44.5943452" lon="8.7940363"><ele>569.0</ele><time>2026-04-03T12:26:25.104Z</time></trkpt><trkpt lat="44.5944204" lon="8.7939737"><ele>569.0</ele><time>2026-04-03T12:26:26.103Z</time></trkpt><trkpt lat="44.5944907" lon="8.7939297"><ele>569.0</ele><time>2026-04-03T12:26:27.102Z</time></trkpt><trkpt lat="44.5945628" lon="8.7938889"><ele>567.0</ele><time>2026-04-03T12:26:28.108Z</time></trkpt><trkpt lat="44.5946344" lon="8.7938321"><ele>565.0</ele><time>2026-04-03T12:26:29.107Z</time></trkpt><trkpt lat="44.5947333" lon="8.7937284"><ele>563.0</ele><time>2026-04-03T12:26:31.112Z</time></trkpt><trkpt lat="44.5947742" lon="8.7935796"><ele>561.0</ele><time>2026-04-03T12:26:33.105Z</time></trkpt><trkpt lat="44.5948359" lon="8.7934297"><ele>559.0</ele><time>2026-04-03T12:26:35.108Z</time></trkpt><trkpt lat="44.5948998" lon="8.7933263"><ele>559.0</ele><time>2026-04-03T12:26:37.999Z</time></trkpt><trkpt lat="44.594959" lon="8.7932577"><ele>559.0</ele><time>2026-04-03T12:26:41.107Z</time></trkpt><trkpt lat="44.5950241" lon="8.7932388"><ele>559.0</ele><time>2026-04-03T12:26:46.102Z</time></trkpt><trkpt lat="44.5950066" lon="8.793346"><ele>559.0</ele><time>2026-04-03T12:33:50.166Z</time></trkpt><trkpt lat="44.5949752" lon="8.7932617"><ele>559.0</ele><time>2026-04-03T12:34:22.999Z</time></trkpt><trkpt lat="44.5950469" lon="8.7933052"><ele>559.0</ele><time>2026-04-03T12:34:53.102Z</time></trkpt><trkpt lat="44.5950956" lon="8.7933807"><ele>559.0</ele><time>2026-04-03T12:35:16.101Z</time></trkpt><trkpt lat="44.5951467" lon="8.7934645"><ele>559.2</ele><time>2026-04-03T12:35:18.999Z</time></trkpt><trkpt lat="44.5952363" lon="8.7936362"><ele>559.4</ele><time>2026-04-03T12:35:22.102Z</time></trkpt><trkpt lat="44.5952896" lon="8.7937482"><ele>559.6</ele><time>2026-04-03T12:35:23.104Z</time></trkpt><trkpt lat="44.5953593" lon="8.7938329"><ele>559.8</ele><time>2026-04-03T12:35:24.108Z</time></trkpt><trkpt lat="44.595434" lon="8.7939005"><ele>560.0</ele><time>2026-04-03T12:35:25.104Z</time></trkpt><trkpt lat="44.5955106" lon="8.7939805"><ele>560.0</ele><time>2026-04-03T12:35:26.106Z</time></trkpt><trkpt lat="44.5955781" lon="8.7940587"><ele>560.0</ele><time>2026-04-03T12:35:26.999Z</time></trkpt><trkpt lat="44.5956224" lon="8.7941538"><ele>560.0</ele><time>2026-04-03T12:35:28.102Z</time></trkpt><trkpt lat="44.5957286" lon="8.7942915"><ele>560.0</ele><time>2026-04-03T12:35:30.105Z</time></trkpt><trkpt lat="44.5959482" lon="8.7943372"><ele>560.0</ele><time>2026-04-03T12:35:33.11Z</time></trkpt><trkpt lat="44.5960927" lon="8.7944413"><ele>560.0</ele><time>2026-04-03T12:35:34.999Z</time></trkpt><trkpt lat="44.5961565" lon="8.7945258"><ele>560.0</ele><time>2026-04-03T12:35:35.999Z</time></trkpt><trkpt lat="44.5962248" lon="8.79462"><ele>560.0</ele><time>2026-04-03T12:35:37.1Z</time></trkpt><trkpt lat="44.5963528" lon="8.7948325"><ele>560.0</ele><time>2026-04-03T12:35:38.999Z</time></trkpt><trkpt lat="44.5964149" lon="8.7949207"><ele>560.0</ele><time>2026-04-03T12:35:40Z</time></trkpt><trkpt lat="44.596475" lon="8.7949793"><ele>560.0</ele><time>2026-04-03T12:35:41Z</time></trkpt><trkpt lat="44.5965427" lon="8.7950767"><ele>560.0</ele><time>2026-04-03T12:35:41.999Z</time></trkpt><trkpt lat="44.5966022" lon="8.7951718"><ele>560.0</ele><time>2026-04-03T12:35:42.999Z</time></trkpt><trkpt lat="44.5966622" lon="8.7952586"><ele>560.0</ele><time>2026-04-03T12:35:43.999Z</time></trkpt><trkpt lat="44.5967237" lon="8.7953409"><ele>563.2</ele><time>2026-04-03T12:35:45Z</time></trkpt><trkpt lat="44.5967807" lon="8.7954317"><ele>566.4</ele><time>2026-04-03T12:35:46Z</time></trkpt><trkpt lat="44.5968171" lon="8.7955383"><ele>569.6</ele><time>2026-04-03T12:35:46.999Z</time></trkpt><trkpt lat="44.5968462" lon="8.7956973"><ele>572.8</ele><time>2026-04-03T12:35:47.999Z</time></trkpt><trkpt lat="44.5968852" lon="8.7958292"><ele>576.0</ele><time>2026-04-03T12:35:48.999Z</time></trkpt><trkpt lat="44.5969343" lon="8.7959705"><ele>578.5</ele><time>2026-04-03T12:35:49.999Z</time></trkpt><trkpt lat="44.5970022" lon="8.7961235"><ele>581.0</ele><time>2026-04-03T12:35:51.1Z</time></trkpt><trkpt lat="44.5970627" lon="8.7962215"><ele>583.5</ele><time>2026-04-03T12:35:52.1Z</time></trkpt><trkpt lat="44.5971481" lon="8.7965063"><ele>586.0</ele><time>2026-04-03T12:35:53.999Z</time></trkpt><trkpt lat="44.5972121" lon="8.7966407"><ele>580.75</ele><time>2026-04-03T12:35:56.102Z</time></trkpt><trkpt lat="44.5973531" lon="8.7967083"><ele>575.5</ele><time>2026-04-03T12:35:57.999Z</time></trkpt><trkpt lat="44.5974133" lon="8.7967431"><ele>570.25</ele><time>2026-04-03T12:35:58.999Z</time></trkpt><trkpt lat="44.5974874" lon="8.796882"><ele>565.0</ele><time>2026-04-03T12:36:01.102Z</time></trkpt><trkpt lat="44.5975252" lon="8.7970319"><ele>565.0</ele><time>2026-04-03T12:36:03.104Z</time></trkpt><trkpt lat="44.5975567" lon="8.7972686"><ele>565.0</ele><time>2026-04-03T12:36:05.101Z</time></trkpt><trkpt lat="44.5976296" lon="8.7974648"><ele>565.0</ele><time>2026-04-03T12:36:06.999Z</time></trkpt><trkpt lat="44.597668" lon="8.797576"><ele>565.0</ele><time>2026-04-03T12:36:07.999Z</time></trkpt><trkpt lat="44.5977103" lon="8.79769"><ele>566.4</ele><time>2026-04-03T12:36:08.999Z</time></trkpt><trkpt lat="44.5977508" lon="8.7978161"><ele>567.8</ele><time>2026-04-03T12:36:10Z</time></trkpt><trkpt lat="44.5978036" lon="8.7979315"><ele>569.2</ele><time>2026-04-03T12:36:10.999Z</time></trkpt><trkpt lat="44.5978487" lon="8.798049"><ele>570.6</ele><time>2026-04-03T12:36:11.999Z</time></trkpt><trkpt lat="44.5978891" lon="8.7981879"><ele>572.0</ele><time>2026-04-03T12:36:12.999Z</time></trkpt><trkpt lat="44.5979264" lon="8.7983199"><ele>566.4</ele><time>2026-04-03T12:36:14Z</time></trkpt><trkpt lat="44.5979645" lon="8.7984538"><ele>560.8000000000001</ele><time>2026-04-03T12:36:15Z</time></trkpt><trkpt lat="44.5979921" lon="8.7985422"><ele>555.2</ele><time>2026-04-03T12:36:15.999Z</time></trkpt><trkpt lat="44.5980216" lon="8.7986938"><ele>549.6</ele><time>2026-04-03T12:36:18.101Z</time></trkpt><trkpt lat="44.5979839" lon="8.798836"><ele>544.0</ele><time>2026-04-03T12:36:19.999Z</time></trkpt><trkpt lat="44.5979614" lon="8.7989585"><ele>544.0</ele><time>2026-04-03T12:36:22Z</time></trkpt><trkpt lat="44.59791" lon="8.7990827"><ele>544.0</ele><time>2026-04-03T12:36:23.999Z</time></trkpt><trkpt lat="44.5978976" lon="8.7992846"><ele>544.0</ele><time>2026-04-03T12:36:25.999Z</time></trkpt><trkpt lat="44.5979229" lon="8.7994243"><ele>544.0</ele><time>2026-04-03T12:36:26.999Z</time></trkpt><trkpt lat="44.5979492" lon="8.7995717"><ele>545.3333333333334</ele><time>2026-04-03T12:36:28.103Z</time></trkpt><trkpt lat="44.5980293" lon="8.7998055"><ele>546.6666666666666</ele><time>2026-04-03T12:36:30.1Z</time></trkpt><trkpt lat="44.5980801" lon="8.8000787"><ele>548.0</ele><time>2026-04-03T12:36:32.101Z</time></trkpt><trkpt lat="44.5981809" lon="8.8003006"><ele>549.25</ele><time>2026-04-03T12:36:33.999Z</time></trkpt><trkpt lat="44.5982273" lon="8.8004189"><ele>550.5</ele><time>2026-04-03T12:36:34.999Z</time></trkpt><trkpt lat="44.5982684" lon="8.80053"><ele>551.75</ele><time>2026-04-03T12:36:36Z</time></trkpt><trkpt lat="44.5983179" lon="8.8006542"><ele>553.0</ele><time>2026-04-03T12:36:37.103Z</time></trkpt><trkpt lat="44.5983834" lon="8.8009274"><ele>553.0</ele><time>2026-04-03T12:36:39.101Z</time></trkpt><trkpt lat="44.5984054" lon="8.8010522"><ele>553.0</ele><time>2026-04-03T12:36:40.1Z</time></trkpt><trkpt lat="44.5984582" lon="8.8012609"><ele>553.0</ele><time>2026-04-03T12:36:42.1Z</time></trkpt><trkpt lat="44.5985079" lon="8.8014597"><ele>553.0</ele><time>2026-04-03T12:36:43.999Z</time></trkpt><trkpt lat="44.5985266" lon="8.801586"><ele>551.3333333333334</ele><time>2026-04-03T12:36:45.102Z</time></trkpt><trkpt lat="44.5985956" lon="8.80188"><ele>549.6666666666666</ele><time>2026-04-03T12:36:46.999Z</time></trkpt><trkpt lat="44.5986387" lon="8.8020492"><ele>548.0</ele><time>2026-04-03T12:36:48.101Z</time></trkpt><trkpt lat="44.5987035" lon="8.8023569"><ele>548.0</ele><time>2026-04-03T12:36:50Z</time></trkpt><trkpt lat="44.5987185" lon="8.8024959"><ele>548.0</ele><time>2026-04-03T12:36:50.999Z</time></trkpt><trkpt lat="44.5987656" lon="8.8025947"><ele>548.0</ele><time>2026-04-03T12:36:51.999Z</time></trkpt><trkpt lat="44.598801" lon="8.8026771"><ele>548.0</ele><time>2026-04-03T12:36:52.998Z</time></trkpt><trkpt lat="44.5988703" lon="8.8027805"><ele>548.0</ele><time>2026-04-03T12:36:53.999Z</time></trkpt><trkpt lat="44.5989162" lon="8.8029007"><ele>549.0</ele><time>2026-04-03T12:36:54.999Z</time></trkpt><trkpt lat="44.598962" lon="8.8030063"><ele>550.0</ele><time>2026-04-03T12:36:55.999Z</time></trkpt><trkpt lat="44.5989996" lon="8.8031085"><ele>551.0</ele><time>2026-04-03T12:36:56.999Z</time></trkpt><trkpt lat="44.5990349" lon="8.8032292"><ele>552.0</ele><time>2026-04-03T12:36:57.999Z</time></trkpt><trkpt lat="44.5990596" lon="8.8033372"><ele>553.0</ele><time>2026-04-03T12:36:58.999Z</time></trkpt><trkpt lat="44.5990858" lon="8.803458"><ele>554.0</ele><time>2026-04-03T12:36:59.999Z</time></trkpt><trkpt lat="44.5991132" lon="8.8035946"><ele>555.8</ele><time>2026-04-03T12:37:00.999Z</time></trkpt><trkpt lat="44.5991432" lon="8.8037002"><ele>557.5999999999999</ele><time>2026-04-03T12:37:01.999Z</time></trkpt><trkpt lat="44.5991645" lon="8.8038294"><ele>559.4</ele><time>2026-04-03T12:37:03Z</time></trkpt><trkpt lat="44.5991861" lon="8.8039717"><ele>561.1999999999999</ele><time>2026-04-03T12:37:03.999Z</time></trkpt><trkpt lat="44.5992121" lon="8.8041223"><ele>563.0</ele><time>2026-04-03T12:37:04.999Z</time></trkpt><trkpt lat="44.5992362" lon="8.804257"><ele>565.25</ele><time>2026-04-03T12:37:05.999Z</time></trkpt><trkpt lat="44.5992675" lon="8.8043707"><ele>567.5</ele><time>2026-04-03T12:37:06.999Z</time></trkpt><trkpt lat="44.5992947" lon="8.8044856"><ele>569.75</ele><time>2026-04-03T12:37:08.104Z</time></trkpt><trkpt lat="44.5993779" lon="8.8047448"><ele>572.0</ele><time>2026-04-03T12:37:09.999Z</time></trkpt><trkpt lat="44.5994074" lon="8.8048715"><ele>572.0</ele><time>2026-04-03T12:37:10.999Z</time></trkpt><trkpt lat="44.5994437" lon="8.8049639"><ele>572.0</ele><time>2026-04-03T12:37:11.999Z</time></trkpt><trkpt lat="44.5994865" lon="8.8050705"><ele>572.0</ele><time>2026-04-03T12:37:12.999Z</time></trkpt><trkpt lat="44.599511" lon="8.8052043"><ele>572.0</ele><time>2026-04-03T12:37:13.999Z</time></trkpt><trkpt lat="44.5995451" lon="8.8052938"><ele>572.0</ele><time>2026-04-03T12:37:15.1Z</time></trkpt><trkpt lat="44.5995725" lon="8.8055867"><ele>571.2</ele><time>2026-04-03T12:37:16.999Z</time></trkpt><trkpt lat="44.5995879" lon="8.805723"><ele>570.4000000000001</ele><time>2026-04-03T12:37:17.999Z</time></trkpt><trkpt lat="44.5995866" lon="8.8058604"><ele>569.5999999999999</ele><time>2026-04-03T12:37:19.106Z</time></trkpt><trkpt lat="44.5995919" lon="8.8059873"><ele>568.8</ele><time>2026-04-03T12:37:19.999Z</time></trkpt><trkpt lat="44.599592" lon="8.8061299"><ele>568.0</ele><time>2026-04-03T12:37:20.999Z</time></trkpt><trkpt lat="44.5996008" lon="8.8062404"><ele>568.0</ele><time>2026-04-03T12:37:21.999Z</time></trkpt><trkpt lat="44.5996283" lon="8.8063663"><ele>568.0</ele><time>2026-04-03T12:37:23.105Z</time></trkpt><trkpt lat="44.5996767" lon="8.8066008"><ele>568.0</ele><time>2026-04-03T12:37:24.999Z</time></trkpt><trkpt lat="44.5996924" lon="8.8067292"><ele>568.0</ele><time>2026-04-03T12:37:25.999Z</time></trkpt><trkpt lat="44.5997037" lon="8.8068513"><ele>568.0</ele><time>2026-04-03T12:37:26.999Z</time></trkpt><trkpt lat="44.5997437" lon="8.8069702"><ele>567.5</ele><time>2026-04-03T12:37:28.999Z</time></trkpt><trkpt lat="44.5997405" lon="8.8070973"><ele>567.0</ele><time>2026-04-03T12:37:32Z</time></trkpt><trkpt lat="44.5997554" lon="8.8072191"><ele>566.5</ele><time>2026-04-03T12:37:55.104Z</time></trkpt><trkpt lat="44.5998056" lon="8.807299"><ele>566.0</ele><time>2026-04-03T12:37:57.102Z</time></trkpt><trkpt lat="44.59986" lon="8.8073801"><ele>565.5</ele><time>2026-04-03T12:37:58.999Z</time></trkpt><trkpt lat="44.5999502" lon="8.8073979"><ele>565.0</ele><time>2026-04-03T12:38:00.103Z</time></trkpt><trkpt lat="44.6000658" lon="8.8074319"><ele>565.0</ele><time>2026-04-03T12:38:02.101Z</time></trkpt><trkpt lat="44.6001712" lon="8.8074085"><ele>565.0</ele><time>2026-04-03T12:38:03.999Z</time></trkpt><trkpt lat="44.6003069" lon="8.8073665"><ele>565.0</ele><time>2026-04-03T12:38:06.999Z</time></trkpt><trkpt lat="44.6004644" lon="8.8074004"><ele>565.0</ele><time>2026-04-03T12:38:08.999Z</time></trkpt><trkpt lat="44.6005498" lon="8.8074624"><ele>565.5</ele><time>2026-04-03T12:38:10Z</time></trkpt><trkpt lat="44.600612" lon="8.8075119"><ele>566.0</ele><time>2026-04-03T12:38:10.999Z</time></trkpt><trkpt lat="44.6006877" lon="8.807543"><ele>566.5</ele><time>2026-04-03T12:38:11.999Z</time></trkpt><trkpt lat="44.6007533" lon="8.8075694"><ele>567.0</ele><time>2026-04-03T12:38:12.999Z</time></trkpt><trkpt lat="44.6008182" lon="8.8075681"><ele>567.5</ele><time>2026-04-03T12:38:13.999Z</time></trkpt><trkpt lat="44.6009112" lon="8.8074836"><ele>568.0</ele><time>2026-04-03T12:38:15.999Z</time></trkpt><trkpt lat="44.6009685" lon="8.807414"><ele>568.0</ele><time>2026-04-03T12:38:17Z</time></trkpt><trkpt lat="44.6010242" lon="8.8073447"><ele>568.0</ele><time>2026-04-03T12:38:18.112Z</time></trkpt><trkpt lat="44.6010866" lon="8.8072653"><ele>568.0</ele><time>2026-04-03T12:38:19.105Z</time></trkpt><trkpt lat="44.601155" lon="8.8072133"><ele>568.0</ele><time>2026-04-03T12:38:20.107Z</time></trkpt><trkpt lat="44.6012197" lon="8.8071845"><ele>568.0</ele><time>2026-04-03T12:38:21.105Z</time></trkpt><trkpt lat="44.6013503" lon="8.8071618"><ele>568.0</ele><time>2026-04-03T12:38:23.104Z</time></trkpt><trkpt lat="44.6014219" lon="8.8071549"><ele>567.2857142857142</ele><time>2026-04-03T12:38:24.103Z</time></trkpt><trkpt lat="44.6014879" lon="8.8071448"><ele>566.5714285714286</ele><time>2026-04-03T12:38:24.999Z</time></trkpt><trkpt lat="44.6015547" lon="8.8071201"><ele>565.8571428571429</ele><time>2026-04-03T12:38:26.104Z</time></trkpt><trkpt lat="44.6016245" lon="8.8070919"><ele>565.1428571428571</ele><time>2026-04-03T12:38:27.111Z</time></trkpt><trkpt lat="44.6016836" lon="8.8070504"><ele>564.4285714285714</ele><time>2026-04-03T12:38:28.102Z</time></trkpt><trkpt lat="44.6017485" lon="8.8069916"><ele>563.7142857142857</ele><time>2026-04-03T12:38:29.106Z</time></trkpt><trkpt lat="44.6018113" lon="8.8069413"><ele>563.0</ele><time>2026-04-03T12:38:30.112Z</time></trkpt><trkpt lat="44.6018803" lon="8.8068904"><ele>563.0</ele><time>2026-04-03T12:38:31.107Z</time></trkpt><trkpt lat="44.6019476" lon="8.806836"><ele>563.0</ele><time>2026-04-03T12:38:32.106Z</time></trkpt><trkpt lat="44.6020828" lon="8.8067366"><ele>563.0</ele><time>2026-04-03T12:38:34.105Z</time></trkpt><trkpt lat="44.602147" lon="8.8066981"><ele>563.0</ele><time>2026-04-03T12:38:35.106Z</time></trkpt><trkpt lat="44.6022717" lon="8.8066135"><ele>563.0</ele><time>2026-04-03T12:38:37.106Z</time></trkpt><trkpt lat="44.6023442" lon="8.8065722"><ele>569.25</ele><time>2026-04-03T12:38:38.105Z</time></trkpt><trkpt lat="44.6024153" lon="8.8065351"><ele>575.5</ele><time>2026-04-03T12:38:39.106Z</time></trkpt><trkpt lat="44.6025229" lon="8.8065428"><ele>581.75</ele><time>2026-04-03T12:38:41.109Z</time></trkpt><trkpt lat="44.6027108" lon="8.8066515"><ele>588.0</ele><time>2026-04-03T12:38:43.999Z</time></trkpt><trkpt lat="44.6027746" lon="8.806682"><ele>587.3333333333334</ele><time>2026-04-03T12:38:45.101Z</time></trkpt><trkpt lat="44.602838" lon="8.8067256"><ele>586.6666666666666</ele><time>2026-04-03T12:38:46.123Z</time></trkpt><trkpt lat="44.6029141" lon="8.8067957"><ele>586.0</ele><time>2026-04-03T12:38:47.146Z</time></trkpt><trkpt lat="44.6029723" lon="8.8068709"><ele>585.3333333333333</ele><time>2026-04-03T12:38:48.118Z</time></trkpt><trkpt lat="44.6030167" lon="8.8069565"><ele>584.6666666666666</ele><time>2026-04-03T12:38:49.107Z</time></trkpt><trkpt lat="44.6030612" lon="8.8070196"><ele>584.0</ele><time>2026-04-03T12:38:50.101Z</time></trkpt><trkpt lat="44.6031336" lon="8.8071059"><ele>584.0</ele><time>2026-04-03T12:38:52.175Z</time></trkpt><trkpt lat="44.6032019" lon="8.8071189"><ele>584.0</ele><time>2026-04-03T12:38:54.1Z</time></trkpt><trkpt lat="44.6032306" lon="8.8069835"><ele>584.0</ele><time>2026-04-03T12:38:57.999Z</time></trkpt><trkpt lat="44.6031801" lon="8.8069299"><ele>584.0</ele><time>2026-04-03T12:38:59.103Z</time></trkpt><trkpt lat="44.6030992" lon="8.8068137"><ele>584.0</ele><time>2026-04-03T12:39:01.146Z</time></trkpt><trkpt lat="44.6030364" lon="8.8066734"><ele>584.8</ele><time>2026-04-03T12:39:03.109Z</time></trkpt><trkpt lat="44.6029612" lon="8.8065073"><ele>585.5999999999999</ele><time>2026-04-03T12:39:05.11Z</time></trkpt><trkpt lat="44.6029186" lon="8.8064188"><ele>586.4</ele><time>2026-04-03T12:39:06.171Z</time></trkpt><trkpt lat="44.6028739" lon="8.8063342"><ele>587.1999999999999</ele><time>2026-04-03T12:39:07.185Z</time></trkpt><trkpt lat="44.6028153" lon="8.8062511"><ele>588.0</ele><time>2026-04-03T12:39:08.177Z</time></trkpt><trkpt lat="44.6027516" lon="8.8061756"><ele>588.0</ele><time>2026-04-03T12:39:09.106Z</time></trkpt><trkpt lat="44.6026904" lon="8.8060968"><ele>588.0</ele><time>2026-04-03T12:39:10.105Z</time></trkpt><trkpt lat="44.6026308" lon="8.806038"><ele>588.0</ele><time>2026-04-03T12:39:11.161Z</time></trkpt><trkpt lat="44.6025658" lon="8.8059792"><ele>588.0</ele><time>2026-04-03T12:39:12.188Z</time></trkpt><trkpt lat="44.602501" lon="8.805943"><ele>588.0</ele><time>2026-04-03T12:39:13.137Z</time></trkpt><trkpt lat="44.6024002" lon="8.805879"><ele>588.0</ele><time>2026-04-03T12:39:15.112Z</time></trkpt><trkpt lat="44.6023325" lon="8.8058321"><ele>592.0</ele><time>2026-04-03T12:39:16.15Z</time></trkpt><trkpt lat="44.6023328" lon="8.8056481"><ele>596.0</ele><time>2026-04-03T12:39:18.999Z</time></trkpt><trkpt lat="44.6024188" lon="8.8055832"><ele>600.0</ele><time>2026-04-03T12:39:20.106Z</time></trkpt><trkpt lat="44.6024843" lon="8.8055126"><ele>604.0</ele><time>2026-04-03T12:39:21.11Z</time></trkpt><trkpt lat="44.6025694" lon="8.8054687"><ele>608.0</ele><time>2026-04-03T12:39:22.146Z</time></trkpt><trkpt lat="44.6027242" lon="8.8053373"><ele>608.0</ele><time>2026-04-03T12:39:23.999Z</time></trkpt><trkpt lat="44.6028095" lon="8.8052578"><ele>608.0</ele><time>2026-04-03T12:39:25.151Z</time></trkpt><trkpt lat="44.6028782" lon="8.8051754"><ele>608.0</ele><time>2026-04-03T12:39:26.21Z</time></trkpt><trkpt lat="44.6029606" lon="8.8050906"><ele>608.0</ele><time>2026-04-03T12:39:27.186Z</time></trkpt><trkpt lat="44.6030399" lon="8.8049532"><ele>608.0</ele><time>2026-04-03T12:39:28.166Z</time></trkpt><trkpt lat="44.6030873" lon="8.8048565"><ele>613.1999999999999</ele><time>2026-04-03T12:39:29.101Z</time></trkpt><trkpt lat="44.603143" lon="8.8047669"><ele>618.4</ele><time>2026-04-03T12:39:30.104Z</time></trkpt><trkpt lat="44.6031957" lon="8.8046799"><ele>623.5999999999999</ele><time>2026-04-03T12:39:31.166Z</time></trkpt><trkpt lat="44.6032222" lon="8.8045982"><ele>628.8</ele><time>2026-04-03T12:39:32.166Z</time></trkpt><trkpt lat="44.603177" lon="8.8043824"><ele>634.0</ele><time>2026-04-03T12:39:34.104Z</time></trkpt><trkpt lat="44.6031514" lon="8.8042755"><ele>634.0</ele><time>2026-04-03T12:39:35.107Z</time></trkpt><trkpt lat="44.6031366" lon="8.8041885"><ele>634.0</ele><time>2026-04-03T12:39:36.106Z</time></trkpt><trkpt lat="44.6031384" lon="8.8040702"><ele>634.0</ele><time>2026-04-03T12:39:37.106Z</time></trkpt><trkpt lat="44.6031449" lon="8.8039406"><ele>634.0</ele><time>2026-04-03T12:39:38.146Z</time></trkpt><trkpt lat="44.6031509" lon="8.8037781"><ele>634.0</ele><time>2026-04-03T12:39:39.105Z</time></trkpt><trkpt lat="44.6031569" lon="8.8035991"><ele>635.25</ele><time>2026-04-03T12:39:40.102Z</time></trkpt><trkpt lat="44.6031556" lon="8.8034486"><ele>636.5</ele><time>2026-04-03T12:39:41.178Z</time></trkpt><trkpt lat="44.6031265" lon="8.8033089"><ele>637.75</ele><time>2026-04-03T12:39:42.18Z</time></trkpt><trkpt lat="44.6030385" lon="8.8030716"><ele>639.0</ele><time>2026-04-03T12:39:45.106Z</time></trkpt><trkpt lat="44.6029923" lon="8.8029055"><ele>639.0</ele><time>2026-04-03T12:39:47.146Z</time></trkpt><trkpt lat="44.6029924" lon="8.8027896"><ele>639.0</ele><time>2026-04-03T12:39:48.183Z</time></trkpt><trkpt lat="44.6030652" lon="8.8026285"><ele>639.0</ele><time>2026-04-03T12:39:49.109Z</time></trkpt><trkpt lat="44.6031262" lon="8.8025069"><ele>639.0</ele><time>2026-04-03T12:39:50.108Z</time></trkpt><trkpt lat="44.6031881" lon="8.802392"><ele>639.0</ele><time>2026-04-03T12:39:51.152Z</time></trkpt><trkpt lat="44.6032577" lon="8.8022979"><ele>639.8</ele><time>2026-04-03T12:39:52.161Z</time></trkpt><trkpt lat="44.6033355" lon="8.8022605"><ele>640.5999999999999</ele><time>2026-04-03T12:39:53.174Z</time></trkpt><trkpt lat="44.6034111" lon="8.8021999"><ele>641.4</ele><time>2026-04-03T12:39:54.109Z</time></trkpt><trkpt lat="44.6034845" lon="8.8021267"><ele>642.1999999999999</ele><time>2026-04-03T12:39:55.108Z</time></trkpt><trkpt lat="44.603548" lon="8.8020388"><ele>643.0</ele><time>2026-04-03T12:39:56.185Z</time></trkpt><trkpt lat="44.6034993" lon="8.8018936"><ele>642.1999999999999</ele><time>2026-04-03T12:39:57.184Z</time></trkpt><trkpt lat="44.6034868" lon="8.8017923"><ele>641.4</ele><time>2026-04-03T12:39:58.185Z</time></trkpt><trkpt lat="44.6034837" lon="8.8016677"><ele>640.5999999999999</ele><time>2026-04-03T12:39:59.112Z</time></trkpt><trkpt lat="44.6034918" lon="8.8015693"><ele>639.8</ele><time>2026-04-03T12:40:00.107Z</time></trkpt><trkpt lat="44.6035168" lon="8.8014276"><ele>639.0</ele><time>2026-04-03T12:40:01.155Z</time></trkpt><trkpt lat="44.6035263" lon="8.8012331"><ele>639.0</ele><time>2026-04-03T12:40:02.155Z</time></trkpt><trkpt lat="44.6035474" lon="8.8011056"><ele>639.0</ele><time>2026-04-03T12:40:03.162Z</time></trkpt><trkpt lat="44.6035672" lon="8.8008779"><ele>639.0</ele><time>2026-04-03T12:40:05.102Z</time></trkpt><trkpt lat="44.6036065" lon="8.8007629"><ele>639.0</ele><time>2026-04-03T12:40:06.161Z</time></trkpt><trkpt lat="44.6036738" lon="8.8006454"><ele>647.5</ele><time>2026-04-03T12:40:07.124Z</time></trkpt><trkpt lat="44.6037148" lon="8.8005245"><ele>656.0</ele><time>2026-04-03T12:40:08.149Z</time></trkpt><trkpt lat="44.603752" lon="8.8003633"><ele>664.5</ele><time>2026-04-03T12:40:09.101Z</time></trkpt><trkpt lat="44.6037866" lon="8.800192"><ele>673.0</ele><time>2026-04-03T12:40:10.11Z</time></trkpt><trkpt lat="44.6038266" lon="8.8000297"><ele>673.0</ele><time>2026-04-03T12:40:11.104Z</time></trkpt><trkpt lat="44.6038536" lon="8.7998722"><ele>673.0</ele><time>2026-04-03T12:40:12.105Z</time></trkpt><trkpt lat="44.603892" lon="8.7997244"><ele>673.0</ele><time>2026-04-03T12:40:13.199Z</time></trkpt><trkpt lat="44.6039278" lon="8.799581"><ele>673.0</ele><time>2026-04-03T12:40:14.105Z</time></trkpt><trkpt lat="44.6039476" lon="8.7994264"><ele>673.0</ele><time>2026-04-03T12:40:15.102Z</time></trkpt><trkpt lat="44.603968" lon="8.7992668"><ele>671.8</ele><time>2026-04-03T12:40:16.112Z</time></trkpt><trkpt lat="44.6039847" lon="8.7991602"><ele>670.5999999999999</ele><time>2026-04-03T12:40:17.2Z</time></trkpt><trkpt lat="44.6039902" lon="8.7990071"><ele>669.4000000000001</ele><time>2026-04-03T12:40:18.153Z</time></trkpt><trkpt lat="44.6040053" lon="8.7988798"><ele>668.2</ele><time>2026-04-03T12:40:19.104Z</time></trkpt><trkpt lat="44.6039986" lon="8.7987296"><ele>667.0</ele><time>2026-04-03T12:40:20.111Z</time></trkpt><trkpt lat="44.603974" lon="8.7986022"><ele>666.6</ele><time>2026-04-03T12:40:21.126Z</time></trkpt><trkpt lat="44.6039476" lon="8.7984983"><ele>666.2</ele><time>2026-04-03T12:40:22.125Z</time></trkpt><trkpt lat="44.603928" lon="8.7983917"><ele>665.8</ele><time>2026-04-03T12:40:23.14Z</time></trkpt><trkpt lat="44.6039208" lon="8.7982755"><ele>665.4</ele><time>2026-04-03T12:40:24.105Z</time></trkpt><trkpt lat="44.6039243" lon="8.7980651"><ele>665.0</ele><time>2026-04-03T12:40:26.169Z</time></trkpt><trkpt lat="44.603921" lon="8.7978606"><ele>665.0</ele><time>2026-04-03T12:40:28.121Z</time></trkpt><trkpt lat="44.6039253" lon="8.7977722"><ele>665.0</ele><time>2026-04-03T12:40:29.105Z</time></trkpt><trkpt lat="44.6039447" lon="8.797625"><ele>665.0</ele><time>2026-04-03T12:40:31.164Z</time></trkpt><trkpt lat="44.6040673" lon="8.7975482"><ele>665.0</ele><time>2026-04-03T12:40:34.1Z</time></trkpt><trkpt lat="44.6041535" lon="8.7976166"><ele>665.0</ele><time>2026-04-03T12:40:36.105Z</time></trkpt><trkpt lat="44.604213" lon="8.7977943"><ele>665.0</ele><time>2026-04-03T12:40:37.999Z</time></trkpt><trkpt lat="44.6042481" lon="8.7978829"><ele>665.0</ele><time>2026-04-03T12:40:38.999Z</time></trkpt><trkpt lat="44.6042867" lon="8.797996"><ele>665.0</ele><time>2026-04-03T12:40:39.999Z</time></trkpt><trkpt lat="44.6043351" lon="8.7980913"><ele>665.0</ele><time>2026-04-03T12:40:40.999Z</time></trkpt><trkpt lat="44.6043749" lon="8.7981961"><ele>665.0</ele><time>2026-04-03T12:40:41.999Z</time></trkpt><trkpt lat="44.6044142" lon="8.7983203"><ele>665.0</ele><time>2026-04-03T12:40:43.104Z</time></trkpt><trkpt lat="44.6044689" lon="8.7984495"><ele>665.3333333333333</ele><time>2026-04-03T12:40:44.103Z</time></trkpt><trkpt lat="44.6045146" lon="8.7985893"><ele>665.6666666666666</ele><time>2026-04-03T12:40:45.102Z</time></trkpt><trkpt lat="44.6046283" lon="8.7988506"><ele>666.0</ele><time>2026-04-03T12:40:47.104Z</time></trkpt><trkpt lat="44.6047322" lon="8.799107"><ele>666.0</ele><time>2026-04-03T12:40:48.999Z</time></trkpt><trkpt lat="44.6047669" lon="8.7992676"><ele>666.0</ele><time>2026-04-03T12:40:50.106Z</time></trkpt><trkpt lat="44.6047858" lon="8.7994591"><ele>666.0</ele><time>2026-04-03T12:40:51.106Z</time></trkpt><trkpt lat="44.6048118" lon="8.7996388"><ele>666.0</ele><time>2026-04-03T12:40:52.101Z</time></trkpt><trkpt lat="44.60488" lon="8.8000038"><ele>670.75</ele><time>2026-04-03T12:40:53.999Z</time></trkpt><trkpt lat="44.6049106" lon="8.8002014"><ele>675.5</ele><time>2026-04-03T12:40:54.999Z</time></trkpt><trkpt lat="44.6049465" lon="8.800387"><ele>680.25</ele><time>2026-04-03T12:40:56.1Z</time></trkpt><trkpt lat="44.6049877" lon="8.800552"><ele>685.0</ele><time>2026-04-03T12:40:57.192Z</time></trkpt><trkpt lat="44.6050182" lon="8.8006907"><ele>685.0</ele><time>2026-04-03T12:40:58.203Z</time></trkpt><trkpt lat="44.6050438" lon="8.8008418"><ele>685.0</ele><time>2026-04-03T12:40:59.107Z</time></trkpt><trkpt lat="44.6050672" lon="8.800944"><ele>685.0</ele><time>2026-04-03T12:41:00.11Z</time></trkpt><trkpt lat="44.6050528" lon="8.8010386"><ele>685.0</ele><time>2026-04-03T12:41:01.204Z</time></trkpt><trkpt lat="44.6050608" lon="8.8011762"><ele>685.0</ele><time>2026-04-03T12:41:02.19Z</time></trkpt><trkpt lat="44.6051177" lon="8.8012696"><ele>685.0</ele><time>2026-04-03T12:41:03.137Z</time></trkpt><trkpt lat="44.6051477" lon="8.8013884"><ele>684.75</ele><time>2026-04-03T12:41:04.105Z</time></trkpt><trkpt lat="44.6051887" lon="8.8014642"><ele>684.5</ele><time>2026-04-03T12:41:05.105Z</time></trkpt><trkpt lat="44.6052291" lon="8.8015674"><ele>684.25</ele><time>2026-04-03T12:41:06.102Z</time></trkpt><trkpt lat="44.6053935" lon="8.801791"><ele>684.0</ele><time>2026-04-03T12:41:08.102Z</time></trkpt><trkpt lat="44.6054549" lon="8.801918"><ele>684.0</ele><time>2026-04-03T12:41:09.104Z</time></trkpt><trkpt lat="44.6054961" lon="8.8020475"><ele>684.0</ele><time>2026-04-03T12:41:10.108Z</time></trkpt><trkpt lat="44.6055939" lon="8.8022932"><ele>684.0</ele><time>2026-04-03T12:41:11.999Z</time></trkpt><trkpt lat="44.6056486" lon="8.8024441"><ele>684.0</ele><time>2026-04-03T12:41:13.105Z</time></trkpt><trkpt lat="44.6057037" lon="8.8025667"><ele>690.0</ele><time>2026-04-03T12:41:14.105Z</time></trkpt><trkpt lat="44.6058511" lon="8.8028228"><ele>696.0</ele><time>2026-04-03T12:41:16.129Z</time></trkpt><trkpt lat="44.6060366" lon="8.8030518"><ele>696.0</ele><time>2026-04-03T12:41:18.105Z</time></trkpt><trkpt lat="44.6061282" lon="8.8031532"><ele>696.0</ele><time>2026-04-03T12:41:19.107Z</time></trkpt><trkpt lat="44.6062242" lon="8.8032643"><ele>696.0</ele><time>2026-04-03T12:41:20.118Z</time></trkpt><trkpt lat="44.6063303" lon="8.8033596"><ele>696.0</ele><time>2026-04-03T12:41:21.14Z</time></trkpt><trkpt lat="44.6064276" lon="8.8034425"><ele>698.3333333333334</ele><time>2026-04-03T12:41:22.169Z</time></trkpt><trkpt lat="44.6065245" lon="8.8035502"><ele>700.6666666666667</ele><time>2026-04-03T12:41:23.171Z</time></trkpt><trkpt lat="44.606636" lon="8.8036057"><ele>703.0</ele><time>2026-04-03T12:41:24.108Z</time></trkpt><trkpt lat="44.6068708" lon="8.8036711"><ele>703.0</ele><time>2026-04-03T12:41:26.14Z</time></trkpt><trkpt lat="44.6069819" lon="8.8036859"><ele>703.0</ele><time>2026-04-03T12:41:27.108Z</time></trkpt><trkpt lat="44.607197" lon="8.8036566"><ele>703.0</ele><time>2026-04-03T12:41:29.112Z</time></trkpt><trkpt lat="44.6072915" lon="8.8036149"><ele>703.0</ele><time>2026-04-03T12:41:30.175Z</time></trkpt><trkpt lat="44.6073595" lon="8.8035213"><ele>701.0</ele><time>2026-04-03T12:41:31.124Z</time></trkpt><trkpt lat="44.6074328" lon="8.8033659"><ele>699.0</ele><time>2026-04-03T12:41:32.17Z</time></trkpt><trkpt lat="44.6074897" lon="8.8032049"><ele>697.0</ele><time>2026-04-03T12:41:33.148Z</time></trkpt><trkpt lat="44.6075513" lon="8.80305"><ele>695.0</ele><time>2026-04-03T12:41:34.118Z</time></trkpt><trkpt lat="44.6076092" lon="8.8028872"><ele>695.0</ele><time>2026-04-03T12:41:35.107Z</time></trkpt><trkpt lat="44.6076678" lon="8.8027067"><ele>695.0</ele><time>2026-04-03T12:41:36.143Z</time></trkpt><trkpt lat="44.6077287" lon="8.8025153"><ele>695.0</ele><time>2026-04-03T12:41:37.146Z</time></trkpt><trkpt lat="44.6077674" lon="8.8023325"><ele>695.0</ele><time>2026-04-03T12:41:38.184Z</time></trkpt><trkpt lat="44.6078112" lon="8.8021755"><ele>695.4</ele><time>2026-04-03T12:41:39.106Z</time></trkpt><trkpt lat="44.6078399" lon="8.8020401"><ele>695.8</ele><time>2026-04-03T12:41:40.104Z</time></trkpt><trkpt lat="44.6078606" lon="8.8018946"><ele>696.2</ele><time>2026-04-03T12:41:41.18Z</time></trkpt><trkpt lat="44.6079358" lon="8.8018341"><ele>696.6</ele><time>2026-04-03T12:41:42.185Z</time></trkpt><trkpt lat="44.6079955" lon="8.8017784"><ele>697.0</ele><time>2026-04-03T12:41:43.158Z</time></trkpt><trkpt lat="44.6080998" lon="8.8017148"><ele>697.0</ele><time>2026-04-03T12:41:44.106Z</time></trkpt><trkpt lat="44.6081785" lon="8.8016658"><ele>697.0</ele><time>2026-04-03T12:41:45.105Z</time></trkpt><trkpt lat="44.6082538" lon="8.8016104"><ele>697.0</ele><time>2026-04-03T12:41:46.191Z</time></trkpt><trkpt lat="44.6083469" lon="8.8015697"><ele>697.0</ele><time>2026-04-03T12:41:47.172Z</time></trkpt><trkpt lat="44.6084129" lon="8.8015357"><ele>697.0</ele><time>2026-04-03T12:41:48.193Z</time></trkpt><trkpt lat="44.6085234" lon="8.8014755"><ele>697.0</ele><time>2026-04-03T12:41:50.111Z</time></trkpt><trkpt lat="44.6086523" lon="8.8014259"><ele>697.0</ele><time>2026-04-03T12:41:52.999Z</time></trkpt><trkpt lat="44.6087168" lon="8.8013882"><ele>697.0</ele><time>2026-04-03T12:41:55.103Z</time></trkpt><trkpt lat="44.6087805" lon="8.8013461"><ele>697.0</ele><time>2026-04-03T12:41:56.105Z</time></trkpt><trkpt lat="44.608842" lon="8.8013213"><ele>697.0</ele><time>2026-04-03T12:41:57.172Z</time></trkpt><trkpt lat="44.6089515" lon="8.8012743"><ele>695.6666666666667</ele><time>2026-04-03T12:41:59.102Z</time></trkpt><trkpt lat="44.6090658" lon="8.8012052"><ele>694.3333333333334</ele><time>2026-04-03T12:42:01.135Z</time></trkpt><trkpt lat="44.6091352" lon="8.801162"><ele>693.0</ele><time>2026-04-03T12:42:02.157Z</time></trkpt><trkpt lat="44.6091989" lon="8.801129"><ele>691.6666666666666</ele><time>2026-04-03T12:42:03.163Z</time></trkpt><trkpt lat="44.6092789" lon="8.8010534"><ele>690.3333333333333</ele><time>2026-04-03T12:42:05.104Z</time></trkpt><trkpt lat="44.6093425" lon="8.801005"><ele>689.0</ele><time>2026-04-03T12:42:06.124Z</time></trkpt><trkpt lat="44.6094083" lon="8.8009621"><ele>689.0</ele><time>2026-04-03T12:42:07.14Z</time></trkpt><trkpt lat="44.6094776" lon="8.8009157"><ele>689.0</ele><time>2026-04-03T12:42:08.155Z</time></trkpt><trkpt lat="44.6095456" lon="8.8008756"><ele>689.0</ele><time>2026-04-03T12:42:09.105Z</time></trkpt><trkpt lat="44.6096089" lon="8.8008264"><ele>689.0</ele><time>2026-04-03T12:42:10.106Z</time></trkpt><trkpt lat="44.6096836" lon="8.8007935"><ele>689.0</ele><time>2026-04-03T12:42:11.149Z</time></trkpt><trkpt lat="44.6097609" lon="8.8007643"><ele>689.0</ele><time>2026-04-03T12:42:12.144Z</time></trkpt><trkpt lat="44.609842" lon="8.8007208"><ele>690.0</ele><time>2026-04-03T12:42:13.164Z</time></trkpt><trkpt lat="44.609927" lon="8.8006795"><ele>691.0</ele><time>2026-04-03T12:42:14.109Z</time></trkpt><trkpt lat="44.6100087" lon="8.800636"><ele>692.0</ele><time>2026-04-03T12:42:15.106Z</time></trkpt><trkpt lat="44.6100865" lon="8.8006094"><ele>693.0</ele><time>2026-04-03T12:42:16.141Z</time></trkpt><trkpt lat="44.6101646" lon="8.8005817"><ele>694.0</ele><time>2026-04-03T12:42:17.153Z</time></trkpt><trkpt lat="44.6103186" lon="8.8005344"><ele>693.8571428571429</ele><time>2026-04-03T12:42:19.109Z</time></trkpt><trkpt lat="44.6103968" lon="8.8005244"><ele>693.7142857142857</ele><time>2026-04-03T12:42:20.107Z</time></trkpt><trkpt lat="44.610468" lon="8.8005176"><ele>693.5714285714286</ele><time>2026-04-03T12:42:21.166Z</time></trkpt><trkpt lat="44.610539" lon="8.8005309"><ele>693.4285714285714</ele><time>2026-04-03T12:42:22.175Z</time></trkpt><trkpt lat="44.6106112" lon="8.8005436"><ele>693.2857142857142</ele><time>2026-04-03T12:42:23.145Z</time></trkpt><trkpt lat="44.6106849" lon="8.8005511"><ele>693.1428571428571</ele><time>2026-04-03T12:42:24.107Z</time></trkpt><trkpt lat="44.6107628" lon="8.8005573"><ele>693.0</ele><time>2026-04-03T12:42:25.106Z</time></trkpt><trkpt lat="44.6108402" lon="8.8005798"><ele>693.0</ele><time>2026-04-03T12:42:26.1Z</time></trkpt><trkpt lat="44.6109231" lon="8.8005874"><ele>693.0</ele><time>2026-04-03T12:42:27.185Z</time></trkpt><trkpt lat="44.6110856" lon="8.8005257"><ele>693.0</ele><time>2026-04-03T12:42:29.104Z</time></trkpt><trkpt lat="44.6111689" lon="8.8004666"><ele>693.0</ele><time>2026-04-03T12:42:30.111Z</time></trkpt><trkpt lat="44.6112391" lon="8.8003897"><ele>693.0</ele><time>2026-04-03T12:42:31.155Z</time></trkpt><trkpt lat="44.6113016" lon="8.8002925"><ele>690.0</ele><time>2026-04-03T12:42:32.184Z</time></trkpt><trkpt lat="44.6113647" lon="8.8001752"><ele>687.0</ele><time>2026-04-03T12:42:33.187Z</time></trkpt><trkpt lat="44.6114247" lon="8.8000562"><ele>684.0</ele><time>2026-04-03T12:42:34.111Z</time></trkpt><trkpt lat="44.6114934" lon="8.7999343"><ele>681.0</ele><time>2026-04-03T12:42:35.104Z</time></trkpt><trkpt lat="44.6115531" lon="8.7998268"><ele>678.0</ele><time>2026-04-03T12:42:36.195Z</time></trkpt><trkpt lat="44.6116346" lon="8.7997447"><ele>678.0</ele><time>2026-04-03T12:42:37.148Z</time></trkpt><trkpt lat="44.6117183" lon="8.7996628"><ele>678.0</ele><time>2026-04-03T12:42:38.193Z</time></trkpt><trkpt lat="44.6118056" lon="8.7995779"><ele>678.0</ele><time>2026-04-03T12:42:39.11Z</time></trkpt><trkpt lat="44.6119038" lon="8.7994944"><ele>678.0</ele><time>2026-04-03T12:42:40.107Z</time></trkpt><trkpt lat="44.611992" lon="8.7994276"><ele>678.0</ele><time>2026-04-03T12:42:41.109Z</time></trkpt><trkpt lat="44.6120833" lon="8.7993828"><ele>681.0</ele><time>2026-04-03T12:42:42.155Z</time></trkpt><trkpt lat="44.6121897" lon="8.7993086"><ele>684.0</ele><time>2026-04-03T12:42:43.196Z</time></trkpt><trkpt lat="44.612295" lon="8.7992692"><ele>687.0</ele><time>2026-04-03T12:42:44.114Z</time></trkpt><trkpt lat="44.6123926" lon="8.7992457"><ele>690.0</ele><time>2026-04-03T12:42:45.108Z</time></trkpt><trkpt lat="44.6124811" lon="8.7992336"><ele>693.0</ele><time>2026-04-03T12:42:46.16Z</time></trkpt><trkpt lat="44.6125553" lon="8.7992251"><ele>693.0</ele><time>2026-04-03T12:42:47.105Z</time></trkpt><trkpt lat="44.6126309" lon="8.799218"><ele>693.0</ele><time>2026-04-03T12:42:48.166Z</time></trkpt><trkpt lat="44.612708" lon="8.7992087"><ele>693.0</ele><time>2026-04-03T12:42:49.153Z</time></trkpt><trkpt lat="44.6127991" lon="8.7992"><ele>693.0</ele><time>2026-04-03T12:42:50.19Z</time></trkpt><trkpt lat="44.6128877" lon="8.7992165"><ele>693.0</ele><time>2026-04-03T12:42:51.206Z</time></trkpt><trkpt lat="44.6129836" lon="8.7992097"><ele>693.0</ele><time>2026-04-03T12:42:52.168Z</time></trkpt><trkpt lat="44.6130725" lon="8.799222"><ele>693.5</ele><time>2026-04-03T12:42:53.171Z</time></trkpt><trkpt lat="44.6132551" lon="8.7992508"><ele>694.0</ele><time>2026-04-03T12:42:55.108Z</time></trkpt><trkpt lat="44.6133444" lon="8.7992548"><ele>694.5</ele><time>2026-04-03T12:42:56.116Z</time></trkpt><trkpt lat="44.6134344" lon="8.7992628"><ele>695.0</ele><time>2026-04-03T12:42:57.142Z</time></trkpt><trkpt lat="44.6135217" lon="8.7992692"><ele>695.0</ele><time>2026-04-03T12:42:58.157Z</time></trkpt><trkpt lat="44.613607" lon="8.7992774"><ele>695.0</ele><time>2026-04-03T12:42:59.108Z</time></trkpt><trkpt lat="44.6136806" lon="8.7992799"><ele>695.0</ele><time>2026-04-03T12:43:00.11Z</time></trkpt><trkpt lat="44.6137517" lon="8.7992487"><ele>695.0</ele><time>2026-04-03T12:43:01.173Z</time></trkpt><trkpt lat="44.6138141" lon="8.7992006"><ele>695.0</ele><time>2026-04-03T12:43:02.178Z</time></trkpt><trkpt lat="44.6138791" lon="8.7991566"><ele>695.0</ele><time>2026-04-03T12:43:03.109Z</time></trkpt><trkpt lat="44.6139378" lon="8.7989843"><ele>697.3333333333333</ele><time>2026-04-03T12:43:05.105Z</time></trkpt><trkpt lat="44.6139763" lon="8.7988775"><ele>699.6666666666666</ele><time>2026-04-03T12:43:06.12Z</time></trkpt><trkpt lat="44.6139873" lon="8.7987588"><ele>702.0</ele><time>2026-04-03T12:43:07.163Z</time></trkpt><trkpt lat="44.6139909" lon="8.7986327"><ele>704.3333333333334</ele><time>2026-04-03T12:43:08.161Z</time></trkpt><trkpt lat="44.6139831" lon="8.7985025"><ele>706.6666666666667</ele><time>2026-04-03T12:43:09.105Z</time></trkpt><trkpt lat="44.6139867" lon="8.7983907"><ele>709.0</ele><time>2026-04-03T12:43:10.105Z</time></trkpt><trkpt lat="44.6139901" lon="8.798255"><ele>711.0</ele><time>2026-04-03T12:43:11.151Z</time></trkpt><trkpt lat="44.6139934" lon="8.7981275"><ele>713.0</ele><time>2026-04-03T12:43:12.163Z</time></trkpt><trkpt lat="44.6139976" lon="8.7979826"><ele>715.0</ele><time>2026-04-03T12:43:13.167Z</time></trkpt><trkpt lat="44.6140039" lon="8.7978366"><ele>717.0</ele><time>2026-04-03T12:43:14.114Z</time></trkpt><trkpt lat="44.6139988" lon="8.797709"><ele>719.0</ele><time>2026-04-03T12:43:15.166Z</time></trkpt><trkpt lat="44.6139994" lon="8.7975755"><ele>720.0</ele><time>2026-04-03T12:43:16.165Z</time></trkpt><trkpt lat="44.6139902" lon="8.7974407"><ele>721.0</ele><time>2026-04-03T12:43:17.158Z</time></trkpt><trkpt lat="44.6139749" lon="8.7973166"><ele>722.0</ele><time>2026-04-03T12:43:18.184Z</time></trkpt><trkpt lat="44.6139638" lon="8.7972008"><ele>723.0</ele><time>2026-04-03T12:43:19.105Z</time></trkpt><trkpt lat="44.6139601" lon="8.7970923"><ele>724.0</ele><time>2026-04-03T12:43:20.114Z</time></trkpt><trkpt lat="44.6139615" lon="8.7970007"><ele>725.0</ele><time>2026-04-03T12:43:21.182Z</time></trkpt><trkpt lat="44.6139759" lon="8.7969067"><ele>724.2</ele><time>2026-04-03T12:43:22.159Z</time></trkpt><trkpt lat="44.6140463" lon="8.7967029"><ele>723.4</ele><time>2026-04-03T12:43:24.107Z</time></trkpt><trkpt lat="44.6140843" lon="8.7965951"><ele>722.5999999999999</ele><time>2026-04-03T12:43:25.104Z</time></trkpt><trkpt lat="44.6141183" lon="8.7964807"><ele>721.8</ele><time>2026-04-03T12:43:26.154Z</time></trkpt><trkpt lat="44.6141368" lon="8.7963587"><ele>721.0</ele><time>2026-04-03T12:43:27.164Z</time></trkpt><trkpt lat="44.6141596" lon="8.796243"><ele>721.0</ele><time>2026-04-03T12:43:28.177Z</time></trkpt><trkpt lat="44.6141845" lon="8.7961225"><ele>721.0</ele><time>2026-04-03T12:43:29.108Z</time></trkpt><trkpt lat="44.6142248" lon="8.7960069"><ele>721.0</ele><time>2026-04-03T12:43:30.115Z</time></trkpt><trkpt lat="44.6142585" lon="8.7958858"><ele>721.0</ele><time>2026-04-03T12:43:31.185Z</time></trkpt><trkpt lat="44.6143061" lon="8.7957538"><ele>721.0</ele><time>2026-04-03T12:43:32.109Z</time></trkpt><trkpt lat="44.6143835" lon="8.7956026"><ele>717.75</ele><time>2026-04-03T12:43:33.106Z</time></trkpt><trkpt lat="44.6144412" lon="8.7954677"><ele>714.5</ele><time>2026-04-03T12:43:34.105Z</time></trkpt><trkpt lat="44.6144935" lon="8.7953148"><ele>711.25</ele><time>2026-04-03T12:43:35.174Z</time></trkpt><trkpt lat="44.6145342" lon="8.7951532"><ele>708.0</ele><time>2026-04-03T12:43:36.167Z</time></trkpt><trkpt lat="44.6145891" lon="8.7949781"><ele>710.5</ele><time>2026-04-03T12:43:37.108Z</time></trkpt><trkpt lat="44.6146386" lon="8.794806"><ele>713.0</ele><time>2026-04-03T12:43:38.107Z</time></trkpt><trkpt lat="44.6146727" lon="8.7946532"><ele>715.5</ele><time>2026-04-03T12:43:39.103Z</time></trkpt><trkpt lat="44.6146954" lon="8.794498"><ele>718.0</ele><time>2026-04-03T12:43:40.104Z</time></trkpt><trkpt lat="44.6147644" lon="8.7942819"><ele>718.0</ele><time>2026-04-03T12:43:42.192Z</time></trkpt><trkpt lat="44.6147907" lon="8.7941834"><ele>718.0</ele><time>2026-04-03T12:43:43.197Z</time></trkpt><trkpt lat="44.6148285" lon="8.7940915"><ele>718.0</ele><time>2026-04-03T12:43:44.111Z</time></trkpt><trkpt lat="44.6148688" lon="8.7940109"><ele>718.0</ele><time>2026-04-03T12:43:45.106Z</time></trkpt><trkpt lat="44.6149411" lon="8.7939718"><ele>718.0</ele><time>2026-04-03T12:43:47.187Z</time></trkpt><trkpt lat="44.6150647" lon="8.793966"><ele>718.0</ele><time>2026-04-03T12:43:48.134Z</time></trkpt><trkpt lat="44.615261" lon="8.7939829"><ele>719.75</ele><time>2026-04-03T12:43:49.109Z</time></trkpt><trkpt lat="44.6154174" lon="8.7939552"><ele>721.5</ele><time>2026-04-03T12:43:50.109Z</time></trkpt><trkpt lat="44.6155607" lon="8.7939729"><ele>723.25</ele><time>2026-04-03T12:43:51.169Z</time></trkpt><trkpt lat="44.6157073" lon="8.793991"><ele>725.0</ele><time>2026-04-03T12:43:52.167Z</time></trkpt><trkpt lat="44.6158361" lon="8.793985"><ele>725.0</ele><time>2026-04-03T12:43:53.156Z</time></trkpt><trkpt lat="44.6159755" lon="8.7939904"><ele>725.0</ele><time>2026-04-03T12:43:54.119Z</time></trkpt><trkpt lat="44.6160924" lon="8.7939982"><ele>725.0</ele><time>2026-04-03T12:43:55.102Z</time></trkpt><trkpt lat="44.6162142" lon="8.7939997"><ele>725.0</ele><time>2026-04-03T12:43:56.138Z</time></trkpt><trkpt lat="44.6163218" lon="8.7939743"><ele>728.0</ele><time>2026-04-03T12:43:57.137Z</time></trkpt><trkpt lat="44.6164426" lon="8.7939228"><ele>731.0</ele><time>2026-04-03T12:43:58.161Z</time></trkpt><trkpt lat="44.6165613" lon="8.7938529"><ele>734.0</ele><time>2026-04-03T12:43:59.106Z</time></trkpt><trkpt lat="44.6166664" lon="8.7937545"><ele>737.0</ele><time>2026-04-03T12:44:00.106Z</time></trkpt><trkpt lat="44.6167767" lon="8.7936665"><ele>737.0</ele><time>2026-04-03T12:44:01.145Z</time></trkpt><trkpt lat="44.616898" lon="8.7935944"><ele>737.0</ele><time>2026-04-03T12:44:02.154Z</time></trkpt><trkpt lat="44.6170023" lon="8.7935298"><ele>737.0</ele><time>2026-04-03T12:44:03.169Z</time></trkpt><trkpt lat="44.6171224" lon="8.7934592"><ele>737.0</ele><time>2026-04-03T12:44:04.107Z</time></trkpt><trkpt lat="44.6172195" lon="8.79337"><ele>737.4000000000001</ele><time>2026-04-03T12:44:05.103Z</time></trkpt><trkpt lat="44.6172654" lon="8.7932277"><ele>737.8000000000001</ele><time>2026-04-03T12:44:06.172Z</time></trkpt><trkpt lat="44.6173362" lon="8.7931211"><ele>738.2</ele><time>2026-04-03T12:44:07.174Z</time></trkpt><trkpt lat="44.6174092" lon="8.7930292"><ele>738.6</ele><time>2026-04-03T12:44:08.169Z</time></trkpt><trkpt lat="44.6174918" lon="8.792953"><ele>739.0</ele><time>2026-04-03T12:44:09.106Z</time></trkpt><trkpt lat="44.6175608" lon="8.7928954"><ele>739.0</ele><time>2026-04-03T12:44:10.105Z</time></trkpt><trkpt lat="44.6176179" lon="8.7928354"><ele>739.0</ele><time>2026-04-03T12:44:11.105Z</time></trkpt><trkpt lat="44.6176829" lon="8.792816"><ele>739.0</ele><time>2026-04-03T12:44:12.115Z</time></trkpt><trkpt lat="44.617798" lon="8.7927696"><ele>739.0</ele><time>2026-04-03T12:44:13.144Z</time></trkpt><trkpt lat="44.6179066" lon="8.7927532"><ele>739.0</ele><time>2026-04-03T12:44:14.106Z</time></trkpt><trkpt lat="44.6179944" lon="8.7927262"><ele>739.3333333333334</ele><time>2026-04-03T12:44:15.105Z</time></trkpt><trkpt lat="44.6180622" lon="8.7926758"><ele>739.6666666666667</ele><time>2026-04-03T12:44:16.161Z</time></trkpt><trkpt lat="44.6181469" lon="8.7926064"><ele>740.0</ele><time>2026-04-03T12:44:17.153Z</time></trkpt><trkpt lat="44.6182088" lon="8.7925377"><ele>740.3333333333334</ele><time>2026-04-03T12:44:18.183Z</time></trkpt><trkpt lat="44.6182757" lon="8.7924687"><ele>740.6666666666666</ele><time>2026-04-03T12:44:19.106Z</time></trkpt><trkpt lat="44.618316" lon="8.7923852"><ele>741.0</ele><time>2026-04-03T12:44:20.112Z</time></trkpt><trkpt lat="44.6183615" lon="8.7922845"><ele>741.0</ele><time>2026-04-03T12:44:21.156Z</time></trkpt><trkpt lat="44.6183915" lon="8.7921694"><ele>741.0</ele><time>2026-04-03T12:44:22.173Z</time></trkpt><trkpt lat="44.6184334" lon="8.7920513"><ele>741.0</ele><time>2026-04-03T12:44:23.105Z</time></trkpt><trkpt lat="44.6184576" lon="8.7919332"><ele>741.0</ele><time>2026-04-03T12:44:24.11Z</time></trkpt><trkpt lat="44.6185078" lon="8.7918109"><ele>741.0</ele><time>2026-04-03T12:44:25.103Z</time></trkpt><trkpt lat="44.618543" lon="8.7916932"><ele>740.5</ele><time>2026-04-03T12:44:26.167Z</time></trkpt><trkpt lat="44.6185817" lon="8.7915771"><ele>740.0</ele><time>2026-04-03T12:44:27.172Z</time></trkpt><trkpt lat="44.6186127" lon="8.791457"><ele>739.5</ele><time>2026-04-03T12:44:28.183Z</time></trkpt><trkpt lat="44.6186415" lon="8.7913388"><ele>739.0</ele><time>2026-04-03T12:44:29.104Z</time></trkpt><trkpt lat="44.6186694" lon="8.7912489"><ele>738.5</ele><time>2026-04-03T12:44:30.103Z</time></trkpt><trkpt lat="44.6186996" lon="8.7911532"><ele>738.0</ele><time>2026-04-03T12:44:31.151Z</time></trkpt><trkpt lat="44.6187836" lon="8.7910058"><ele>738.0</ele><time>2026-04-03T12:44:33.188Z</time></trkpt><trkpt lat="44.6188152" lon="8.7909284"><ele>738.0</ele><time>2026-04-03T12:44:34.103Z</time></trkpt><trkpt lat="44.6188679" lon="8.7907777"><ele>738.0</ele><time>2026-04-03T12:44:36.147Z</time></trkpt><trkpt lat="44.6189294" lon="8.79068"><ele>738.0</ele><time>2026-04-03T12:44:38.184Z</time></trkpt><trkpt lat="44.6189723" lon="8.7906087"><ele>738.0</ele><time>2026-04-03T12:44:40.102Z</time></trkpt><trkpt lat="44.6190297" lon="8.7906576"><ele>738.0</ele><time>2026-04-03T12:45:01.105Z</time></trkpt><trkpt lat="44.6191796" lon="8.7905214"><ele>738.0</ele><time>2026-04-03T12:47:07.107Z</time></trkpt><trkpt lat="44.6192559" lon="8.7904633"><ele>738.0</ele><time>2026-04-03T12:47:08.107Z</time></trkpt><trkpt lat="44.6193093" lon="8.7904139"><ele>738.0</ele><time>2026-04-03T12:47:09.109Z</time></trkpt><trkpt lat="44.6194635" lon="8.7903923"><ele>738.0</ele><time>2026-04-03T12:47:11.102Z</time></trkpt><trkpt lat="44.619535" lon="8.7904271"><ele>738.0</ele><time>2026-04-03T12:47:12.106Z</time></trkpt><trkpt lat="44.6196043" lon="8.7904903"><ele>737.25</ele><time>2026-04-03T12:47:13.105Z</time></trkpt><trkpt lat="44.6196989" lon="8.7905503"><ele>736.5</ele><time>2026-04-03T12:47:14.101Z</time></trkpt><trkpt lat="44.6197932" lon="8.7906208"><ele>735.75</ele><time>2026-04-03T12:47:15.112Z</time></trkpt><trkpt lat="44.6200011" lon="8.7907564"><ele>735.0</ele><time>2026-04-03T12:47:17.1Z</time></trkpt><trkpt lat="44.620116" lon="8.7908162"><ele>735.0</ele><time>2026-04-03T12:47:18.102Z</time></trkpt><trkpt lat="44.6202221" lon="8.7908711"><ele>735.0</ele><time>2026-04-03T12:47:19.107Z</time></trkpt><trkpt lat="44.6203225" lon="8.790918"><ele>735.0</ele><time>2026-04-03T12:47:20.108Z</time></trkpt><trkpt lat="44.6205043" lon="8.7910654"><ele>735.0</ele><time>2026-04-03T12:47:22.107Z</time></trkpt><trkpt lat="44.620601" lon="8.7911074"><ele>734.6666666666666</ele><time>2026-04-03T12:47:23.105Z</time></trkpt><trkpt lat="44.6207889" lon="8.791162"><ele>734.3333333333333</ele><time>2026-04-03T12:47:25.107Z</time></trkpt><trkpt lat="44.6208942" lon="8.7911859"><ele>734.0</ele><time>2026-04-03T12:47:26.107Z</time></trkpt><trkpt lat="44.6211201" lon="8.7910985"><ele>727.6666666666666</ele><time>2026-04-03T12:47:28.103Z</time></trkpt><trkpt lat="44.6213483" lon="8.7910065"><ele>721.3333333333334</ele><time>2026-04-03T12:47:30.105Z</time></trkpt><trkpt lat="44.6214613" lon="8.7909493"><ele>715.0</ele><time>2026-04-03T12:47:31.106Z</time></trkpt><trkpt lat="44.6215628" lon="8.7909047"><ele>715.0</ele><time>2026-04-03T12:47:32.103Z</time></trkpt><trkpt lat="44.6216695" lon="8.790869"><ele>715.0</ele><time>2026-04-03T12:47:33.103Z</time></trkpt><trkpt lat="44.6217664" lon="8.7908117"><ele>715.0</ele><time>2026-04-03T12:47:34.108Z</time></trkpt><trkpt lat="44.6218732" lon="8.7907764"><ele>715.0</ele><time>2026-04-03T12:47:35.107Z</time></trkpt><trkpt lat="44.6219844" lon="8.7907477"><ele>715.0</ele><time>2026-04-03T12:47:36.106Z</time></trkpt><trkpt lat="44.6220895" lon="8.7906901"><ele>712.8</ele><time>2026-04-03T12:47:37.105Z</time></trkpt><trkpt lat="44.6222098" lon="8.7906857"><ele>710.6</ele><time>2026-04-03T12:47:38.104Z</time></trkpt><trkpt lat="44.6223095" lon="8.7906677"><ele>708.4000000000001</ele><time>2026-04-03T12:47:39.104Z</time></trkpt><trkpt lat="44.6224073" lon="8.7906396"><ele>706.2</ele><time>2026-04-03T12:47:40.113Z</time></trkpt><trkpt lat="44.6225166" lon="8.7905996"><ele>704.0</ele><time>2026-04-03T12:47:41.106Z</time></trkpt><trkpt lat="44.6226121" lon="8.7905704"><ele>704.0</ele><time>2026-04-03T12:47:42.105Z</time></trkpt><trkpt lat="44.6227256" lon="8.7905189"><ele>704.0</ele><time>2026-04-03T12:47:43.107Z</time></trkpt><trkpt lat="44.622836" lon="8.7904638"><ele>704.0</ele><time>2026-04-03T12:47:44.108Z</time></trkpt><trkpt lat="44.6229528" lon="8.7903973"><ele>704.0</ele><time>2026-04-03T12:47:45.102Z</time></trkpt><trkpt lat="44.6231688" lon="8.7902593"><ele>703.4000000000001</ele><time>2026-04-03T12:47:46.999Z</time></trkpt><trkpt lat="44.6232735" lon="8.7901842"><ele>702.8</ele><time>2026-04-03T12:47:48.104Z</time></trkpt><trkpt lat="44.6233774" lon="8.790115"><ele>702.2</ele><time>2026-04-03T12:47:49.11Z</time></trkpt><trkpt lat="44.6234704" lon="8.7900509"><ele>701.5999999999999</ele><time>2026-04-03T12:47:50.11Z</time></trkpt><trkpt lat="44.623567" lon="8.7899904"><ele>701.0</ele><time>2026-04-03T12:47:51.103Z</time></trkpt><trkpt lat="44.6236656" lon="8.7899089"><ele>702.6666666666666</ele><time>2026-04-03T12:47:52.108Z</time></trkpt><trkpt lat="44.6238074" lon="8.7896825"><ele>704.3333333333334</ele><time>2026-04-03T12:47:54.112Z</time></trkpt><trkpt lat="44.6239192" lon="8.7894205"><ele>706.0</ele><time>2026-04-03T12:47:56.104Z</time></trkpt><trkpt lat="44.6239462" lon="8.7892656"><ele>706.0</ele><time>2026-04-03T12:47:57.105Z</time></trkpt><trkpt lat="44.6239719" lon="8.7889684"><ele>706.0</ele><time>2026-04-03T12:47:58.999Z</time></trkpt><trkpt lat="44.6239685" lon="8.7888382"><ele>706.0</ele><time>2026-04-03T12:48:00.174Z</time></trkpt><trkpt lat="44.6239785" lon="8.7887088"><ele>706.0</ele><time>2026-04-03T12:48:01.158Z</time></trkpt><trkpt lat="44.6239927" lon="8.7885832"><ele>702.75</ele><time>2026-04-03T12:48:02.178Z</time></trkpt><trkpt lat="44.6240178" lon="8.7884676"><ele>699.5</ele><time>2026-04-03T12:48:03.196Z</time></trkpt><trkpt lat="44.6240346" lon="8.7883526"><ele>696.25</ele><time>2026-04-03T12:48:04.102Z</time></trkpt><trkpt lat="44.6241194" lon="8.7882436"><ele>693.0</ele><time>2026-04-03T12:48:05.105Z</time></trkpt><trkpt lat="44.624218" lon="8.7879857"><ele>693.0</ele><time>2026-04-03T12:48:07.105Z</time></trkpt><trkpt lat="44.6242807" lon="8.787689"><ele>693.0</ele><time>2026-04-03T12:48:09.112Z</time></trkpt><trkpt lat="44.6243009" lon="8.7875194"><ele>693.0</ele><time>2026-04-03T12:48:10.103Z</time></trkpt><trkpt lat="44.6243227" lon="8.7873513"><ele>689.75</ele><time>2026-04-03T12:48:11.176Z</time></trkpt><trkpt lat="44.6243329" lon="8.787195"><ele>686.5</ele><time>2026-04-03T12:48:12.19Z</time></trkpt><trkpt lat="44.6243386" lon="8.7870198"><ele>683.25</ele><time>2026-04-03T12:48:13.102Z</time></trkpt><trkpt lat="44.6243501" lon="8.7868528"><ele>680.0</ele><time>2026-04-03T12:48:14.103Z</time></trkpt><trkpt lat="44.6243635" lon="8.7866883"><ele>678.0</ele><time>2026-04-03T12:48:15.147Z</time></trkpt><trkpt lat="44.6243754" lon="8.7865382"><ele>676.0</ele><time>2026-04-03T12:48:16.168Z</time></trkpt><trkpt lat="44.6243791" lon="8.7864102"><ele>674.0</ele><time>2026-04-03T12:48:17.171Z</time></trkpt><trkpt lat="44.6243819" lon="8.7862807"><ele>672.0</ele><time>2026-04-03T12:48:18.165Z</time></trkpt><trkpt lat="44.6243769" lon="8.786175"><ele>670.0</ele><time>2026-04-03T12:48:19.11Z</time></trkpt><trkpt lat="44.6243489" lon="8.7860335"><ele>671.75</ele><time>2026-04-03T12:48:21.187Z</time></trkpt><trkpt lat="44.6245923" lon="8.7861691"><ele>673.5</ele><time>2026-04-03T12:48:23.177Z</time></trkpt><trkpt lat="44.6246862" lon="8.7861943"><ele>675.25</ele><time>2026-04-03T12:48:24.106Z</time></trkpt><trkpt lat="44.6247768" lon="8.786186"><ele>677.0</ele><time>2026-04-03T12:48:25.106Z</time></trkpt><trkpt lat="44.6248795" lon="8.786157"><ele>677.0</ele><time>2026-04-03T12:48:26.186Z</time></trkpt><trkpt lat="44.6249565" lon="8.7860835"><ele>677.0</ele><time>2026-04-03T12:48:27.195Z</time></trkpt><trkpt lat="44.6250379" lon="8.7859903"><ele>677.0</ele><time>2026-04-03T12:48:28.151Z</time></trkpt><trkpt lat="44.6251012" lon="8.7859106"><ele>677.0</ele><time>2026-04-03T12:48:29.105Z</time></trkpt><trkpt lat="44.6251973" lon="8.7857634"><ele>677.0</ele><time>2026-04-03T12:48:30.157Z</time></trkpt><trkpt lat="44.625266" lon="8.7856211"><ele>672.5</ele><time>2026-04-03T12:48:31.107Z</time></trkpt><trkpt lat="44.6253531" lon="8.7854801"><ele>668.0</ele><time>2026-04-03T12:48:32.108Z</time></trkpt><trkpt lat="44.6254155" lon="8.7853279"><ele>663.5</ele><time>2026-04-03T12:48:33.161Z</time></trkpt><trkpt lat="44.6254737" lon="8.7851773"><ele>659.0</ele><time>2026-04-03T12:48:34.102Z</time></trkpt><trkpt lat="44.6255246" lon="8.785002"><ele>658.0</ele><time>2026-04-03T12:48:35.107Z</time></trkpt><trkpt lat="44.6255667" lon="8.7848241"><ele>657.0</ele><time>2026-04-03T12:48:36.14Z</time></trkpt><trkpt lat="44.6256255" lon="8.7846488"><ele>656.0</ele><time>2026-04-03T12:48:37.168Z</time></trkpt><trkpt lat="44.625654" lon="8.7844863"><ele>655.0</ele><time>2026-04-03T12:48:38.118Z</time></trkpt><trkpt lat="44.625695" lon="8.7843311"><ele>654.75</ele><time>2026-04-03T12:48:39.104Z</time></trkpt><trkpt lat="44.6257215" lon="8.7841731"><ele>654.5</ele><time>2026-04-03T12:48:40.108Z</time></trkpt><trkpt lat="44.6257473" lon="8.7840112"><ele>654.25</ele><time>2026-04-03T12:48:41.148Z</time></trkpt><trkpt lat="44.6257667" lon="8.7838505"><ele>654.0</ele><time>2026-04-03T12:48:42.169Z</time></trkpt><trkpt lat="44.6257822" lon="8.7836917"><ele>654.0</ele><time>2026-04-03T12:48:43.152Z</time></trkpt><trkpt lat="44.6257925" lon="8.7835277"><ele>654.0</ele><time>2026-04-03T12:48:44.103Z</time></trkpt><trkpt lat="44.6258107" lon="8.7833657"><ele>654.0</ele><time>2026-04-03T12:48:45.105Z</time></trkpt><trkpt lat="44.6258351" lon="8.7830446"><ele>653.6666666666666</ele><time>2026-04-03T12:48:46.999Z</time></trkpt><trkpt lat="44.6258446" lon="8.7828829"><ele>653.3333333333333</ele><time>2026-04-03T12:48:48.106Z</time></trkpt><trkpt lat="44.6258676" lon="8.7825657"><ele>653.0</ele><time>2026-04-03T12:48:50.111Z</time></trkpt><trkpt lat="44.625868" lon="8.7824016"><ele>652.25</ele><time>2026-04-03T12:48:51.108Z</time></trkpt><trkpt lat="44.6258673" lon="8.7822482"><ele>651.5</ele><time>2026-04-03T12:48:52.15Z</time></trkpt><trkpt lat="44.6258923" lon="8.7820729"><ele>650.75</ele><time>2026-04-03T12:48:53.109Z</time></trkpt><trkpt lat="44.6258987" lon="8.7819064"><ele>650.0</ele><time>2026-04-03T12:48:54.103Z</time></trkpt><trkpt lat="44.6258869" lon="8.781748"><ele>649.8</ele><time>2026-04-03T12:48:55.109Z</time></trkpt><trkpt lat="44.6258929" lon="8.7815758"><ele>649.6</ele><time>2026-04-03T12:48:56.108Z</time></trkpt><trkpt lat="44.6258755" lon="8.7814077"><ele>649.4000000000001</ele><time>2026-04-03T12:48:57.107Z</time></trkpt><trkpt lat="44.6258696" lon="8.7812562"><ele>649.2</ele><time>2026-04-03T12:48:58.105Z</time></trkpt><trkpt lat="44.6258701" lon="8.7811344"><ele>649.0</ele><time>2026-04-03T12:48:59.111Z</time></trkpt><trkpt lat="44.6258671" lon="8.7810091"><ele>648.75</ele><time>2026-04-03T12:49:00.107Z</time></trkpt><trkpt lat="44.6258518" lon="8.7808874"><ele>648.5</ele><time>2026-04-03T12:49:01.106Z</time></trkpt><trkpt lat="44.6257743" lon="8.7806392"><ele>648.25</ele><time>2026-04-03T12:49:03.109Z</time></trkpt><trkpt lat="44.6257208" lon="8.7805361"><ele>648.0</ele><time>2026-04-03T12:49:04.104Z</time></trkpt><trkpt lat="44.6256618" lon="8.7804407"><ele>648.0</ele><time>2026-04-03T12:49:05.11Z</time></trkpt><trkpt lat="44.6256014" lon="8.7803418"><ele>648.0</ele><time>2026-04-03T12:49:06.108Z</time></trkpt><trkpt lat="44.6255376" lon="8.7802941"><ele>648.0</ele><time>2026-04-03T12:49:07.105Z</time></trkpt><trkpt lat="44.6254685" lon="8.7802137"><ele>648.0</ele><time>2026-04-03T12:49:08.104Z</time></trkpt><trkpt lat="44.6253777" lon="8.7800998"><ele>648.0</ele><time>2026-04-03T12:49:10.104Z</time></trkpt><trkpt lat="44.6253344" lon="8.7800236"><ele>648.0</ele><time>2026-04-03T12:49:11.108Z</time></trkpt><trkpt lat="44.625314" lon="8.7799337"><ele>648.0</ele><time>2026-04-03T12:49:12.17Z</time></trkpt><trkpt lat="44.6253166" lon="8.7798322"><ele>648.0</ele><time>2026-04-03T12:49:13.18Z</time></trkpt><trkpt lat="44.6253926" lon="8.7796243"><ele>648.0</ele><time>2026-04-03T12:49:15.103Z</time></trkpt><trkpt lat="44.6254359" lon="8.7795274"><ele>648.0</ele><time>2026-04-03T12:49:16.162Z</time></trkpt><trkpt lat="44.6254722" lon="8.7793997"><ele>648.0</ele><time>2026-04-03T12:49:17.139Z</time></trkpt><trkpt lat="44.6254794" lon="8.7792376"><ele>648.0</ele><time>2026-04-03T12:49:18.153Z</time></trkpt><trkpt lat="44.6254893" lon="8.7790815"><ele>648.0</ele><time>2026-04-03T12:49:19.111Z</time></trkpt><trkpt lat="44.6254781" lon="8.778946"><ele>648.0</ele><time>2026-04-03T12:49:20.106Z</time></trkpt><trkpt lat="44.6254557" lon="8.7788009"><ele>648.0</ele><time>2026-04-03T12:49:21.191Z</time></trkpt><trkpt lat="44.6254319" lon="8.7786711"><ele>648.0</ele><time>2026-04-03T12:49:22.104Z</time></trkpt><trkpt lat="44.6254312" lon="8.778542"><ele>645.8</ele><time>2026-04-03T12:49:23.178Z</time></trkpt><trkpt lat="44.6254512" lon="8.7784404"><ele>643.5999999999999</ele><time>2026-04-03T12:49:24.108Z</time></trkpt><trkpt lat="44.6254954" lon="8.7783602"><ele>641.4000000000001</ele><time>2026-04-03T12:49:25.146Z</time></trkpt><trkpt lat="44.6255342" lon="8.7782716"><ele>639.2</ele><time>2026-04-03T12:49:26.106Z</time></trkpt><trkpt lat="44.6256329" lon="8.7781236"><ele>637.0</ele><time>2026-04-03T12:49:28.156Z</time></trkpt><trkpt lat="44.6257113" lon="8.7780524"><ele>637.0</ele><time>2026-04-03T12:49:29.109Z</time></trkpt><trkpt lat="44.625805" lon="8.7779688"><ele>637.0</ele><time>2026-04-03T12:49:30.103Z</time></trkpt><trkpt lat="44.6259299" lon="8.7778725"><ele>637.0</ele><time>2026-04-03T12:49:31.159Z</time></trkpt><trkpt lat="44.6260466" lon="8.7777798"><ele>637.0</ele><time>2026-04-03T12:49:32.148Z</time></trkpt><trkpt lat="44.6261557" lon="8.7777044"><ele>631.0</ele><time>2026-04-03T12:49:33.145Z</time></trkpt><trkpt lat="44.6263793" lon="8.7775162"><ele>625.0</ele><time>2026-04-03T12:49:34.999Z</time></trkpt><trkpt lat="44.6264798" lon="8.7774261"><ele>619.0</ele><time>2026-04-03T12:49:36.193Z</time></trkpt><trkpt lat="44.6265781" lon="8.7773255"><ele>619.0</ele><time>2026-04-03T12:49:37.186Z</time></trkpt><trkpt lat="44.6266723" lon="8.7772365"><ele>619.0</ele><time>2026-04-03T12:49:39.105Z</time></trkpt><trkpt lat="44.6267467" lon="8.7772483"><ele>619.0</ele><time>2026-04-03T12:49:41.1Z</time></trkpt><trkpt lat="44.626822" lon="8.7772901"><ele>619.0</ele><time>2026-04-03T12:49:42.999Z</time></trkpt><trkpt lat="44.6268953" lon="8.7773246"><ele>619.0</ele><time>2026-04-03T12:49:43.999Z</time></trkpt><trkpt lat="44.6269412" lon="8.7773924"><ele>619.0</ele><time>2026-04-03T12:49:45.174Z</time></trkpt><trkpt lat="44.6269574" lon="8.7774823"><ele>619.0</ele><time>2026-04-03T12:49:46.182Z</time></trkpt><trkpt lat="44.6269658" lon="8.7776208"><ele>619.0</ele><time>2026-04-03T12:49:47.144Z</time></trkpt><trkpt lat="44.6268774" lon="8.7777995"><ele>619.0</ele><time>2026-04-03T12:49:48.104Z</time></trkpt><trkpt lat="44.626875" lon="8.7779155"><ele>619.0</ele><time>2026-04-03T12:49:49.105Z</time></trkpt><trkpt lat="44.6268547" lon="8.7781504"><ele>620.3333333333334</ele><time>2026-04-03T12:49:50.999Z</time></trkpt><trkpt lat="44.6268861" lon="8.7782657"><ele>621.6666666666667</ele><time>2026-04-03T12:49:51.999Z</time></trkpt><trkpt lat="44.626903" lon="8.7783537"><ele>623.0</ele><time>2026-04-03T12:49:53.144Z</time></trkpt><trkpt lat="44.6269242" lon="8.7784635"><ele>624.3333333333334</ele><time>2026-04-03T12:49:54.107Z</time></trkpt><trkpt lat="44.6269614" lon="8.7785581"><ele>625.6666666666666</ele><time>2026-04-03T12:49:55.131Z</time></trkpt><trkpt lat="44.6269853" lon="8.7786739"><ele>627.0</ele><time>2026-04-03T12:49:56.105Z</time></trkpt><trkpt lat="44.6270111" lon="8.7787672"><ele>621.0</ele><time>2026-04-03T12:49:57.104Z</time></trkpt><trkpt lat="44.627048" lon="8.7789008"><ele>615.0</ele><time>2026-04-03T12:49:58.102Z</time></trkpt><trkpt lat="44.6270958" lon="8.778995"><ele>609.0</ele><time>2026-04-03T12:49:59.105Z</time></trkpt><trkpt lat="44.6271959" lon="8.7792043"><ele>603.0</ele><time>2026-04-03T12:50:01.106Z</time></trkpt><trkpt lat="44.6272626" lon="8.7793177"><ele>606.8</ele><time>2026-04-03T12:50:02.184Z</time></trkpt><trkpt lat="44.6273529" lon="8.7793645"><ele>610.5999999999999</ele><time>2026-04-03T12:50:03.165Z</time></trkpt><trkpt lat="44.6274423" lon="8.7794182"><ele>614.4000000000001</ele><time>2026-04-03T12:50:04.11Z</time></trkpt><trkpt lat="44.6275207" lon="8.7795082"><ele>618.2</ele><time>2026-04-03T12:50:05.102Z</time></trkpt><trkpt lat="44.6275905" lon="8.7795944"><ele>622.0</ele><time>2026-04-03T12:50:06.176Z</time></trkpt><trkpt lat="44.62778" lon="8.7797068"><ele>618.6</ele><time>2026-04-03T12:50:08.185Z</time></trkpt><trkpt lat="44.6278788" lon="8.779747"><ele>615.2</ele><time>2026-04-03T12:50:09.107Z</time></trkpt><trkpt lat="44.6279855" lon="8.7797702"><ele>611.8</ele><time>2026-04-03T12:50:10.106Z</time></trkpt><trkpt lat="44.6280788" lon="8.7797673"><ele>608.4</ele><time>2026-04-03T12:50:11.186Z</time></trkpt><trkpt lat="44.6281744" lon="8.7797219"><ele>605.0</ele><time>2026-04-03T12:50:12.185Z</time></trkpt><trkpt lat="44.6282716" lon="8.7796483"><ele>605.0</ele><time>2026-04-03T12:50:13.174Z</time></trkpt><trkpt lat="44.6283406" lon="8.7795956"><ele>605.0</ele><time>2026-04-03T12:50:14.103Z</time></trkpt><trkpt lat="44.6284029" lon="8.7795581"><ele>605.0</ele><time>2026-04-03T12:50:15.109Z</time></trkpt><trkpt lat="44.6285182" lon="8.7795711"><ele>605.0</ele><time>2026-04-03T12:50:17.162Z</time></trkpt><trkpt lat="44.6285992" lon="8.7796941"><ele>605.0</ele><time>2026-04-03T12:50:19.999Z</time></trkpt><trkpt lat="44.6286552" lon="8.7798381"><ele>606.4</ele><time>2026-04-03T12:50:22.101Z</time></trkpt><trkpt lat="44.6286432" lon="8.7799757"><ele>607.8</ele><time>2026-04-03T12:50:23.103Z</time></trkpt><trkpt lat="44.6286601" lon="8.7801193"><ele>609.2</ele><time>2026-04-03T12:50:24.105Z</time></trkpt><trkpt lat="44.6286383" lon="8.7802602"><ele>610.6</ele><time>2026-04-03T12:50:25.101Z</time></trkpt><trkpt lat="44.6286193" lon="8.7803696"><ele>612.0</ele><time>2026-04-03T12:50:26.126Z</time></trkpt><trkpt lat="44.6286306" lon="8.7805311"><ele>608.0</ele><time>2026-04-03T12:50:27.103Z</time></trkpt><trkpt lat="44.6286558" lon="8.7806797"><ele>604.0</ele><time>2026-04-03T12:50:28.102Z</time></trkpt><trkpt lat="44.6287002" lon="8.7807771"><ele>600.0</ele><time>2026-04-03T12:50:29.116Z</time></trkpt><trkpt lat="44.6287278" lon="8.7809191"><ele>596.0</ele><time>2026-04-03T12:50:30.156Z</time></trkpt><trkpt lat="44.6288039" lon="8.7810053"><ele>592.0</ele><time>2026-04-03T12:50:31.172Z</time></trkpt><trkpt lat="44.6288908" lon="8.781039"><ele>592.0</ele><time>2026-04-03T12:50:32.169Z</time></trkpt><trkpt lat="44.6290483" lon="8.7811997"><ele>592.0</ele><time>2026-04-03T12:50:34.109Z</time></trkpt><trkpt lat="44.629121" lon="8.7812733"><ele>592.0</ele><time>2026-04-03T12:50:35.105Z</time></trkpt><trkpt lat="44.6291976" lon="8.7813481"><ele>592.0</ele><time>2026-04-03T12:50:36.164Z</time></trkpt><trkpt lat="44.6292777" lon="8.7814299"><ele>592.0</ele><time>2026-04-03T12:50:37.183Z</time></trkpt><trkpt lat="44.6293541" lon="8.7814927"><ele>592.0</ele><time>2026-04-03T12:50:38.143Z</time></trkpt><trkpt lat="44.6294278" lon="8.7815595"><ele>592.0</ele><time>2026-04-03T12:50:39.109Z</time></trkpt><trkpt lat="44.6295002" lon="8.7816121"><ele>592.0</ele><time>2026-04-03T12:50:40.104Z</time></trkpt><trkpt lat="44.6295577" lon="8.7816835"><ele>592.0</ele><time>2026-04-03T12:50:41.166Z</time></trkpt><trkpt lat="44.6296223" lon="8.7818108"><ele>592.0</ele><time>2026-04-03T12:50:42.162Z</time></trkpt><trkpt lat="44.6296858" lon="8.7819112"><ele>588.3333333333334</ele><time>2026-04-03T12:50:43.162Z</time></trkpt><trkpt lat="44.6297475" lon="8.7820116"><ele>584.6666666666667</ele><time>2026-04-03T12:50:44.107Z</time></trkpt><trkpt lat="44.6298162" lon="8.7820925"><ele>581.0</ele><time>2026-04-03T12:50:45.104Z</time></trkpt><trkpt lat="44.6298752" lon="8.7821568"><ele>577.3333333333334</ele><time>2026-04-03T12:50:46.136Z</time></trkpt><trkpt lat="44.6299409" lon="8.7822186"><ele>573.6666666666666</ele><time>2026-04-03T12:50:47.151Z</time></trkpt><trkpt lat="44.6300013" lon="8.7822723"><ele>570.0</ele><time>2026-04-03T12:50:48.153Z</time></trkpt><trkpt lat="44.6300591" lon="8.7823236"><ele>570.0</ele><time>2026-04-03T12:50:49.101Z</time></trkpt><trkpt lat="44.6301126" lon="8.7823862"><ele>570.0</ele><time>2026-04-03T12:50:50.108Z</time></trkpt><trkpt lat="44.63015" lon="8.782534"><ele>570.0</ele><time>2026-04-03T12:50:51.163Z</time></trkpt><trkpt lat="44.6301864" lon="8.7826839"><ele>570.0</ele><time>2026-04-03T12:50:52.181Z</time></trkpt><trkpt lat="44.6302349" lon="8.7827688"><ele>570.0</ele><time>2026-04-03T12:50:53.145Z</time></trkpt><trkpt lat="44.6302805" lon="8.7828376"><ele>570.0</ele><time>2026-04-03T12:50:54.111Z</time></trkpt><trkpt lat="44.6303393" lon="8.7828939"><ele>567.5</ele><time>2026-04-03T12:50:55.112Z</time></trkpt><trkpt lat="44.6304034" lon="8.7829604"><ele>565.0</ele><time>2026-04-03T12:50:56.1Z</time></trkpt><trkpt lat="44.630474" lon="8.7830186"><ele>562.5</ele><time>2026-04-03T12:50:57.103Z</time></trkpt><trkpt lat="44.6305418" lon="8.7830483"><ele>560.0</ele><time>2026-04-03T12:50:58.177Z</time></trkpt><trkpt lat="44.6306204" lon="8.7830893"><ele>557.5</ele><time>2026-04-03T12:50:59.111Z</time></trkpt><trkpt lat="44.6307005" lon="8.7831235"><ele>555.0</ele><time>2026-04-03T12:50:59.999Z</time></trkpt><trkpt lat="44.6307835" lon="8.7831446"><ele>555.0</ele><time>2026-04-03T12:51:01.188Z</time></trkpt><trkpt lat="44.6308659" lon="8.7831576"><ele>555.0</ele><time>2026-04-03T12:51:02.152Z</time></trkpt><trkpt lat="44.6309528" lon="8.7831706"><ele>555.0</ele><time>2026-04-03T12:51:03.163Z</time></trkpt><trkpt lat="44.6310273" lon="8.7831924"><ele>555.0</ele><time>2026-04-03T12:51:04.104Z</time></trkpt><trkpt lat="44.6311943" lon="8.7832843"><ele>555.0</ele><time>2026-04-03T12:51:06.152Z</time></trkpt><trkpt lat="44.6312695" lon="8.7833399"><ele>554.1666666666666</ele><time>2026-04-03T12:51:07.151Z</time></trkpt><trkpt lat="44.6313502" lon="8.7833825"><ele>553.3333333333334</ele><time>2026-04-03T12:51:08.194Z</time></trkpt><trkpt lat="44.6314394" lon="8.7834114"><ele>552.5</ele><time>2026-04-03T12:51:09.102Z</time></trkpt><trkpt lat="44.6315343" lon="8.7834298"><ele>551.6666666666667</ele><time>2026-04-03T12:51:10.11Z</time></trkpt><trkpt lat="44.6316243" lon="8.7834509"><ele>550.8333333333334</ele><time>2026-04-03T12:51:11.158Z</time></trkpt><trkpt lat="44.6317082" lon="8.7834673"><ele>550.0</ele><time>2026-04-03T12:51:12.177Z</time></trkpt><trkpt lat="44.6317838" lon="8.7834778"><ele>550.0</ele><time>2026-04-03T12:51:13.105Z</time></trkpt><trkpt lat="44.6319011" lon="8.7835066"><ele>550.0</ele><time>2026-04-03T12:51:15.105Z</time></trkpt><trkpt lat="44.6320052" lon="8.7834785"><ele>550.0</ele><time>2026-04-03T12:51:17.174Z</time></trkpt><trkpt lat="44.6320424" lon="8.7833313"><ele>550.0</ele><time>2026-04-03T12:51:19.999Z</time></trkpt><trkpt lat="44.6320717" lon="8.7832334"><ele>550.0</ele><time>2026-04-03T12:51:20.999Z</time></trkpt><trkpt lat="44.6320135" lon="8.7831177"><ele>550.0</ele><time>2026-04-03T12:51:22.105Z</time></trkpt><trkpt lat="44.6319878" lon="8.7830342"><ele>550.0</ele><time>2026-04-03T12:51:23.104Z</time></trkpt><trkpt lat="44.6319516" lon="8.7828437"><ele>550.0</ele><time>2026-04-03T12:51:25.108Z</time></trkpt><trkpt lat="44.6319363" lon="8.7827343"><ele>550.0</ele><time>2026-04-03T12:51:26.11Z</time></trkpt><trkpt lat="44.63191" lon="8.7826368"><ele>550.0</ele><time>2026-04-03T12:51:27.193Z</time></trkpt><trkpt lat="44.6318493" lon="8.7825459"><ele>550.0</ele><time>2026-04-03T12:51:28.108Z</time></trkpt><trkpt lat="44.6317851" lon="8.7824621"><ele>549.5</ele><time>2026-04-03T12:51:29.107Z</time></trkpt><trkpt lat="44.6316931" lon="8.7824261"><ele>549.0</ele><time>2026-04-03T12:51:31.178Z</time></trkpt><trkpt lat="44.631627" lon="8.7824062"><ele>548.5</ele><time>2026-04-03T12:51:32.165Z</time></trkpt><trkpt lat="44.6315297" lon="8.7823297"><ele>548.0</ele><time>2026-04-03T12:51:34.102Z</time></trkpt><trkpt lat="44.631484" lon="8.7822302"><ele>547.5</ele><time>2026-04-03T12:51:35.112Z</time></trkpt><trkpt lat="44.6314309" lon="8.7821312"><ele>547.0</ele><time>2026-04-03T12:51:36.186Z</time></trkpt><trkpt lat="44.6313718" lon="8.7820276"><ele>547.0</ele><time>2026-04-03T12:51:37.138Z</time></trkpt><trkpt lat="44.6313217" lon="8.781921"><ele>547.0</ele><time>2026-04-03T12:51:38.163Z</time></trkpt><trkpt lat="44.6312683" lon="8.7818203"><ele>547.0</ele><time>2026-04-03T12:51:39.103Z</time></trkpt><trkpt lat="44.6312095" lon="8.7817371"><ele>547.0</ele><time>2026-04-03T12:51:40.106Z</time></trkpt><trkpt lat="44.6311552" lon="8.7816755"><ele>547.0</ele><time>2026-04-03T12:51:41.162Z</time></trkpt><trkpt lat="44.6311004" lon="8.7816246"><ele>547.0</ele><time>2026-04-03T12:51:42.159Z</time></trkpt><trkpt lat="44.6310124" lon="8.7816162"><ele>548.1666666666667</ele><time>2026-04-03T12:51:44.105Z</time></trkpt><trkpt lat="44.6309285" lon="8.7817213"><ele>549.3333333333334</ele><time>2026-04-03T12:51:45.999Z</time></trkpt><trkpt lat="44.6308809" lon="8.7818473"><ele>550.5</ele><time>2026-04-03T12:51:48.168Z</time></trkpt><trkpt lat="44.6308216" lon="8.7818941"><ele>551.6666666666666</ele><time>2026-04-03T12:51:49.111Z</time></trkpt><trkpt lat="44.6307509" lon="8.7818675"><ele>552.8333333333333</ele><time>2026-04-03T12:51:50.108Z</time></trkpt><trkpt lat="44.6307141" lon="8.7817926"><ele>554.0</ele><time>2026-04-03T12:51:51.192Z</time></trkpt><trkpt lat="44.6306384" lon="8.7816782"><ele>550.6</ele><time>2026-04-03T12:51:53.189Z</time></trkpt><trkpt lat="44.6306592" lon="8.7815281"><ele>547.2</ele><time>2026-04-03T12:51:55.109Z</time></trkpt><trkpt lat="44.6307" lon="8.7814378"><ele>543.8000000000001</ele><time>2026-04-03T12:51:56.185Z</time></trkpt><trkpt lat="44.6307974" lon="8.7813366"><ele>540.4</ele><time>2026-04-03T12:51:58.166Z</time></trkpt><trkpt lat="44.6308952" lon="8.7812942"><ele>537.0</ele><time>2026-04-03T12:52:00.108Z</time></trkpt><trkpt lat="44.6310093" lon="8.7813456"><ele>537.0</ele><time>2026-04-03T12:52:02.133Z</time></trkpt><trkpt lat="44.6311051" lon="8.7814415"><ele>537.0</ele><time>2026-04-03T12:52:04.109Z</time></trkpt><trkpt lat="44.6311962" lon="8.7815007"><ele>537.0</ele><time>2026-04-03T12:52:05.106Z</time></trkpt><trkpt lat="44.6312899" lon="8.7815335"><ele>537.0</ele><time>2026-04-03T12:52:06.152Z</time></trkpt><trkpt lat="44.631373" lon="8.7815569"><ele>537.0</ele><time>2026-04-03T12:52:07.13Z</time></trkpt><trkpt lat="44.6314544" lon="8.7815396"><ele>535.5</ele><time>2026-04-03T12:52:08.197Z</time></trkpt><trkpt lat="44.6315412" lon="8.7815627"><ele>534.0</ele><time>2026-04-03T12:52:09.104Z</time></trkpt><trkpt lat="44.6316102" lon="8.7815568"><ele>532.5</ele><time>2026-04-03T12:52:10.108Z</time></trkpt><trkpt lat="44.6316943" lon="8.7815267"><ele>531.0</ele><time>2026-04-03T12:52:11.178Z</time></trkpt><trkpt lat="44.6317791" lon="8.78146"><ele>529.5</ele><time>2026-04-03T12:52:12.192Z</time></trkpt><trkpt lat="44.6318507" lon="8.7814124"><ele>528.0</ele><time>2026-04-03T12:52:13.191Z</time></trkpt><trkpt lat="44.6319263" lon="8.781357"><ele>525.3333333333334</ele><time>2026-04-03T12:52:14.104Z</time></trkpt><trkpt lat="44.6320066" lon="8.7813025"><ele>522.6666666666666</ele><time>2026-04-03T12:52:15.104Z</time></trkpt><trkpt lat="44.6320684" lon="8.781258"><ele>520.0</ele><time>2026-04-03T12:52:16.123Z</time></trkpt><trkpt lat="44.6321361" lon="8.7812026"><ele>517.3333333333333</ele><time>2026-04-03T12:52:17.109Z</time></trkpt><trkpt lat="44.6321971" lon="8.7811674"><ele>514.6666666666666</ele><time>2026-04-03T12:52:18.115Z</time></trkpt><trkpt lat="44.6322915" lon="8.7811854"><ele>512.0</ele><time>2026-04-03T12:52:20.115Z</time></trkpt><trkpt lat="44.632346" lon="8.7812481"><ele>512.0</ele><time>2026-04-03T12:52:21.104Z</time></trkpt><trkpt lat="44.632419" lon="8.7813876"><ele>512.0</ele><time>2026-04-03T12:52:23.108Z</time></trkpt><trkpt lat="44.6325418" lon="8.7815965"><ele>512.0</ele><time>2026-04-03T12:52:25Z</time></trkpt><trkpt lat="44.6326114" lon="8.7816981"><ele>512.0</ele><time>2026-04-03T12:52:25.999Z</time></trkpt><trkpt lat="44.6326861" lon="8.7817892"><ele>514.4</ele><time>2026-04-03T12:52:27.108Z</time></trkpt><trkpt lat="44.6327519" lon="8.7819001"><ele>516.8000000000001</ele><time>2026-04-03T12:52:28.106Z</time></trkpt><trkpt lat="44.6328391" lon="8.7819767"><ele>519.2</ele><time>2026-04-03T12:52:29.108Z</time></trkpt><trkpt lat="44.6329217" lon="8.782071"><ele>521.6</ele><time>2026-04-03T12:52:30.107Z</time></trkpt><trkpt lat="44.6329954" lon="8.7821602"><ele>524.0</ele><time>2026-04-03T12:52:31.161Z</time></trkpt><trkpt lat="44.6330587" lon="8.7822265"><ele>521.5</ele><time>2026-04-03T12:52:32.107Z</time></trkpt><trkpt lat="44.6331184" lon="8.7822972"><ele>519.0</ele><time>2026-04-03T12:52:33.156Z</time></trkpt><trkpt lat="44.6331729" lon="8.7823528"><ele>516.5</ele><time>2026-04-03T12:52:34.104Z</time></trkpt><trkpt lat="44.6332347" lon="8.7824185"><ele>514.0</ele><time>2026-04-03T12:52:35.112Z</time></trkpt><trkpt lat="44.6332603" lon="8.782541"><ele>511.49999999999994</ele><time>2026-04-03T12:52:36.136Z</time></trkpt><trkpt lat="44.6333142" lon="8.7826321"><ele>509.0</ele><time>2026-04-03T12:52:37.135Z</time></trkpt><trkpt lat="44.6333755" lon="8.7827232"><ele>509.0</ele><time>2026-04-03T12:52:38.165Z</time></trkpt><trkpt lat="44.6334484" lon="8.7827887"><ele>509.0</ele><time>2026-04-03T12:52:39.108Z</time></trkpt><trkpt lat="44.6335246" lon="8.7828803"><ele>509.0</ele><time>2026-04-03T12:52:40.113Z</time></trkpt><trkpt lat="44.633623" lon="8.7828869"><ele>509.0</ele><time>2026-04-03T12:52:41.18Z</time></trkpt><trkpt lat="44.6337035" lon="8.7829281"><ele>509.0</ele><time>2026-04-03T12:52:42.175Z</time></trkpt><trkpt lat="44.6337839" lon="8.7829923"><ele>505.99999999999994</ele><time>2026-04-03T12:52:43.165Z</time></trkpt><trkpt lat="44.6338576" lon="8.7830676"><ele>503.0</ele><time>2026-04-03T12:52:44.11Z</time></trkpt><trkpt lat="44.6339288" lon="8.7831252"><ele>500.0</ele><time>2026-04-03T12:52:45.104Z</time></trkpt><trkpt lat="44.6339988" lon="8.7831651"><ele>497.0</ele><time>2026-04-03T12:52:46.142Z</time></trkpt><trkpt lat="44.6340192" lon="8.7832962"><ele>493.99999999999994</ele><time>2026-04-03T12:52:47.142Z</time></trkpt><trkpt lat="44.6340585" lon="8.7834066"><ele>491.0</ele><time>2026-04-03T12:52:48.176Z</time></trkpt><trkpt lat="44.6341091" lon="8.7835276"><ele>491.0</ele><time>2026-04-03T12:52:49.107Z</time></trkpt><trkpt lat="44.6341875" lon="8.7836389"><ele>491.0</ele><time>2026-04-03T12:52:50.107Z</time></trkpt><trkpt lat="44.6342618" lon="8.7837444"><ele>491.0</ele><time>2026-04-03T12:52:51.102Z</time></trkpt><trkpt lat="44.634425" lon="8.7839838"><ele>487.25</ele><time>2026-04-03T12:52:53.151Z</time></trkpt><trkpt lat="44.6345076" lon="8.7841041"><ele>483.5</ele><time>2026-04-03T12:52:54.1Z</time></trkpt><trkpt lat="44.6345809" lon="8.7842411"><ele>479.75</ele><time>2026-04-03T12:52:55.108Z</time></trkpt><trkpt lat="44.6346688" lon="8.7843591"><ele>476.0</ele><time>2026-04-03T12:52:56.185Z</time></trkpt><trkpt lat="44.6347591" lon="8.7844731"><ele>476.0</ele><time>2026-04-03T12:52:57.187Z</time></trkpt><trkpt lat="44.6348477" lon="8.784586"><ele>476.0</ele><time>2026-04-03T12:52:58.188Z</time></trkpt><trkpt lat="44.6349396" lon="8.7846974"><ele>476.0</ele><time>2026-04-03T12:52:59.109Z</time></trkpt><trkpt lat="44.6350207" lon="8.7848065"><ele>476.0</ele><time>2026-04-03T12:53:00.112Z</time></trkpt><trkpt lat="44.6351007" lon="8.7849007"><ele>476.0</ele><time>2026-04-03T12:53:01.151Z</time></trkpt><trkpt lat="44.6351739" lon="8.7849897"><ele>476.0</ele><time>2026-04-03T12:53:02.184Z</time></trkpt><trkpt lat="44.6352561" lon="8.7850634"><ele>476.0</ele><time>2026-04-03T12:53:03.184Z</time></trkpt><trkpt lat="44.6353434" lon="8.7851217"><ele>476.0</ele><time>2026-04-03T12:53:04.107Z</time></trkpt><trkpt lat="44.6354324" lon="8.7851901"><ele>476.0</ele><time>2026-04-03T12:53:05.107Z</time></trkpt><trkpt lat="44.635531" lon="8.785255"><ele>471.6</ele><time>2026-04-03T12:53:06.106Z</time></trkpt><trkpt lat="44.6356384" lon="8.7852665"><ele>467.20000000000005</ele><time>2026-04-03T12:53:07.11Z</time></trkpt><trkpt lat="44.635739" lon="8.7853052"><ele>462.79999999999995</ele><time>2026-04-03T12:53:08.176Z</time></trkpt><trkpt lat="44.6358481" lon="8.785333"><ele>458.4</ele><time>2026-04-03T12:53:09.112Z</time></trkpt><trkpt lat="44.6359464" lon="8.7853753"><ele>454.0</ele><time>2026-04-03T12:53:10.102Z</time></trkpt><trkpt lat="44.6360417" lon="8.7854162"><ele>454.0</ele><time>2026-04-03T12:53:11.159Z</time></trkpt><trkpt lat="44.6361362" lon="8.785437"><ele>454.0</ele><time>2026-04-03T12:53:12.175Z</time></trkpt><trkpt lat="44.63623" lon="8.7854492"><ele>454.0</ele><time>2026-04-03T12:53:13.157Z</time></trkpt><trkpt lat="44.6363293" lon="8.7854502"><ele>454.0</ele><time>2026-04-03T12:53:14.105Z</time></trkpt><trkpt lat="44.6364269" lon="8.7854603"><ele>454.0</ele><time>2026-04-03T12:53:15.112Z</time></trkpt><trkpt lat="44.6365164" lon="8.7854435"><ele>452.50000000000006</ele><time>2026-04-03T12:53:16.197Z</time></trkpt><trkpt lat="44.6365991" lon="8.7854614"><ele>451.0</ele><time>2026-04-03T12:53:17.14Z</time></trkpt><trkpt lat="44.6366913" lon="8.7854511"><ele>449.5</ele><time>2026-04-03T12:53:18.152Z</time></trkpt><trkpt lat="44.6367682" lon="8.7854449"><ele>448.0</ele><time>2026-04-03T12:53:19.106Z</time></trkpt><trkpt lat="44.6368411" lon="8.7854308"><ele>446.50000000000006</ele><time>2026-04-03T12:53:20.11Z</time></trkpt><trkpt lat="44.636908" lon="8.7854235"><ele>445.0</ele><time>2026-04-03T12:53:21.158Z</time></trkpt><trkpt lat="44.6370233" lon="8.7853731"><ele>444.50000000000006</ele><time>2026-04-03T12:53:23.158Z</time></trkpt><trkpt lat="44.6370972" lon="8.7852558"><ele>444.0</ele><time>2026-04-03T12:53:25.999Z</time></trkpt><trkpt lat="44.6371302" lon="8.7850861"><ele>443.5</ele><time>2026-04-03T12:53:28.106Z</time></trkpt><trkpt lat="44.6371371" lon="8.7849972"><ele>443.0</ele><time>2026-04-03T12:53:29.11Z</time></trkpt><trkpt lat="44.6371229" lon="8.7848976"><ele>442.50000000000006</ele><time>2026-04-03T12:53:30.214Z</time></trkpt><trkpt lat="44.6371145" lon="8.784798"><ele>442.0</ele><time>2026-04-03T12:53:31.165Z</time></trkpt><trkpt lat="44.6370847" lon="8.784677"><ele>442.0</ele><time>2026-04-03T12:53:32.161Z</time></trkpt><trkpt lat="44.6370654" lon="8.7845497"><ele>442.00000000000006</ele><time>2026-04-03T12:53:33.111Z</time></trkpt><trkpt lat="44.6370432" lon="8.7844138"><ele>442.00000000000006</ele><time>2026-04-03T12:53:34.105Z</time></trkpt><trkpt lat="44.6370175" lon="8.7842846"><ele>442.0</ele><time>2026-04-03T12:53:35.107Z</time></trkpt><trkpt lat="44.6369833" lon="8.7841759"><ele>442.0</ele><time>2026-04-03T12:53:36.148Z</time></trkpt><trkpt lat="44.6369687" lon="8.7840456"><ele>442.25</ele><time>2026-04-03T12:53:37.112Z</time></trkpt><trkpt lat="44.6369569" lon="8.7839162"><ele>442.5</ele><time>2026-04-03T12:53:38.106Z</time></trkpt><trkpt lat="44.6369549" lon="8.7837776"><ele>442.75</ele><time>2026-04-03T12:53:39.102Z</time></trkpt><trkpt lat="44.6369291" lon="8.7835201"><ele>443.0</ele><time>2026-04-03T12:53:41.11Z</time></trkpt><trkpt lat="44.6369331" lon="8.7834018"><ele>442.99999999999994</ele><time>2026-04-03T12:53:42.11Z</time></trkpt><trkpt lat="44.6368966" lon="8.7832062"><ele>443.0</ele><time>2026-04-03T12:53:44.112Z</time></trkpt><trkpt lat="44.6368599" lon="8.7831171"><ele>443.0</ele><time>2026-04-03T12:53:45.109Z</time></trkpt><trkpt lat="44.6368044" lon="8.783064"><ele>443.0</ele><time>2026-04-03T12:53:46.153Z</time></trkpt><trkpt lat="44.6367447" lon="8.7830345"><ele>442.99999999999994</ele><time>2026-04-03T12:53:47.162Z</time></trkpt><trkpt lat="44.6366649" lon="8.7830428"><ele>443.0</ele><time>2026-04-03T12:53:48.192Z</time></trkpt><trkpt lat="44.6365893" lon="8.7830719"><ele>442.99999999999994</ele><time>2026-04-03T12:53:49.111Z</time></trkpt><trkpt lat="44.6365228" lon="8.7831101"><ele>443.0</ele><time>2026-04-03T12:53:50.106Z</time></trkpt><trkpt lat="44.6364532" lon="8.7831715"><ele>443.0</ele><time>2026-04-03T12:53:51.106Z</time></trkpt><trkpt lat="44.6363991" lon="8.7832314"><ele>443.0</ele><time>2026-04-03T12:53:52.168Z</time></trkpt><trkpt lat="44.6363369" lon="8.783298"><ele>442.99999999999994</ele><time>2026-04-03T12:53:53.144Z</time></trkpt><trkpt lat="44.6362024" lon="8.7833207"><ele>443.0</ele><time>2026-04-03T12:53:55.178Z</time></trkpt><trkpt lat="44.6361291" lon="8.7833133"><ele>443.2</ele><time>2026-04-03T12:53:56.11Z</time></trkpt><trkpt lat="44.6360325" lon="8.7833236"><ele>443.4</ele><time>2026-04-03T12:53:57.107Z</time></trkpt><trkpt lat="44.6359575" lon="8.783332"><ele>443.59999999999997</ele><time>2026-04-03T12:53:58.111Z</time></trkpt><trkpt lat="44.6358185" lon="8.7833384"><ele>443.79999999999995</ele><time>2026-04-03T12:54:00.103Z</time></trkpt><trkpt lat="44.6357308" lon="8.7832892"><ele>444.0</ele><time>2026-04-03T12:54:03.115Z</time></trkpt><trkpt lat="44.6358915" lon="8.7832056"><ele>444.0</ele><time>2026-04-03T12:54:07.107Z</time></trkpt><trkpt lat="44.6360809" lon="8.7830979"><ele>444.0</ele><time>2026-04-03T12:54:08.999Z</time></trkpt><trkpt lat="44.636176" lon="8.7830295"><ele>444.0</ele><time>2026-04-03T12:54:10Z</time></trkpt><trkpt lat="44.6362724" lon="8.7829978"><ele>444.0</ele><time>2026-04-03T12:54:10.999Z</time></trkpt><trkpt lat="44.6363773" lon="8.782971"><ele>443.79999999999995</ele><time>2026-04-03T12:54:11.999Z</time></trkpt><trkpt lat="44.6365035" lon="8.7829461"><ele>443.59999999999997</ele><time>2026-04-03T12:54:12.999Z</time></trkpt><trkpt lat="44.6366151" lon="8.782938"><ele>443.4</ele><time>2026-04-03T12:54:13.999Z</time></trkpt><trkpt lat="44.6366985" lon="8.7829213"><ele>443.2</ele><time>2026-04-03T12:54:15.112Z</time></trkpt><trkpt lat="44.6367577" lon="8.7828744"><ele>443.0</ele><time>2026-04-03T12:54:16.115Z</time></trkpt><trkpt lat="44.636972" lon="8.7827741"><ele>437.75</ele><time>2026-04-03T12:54:18.115Z</time></trkpt><trkpt lat="44.637075" lon="8.7824889"><ele>432.5</ele><time>2026-04-03T12:54:20.105Z</time></trkpt><trkpt lat="44.6370875" lon="8.7824014"><ele>427.25</ele><time>2026-04-03T12:54:21.129Z</time></trkpt><trkpt lat="44.6371449" lon="8.7823094"><ele>422.0</ele><time>2026-04-03T12:54:22.111Z</time></trkpt><trkpt lat="44.6372535" lon="8.7823549"><ele>421.99999999999994</ele><time>2026-04-03T12:54:24.999Z</time></trkpt><trkpt lat="44.6372879" lon="8.7824386"><ele>422.0</ele><time>2026-04-03T12:54:25.999Z</time></trkpt><trkpt lat="44.6373279" lon="8.7825424"><ele>422.0</ele><time>2026-04-03T12:54:27.116Z</time></trkpt><trkpt lat="44.6373517" lon="8.7826267"><ele>422.0</ele><time>2026-04-03T12:54:28.125Z</time></trkpt><trkpt lat="44.6374228" lon="8.7827148"><ele>421.99999999999994</ele><time>2026-04-03T12:54:30.104Z</time></trkpt><trkpt lat="44.6375038" lon="8.7826825"><ele>422.0</ele><time>2026-04-03T12:54:32.104Z</time></trkpt><trkpt lat="44.6375007" lon="8.7825847"><ele>421.99999999999994</ele><time>2026-04-03T12:54:34.105Z</time></trkpt><trkpt lat="44.6374601" lon="8.782451"><ele>422.0</ele><time>2026-04-03T12:54:36.101Z</time></trkpt><trkpt lat="44.6374321" lon="8.7823083"><ele>422.0</ele><time>2026-04-03T12:54:38.105Z</time></trkpt><trkpt lat="44.6374033" lon="8.7822111"><ele>422.0</ele><time>2026-04-03T12:54:39.105Z</time></trkpt><trkpt lat="44.6373742" lon="8.7821037"><ele>421.99999999999994</ele><time>2026-04-03T12:54:40.135Z</time></trkpt><trkpt lat="44.6373505" lon="8.7820019"><ele>422.0</ele><time>2026-04-03T12:54:41.101Z</time></trkpt><trkpt lat="44.6373097" lon="8.7819199"><ele>419.0</ele><time>2026-04-03T12:54:42.106Z</time></trkpt><trkpt lat="44.6371383" lon="8.7818271"><ele>416.0</ele><time>2026-04-03T12:54:45.103Z</time></trkpt><trkpt lat="44.6370689" lon="8.7817434"><ele>413.0</ele><time>2026-04-03T12:54:47.117Z</time></trkpt><trkpt lat="44.6370777" lon="8.7816415"><ele>410.0</ele><time>2026-04-03T12:54:49.1Z</time></trkpt><trkpt lat="44.6371259" lon="8.7815664"><ele>407.0</ele><time>2026-04-03T12:54:51.1Z</time></trkpt><trkpt lat="44.6372011" lon="8.7816222"><ele>407.0</ele><time>2026-04-03T12:54:54.102Z</time></trkpt><trkpt lat="44.6373263" lon="8.7816596"><ele>407.0</ele><time>2026-04-03T12:54:56.101Z</time></trkpt><trkpt lat="44.6375378" lon="8.7817314"><ele>407.0</ele><time>2026-04-03T12:54:59.115Z</time></trkpt><trkpt lat="44.6376036" lon="8.7817658"><ele>407.0</ele><time>2026-04-03T12:55:00.103Z</time></trkpt><trkpt lat="44.6376744" lon="8.7817824"><ele>406.99999999999994</ele><time>2026-04-03T12:55:01.103Z</time></trkpt><trkpt lat="44.6377509" lon="8.7817956"><ele>407.0</ele><time>2026-04-03T12:55:02.108Z</time></trkpt><trkpt lat="44.6378215" lon="8.7818035"><ele>407.0</ele><time>2026-04-03T12:55:03.102Z</time></trkpt><trkpt lat="44.6378904" lon="8.7818236"><ele>407.0</ele><time>2026-04-03T12:55:04.105Z</time></trkpt><trkpt lat="44.6380227" lon="8.7818919"><ele>406.99999999999994</ele><time>2026-04-03T12:55:06.109Z</time></trkpt><trkpt lat="44.6380912" lon="8.7819409"><ele>407.0</ele><time>2026-04-03T12:55:07.113Z</time></trkpt><trkpt lat="44.6382549" lon="8.7820414"><ele>407.0</ele><time>2026-04-03T12:55:08.999Z</time></trkpt><trkpt lat="44.6383343" lon="8.782108"><ele>407.0</ele><time>2026-04-03T12:55:10.104Z</time></trkpt><trkpt lat="44.6384085" lon="8.7821529"><ele>407.0</ele><time>2026-04-03T12:55:11.105Z</time></trkpt><trkpt lat="44.6384732" lon="8.7821698"><ele>407.0</ele><time>2026-04-03T12:55:12.105Z</time></trkpt><trkpt lat="44.6386318" lon="8.7820953"><ele>407.0</ele><time>2026-04-03T12:55:14.104Z</time></trkpt><trkpt lat="44.6386884" lon="8.7820209"><ele>407.0</ele><time>2026-04-03T12:55:15.107Z</time></trkpt><trkpt lat="44.6387548" lon="8.7819436"><ele>407.0</ele><time>2026-04-03T12:55:16.112Z</time></trkpt><trkpt lat="44.6388253" lon="8.7818551"><ele>407.0</ele><time>2026-04-03T12:55:17.108Z</time></trkpt><trkpt lat="44.6388864" lon="8.781763"><ele>407.0</ele><time>2026-04-03T12:55:18.107Z</time></trkpt><trkpt lat="44.6389539" lon="8.7816775"><ele>407.0</ele><time>2026-04-03T12:55:19.108Z</time></trkpt><trkpt lat="44.6390001" lon="8.7815647"><ele>405.8</ele><time>2026-04-03T12:55:20.107Z</time></trkpt><trkpt lat="44.6390637" lon="8.7814903"><ele>404.6</ele><time>2026-04-03T12:55:21.106Z</time></trkpt><trkpt lat="44.6390992" lon="8.7813985"><ele>403.40000000000003</ele><time>2026-04-03T12:55:22.107Z</time></trkpt><trkpt lat="44.6391579" lon="8.7813249"><ele>402.20000000000005</ele><time>2026-04-03T12:55:23.108Z</time></trkpt><trkpt lat="44.6392597" lon="8.7812284"><ele>401.0</ele><time>2026-04-03T12:55:25.999Z</time></trkpt><trkpt lat="44.6393536" lon="8.7813058"><ele>401.0</ele><time>2026-04-03T12:55:27.999Z</time></trkpt><trkpt lat="44.6394352" lon="8.7813716"><ele>401.0</ele><time>2026-04-03T12:55:30.103Z</time></trkpt><trkpt lat="44.6394597" lon="8.7814814"><ele>401.0</ele><time>2026-04-03T12:55:31.107Z</time></trkpt><trkpt lat="44.6395156" lon="8.7817641"><ele>401.0</ele><time>2026-04-03T12:55:32.999Z</time></trkpt><trkpt lat="44.6395252" lon="8.7818702"><ele>396.20000000000005</ele><time>2026-04-03T12:55:33.999Z</time></trkpt><trkpt lat="44.6395266" lon="8.782007"><ele>391.40000000000003</ele><time>2026-04-03T12:55:35.119Z</time></trkpt><trkpt lat="44.63955" lon="8.7821042"><ele>386.6</ele><time>2026-04-03T12:55:36.105Z</time></trkpt><trkpt lat="44.6395594" lon="8.782249"><ele>381.8</ele><time>2026-04-03T12:55:37.106Z</time></trkpt><trkpt lat="44.639541" lon="8.7823976"><ele>377.0</ele><time>2026-04-03T12:55:38.108Z</time></trkpt><trkpt lat="44.6395143" lon="8.7825132"><ele>380.33333333333337</ele><time>2026-04-03T12:55:39.107Z</time></trkpt><trkpt lat="44.6394617" lon="8.7826204"><ele>383.6666666666667</ele><time>2026-04-03T12:55:40.105Z</time></trkpt><trkpt lat="44.63941" lon="8.7827249"><ele>387.0</ele><time>2026-04-03T12:55:42.11Z</time></trkpt><trkpt lat="44.6393524" lon="8.7827892"><ele>390.33333333333337</ele><time>2026-04-03T12:55:43.103Z</time></trkpt><trkpt lat="44.639285" lon="8.7828694"><ele>393.6666666666667</ele><time>2026-04-03T12:55:44.106Z</time></trkpt><trkpt lat="44.6392422" lon="8.782936"><ele>397.0</ele><time>2026-04-03T12:55:45.107Z</time></trkpt><trkpt lat="44.6391964" lon="8.783075"><ele>397.0</ele><time>2026-04-03T12:55:46.999Z</time></trkpt><trkpt lat="44.6391292" lon="8.7831606"><ele>397.0</ele><time>2026-04-03T12:55:47.999Z</time></trkpt><trkpt lat="44.6389978" lon="8.7833167"><ele>397.0</ele><time>2026-04-03T12:55:49.115Z</time></trkpt><trkpt lat="44.6389309" lon="8.7834326"><ele>397.0</ele><time>2026-04-03T12:55:50.105Z</time></trkpt><trkpt lat="44.6388713" lon="8.7835456"><ele>393.5</ele><time>2026-04-03T12:55:51.107Z</time></trkpt><trkpt lat="44.6387947" lon="8.7837852"><ele>390.0</ele><time>2026-04-03T12:55:52.106Z</time></trkpt><trkpt lat="44.6387733" lon="8.7840028"><ele>386.5</ele><time>2026-04-03T12:55:54.105Z</time></trkpt><trkpt lat="44.6387562" lon="8.7841466"><ele>383.0</ele><time>2026-04-03T12:55:55.106Z</time></trkpt><trkpt lat="44.6387771" lon="8.784319"><ele>384.2</ele><time>2026-04-03T12:55:56.115Z</time></trkpt><trkpt lat="44.6387991" lon="8.7844642"><ele>385.4</ele><time>2026-04-03T12:55:57.106Z</time></trkpt><trkpt lat="44.6388381" lon="8.7845968"><ele>386.59999999999997</ele><time>2026-04-03T12:55:58.108Z</time></trkpt><trkpt lat="44.638886" lon="8.7847253"><ele>387.79999999999995</ele><time>2026-04-03T12:55:59.107Z</time></trkpt><trkpt lat="44.6389428" lon="8.7848633"><ele>389.0</ele><time>2026-04-03T12:56:00.112Z</time></trkpt><trkpt lat="44.6390172" lon="8.784979"><ele>389.0</ele><time>2026-04-03T12:56:01.107Z</time></trkpt><trkpt lat="44.6391096" lon="8.7851161"><ele>389.0</ele><time>2026-04-03T12:56:02.108Z</time></trkpt><trkpt lat="44.6391868" lon="8.7852646"><ele>389.0</ele><time>2026-04-03T12:56:03.105Z</time></trkpt><trkpt lat="44.6392881" lon="8.7853686"><ele>389.0</ele><time>2026-04-03T12:56:04.107Z</time></trkpt><trkpt lat="44.6393772" lon="8.7855373"><ele>388.75</ele><time>2026-04-03T12:56:05.103Z</time></trkpt><trkpt lat="44.6394661" lon="8.7856531"><ele>388.5</ele><time>2026-04-03T12:56:06.1Z</time></trkpt><trkpt lat="44.6395722" lon="8.7857607"><ele>388.25</ele><time>2026-04-03T12:56:07.113Z</time></trkpt><trkpt lat="44.6396811" lon="8.7858536"><ele>388.0</ele><time>2026-04-03T12:56:08.114Z</time></trkpt><trkpt lat="44.6397885" lon="8.7859516"><ele>387.79999999999995</ele><time>2026-04-03T12:56:09.105Z</time></trkpt><trkpt lat="44.6398807" lon="8.7860443"><ele>387.6</ele><time>2026-04-03T12:56:10.108Z</time></trkpt><trkpt lat="44.6399829" lon="8.7861179"><ele>387.4</ele><time>2026-04-03T12:56:11.102Z</time></trkpt><trkpt lat="44.6400533" lon="8.7862012"><ele>387.20000000000005</ele><time>2026-04-03T12:56:12.11Z</time></trkpt><trkpt lat="44.6401643" lon="8.7862106"><ele>387.0</ele><time>2026-04-03T12:56:13.106Z</time></trkpt><trkpt lat="44.6403166" lon="8.7862099"><ele>387.0</ele><time>2026-04-03T12:56:14.11Z</time></trkpt><trkpt lat="44.6404169" lon="8.7861969"><ele>387.0</ele><time>2026-04-03T12:56:15.109Z</time></trkpt><trkpt lat="44.6404996" lon="8.7861615"><ele>387.0</ele><time>2026-04-03T12:56:16.109Z</time></trkpt><trkpt lat="44.6404683" lon="8.7860413"><ele>387.0</ele><time>2026-04-03T12:56:17.105Z</time></trkpt><trkpt lat="44.6405278" lon="8.785969"><ele>387.0</ele><time>2026-04-03T12:56:19.107Z</time></trkpt><trkpt lat="44.6406304" lon="8.7860154"><ele>387.0</ele><time>2026-04-03T12:56:21.102Z</time></trkpt><trkpt lat="44.640712" lon="8.7861191"><ele>387.0</ele><time>2026-04-03T12:56:23.107Z</time></trkpt><trkpt lat="44.6406919" lon="8.7863156"><ele>387.0</ele><time>2026-04-03T12:56:24.115Z</time></trkpt><trkpt lat="44.6407292" lon="8.7864307"><ele>387.0</ele><time>2026-04-03T12:56:25.103Z</time></trkpt><trkpt lat="44.6407701" lon="8.7865335"><ele>387.0</ele><time>2026-04-03T12:56:26.105Z</time></trkpt><trkpt lat="44.6408436" lon="8.786622"><ele>387.0</ele><time>2026-04-03T12:56:27.117Z</time></trkpt><trkpt lat="44.6409115" lon="8.7867286"><ele>387.0</ele><time>2026-04-03T12:56:28.135Z</time></trkpt><trkpt lat="44.6409777" lon="8.7868181"><ele>387.0</ele><time>2026-04-03T12:56:29.113Z</time></trkpt><trkpt lat="44.6410609" lon="8.7869304"><ele>387.0</ele><time>2026-04-03T12:56:30.108Z</time></trkpt><trkpt lat="44.6411409" lon="8.7870007"><ele>387.0</ele><time>2026-04-03T12:56:31.174Z</time></trkpt><trkpt lat="44.6412403" lon="8.7870797"><ele>385.0</ele><time>2026-04-03T12:56:32.169Z</time></trkpt><trkpt lat="44.6413569" lon="8.7871237"><ele>383.0</ele><time>2026-04-03T12:56:33.135Z</time></trkpt><trkpt lat="44.6414433" lon="8.787181"><ele>381.0</ele><time>2026-04-03T12:56:34.107Z</time></trkpt><trkpt lat="44.6414966" lon="8.7872454"><ele>379.0</ele><time>2026-04-03T12:56:35.115Z</time></trkpt><trkpt lat="44.6415798" lon="8.7872788"><ele>377.0</ele><time>2026-04-03T12:56:36.149Z</time></trkpt><trkpt lat="44.641629" lon="8.7874233"><ele>377.0</ele><time>2026-04-03T12:56:37.151Z</time></trkpt><trkpt lat="44.6416711" lon="8.7875345"><ele>377.0</ele><time>2026-04-03T12:56:38.131Z</time></trkpt><trkpt lat="44.6417164" lon="8.7876651"><ele>377.0</ele><time>2026-04-03T12:56:39.107Z</time></trkpt><trkpt lat="44.64177" lon="8.7878059"><ele>377.0</ele><time>2026-04-03T12:56:40.109Z</time></trkpt><trkpt lat="44.6418175" lon="8.7879542"><ele>377.0</ele><time>2026-04-03T12:56:41.178Z</time></trkpt><trkpt lat="44.6418806" lon="8.7880915"><ele>377.40000000000003</ele><time>2026-04-03T12:56:42.152Z</time></trkpt><trkpt lat="44.6419349" lon="8.7881935"><ele>377.8</ele><time>2026-04-03T12:56:43.171Z</time></trkpt><trkpt lat="44.6420118" lon="8.7883182"><ele>378.2</ele><time>2026-04-03T12:56:44.106Z</time></trkpt><trkpt lat="44.6421147" lon="8.7883951"><ele>378.6</ele><time>2026-04-03T12:56:45.105Z</time></trkpt><trkpt lat="44.6421976" lon="8.7884869"><ele>379.0</ele><time>2026-04-03T12:56:46.189Z</time></trkpt><trkpt lat="44.6422956" lon="8.7885889"><ele>379.4</ele><time>2026-04-03T12:56:47.156Z</time></trkpt><trkpt lat="44.642396" lon="8.7886727"><ele>379.79999999999995</ele><time>2026-04-03T12:56:48.135Z</time></trkpt><trkpt lat="44.6424915" lon="8.7887544"><ele>380.20000000000005</ele><time>2026-04-03T12:56:49.11Z</time></trkpt><trkpt lat="44.6425863" lon="8.7888118"><ele>380.6</ele><time>2026-04-03T12:56:50.107Z</time></trkpt><trkpt lat="44.6426789" lon="8.7888762"><ele>381.0</ele><time>2026-04-03T12:56:51.151Z</time></trkpt><trkpt lat="44.6427689" lon="8.7889539"><ele>380.20000000000005</ele><time>2026-04-03T12:56:52.102Z</time></trkpt><trkpt lat="44.6428566" lon="8.7890287"><ele>379.40000000000003</ele><time>2026-04-03T12:56:53.1Z</time></trkpt><trkpt lat="44.6429434" lon="8.78906"><ele>378.6</ele><time>2026-04-03T12:56:54.103Z</time></trkpt><trkpt lat="44.6430161" lon="8.7891245"><ele>377.8</ele><time>2026-04-03T12:56:55.109Z</time></trkpt><trkpt lat="44.6431025" lon="8.7890884"><ele>377.0</ele><time>2026-04-03T12:56:56.172Z</time></trkpt><trkpt lat="44.6431929" lon="8.7890193"><ele>377.0</ele><time>2026-04-03T12:56:57.188Z</time></trkpt><trkpt lat="44.6432827" lon="8.7889844"><ele>377.0</ele><time>2026-04-03T12:56:58.189Z</time></trkpt><trkpt lat="44.6433717" lon="8.7889523"><ele>377.0</ele><time>2026-04-03T12:56:59.106Z</time></trkpt><trkpt lat="44.6434796" lon="8.7888838"><ele>377.0</ele><time>2026-04-03T12:57:00.111Z</time></trkpt><trkpt lat="44.6435423" lon="8.7887066"><ele>377.0</ele><time>2026-04-03T12:57:01.164Z</time></trkpt><trkpt lat="44.643611" lon="8.7885857"><ele>374.8</ele><time>2026-04-03T12:57:02.162Z</time></trkpt><trkpt lat="44.6436913" lon="8.7884675"><ele>372.6</ele><time>2026-04-03T12:57:03.16Z</time></trkpt><trkpt lat="44.6437569" lon="8.7883491"><ele>370.40000000000003</ele><time>2026-04-03T12:57:04.106Z</time></trkpt><trkpt lat="44.6438236" lon="8.7882327"><ele>368.20000000000005</ele><time>2026-04-03T12:57:05.106Z</time></trkpt><trkpt lat="44.6438789" lon="8.7881176"><ele>366.0</ele><time>2026-04-03T12:57:06.186Z</time></trkpt><trkpt lat="44.6439489" lon="8.7880245"><ele>366.0</ele><time>2026-04-03T12:57:07.183Z</time></trkpt><trkpt lat="44.6440071" lon="8.7879366"><ele>366.0</ele><time>2026-04-03T12:57:08.168Z</time></trkpt><trkpt lat="44.644099" lon="8.7878333"><ele>366.0</ele><time>2026-04-03T12:57:10.108Z</time></trkpt><trkpt lat="44.6441811" lon="8.7879159"><ele>366.0</ele><time>2026-04-03T12:57:11.196Z</time></trkpt><trkpt lat="44.644251" lon="8.7879709"><ele>366.0</ele><time>2026-04-03T12:57:12.172Z</time></trkpt><trkpt lat="44.6443044" lon="8.788056"><ele>366.0</ele><time>2026-04-03T12:57:13.21Z</time></trkpt><trkpt lat="44.6443901" lon="8.7882838"><ele>366.0</ele><time>2026-04-03T12:57:15.112Z</time></trkpt><trkpt lat="44.6444511" lon="8.7883823"><ele>366.0</ele><time>2026-04-03T12:57:16.191Z</time></trkpt><trkpt lat="44.6444918" lon="8.7885349"><ele>366.0</ele><time>2026-04-03T12:57:17.182Z</time></trkpt><trkpt lat="44.6445266" lon="8.788679"><ele>365.6</ele><time>2026-04-03T12:57:18.154Z</time></trkpt><trkpt lat="44.6445621" lon="8.788825"><ele>365.20000000000005</ele><time>2026-04-03T12:57:19.108Z</time></trkpt><trkpt lat="44.6446175" lon="8.7889271"><ele>364.79999999999995</ele><time>2026-04-03T12:57:20.113Z</time></trkpt><trkpt lat="44.6446918" lon="8.7890047"><ele>364.4</ele><time>2026-04-03T12:57:21.207Z</time></trkpt><trkpt lat="44.6447515" lon="8.7890878"><ele>364.0</ele><time>2026-04-03T12:57:22.148Z</time></trkpt><trkpt lat="44.6448245" lon="8.7891654"><ele>364.0</ele><time>2026-04-03T12:57:23.15Z</time></trkpt><trkpt lat="44.6449141" lon="8.7891815"><ele>364.0</ele><time>2026-04-03T12:57:24.105Z</time></trkpt><trkpt lat="44.6450079" lon="8.7891229"><ele>364.0</ele><time>2026-04-03T12:57:25.105Z</time></trkpt><trkpt lat="44.6450852" lon="8.789094"><ele>364.0</ele><time>2026-04-03T12:57:26.103Z</time></trkpt><trkpt lat="44.6452111" lon="8.7889594"><ele>364.0</ele><time>2026-04-03T12:57:28.113Z</time></trkpt><trkpt lat="44.6452566" lon="8.7888933"><ele>361.0</ele><time>2026-04-03T12:57:29.107Z</time></trkpt><trkpt lat="44.6453451" lon="8.7887201"><ele>358.0</ele><time>2026-04-03T12:57:32.106Z</time></trkpt><trkpt lat="44.6454181" lon="8.7889139"><ele>355.0</ele><time>2026-04-03T12:57:35.101Z</time></trkpt><trkpt lat="44.645496" lon="8.7889413"><ele>352.0</ele><time>2026-04-03T12:57:36.112Z</time></trkpt><trkpt lat="44.6455945" lon="8.789107"><ele>353.5</ele><time>2026-04-03T12:57:38.106Z</time></trkpt><trkpt lat="44.6457026" lon="8.7893728"><ele>355.0</ele><time>2026-04-03T12:57:40.127Z</time></trkpt><trkpt lat="44.6457461" lon="8.7894401"><ele>356.5</ele><time>2026-04-03T12:57:41.17Z</time></trkpt><trkpt lat="44.6457811" lon="8.7895611"><ele>358.0</ele><time>2026-04-03T12:57:42.16Z</time></trkpt><trkpt lat="44.6458131" lon="8.7896602"><ele>358.0</ele><time>2026-04-03T12:57:43.182Z</time></trkpt><trkpt lat="44.6458979" lon="8.789743"><ele>358.0</ele><time>2026-04-03T12:57:44.117Z</time></trkpt><trkpt lat="44.6459735" lon="8.7898242"><ele>358.0</ele><time>2026-04-03T12:57:45.107Z</time></trkpt><trkpt lat="44.6460538" lon="8.7899067"><ele>358.0</ele><time>2026-04-03T12:57:46.199Z</time></trkpt><trkpt lat="44.6461371" lon="8.7899729"><ele>358.0</ele><time>2026-04-03T12:57:47.142Z</time></trkpt><trkpt lat="44.6462368" lon="8.7900358"><ele>357.4</ele><time>2026-04-03T12:57:48.164Z</time></trkpt><trkpt lat="44.6463193" lon="8.7900737"><ele>356.79999999999995</ele><time>2026-04-03T12:57:49.114Z</time></trkpt><trkpt lat="44.646404" lon="8.7901283"><ele>356.2</ele><time>2026-04-03T12:57:50.104Z</time></trkpt><trkpt lat="44.6465117" lon="8.7902123"><ele>355.6</ele><time>2026-04-03T12:57:51.109Z</time></trkpt><trkpt lat="44.6466107" lon="8.7903007"><ele>355.0</ele><time>2026-04-03T12:57:52.103Z</time></trkpt><trkpt lat="44.6466868" lon="8.7903911"><ele>355.0</ele><time>2026-04-03T12:57:53.18Z</time></trkpt><trkpt lat="44.6467813" lon="8.7904948"><ele>355.0</ele><time>2026-04-03T12:57:54.107Z</time></trkpt><trkpt lat="44.6468599" lon="8.7906007"><ele>355.0</ele><time>2026-04-03T12:57:55.11Z</time></trkpt><trkpt lat="44.6469394" lon="8.7906991"><ele>355.0</ele><time>2026-04-03T12:57:56.205Z</time></trkpt><trkpt lat="44.6469914" lon="8.7907947"><ele>355.0</ele><time>2026-04-03T12:57:57.174Z</time></trkpt><trkpt lat="44.647023" lon="8.7908721"><ele>352.8</ele><time>2026-04-03T12:57:58.174Z</time></trkpt><trkpt lat="44.6470352" lon="8.7909825"><ele>350.6</ele><time>2026-04-03T12:57:59.109Z</time></trkpt><trkpt lat="44.647038" lon="8.7910975"><ele>348.4</ele><time>2026-04-03T12:58:00.11Z</time></trkpt><trkpt lat="44.647033" lon="8.791216"><ele>346.2</ele><time>2026-04-03T12:58:01.185Z</time></trkpt><trkpt lat="44.6470465" lon="8.7913829"><ele>344.0</ele><time>2026-04-03T12:58:02.1Z</time></trkpt><trkpt lat="44.6470872" lon="8.7914899"><ele>344.0</ele><time>2026-04-03T12:58:03.195Z</time></trkpt><trkpt lat="44.6471318" lon="8.7916234"><ele>344.0</ele><time>2026-04-03T12:58:04.107Z</time></trkpt><trkpt lat="44.6471752" lon="8.7917271"><ele>344.0</ele><time>2026-04-03T12:58:05.112Z</time></trkpt><trkpt lat="44.6472243" lon="8.791857"><ele>344.0</ele><time>2026-04-03T12:58:06.174Z</time></trkpt><trkpt lat="44.6472523" lon="8.7920089"><ele>344.0</ele><time>2026-04-03T12:58:07.186Z</time></trkpt><trkpt lat="44.64727" lon="8.7921547"><ele>343.75</ele><time>2026-04-03T12:58:08.166Z</time></trkpt><trkpt lat="44.6473231" lon="8.7923091"><ele>343.5</ele><time>2026-04-03T12:58:09.11Z</time></trkpt><trkpt lat="44.6473763" lon="8.792421"><ele>343.25</ele><time>2026-04-03T12:58:10.113Z</time></trkpt><trkpt lat="44.6474042" lon="8.7925635"><ele>343.0</ele><time>2026-04-03T12:58:11.105Z</time></trkpt><trkpt lat="44.6474542" lon="8.7927285"><ele>342.4</ele><time>2026-04-03T12:58:12.109Z</time></trkpt><trkpt lat="44.6475094" lon="8.7928622"><ele>341.79999999999995</ele><time>2026-04-03T12:58:13.114Z</time></trkpt><trkpt lat="44.647539" lon="8.7930202"><ele>341.2</ele><time>2026-04-03T12:58:14.103Z</time></trkpt><trkpt lat="44.6475503" lon="8.7931569"><ele>340.6</ele><time>2026-04-03T12:58:15.108Z</time></trkpt><trkpt lat="44.6476127" lon="8.7932329"><ele>340.0</ele><time>2026-04-03T12:58:16.133Z</time></trkpt><trkpt lat="44.6476738" lon="8.7933587"><ele>340.0</ele><time>2026-04-03T12:58:17.108Z</time></trkpt><trkpt lat="44.6477219" lon="8.7934995"><ele>340.0</ele><time>2026-04-03T12:58:18.104Z</time></trkpt><trkpt lat="44.6477638" lon="8.7936502"><ele>340.0</ele><time>2026-04-03T12:58:19.108Z</time></trkpt><trkpt lat="44.6478029" lon="8.7938213"><ele>340.0</ele><time>2026-04-03T12:58:20.17Z</time></trkpt><trkpt lat="44.6478738" lon="8.7939048"><ele>340.0</ele><time>2026-04-03T12:58:21.206Z</time></trkpt><trkpt lat="44.6479348" lon="8.7940421"><ele>338.75</ele><time>2026-04-03T12:58:22.163Z</time></trkpt><trkpt lat="44.6479884" lon="8.7941912"><ele>337.5</ele><time>2026-04-03T12:58:23.159Z</time></trkpt><trkpt lat="44.6480434" lon="8.7943284"><ele>336.25</ele><time>2026-04-03T12:58:24.107Z</time></trkpt><trkpt lat="44.6480965" lon="8.7944775"><ele>335.0</ele><time>2026-04-03T12:58:25.108Z</time></trkpt><trkpt lat="44.6481526" lon="8.7946019"><ele>334.6</ele><time>2026-04-03T12:58:26.171Z</time></trkpt><trkpt lat="44.6482076" lon="8.7947186"><ele>334.2</ele><time>2026-04-03T12:58:27.153Z</time></trkpt><trkpt lat="44.6482631" lon="8.7948352"><ele>333.79999999999995</ele><time>2026-04-03T12:58:28.148Z</time></trkpt><trkpt lat="44.6482988" lon="8.7949741"><ele>333.4</ele><time>2026-04-03T12:58:29.106Z</time></trkpt><trkpt lat="44.6483353" lon="8.7950896"><ele>333.0</ele><time>2026-04-03T12:58:30.111Z</time></trkpt><trkpt lat="44.6483626" lon="8.7952342"><ele>331.59999999999997</ele><time>2026-04-03T12:58:31.164Z</time></trkpt><trkpt lat="44.6483941" lon="8.7953779"><ele>330.2</ele><time>2026-04-03T12:58:32.156Z</time></trkpt><trkpt lat="44.6484132" lon="8.7955247"><ele>328.8</ele><time>2026-04-03T12:58:33.174Z</time></trkpt><trkpt lat="44.6484383" lon="8.7956844"><ele>327.4</ele><time>2026-04-03T12:58:34.111Z</time></trkpt><trkpt lat="44.6484778" lon="8.7958184"><ele>326.0</ele><time>2026-04-03T12:58:35.11Z</time></trkpt><trkpt lat="44.6485028" lon="8.7959743"><ele>324.75</ele><time>2026-04-03T12:58:36.184Z</time></trkpt><trkpt lat="44.6485399" lon="8.796127"><ele>323.5</ele><time>2026-04-03T12:58:37.168Z</time></trkpt><trkpt lat="44.6485682" lon="8.7962879"><ele>322.25</ele><time>2026-04-03T12:58:38.16Z</time></trkpt><trkpt lat="44.6486048" lon="8.7964527"><ele>321.0</ele><time>2026-04-03T12:58:39.108Z</time></trkpt><trkpt lat="44.6486447" lon="8.796618"><ele>321.75</ele><time>2026-04-03T12:58:40.108Z</time></trkpt><trkpt lat="44.6486754" lon="8.796794"><ele>322.5</ele><time>2026-04-03T12:58:41.184Z</time></trkpt><trkpt lat="44.6487237" lon="8.7969564"><ele>323.25</ele><time>2026-04-03T12:58:42.152Z</time></trkpt><trkpt lat="44.6487697" lon="8.7970946"><ele>324.0</ele><time>2026-04-03T12:58:43.122Z</time></trkpt><trkpt lat="44.6488191" lon="8.7972261"><ele>324.0</ele><time>2026-04-03T12:58:44.11Z</time></trkpt><trkpt lat="44.6488752" lon="8.7973814"><ele>324.0</ele><time>2026-04-03T12:58:45.108Z</time></trkpt><trkpt lat="44.6489402" lon="8.7975085"><ele>324.0</ele><time>2026-04-03T12:58:46.109Z</time></trkpt><trkpt lat="44.6490082" lon="8.7976304"><ele>324.0</ele><time>2026-04-03T12:58:47.108Z</time></trkpt><trkpt lat="44.6490784" lon="8.7977514"><ele>321.59999999999997</ele><time>2026-04-03T12:58:48.108Z</time></trkpt><trkpt lat="44.6491312" lon="8.7978796"><ele>319.2</ele><time>2026-04-03T12:58:49.102Z</time></trkpt><trkpt lat="44.649183" lon="8.7980245"><ele>316.79999999999995</ele><time>2026-04-03T12:58:50.101Z</time></trkpt><trkpt lat="44.6492331" lon="8.7981688"><ele>314.4</ele><time>2026-04-03T12:58:51.102Z</time></trkpt><trkpt lat="44.649274" lon="8.7982745"><ele>312.0</ele><time>2026-04-03T12:58:52.106Z</time></trkpt><trkpt lat="44.6492994" lon="8.7983753"><ele>312.0</ele><time>2026-04-03T12:58:53.103Z</time></trkpt><trkpt lat="44.6493343" lon="8.7984882"><ele>312.0</ele><time>2026-04-03T12:58:54.105Z</time></trkpt><trkpt lat="44.649349" lon="8.798666"><ele>312.0</ele><time>2026-04-03T12:58:56.174Z</time></trkpt><trkpt lat="44.6493195" lon="8.7988796"><ele>312.0</ele><time>2026-04-03T12:58:58.165Z</time></trkpt><trkpt lat="44.6493041" lon="8.7990335"><ele>311.5</ele><time>2026-04-03T12:58:59.106Z</time></trkpt><trkpt lat="44.6493007" lon="8.7992632"><ele>311.0</ele><time>2026-04-03T12:59:00.107Z</time></trkpt><trkpt lat="44.6493312" lon="8.7994595"><ele>310.5</ele><time>2026-04-03T12:59:01.152Z</time></trkpt><trkpt lat="44.6493736" lon="8.7996326"><ele>310.0</ele><time>2026-04-03T12:59:02.187Z</time></trkpt><trkpt lat="44.6494301" lon="8.7998094"><ele>310.3333333333333</ele><time>2026-04-03T12:59:03.159Z</time></trkpt><trkpt lat="44.6495557" lon="8.8001689"><ele>310.6666666666667</ele><time>2026-04-03T12:59:05.11Z</time></trkpt><trkpt lat="44.6496262" lon="8.8003688"><ele>311.0</ele><time>2026-04-03T12:59:06.188Z</time></trkpt><trkpt lat="44.6497034" lon="8.800549"><ele>311.0</ele><time>2026-04-03T12:59:07.18Z</time></trkpt><trkpt lat="44.6497816" lon="8.8007464"><ele>311.0</ele><time>2026-04-03T12:59:08.182Z</time></trkpt><trkpt lat="44.6498694" lon="8.8009505"><ele>311.0</ele><time>2026-04-03T12:59:09.108Z</time></trkpt><trkpt lat="44.6499576" lon="8.8011363"><ele>308.33333333333337</ele><time>2026-04-03T12:59:10.109Z</time></trkpt><trkpt lat="44.6500534" lon="8.8013357"><ele>305.6666666666667</ele><time>2026-04-03T12:59:11.193Z</time></trkpt><trkpt lat="44.6501509" lon="8.8015152"><ele>303.0</ele><time>2026-04-03T12:59:12.204Z</time></trkpt><trkpt lat="44.6502442" lon="8.801668"><ele>303.25</ele><time>2026-04-03T12:59:13.192Z</time></trkpt><trkpt lat="44.6503414" lon="8.8018055"><ele>303.5</ele><time>2026-04-03T12:59:14.102Z</time></trkpt><trkpt lat="44.6504428" lon="8.8019174"><ele>303.75</ele><time>2026-04-03T12:59:15.109Z</time></trkpt><trkpt lat="44.6505441" lon="8.802039"><ele>304.0</ele><time>2026-04-03T12:59:16.106Z</time></trkpt><trkpt lat="44.6506806" lon="8.8020704"><ele>303.5</ele><time>2026-04-03T12:59:17.148Z</time></trkpt><trkpt lat="44.6508131" lon="8.8020587"><ele>303.0</ele><time>2026-04-03T12:59:18.1Z</time></trkpt><trkpt lat="44.6509423" lon="8.8020822"><ele>302.5</ele><time>2026-04-03T12:59:19.103Z</time></trkpt><trkpt lat="44.6510693" lon="8.8021144"><ele>302.0</ele><time>2026-04-03T12:59:20.105Z</time></trkpt><trkpt lat="44.6512042" lon="8.8021434"><ele>299.0</ele><time>2026-04-03T12:59:21.107Z</time></trkpt><trkpt lat="44.6513799" lon="8.8023714"><ele>296.0</ele><time>2026-04-03T12:59:22.999Z</time></trkpt><trkpt lat="44.6514876" lon="8.8024745"><ele>293.0</ele><time>2026-04-03T12:59:23.999Z</time></trkpt><trkpt lat="44.651591" lon="8.802567"><ele>291.75</ele><time>2026-04-03T12:59:24.999Z</time></trkpt><trkpt lat="44.6516965" lon="8.8026711"><ele>290.5</ele><time>2026-04-03T12:59:26.105Z</time></trkpt><trkpt lat="44.6518107" lon="8.8027454"><ele>289.25</ele><time>2026-04-03T12:59:27.104Z</time></trkpt><trkpt lat="44.6519289" lon="8.8028297"><ele>288.0</ele><time>2026-04-03T12:59:28.104Z</time></trkpt><trkpt lat="44.6520716" lon="8.8028719"><ele>287.0</ele><time>2026-04-03T12:59:29.108Z</time></trkpt><trkpt lat="44.6521999" lon="8.8028994"><ele>286.0</ele><time>2026-04-03T12:59:30.102Z</time></trkpt><trkpt lat="44.652337" lon="8.8029148"><ele>285.0</ele><time>2026-04-03T12:59:31.125Z</time></trkpt><trkpt lat="44.6524825" lon="8.8029392"><ele>284.0</ele><time>2026-04-03T12:59:32.107Z</time></trkpt><trkpt lat="44.6526287" lon="8.8029625"><ele>283.33333333333337</ele><time>2026-04-03T12:59:33.202Z</time></trkpt><trkpt lat="44.6529185" lon="8.8029891"><ele>282.6666666666667</ele><time>2026-04-03T12:59:35.105Z</time></trkpt><trkpt lat="44.6530516" lon="8.8030107"><ele>282.0</ele><time>2026-04-03T12:59:36.114Z</time></trkpt><trkpt lat="44.653197" lon="8.8030298"><ele>282.0</ele><time>2026-04-03T12:59:37.155Z</time></trkpt><trkpt lat="44.6533346" lon="8.8030455"><ele>282.0</ele><time>2026-04-03T12:59:38.172Z</time></trkpt><trkpt lat="44.6534792" lon="8.8030632"><ele>282.0</ele><time>2026-04-03T12:59:39.106Z</time></trkpt><trkpt lat="44.6537675" lon="8.8030893"><ele>280.25</ele><time>2026-04-03T12:59:40.999Z</time></trkpt><trkpt lat="44.6538954" lon="8.8031062"><ele>278.5</ele><time>2026-04-03T12:59:42Z</time></trkpt><trkpt lat="44.6540341" lon="8.8031195"><ele>276.75</ele><time>2026-04-03T12:59:42.999Z</time></trkpt><trkpt lat="44.6541744" lon="8.8031354"><ele>275.0</ele><time>2026-04-03T12:59:43.999Z</time></trkpt><trkpt lat="44.6543169" lon="8.8031413"><ele>275.0</ele><time>2026-04-03T12:59:44.999Z</time></trkpt><trkpt lat="44.6544337" lon="8.8031736"><ele>275.0</ele><time>2026-04-03T12:59:46.104Z</time></trkpt><trkpt lat="44.6546983" lon="8.8031994"><ele>275.0</ele><time>2026-04-03T12:59:48.105Z</time></trkpt><trkpt lat="44.6548265" lon="8.8032279"><ele>274.5</ele><time>2026-04-03T12:59:49.108Z</time></trkpt><trkpt lat="44.6549564" lon="8.8032404"><ele>274.0</ele><time>2026-04-03T12:59:50.107Z</time></trkpt><trkpt lat="44.6550879" lon="8.803255"><ele>273.5</ele><time>2026-04-03T12:59:51.106Z</time></trkpt><trkpt lat="44.6552417" lon="8.8032755"><ele>273.0</ele><time>2026-04-03T12:59:52.109Z</time></trkpt><trkpt lat="44.6553895" lon="8.8033011"><ele>273.0</ele><time>2026-04-03T12:59:53.106Z</time></trkpt><trkpt lat="44.6555318" lon="8.8033242"><ele>273.0</ele><time>2026-04-03T12:59:54.107Z</time></trkpt><trkpt lat="44.6556758" lon="8.8033407"><ele>273.0</ele><time>2026-04-03T12:59:55.104Z</time></trkpt><trkpt lat="44.6558173" lon="8.8033607"><ele>273.0</ele><time>2026-04-03T12:59:56.116Z</time></trkpt><trkpt lat="44.6559521" lon="8.8033956"><ele>273.0</ele><time>2026-04-03T12:59:57.111Z</time></trkpt><trkpt lat="44.6560832" lon="8.8034046"><ele>273.0</ele><time>2026-04-03T12:59:58.111Z</time></trkpt><trkpt lat="44.6562056" lon="8.8034242"><ele>273.0</ele><time>2026-04-03T12:59:59.107Z</time></trkpt><trkpt lat="44.6563276" lon="8.8034347"><ele>273.0</ele><time>2026-04-03T13:00:00.109Z</time></trkpt><trkpt lat="44.6564579" lon="8.8034389"><ele>273.6666666666667</ele><time>2026-04-03T13:00:01.104Z</time></trkpt><trkpt lat="44.6565928" lon="8.8034356"><ele>274.33333333333337</ele><time>2026-04-03T13:00:02.106Z</time></trkpt><trkpt lat="44.6567228" lon="8.8034158"><ele>275.0</ele><time>2026-04-03T13:00:03.188Z</time></trkpt><trkpt lat="44.6569904" lon="8.8033546"><ele>273.33333333333337</ele><time>2026-04-03T13:00:05.104Z</time></trkpt><trkpt lat="44.6572645" lon="8.8032933"><ele>271.6666666666667</ele><time>2026-04-03T13:00:06.999Z</time></trkpt><trkpt lat="44.6573974" lon="8.8032867"><ele>270.0</ele><time>2026-04-03T13:00:08.179Z</time></trkpt><trkpt lat="44.6575499" lon="8.8032699"><ele>270.0</ele><time>2026-04-03T13:00:09.12Z</time></trkpt><trkpt lat="44.6576768" lon="8.8032365"><ele>270.0</ele><time>2026-04-03T13:00:10.108Z</time></trkpt><trkpt lat="44.657795" lon="8.8032161"><ele>270.0</ele><time>2026-04-03T13:00:11.188Z</time></trkpt><trkpt lat="44.6579212" lon="8.8032319"><ele>270.0</ele><time>2026-04-03T13:00:12.158Z</time></trkpt><trkpt lat="44.6580616" lon="8.8032341"><ele>270.75</ele><time>2026-04-03T13:00:13.179Z</time></trkpt><trkpt lat="44.6581971" lon="8.8032833"><ele>271.5</ele><time>2026-04-03T13:00:14.112Z</time></trkpt><trkpt lat="44.658324" lon="8.8033273"><ele>272.25</ele><time>2026-04-03T13:00:15.113Z</time></trkpt><trkpt lat="44.6584413" lon="8.8034005"><ele>273.0</ele><time>2026-04-03T13:00:16.117Z</time></trkpt><trkpt lat="44.658568" lon="8.8034689"><ele>270.75</ele><time>2026-04-03T13:00:17.172Z</time></trkpt><trkpt lat="44.6586976" lon="8.8035235"><ele>268.5</ele><time>2026-04-03T13:00:18.109Z</time></trkpt><trkpt lat="44.6588201" lon="8.8035843"><ele>266.25</ele><time>2026-04-03T13:00:19.11Z</time></trkpt><trkpt lat="44.6589351" lon="8.8036415"><ele>264.0</ele><time>2026-04-03T13:00:20.176Z</time></trkpt><trkpt lat="44.6590455" lon="8.8037055"><ele>264.0</ele><time>2026-04-03T13:00:21.129Z</time></trkpt><trkpt lat="44.6591569" lon="8.8037515"><ele>264.0</ele><time>2026-04-03T13:00:22.183Z</time></trkpt><trkpt lat="44.6592696" lon="8.8038279"><ele>264.0</ele><time>2026-04-03T13:00:23.188Z</time></trkpt><trkpt lat="44.6594117" lon="8.803832"><ele>264.0</ele><time>2026-04-03T13:00:24.108Z</time></trkpt><trkpt lat="44.6595454" lon="8.8038659"><ele>264.25</ele><time>2026-04-03T13:00:25.107Z</time></trkpt><trkpt lat="44.6596804" lon="8.8039025"><ele>264.5</ele><time>2026-04-03T13:00:26.189Z</time></trkpt><trkpt lat="44.6598103" lon="8.8039342"><ele>264.75</ele><time>2026-04-03T13:00:27.114Z</time></trkpt><trkpt lat="44.6599354" lon="8.8039763"><ele>265.0</ele><time>2026-04-03T13:00:28.113Z</time></trkpt><trkpt lat="44.6600616" lon="8.8040037"><ele>265.0</ele><time>2026-04-03T13:00:29.109Z</time></trkpt><trkpt lat="44.6601863" lon="8.8040312"><ele>265.0</ele><time>2026-04-03T13:00:30.191Z</time></trkpt><trkpt lat="44.6603112" lon="8.8040693"><ele>265.0</ele><time>2026-04-03T13:00:31.201Z</time></trkpt><trkpt lat="44.6604394" lon="8.8040995"><ele>265.0</ele><time>2026-04-03T13:00:32.18Z</time></trkpt><trkpt lat="44.6605703" lon="8.8041216"><ele>265.5</ele><time>2026-04-03T13:00:33.182Z</time></trkpt><trkpt lat="44.6607084" lon="8.8041731"><ele>266.0</ele><time>2026-04-03T13:00:34.109Z</time></trkpt><trkpt lat="44.6608302" lon="8.8041653"><ele>266.5</ele><time>2026-04-03T13:00:35.11Z</time></trkpt><trkpt lat="44.6609425" lon="8.8041979"><ele>267.0</ele><time>2026-04-03T13:00:36.178Z</time></trkpt><trkpt lat="44.6610509" lon="8.804227"><ele>267.5</ele><time>2026-04-03T13:00:37.132Z</time></trkpt><trkpt lat="44.6611774" lon="8.8042596"><ele>268.0</ele><time>2026-04-03T13:00:38.167Z</time></trkpt><trkpt lat="44.6612933" lon="8.8043133"><ele>268.5</ele><time>2026-04-03T13:00:39.104Z</time></trkpt><trkpt lat="44.6614081" lon="8.804367"><ele>269.0</ele><time>2026-04-03T13:00:40.116Z</time></trkpt><trkpt lat="44.6615141" lon="8.8044137"><ele>266.75</ele><time>2026-04-03T13:00:41.17Z</time></trkpt><trkpt lat="44.661623" lon="8.8044826"><ele>264.5</ele><time>2026-04-03T13:00:42.138Z</time></trkpt><trkpt lat="44.6617316" lon="8.804541"><ele>262.25</ele><time>2026-04-03T13:00:43.148Z</time></trkpt><trkpt lat="44.6618313" lon="8.8045991"><ele>260.0</ele><time>2026-04-03T13:00:44.109Z</time></trkpt><trkpt lat="44.6619326" lon="8.8046626"><ele>260.2</ele><time>2026-04-03T13:00:45.111Z</time></trkpt><trkpt lat="44.6620305" lon="8.8047294"><ele>260.4</ele><time>2026-04-03T13:00:46.15Z</time></trkpt><trkpt lat="44.6621311" lon="8.8047775"><ele>260.6</ele><time>2026-04-03T13:00:47.172Z</time></trkpt><trkpt lat="44.6622301" lon="8.8047958"><ele>260.8</ele><time>2026-04-03T13:00:48.184Z</time></trkpt><trkpt lat="44.6623322" lon="8.8047904"><ele>261.0</ele><time>2026-04-03T13:00:49.109Z</time></trkpt><trkpt lat="44.6624288" lon="8.8047327"><ele>261.0</ele><time>2026-04-03T13:00:50.111Z</time></trkpt><trkpt lat="44.6625271" lon="8.8046487"><ele>261.0</ele><time>2026-04-03T13:00:51.191Z</time></trkpt><trkpt lat="44.662619" lon="8.80457"><ele>261.0</ele><time>2026-04-03T13:00:52.188Z</time></trkpt><trkpt lat="44.6627063" lon="8.8044833"><ele>261.0</ele><time>2026-04-03T13:00:53.19Z</time></trkpt><trkpt lat="44.6627886" lon="8.8043858"><ele>261.0</ele><time>2026-04-03T13:00:54.112Z</time></trkpt><trkpt lat="44.6628175" lon="8.8042984"><ele>260.8</ele><time>2026-04-03T13:00:55.106Z</time></trkpt><trkpt lat="44.662893" lon="8.8042109"><ele>260.6</ele><time>2026-04-03T13:00:56.182Z</time></trkpt><trkpt lat="44.6629715" lon="8.8041944"><ele>260.4</ele><time>2026-04-03T13:00:57.194Z</time></trkpt><trkpt lat="44.6630345" lon="8.8042092"><ele>260.2</ele><time>2026-04-03T13:00:58.173Z</time></trkpt><trkpt lat="44.6631131" lon="8.8042571"><ele>260.0</ele><time>2026-04-03T13:00:59.109Z</time></trkpt><trkpt lat="44.6632566" lon="8.8043457"><ele>260.0</ele><time>2026-04-03T13:01:00.113Z</time></trkpt><trkpt lat="44.6633837" lon="8.8044403"><ele>260.0</ele><time>2026-04-03T13:01:01.1Z</time></trkpt><trkpt lat="44.663481" lon="8.8045018"><ele>260.0</ele><time>2026-04-03T13:01:02.1Z</time></trkpt><trkpt lat="44.6635855" lon="8.8045671"><ele>260.0</ele><time>2026-04-03T13:01:03.113Z</time></trkpt><trkpt lat="44.6636889" lon="8.8046421"><ele>260.25</ele><time>2026-04-03T13:01:04.116Z</time></trkpt><trkpt lat="44.6637783" lon="8.8047295"><ele>260.5</ele><time>2026-04-03T13:01:05.196Z</time></trkpt><trkpt lat="44.6639585" lon="8.8047132"><ele>260.75</ele><time>2026-04-03T13:01:06.19Z</time></trkpt><trkpt lat="44.6640997" lon="8.8047011"><ele>261.0</ele><time>2026-04-03T13:01:07.177Z</time></trkpt><trkpt lat="44.6642621" lon="8.8047027"><ele>261.0</ele><time>2026-04-03T13:01:08.182Z</time></trkpt><trkpt lat="44.6644166" lon="8.8047107"><ele>261.0</ele><time>2026-04-03T13:01:09.1Z</time></trkpt><trkpt lat="44.6645464" lon="8.8047291"><ele>261.0</ele><time>2026-04-03T13:01:10.107Z</time></trkpt><trkpt lat="44.664718" lon="8.8047022"><ele>262.0</ele><time>2026-04-03T13:01:11.106Z</time></trkpt><trkpt lat="44.6648652" lon="8.8047236"><ele>263.0</ele><time>2026-04-03T13:01:12.142Z</time></trkpt><trkpt lat="44.6650034" lon="8.8047703"><ele>264.0</ele><time>2026-04-03T13:01:13.161Z</time></trkpt><trkpt lat="44.6652541" lon="8.8049313"><ele>264.0</ele><time>2026-04-03T13:01:15Z</time></trkpt><trkpt lat="44.6653825" lon="8.8050324"><ele>264.0</ele><time>2026-04-03T13:01:16.155Z</time></trkpt><trkpt lat="44.6654972" lon="8.8051437"><ele>264.0</ele><time>2026-04-03T13:01:17.196Z</time></trkpt><trkpt lat="44.6655877" lon="8.805256"><ele>264.0</ele><time>2026-04-03T13:01:18.156Z</time></trkpt><trkpt lat="44.6656894" lon="8.8053553"><ele>264.0</ele><time>2026-04-03T13:01:19.108Z</time></trkpt><trkpt lat="44.6658039" lon="8.8054338"><ele>264.0</ele><time>2026-04-03T13:01:20.108Z</time></trkpt><trkpt lat="44.665904" lon="8.8055353"><ele>264.0</ele><time>2026-04-03T13:01:21.154Z</time></trkpt><trkpt lat="44.6660522" lon="8.8056206"><ele>264.0</ele><time>2026-04-03T13:01:22.177Z</time></trkpt><trkpt lat="44.6661786" lon="8.8057061"><ele>264.75</ele><time>2026-04-03T13:01:23.174Z</time></trkpt><trkpt lat="44.6662951" lon="8.8058011"><ele>265.5</ele><time>2026-04-03T13:01:24.101Z</time></trkpt><trkpt lat="44.6664193" lon="8.805915"><ele>266.25</ele><time>2026-04-03T13:01:25.105Z</time></trkpt><trkpt lat="44.6665397" lon="8.8060113"><ele>267.0</ele><time>2026-04-03T13:01:26.163Z</time></trkpt><trkpt lat="44.6666595" lon="8.8061083"><ele>267.0</ele><time>2026-04-03T13:01:27.171Z</time></trkpt><trkpt lat="44.6667704" lon="8.8061994"><ele>267.0</ele><time>2026-04-03T13:01:28.206Z</time></trkpt><trkpt lat="44.6669037" lon="8.8062792"><ele>267.0</ele><time>2026-04-03T13:01:29.106Z</time></trkpt><trkpt lat="44.6670559" lon="8.8062979"><ele>267.0</ele><time>2026-04-03T13:01:30.109Z</time></trkpt><trkpt lat="44.6672105" lon="8.8063206"><ele>269.0</ele><time>2026-04-03T13:01:31.166Z</time></trkpt><trkpt lat="44.6673538" lon="8.8063462"><ele>271.0</ele><time>2026-04-03T13:01:32.156Z</time></trkpt><trkpt lat="44.6675042" lon="8.8063755"><ele>273.0</ele><time>2026-04-03T13:01:33.14Z</time></trkpt><trkpt lat="44.6676606" lon="8.8064042"><ele>273.0</ele><time>2026-04-03T13:01:34.107Z</time></trkpt><trkpt lat="44.6678253" lon="8.8064229"><ele>273.0</ele><time>2026-04-03T13:01:35.108Z</time></trkpt><trkpt lat="44.6679853" lon="8.8064471"><ele>273.0</ele><time>2026-04-03T13:01:36.1Z</time></trkpt><trkpt lat="44.6681452" lon="8.8064725"><ele>273.0</ele><time>2026-04-03T13:01:37.103Z</time></trkpt><trkpt lat="44.668304" lon="8.806504"><ele>273.0</ele><time>2026-04-03T13:01:38.149Z</time></trkpt><trkpt lat="44.6684672" lon="8.8065404"><ele>273.0</ele><time>2026-04-03T13:01:39.105Z</time></trkpt><trkpt lat="44.6686286" lon="8.8065746"><ele>273.0</ele><time>2026-04-03T13:01:40.111Z</time></trkpt><trkpt lat="44.6687899" lon="8.8066218"><ele>273.0</ele><time>2026-04-03T13:01:41.143Z</time></trkpt><trkpt lat="44.6689485" lon="8.8066631"><ele>273.0</ele><time>2026-04-03T13:01:42.123Z</time></trkpt><trkpt lat="44.6690969" lon="8.8067068"><ele>273.0</ele><time>2026-04-03T13:01:43.185Z</time></trkpt><trkpt lat="44.6692489" lon="8.8067535"><ele>273.0</ele><time>2026-04-03T13:01:44.106Z</time></trkpt><trkpt lat="44.6694037" lon="8.8067968"><ele>273.0</ele><time>2026-04-03T13:01:45.1Z</time></trkpt><trkpt lat="44.6695613" lon="8.8068376"><ele>272.3333333333333</ele><time>2026-04-03T13:01:46.155Z</time></trkpt><trkpt lat="44.6697138" lon="8.8068728"><ele>271.66666666666663</ele><time>2026-04-03T13:01:47.186Z</time></trkpt><trkpt lat="44.6698646" lon="8.8069034"><ele>271.0</ele><time>2026-04-03T13:01:48.158Z</time></trkpt><trkpt lat="44.670019" lon="8.8069309"><ele>271.0</ele><time>2026-04-03T13:01:49.111Z</time></trkpt><trkpt lat="44.6701552" lon="8.8069408"><ele>271.0</ele><time>2026-04-03T13:01:50.103Z</time></trkpt><trkpt lat="44.6703021" lon="8.8068994"><ele>271.0</ele><time>2026-04-03T13:01:51.184Z</time></trkpt><trkpt lat="44.6704371" lon="8.806828"><ele>271.0</ele><time>2026-04-03T13:01:52.15Z</time></trkpt><trkpt lat="44.6705677" lon="8.8067586"><ele>272.75</ele><time>2026-04-03T13:01:53.152Z</time></trkpt><trkpt lat="44.6706995" lon="8.806692"><ele>274.5</ele><time>2026-04-03T13:01:54.104Z</time></trkpt><trkpt lat="44.6708252" lon="8.8066025"><ele>276.25</ele><time>2026-04-03T13:01:55.155Z</time></trkpt><trkpt lat="44.6709485" lon="8.806542"><ele>278.0</ele><time>2026-04-03T13:01:56.161Z</time></trkpt><trkpt lat="44.6710728" lon="8.8065242"><ele>277.5</ele><time>2026-04-03T13:01:57.185Z</time></trkpt><trkpt lat="44.6712124" lon="8.8065379"><ele>277.0</ele><time>2026-04-03T13:01:58.156Z</time></trkpt><trkpt lat="44.6713532" lon="8.8065646"><ele>276.5</ele><time>2026-04-03T13:01:59.104Z</time></trkpt><trkpt lat="44.6715041" lon="8.80661"><ele>276.0</ele><time>2026-04-03T13:02:00.112Z</time></trkpt><trkpt lat="44.6716527" lon="8.8066661"><ele>276.0</ele><time>2026-04-03T13:02:01.165Z</time></trkpt><trkpt lat="44.6717923" lon="8.8067454"><ele>276.0</ele><time>2026-04-03T13:02:02.15Z</time></trkpt><trkpt lat="44.6719198" lon="8.8068649"><ele>276.0</ele><time>2026-04-03T13:02:03.191Z</time></trkpt><trkpt lat="44.6720322" lon="8.8069989"><ele>276.0</ele><time>2026-04-03T13:02:04.106Z</time></trkpt><trkpt lat="44.672154" lon="8.8071418"><ele>276.0</ele><time>2026-04-03T13:02:05.113Z</time></trkpt><trkpt lat="44.6722722" lon="8.8072766"><ele>276.0</ele><time>2026-04-03T13:02:06.158Z</time></trkpt><trkpt lat="44.6724011" lon="8.8074052"><ele>276.0</ele><time>2026-04-03T13:02:06.999Z</time></trkpt><trkpt lat="44.6725394" lon="8.8075226"><ele>276.0</ele><time>2026-04-03T13:02:08.19Z</time></trkpt><trkpt lat="44.6726851" lon="8.807631"><ele>276.0</ele><time>2026-04-03T13:02:09.104Z</time></trkpt><trkpt lat="44.6729865" lon="8.8078627"><ele>274.0</ele><time>2026-04-03T13:02:11.161Z</time></trkpt><trkpt lat="44.6731378" lon="8.8079781"><ele>272.0</ele><time>2026-04-03T13:02:12.176Z</time></trkpt><trkpt lat="44.6732879" lon="8.8080919"><ele>270.0</ele><time>2026-04-03T13:02:13.16Z</time></trkpt><trkpt lat="44.6734424" lon="8.808205"><ele>270.0</ele><time>2026-04-03T13:02:14.106Z</time></trkpt><trkpt lat="44.6736013" lon="8.8083129"><ele>270.0</ele><time>2026-04-03T13:02:15.11Z</time></trkpt><trkpt lat="44.673758" lon="8.8084123"><ele>270.0</ele><time>2026-04-03T13:02:16.156Z</time></trkpt><trkpt lat="44.6739049" lon="8.8085183"><ele>266.6666666666667</ele><time>2026-04-03T13:02:17.158Z</time></trkpt><trkpt lat="44.6740479" lon="8.8086304"><ele>263.33333333333337</ele><time>2026-04-03T13:02:18.193Z</time></trkpt><trkpt lat="44.6742124" lon="8.8086904"><ele>260.0</ele><time>2026-04-03T13:02:19.109Z</time></trkpt><trkpt lat="44.6743734" lon="8.8087361"><ele>258.6666666666667</ele><time>2026-04-03T13:02:20.103Z</time></trkpt><trkpt lat="44.6745355" lon="8.8087752"><ele>257.3333333333333</ele><time>2026-04-03T13:02:21.175Z</time></trkpt><trkpt lat="44.6747051" lon="8.8088037"><ele>256.0</ele><time>2026-04-03T13:02:22.168Z</time></trkpt><trkpt lat="44.6748782" lon="8.8088269"><ele>256.0</ele><time>2026-04-03T13:02:23.209Z</time></trkpt><trkpt lat="44.6752118" lon="8.8088458"><ele>256.0</ele><time>2026-04-03T13:02:25.11Z</time></trkpt><trkpt lat="44.6753788" lon="8.8088332"><ele>253.66666666666666</ele><time>2026-04-03T13:02:26.168Z</time></trkpt><trkpt lat="44.6755487" lon="8.8088001"><ele>251.33333333333331</ele><time>2026-04-03T13:02:27.145Z</time></trkpt><trkpt lat="44.6757145" lon="8.8087529"><ele>249.0</ele><time>2026-04-03T13:02:28.163Z</time></trkpt><trkpt lat="44.675881" lon="8.8086938"><ele>249.0</ele><time>2026-04-03T13:02:29.105Z</time></trkpt><trkpt lat="44.6760544" lon="8.8086416"><ele>249.0</ele><time>2026-04-03T13:02:30.106Z</time></trkpt><trkpt lat="44.6762287" lon="8.8085952"><ele>249.0</ele><time>2026-04-03T13:02:31.175Z</time></trkpt><trkpt lat="44.6763921" lon="8.808535"><ele>249.33333333333331</ele><time>2026-04-03T13:02:32.171Z</time></trkpt><trkpt lat="44.6765627" lon="8.8084727"><ele>249.66666666666666</ele><time>2026-04-03T13:02:33.155Z</time></trkpt><trkpt lat="44.6767259" lon="8.8083789"><ele>250.0</ele><time>2026-04-03T13:02:34.105Z</time></trkpt><trkpt lat="44.6768861" lon="8.8082852"><ele>247.0</ele><time>2026-04-03T13:02:35.105Z</time></trkpt><trkpt lat="44.6770432" lon="8.8081889"><ele>244.0</ele><time>2026-04-03T13:02:36.178Z</time></trkpt><trkpt lat="44.6773393" lon="8.8079509"><ele>244.0</ele><time>2026-04-03T13:02:38.155Z</time></trkpt><trkpt lat="44.6774859" lon="8.8078172"><ele>244.0</ele><time>2026-04-03T13:02:39.109Z</time></trkpt><trkpt lat="44.6776295" lon="8.8076838"><ele>244.0</ele><time>2026-04-03T13:02:40.111Z</time></trkpt><trkpt lat="44.6777753" lon="8.8075549"><ele>243.66666666666666</ele><time>2026-04-03T13:02:41.183Z</time></trkpt><trkpt lat="44.6779218" lon="8.807422"><ele>243.33333333333331</ele><time>2026-04-03T13:02:42.168Z</time></trkpt><trkpt lat="44.6780704" lon="8.8072908"><ele>243.0</ele><time>2026-04-03T13:02:43.102Z</time></trkpt><trkpt lat="44.6782167" lon="8.807163"><ele>243.0</ele><time>2026-04-03T13:02:44.103Z</time></trkpt><trkpt lat="44.6783612" lon="8.8070326"><ele>243.0</ele><time>2026-04-03T13:02:45.108Z</time></trkpt><trkpt lat="44.6785093" lon="8.8069088"><ele>243.0</ele><time>2026-04-03T13:02:46.16Z</time></trkpt><trkpt lat="44.6786544" lon="8.8067853"><ele>242.66666666666669</ele><time>2026-04-03T13:02:47.188Z</time></trkpt><trkpt lat="44.6787984" lon="8.8066523"><ele>242.33333333333334</ele><time>2026-04-03T13:02:48.164Z</time></trkpt><trkpt lat="44.6789456" lon="8.8065052"><ele>242.0</ele><time>2026-04-03T13:02:49.106Z</time></trkpt><trkpt lat="44.6791939" lon="8.8061908"><ele>242.0</ele><time>2026-04-03T13:02:51Z</time></trkpt><trkpt lat="44.6793254" lon="8.8060395"><ele>242.0</ele><time>2026-04-03T13:02:52.17Z</time></trkpt><trkpt lat="44.6794592" lon="8.8058897"><ele>242.0</ele><time>2026-04-03T13:02:53.191Z</time></trkpt><trkpt lat="44.6795949" lon="8.8057489"><ele>241.33333333333334</ele><time>2026-04-03T13:02:54.105Z</time></trkpt><trkpt lat="44.6797359" lon="8.8056188"><ele>240.66666666666669</ele><time>2026-04-03T13:02:55.105Z</time></trkpt><trkpt lat="44.6798766" lon="8.8054825"><ele>240.0</ele><time>2026-04-03T13:02:56.183Z</time></trkpt><trkpt lat="44.6801524" lon="8.8052108"><ele>239.0</ele><time>2026-04-03T13:02:58.196Z</time></trkpt><trkpt lat="44.6802924" lon="8.8050836"><ele>238.0</ele><time>2026-04-03T13:02:59.103Z</time></trkpt><trkpt lat="44.6804239" lon="8.8049708"><ele>237.0</ele><time>2026-04-03T13:03:00.105Z</time></trkpt><trkpt lat="44.6805574" lon="8.8048751"><ele>237.0</ele><time>2026-04-03T13:03:01.154Z</time></trkpt><trkpt lat="44.6807024" lon="8.804802"><ele>237.0</ele><time>2026-04-03T13:03:02.185Z</time></trkpt><trkpt lat="44.6808554" lon="8.8047509"><ele>237.0</ele><time>2026-04-03T13:03:03.178Z</time></trkpt><trkpt lat="44.6809991" lon="8.8047487"><ele>236.33333333333331</ele><time>2026-04-03T13:03:04.104Z</time></trkpt><trkpt lat="44.6811554" lon="8.8047622"><ele>235.66666666666666</ele><time>2026-04-03T13:03:05.107Z</time></trkpt><trkpt lat="44.6813084" lon="8.8047877"><ele>235.0</ele><time>2026-04-03T13:03:06.114Z</time></trkpt><trkpt lat="44.6814645" lon="8.8048042"><ele>235.0</ele><time>2026-04-03T13:03:07.139Z</time></trkpt><trkpt lat="44.6815955" lon="8.8048589"><ele>235.0</ele><time>2026-04-03T13:03:08.163Z</time></trkpt><trkpt lat="44.6817292" lon="8.8049279"><ele>235.0</ele><time>2026-04-03T13:03:09.112Z</time></trkpt><trkpt lat="44.6818527" lon="8.8049953"><ele>235.0</ele><time>2026-04-03T13:03:10.11Z</time></trkpt><trkpt lat="44.6819522" lon="8.8050747"><ele>234.6</ele><time>2026-04-03T13:03:11.181Z</time></trkpt><trkpt lat="44.6820589" lon="8.8051391"><ele>234.2</ele><time>2026-04-03T13:03:12.171Z</time></trkpt><trkpt lat="44.6821502" lon="8.8051906"><ele>233.8</ele><time>2026-04-03T13:03:13.154Z</time></trkpt><trkpt lat="44.6822626" lon="8.8051577"><ele>233.4</ele><time>2026-04-03T13:03:14.11Z</time></trkpt><trkpt lat="44.6823569" lon="8.805146"><ele>233.0</ele><time>2026-04-03T13:03:15.104Z</time></trkpt><trkpt lat="44.6824481" lon="8.8051216"><ele>233.0</ele><time>2026-04-03T13:03:16.201Z</time></trkpt><trkpt lat="44.6825587" lon="8.8050585"><ele>233.0</ele><time>2026-04-03T13:03:17.111Z</time></trkpt><trkpt lat="44.6826697" lon="8.8049844"><ele>233.0</ele><time>2026-04-03T13:03:18.103Z</time></trkpt><trkpt lat="44.6827821" lon="8.8049147"><ele>233.0</ele><time>2026-04-03T13:03:19.107Z</time></trkpt><trkpt lat="44.6828834" lon="8.8048562"><ele>231.25</ele><time>2026-04-03T13:03:20.107Z</time></trkpt><trkpt lat="44.6829931" lon="8.8047994"><ele>229.5</ele><time>2026-04-03T13:03:21.11Z</time></trkpt><trkpt lat="44.6831036" lon="8.8047329"><ele>227.75</ele><time>2026-04-03T13:03:22.1Z</time></trkpt><trkpt lat="44.6832056" lon="8.8046662"><ele>226.0</ele><time>2026-04-03T13:03:23.105Z</time></trkpt><trkpt lat="44.6833086" lon="8.8045953"><ele>226.0</ele><time>2026-04-03T13:03:24.104Z</time></trkpt><trkpt lat="44.6834171" lon="8.8045362"><ele>226.00000000000003</ele><time>2026-04-03T13:03:25.103Z</time></trkpt><trkpt lat="44.6835029" lon="8.8044846"><ele>226.00000000000003</ele><time>2026-04-03T13:03:26.106Z</time></trkpt><trkpt lat="44.6836049" lon="8.8044412"><ele>226.0</ele><time>2026-04-03T13:03:27.125Z</time></trkpt><trkpt lat="44.68371" lon="8.8044059"><ele>226.0</ele><time>2026-04-03T13:03:28.104Z</time></trkpt><trkpt lat="44.6838205" lon="8.8043829"><ele>225.8</ele><time>2026-04-03T13:03:29.102Z</time></trkpt><trkpt lat="44.6839271" lon="8.8043612"><ele>225.60000000000002</ele><time>2026-04-03T13:03:30.108Z</time></trkpt><trkpt lat="44.6840403" lon="8.8043306"><ele>225.4</ele><time>2026-04-03T13:03:31.101Z</time></trkpt><trkpt lat="44.6841495" lon="8.8043285"><ele>225.2</ele><time>2026-04-03T13:03:32.104Z</time></trkpt><trkpt lat="44.6842646" lon="8.8043041"><ele>225.0</ele><time>2026-04-03T13:03:33.105Z</time></trkpt><trkpt lat="44.6843569" lon="8.8042868"><ele>223.4</ele><time>2026-04-03T13:03:34.108Z</time></trkpt><trkpt lat="44.684469" lon="8.8042518"><ele>221.8</ele><time>2026-04-03T13:03:35.105Z</time></trkpt><trkpt lat="44.6845514" lon="8.8042406"><ele>220.2</ele><time>2026-04-03T13:03:36.109Z</time></trkpt><trkpt lat="44.6846367" lon="8.8042436"><ele>218.6</ele><time>2026-04-03T13:03:37.109Z</time></trkpt><trkpt lat="44.6847614" lon="8.8043229"><ele>217.0</ele><time>2026-04-03T13:03:38.11Z</time></trkpt><trkpt lat="44.6848574" lon="8.8044006"><ele>216.8</ele><time>2026-04-03T13:03:39.107Z</time></trkpt><trkpt lat="44.6849295" lon="8.8044381"><ele>216.6</ele><time>2026-04-03T13:03:40.105Z</time></trkpt><trkpt lat="44.6850526" lon="8.8045036"><ele>216.40000000000003</ele><time>2026-04-03T13:03:42.11Z</time></trkpt><trkpt lat="44.685175" lon="8.8045361"><ele>216.20000000000002</ele><time>2026-04-03T13:03:44.109Z</time></trkpt><trkpt lat="44.6852569" lon="8.8046048"><ele>216.0</ele><time>2026-04-03T13:03:46.109Z</time></trkpt><trkpt lat="44.685367" lon="8.8046757"><ele>215.5</ele><time>2026-04-03T13:03:47.999Z</time></trkpt><trkpt lat="44.6854956" lon="8.8047442"><ele>215.0</ele><time>2026-04-03T13:03:50.151Z</time></trkpt><trkpt lat="44.6854461" lon="8.8048473"><ele>214.5</ele><time>2026-04-03T13:03:54Z</time></trkpt><trkpt lat="44.685451" lon="8.8049398"><ele>214.0</ele><time>2026-04-03T13:03:57.101Z</time></trkpt><trkpt lat="44.6854432" lon="8.8053884"><ele>214.0</ele><time>2026-04-03T13:04:00.107Z</time></trkpt><trkpt lat="44.6854371" lon="8.8055165"><ele>213.99999999999997</ele><time>2026-04-03T13:04:01.164Z</time></trkpt><trkpt lat="44.6854063" lon="8.8056459"><ele>213.99999999999997</ele><time>2026-04-03T13:04:02.111Z</time></trkpt><trkpt lat="44.6853856" lon="8.8057952"><ele>214.0</ele><time>2026-04-03T13:04:03.11Z</time></trkpt><trkpt lat="44.6853717" lon="8.8058924"><ele>214.0</ele><time>2026-04-03T13:04:04.105Z</time></trkpt><trkpt lat="44.6853633" lon="8.806045"><ele>215.0</ele><time>2026-04-03T13:04:06.107Z</time></trkpt><trkpt lat="44.6853238" lon="8.8062491"><ele>216.0</ele><time>2026-04-03T13:04:08.999Z</time></trkpt><trkpt lat="44.6852965" lon="8.806349"><ele>217.0</ele><time>2026-04-03T13:04:09.999Z</time></trkpt><trkpt lat="44.685262" lon="8.8064718"><ele>218.0</ele><time>2026-04-03T13:04:11.1Z</time></trkpt><trkpt lat="44.6851349" lon="8.8067448"><ele>218.5</ele><time>2026-04-03T13:04:13.197Z</time></trkpt><trkpt lat="44.685051" lon="8.8068673"><ele>219.0</ele><time>2026-04-03T13:04:14.11Z</time></trkpt><trkpt lat="44.6849659" lon="8.8069831"><ele>219.5</ele><time>2026-04-03T13:04:15.105Z</time></trkpt><trkpt lat="44.6848147" lon="8.8070538"><ele>220.0</ele><time>2026-04-03T13:04:16.187Z</time></trkpt><trkpt lat="44.6847043" lon="8.8071349"><ele>220.0</ele><time>2026-04-03T13:04:17.171Z</time></trkpt><trkpt lat="44.6845696" lon="8.8072014"><ele>220.0</ele><time>2026-04-03T13:04:18.177Z</time></trkpt><trkpt lat="44.6843565" lon="8.8072639"><ele>220.0</ele><time>2026-04-03T13:04:19.107Z</time></trkpt><trkpt lat="44.6841742" lon="8.8073315"><ele>220.0</ele><time>2026-04-03T13:04:20.108Z</time></trkpt><trkpt lat="44.6839781" lon="8.8073922"><ele>220.0</ele><time>2026-04-03T13:04:21.16Z</time></trkpt><trkpt lat="44.6838134" lon="8.8074465"><ele>220.0</ele><time>2026-04-03T13:04:22.202Z</time></trkpt><trkpt lat="44.6836656" lon="8.8074968"><ele>219.66666666666666</ele><time>2026-04-03T13:04:23.171Z</time></trkpt><trkpt lat="44.6835146" lon="8.8075523"><ele>219.33333333333331</ele><time>2026-04-03T13:04:24.107Z</time></trkpt><trkpt lat="44.6833602" lon="8.8076113"><ele>219.0</ele><time>2026-04-03T13:04:25.109Z</time></trkpt><trkpt lat="44.6832257" lon="8.8076429"><ele>219.5</ele><time>2026-04-03T13:04:26.104Z</time></trkpt><trkpt lat="44.6830869" lon="8.8076843"><ele>220.0</ele><time>2026-04-03T13:04:27.198Z</time></trkpt><trkpt lat="44.682947" lon="8.8077217"><ele>220.5</ele><time>2026-04-03T13:04:28.187Z</time></trkpt><trkpt lat="44.6828151" lon="8.8077474"><ele>221.0</ele><time>2026-04-03T13:04:29.11Z</time></trkpt><trkpt lat="44.6826879" lon="8.8077893"><ele>221.0</ele><time>2026-04-03T13:04:30.108Z</time></trkpt><trkpt lat="44.6825568" lon="8.8078347"><ele>221.0</ele><time>2026-04-03T13:04:31.133Z</time></trkpt><trkpt lat="44.6824459" lon="8.8079231"><ele>221.0</ele><time>2026-04-03T13:04:32.133Z</time></trkpt><trkpt lat="44.6823375" lon="8.8080484"><ele>221.0</ele><time>2026-04-03T13:04:33.139Z</time></trkpt><trkpt lat="44.6822385" lon="8.8081915"><ele>221.0</ele><time>2026-04-03T13:04:34.106Z</time></trkpt><trkpt lat="44.682143" lon="8.8083375"><ele>221.0</ele><time>2026-04-03T13:04:35.104Z</time></trkpt><trkpt lat="44.6820473" lon="8.8084981"><ele>221.0</ele><time>2026-04-03T13:04:36.166Z</time></trkpt><trkpt lat="44.6819636" lon="8.8086326"><ele>221.0</ele><time>2026-04-03T13:04:37.147Z</time></trkpt><trkpt lat="44.681898" lon="8.8087563"><ele>220.66666666666669</ele><time>2026-04-03T13:04:38.162Z</time></trkpt><trkpt lat="44.6818035" lon="8.808938"><ele>220.33333333333331</ele><time>2026-04-03T13:04:39.108Z</time></trkpt><trkpt lat="44.681707" lon="8.8090927"><ele>220.0</ele><time>2026-04-03T13:04:40.108Z</time></trkpt><trkpt lat="44.6815175" lon="8.8094356"><ele>220.0</ele><time>2026-04-03T13:04:42.103Z</time></trkpt><trkpt lat="44.6814307" lon="8.8096004"><ele>220.0</ele><time>2026-04-03T13:04:43.106Z</time></trkpt><trkpt lat="44.6813318" lon="8.8097754"><ele>220.0</ele><time>2026-04-03T13:04:44.107Z</time></trkpt><trkpt lat="44.6812233" lon="8.8100137"><ele>219.75</ele><time>2026-04-03T13:04:45.999Z</time></trkpt><trkpt lat="44.6811442" lon="8.8101696"><ele>219.5</ele><time>2026-04-03T13:04:46.999Z</time></trkpt><trkpt lat="44.6810493" lon="8.8103358"><ele>219.25</ele><time>2026-04-03T13:04:47.999Z</time></trkpt><trkpt lat="44.68097" lon="8.8104745"><ele>219.0</ele><time>2026-04-03T13:04:48.999Z</time></trkpt><trkpt lat="44.6808731" lon="8.8106338"><ele>219.0</ele><time>2026-04-03T13:04:49.999Z</time></trkpt><trkpt lat="44.6807805" lon="8.8108524"><ele>219.0</ele><time>2026-04-03T13:04:51.999Z</time></trkpt><trkpt lat="44.6807" lon="8.8109883"><ele>219.0</ele><time>2026-04-03T13:04:53.104Z</time></trkpt><trkpt lat="44.6805677" lon="8.8111836"><ele>219.79999999999998</ele><time>2026-04-03T13:04:54.999Z</time></trkpt><trkpt lat="44.6805126" lon="8.8112877"><ele>220.59999999999997</ele><time>2026-04-03T13:04:56.103Z</time></trkpt><trkpt lat="44.6804672" lon="8.8113985"><ele>221.4</ele><time>2026-04-03T13:04:57.107Z</time></trkpt><trkpt lat="44.6804237" lon="8.8115033"><ele>222.2</ele><time>2026-04-03T13:04:58.125Z</time></trkpt><trkpt lat="44.6803466" lon="8.8116261"><ele>223.0</ele><time>2026-04-03T13:05:00.109Z</time></trkpt><trkpt lat="44.6803003" lon="8.8117602"><ele>223.8</ele><time>2026-04-03T13:05:02.141Z</time></trkpt><trkpt lat="44.6803353" lon="8.8118863"><ele>224.60000000000002</ele><time>2026-04-03T13:05:04Z</time></trkpt><trkpt lat="44.6804399" lon="8.8119989"><ele>225.39999999999998</ele><time>2026-04-03T13:05:06.107Z</time></trkpt><trkpt lat="44.6804953" lon="8.8120826"><ele>226.2</ele><time>2026-04-03T13:05:07.109Z</time></trkpt><trkpt lat="44.6805613" lon="8.8121352"><ele>227.0</ele><time>2026-04-03T13:05:08.107Z</time></trkpt><trkpt lat="44.680617" lon="8.8122307"><ele>227.0</ele><time>2026-04-03T13:05:09.104Z</time></trkpt><trkpt lat="44.6806818" lon="8.8123468"><ele>227.0</ele><time>2026-04-03T13:05:10.106Z</time></trkpt><trkpt lat="44.6807482" lon="8.812484"><ele>227.0</ele><time>2026-04-03T13:05:11.111Z</time></trkpt><trkpt lat="44.6808059" lon="8.8126302"><ele>227.0</ele><time>2026-04-03T13:05:12.152Z</time></trkpt><trkpt lat="44.6808689" lon="8.8127959"><ele>228.33333333333334</ele><time>2026-04-03T13:05:13.174Z</time></trkpt><trkpt lat="44.6809407" lon="8.8129338"><ele>229.66666666666669</ele><time>2026-04-03T13:05:14.102Z</time></trkpt><trkpt lat="44.681096" lon="8.8132267"><ele>231.0</ele><time>2026-04-03T13:05:16.136Z</time></trkpt><trkpt lat="44.6811797" lon="8.8133848"><ele>235.0</ele><time>2026-04-03T13:05:17.124Z</time></trkpt><trkpt lat="44.681259" lon="8.8135409"><ele>239.0</ele><time>2026-04-03T13:05:18.143Z</time></trkpt><trkpt lat="44.6813246" lon="8.8137014"><ele>243.0</ele><time>2026-04-03T13:05:19.101Z</time></trkpt><trkpt lat="44.6813856" lon="8.813863"><ele>247.0</ele><time>2026-04-03T13:05:20.106Z</time></trkpt><trkpt lat="44.6849326" lon="8.8175011"><ele>252.33333333333331</ele><time>2026-04-03T13:05:49.999Z</time></trkpt><trkpt lat="44.6851115" lon="8.8176291"><ele>257.6666666666667</ele><time>2026-04-03T13:05:51.105Z</time></trkpt><trkpt lat="44.6853117" lon="8.8177416"><ele>263.0</ele><time>2026-04-03T13:05:52.103Z</time></trkpt><trkpt lat="44.6855053" lon="8.8178774"><ele>263.0</ele><time>2026-04-03T13:05:53.104Z</time></trkpt><trkpt lat="44.6858543" lon="8.8181018"><ele>263.0</ele><time>2026-04-03T13:05:55.101Z</time></trkpt><trkpt lat="44.686041" lon="8.8182296"><ele>264.33333333333337</ele><time>2026-04-03T13:05:56.103Z</time></trkpt><trkpt lat="44.6862228" lon="8.8183346"><ele>265.6666666666667</ele><time>2026-04-03T13:05:57.107Z</time></trkpt><trkpt lat="44.6864146" lon="8.8184136"><ele>267.0</ele><time>2026-04-03T13:05:58.105Z</time></trkpt><trkpt lat="44.68661" lon="8.8184847"><ele>267.0</ele><time>2026-04-03T13:05:59.108Z</time></trkpt><trkpt lat="44.6867793" lon="8.8185616"><ele>267.0</ele><time>2026-04-03T13:06:00.105Z</time></trkpt><trkpt lat="44.6869734" lon="8.8185973"><ele>267.0</ele><time>2026-04-03T13:06:01.1Z</time></trkpt><trkpt lat="44.6871662" lon="8.81863"><ele>264.5</ele><time>2026-04-03T13:06:02.106Z</time></trkpt><trkpt lat="44.6875255" lon="8.8186666"><ele>262.0</ele><time>2026-04-03T13:06:03.999Z</time></trkpt><trkpt lat="44.687698" lon="8.8186584"><ele>259.0</ele><time>2026-04-03T13:06:04.999Z</time></trkpt><trkpt lat="44.6878715" lon="8.8186474"><ele>256.0</ele><time>2026-04-03T13:06:06.103Z</time></trkpt><trkpt lat="44.6880454" lon="8.8186287"><ele>253.0</ele><time>2026-04-03T13:06:07.105Z</time></trkpt><trkpt lat="44.6882286" lon="8.818609"><ele>253.0</ele><time>2026-04-03T13:06:07.999Z</time></trkpt><trkpt lat="44.6884055" lon="8.8185975"><ele>253.0</ele><time>2026-04-03T13:06:09.107Z</time></trkpt><trkpt lat="44.6885887" lon="8.8185712"><ele>253.0</ele><time>2026-04-03T13:06:10.105Z</time></trkpt><trkpt lat="44.6887647" lon="8.8185293"><ele>251.0</ele><time>2026-04-03T13:06:11.112Z</time></trkpt><trkpt lat="44.6889309" lon="8.8185065"><ele>249.0</ele><time>2026-04-03T13:06:12.113Z</time></trkpt><trkpt lat="44.6890814" lon="8.8184898"><ele>247.0</ele><time>2026-04-03T13:06:13.106Z</time></trkpt><trkpt lat="44.6892348" lon="8.8184668"><ele>247.0</ele><time>2026-04-03T13:06:14.102Z</time></trkpt><trkpt lat="44.6893717" lon="8.8184467"><ele>247.0</ele><time>2026-04-03T13:06:15.106Z</time></trkpt><trkpt lat="44.689511" lon="8.818441"><ele>247.0</ele><time>2026-04-03T13:06:16.106Z</time></trkpt><trkpt lat="44.6896431" lon="8.8184245"><ele>247.0</ele><time>2026-04-03T13:06:17.113Z</time></trkpt><trkpt lat="44.6897456" lon="8.818419"><ele>246.2</ele><time>2026-04-03T13:06:18.1Z</time></trkpt><trkpt lat="44.6898417" lon="8.818423"><ele>245.39999999999998</ele><time>2026-04-03T13:06:19.106Z</time></trkpt><trkpt lat="44.6899425" lon="8.8184428"><ele>244.60000000000002</ele><time>2026-04-03T13:06:20.115Z</time></trkpt><trkpt lat="44.6900267" lon="8.818473"><ele>243.8</ele><time>2026-04-03T13:06:21.103Z</time></trkpt><trkpt lat="44.6901225" lon="8.8185288"><ele>243.0</ele><time>2026-04-03T13:06:22.119Z</time></trkpt><trkpt lat="44.6902792" lon="8.8187003"><ele>241.75</ele><time>2026-04-03T13:06:23.999Z</time></trkpt><trkpt lat="44.6903638" lon="8.8188088"><ele>240.5</ele><time>2026-04-03T13:06:25.103Z</time></trkpt><trkpt lat="44.6904297" lon="8.818926"><ele>239.25</ele><time>2026-04-03T13:06:26.115Z</time></trkpt><trkpt lat="44.6904676" lon="8.8191208"><ele>238.0</ele><time>2026-04-03T13:06:27.105Z</time></trkpt><trkpt lat="44.6905105" lon="8.8193065"><ele>238.25</ele><time>2026-04-03T13:06:28.125Z</time></trkpt><trkpt lat="44.690539" lon="8.819487"><ele>238.5</ele><time>2026-04-03T13:06:29.103Z</time></trkpt><trkpt lat="44.6905554" lon="8.8196706"><ele>238.75</ele><time>2026-04-03T13:06:30.106Z</time></trkpt><trkpt lat="44.6905916" lon="8.8198636"><ele>239.0</ele><time>2026-04-03T13:06:31.112Z</time></trkpt><trkpt lat="44.6906218" lon="8.8200559"><ele>239.0</ele><time>2026-04-03T13:06:32.14Z</time></trkpt><trkpt lat="44.6906478" lon="8.8202629"><ele>239.0</ele><time>2026-04-03T13:06:33.13Z</time></trkpt><trkpt lat="44.6906797" lon="8.8204717"><ele>239.0</ele><time>2026-04-03T13:06:34.105Z</time></trkpt><trkpt lat="44.6907145" lon="8.8206749"><ele>238.0</ele><time>2026-04-03T13:06:35.106Z</time></trkpt><trkpt lat="44.6907776" lon="8.8211118"><ele>237.0</ele><time>2026-04-03T13:06:36.999Z</time></trkpt><trkpt lat="44.6908032" lon="8.8213125"><ele>237.0</ele><time>2026-04-03T13:06:38.161Z</time></trkpt><trkpt lat="44.6908315" lon="8.8215179"><ele>237.0</ele><time>2026-04-03T13:06:39.175Z</time></trkpt><trkpt lat="44.6908565" lon="8.8217169"><ele>237.0</ele><time>2026-04-03T13:06:40.107Z</time></trkpt><trkpt lat="44.6908867" lon="8.8219033"><ele>237.0</ele><time>2026-04-03T13:06:41.104Z</time></trkpt><trkpt lat="44.690914" lon="8.8221001"><ele>238.0</ele><time>2026-04-03T13:06:42.16Z</time></trkpt><trkpt lat="44.6909359" lon="8.8222995"><ele>239.0</ele><time>2026-04-03T13:06:43.157Z</time></trkpt><trkpt lat="44.6909653" lon="8.8224957"><ele>240.0</ele><time>2026-04-03T13:06:44.195Z</time></trkpt><trkpt lat="44.6910009" lon="8.8226667"><ele>241.0</ele><time>2026-04-03T13:06:45.105Z</time></trkpt><trkpt lat="44.6910304" lon="8.8228503"><ele>241.0</ele><time>2026-04-03T13:06:46.108Z</time></trkpt><trkpt lat="44.6910559" lon="8.8230271"><ele>241.0</ele><time>2026-04-03T13:06:47.18Z</time></trkpt><trkpt lat="44.6910807" lon="8.8232207"><ele>241.0</ele><time>2026-04-03T13:06:48.186Z</time></trkpt><trkpt lat="44.6911088" lon="8.8234066"><ele>241.0</ele><time>2026-04-03T13:06:49.142Z</time></trkpt><trkpt lat="44.6911321" lon="8.823591"><ele>240.20000000000002</ele><time>2026-04-03T13:06:50.113Z</time></trkpt><trkpt lat="44.6911589" lon="8.8237656"><ele>239.40000000000003</ele><time>2026-04-03T13:06:51.108Z</time></trkpt><trkpt lat="44.6911813" lon="8.8239156"><ele>238.6</ele><time>2026-04-03T13:06:52.163Z</time></trkpt><trkpt lat="44.6911923" lon="8.8240631"><ele>237.8</ele><time>2026-04-03T13:06:53.165Z</time></trkpt><trkpt lat="44.6912026" lon="8.8241905"><ele>237.0</ele><time>2026-04-03T13:06:54.194Z</time></trkpt><trkpt lat="44.6912072" lon="8.8243013"><ele>237.16666666666666</ele><time>2026-04-03T13:06:55.107Z</time></trkpt><trkpt lat="44.6911984" lon="8.8244176"><ele>237.33333333333331</ele><time>2026-04-03T13:06:56.113Z</time></trkpt><trkpt lat="44.6911726" lon="8.8245287"><ele>237.5</ele><time>2026-04-03T13:06:57.202Z</time></trkpt><trkpt lat="44.6911731" lon="8.8247126"><ele>237.66666666666666</ele><time>2026-04-03T13:06:59.155Z</time></trkpt><trkpt lat="44.6912025" lon="8.8248059"><ele>237.83333333333331</ele><time>2026-04-03T13:07:00.107Z</time></trkpt><trkpt lat="44.6912515" lon="8.8248908"><ele>238.0</ele><time>2026-04-03T13:07:01.108Z</time></trkpt><trkpt lat="44.6912929" lon="8.8249792"><ele>237.99999999999997</ele><time>2026-04-03T13:07:02.158Z</time></trkpt><trkpt lat="44.691322" lon="8.825071"><ele>238.0</ele><time>2026-04-03T13:07:03.192Z</time></trkpt><trkpt lat="44.6913527" lon="8.8251668"><ele>238.0</ele><time>2026-04-03T13:07:04.155Z</time></trkpt><trkpt lat="44.6913839" lon="8.8252896"><ele>238.0</ele><time>2026-04-03T13:07:05.118Z</time></trkpt><trkpt lat="44.6914072" lon="8.8254025"><ele>237.99999999999997</ele><time>2026-04-03T13:07:06.109Z</time></trkpt><trkpt lat="44.691428" lon="8.8255334"><ele>238.0</ele><time>2026-04-03T13:07:07.101Z</time></trkpt><trkpt lat="44.6914461" lon="8.8256892"><ele>238.25</ele><time>2026-04-03T13:07:08.111Z</time></trkpt><trkpt lat="44.6914706" lon="8.8258541"><ele>238.5</ele><time>2026-04-03T13:07:09.157Z</time></trkpt><trkpt lat="44.6914988" lon="8.8260054"><ele>238.75</ele><time>2026-04-03T13:07:10.101Z</time></trkpt><trkpt lat="44.6915218" lon="8.8261697"><ele>239.0</ele><time>2026-04-03T13:07:11.11Z</time></trkpt><trkpt lat="44.6915532" lon="8.8263314"><ele>239.0</ele><time>2026-04-03T13:07:12.185Z</time></trkpt><trkpt lat="44.6915819" lon="8.8265177"><ele>239.0</ele><time>2026-04-03T13:07:13.157Z</time></trkpt><trkpt lat="44.6916077" lon="8.8266999"><ele>239.0</ele><time>2026-04-03T13:07:14.17Z</time></trkpt><trkpt lat="44.6916319" lon="8.8269023"><ele>239.0</ele><time>2026-04-03T13:07:15.104Z</time></trkpt><trkpt lat="44.6916601" lon="8.8270969"><ele>239.66666666666669</ele><time>2026-04-03T13:07:16.113Z</time></trkpt><trkpt lat="44.6916824" lon="8.8273032"><ele>240.33333333333331</ele><time>2026-04-03T13:07:17.107Z</time></trkpt><trkpt lat="44.6917108" lon="8.827517"><ele>241.0</ele><time>2026-04-03T13:07:18.107Z</time></trkpt><trkpt lat="44.691746" lon="8.8277263"><ele>241.33333333333331</ele><time>2026-04-03T13:07:19.105Z</time></trkpt><trkpt lat="44.6917641" lon="8.8279412"><ele>241.66666666666669</ele><time>2026-04-03T13:07:20.104Z</time></trkpt><trkpt lat="44.6917851" lon="8.8281615"><ele>242.0</ele><time>2026-04-03T13:07:21.105Z</time></trkpt><trkpt lat="44.6918007" lon="8.8283928"><ele>241.33333333333334</ele><time>2026-04-03T13:07:22.104Z</time></trkpt><trkpt lat="44.6918162" lon="8.8286247"><ele>240.66666666666669</ele><time>2026-04-03T13:07:23.105Z</time></trkpt><trkpt lat="44.6918303" lon="8.8288592"><ele>240.0</ele><time>2026-04-03T13:07:24.154Z</time></trkpt><trkpt lat="44.6918506" lon="8.8290908"><ele>240.0</ele><time>2026-04-03T13:07:25.105Z</time></trkpt><trkpt lat="44.6918684" lon="8.8293318"><ele>240.0</ele><time>2026-04-03T13:07:26.111Z</time></trkpt><trkpt lat="44.6918936" lon="8.8295734"><ele>240.0</ele><time>2026-04-03T13:07:27.159Z</time></trkpt><trkpt lat="44.6919211" lon="8.8298158"><ele>239.66666666666669</ele><time>2026-04-03T13:07:28.142Z</time></trkpt><trkpt lat="44.6919572" lon="8.8300565"><ele>239.33333333333334</ele><time>2026-04-03T13:07:29.158Z</time></trkpt><trkpt lat="44.6919896" lon="8.830292"><ele>239.0</ele><time>2026-04-03T13:07:30.112Z</time></trkpt><trkpt lat="44.692028" lon="8.8305229"><ele>239.0</ele><time>2026-04-03T13:07:31.105Z</time></trkpt><trkpt lat="44.6920658" lon="8.8307466"><ele>239.0</ele><time>2026-04-03T13:07:32.105Z</time></trkpt><trkpt lat="44.6921069" lon="8.8309691"><ele>239.0</ele><time>2026-04-03T13:07:33.16Z</time></trkpt><trkpt lat="44.6921409" lon="8.8312008"><ele>240.0</ele><time>2026-04-03T13:07:34.164Z</time></trkpt><trkpt lat="44.6922198" lon="8.8316769"><ele>241.0</ele><time>2026-04-03T13:07:36.109Z</time></trkpt><trkpt lat="44.6922585" lon="8.8319127"><ele>241.66666666666666</ele><time>2026-04-03T13:07:37.177Z</time></trkpt><trkpt lat="44.6922972" lon="8.8321583"><ele>242.33333333333331</ele><time>2026-04-03T13:07:38.144Z</time></trkpt><trkpt lat="44.6923368" lon="8.8324043"><ele>243.0</ele><time>2026-04-03T13:07:39.144Z</time></trkpt><trkpt lat="44.6923745" lon="8.8326384"><ele>243.0</ele><time>2026-04-03T13:07:40.105Z</time></trkpt><trkpt lat="44.6924107" lon="8.8328773"><ele>243.0</ele><time>2026-04-03T13:07:41.104Z</time></trkpt><trkpt lat="44.6924475" lon="8.8331187"><ele>243.0</ele><time>2026-04-03T13:07:42.108Z</time></trkpt><trkpt lat="44.6925306" lon="8.8336039"><ele>243.33333333333331</ele><time>2026-04-03T13:07:44.149Z</time></trkpt><trkpt lat="44.6925759" lon="8.8338423"><ele>243.66666666666666</ele><time>2026-04-03T13:07:45.109Z</time></trkpt><trkpt lat="44.6926136" lon="8.834081"><ele>244.0</ele><time>2026-04-03T13:07:46.113Z</time></trkpt><trkpt lat="44.6926542" lon="8.8343289"><ele>244.0</ele><time>2026-04-03T13:07:47.147Z</time></trkpt><trkpt lat="44.6926933" lon="8.834572"><ele>244.0</ele><time>2026-04-03T13:07:48.181Z</time></trkpt><trkpt lat="44.6927335" lon="8.8348212"><ele>244.0</ele><time>2026-04-03T13:07:49.18Z</time></trkpt><trkpt lat="44.6927731" lon="8.8350651"><ele>243.66666666666666</ele><time>2026-04-03T13:07:50.112Z</time></trkpt><trkpt lat="44.6928052" lon="8.8353059"><ele>243.33333333333331</ele><time>2026-04-03T13:07:51.116Z</time></trkpt><trkpt lat="44.6928415" lon="8.8355419"><ele>243.0</ele><time>2026-04-03T13:07:52.157Z</time></trkpt><trkpt lat="44.6928724" lon="8.8357527"><ele>243.33333333333331</ele><time>2026-04-03T13:07:53.181Z</time></trkpt><trkpt lat="44.6929078" lon="8.8359702"><ele>243.66666666666666</ele><time>2026-04-03T13:07:54.163Z</time></trkpt><trkpt lat="44.692944" lon="8.8362"><ele>244.0</ele><time>2026-04-03T13:07:55.102Z</time></trkpt><trkpt lat="44.6929797" lon="8.8364254"><ele>244.0</ele><time>2026-04-03T13:07:56.11Z</time></trkpt><trkpt lat="44.6930197" lon="8.8366477"><ele>244.0</ele><time>2026-04-03T13:07:57.193Z</time></trkpt><trkpt lat="44.6930572" lon="8.8368737"><ele>244.0</ele><time>2026-04-03T13:07:58.156Z</time></trkpt><trkpt lat="44.6930974" lon="8.837092"><ele>244.0</ele><time>2026-04-03T13:07:59.158Z</time></trkpt><trkpt lat="44.6931347" lon="8.8373053"><ele>244.0</ele><time>2026-04-03T13:08:00.11Z</time></trkpt><trkpt lat="44.6932399" lon="8.8376982"><ele>244.66666666666666</ele><time>2026-04-03T13:08:02.197Z</time></trkpt><trkpt lat="44.6933151" lon="8.8378946"><ele>245.33333333333331</ele><time>2026-04-03T13:08:03.165Z</time></trkpt><trkpt lat="44.6934138" lon="8.8380641"><ele>246.0</ele><time>2026-04-03T13:08:04.188Z</time></trkpt><trkpt lat="44.6935175" lon="8.8382379"><ele>246.0</ele><time>2026-04-03T13:08:05.11Z</time></trkpt><trkpt lat="44.6936282" lon="8.8383753"><ele>246.0</ele><time>2026-04-03T13:08:06.107Z</time></trkpt><trkpt lat="44.6937547" lon="8.8385225"><ele>246.0</ele><time>2026-04-03T13:08:07.161Z</time></trkpt><trkpt lat="44.6938765" lon="8.8386569"><ele>245.33333333333331</ele><time>2026-04-03T13:08:08.165Z</time></trkpt><trkpt lat="44.6939943" lon="8.8387969"><ele>244.66666666666666</ele><time>2026-04-03T13:08:09.188Z</time></trkpt><trkpt lat="44.694115" lon="8.8389325"><ele>244.0</ele><time>2026-04-03T13:08:10.112Z</time></trkpt><trkpt lat="44.6942422" lon="8.8390764"><ele>244.0</ele><time>2026-04-03T13:08:11.107Z</time></trkpt><trkpt lat="44.6943731" lon="8.8392159"><ele>244.0</ele><time>2026-04-03T13:08:12.191Z</time></trkpt><trkpt lat="44.6944985" lon="8.8393661"><ele>244.0</ele><time>2026-04-03T13:08:13.152Z</time></trkpt><trkpt lat="44.6946247" lon="8.8395189"><ele>245.0</ele><time>2026-04-03T13:08:14.166Z</time></trkpt><trkpt lat="44.6947506" lon="8.8396753"><ele>246.0</ele><time>2026-04-03T13:08:15.106Z</time></trkpt><trkpt lat="44.6948804" lon="8.8398319"><ele>247.0</ele><time>2026-04-03T13:08:16.107Z</time></trkpt><trkpt lat="44.6950145" lon="8.8399945"><ele>247.66666666666666</ele><time>2026-04-03T13:08:17.106Z</time></trkpt><trkpt lat="44.6951515" lon="8.8401519"><ele>248.33333333333331</ele><time>2026-04-03T13:08:18.106Z</time></trkpt><trkpt lat="44.6952825" lon="8.8403134"><ele>249.0</ele><time>2026-04-03T13:08:19.153Z</time></trkpt><trkpt lat="44.6954076" lon="8.8404737"><ele>250.0</ele><time>2026-04-03T13:08:20.104Z</time></trkpt><trkpt lat="44.6955378" lon="8.8406312"><ele>251.0</ele><time>2026-04-03T13:08:21.104Z</time></trkpt><trkpt lat="44.6956698" lon="8.8408001"><ele>252.0</ele><time>2026-04-03T13:08:22.131Z</time></trkpt><trkpt lat="44.6957944" lon="8.8409595"><ele>251.33333333333331</ele><time>2026-04-03T13:08:23.146Z</time></trkpt><trkpt lat="44.6959169" lon="8.8411284"><ele>250.66666666666666</ele><time>2026-04-03T13:08:24.173Z</time></trkpt><trkpt lat="44.6960283" lon="8.8413038"><ele>250.0</ele><time>2026-04-03T13:08:25.106Z</time></trkpt><trkpt lat="44.6961409" lon="8.8414815"><ele>252.0</ele><time>2026-04-03T13:08:26.105Z</time></trkpt><trkpt lat="44.6962563" lon="8.8416669"><ele>254.0</ele><time>2026-04-03T13:08:27.177Z</time></trkpt><trkpt lat="44.6963667" lon="8.8418426"><ele>256.0</ele><time>2026-04-03T13:08:28.144Z</time></trkpt><trkpt lat="44.6964793" lon="8.8420196"><ele>256.0</ele><time>2026-04-03T13:08:29.157Z</time></trkpt><trkpt lat="44.696588" lon="8.8421986"><ele>256.0</ele><time>2026-04-03T13:08:30.105Z</time></trkpt><trkpt lat="44.6966992" lon="8.8423782"><ele>256.0</ele><time>2026-04-03T13:08:31.112Z</time></trkpt><trkpt lat="44.6968088" lon="8.842551"><ele>255.66666666666666</ele><time>2026-04-03T13:08:32.15Z</time></trkpt><trkpt lat="44.6969181" lon="8.8427328"><ele>255.33333333333331</ele><time>2026-04-03T13:08:33.143Z</time></trkpt><trkpt lat="44.6970289" lon="8.842913"><ele>255.0</ele><time>2026-04-03T13:08:34.168Z</time></trkpt><trkpt lat="44.6971332" lon="8.8430832"><ele>256.6666666666667</ele><time>2026-04-03T13:08:35.105Z</time></trkpt><trkpt lat="44.6972408" lon="8.8432513"><ele>258.33333333333337</ele><time>2026-04-03T13:08:36.103Z</time></trkpt><trkpt lat="44.6973444" lon="8.8434214"><ele>260.0</ele><time>2026-04-03T13:08:37.142Z</time></trkpt><trkpt lat="44.6974491" lon="8.8435781"><ele>260.0</ele><time>2026-04-03T13:08:38.134Z</time></trkpt><trkpt lat="44.6976464" lon="8.8439116"><ele>260.0</ele><time>2026-04-03T13:08:40.115Z</time></trkpt><trkpt lat="44.6977288" lon="8.8440736"><ele>260.75</ele><time>2026-04-03T13:08:41.104Z</time></trkpt><trkpt lat="44.6977972" lon="8.8442533"><ele>261.5</ele><time>2026-04-03T13:08:42.104Z</time></trkpt><trkpt lat="44.697852" lon="8.8444426"><ele>262.25</ele><time>2026-04-03T13:08:43.168Z</time></trkpt><trkpt lat="44.6978978" lon="8.8446118"><ele>263.0</ele><time>2026-04-03T13:08:44.177Z</time></trkpt><trkpt lat="44.6979353" lon="8.8447964"><ele>263.25</ele><time>2026-04-03T13:08:45.108Z</time></trkpt><trkpt lat="44.697969" lon="8.8449923"><ele>263.5</ele><time>2026-04-03T13:08:46.111Z</time></trkpt><trkpt lat="44.6979962" lon="8.8451908"><ele>263.75</ele><time>2026-04-03T13:08:47.183Z</time></trkpt><trkpt lat="44.6980367" lon="8.8453835"><ele>264.0</ele><time>2026-04-03T13:08:48.132Z</time></trkpt><trkpt lat="44.6980895" lon="8.8455789"><ele>264.25</ele><time>2026-04-03T13:08:49.161Z</time></trkpt><trkpt lat="44.6981559" lon="8.8457643"><ele>264.5</ele><time>2026-04-03T13:08:50.108Z</time></trkpt><trkpt lat="44.6982316" lon="8.8459437"><ele>264.75</ele><time>2026-04-03T13:08:51.112Z</time></trkpt><trkpt lat="44.6983072" lon="8.8461248"><ele>265.0</ele><time>2026-04-03T13:08:52.147Z</time></trkpt><trkpt lat="44.6983897" lon="8.8463044"><ele>265.0</ele><time>2026-04-03T13:08:53.154Z</time></trkpt><trkpt lat="44.6984745" lon="8.8464809"><ele>265.0</ele><time>2026-04-03T13:08:54.182Z</time></trkpt><trkpt lat="44.6985602" lon="8.8466539"><ele>265.0</ele><time>2026-04-03T13:08:55.105Z</time></trkpt><trkpt lat="44.6986488" lon="8.8468353"><ele>267.66666666666663</ele><time>2026-04-03T13:08:56.111Z</time></trkpt><trkpt lat="44.698739" lon="8.8470076"><ele>270.3333333333333</ele><time>2026-04-03T13:08:57.193Z</time></trkpt><trkpt lat="44.6988354" lon="8.847179"><ele>273.0</ele><time>2026-04-03T13:08:58.175Z</time></trkpt><trkpt lat="44.6989383" lon="8.8473344"><ele>273.0</ele><time>2026-04-03T13:08:59.16Z</time></trkpt><trkpt lat="44.6990472" lon="8.8474709"><ele>273.0</ele><time>2026-04-03T13:09:00.103Z</time></trkpt><trkpt lat="44.69916" lon="8.8476018"><ele>273.0</ele><time>2026-04-03T13:09:01.103Z</time></trkpt><trkpt lat="44.6992669" lon="8.8477402"><ele>273.0</ele><time>2026-04-03T13:09:02.166Z</time></trkpt><trkpt lat="44.6993685" lon="8.8478909"><ele>274.25</ele><time>2026-04-03T13:09:03.188Z</time></trkpt><trkpt lat="44.6994506" lon="8.8480513"><ele>275.5</ele><time>2026-04-03T13:09:04.174Z</time></trkpt><trkpt lat="44.6995269" lon="8.8482237"><ele>276.75</ele><time>2026-04-03T13:09:05.103Z</time></trkpt><trkpt lat="44.6995934" lon="8.8484176"><ele>278.0</ele><time>2026-04-03T13:09:06.108Z</time></trkpt><trkpt lat="44.6996515" lon="8.8486077"><ele>278.0</ele><time>2026-04-03T13:09:07.104Z</time></trkpt><trkpt lat="44.6996997" lon="8.8488087"><ele>278.0</ele><time>2026-04-03T13:09:08.178Z</time></trkpt><trkpt lat="44.6997452" lon="8.849006"><ele>278.0</ele><time>2026-04-03T13:09:09.164Z</time></trkpt><trkpt lat="44.6997893" lon="8.8491965"><ele>278.0</ele><time>2026-04-03T13:09:10.102Z</time></trkpt><trkpt lat="44.6998344" lon="8.8493849"><ele>277.75</ele><time>2026-04-03T13:09:11.109Z</time></trkpt><trkpt lat="44.6998774" lon="8.8495753"><ele>277.5</ele><time>2026-04-03T13:09:12.182Z</time></trkpt><trkpt lat="44.6999281" lon="8.8497769"><ele>277.25</ele><time>2026-04-03T13:09:13.186Z</time></trkpt><trkpt lat="44.6999806" lon="8.8499653"><ele>277.0</ele><time>2026-04-03T13:09:14.188Z</time></trkpt><trkpt lat="44.7000151" lon="8.8501781"><ele>278.25</ele><time>2026-04-03T13:09:15.111Z</time></trkpt><trkpt lat="44.7000394" lon="8.8503926"><ele>279.5</ele><time>2026-04-03T13:09:16.117Z</time></trkpt><trkpt lat="44.700051" lon="8.8506028"><ele>280.75</ele><time>2026-04-03T13:09:17.125Z</time></trkpt><trkpt lat="44.7000645" lon="8.8507987"><ele>282.0</ele><time>2026-04-03T13:09:18.133Z</time></trkpt><trkpt lat="44.7000789" lon="8.8510025"><ele>283.0</ele><time>2026-04-03T13:09:19.174Z</time></trkpt><trkpt lat="44.7001078" lon="8.8511812"><ele>284.0</ele><time>2026-04-03T13:09:20.105Z</time></trkpt><trkpt lat="44.7001496" lon="8.8513646"><ele>285.0</ele><time>2026-04-03T13:09:21.108Z</time></trkpt><trkpt lat="44.7001974" lon="8.8515508"><ele>286.0</ele><time>2026-04-03T13:09:22.168Z</time></trkpt><trkpt lat="44.7002709" lon="8.8517359"><ele>290.5</ele><time>2026-04-03T13:09:23.171Z</time></trkpt><trkpt lat="44.700375" lon="8.8518912"><ele>295.0</ele><time>2026-04-03T13:09:24.106Z</time></trkpt><trkpt lat="44.7004825" lon="8.8520346"><ele>299.5</ele><time>2026-04-03T13:09:25.109Z</time></trkpt><trkpt lat="44.7006008" lon="8.8521552"><ele>304.0</ele><time>2026-04-03T13:09:26.105Z</time></trkpt><trkpt lat="44.7007196" lon="8.8522528"><ele>269.0</ele><time>2026-04-03T13:09:27.179Z</time></trkpt><trkpt lat="44.7023504" lon="8.8536632"><ele>269.0</ele><time>2026-04-03T13:09:39.153Z</time></trkpt><trkpt lat="44.7024775" lon="8.8538499"><ele>269.0</ele><time>2026-04-03T13:09:40.154Z</time></trkpt><trkpt lat="44.7025224" lon="8.8539776"><ele>269.0</ele><time>2026-04-03T13:09:41.102Z</time></trkpt><trkpt lat="44.7026117" lon="8.8541652"><ele>269.0</ele><time>2026-04-03T13:09:42.11Z</time></trkpt><trkpt lat="44.7026147" lon="8.8544571"><ele>267.75</ele><time>2026-04-03T13:09:43.151Z</time></trkpt><trkpt lat="44.7026582" lon="8.8546613"><ele>266.5</ele><time>2026-04-03T13:09:44.152Z</time></trkpt><trkpt lat="44.7027187" lon="8.8548609"><ele>265.25</ele><time>2026-04-03T13:09:45.132Z</time></trkpt><trkpt lat="44.7027637" lon="8.8550279"><ele>264.0</ele><time>2026-04-03T13:09:46.108Z</time></trkpt><trkpt lat="44.7028057" lon="8.8552065"><ele>263.75</ele><time>2026-04-03T13:09:47.112Z</time></trkpt><trkpt lat="44.7028509" lon="8.8553751"><ele>263.5</ele><time>2026-04-03T13:09:48.155Z</time></trkpt><trkpt lat="44.7029005" lon="8.8555025"><ele>263.25</ele><time>2026-04-03T13:09:49.126Z</time></trkpt><trkpt lat="44.7029847" lon="8.8556135"><ele>263.0</ele><time>2026-04-03T13:09:50.103Z</time></trkpt><trkpt lat="44.7030844" lon="8.8557174"><ele>263.0</ele><time>2026-04-03T13:09:51.119Z</time></trkpt><trkpt lat="44.7031891" lon="8.8558066"><ele>263.0</ele><time>2026-04-03T13:09:52.105Z</time></trkpt><trkpt lat="44.7032635" lon="8.8558838"><ele>263.0</ele><time>2026-04-03T13:09:53.194Z</time></trkpt><trkpt lat="44.7034203" lon="8.8559293"><ele>263.0</ele><time>2026-04-03T13:09:54.163Z</time></trkpt><trkpt lat="44.7035518" lon="8.8559907"><ele>259.5</ele><time>2026-04-03T13:09:55.182Z</time></trkpt><trkpt lat="44.70369" lon="8.8560403"><ele>256.0</ele><time>2026-04-03T13:09:56.108Z</time></trkpt><trkpt lat="44.703835" lon="8.8560798"><ele>252.5</ele><time>2026-04-03T13:09:57.104Z</time></trkpt><trkpt lat="44.703983" lon="8.8561349"><ele>249.0</ele><time>2026-04-03T13:09:58.103Z</time></trkpt><trkpt lat="44.7041354" lon="8.856163"><ele>249.0</ele><time>2026-04-03T13:09:59.108Z</time></trkpt><trkpt lat="44.7042883" lon="8.8562203"><ele>249.0</ele><time>2026-04-03T13:10:00.158Z</time></trkpt><trkpt lat="44.7044492" lon="8.8562695"><ele>249.0</ele><time>2026-04-03T13:10:01.103Z</time></trkpt><trkpt lat="44.7045914" lon="8.856354"><ele>250.33333333333331</ele><time>2026-04-03T13:10:02.111Z</time></trkpt><trkpt lat="44.7047401" lon="8.8564385"><ele>251.66666666666666</ele><time>2026-04-03T13:10:03.171Z</time></trkpt><trkpt lat="44.7048902" lon="8.8565222"><ele>253.0</ele><time>2026-04-03T13:10:04.184Z</time></trkpt><trkpt lat="44.7050213" lon="8.8566217"><ele>253.0</ele><time>2026-04-03T13:10:05.15Z</time></trkpt><trkpt lat="44.7051482" lon="8.8567363"><ele>253.0</ele><time>2026-04-03T13:10:06.117Z</time></trkpt><trkpt lat="44.7052725" lon="8.8568653"><ele>253.0</ele><time>2026-04-03T13:10:07.112Z</time></trkpt><trkpt lat="44.7054051" lon="8.8569867"><ele>251.0</ele><time>2026-04-03T13:10:08.161Z</time></trkpt><trkpt lat="44.7055469" lon="8.8571081"><ele>249.0</ele><time>2026-04-03T13:10:09.123Z</time></trkpt><trkpt lat="44.7056968" lon="8.8572208"><ele>247.0</ele><time>2026-04-03T13:10:10.185Z</time></trkpt><trkpt lat="44.7058537" lon="8.8573231"><ele>247.0</ele><time>2026-04-03T13:10:11.11Z</time></trkpt><trkpt lat="44.7060065" lon="8.8574227"><ele>247.0</ele><time>2026-04-03T13:10:12.168Z</time></trkpt><trkpt lat="44.7061601" lon="8.8575224"><ele>247.0</ele><time>2026-04-03T13:10:13.159Z</time></trkpt><trkpt lat="44.706313" lon="8.8576288"><ele>244.66666666666666</ele><time>2026-04-03T13:10:14.169Z</time></trkpt><trkpt lat="44.7064667" lon="8.8577317"><ele>242.33333333333331</ele><time>2026-04-03T13:10:15.14Z</time></trkpt><trkpt lat="44.70662" lon="8.8578358"><ele>240.0</ele><time>2026-04-03T13:10:16.108Z</time></trkpt><trkpt lat="44.7067754" lon="8.8579296"><ele>243.66666666666669</ele><time>2026-04-03T13:10:17.112Z</time></trkpt><trkpt lat="44.7069263" lon="8.8580335"><ele>247.33333333333334</ele><time>2026-04-03T13:10:18.17Z</time></trkpt><trkpt lat="44.7070818" lon="8.8581353"><ele>251.0</ele><time>2026-04-03T13:10:19.132Z</time></trkpt><trkpt lat="44.7072401" lon="8.8582443"><ele>251.0</ele><time>2026-04-03T13:10:20.168Z</time></trkpt><trkpt lat="44.7073896" lon="8.8583504"><ele>251.0</ele><time>2026-04-03T13:10:21.1Z</time></trkpt><trkpt lat="44.7075461" lon="8.8584568"><ele>251.0</ele><time>2026-04-03T13:10:22.103Z</time></trkpt><trkpt lat="44.7077023" lon="8.8585623"><ele>246.66666666666669</ele><time>2026-04-03T13:10:23.182Z</time></trkpt><trkpt lat="44.707851" lon="8.8586543"><ele>242.33333333333331</ele><time>2026-04-03T13:10:24.163Z</time></trkpt><trkpt lat="44.7080052" lon="8.8587495"><ele>238.0</ele><time>2026-04-03T13:10:25.159Z</time></trkpt><trkpt lat="44.708156" lon="8.8588404"><ele>238.0</ele><time>2026-04-03T13:10:26.106Z</time></trkpt><trkpt lat="44.7083072" lon="8.8589223"><ele>238.0</ele><time>2026-04-03T13:10:27.107Z</time></trkpt><trkpt lat="44.7084638" lon="8.8590105"><ele>238.0</ele><time>2026-04-03T13:10:28.152Z</time></trkpt><trkpt lat="44.7086235" lon="8.8591028"><ele>241.66666666666666</ele><time>2026-04-03T13:10:29.122Z</time></trkpt><trkpt lat="44.7087755" lon="8.859193"><ele>245.33333333333331</ele><time>2026-04-03T13:10:30.165Z</time></trkpt><trkpt lat="44.7089233" lon="8.8592791"><ele>249.0</ele><time>2026-04-03T13:10:31.11Z</time></trkpt><trkpt lat="44.7090736" lon="8.8593693"><ele>243.0</ele><time>2026-04-03T13:10:32.111Z</time></trkpt><trkpt lat="44.7092155" lon="8.8594425"><ele>237.0</ele><time>2026-04-03T13:10:33.189Z</time></trkpt><trkpt lat="44.7093574" lon="8.8595181"><ele>231.0</ele><time>2026-04-03T13:10:34.17Z</time></trkpt><trkpt lat="44.7094963" lon="8.8595886"><ele>231.0</ele><time>2026-04-03T13:10:35.153Z</time></trkpt><trkpt lat="44.709638" lon="8.8596654"><ele>231.0</ele><time>2026-04-03T13:10:36.106Z</time></trkpt><trkpt lat="44.7097726" lon="8.8597383"><ele>231.0</ele><time>2026-04-03T13:10:37.108Z</time></trkpt><trkpt lat="44.7099045" lon="8.8598208"><ele>231.0</ele><time>2026-04-03T13:10:38.195Z</time></trkpt><trkpt lat="44.7100314" lon="8.8599145"><ele>231.0</ele><time>2026-04-03T13:10:39.139Z</time></trkpt><trkpt lat="44.7101585" lon="8.8600116"><ele>231.0</ele><time>2026-04-03T13:10:40.168Z</time></trkpt><trkpt lat="44.7102843" lon="8.8601003"><ele>231.0</ele><time>2026-04-03T13:10:41.111Z</time></trkpt><trkpt lat="44.7104054" lon="8.8601896"><ele>231.0</ele><time>2026-04-03T13:10:42.113Z</time></trkpt><trkpt lat="44.7105173" lon="8.8602698"><ele>229.0</ele><time>2026-04-03T13:10:43.108Z</time></trkpt><trkpt lat="44.7106185" lon="8.8603522"><ele>227.0</ele><time>2026-04-03T13:10:44.169Z</time></trkpt><trkpt lat="44.7107041" lon="8.8604048"><ele>225.0</ele><time>2026-04-03T13:10:45.161Z</time></trkpt><trkpt lat="44.7108576" lon="8.8605009"><ele>223.0</ele><time>2026-04-03T13:10:47.106Z</time></trkpt><trkpt lat="44.7109691" lon="8.8605443"><ele>222.99999999999997</ele><time>2026-04-03T13:10:49.174Z</time></trkpt><trkpt lat="44.7110431" lon="8.860592"><ele>223.0</ele><time>2026-04-03T13:10:51.107Z</time></trkpt><trkpt lat="44.7110989" lon="8.8606565"><ele>223.0</ele><time>2026-04-03T13:10:53.101Z</time></trkpt><trkpt lat="44.7110711" lon="8.8607435"><ele>223.0</ele><time>2026-04-03T13:10:56.11Z</time></trkpt><trkpt lat="44.710986" lon="8.8607894"><ele>222.99999999999997</ele><time>2026-04-03T13:10:57.107Z</time></trkpt><trkpt lat="44.7109176" lon="8.8608326"><ele>223.0</ele><time>2026-04-03T13:10:58.1Z</time></trkpt><trkpt lat="44.7108354" lon="8.860854"><ele>223.0</ele><time>2026-04-03T13:10:59.1Z</time></trkpt><trkpt lat="44.7106835" lon="8.860921"><ele>223.0</ele><time>2026-04-03T13:11:01.107Z</time></trkpt><trkpt lat="44.7106094" lon="8.8609299"><ele>223.0</ele><time>2026-04-03T13:11:02.101Z</time></trkpt><trkpt lat="44.7105366" lon="8.8609562"><ele>223.0</ele><time>2026-04-03T13:11:03.1Z</time></trkpt><trkpt lat="44.7104432" lon="8.8609891"><ele>223.0</ele><time>2026-04-03T13:11:04.106Z</time></trkpt><trkpt lat="44.7103773" lon="8.8610134"><ele>222.25</ele><time>2026-04-03T13:11:05.1Z</time></trkpt><trkpt lat="44.7101991" lon="8.8610793"><ele>221.5</ele><time>2026-04-03T13:11:07.105Z</time></trkpt><trkpt lat="44.7101097" lon="8.8611055"><ele>220.75</ele><time>2026-04-03T13:11:08.101Z</time></trkpt><trkpt lat="44.7100172" lon="8.8611356"><ele>220.0</ele><time>2026-04-03T13:11:09.104Z</time></trkpt><trkpt lat="44.709833" lon="8.8612013"><ele>220.0</ele><time>2026-04-03T13:11:11.11Z</time></trkpt><trkpt lat="44.7097332" lon="8.8612394"><ele>220.0</ele><time>2026-04-03T13:11:12.101Z</time></trkpt><trkpt lat="44.7096343" lon="8.861291"><ele>220.0</ele><time>2026-04-03T13:11:13.143Z</time></trkpt><trkpt lat="44.7095393" lon="8.8613281"><ele>220.0</ele><time>2026-04-03T13:11:14.103Z</time></trkpt><trkpt lat="44.709444" lon="8.8613711"><ele>220.0</ele><time>2026-04-03T13:11:15.111Z</time></trkpt><trkpt lat="44.7093183" lon="8.8614143"><ele>220.25</ele><time>2026-04-03T13:11:16.101Z</time></trkpt><trkpt lat="44.7092096" lon="8.8614549"><ele>220.5</ele><time>2026-04-03T13:11:17.103Z</time></trkpt><trkpt lat="44.70908" lon="8.8614963"><ele>220.75</ele><time>2026-04-03T13:11:18.11Z</time></trkpt><trkpt lat="44.7089698" lon="8.8615298"><ele>221.0</ele><time>2026-04-03T13:11:19.107Z</time></trkpt><trkpt lat="44.7088604" lon="8.8615736"><ele>221.0</ele><time>2026-04-03T13:11:20.16Z</time></trkpt><trkpt lat="44.7087675" lon="8.8616204"><ele>221.00000000000003</ele><time>2026-04-03T13:11:21.104Z</time></trkpt><trkpt lat="44.7086995" lon="8.8616384"><ele>221.00000000000003</ele><time>2026-04-03T13:11:22.112Z</time></trkpt><trkpt lat="44.7086332" lon="8.861664"><ele>221.0</ele><time>2026-04-03T13:11:23.165Z</time></trkpt><trkpt lat="44.7084971" lon="8.8616775"><ele>221.0</ele><time>2026-04-03T13:11:25.999Z</time></trkpt><trkpt lat="44.7084049" lon="8.8616378"><ele>221.25</ele><time>2026-04-03T13:11:28.105Z</time></trkpt><trkpt lat="44.7082985" lon="8.8615903"><ele>221.5</ele><time>2026-04-03T13:11:30.108Z</time></trkpt><trkpt lat="44.7081791" lon="8.8616405"><ele>221.75</ele><time>2026-04-03T13:11:32.108Z</time></trkpt><trkpt lat="44.7081297" lon="8.8618013"><ele>222.0</ele><time>2026-04-03T13:11:34.11Z</time></trkpt><trkpt lat="44.708135" lon="8.8619925"><ele>221.39999999999998</ele><time>2026-04-03T13:11:36.112Z</time></trkpt><trkpt lat="44.7080801" lon="8.8621902"><ele>220.79999999999998</ele><time>2026-04-03T13:11:38.167Z</time></trkpt><trkpt lat="44.7080383" lon="8.8622787"><ele>220.2</ele><time>2026-04-03T13:11:39.122Z</time></trkpt><trkpt lat="44.7079606" lon="8.8623501"><ele>219.6</ele><time>2026-04-03T13:11:40.172Z</time></trkpt><trkpt lat="44.707895" lon="8.8624345"><ele>219.0</ele><time>2026-04-03T13:11:41.116Z</time></trkpt><trkpt lat="44.7078169" lon="8.862505"><ele>219.25</ele><time>2026-04-03T13:11:42.109Z</time></trkpt><trkpt lat="44.7077354" lon="8.8625893"><ele>219.5</ele><time>2026-04-03T13:11:43.184Z</time></trkpt><trkpt lat="44.7076453" lon="8.8626792"><ele>219.75</ele><time>2026-04-03T13:11:44.2Z</time></trkpt><trkpt lat="44.7075483" lon="8.862785"><ele>220.0</ele><time>2026-04-03T13:11:45.191Z</time></trkpt><trkpt lat="44.7074542" lon="8.8628826"><ele>220.2</ele><time>2026-04-03T13:11:46.113Z</time></trkpt><trkpt lat="44.7073586" lon="8.8629906"><ele>220.4</ele><time>2026-04-03T13:11:47.109Z</time></trkpt><trkpt lat="44.7072961" lon="8.8630087"><ele>220.60000000000002</ele><time>2026-04-03T13:11:48.155Z</time></trkpt><trkpt lat="44.7071868" lon="8.8630933"><ele>220.8</ele><time>2026-04-03T13:11:49.157Z</time></trkpt><trkpt lat="44.7070918" lon="8.8631592"><ele>221.0</ele><time>2026-04-03T13:11:50.194Z</time></trkpt><trkpt lat="44.7069768" lon="8.8632679"><ele>221.5</ele><time>2026-04-03T13:11:51.107Z</time></trkpt><trkpt lat="44.7068742" lon="8.8633431"><ele>222.0</ele><time>2026-04-03T13:11:52.105Z</time></trkpt><trkpt lat="44.706787" lon="8.8634633"><ele>222.5</ele><time>2026-04-03T13:11:53.166Z</time></trkpt><trkpt lat="44.7067006" lon="8.8635463"><ele>223.0</ele><time>2026-04-03T13:11:54.187Z</time></trkpt><trkpt lat="44.706559" lon="8.863737"><ele>223.0</ele><time>2026-04-03T13:11:55.16Z</time></trkpt><trkpt lat="44.70646" lon="8.8638422"><ele>223.0</ele><time>2026-04-03T13:11:56.103Z</time></trkpt><trkpt lat="44.7063676" lon="8.8639486"><ele>223.0</ele><time>2026-04-03T13:11:57.113Z</time></trkpt><trkpt lat="44.7062751" lon="8.8640435"><ele>223.0</ele><time>2026-04-03T13:11:58.114Z</time></trkpt><trkpt lat="44.7061621" lon="8.8641701"><ele>223.5</ele><time>2026-04-03T13:11:59.115Z</time></trkpt><trkpt lat="44.7060706" lon="8.8642654"><ele>224.0</ele><time>2026-04-03T13:12:00.131Z</time></trkpt><trkpt lat="44.7059654" lon="8.8643822"><ele>224.5</ele><time>2026-04-03T13:12:01.104Z</time></trkpt><trkpt lat="44.7058613" lon="8.8644764"><ele>225.0</ele><time>2026-04-03T13:12:02.12Z</time></trkpt><trkpt lat="44.7057695" lon="8.8645817"><ele>225.0</ele><time>2026-04-03T13:12:03.124Z</time></trkpt><trkpt lat="44.7056656" lon="8.864705"><ele>225.0</ele><time>2026-04-03T13:12:04.116Z</time></trkpt><trkpt lat="44.705563" lon="8.8648164"><ele>225.0</ele><time>2026-04-03T13:12:05.117Z</time></trkpt><trkpt lat="44.705452" lon="8.8649275"><ele>225.0</ele><time>2026-04-03T13:12:06.103Z</time></trkpt><trkpt lat="44.7053434" lon="8.8650479"><ele>226.0</ele><time>2026-04-03T13:12:07.156Z</time></trkpt><trkpt lat="44.7052225" lon="8.8651795"><ele>227.0</ele><time>2026-04-03T13:12:08.162Z</time></trkpt><trkpt lat="44.705108" lon="8.8653005"><ele>228.0</ele><time>2026-04-03T13:12:09.136Z</time></trkpt><trkpt lat="44.7049833" lon="8.8654317"><ele>228.0</ele><time>2026-04-03T13:12:10.139Z</time></trkpt><trkpt lat="44.7048602" lon="8.8655646"><ele>228.0</ele><time>2026-04-03T13:12:11.106Z</time></trkpt><trkpt lat="44.7047227" lon="8.8657134"><ele>228.0</ele><time>2026-04-03T13:12:12.109Z</time></trkpt><trkpt lat="44.7045856" lon="8.8658656"><ele>228.0</ele><time>2026-04-03T13:12:13.141Z</time></trkpt><trkpt lat="44.7044416" lon="8.8660101"><ele>228.0</ele><time>2026-04-03T13:12:14.15Z</time></trkpt><trkpt lat="44.704282" lon="8.8661562"><ele>228.0</ele><time>2026-04-03T13:12:15.172Z</time></trkpt><trkpt lat="44.7041171" lon="8.8663189"><ele>228.0</ele><time>2026-04-03T13:12:16.113Z</time></trkpt><trkpt lat="44.7039556" lon="8.8664837"><ele>228.0</ele><time>2026-04-03T13:12:17.103Z</time></trkpt><trkpt lat="44.7038081" lon="8.8666511"><ele>228.0</ele><time>2026-04-03T13:12:18.172Z</time></trkpt><trkpt lat="44.7036573" lon="8.8668163"><ele>228.66666666666669</ele><time>2026-04-03T13:12:19.14Z</time></trkpt><trkpt lat="44.7035113" lon="8.8669892"><ele>229.33333333333334</ele><time>2026-04-03T13:12:20.155Z</time></trkpt><trkpt lat="44.7033478" lon="8.8671604"><ele>230.0</ele><time>2026-04-03T13:12:21.11Z</time></trkpt><trkpt lat="44.7031812" lon="8.8673168"><ele>230.0</ele><time>2026-04-03T13:12:22.113Z</time></trkpt><trkpt lat="44.7030218" lon="8.8674631"><ele>230.0</ele><time>2026-04-03T13:12:23.142Z</time></trkpt><trkpt lat="44.7028666" lon="8.8676206"><ele>230.0</ele><time>2026-04-03T13:12:24.158Z</time></trkpt><trkpt lat="44.70271" lon="8.8677803"><ele>229.33333333333334</ele><time>2026-04-03T13:12:25.151Z</time></trkpt><trkpt lat="44.7025496" lon="8.8679339"><ele>228.66666666666669</ele><time>2026-04-03T13:12:26.115Z</time></trkpt><trkpt lat="44.702391" lon="8.8680849"><ele>228.0</ele><time>2026-04-03T13:12:27.111Z</time></trkpt><trkpt lat="44.7022406" lon="8.8682362"><ele>228.0</ele><time>2026-04-03T13:12:28.113Z</time></trkpt><trkpt lat="44.7020868" lon="8.8683868"><ele>228.0</ele><time>2026-04-03T13:12:29.102Z</time></trkpt><trkpt lat="44.701939" lon="8.8685453"><ele>228.0</ele><time>2026-04-03T13:12:30.145Z</time></trkpt><trkpt lat="44.701787" lon="8.8687048"><ele>228.5</ele><time>2026-04-03T13:12:31.115Z</time></trkpt><trkpt lat="44.7014893" lon="8.8690147"><ele>229.0</ele><time>2026-04-03T13:12:33.146Z</time></trkpt><trkpt lat="44.7013469" lon="8.8691611"><ele>229.0</ele><time>2026-04-03T13:12:34.163Z</time></trkpt><trkpt lat="44.7012039" lon="8.8693031"><ele>229.0</ele><time>2026-04-03T13:12:35.16Z</time></trkpt><trkpt lat="44.7010578" lon="8.8694554"><ele>229.0</ele><time>2026-04-03T13:12:36.111Z</time></trkpt><trkpt lat="44.7009119" lon="8.8696067"><ele>229.0</ele><time>2026-04-03T13:12:37.112Z</time></trkpt><trkpt lat="44.7007795" lon="8.8697478"><ele>229.0</ele><time>2026-04-03T13:12:38.153Z</time></trkpt><trkpt lat="44.7006351" lon="8.8699016"><ele>229.0</ele><time>2026-04-03T13:12:39.159Z</time></trkpt><trkpt lat="44.7005025" lon="8.8700413"><ele>229.0</ele><time>2026-04-03T13:12:40.187Z</time></trkpt><trkpt lat="44.7003908" lon="8.8701461"><ele>229.0</ele><time>2026-04-03T13:12:41.11Z</time></trkpt><trkpt lat="44.7002817" lon="8.8702564"><ele>229.0</ele><time>2026-04-03T13:12:42.106Z</time></trkpt><trkpt lat="44.7001708" lon="8.8703715"><ele>229.0</ele><time>2026-04-03T13:12:43.152Z</time></trkpt><trkpt lat="44.7000628" lon="8.8704925"><ele>229.75</ele><time>2026-04-03T13:12:44.156Z</time></trkpt><trkpt lat="44.6999561" lon="8.8705995"><ele>230.5</ele><time>2026-04-03T13:12:45.189Z</time></trkpt><trkpt lat="44.6998613" lon="8.8706995"><ele>231.25</ele><time>2026-04-03T13:12:46.108Z</time></trkpt><trkpt lat="44.6997623" lon="8.8708121"><ele>232.0</ele><time>2026-04-03T13:12:47.109Z</time></trkpt><trkpt lat="44.6996649" lon="8.870909"><ele>231.5</ele><time>2026-04-03T13:12:48.157Z</time></trkpt><trkpt lat="44.6995788" lon="8.8709978"><ele>231.0</ele><time>2026-04-03T13:12:49.153Z</time></trkpt><trkpt lat="44.6994547" lon="8.8711153"><ele>230.5</ele><time>2026-04-03T13:12:51.116Z</time></trkpt><trkpt lat="44.6993625" lon="8.8711629"><ele>230.0</ele><time>2026-04-03T13:12:52.113Z</time></trkpt><trkpt lat="44.6992735" lon="8.8712279"><ele>231.0</ele><time>2026-04-03T13:12:53.171Z</time></trkpt><trkpt lat="44.6992035" lon="8.8713307"><ele>232.0</ele><time>2026-04-03T13:12:54.172Z</time></trkpt><trkpt lat="44.6991324" lon="8.8714442"><ele>233.0</ele><time>2026-04-03T13:12:55.167Z</time></trkpt><trkpt lat="44.6990429" lon="8.8715457"><ele>234.0</ele><time>2026-04-03T13:12:56.107Z</time></trkpt><trkpt lat="44.698935" lon="8.8716584"><ele>234.0</ele><time>2026-04-03T13:12:57.109Z</time></trkpt><trkpt lat="44.6988276" lon="8.8717518"><ele>234.0</ele><time>2026-04-03T13:12:58.168Z</time></trkpt><trkpt lat="44.6987152" lon="8.87186"><ele>234.0</ele><time>2026-04-03T13:12:59.143Z</time></trkpt><trkpt lat="44.6986009" lon="8.871986"><ele>234.0</ele><time>2026-04-03T13:13:00.16Z</time></trkpt><trkpt lat="44.6984873" lon="8.8721123"><ele>233.66666666666669</ele><time>2026-04-03T13:13:01.108Z</time></trkpt><trkpt lat="44.6983529" lon="8.8722987"><ele>233.33333333333334</ele><time>2026-04-03T13:13:02.111Z</time></trkpt><trkpt lat="44.6982272" lon="8.8724613"><ele>233.0</ele><time>2026-04-03T13:13:03.141Z</time></trkpt><trkpt lat="44.6981057" lon="8.8726227"><ele>233.0</ele><time>2026-04-03T13:13:04.146Z</time></trkpt><trkpt lat="44.697987" lon="8.8727859"><ele>233.0</ele><time>2026-04-03T13:13:05.111Z</time></trkpt><trkpt lat="44.697725" lon="8.8731158"><ele>234.0</ele><time>2026-04-03T13:13:07.144Z</time></trkpt><trkpt lat="44.6975918" lon="8.873286"><ele>235.0</ele><time>2026-04-03T13:13:08.145Z</time></trkpt><trkpt lat="44.6974651" lon="8.8734554"><ele>236.0</ele><time>2026-04-03T13:13:09.171Z</time></trkpt><trkpt lat="44.6973364" lon="8.8736258"><ele>236.0</ele><time>2026-04-03T13:13:10.166Z</time></trkpt><trkpt lat="44.6972037" lon="8.8737943"><ele>236.0</ele><time>2026-04-03T13:13:11.112Z</time></trkpt><trkpt lat="44.6970705" lon="8.8739636"><ele>236.0</ele><time>2026-04-03T13:13:12.107Z</time></trkpt><trkpt lat="44.6969421" lon="8.8741336"><ele>236.0</ele><time>2026-04-03T13:13:13.168Z</time></trkpt><trkpt lat="44.6968116" lon="8.8743025"><ele>236.0</ele><time>2026-04-03T13:13:14.158Z</time></trkpt><trkpt lat="44.6966791" lon="8.8744729"><ele>236.0</ele><time>2026-04-03T13:13:15.167Z</time></trkpt><trkpt lat="44.6965441" lon="8.874643"><ele>236.0</ele><time>2026-04-03T13:13:16.116Z</time></trkpt><trkpt lat="44.6964241" lon="8.8747978"><ele>236.0</ele><time>2026-04-03T13:13:17.105Z</time></trkpt><trkpt lat="44.696295" lon="8.8749571"><ele>236.0</ele><time>2026-04-03T13:13:18.168Z</time></trkpt><trkpt lat="44.6961694" lon="8.8751259"><ele>236.33333333333334</ele><time>2026-04-03T13:13:19.131Z</time></trkpt><trkpt lat="44.6960506" lon="8.8752859"><ele>236.66666666666669</ele><time>2026-04-03T13:13:20.16Z</time></trkpt><trkpt lat="44.6959345" lon="8.8754445"><ele>237.0</ele><time>2026-04-03T13:13:21.107Z</time></trkpt><trkpt lat="44.6958114" lon="8.8755964"><ele>237.0</ele><time>2026-04-03T13:13:22.109Z</time></trkpt><trkpt lat="44.695695" lon="8.8757488"><ele>237.0</ele><time>2026-04-03T13:13:23.179Z</time></trkpt><trkpt lat="44.6955807" lon="8.8759046"><ele>237.0</ele><time>2026-04-03T13:13:24.182Z</time></trkpt><trkpt lat="44.6954658" lon="8.8760577"><ele>237.0</ele><time>2026-04-03T13:13:25.182Z</time></trkpt><trkpt lat="44.695357" lon="8.8761967"><ele>237.0</ele><time>2026-04-03T13:13:26.108Z</time></trkpt><trkpt lat="44.6952434" lon="8.8763348"><ele>237.0</ele><time>2026-04-03T13:13:27.111Z</time></trkpt><trkpt lat="44.6951416" lon="8.8764588"><ele>237.0</ele><time>2026-04-03T13:13:28.152Z</time></trkpt><trkpt lat="44.6950385" lon="8.8765892"><ele>237.0</ele><time>2026-04-03T13:13:29.153Z</time></trkpt><trkpt lat="44.6949362" lon="8.8767238"><ele>237.0</ele><time>2026-04-03T13:13:30.13Z</time></trkpt><trkpt lat="44.6948542" lon="8.8768254"><ele>237.0</ele><time>2026-04-03T13:13:31.105Z</time></trkpt><trkpt lat="44.6947513" lon="8.8769624"><ele>237.0</ele><time>2026-04-03T13:13:32.107Z</time></trkpt><trkpt lat="44.6946459" lon="8.8771064"><ele>237.66666666666669</ele><time>2026-04-03T13:13:33.159Z</time></trkpt><trkpt lat="44.6945635" lon="8.8772068"><ele>238.33333333333334</ele><time>2026-04-03T13:13:34.19Z</time></trkpt><trkpt lat="44.6944571" lon="8.8773494"><ele>239.0</ele><time>2026-04-03T13:13:35.16Z</time></trkpt><trkpt lat="44.6942504" lon="8.8776177"><ele>239.0</ele><time>2026-04-03T13:13:37.107Z</time></trkpt><trkpt lat="44.694024" lon="8.877893"><ele>239.0</ele><time>2026-04-03T13:13:39.109Z</time></trkpt><trkpt lat="44.6939297" lon="8.8780221"><ele>239.0</ele><time>2026-04-03T13:13:40.111Z</time></trkpt><trkpt lat="44.6937013" lon="8.87832"><ele>239.0</ele><time>2026-04-03T13:13:42.112Z</time></trkpt><trkpt lat="44.6936094" lon="8.8784207"><ele>239.0</ele><time>2026-04-03T13:13:43.184Z</time></trkpt><trkpt lat="44.6935302" lon="8.8785243"><ele>239.0</ele><time>2026-04-03T13:13:44.194Z</time></trkpt><trkpt lat="44.6934269" lon="8.8786706"><ele>239.0</ele><time>2026-04-03T13:13:45.163Z</time></trkpt><trkpt lat="44.6933252" lon="8.8787952"><ele>239.25</ele><time>2026-04-03T13:13:46.109Z</time></trkpt><trkpt lat="44.6932321" lon="8.8789254"><ele>239.5</ele><time>2026-04-03T13:13:47.113Z</time></trkpt><trkpt lat="44.6931297" lon="8.8790622"><ele>239.75</ele><time>2026-04-03T13:13:48.169Z</time></trkpt><trkpt lat="44.6930262" lon="8.8791893"><ele>240.0</ele><time>2026-04-03T13:13:49.158Z</time></trkpt><trkpt lat="44.6929299" lon="8.8793067"><ele>240.0</ele><time>2026-04-03T13:13:50.178Z</time></trkpt><trkpt lat="44.6928546" lon="8.8793972"><ele>240.0</ele><time>2026-04-03T13:13:51.115Z</time></trkpt><trkpt lat="44.6927819" lon="8.8794891"><ele>240.0</ele><time>2026-04-03T13:13:52.11Z</time></trkpt><trkpt lat="44.6927131" lon="8.8795831"><ele>240.0</ele><time>2026-04-03T13:13:53.132Z</time></trkpt><trkpt lat="44.6926643" lon="8.8796852"><ele>240.0</ele><time>2026-04-03T13:13:54.164Z</time></trkpt><trkpt lat="44.692639" lon="8.8797993"><ele>240.0</ele><time>2026-04-03T13:13:55.141Z</time></trkpt><trkpt lat="44.6926438" lon="8.8799125"><ele>240.0</ele><time>2026-04-03T13:13:56.111Z</time></trkpt><trkpt lat="44.692674" lon="8.8800044"><ele>240.0</ele><time>2026-04-03T13:13:57.111Z</time></trkpt><trkpt lat="44.6927212" lon="8.8800921"><ele>240.0</ele><time>2026-04-03T13:13:58.103Z</time></trkpt><trkpt lat="44.6927768" lon="8.8801778"><ele>240.0</ele><time>2026-04-03T13:13:59.173Z</time></trkpt><trkpt lat="44.6928308" lon="8.8802637"><ele>240.0</ele><time>2026-04-03T13:14:00.163Z</time></trkpt><trkpt lat="44.6928779" lon="8.8803656"><ele>239.66666666666666</ele><time>2026-04-03T13:14:01.104Z</time></trkpt><trkpt lat="44.6929075" lon="8.8804502"><ele>239.33333333333331</ele><time>2026-04-03T13:14:02.105Z</time></trkpt><trkpt lat="44.6929246" lon="8.8805368"><ele>239.0</ele><time>2026-04-03T13:14:03.126Z</time></trkpt><trkpt lat="44.6929113" lon="8.8806425"><ele>238.66666666666666</ele><time>2026-04-03T13:14:04.154Z</time></trkpt><trkpt lat="44.6928905" lon="8.8807531"><ele>238.33333333333331</ele><time>2026-04-03T13:14:05.172Z</time></trkpt><trkpt lat="44.6928501" lon="8.8808581"><ele>238.0</ele><time>2026-04-03T13:14:06.11Z</time></trkpt><trkpt lat="44.6928221" lon="8.8809768"><ele>237.75</ele><time>2026-04-03T13:14:07.106Z</time></trkpt><trkpt lat="44.6927655" lon="8.8811046"><ele>237.5</ele><time>2026-04-03T13:14:08.108Z</time></trkpt><trkpt lat="44.6926739" lon="8.8812147"><ele>237.25</ele><time>2026-04-03T13:14:09.174Z</time></trkpt><trkpt lat="44.6925822" lon="8.8813473"><ele>237.0</ele><time>2026-04-03T13:14:10.148Z</time></trkpt><trkpt lat="44.6924946" lon="8.8814645"><ele>238.0</ele><time>2026-04-03T13:14:11.116Z</time></trkpt><trkpt lat="44.6924065" lon="8.8815817"><ele>239.0</ele><time>2026-04-03T13:14:12.109Z</time></trkpt><trkpt lat="44.6923136" lon="8.8816941"><ele>240.0</ele><time>2026-04-03T13:14:13.107Z</time></trkpt><trkpt lat="44.6922186" lon="8.8818008"><ele>241.0</ele><time>2026-04-03T13:14:14.111Z</time></trkpt><trkpt lat="44.6921322" lon="8.8819493"><ele>241.0</ele><time>2026-04-03T13:14:15.129Z</time></trkpt><trkpt lat="44.6920401" lon="8.8820679"><ele>241.0</ele><time>2026-04-03T13:14:16.11Z</time></trkpt><trkpt lat="44.6919439" lon="8.8822001"><ele>241.0</ele><time>2026-04-03T13:14:17.102Z</time></trkpt><trkpt lat="44.6918522" lon="8.8823417"><ele>241.0</ele><time>2026-04-03T13:14:18.182Z</time></trkpt><trkpt lat="44.6917599" lon="8.8824648"><ele>240.8</ele><time>2026-04-03T13:14:19.174Z</time></trkpt><trkpt lat="44.691673" lon="8.8825879"><ele>240.60000000000002</ele><time>2026-04-03T13:14:20.154Z</time></trkpt><trkpt lat="44.6915954" lon="8.8826916"><ele>240.4</ele><time>2026-04-03T13:14:21.112Z</time></trkpt><trkpt lat="44.69152" lon="8.8827956"><ele>240.2</ele><time>2026-04-03T13:14:22.111Z</time></trkpt><trkpt lat="44.6914479" lon="8.8829044"><ele>240.0</ele><time>2026-04-03T13:14:23.193Z</time></trkpt><trkpt lat="44.6913869" lon="8.8830004"><ele>240.0</ele><time>2026-04-03T13:14:24.147Z</time></trkpt><trkpt lat="44.691317" lon="8.8830956"><ele>240.0</ele><time>2026-04-03T13:14:25.187Z</time></trkpt><trkpt lat="44.6912553" lon="8.8831846"><ele>240.0</ele><time>2026-04-03T13:14:26.106Z</time></trkpt><trkpt lat="44.6912053" lon="8.8832558"><ele>240.0</ele><time>2026-04-03T13:14:27.183Z</time></trkpt><trkpt lat="44.6911393" lon="8.8833267"><ele>240.0</ele><time>2026-04-03T13:14:30.999Z</time></trkpt><trkpt lat="44.6910599" lon="8.883412"><ele>240.0</ele><time>2026-04-03T13:14:34.108Z</time></trkpt><trkpt lat="44.6909949" lon="8.8834995"><ele>241.0</ele><time>2026-04-03T13:14:35.162Z</time></trkpt><trkpt lat="44.6909333" lon="8.8835847"><ele>242.0</ele><time>2026-04-03T13:14:36.113Z</time></trkpt><trkpt lat="44.6908855" lon="8.8836811"><ele>243.0</ele><time>2026-04-03T13:14:37.113Z</time></trkpt><trkpt lat="44.6908368" lon="8.8837711"><ele>244.0</ele><time>2026-04-03T13:14:38.207Z</time></trkpt><trkpt lat="44.690787" lon="8.8838627"><ele>245.0</ele><time>2026-04-03T13:14:39.114Z</time></trkpt><trkpt lat="44.6906563" lon="8.884073"><ele>245.0</ele><time>2026-04-03T13:14:41.107Z</time></trkpt><trkpt lat="44.6905916" lon="8.8841681"><ele>245.0</ele><time>2026-04-03T13:14:42.106Z</time></trkpt><trkpt lat="44.6905079" lon="8.8842798"><ele>245.0</ele><time>2026-04-03T13:14:43.173Z</time></trkpt><trkpt lat="44.6904442" lon="8.8843726"><ele>245.0</ele><time>2026-04-03T13:14:44.109Z</time></trkpt><trkpt lat="44.6903351" lon="8.8845186"><ele>245.0</ele><time>2026-04-03T13:14:46.107Z</time></trkpt><trkpt lat="44.6902788" lon="8.8845843"><ele>245.0</ele><time>2026-04-03T13:14:47.109Z</time></trkpt><trkpt lat="44.6901969" lon="8.884715"><ele>245.0</ele><time>2026-04-03T13:14:48.108Z</time></trkpt><trkpt lat="44.6900934" lon="8.8848719"><ele>245.0</ele><time>2026-04-03T13:14:50.116Z</time></trkpt><trkpt lat="44.6900371" lon="8.8849492"><ele>245.0</ele><time>2026-04-03T13:14:51.108Z</time></trkpt><trkpt lat="44.6899786" lon="8.8850326"><ele>245.00000000000003</ele><time>2026-04-03T13:14:52.107Z</time></trkpt><trkpt lat="44.6899133" lon="8.885117"><ele>245.0</ele><time>2026-04-03T13:14:53.114Z</time></trkpt><trkpt lat="44.6898469" lon="8.8852159"><ele>245.0</ele><time>2026-04-03T13:14:54.104Z</time></trkpt><trkpt lat="44.6897714" lon="8.8853148"><ele>245.0</ele><time>2026-04-03T13:14:55.11Z</time></trkpt><trkpt lat="44.6897096" lon="8.8853738"><ele>245.00000000000003</ele><time>2026-04-03T13:14:56.111Z</time></trkpt><trkpt lat="44.6896466" lon="8.8854522"><ele>245.0</ele><time>2026-04-03T13:14:57.106Z</time></trkpt><trkpt lat="44.6895617" lon="8.8855666"><ele>245.0</ele><time>2026-04-03T13:14:58.109Z</time></trkpt><trkpt lat="44.6894951" lon="8.8856695"><ele>245.0</ele><time>2026-04-03T13:14:59.106Z</time></trkpt><trkpt lat="44.6894015" lon="8.8858003"><ele>245.0</ele><time>2026-04-03T13:15:00.115Z</time></trkpt><trkpt lat="44.6892788" lon="8.8859658"><ele>245.0</ele><time>2026-04-03T13:15:01.11Z</time></trkpt><trkpt lat="44.6891893" lon="8.8860849"><ele>244.8</ele><time>2026-04-03T13:15:02.11Z</time></trkpt><trkpt lat="44.6891074" lon="8.8861849"><ele>244.6</ele><time>2026-04-03T13:15:03.117Z</time></trkpt><trkpt lat="44.6890246" lon="8.8862942"><ele>244.39999999999998</ele><time>2026-04-03T13:15:04.111Z</time></trkpt><trkpt lat="44.6889501" lon="8.8863802"><ele>244.2</ele><time>2026-04-03T13:15:05.105Z</time></trkpt><trkpt lat="44.6889027" lon="8.8864385"><ele>244.0</ele><time>2026-04-03T13:15:06.104Z</time></trkpt><trkpt lat="44.6888547" lon="8.8865077"><ele>244.0</ele><time>2026-04-03T13:15:08.11Z</time></trkpt><trkpt lat="44.688798" lon="8.8865759"><ele>243.99999999999997</ele><time>2026-04-03T13:15:10.109Z</time></trkpt><trkpt lat="44.6887374" lon="8.8866616"><ele>243.99999999999997</ele><time>2026-04-03T13:15:13.104Z</time></trkpt><trkpt lat="44.6886058" lon="8.8867833"><ele>244.0</ele><time>2026-04-03T13:15:16.101Z</time></trkpt><trkpt lat="44.6885351" lon="8.8868945"><ele>244.0</ele><time>2026-04-03T13:15:18.105Z</time></trkpt><trkpt lat="44.6884814" lon="8.8869814"><ele>244.5</ele><time>2026-04-03T13:15:19.112Z</time></trkpt><trkpt lat="44.6884336" lon="8.8870503"><ele>245.0</ele><time>2026-04-03T13:15:20.107Z</time></trkpt><trkpt lat="44.6882914" lon="8.8872318"><ele>245.5</ele><time>2026-04-03T13:15:22.108Z</time></trkpt><trkpt lat="44.6882096" lon="8.8873264"><ele>246.0</ele><time>2026-04-03T13:15:23.109Z</time></trkpt><trkpt lat="44.688115" lon="8.8874063"><ele>246.0</ele><time>2026-04-03T13:15:24.109Z</time></trkpt><trkpt lat="44.6880326" lon="8.8874885"><ele>246.0</ele><time>2026-04-03T13:15:25.104Z</time></trkpt><trkpt lat="44.6878611" lon="8.8876586"><ele>246.0</ele><time>2026-04-03T13:15:27.109Z</time></trkpt><trkpt lat="44.6877615" lon="8.8877577"><ele>246.0</ele><time>2026-04-03T13:15:28.105Z</time></trkpt><trkpt lat="44.6876673" lon="8.8878712"><ele>246.20000000000002</ele><time>2026-04-03T13:15:29.11Z</time></trkpt><trkpt lat="44.6875922" lon="8.8879516"><ele>246.40000000000003</ele><time>2026-04-03T13:15:30.109Z</time></trkpt><trkpt lat="44.6875134" lon="8.8880292"><ele>246.6</ele><time>2026-04-03T13:15:31.108Z</time></trkpt><trkpt lat="44.6874249" lon="8.8881223"><ele>246.8</ele><time>2026-04-03T13:15:32.11Z</time></trkpt><trkpt lat="44.6873443" lon="8.8882081"><ele>247.0</ele><time>2026-04-03T13:15:33.121Z</time></trkpt><trkpt lat="44.6872531" lon="8.8883003"><ele>247.0</ele><time>2026-04-03T13:15:34.107Z</time></trkpt><trkpt lat="44.6871713" lon="8.8883701"><ele>247.0</ele><time>2026-04-03T13:15:35.14Z</time></trkpt><trkpt lat="44.687102" lon="8.8884537"><ele>247.0</ele><time>2026-04-03T13:15:36.109Z</time></trkpt><trkpt lat="44.6870155" lon="8.8885425"><ele>247.0</ele><time>2026-04-03T13:15:37.106Z</time></trkpt><trkpt lat="44.6869129" lon="8.8886428"><ele>247.0</ele><time>2026-04-03T13:15:38.109Z</time></trkpt><trkpt lat="44.6868144" lon="8.8887299"><ele>247.75</ele><time>2026-04-03T13:15:39.144Z</time></trkpt><trkpt lat="44.686726" lon="8.8888171"><ele>248.5</ele><time>2026-04-03T13:15:40.114Z</time></trkpt><trkpt lat="44.6866429" lon="8.8888988"><ele>249.25</ele><time>2026-04-03T13:15:41.105Z</time></trkpt><trkpt lat="44.6865782" lon="8.8889479"><ele>250.0</ele><time>2026-04-03T13:15:42.112Z</time></trkpt><trkpt lat="44.6864062" lon="8.8891049"><ele>250.0</ele><time>2026-04-03T13:15:44.144Z</time></trkpt><trkpt lat="44.6863102" lon="8.8891826"><ele>250.0</ele><time>2026-04-03T13:15:45.175Z</time></trkpt><trkpt lat="44.6862133" lon="8.8892677"><ele>250.0</ele><time>2026-04-03T13:15:46.108Z</time></trkpt><trkpt lat="44.6861162" lon="8.8893559"><ele>250.0</ele><time>2026-04-03T13:15:47.108Z</time></trkpt><trkpt lat="44.6860286" lon="8.8894356"><ele>250.0</ele><time>2026-04-03T13:15:48.139Z</time></trkpt><trkpt lat="44.6859419" lon="8.8895171"><ele>249.8</ele><time>2026-04-03T13:15:49.104Z</time></trkpt><trkpt lat="44.685855" lon="8.8895977"><ele>249.6</ele><time>2026-04-03T13:15:50.108Z</time></trkpt><trkpt lat="44.6857613" lon="8.8896743"><ele>249.39999999999998</ele><time>2026-04-03T13:15:51.108Z</time></trkpt><trkpt lat="44.6856754" lon="8.8897636"><ele>249.2</ele><time>2026-04-03T13:15:52.112Z</time></trkpt><trkpt lat="44.685584" lon="8.8898481"><ele>249.0</ele><time>2026-04-03T13:15:53.147Z</time></trkpt><trkpt lat="44.6854854" lon="8.8899437"><ele>249.0</ele><time>2026-04-03T13:15:54.11Z</time></trkpt><trkpt lat="44.6854092" lon="8.8900234"><ele>248.99999999999997</ele><time>2026-04-03T13:15:55.105Z</time></trkpt><trkpt lat="44.6853233" lon="8.8900974"><ele>248.99999999999997</ele><time>2026-04-03T13:15:56.108Z</time></trkpt><trkpt lat="44.6852166" lon="8.890194"><ele>249.0</ele><time>2026-04-03T13:15:57.111Z</time></trkpt><trkpt lat="44.6851118" lon="8.8902888"><ele>249.0</ele><time>2026-04-03T13:15:58.15Z</time></trkpt><trkpt lat="44.6849972" lon="8.8904029"><ele>249.39999999999998</ele><time>2026-04-03T13:15:59.16Z</time></trkpt><trkpt lat="44.6849393" lon="8.8904734"><ele>249.79999999999998</ele><time>2026-04-03T13:16:00.157Z</time></trkpt><trkpt lat="44.6848362" lon="8.8905806"><ele>250.20000000000002</ele><time>2026-04-03T13:16:01.109Z</time></trkpt><trkpt lat="44.6847367" lon="8.8906727"><ele>250.60000000000002</ele><time>2026-04-03T13:16:02.108Z</time></trkpt><trkpt lat="44.6846484" lon="8.8907512"><ele>251.0</ele><time>2026-04-03T13:16:03.165Z</time></trkpt><trkpt lat="44.6845412" lon="8.8908508"><ele>250.75</ele><time>2026-04-03T13:16:04.17Z</time></trkpt><trkpt lat="44.6844326" lon="8.8909633"><ele>250.5</ele><time>2026-04-03T13:16:05.144Z</time></trkpt><trkpt lat="44.6843142" lon="8.891077"><ele>250.25</ele><time>2026-04-03T13:16:06.113Z</time></trkpt><trkpt lat="44.6842015" lon="8.8911757"><ele>250.0</ele><time>2026-04-03T13:16:07.106Z</time></trkpt><trkpt lat="44.6840979" lon="8.8912799"><ele>250.0</ele><time>2026-04-03T13:16:08.152Z</time></trkpt><trkpt lat="44.6840005" lon="8.891367"><ele>250.0</ele><time>2026-04-03T13:16:09.11Z</time></trkpt><trkpt lat="44.6839023" lon="8.8914605"><ele>250.0</ele><time>2026-04-03T13:16:10.184Z</time></trkpt><trkpt lat="44.6838071" lon="8.8915504"><ele>250.0</ele><time>2026-04-03T13:16:11.107Z</time></trkpt><trkpt lat="44.6837151" lon="8.8916302"><ele>250.0</ele><time>2026-04-03T13:16:12.109Z</time></trkpt><trkpt lat="44.6836235" lon="8.8917199"><ele>250.0</ele><time>2026-04-03T13:16:13.16Z</time></trkpt><trkpt lat="44.6835375" lon="8.8917969"><ele>250.0</ele><time>2026-04-03T13:16:14.176Z</time></trkpt><trkpt lat="44.6834447" lon="8.8918841"><ele>250.0</ele><time>2026-04-03T13:16:15.174Z</time></trkpt><trkpt lat="44.68337" lon="8.8919591"><ele>250.0</ele><time>2026-04-03T13:16:16.116Z</time></trkpt><trkpt lat="44.6832761" lon="8.8920523"><ele>249.75</ele><time>2026-04-03T13:16:17.105Z</time></trkpt><trkpt lat="44.6831838" lon="8.8921361"><ele>249.5</ele><time>2026-04-03T13:16:18.157Z</time></trkpt><trkpt lat="44.6830869" lon="8.8922212"><ele>249.25</ele><time>2026-04-03T13:16:19.154Z</time></trkpt><trkpt lat="44.6829853" lon="8.8923216"><ele>249.0</ele><time>2026-04-03T13:16:20.179Z</time></trkpt><trkpt lat="44.6828868" lon="8.8924071"><ele>249.0</ele><time>2026-04-03T13:16:21.111Z</time></trkpt><trkpt lat="44.6827888" lon="8.8924933"><ele>248.99999999999997</ele><time>2026-04-03T13:16:22.108Z</time></trkpt><trkpt lat="44.6826961" lon="8.8925792"><ele>248.99999999999997</ele><time>2026-04-03T13:16:23.156Z</time></trkpt><trkpt lat="44.6826087" lon="8.8926568"><ele>249.0</ele><time>2026-04-03T13:16:24.161Z</time></trkpt><trkpt lat="44.682516" lon="8.8927424"><ele>249.0</ele><time>2026-04-03T13:16:25.19Z</time></trkpt><trkpt lat="44.6824109" lon="8.8928493"><ele>249.0</ele><time>2026-04-03T13:16:26.11Z</time></trkpt><trkpt lat="44.682318" lon="8.8929313"><ele>249.0</ele><time>2026-04-03T13:16:27.105Z</time></trkpt><trkpt lat="44.6822172" lon="8.8930408"><ele>249.0</ele><time>2026-04-03T13:16:28.107Z</time></trkpt><trkpt lat="44.682098" lon="8.8931471"><ele>249.0</ele><time>2026-04-03T13:16:29.111Z</time></trkpt><trkpt lat="44.6819923" lon="8.8932504"><ele>249.25</ele><time>2026-04-03T13:16:30.134Z</time></trkpt><trkpt lat="44.6818726" lon="8.8933616"><ele>249.5</ele><time>2026-04-03T13:16:31.106Z</time></trkpt><trkpt lat="44.6817724" lon="8.8934621"><ele>249.75</ele><time>2026-04-03T13:16:32.11Z</time></trkpt><trkpt lat="44.6816784" lon="8.8935393"><ele>250.0</ele><time>2026-04-03T13:16:33.151Z</time></trkpt><trkpt lat="44.6815666" lon="8.8936143"><ele>249.5</ele><time>2026-04-03T13:16:34.11Z</time></trkpt><trkpt lat="44.6814459" lon="8.8937056"><ele>249.0</ele><time>2026-04-03T13:16:35.106Z</time></trkpt><trkpt lat="44.6813304" lon="8.8937974"><ele>248.5</ele><time>2026-04-03T13:16:36.102Z</time></trkpt><trkpt lat="44.6812229" lon="8.8938778"><ele>248.0</ele><time>2026-04-03T13:16:37.154Z</time></trkpt><trkpt lat="44.6811015" lon="8.8939726"><ele>248.5</ele><time>2026-04-03T13:16:38.148Z</time></trkpt><trkpt lat="44.6809928" lon="8.8940665"><ele>249.0</ele><time>2026-04-03T13:16:39.17Z</time></trkpt><trkpt lat="44.6808764" lon="8.8941548"><ele>249.5</ele><time>2026-04-03T13:16:40.191Z</time></trkpt><trkpt lat="44.6807633" lon="8.8942456"><ele>250.0</ele><time>2026-04-03T13:16:41.114Z</time></trkpt><trkpt lat="44.6806503" lon="8.8943316"><ele>249.5</ele><time>2026-04-03T13:16:42.119Z</time></trkpt><trkpt lat="44.6805186" lon="8.8944095"><ele>249.0</ele><time>2026-04-03T13:16:43.162Z</time></trkpt><trkpt lat="44.6803874" lon="8.8945061"><ele>248.5</ele><time>2026-04-03T13:16:44.199Z</time></trkpt><trkpt lat="44.6802424" lon="8.8945884"><ele>248.0</ele><time>2026-04-03T13:16:45.151Z</time></trkpt><trkpt lat="44.6801188" lon="8.8946503"><ele>248.0</ele><time>2026-04-03T13:16:46.104Z</time></trkpt><trkpt lat="44.6799741" lon="8.894725"><ele>248.0</ele><time>2026-04-03T13:16:47.106Z</time></trkpt><trkpt lat="44.6798403" lon="8.8947816"><ele>248.0</ele><time>2026-04-03T13:16:48.144Z</time></trkpt><trkpt lat="44.6796987" lon="8.8948351"><ele>248.0</ele><time>2026-04-03T13:16:49.138Z</time></trkpt><trkpt lat="44.6795612" lon="8.8948662"><ele>248.75</ele><time>2026-04-03T13:16:50.147Z</time></trkpt><trkpt lat="44.67942" lon="8.8948983"><ele>249.5</ele><time>2026-04-03T13:16:51.106Z</time></trkpt><trkpt lat="44.6792804" lon="8.8949184"><ele>250.25</ele><time>2026-04-03T13:16:52.109Z</time></trkpt><trkpt lat="44.6791299" lon="8.8949361"><ele>251.0</ele><time>2026-04-03T13:16:53.137Z</time></trkpt><trkpt lat="44.6789788" lon="8.8949601"><ele>251.0</ele><time>2026-04-03T13:16:54.156Z</time></trkpt><trkpt lat="44.6788162" lon="8.8949784"><ele>251.0</ele><time>2026-04-03T13:16:55.139Z</time></trkpt><trkpt lat="44.6786598" lon="8.894996"><ele>251.0</ele><time>2026-04-03T13:16:56.115Z</time></trkpt><trkpt lat="44.6785004" lon="8.8950244"><ele>249.66666666666669</ele><time>2026-04-03T13:16:57.109Z</time></trkpt><trkpt lat="44.6783343" lon="8.8950497"><ele>248.33333333333331</ele><time>2026-04-03T13:16:58.145Z</time></trkpt><trkpt lat="44.6781748" lon="8.8950715"><ele>247.0</ele><time>2026-04-03T13:16:59.151Z</time></trkpt><trkpt lat="44.6780117" lon="8.8950924"><ele>247.0</ele><time>2026-04-03T13:17:00.171Z</time></trkpt><trkpt lat="44.6778463" lon="8.8951132"><ele>247.0</ele><time>2026-04-03T13:17:01.111Z</time></trkpt><trkpt lat="44.6776895" lon="8.8951313"><ele>247.0</ele><time>2026-04-03T13:17:02.108Z</time></trkpt><trkpt lat="44.6773506" lon="8.8951718"><ele>247.33333333333331</ele><time>2026-04-03T13:17:04.161Z</time></trkpt><trkpt lat="44.677171" lon="8.8951958"><ele>247.66666666666669</ele><time>2026-04-03T13:17:05.157Z</time></trkpt><trkpt lat="44.6769879" lon="8.8952244"><ele>248.0</ele><time>2026-04-03T13:17:06.108Z</time></trkpt><trkpt lat="44.6768102" lon="8.8952532"><ele>248.66666666666669</ele><time>2026-04-03T13:17:07.105Z</time></trkpt><trkpt lat="44.6766269" lon="8.8953082"><ele>249.33333333333331</ele><time>2026-04-03T13:17:08.182Z</time></trkpt><trkpt lat="44.6764366" lon="8.8953655"><ele>250.0</ele><time>2026-04-03T13:17:09.115Z</time></trkpt><trkpt lat="44.67625" lon="8.8954168"><ele>251.66666666666666</ele><time>2026-04-03T13:17:10.181Z</time></trkpt><trkpt lat="44.6760525" lon="8.8954815"><ele>253.33333333333331</ele><time>2026-04-03T13:17:11.113Z</time></trkpt><trkpt lat="44.6758592" lon="8.8955309"><ele>255.0</ele><time>2026-04-03T13:17:12.107Z</time></trkpt><trkpt lat="44.6756654" lon="8.8955897"><ele>255.0</ele><time>2026-04-03T13:17:13.158Z</time></trkpt><trkpt lat="44.6754642" lon="8.8956392"><ele>255.0</ele><time>2026-04-03T13:17:14.164Z</time></trkpt><trkpt lat="44.6752544" lon="8.8956898"><ele>255.0</ele><time>2026-04-03T13:17:15.172Z</time></trkpt><trkpt lat="44.6750468" lon="8.8957375"><ele>256.0</ele><time>2026-04-03T13:17:16.112Z</time></trkpt><trkpt lat="44.674838" lon="8.8957885"><ele>257.0</ele><time>2026-04-03T13:17:17.112Z</time></trkpt><trkpt lat="44.6746233" lon="8.8958442"><ele>258.0</ele><time>2026-04-03T13:17:18.159Z</time></trkpt><trkpt lat="44.6744039" lon="8.8958822"><ele>258.6666666666667</ele><time>2026-04-03T13:17:19.104Z</time></trkpt><trkpt lat="44.6741878" lon="8.8959191"><ele>259.33333333333337</ele><time>2026-04-03T13:17:20.11Z</time></trkpt><trkpt lat="44.6739655" lon="8.8959475"><ele>260.0</ele><time>2026-04-03T13:17:21.107Z</time></trkpt><trkpt lat="44.673745" lon="8.8959524"><ele>252.0</ele><time>2026-04-03T13:17:22.162Z</time></trkpt><trkpt lat="44.6735251" lon="8.8959638"><ele>244.0</ele><time>2026-04-03T13:17:23.184Z</time></trkpt><trkpt lat="44.6732975" lon="8.895956"><ele>236.0</ele><time>2026-04-03T13:17:24.186Z</time></trkpt><trkpt lat="44.6730704" lon="8.89593"><ele>236.0</ele><time>2026-04-03T13:17:25.161Z</time></trkpt><trkpt lat="44.6728417" lon="8.8959402"><ele>236.0</ele><time>2026-04-03T13:17:26.111Z</time></trkpt><trkpt lat="44.6726236" lon="8.8958941"><ele>236.0</ele><time>2026-04-03T13:17:27.109Z</time></trkpt><trkpt lat="44.6724592" lon="8.8957888"><ele>244.0</ele><time>2026-04-03T13:17:28.166Z</time></trkpt><trkpt lat="44.6722843" lon="8.8957404"><ele>252.0</ele><time>2026-04-03T13:17:29.176Z</time></trkpt><trkpt lat="44.6721104" lon="8.8956832"><ele>260.0</ele><time>2026-04-03T13:17:30.185Z</time></trkpt><trkpt lat="44.6719538" lon="8.8956175"><ele>260.0</ele><time>2026-04-03T13:17:31.11Z</time></trkpt><trkpt lat="44.6718053" lon="8.8955558"><ele>260.0</ele><time>2026-04-03T13:17:32.108Z</time></trkpt><trkpt lat="44.6716763" lon="8.8954966"><ele>260.0</ele><time>2026-04-03T13:17:33.159Z</time></trkpt><trkpt lat="44.6715372" lon="8.8954559"><ele>260.0</ele><time>2026-04-03T13:17:34.166Z</time></trkpt><trkpt lat="44.6713935" lon="8.8954521"><ele>260.0</ele><time>2026-04-03T13:17:35.104Z</time></trkpt><trkpt lat="44.6712555" lon="8.8954777"><ele>260.0</ele><time>2026-04-03T13:17:36.113Z</time></trkpt><trkpt lat="44.671128" lon="8.8955517"><ele>260.0</ele><time>2026-04-03T13:17:37.166Z</time></trkpt><trkpt lat="44.6710227" lon="8.8956443"><ele>260.0</ele><time>2026-04-03T13:17:38.165Z</time></trkpt><trkpt lat="44.6709044" lon="8.8957618"><ele>260.0</ele><time>2026-04-03T13:17:39.2Z</time></trkpt><trkpt lat="44.6707914" lon="8.8958738"><ele>260.0</ele><time>2026-04-03T13:17:40.16Z</time></trkpt><trkpt lat="44.6706807" lon="8.8959764"><ele>260.0</ele><time>2026-04-03T13:17:41.109Z</time></trkpt><trkpt lat="44.6705594" lon="8.8960682"><ele>260.0</ele><time>2026-04-03T13:17:42.111Z</time></trkpt><trkpt lat="44.67044" lon="8.8961213"><ele>259.5</ele><time>2026-04-03T13:17:43.137Z</time></trkpt><trkpt lat="44.6703121" lon="8.8961758"><ele>259.0</ele><time>2026-04-03T13:17:44.167Z</time></trkpt><trkpt lat="44.6701851" lon="8.896236"><ele>258.5</ele><time>2026-04-03T13:17:45.161Z</time></trkpt><trkpt lat="44.6700355" lon="8.8963229"><ele>258.0</ele><time>2026-04-03T13:17:46.114Z</time></trkpt><trkpt lat="44.6699035" lon="8.896383"><ele>258.0</ele><time>2026-04-03T13:17:47.107Z</time></trkpt><trkpt lat="44.6697626" lon="8.8964514"><ele>258.0</ele><time>2026-04-03T13:17:48.146Z</time></trkpt><trkpt lat="44.6696272" lon="8.8965051"><ele>258.0</ele><time>2026-04-03T13:17:49.149Z</time></trkpt><trkpt lat="44.6694876" lon="8.8965579"><ele>258.0</ele><time>2026-04-03T13:17:50.167Z</time></trkpt><trkpt lat="44.6693253" lon="8.8966422"><ele>258.5</ele><time>2026-04-03T13:17:51.109Z</time></trkpt><trkpt lat="44.6691926" lon="8.8966803"><ele>259.0</ele><time>2026-04-03T13:17:52.108Z</time></trkpt><trkpt lat="44.6690469" lon="8.8967504"><ele>259.5</ele><time>2026-04-03T13:17:53.141Z</time></trkpt><trkpt lat="44.6689053" lon="8.8968103"><ele>260.0</ele><time>2026-04-03T13:17:54.156Z</time></trkpt><trkpt lat="44.6687755" lon="8.8968566"><ele>260.0</ele><time>2026-04-03T13:17:55.137Z</time></trkpt><trkpt lat="44.6686588" lon="8.8969113"><ele>260.0</ele><time>2026-04-03T13:17:56.11Z</time></trkpt><trkpt lat="44.6685289" lon="8.8969553"><ele>260.0</ele><time>2026-04-03T13:17:57.109Z</time></trkpt><trkpt lat="44.6684067" lon="8.8969969"><ele>260.0</ele><time>2026-04-03T13:17:58.149Z</time></trkpt><trkpt lat="44.6682922" lon="8.8970407"><ele>260.0</ele><time>2026-04-03T13:17:59.111Z</time></trkpt><trkpt lat="44.6681824" lon="8.897084"><ele>260.0</ele><time>2026-04-03T13:18:00.102Z</time></trkpt><trkpt lat="44.6680985" lon="8.8971262"><ele>260.0</ele><time>2026-04-03T13:18:01.109Z</time></trkpt><trkpt lat="44.6680027" lon="8.8972454"><ele>260.0</ele><time>2026-04-03T13:18:02.104Z</time></trkpt><trkpt lat="44.6679535" lon="8.8973666"><ele>260.0</ele><time>2026-04-03T13:18:03.186Z</time></trkpt><trkpt lat="44.6679091" lon="8.8975087"><ele>259.5</ele><time>2026-04-03T13:18:04.159Z</time></trkpt><trkpt lat="44.6678792" lon="8.8976606"><ele>259.0</ele><time>2026-04-03T13:18:05.155Z</time></trkpt><trkpt lat="44.667843" lon="8.8977975"><ele>258.5</ele><time>2026-04-03T13:18:06.11Z</time></trkpt><trkpt lat="44.6677918" lon="8.8979489"><ele>258.0</ele><time>2026-04-03T13:18:07.116Z</time></trkpt><trkpt lat="44.6677298" lon="8.898113"><ele>258.0</ele><time>2026-04-03T13:18:08.166Z</time></trkpt><trkpt lat="44.6676636" lon="8.8982658"><ele>258.0</ele><time>2026-04-03T13:18:09.177Z</time></trkpt><trkpt lat="44.6675066" lon="8.8985409"><ele>258.0</ele><time>2026-04-03T13:18:11Z</time></trkpt><trkpt lat="44.667427" lon="8.8986919"><ele>256.25</ele><time>2026-04-03T13:18:11.999Z</time></trkpt><trkpt lat="44.667344" lon="8.8988367"><ele>254.5</ele><time>2026-04-03T13:18:12.999Z</time></trkpt><trkpt lat="44.6672565" lon="8.8990011"><ele>252.75</ele><time>2026-04-03T13:18:14.114Z</time></trkpt><trkpt lat="44.6671524" lon="8.8991722"><ele>251.0</ele><time>2026-04-03T13:18:15.2Z</time></trkpt><trkpt lat="44.6670623" lon="8.8993387"><ele>253.0</ele><time>2026-04-03T13:18:16.118Z</time></trkpt><trkpt lat="44.6669582" lon="8.8995196"><ele>255.0</ele><time>2026-04-03T13:18:17.109Z</time></trkpt><trkpt lat="44.6668589" lon="8.8996985"><ele>257.0</ele><time>2026-04-03T13:18:18.162Z</time></trkpt><trkpt lat="44.6667629" lon="8.8998708"><ele>257.0</ele><time>2026-04-03T13:18:19.16Z</time></trkpt><trkpt lat="44.6666829" lon="8.9000526"><ele>257.0</ele><time>2026-04-03T13:18:20.158Z</time></trkpt><trkpt lat="44.6666078" lon="8.9002296"><ele>257.0</ele><time>2026-04-03T13:18:21.117Z</time></trkpt><trkpt lat="44.6665191" lon="8.9004291"><ele>256.6666666666667</ele><time>2026-04-03T13:18:22.109Z</time></trkpt><trkpt lat="44.6664332" lon="8.9006226"><ele>256.3333333333333</ele><time>2026-04-03T13:18:23.186Z</time></trkpt><trkpt lat="44.6663499" lon="8.9008119"><ele>256.0</ele><time>2026-04-03T13:18:24.152Z</time></trkpt><trkpt lat="44.6662746" lon="8.9009984"><ele>258.0</ele><time>2026-04-03T13:18:25.177Z</time></trkpt><trkpt lat="44.6661882" lon="8.9011965"><ele>260.0</ele><time>2026-04-03T13:18:26.109Z</time></trkpt><trkpt lat="44.6660939" lon="8.9013615"><ele>262.0</ele><time>2026-04-03T13:18:27.105Z</time></trkpt><trkpt lat="44.6659946" lon="8.9015051"><ele>262.0</ele><time>2026-04-03T13:18:28.161Z</time></trkpt><trkpt lat="44.6658804" lon="8.9016529"><ele>262.0</ele><time>2026-04-03T13:18:29.1Z</time></trkpt><trkpt lat="44.6657585" lon="8.9017675"><ele>262.0</ele><time>2026-04-03T13:18:30.183Z</time></trkpt><trkpt lat="44.6656332" lon="8.9018741"><ele>262.0</ele><time>2026-04-03T13:18:31.113Z</time></trkpt><trkpt lat="44.6655033" lon="8.9019811"><ele>262.5</ele><time>2026-04-03T13:18:32.113Z</time></trkpt><trkpt lat="44.6653796" lon="8.9020886"><ele>263.0</ele><time>2026-04-03T13:18:33.166Z</time></trkpt><trkpt lat="44.6652554" lon="8.9021945"><ele>263.5</ele><time>2026-04-03T13:18:34.159Z</time></trkpt><trkpt lat="44.6651491" lon="8.9022791"><ele>264.0</ele><time>2026-04-03T13:18:35.19Z</time></trkpt><trkpt lat="44.6650301" lon="8.9023656"><ele>264.0</ele><time>2026-04-03T13:18:36.11Z</time></trkpt><trkpt lat="44.6649142" lon="8.9024631"><ele>264.0</ele><time>2026-04-03T13:18:37.104Z</time></trkpt><trkpt lat="44.6648001" lon="8.9025633"><ele>264.0</ele><time>2026-04-03T13:18:38.164Z</time></trkpt><trkpt lat="44.6646859" lon="8.9026683"><ele>264.0</ele><time>2026-04-03T13:18:39.136Z</time></trkpt><trkpt lat="44.6645735" lon="8.9027707"><ele>264.0</ele><time>2026-04-03T13:18:40.118Z</time></trkpt><trkpt lat="44.664469" lon="8.9028752"><ele>264.0</ele><time>2026-04-03T13:18:41.103Z</time></trkpt><trkpt lat="44.6643601" lon="8.902976"><ele>264.0</ele><time>2026-04-03T13:18:42.113Z</time></trkpt><trkpt lat="44.6642584" lon="8.9030946"><ele>264.0</ele><time>2026-04-03T13:18:43.142Z</time></trkpt><trkpt lat="44.6641575" lon="8.9032217"><ele>264.0</ele><time>2026-04-03T13:18:44.109Z</time></trkpt><trkpt lat="44.6640607" lon="8.9033472"><ele>264.0</ele><time>2026-04-03T13:18:45.101Z</time></trkpt><trkpt lat="44.6639706" lon="8.903477"><ele>264.0</ele><time>2026-04-03T13:18:46.11Z</time></trkpt><trkpt lat="44.6638774" lon="8.9036149"><ele>264.0</ele><time>2026-04-03T13:18:47.111Z</time></trkpt><trkpt lat="44.6637869" lon="8.9037462"><ele>263.75</ele><time>2026-04-03T13:18:48.147Z</time></trkpt><trkpt lat="44.663698" lon="8.9038715"><ele>263.5</ele><time>2026-04-03T13:18:49.174Z</time></trkpt><trkpt lat="44.6636123" lon="8.9039882"><ele>263.25</ele><time>2026-04-03T13:18:50.131Z</time></trkpt><trkpt lat="44.6635245" lon="8.9040991"><ele>263.0</ele><time>2026-04-03T13:18:51.116Z</time></trkpt><trkpt lat="44.6634422" lon="8.9042192"><ele>263.0</ele><time>2026-04-03T13:18:52.109Z</time></trkpt><trkpt lat="44.6633485" lon="8.9043379"><ele>263.0</ele><time>2026-04-03T13:18:53.146Z</time></trkpt><trkpt lat="44.6632715" lon="8.9044611"><ele>263.0</ele><time>2026-04-03T13:18:54.149Z</time></trkpt><trkpt lat="44.6631815" lon="8.9045835"><ele>263.0</ele><time>2026-04-03T13:18:55.178Z</time></trkpt><trkpt lat="44.6631003" lon="8.9047047"><ele>263.0</ele><time>2026-04-03T13:18:56.107Z</time></trkpt><trkpt lat="44.6630085" lon="8.904832"><ele>263.0</ele><time>2026-04-03T13:18:57.112Z</time></trkpt><trkpt lat="44.6629149" lon="8.9049576"><ele>263.0</ele><time>2026-04-03T13:18:58.113Z</time></trkpt><trkpt lat="44.6628192" lon="8.9050849"><ele>263.0</ele><time>2026-04-03T13:18:59.112Z</time></trkpt><trkpt lat="44.6627273" lon="8.9052229"><ele>263.5</ele><time>2026-04-03T13:19:00.112Z</time></trkpt><trkpt lat="44.6626309" lon="8.9053544"><ele>264.0</ele><time>2026-04-03T13:19:01.108Z</time></trkpt><trkpt lat="44.6625294" lon="8.9054892"><ele>264.5</ele><time>2026-04-03T13:19:02.114Z</time></trkpt><trkpt lat="44.6624327" lon="8.9056262"><ele>265.0</ele><time>2026-04-03T13:19:03.158Z</time></trkpt><trkpt lat="44.6623344" lon="8.9057637"><ele>265.0</ele><time>2026-04-03T13:19:04.157Z</time></trkpt><trkpt lat="44.6622353" lon="8.9058915"><ele>265.0</ele><time>2026-04-03T13:19:05.109Z</time></trkpt><trkpt lat="44.6621392" lon="8.9060239"><ele>265.0</ele><time>2026-04-03T13:19:06.108Z</time></trkpt><trkpt lat="44.6620501" lon="8.9061567"><ele>265.0</ele><time>2026-04-03T13:19:07.104Z</time></trkpt><trkpt lat="44.6619618" lon="8.9062894"><ele>265.25</ele><time>2026-04-03T13:19:08.19Z</time></trkpt><trkpt lat="44.661873" lon="8.9064098"><ele>265.5</ele><time>2026-04-03T13:19:09.175Z</time></trkpt><trkpt lat="44.6617838" lon="8.9065412"><ele>265.75</ele><time>2026-04-03T13:19:10.163Z</time></trkpt><trkpt lat="44.6616991" lon="8.9066658"><ele>266.0</ele><time>2026-04-03T13:19:11.108Z</time></trkpt><trkpt lat="44.6616147" lon="8.9067821"><ele>264.6666666666667</ele><time>2026-04-03T13:19:12.113Z</time></trkpt><trkpt lat="44.6615348" lon="8.9069047"><ele>263.3333333333333</ele><time>2026-04-03T13:19:13.111Z</time></trkpt><trkpt lat="44.6614525" lon="8.9070219"><ele>262.0</ele><time>2026-04-03T13:19:14.115Z</time></trkpt><trkpt lat="44.661276" lon="8.9072621"><ele>262.0</ele><time>2026-04-03T13:19:16.107Z</time></trkpt><trkpt lat="44.6611852" lon="8.9073882"><ele>262.0</ele><time>2026-04-03T13:19:17.156Z</time></trkpt><trkpt lat="44.6610945" lon="8.9075148"><ele>262.0</ele><time>2026-04-03T13:19:18.109Z</time></trkpt><trkpt lat="44.6610069" lon="8.9076406"><ele>262.0</ele><time>2026-04-03T13:19:19.113Z</time></trkpt><trkpt lat="44.6609206" lon="8.9077723"><ele>262.25</ele><time>2026-04-03T13:19:20.191Z</time></trkpt><trkpt lat="44.6608259" lon="8.907897"><ele>262.5</ele><time>2026-04-03T13:19:21.11Z</time></trkpt><trkpt lat="44.6607339" lon="8.9080277"><ele>262.75</ele><time>2026-04-03T13:19:22.11Z</time></trkpt><trkpt lat="44.6606342" lon="8.9081599"><ele>263.0</ele><time>2026-04-03T13:19:23.197Z</time></trkpt><trkpt lat="44.6605554" lon="8.9082928"><ele>263.0</ele><time>2026-04-03T13:19:24.184Z</time></trkpt><trkpt lat="44.6604817" lon="8.9084429"><ele>263.0</ele><time>2026-04-03T13:19:25.193Z</time></trkpt><trkpt lat="44.6604117" lon="8.9085983"><ele>263.0</ele><time>2026-04-03T13:19:26.112Z</time></trkpt><trkpt lat="44.6603459" lon="8.9087631"><ele>263.0</ele><time>2026-04-03T13:19:27.184Z</time></trkpt><trkpt lat="44.6602875" lon="8.9089097"><ele>266.0</ele><time>2026-04-03T13:19:28.167Z</time></trkpt><trkpt lat="44.6602227" lon="8.9090605"><ele>269.0</ele><time>2026-04-03T13:19:29.158Z</time></trkpt><trkpt lat="44.6601741" lon="8.9092036"><ele>272.0</ele><time>2026-04-03T13:19:30.169Z</time></trkpt><trkpt lat="44.6601175" lon="8.9093483"><ele>275.0</ele><time>2026-04-03T13:19:31.103Z</time></trkpt><trkpt lat="44.6600773" lon="8.9094902"><ele>275.0</ele><time>2026-04-03T13:19:32.104Z</time></trkpt><trkpt lat="44.6600624" lon="8.90965"><ele>275.0</ele><time>2026-04-03T13:19:33.161Z</time></trkpt><trkpt lat="44.6600835" lon="8.9097928"><ele>275.0</ele><time>2026-04-03T13:19:34.194Z</time></trkpt><trkpt lat="44.660138" lon="8.909917"><ele>275.0</ele><time>2026-04-03T13:19:35.154Z</time></trkpt><trkpt lat="44.6602055" lon="8.9100352"><ele>275.0</ele><time>2026-04-03T13:19:36.109Z</time></trkpt><trkpt lat="44.6602891" lon="8.9101333"><ele>275.0</ele><time>2026-04-03T13:19:37.112Z</time></trkpt><trkpt lat="44.6603895" lon="8.9102277"><ele>275.0</ele><time>2026-04-03T13:19:38.168Z</time></trkpt><trkpt lat="44.6604821" lon="8.9103193"><ele>275.0</ele><time>2026-04-03T13:19:39.158Z</time></trkpt><trkpt lat="44.6605711" lon="8.9104323"><ele>275.0</ele><time>2026-04-03T13:19:40.144Z</time></trkpt><trkpt lat="44.6606627" lon="8.9105469"><ele>275.0</ele><time>2026-04-03T13:19:41.11Z</time></trkpt><trkpt lat="44.6607388" lon="8.9106829"><ele>275.0</ele><time>2026-04-03T13:19:42.112Z</time></trkpt><trkpt lat="44.6607949" lon="8.9108223"><ele>275.0</ele><time>2026-04-03T13:19:43.144Z</time></trkpt><trkpt lat="44.660831" lon="8.910976"><ele>275.0</ele><time>2026-04-03T13:19:44.108Z</time></trkpt><trkpt lat="44.6608742" lon="8.911319"><ele>277.5</ele><time>2026-04-03T13:19:46.109Z</time></trkpt><trkpt lat="44.6608955" lon="8.9114949"><ele>280.0</ele><time>2026-04-03T13:19:47.111Z</time></trkpt><trkpt lat="44.6609333" lon="8.9116763"><ele>282.5</ele><time>2026-04-03T13:19:48.159Z</time></trkpt><trkpt lat="44.6609884" lon="8.9118467"><ele>285.0</ele><time>2026-04-03T13:19:49.116Z</time></trkpt><trkpt lat="44.6610531" lon="8.9120045"><ele>282.25</ele><time>2026-04-03T13:19:50.169Z</time></trkpt><trkpt lat="44.6611216" lon="8.9121769"><ele>279.5</ele><time>2026-04-03T13:19:51.107Z</time></trkpt><trkpt lat="44.661208" lon="8.912338"><ele>276.75</ele><time>2026-04-03T13:19:52.107Z</time></trkpt><trkpt lat="44.6612744" lon="8.9125077"><ele>274.0</ele><time>2026-04-03T13:19:53.108Z</time></trkpt><trkpt lat="44.6613281" lon="8.9127041"><ele>274.0</ele><time>2026-04-03T13:19:54.146Z</time></trkpt><trkpt lat="44.6613694" lon="8.9128954"><ele>274.0</ele><time>2026-04-03T13:19:55.156Z</time></trkpt><trkpt lat="44.6614102" lon="8.9131001"><ele>274.0</ele><time>2026-04-03T13:19:56.109Z</time></trkpt><trkpt lat="44.6614363" lon="8.913306"><ele>274.0</ele><time>2026-04-03T13:19:57.109Z</time></trkpt><trkpt lat="44.6614531" lon="8.9135142"><ele>274.3333333333333</ele><time>2026-04-03T13:19:58.179Z</time></trkpt><trkpt lat="44.6614519" lon="8.9137283"><ele>274.6666666666667</ele><time>2026-04-03T13:19:59.155Z</time></trkpt><trkpt lat="44.6614543" lon="8.9139454"><ele>275.0</ele><time>2026-04-03T13:20:00.186Z</time></trkpt><trkpt lat="44.6614466" lon="8.9141688"><ele>274.6666666666667</ele><time>2026-04-03T13:20:01.11Z</time></trkpt><trkpt lat="44.661427" lon="8.9144008"><ele>274.3333333333333</ele><time>2026-04-03T13:20:02.108Z</time></trkpt><trkpt lat="44.6614032" lon="8.9146302"><ele>274.0</ele><time>2026-04-03T13:20:03.159Z</time></trkpt><trkpt lat="44.6613712" lon="8.914851"><ele>271.0</ele><time>2026-04-03T13:20:04.157Z</time></trkpt><trkpt lat="44.661337" lon="8.9150939"><ele>268.0</ele><time>2026-04-03T13:20:05.185Z</time></trkpt><trkpt lat="44.6612934" lon="8.915336"><ele>265.0</ele><time>2026-04-03T13:20:06.107Z</time></trkpt><trkpt lat="44.6612475" lon="8.9155731"><ele>265.0</ele><time>2026-04-03T13:20:07.113Z</time></trkpt><trkpt lat="44.6611975" lon="8.9157922"><ele>265.0</ele><time>2026-04-03T13:20:08.191Z</time></trkpt><trkpt lat="44.6611113" lon="8.9160133"><ele>265.0</ele><time>2026-04-03T13:20:09.179Z</time></trkpt><trkpt lat="44.661044" lon="8.9162509"><ele>265.3333333333333</ele><time>2026-04-03T13:20:10.179Z</time></trkpt><trkpt lat="44.6609619" lon="8.9164733"><ele>265.6666666666667</ele><time>2026-04-03T13:20:11.105Z</time></trkpt><trkpt lat="44.6608887" lon="8.91669"><ele>266.0</ele><time>2026-04-03T13:20:12.102Z</time></trkpt><trkpt lat="44.6608066" lon="8.9168885"><ele>266.0</ele><time>2026-04-03T13:20:13.19Z</time></trkpt><trkpt lat="44.66073" lon="8.9170794"><ele>266.0</ele><time>2026-04-03T13:20:14.16Z</time></trkpt><trkpt lat="44.6606538" lon="8.9172634"><ele>266.0</ele><time>2026-04-03T13:20:15.198Z</time></trkpt><trkpt lat="44.6605742" lon="8.9174312"><ele>266.0</ele><time>2026-04-03T13:20:16.113Z</time></trkpt><trkpt lat="44.6604611" lon="8.9175574"><ele>266.0</ele><time>2026-04-03T13:20:17.111Z</time></trkpt><trkpt lat="44.6602898" lon="8.9176618"><ele>266.0</ele><time>2026-04-03T13:20:18.188Z</time></trkpt><trkpt lat="44.6601255" lon="8.9178076"><ele>268.33333333333337</ele><time>2026-04-03T13:20:19.165Z</time></trkpt><trkpt lat="44.6599819" lon="8.917931"><ele>270.6666666666667</ele><time>2026-04-03T13:20:20.193Z</time></trkpt><trkpt lat="44.6598344" lon="8.918071"><ele>273.0</ele><time>2026-04-03T13:20:21.106Z</time></trkpt><trkpt lat="44.6596937" lon="8.9181927"><ele>273.0</ele><time>2026-04-03T13:20:22.111Z</time></trkpt><trkpt lat="44.659556" lon="8.9183404"><ele>273.0</ele><time>2026-04-03T13:20:23.161Z</time></trkpt><trkpt lat="44.6594164" lon="8.9184836"><ele>273.0</ele><time>2026-04-03T13:20:24.135Z</time></trkpt><trkpt lat="44.658684" lon="8.9193204"><ele>274.3333333333333</ele><time>2026-04-03T13:20:29.146Z</time></trkpt><trkpt lat="44.6585567" lon="8.9195092"><ele>275.66666666666663</ele><time>2026-04-03T13:20:30.1Z</time></trkpt><trkpt lat="44.6584431" lon="8.9196328"><ele>277.0</ele><time>2026-04-03T13:20:31.105Z</time></trkpt><trkpt lat="44.6583311" lon="8.9197715"><ele>277.0</ele><time>2026-04-03T13:20:32.113Z</time></trkpt><trkpt lat="44.6582375" lon="8.9199054"><ele>277.0</ele><time>2026-04-03T13:20:33.121Z</time></trkpt><trkpt lat="44.6581525" lon="8.9200357"><ele>277.0</ele><time>2026-04-03T13:20:34.138Z</time></trkpt><trkpt lat="44.6580474" lon="8.9201513"><ele>277.0</ele><time>2026-04-03T13:20:35.144Z</time></trkpt><trkpt lat="44.6580173" lon="8.9202786"><ele>274.5</ele><time>2026-04-03T13:20:36.171Z</time></trkpt><trkpt lat="44.6579938" lon="8.9204629"><ele>272.0</ele><time>2026-04-03T13:20:37.105Z</time></trkpt><trkpt lat="44.6579743" lon="8.9206836"><ele>269.5</ele><time>2026-04-03T13:20:38.111Z</time></trkpt><trkpt lat="44.6579564" lon="8.9208885"><ele>267.0</ele><time>2026-04-03T13:20:39.107Z</time></trkpt><trkpt lat="44.6579335" lon="8.9212757"><ele>267.0</ele><time>2026-04-03T13:20:41.166Z</time></trkpt><trkpt lat="44.6579195" lon="8.9214631"><ele>267.0</ele><time>2026-04-03T13:20:42.107Z</time></trkpt><trkpt lat="44.6579012" lon="8.9216512"><ele>267.0</ele><time>2026-04-03T13:20:43.11Z</time></trkpt><trkpt lat="44.6578857" lon="8.9218459"><ele>267.0</ele><time>2026-04-03T13:20:44.176Z</time></trkpt><trkpt lat="44.6578867" lon="8.9220586"><ele>268.0</ele><time>2026-04-03T13:20:45.179Z</time></trkpt><trkpt lat="44.6578829" lon="8.9222558"><ele>269.0</ele><time>2026-04-03T13:20:46.156Z</time></trkpt><trkpt lat="44.6578771" lon="8.9224567"><ele>270.0</ele><time>2026-04-03T13:20:47.108Z</time></trkpt><trkpt lat="44.6578755" lon="8.9226539"><ele>271.0</ele><time>2026-04-03T13:20:48.113Z</time></trkpt><trkpt lat="44.6578681" lon="8.9228516"><ele>271.0</ele><time>2026-04-03T13:20:49.108Z</time></trkpt><trkpt lat="44.6578632" lon="8.9230656"><ele>271.0</ele><time>2026-04-03T13:20:50.18Z</time></trkpt><trkpt lat="44.6578593" lon="8.9232875"><ele>271.0</ele><time>2026-04-03T13:20:51.173Z</time></trkpt><trkpt lat="44.6578593" lon="8.9234757"><ele>271.0</ele><time>2026-04-03T13:20:52.109Z</time></trkpt><trkpt lat="44.6578784" lon="8.9236883"><ele>271.3333333333333</ele><time>2026-04-03T13:20:53.114Z</time></trkpt><trkpt lat="44.6578957" lon="8.9239083"><ele>271.6666666666667</ele><time>2026-04-03T13:20:54.171Z</time></trkpt><trkpt lat="44.6579249" lon="8.9241279"><ele>272.0</ele><time>2026-04-03T13:20:55.161Z</time></trkpt><trkpt lat="44.6579548" lon="8.9243408"><ele>272.0</ele><time>2026-04-03T13:20:56.175Z</time></trkpt><trkpt lat="44.657995" lon="8.9245595"><ele>272.0</ele><time>2026-04-03T13:20:57.117Z</time></trkpt><trkpt lat="44.6580354" lon="8.924777"><ele>272.0</ele><time>2026-04-03T13:20:58.107Z</time></trkpt><trkpt lat="44.6580817" lon="8.9250104"><ele>274.33333333333337</ele><time>2026-04-03T13:20:59.1Z</time></trkpt><trkpt lat="44.6581151" lon="8.9252488"><ele>276.6666666666667</ele><time>2026-04-03T13:21:00.114Z</time></trkpt><trkpt lat="44.6581561" lon="8.9254895"><ele>279.0</ele><time>2026-04-03T13:21:01.156Z</time></trkpt><trkpt lat="44.6582402" lon="8.9259703"><ele>280.6666666666667</ele><time>2026-04-03T13:21:03.109Z</time></trkpt><trkpt lat="44.6582874" lon="8.9262106"><ele>282.33333333333337</ele><time>2026-04-03T13:21:04.109Z</time></trkpt><trkpt lat="44.6583262" lon="8.9264564"><ele>284.0</ele><time>2026-04-03T13:21:05.123Z</time></trkpt><trkpt lat="44.6583666" lon="8.926707"><ele>286.33333333333337</ele><time>2026-04-03T13:21:06.154Z</time></trkpt><trkpt lat="44.6584103" lon="8.9269335"><ele>288.6666666666667</ele><time>2026-04-03T13:21:07.112Z</time></trkpt><trkpt lat="44.6584405" lon="8.9271602"><ele>291.0</ele><time>2026-04-03T13:21:08.113Z</time></trkpt><trkpt lat="44.6584768" lon="8.927384"><ele>294.3333333333333</ele><time>2026-04-03T13:21:09.158Z</time></trkpt><trkpt lat="44.6585128" lon="8.9276046"><ele>297.66666666666663</ele><time>2026-04-03T13:21:10.156Z</time></trkpt><trkpt lat="44.6585677" lon="8.9278049"><ele>301.0</ele><time>2026-04-03T13:21:11.169Z</time></trkpt><trkpt lat="44.6586485" lon="8.9279954"><ele>297.0</ele><time>2026-04-03T13:21:12.102Z</time></trkpt><trkpt lat="44.6587267" lon="8.9281916"><ele>293.0</ele><time>2026-04-03T13:21:13.112Z</time></trkpt><trkpt lat="44.6588277" lon="8.928375"><ele>289.0</ele><time>2026-04-03T13:21:14.155Z</time></trkpt><trkpt lat="44.6589282" lon="8.9285684"><ele>289.0</ele><time>2026-04-03T13:21:15.112Z</time></trkpt><trkpt lat="44.6590331" lon="8.9287456"><ele>289.0</ele><time>2026-04-03T13:21:16.161Z</time></trkpt><trkpt lat="44.6591616" lon="8.9288953"><ele>289.0</ele><time>2026-04-03T13:21:17.11Z</time></trkpt><trkpt lat="44.6593021" lon="8.9290125"><ele>290.3333333333333</ele><time>2026-04-03T13:21:18.107Z</time></trkpt><trkpt lat="44.6594698" lon="8.9291146"><ele>291.6666666666667</ele><time>2026-04-03T13:21:19.163Z</time></trkpt><trkpt lat="44.6596342" lon="8.9292032"><ele>293.0</ele><time>2026-04-03T13:21:20.185Z</time></trkpt><trkpt lat="44.6598005" lon="8.9292887"><ele>293.0</ele><time>2026-04-03T13:21:21.185Z</time></trkpt><trkpt lat="44.6599684" lon="8.9293615"><ele>293.0</ele><time>2026-04-03T13:21:22.109Z</time></trkpt><trkpt lat="44.6601404" lon="8.9294557"><ele>293.0</ele><time>2026-04-03T13:21:23.107Z</time></trkpt><trkpt lat="44.66031" lon="8.9295664"><ele>289.0</ele><time>2026-04-03T13:21:24.144Z</time></trkpt><trkpt lat="44.6604645" lon="8.9296686"><ele>285.0</ele><time>2026-04-03T13:21:25.107Z</time></trkpt><trkpt lat="44.6606406" lon="8.9297705"><ele>281.0</ele><time>2026-04-03T13:21:26.152Z</time></trkpt><trkpt lat="44.660815" lon="8.9298853"><ele>281.0</ele><time>2026-04-03T13:21:27.106Z</time></trkpt><trkpt lat="44.6609915" lon="8.9299857"><ele>281.0</ele><time>2026-04-03T13:21:28.112Z</time></trkpt><trkpt lat="44.6611686" lon="8.9300983"><ele>281.0</ele><time>2026-04-03T13:21:29.195Z</time></trkpt><trkpt lat="44.6613415" lon="8.9302139"><ele>284.33333333333337</ele><time>2026-04-03T13:21:30.145Z</time></trkpt><trkpt lat="44.6615214" lon="8.9303261"><ele>287.6666666666667</ele><time>2026-04-03T13:21:31.134Z</time></trkpt><trkpt lat="44.6616944" lon="8.9304332"><ele>291.0</ele><time>2026-04-03T13:21:32.107Z</time></trkpt><trkpt lat="44.6618798" lon="8.9305268"><ele>289.0</ele><time>2026-04-03T13:21:33.105Z</time></trkpt><trkpt lat="44.6620683" lon="8.9305902"><ele>287.0</ele><time>2026-04-03T13:21:34.114Z</time></trkpt><trkpt lat="44.6622588" lon="8.9306405"><ele>285.0</ele><time>2026-04-03T13:21:35.106Z</time></trkpt><trkpt lat="44.6624467" lon="8.9306747"><ele>285.0</ele><time>2026-04-03T13:21:36.109Z</time></trkpt><trkpt lat="44.6626298" lon="8.9306988"><ele>285.0</ele><time>2026-04-03T13:21:37.11Z</time></trkpt><trkpt lat="44.6628079" lon="8.9306996"><ele>285.0</ele><time>2026-04-03T13:21:38.11Z</time></trkpt><trkpt lat="44.66297" lon="8.9307123"><ele>285.0</ele><time>2026-04-03T13:21:39.152Z</time></trkpt><trkpt lat="44.6631322" lon="8.9307248"><ele>285.0</ele><time>2026-04-03T13:21:40.161Z</time></trkpt><trkpt lat="44.6632823" lon="8.9307372"><ele>285.0</ele><time>2026-04-03T13:21:41.173Z</time></trkpt><trkpt lat="44.6634239" lon="8.9307551"><ele>285.0</ele><time>2026-04-03T13:21:42.107Z</time></trkpt><trkpt lat="44.6635639" lon="8.9307637"><ele>285.0</ele><time>2026-04-03T13:21:43.115Z</time></trkpt><trkpt lat="44.6636873" lon="8.9307679"><ele>285.0</ele><time>2026-04-03T13:21:44.101Z</time></trkpt><trkpt lat="44.6638049" lon="8.9307937"><ele>285.0</ele><time>2026-04-03T13:21:45.177Z</time></trkpt><trkpt lat="44.6639106" lon="8.9308473"><ele>284.25</ele><time>2026-04-03T13:21:46.144Z</time></trkpt><trkpt lat="44.6639955" lon="8.9309406"><ele>283.5</ele><time>2026-04-03T13:21:47.107Z</time></trkpt><trkpt lat="44.6640384" lon="8.9311151"><ele>282.75</ele><time>2026-04-03T13:21:48.105Z</time></trkpt><trkpt lat="44.6640878" lon="8.9312787"><ele>282.0</ele><time>2026-04-03T13:21:49.16Z</time></trkpt><trkpt lat="44.6640891" lon="8.9314842"><ele>282.0</ele><time>2026-04-03T13:21:50.186Z</time></trkpt><trkpt lat="44.6640925" lon="8.9316832"><ele>282.0</ele><time>2026-04-03T13:21:51.154Z</time></trkpt><trkpt lat="44.664106" lon="8.9318693"><ele>282.0</ele><time>2026-04-03T13:21:52.109Z</time></trkpt><trkpt lat="44.6641177" lon="8.9320491"><ele>282.0</ele><time>2026-04-03T13:21:53.11Z</time></trkpt><trkpt lat="44.6641104" lon="8.9322175"><ele>282.25</ele><time>2026-04-03T13:21:54.145Z</time></trkpt><trkpt lat="44.664078" lon="8.9323988"><ele>282.5</ele><time>2026-04-03T13:21:55.182Z</time></trkpt><trkpt lat="44.6640214" lon="8.9325536"><ele>282.75</ele><time>2026-04-03T13:21:56.152Z</time></trkpt><trkpt lat="44.6639414" lon="8.9326513"><ele>283.0</ele><time>2026-04-03T13:21:57.109Z</time></trkpt><trkpt lat="44.6638737" lon="8.9328369"><ele>281.75</ele><time>2026-04-03T13:21:58.115Z</time></trkpt><trkpt lat="44.6638263" lon="8.9329742"><ele>280.5</ele><time>2026-04-03T13:21:59.16Z</time></trkpt><trkpt lat="44.6638579" lon="8.9332101"><ele>279.25</ele><time>2026-04-03T13:22:00.157Z</time></trkpt><trkpt lat="44.6638674" lon="8.9334159"><ele>278.0</ele><time>2026-04-03T13:22:01.115Z</time></trkpt><trkpt lat="44.6638862" lon="8.9336254"><ele>278.0</ele><time>2026-04-03T13:22:02.108Z</time></trkpt><trkpt lat="44.6639347" lon="8.9338051"><ele>278.0</ele><time>2026-04-03T13:22:03.107Z</time></trkpt><trkpt lat="44.6639823" lon="8.9339665"><ele>278.0</ele><time>2026-04-03T13:22:04.187Z</time></trkpt><trkpt lat="44.6640383" lon="8.9341196"><ele>278.0</ele><time>2026-04-03T13:22:05.179Z</time></trkpt><trkpt lat="44.664074" lon="8.9343192"><ele>276.6666666666667</ele><time>2026-04-03T13:22:06.194Z</time></trkpt><trkpt lat="44.6641037" lon="8.934517"><ele>275.3333333333333</ele><time>2026-04-03T13:22:07.111Z</time></trkpt><trkpt lat="44.6639948" lon="8.934732"><ele>274.0</ele><time>2026-04-03T13:22:08.109Z</time></trkpt><trkpt lat="44.6639885" lon="8.9349452"><ele>273.0</ele><time>2026-04-03T13:22:09.16Z</time></trkpt><trkpt lat="44.6639345" lon="8.9351787"><ele>272.0</ele><time>2026-04-03T13:22:10.148Z</time></trkpt><trkpt lat="44.6639151" lon="8.9354092"><ele>271.0</ele><time>2026-04-03T13:22:11.185Z</time></trkpt><trkpt lat="44.6639058" lon="8.9356458"><ele>271.0</ele><time>2026-04-03T13:22:12.102Z</time></trkpt><trkpt lat="44.6638736" lon="8.9358686"><ele>271.0</ele><time>2026-04-03T13:22:13.106Z</time></trkpt><trkpt lat="44.6638111" lon="8.9363518"><ele>270.66666666666663</ele><time>2026-04-03T13:22:15.184Z</time></trkpt><trkpt lat="44.6637912" lon="8.9365963"><ele>270.3333333333333</ele><time>2026-04-03T13:22:16.108Z</time></trkpt><trkpt lat="44.663736" lon="8.9368448"><ele>270.0</ele><time>2026-04-03T13:22:17.111Z</time></trkpt><trkpt lat="44.6636714" lon="8.9370665"><ele>269.0</ele><time>2026-04-03T13:22:18.111Z</time></trkpt><trkpt lat="44.6636343" lon="8.9372999"><ele>268.0</ele><time>2026-04-03T13:22:19.16Z</time></trkpt><trkpt lat="44.663557" lon="8.9375233"><ele>267.0</ele><time>2026-04-03T13:22:20.15Z</time></trkpt><trkpt lat="44.6634609" lon="8.9377459"><ele>270.3333333333333</ele><time>2026-04-03T13:22:21.141Z</time></trkpt><trkpt lat="44.6633775" lon="8.9379701"><ele>273.66666666666663</ele><time>2026-04-03T13:22:22.114Z</time></trkpt><trkpt lat="44.663301" lon="8.9381834"><ele>277.0</ele><time>2026-04-03T13:22:23.116Z</time></trkpt><trkpt lat="44.663213" lon="8.9383922"><ele>277.0</ele><time>2026-04-03T13:22:24.187Z</time></trkpt><trkpt lat="44.6631274" lon="8.9386082"><ele>277.0</ele><time>2026-04-03T13:22:25.157Z</time></trkpt><trkpt lat="44.6630634" lon="8.9388292"><ele>277.0</ele><time>2026-04-03T13:22:26.192Z</time></trkpt><trkpt lat="44.6630098" lon="8.9390549"><ele>275.3333333333333</ele><time>2026-04-03T13:22:27.114Z</time></trkpt><trkpt lat="44.6629597" lon="8.9392804"><ele>273.6666666666667</ele><time>2026-04-03T13:22:28.118Z</time></trkpt><trkpt lat="44.6629208" lon="8.9395231"><ele>272.0</ele><time>2026-04-03T13:22:29.139Z</time></trkpt><trkpt lat="44.662877" lon="8.9397591"><ele>272.0</ele><time>2026-04-03T13:22:30.199Z</time></trkpt><trkpt lat="44.6628335" lon="8.9399857"><ele>272.0</ele><time>2026-04-03T13:22:31.131Z</time></trkpt><trkpt lat="44.6627989" lon="8.9402251"><ele>272.0</ele><time>2026-04-03T13:22:32.105Z</time></trkpt><trkpt lat="44.6627377" lon="8.9404463"><ele>275.0</ele><time>2026-04-03T13:22:33.115Z</time></trkpt><trkpt lat="44.6626631" lon="8.9406761"><ele>278.0</ele><time>2026-04-03T13:22:34.139Z</time></trkpt><trkpt lat="44.6625724" lon="8.9408919"><ele>281.0</ele><time>2026-04-03T13:22:35.15Z</time></trkpt><trkpt lat="44.6624849" lon="8.9411039"><ele>281.0</ele><time>2026-04-03T13:22:36.173Z</time></trkpt><trkpt lat="44.6623956" lon="8.9413266"><ele>281.0</ele><time>2026-04-03T13:22:37.109Z</time></trkpt><trkpt lat="44.6623338" lon="8.941556"><ele>281.0</ele><time>2026-04-03T13:22:38.119Z</time></trkpt><trkpt lat="44.6622757" lon="8.9417836"><ele>278.6666666666667</ele><time>2026-04-03T13:22:39.143Z</time></trkpt><trkpt lat="44.6622237" lon="8.9420132"><ele>276.3333333333333</ele><time>2026-04-03T13:22:40.171Z</time></trkpt><trkpt lat="44.6621653" lon="8.9422546"><ele>274.0</ele><time>2026-04-03T13:22:41.115Z</time></trkpt><trkpt lat="44.662098" lon="8.9424848"><ele>273.66666666666663</ele><time>2026-04-03T13:22:42.107Z</time></trkpt><trkpt lat="44.6620484" lon="8.9427275"><ele>273.3333333333333</ele><time>2026-04-03T13:22:43.128Z</time></trkpt><trkpt lat="44.6619994" lon="8.9429673"><ele>273.0</ele><time>2026-04-03T13:22:44.153Z</time></trkpt><trkpt lat="44.6619475" lon="8.9432053"><ele>284.0</ele><time>2026-04-03T13:22:45.117Z</time></trkpt><trkpt lat="44.6619057" lon="8.9434438"><ele>295.0</ele><time>2026-04-03T13:22:46.121Z</time></trkpt><trkpt lat="44.6618158" lon="8.9439247"><ele>295.0</ele><time>2026-04-03T13:22:47.999Z</time></trkpt><trkpt lat="44.6617814" lon="8.9441804"><ele>295.0</ele><time>2026-04-03T13:22:49.105Z</time></trkpt><trkpt lat="44.6617198" lon="8.9444054"><ele>295.0</ele><time>2026-04-03T13:22:50.149Z</time></trkpt><trkpt lat="44.6616574" lon="8.9446386"><ele>292.0</ele><time>2026-04-03T13:22:51.106Z</time></trkpt><trkpt lat="44.6615777" lon="8.9448575"><ele>289.0</ele><time>2026-04-03T13:22:52.11Z</time></trkpt><trkpt lat="44.6615028" lon="8.9450829"><ele>286.0</ele><time>2026-04-03T13:22:53.101Z</time></trkpt><trkpt lat="44.6614064" lon="8.9453036"><ele>285.3333333333333</ele><time>2026-04-03T13:22:54.153Z</time></trkpt><trkpt lat="44.6613076" lon="8.94552"><ele>284.6666666666667</ele><time>2026-04-03T13:22:55.199Z</time></trkpt><trkpt lat="44.6612126" lon="8.9457262"><ele>284.0</ele><time>2026-04-03T13:22:56.187Z</time></trkpt><trkpt lat="44.6611168" lon="8.9459234"><ele>285.0</ele><time>2026-04-03T13:22:57.108Z</time></trkpt><trkpt lat="44.6610204" lon="8.9461258"><ele>286.0</ele><time>2026-04-03T13:22:58.107Z</time></trkpt><trkpt lat="44.6609207" lon="8.946318"><ele>287.0</ele><time>2026-04-03T13:22:59.146Z</time></trkpt><trkpt lat="44.6607868" lon="8.9464783"><ele>287.0</ele><time>2026-04-03T13:23:00.187Z</time></trkpt><trkpt lat="44.6606421" lon="8.9466184"><ele>287.0</ele><time>2026-04-03T13:23:01.162Z</time></trkpt><trkpt lat="44.6604894" lon="8.9467377"><ele>287.0</ele><time>2026-04-03T13:23:02.11Z</time></trkpt><trkpt lat="44.6603244" lon="8.9468544"><ele>285.0</ele><time>2026-04-03T13:23:03.11Z</time></trkpt><trkpt lat="44.6601725" lon="8.94698"><ele>283.0</ele><time>2026-04-03T13:23:04.19Z</time></trkpt><trkpt lat="44.6600165" lon="8.9470784"><ele>281.0</ele><time>2026-04-03T13:23:05.161Z</time></trkpt><trkpt lat="44.6598922" lon="8.9471079"><ele>281.0</ele><time>2026-04-03T13:23:06.199Z</time></trkpt><trkpt lat="44.6597638" lon="8.9471788"><ele>281.0</ele><time>2026-04-03T13:23:07.113Z</time></trkpt><trkpt lat="44.6596205" lon="8.9472143"><ele>281.0</ele><time>2026-04-03T13:23:08.105Z</time></trkpt><trkpt lat="44.6594786" lon="8.9470359"><ele>279.0</ele><time>2026-04-03T13:23:09.126Z</time></trkpt><trkpt lat="44.6593309" lon="8.9469531"><ele>277.0</ele><time>2026-04-03T13:23:10.166Z</time></trkpt><trkpt lat="44.6591872" lon="8.9468697"><ele>275.0</ele><time>2026-04-03T13:23:11.159Z</time></trkpt><trkpt lat="44.6590336" lon="8.9467974"><ele>275.0</ele><time>2026-04-03T13:23:12.115Z</time></trkpt><trkpt lat="44.6588995" lon="8.9467167"><ele>275.0</ele><time>2026-04-03T13:23:13.108Z</time></trkpt><trkpt lat="44.6587728" lon="8.9466238"><ele>275.0</ele><time>2026-04-03T13:23:14.165Z</time></trkpt><trkpt lat="44.658656" lon="8.9464888"><ele>275.0</ele><time>2026-04-03T13:23:15.109Z</time></trkpt><trkpt lat="44.6585495" lon="8.9463459"><ele>276.75</ele><time>2026-04-03T13:23:16.112Z</time></trkpt><trkpt lat="44.6584603" lon="8.9461946"><ele>278.5</ele><time>2026-04-03T13:23:17.11Z</time></trkpt><trkpt lat="44.6583729" lon="8.9460537"><ele>280.25</ele><time>2026-04-03T13:23:18.112Z</time></trkpt><trkpt lat="44.6582371" lon="8.9459438"><ele>282.0</ele><time>2026-04-03T13:23:19.153Z</time></trkpt><trkpt lat="44.6580969" lon="8.9459646"><ele>282.0</ele><time>2026-04-03T13:23:20.168Z</time></trkpt><trkpt lat="44.6579522" lon="8.9459467"><ele>282.0</ele><time>2026-04-03T13:23:21.178Z</time></trkpt><trkpt lat="44.6578064" lon="8.9459142"><ele>282.0</ele><time>2026-04-03T13:23:22.107Z</time></trkpt><trkpt lat="44.6576683" lon="8.9458846"><ele>282.0</ele><time>2026-04-03T13:23:23.107Z</time></trkpt><trkpt lat="44.6575078" lon="8.9458594"><ele>287.6666666666667</ele><time>2026-04-03T13:23:24.158Z</time></trkpt><trkpt lat="44.6573506" lon="8.9458348"><ele>293.33333333333337</ele><time>2026-04-03T13:23:25.172Z</time></trkpt><trkpt lat="44.6571471" lon="8.9458641"><ele>299.0</ele><time>2026-04-03T13:23:26.206Z</time></trkpt><trkpt lat="44.6569811" lon="8.9458649"><ele>297.0</ele><time>2026-04-03T13:23:27.115Z</time></trkpt><trkpt lat="44.6568065" lon="8.9458657"><ele>295.0</ele><time>2026-04-03T13:23:28.11Z</time></trkpt><trkpt lat="44.6566317" lon="8.9458554"><ele>293.0</ele><time>2026-04-03T13:23:29.163Z</time></trkpt><trkpt lat="44.6564664" lon="8.9458113"><ele>293.0</ele><time>2026-04-03T13:23:30.132Z</time></trkpt><trkpt lat="44.6562997" lon="8.9457699"><ele>293.0</ele><time>2026-04-03T13:23:31.16Z</time></trkpt><trkpt lat="44.6561127" lon="8.9457329"><ele>293.0</ele><time>2026-04-03T13:23:32.111Z</time></trkpt><trkpt lat="44.6559326" lon="8.9456995"><ele>290.5</ele><time>2026-04-03T13:23:33.108Z</time></trkpt><trkpt lat="44.6557795" lon="8.9456533"><ele>288.0</ele><time>2026-04-03T13:23:34.131Z</time></trkpt><trkpt lat="44.6556715" lon="8.945571"><ele>285.5</ele><time>2026-04-03T13:23:35.148Z</time></trkpt><trkpt lat="44.6555561" lon="8.9454619"><ele>283.0</ele><time>2026-04-03T13:23:36.171Z</time></trkpt><trkpt lat="44.6554031" lon="8.9453273"><ele>283.3333333333333</ele><time>2026-04-03T13:23:37.117Z</time></trkpt><trkpt lat="44.6552524" lon="8.9452498"><ele>283.6666666666667</ele><time>2026-04-03T13:23:38.107Z</time></trkpt><trkpt lat="44.6550851" lon="8.9452313"><ele>284.0</ele><time>2026-04-03T13:23:39.151Z</time></trkpt><trkpt lat="44.6549331" lon="8.945267"><ele>284.0</ele><time>2026-04-03T13:23:40.142Z</time></trkpt><trkpt lat="44.6547704" lon="8.9453249"><ele>284.0</ele><time>2026-04-03T13:23:41.16Z</time></trkpt><trkpt lat="44.6546062" lon="8.9453931"><ele>284.0</ele><time>2026-04-03T13:23:42.109Z</time></trkpt><trkpt lat="44.6544409" lon="8.9454719"><ele>286.33333333333337</ele><time>2026-04-03T13:23:43.109Z</time></trkpt><trkpt lat="44.6542767" lon="8.945558"><ele>288.6666666666667</ele><time>2026-04-03T13:23:44.16Z</time></trkpt><trkpt lat="44.6541177" lon="8.9456558"><ele>291.0</ele><time>2026-04-03T13:23:45.153Z</time></trkpt><trkpt lat="44.6539571" lon="8.9457673"><ele>291.0</ele><time>2026-04-03T13:23:46.156Z</time></trkpt><trkpt lat="44.653797" lon="8.9458744"><ele>291.0</ele><time>2026-04-03T13:23:47.103Z</time></trkpt><trkpt lat="44.6536348" lon="8.9459652"><ele>291.0</ele><time>2026-04-03T13:23:48.106Z</time></trkpt><trkpt lat="44.6534621" lon="8.9460384"><ele>289.0</ele><time>2026-04-03T13:23:49.11Z</time></trkpt><trkpt lat="44.6532879" lon="8.9460865"><ele>287.0</ele><time>2026-04-03T13:23:50.11Z</time></trkpt><trkpt lat="44.6531093" lon="8.9461241"><ele>285.0</ele><time>2026-04-03T13:23:51.107Z</time></trkpt><trkpt lat="44.6529351" lon="8.9461663"><ele>289.0</ele><time>2026-04-03T13:23:52.108Z</time></trkpt><trkpt lat="44.6527652" lon="8.9462099"><ele>293.0</ele><time>2026-04-03T13:23:53.109Z</time></trkpt><trkpt lat="44.6524316" lon="8.9463495"><ele>293.0</ele><time>2026-04-03T13:23:55.109Z</time></trkpt><trkpt lat="44.6522735" lon="8.9464328"><ele>293.0</ele><time>2026-04-03T13:23:56.105Z</time></trkpt><trkpt lat="44.6521113" lon="8.9465284"><ele>293.0</ele><time>2026-04-03T13:23:57.116Z</time></trkpt><trkpt lat="44.6519484" lon="8.9466363"><ele>291.0</ele><time>2026-04-03T13:23:58.206Z</time></trkpt><trkpt lat="44.6517896" lon="8.9467584"><ele>289.0</ele><time>2026-04-03T13:23:59.194Z</time></trkpt><trkpt lat="44.651638" lon="8.9468903"><ele>287.0</ele><time>2026-04-03T13:24:00.153Z</time></trkpt><trkpt lat="44.6514925" lon="8.9470364"><ele>287.0</ele><time>2026-04-03T13:24:01.185Z</time></trkpt><trkpt lat="44.6513478" lon="8.9471931"><ele>287.0</ele><time>2026-04-03T13:24:02.113Z</time></trkpt><trkpt lat="44.6512073" lon="8.9473728"><ele>287.0</ele><time>2026-04-03T13:24:03.111Z</time></trkpt><trkpt lat="44.6510632" lon="8.9475558"><ele>288.0</ele><time>2026-04-03T13:24:04.16Z</time></trkpt><trkpt lat="44.6509273" lon="8.9477515"><ele>289.0</ele><time>2026-04-03T13:24:05.127Z</time></trkpt><trkpt lat="44.6507863" lon="8.947962"><ele>290.0</ele><time>2026-04-03T13:24:06.199Z</time></trkpt><trkpt lat="44.6506517" lon="8.9481632"><ele>290.0</ele><time>2026-04-03T13:24:07.111Z</time></trkpt><trkpt lat="44.6505252" lon="8.9483586"><ele>290.0</ele><time>2026-04-03T13:24:08.113Z</time></trkpt><trkpt lat="44.6504145" lon="8.9485466"><ele>290.0</ele><time>2026-04-03T13:24:09.19Z</time></trkpt><trkpt lat="44.6503142" lon="8.9487446"><ele>292.0</ele><time>2026-04-03T13:24:10.201Z</time></trkpt><trkpt lat="44.65022" lon="8.9489357"><ele>294.0</ele><time>2026-04-03T13:24:11.189Z</time></trkpt><trkpt lat="44.6501673" lon="8.9491529"><ele>296.0</ele><time>2026-04-03T13:24:12.116Z</time></trkpt><trkpt lat="44.6501177" lon="8.9493701"><ele>296.0</ele><time>2026-04-03T13:24:13.106Z</time></trkpt><trkpt lat="44.6500741" lon="8.949599"><ele>296.0</ele><time>2026-04-03T13:24:14.159Z</time></trkpt><trkpt lat="44.649994" lon="8.9500747"><ele>295.33333333333337</ele><time>2026-04-03T13:24:16.17Z</time></trkpt><trkpt lat="44.649958" lon="8.9503079"><ele>294.6666666666667</ele><time>2026-04-03T13:24:17.108Z</time></trkpt><trkpt lat="44.649922" lon="8.9505182"><ele>294.0</ele><time>2026-04-03T13:24:18.115Z</time></trkpt><trkpt lat="44.6498885" lon="8.9507288"><ele>294.25</ele><time>2026-04-03T13:24:19.126Z</time></trkpt><trkpt lat="44.6498578" lon="8.9509294"><ele>294.5</ele><time>2026-04-03T13:24:20.165Z</time></trkpt><trkpt lat="44.6498391" lon="8.9510988"><ele>294.75</ele><time>2026-04-03T13:24:21.159Z</time></trkpt><trkpt lat="44.6498067" lon="8.9512806"><ele>295.0</ele><time>2026-04-03T13:24:22.108Z</time></trkpt><trkpt lat="44.6497782" lon="8.9514499"><ele>294.0</ele><time>2026-04-03T13:24:23.109Z</time></trkpt><trkpt lat="44.649725" lon="8.9517914"><ele>293.0</ele><time>2026-04-03T13:24:25Z</time></trkpt><trkpt lat="44.6496944" lon="8.9519546"><ele>292.0</ele><time>2026-04-03T13:24:25.999Z</time></trkpt><trkpt lat="44.6496777" lon="8.9521016"><ele>292.0</ele><time>2026-04-03T13:24:26.999Z</time></trkpt><trkpt lat="44.6496539" lon="8.9522593"><ele>292.0</ele><time>2026-04-03T13:24:28.105Z</time></trkpt><trkpt lat="44.649635" lon="8.9524136"><ele>292.0</ele><time>2026-04-03T13:24:29.143Z</time></trkpt><trkpt lat="44.6496166" lon="8.952571"><ele>292.0</ele><time>2026-04-03T13:24:30.101Z</time></trkpt><trkpt lat="44.6495865" lon="8.9527303"><ele>291.0</ele><time>2026-04-03T13:24:31.11Z</time></trkpt><trkpt lat="44.6495589" lon="8.9528954"><ele>290.0</ele><time>2026-04-03T13:24:32.107Z</time></trkpt><trkpt lat="44.6495347" lon="8.9530605"><ele>289.0</ele><time>2026-04-03T13:24:33.104Z</time></trkpt><trkpt lat="44.6495088" lon="8.9532291"><ele>288.0</ele><time>2026-04-03T13:24:34.109Z</time></trkpt><trkpt lat="44.649483" lon="8.9534052"><ele>287.5</ele><time>2026-04-03T13:24:35.131Z</time></trkpt><trkpt lat="44.6494591" lon="8.9535784"><ele>287.0</ele><time>2026-04-03T13:24:36.107Z</time></trkpt><trkpt lat="44.6494276" lon="8.9537487"><ele>286.5</ele><time>2026-04-03T13:24:37.104Z</time></trkpt><trkpt lat="44.6493904" lon="8.9539225"><ele>286.0</ele><time>2026-04-03T13:24:38.106Z</time></trkpt><trkpt lat="44.6493554" lon="8.9541011"><ele>292.3333333333333</ele><time>2026-04-03T13:24:39.107Z</time></trkpt><trkpt lat="44.6493298" lon="8.9542843"><ele>298.6666666666667</ele><time>2026-04-03T13:24:40.112Z</time></trkpt><trkpt lat="44.6492973" lon="8.9544566"><ele>305.0</ele><time>2026-04-03T13:24:41.104Z</time></trkpt><trkpt lat="44.6492102" lon="8.9548023"><ele>305.0</ele><time>2026-04-03T13:24:43.118Z</time></trkpt><trkpt lat="44.6491723" lon="8.9549738"><ele>305.0</ele><time>2026-04-03T13:24:44.108Z</time></trkpt><trkpt lat="44.6491359" lon="8.9551544"><ele>305.0</ele><time>2026-04-03T13:24:45.107Z</time></trkpt><trkpt lat="44.649081" lon="8.9553195"><ele>305.0</ele><time>2026-04-03T13:24:46.112Z</time></trkpt><trkpt lat="44.6490165" lon="8.9554925"><ele>302.5</ele><time>2026-04-03T13:24:47.105Z</time></trkpt><trkpt lat="44.6489575" lon="8.9556531"><ele>300.0</ele><time>2026-04-03T13:24:48.112Z</time></trkpt><trkpt lat="44.6488998" lon="8.9557805"><ele>297.5</ele><time>2026-04-03T13:24:49.108Z</time></trkpt><trkpt lat="44.6488169" lon="8.9558907"><ele>295.0</ele><time>2026-04-03T13:24:50.109Z</time></trkpt><trkpt lat="44.648755" lon="8.9560242"><ele>294.2</ele><time>2026-04-03T13:24:51.108Z</time></trkpt><trkpt lat="44.648668" lon="8.9561404"><ele>293.4</ele><time>2026-04-03T13:24:52.106Z</time></trkpt><trkpt lat="44.648566" lon="8.9562015"><ele>292.6</ele><time>2026-04-03T13:24:53.109Z</time></trkpt><trkpt lat="44.6484542" lon="8.9562753"><ele>291.8</ele><time>2026-04-03T13:24:54.111Z</time></trkpt><trkpt lat="44.6483708" lon="8.9562981"><ele>291.0</ele><time>2026-04-03T13:24:55.103Z</time></trkpt><trkpt lat="44.6482036" lon="8.9563309"><ele>295.0</ele><time>2026-04-03T13:24:56.108Z</time></trkpt><trkpt lat="44.6480529" lon="8.9563669"><ele>299.0</ele><time>2026-04-03T13:24:57.108Z</time></trkpt><trkpt lat="44.6477553" lon="8.9564645"><ele>299.5</ele><time>2026-04-03T13:24:58.999Z</time></trkpt><trkpt lat="44.6476303" lon="8.9564969"><ele>300.0</ele><time>2026-04-03T13:24:59.999Z</time></trkpt><trkpt lat="44.6474877" lon="8.9565816"><ele>300.5</ele><time>2026-04-03T13:25:00.999Z</time></trkpt><trkpt lat="44.6473811" lon="8.956614"><ele>301.0</ele><time>2026-04-03T13:25:01.999Z</time></trkpt><trkpt lat="44.6472785" lon="8.9566427"><ele>301.0</ele><time>2026-04-03T13:25:02.999Z</time></trkpt><trkpt lat="44.6471829" lon="8.9566605"><ele>301.0</ele><time>2026-04-03T13:25:03.999Z</time></trkpt><trkpt lat="44.647047" lon="8.9567284"><ele>301.0</ele><time>2026-04-03T13:25:05.109Z</time></trkpt><trkpt lat="44.6468514" lon="8.956762"><ele>301.0</ele><time>2026-04-03T13:25:07.107Z</time></trkpt><trkpt lat="44.6467757" lon="8.9567348"><ele>301.2</ele><time>2026-04-03T13:25:08.105Z</time></trkpt><trkpt lat="44.6466855" lon="8.9567368"><ele>301.40000000000003</ele><time>2026-04-03T13:25:09.111Z</time></trkpt><trkpt lat="44.6465783" lon="8.9567243"><ele>301.6</ele><time>2026-04-03T13:25:10.104Z</time></trkpt><trkpt lat="44.6464291" lon="8.9567462"><ele>301.8</ele><time>2026-04-03T13:25:11.11Z</time></trkpt><trkpt lat="44.6463341" lon="8.9567004"><ele>302.0</ele><time>2026-04-03T13:25:12.11Z</time></trkpt><trkpt lat="44.6462299" lon="8.9566517"><ele>301.8</ele><time>2026-04-03T13:25:13.106Z</time></trkpt><trkpt lat="44.6461104" lon="8.9565906"><ele>301.6</ele><time>2026-04-03T13:25:14.109Z</time></trkpt><trkpt lat="44.6460234" lon="8.9565059"><ele>301.40000000000003</ele><time>2026-04-03T13:25:15.101Z</time></trkpt><trkpt lat="44.6459259" lon="8.95641"><ele>301.2</ele><time>2026-04-03T13:25:16.11Z</time></trkpt><trkpt lat="44.6458692" lon="8.956364"><ele>301.0</ele><time>2026-04-03T13:25:17.108Z</time></trkpt><trkpt lat="44.6457954" lon="8.9562968"><ele>301.0</ele><time>2026-04-03T13:25:18.109Z</time></trkpt><trkpt lat="44.6457247" lon="8.9562189"><ele>301.0</ele><time>2026-04-03T13:25:19.11Z</time></trkpt><trkpt lat="44.6456217" lon="8.9561726"><ele>301.0</ele><time>2026-04-03T13:25:20.113Z</time></trkpt><trkpt lat="44.6454992" lon="8.9561349"><ele>301.0</ele><time>2026-04-03T13:25:21.155Z</time></trkpt><trkpt lat="44.645386" lon="8.9561146"><ele>301.0</ele><time>2026-04-03T13:25:22.114Z</time></trkpt><trkpt lat="44.6453049" lon="8.956081"><ele>300.6</ele><time>2026-04-03T13:25:23.109Z</time></trkpt><trkpt lat="44.6452147" lon="8.9560808"><ele>300.20000000000005</ele><time>2026-04-03T13:25:24.135Z</time></trkpt><trkpt lat="44.6451351" lon="8.9559983"><ele>299.79999999999995</ele><time>2026-04-03T13:25:25.169Z</time></trkpt><trkpt lat="44.6450312" lon="8.9559121"><ele>299.4</ele><time>2026-04-03T13:25:26.144Z</time></trkpt><trkpt lat="44.6449359" lon="8.9558314"><ele>299.0</ele><time>2026-04-03T13:25:27.112Z</time></trkpt><trkpt lat="44.644776" lon="8.9558007"><ele>300.25</ele><time>2026-04-03T13:25:28.128Z</time></trkpt><trkpt lat="44.6446479" lon="8.9557319"><ele>301.5</ele><time>2026-04-03T13:25:29.138Z</time></trkpt><trkpt lat="44.6445632" lon="8.9556826"><ele>302.75</ele><time>2026-04-03T13:25:30.109Z</time></trkpt><trkpt lat="44.6444371" lon="8.9555788"><ele>304.0</ele><time>2026-04-03T13:25:31.107Z</time></trkpt><trkpt lat="44.6443309" lon="8.9554667"><ele>304.0</ele><time>2026-04-03T13:25:32.108Z</time></trkpt><trkpt lat="44.6442412" lon="8.9553886"><ele>304.0</ele><time>2026-04-03T13:25:33.145Z</time></trkpt><trkpt lat="44.6441229" lon="8.9553354"><ele>304.0</ele><time>2026-04-03T13:25:34.116Z</time></trkpt><trkpt lat="44.6440288" lon="8.9552552"><ele>304.0</ele><time>2026-04-03T13:25:35.115Z</time></trkpt><trkpt lat="44.643933" lon="8.9551887"><ele>304.0</ele><time>2026-04-03T13:25:36.173Z</time></trkpt><trkpt lat="44.6438398" lon="8.9551275"><ele>304.8</ele><time>2026-04-03T13:25:37.112Z</time></trkpt><trkpt lat="44.643761" lon="8.9550222"><ele>305.59999999999997</ele><time>2026-04-03T13:25:38.109Z</time></trkpt><trkpt lat="44.6436769" lon="8.9549408"><ele>306.4</ele><time>2026-04-03T13:25:39.147Z</time></trkpt><trkpt lat="44.6435876" lon="8.9548637"><ele>307.2</ele><time>2026-04-03T13:25:40.133Z</time></trkpt><trkpt lat="44.6434814" lon="8.9548328"><ele>308.0</ele><time>2026-04-03T13:25:41.148Z</time></trkpt><trkpt lat="44.6433025" lon="8.9548914"><ele>308.0</ele><time>2026-04-03T13:25:42.113Z</time></trkpt><trkpt lat="44.6432046" lon="8.9548141"><ele>308.0</ele><time>2026-04-03T13:25:43.115Z</time></trkpt><trkpt lat="44.6430998" lon="8.9547123"><ele>308.0</ele><time>2026-04-03T13:25:44.149Z</time></trkpt><trkpt lat="44.6430351" lon="8.9546306"><ele>308.0</ele><time>2026-04-03T13:25:45.15Z</time></trkpt><trkpt lat="44.6429542" lon="8.9545103"><ele>308.0</ele><time>2026-04-03T13:25:46.157Z</time></trkpt><trkpt lat="44.6428617" lon="8.9543872"><ele>308.75</ele><time>2026-04-03T13:25:47.109Z</time></trkpt><trkpt lat="44.6427347" lon="8.9543117"><ele>309.5</ele><time>2026-04-03T13:25:48.105Z</time></trkpt><trkpt lat="44.6426518" lon="8.9541755"><ele>310.25</ele><time>2026-04-03T13:25:49.155Z</time></trkpt><trkpt lat="44.6425195" lon="8.9540901"><ele>311.0</ele><time>2026-04-03T13:25:50.166Z</time></trkpt><trkpt lat="44.642414" lon="8.9539376"><ele>311.0</ele><time>2026-04-03T13:25:51.191Z</time></trkpt><trkpt lat="44.6423199" lon="8.9537573"><ele>311.0</ele><time>2026-04-03T13:25:52.107Z</time></trkpt><trkpt lat="44.6422311" lon="8.9535911"><ele>311.0</ele><time>2026-04-03T13:25:53.105Z</time></trkpt><trkpt lat="44.6421395" lon="8.953443"><ele>311.0</ele><time>2026-04-03T13:25:54.16Z</time></trkpt><trkpt lat="44.6420466" lon="8.9533156"><ele>311.5</ele><time>2026-04-03T13:25:55.191Z</time></trkpt><trkpt lat="44.641985" lon="8.9531612"><ele>312.0</ele><time>2026-04-03T13:25:56.182Z</time></trkpt><trkpt lat="44.6419171" lon="8.9530153"><ele>312.5</ele><time>2026-04-03T13:25:57.111Z</time></trkpt><trkpt lat="44.641837" lon="8.9528641"><ele>313.0</ele><time>2026-04-03T13:25:58.107Z</time></trkpt><trkpt lat="44.6417541" lon="8.9527712"><ele>313.0</ele><time>2026-04-03T13:25:59.17Z</time></trkpt><trkpt lat="44.6416539" lon="8.9527017"><ele>313.0</ele><time>2026-04-03T13:26:00.178Z</time></trkpt><trkpt lat="44.6415108" lon="8.9526654"><ele>313.0</ele><time>2026-04-03T13:26:01.158Z</time></trkpt><trkpt lat="44.6413242" lon="8.9526548"><ele>313.0</ele><time>2026-04-03T13:26:02.109Z</time></trkpt><trkpt lat="44.6411623" lon="8.9526027"><ele>314.66666666666663</ele><time>2026-04-03T13:26:03.103Z</time></trkpt><trkpt lat="44.6409791" lon="8.9525615"><ele>316.3333333333333</ele><time>2026-04-03T13:26:04.113Z</time></trkpt><trkpt lat="44.6408065" lon="8.9525344"><ele>318.0</ele><time>2026-04-03T13:26:05.105Z</time></trkpt><trkpt lat="44.6406318" lon="8.9524881"><ele>318.0</ele><time>2026-04-03T13:26:06.104Z</time></trkpt><trkpt lat="44.6404525" lon="8.9524666"><ele>318.0</ele><time>2026-04-03T13:26:07.139Z</time></trkpt><trkpt lat="44.6402731" lon="8.9524318"><ele>318.0</ele><time>2026-04-03T13:26:08.11Z</time></trkpt><trkpt lat="44.6400868" lon="8.9524059"><ele>313.3333333333333</ele><time>2026-04-03T13:26:09.158Z</time></trkpt><trkpt lat="44.6399192" lon="8.9523811"><ele>308.66666666666663</ele><time>2026-04-03T13:26:10.179Z</time></trkpt><trkpt lat="44.6397618" lon="8.9523579"><ele>304.0</ele><time>2026-04-03T13:26:11.105Z</time></trkpt><trkpt lat="44.6396047" lon="8.9523397"><ele>303.66666666666663</ele><time>2026-04-03T13:26:12.11Z</time></trkpt><trkpt lat="44.6394451" lon="8.9523248"><ele>303.3333333333333</ele><time>2026-04-03T13:26:13.107Z</time></trkpt><trkpt lat="44.6392849" lon="8.9522644"><ele>303.0</ele><time>2026-04-03T13:26:14.193Z</time></trkpt><trkpt lat="44.6391277" lon="8.952224"><ele>303.0</ele><time>2026-04-03T13:26:15.19Z</time></trkpt><trkpt lat="44.6389813" lon="8.9521788"><ele>303.0</ele><time>2026-04-03T13:26:16.165Z</time></trkpt><trkpt lat="44.6388386" lon="8.9521302"><ele>303.0</ele><time>2026-04-03T13:26:17.111Z</time></trkpt><trkpt lat="44.638663" lon="8.9520727"><ele>301.6666666666667</ele><time>2026-04-03T13:26:18.122Z</time></trkpt><trkpt lat="44.638523" lon="8.9520019"><ele>300.33333333333337</ele><time>2026-04-03T13:26:19.192Z</time></trkpt><trkpt lat="44.6383744" lon="8.9519362"><ele>299.0</ele><time>2026-04-03T13:26:20.142Z</time></trkpt><trkpt lat="44.6380621" lon="8.9518175"><ele>299.0</ele><time>2026-04-03T13:26:22.111Z</time></trkpt><trkpt lat="44.6379122" lon="8.9517598"><ele>299.0</ele><time>2026-04-03T13:26:23.111Z</time></trkpt><trkpt lat="44.6377646" lon="8.9516974"><ele>299.0</ele><time>2026-04-03T13:26:24.145Z</time></trkpt><trkpt lat="44.6376373" lon="8.951626"><ele>299.0</ele><time>2026-04-03T13:26:25.174Z</time></trkpt><trkpt lat="44.6375014" lon="8.951531"><ele>300.0</ele><time>2026-04-03T13:26:26.181Z</time></trkpt><trkpt lat="44.6373737" lon="8.951442"><ele>301.0</ele><time>2026-04-03T13:26:27.107Z</time></trkpt><trkpt lat="44.6372499" lon="8.9513353"><ele>302.0</ele><time>2026-04-03T13:26:28.107Z</time></trkpt><trkpt lat="44.637123" lon="8.9512236"><ele>303.0</ele><time>2026-04-03T13:26:29.139Z</time></trkpt><trkpt lat="44.6370094" lon="8.9511192"><ele>301.6666666666667</ele><time>2026-04-03T13:26:30.103Z</time></trkpt><trkpt lat="44.6368802" lon="8.9510111"><ele>300.33333333333337</ele><time>2026-04-03T13:26:31.147Z</time></trkpt><trkpt lat="44.6367555" lon="8.9509058"><ele>299.0</ele><time>2026-04-03T13:26:32.109Z</time></trkpt><trkpt lat="44.6366281" lon="8.9507836"><ele>301.6666666666667</ele><time>2026-04-03T13:26:33.109Z</time></trkpt><trkpt lat="44.6364974" lon="8.950653"><ele>304.3333333333333</ele><time>2026-04-03T13:26:34.186Z</time></trkpt><trkpt lat="44.636362" lon="8.9505277"><ele>307.0</ele><time>2026-04-03T13:26:35.151Z</time></trkpt><trkpt lat="44.6362351" lon="8.9504203"><ele>304.3333333333333</ele><time>2026-04-03T13:26:36.107Z</time></trkpt><trkpt lat="44.6361059" lon="8.9502998"><ele>301.6666666666667</ele><time>2026-04-03T13:26:37.111Z</time></trkpt><trkpt lat="44.6359751" lon="8.9501759"><ele>299.0</ele><time>2026-04-03T13:26:38.109Z</time></trkpt><trkpt lat="44.6358485" lon="8.9500643"><ele>302.6666666666667</ele><time>2026-04-03T13:26:39.109Z</time></trkpt><trkpt lat="44.6357247" lon="8.9499536"><ele>306.3333333333333</ele><time>2026-04-03T13:26:40.121Z</time></trkpt><trkpt lat="44.6354861" lon="8.9497443"><ele>310.0</ele><time>2026-04-03T13:26:42.119Z</time></trkpt><trkpt lat="44.6353723" lon="8.9496457"><ele>309.0</ele><time>2026-04-03T13:26:43.105Z</time></trkpt><trkpt lat="44.6352601" lon="8.9495435"><ele>308.0</ele><time>2026-04-03T13:26:44.113Z</time></trkpt><trkpt lat="44.6351615" lon="8.9494583"><ele>307.0</ele><time>2026-04-03T13:26:45.18Z</time></trkpt><trkpt lat="44.6350748" lon="8.9493314"><ele>306.0</ele><time>2026-04-03T13:26:46.109Z</time></trkpt><trkpt lat="44.6350083" lon="8.9491878"><ele>306.0</ele><time>2026-04-03T13:26:46.999Z</time></trkpt><trkpt lat="44.6349651" lon="8.9490424"><ele>306.0</ele><time>2026-04-03T13:26:48.11Z</time></trkpt><trkpt lat="44.6349583" lon="8.9488766"><ele>306.0</ele><time>2026-04-03T13:26:49.108Z</time></trkpt><trkpt lat="44.6349607" lon="8.9487039"><ele>306.0</ele><time>2026-04-03T13:26:50.129Z</time></trkpt><trkpt lat="44.6349681" lon="8.9485279"><ele>308.75</ele><time>2026-04-03T13:26:51.17Z</time></trkpt><trkpt lat="44.6349678" lon="8.9483388"><ele>311.5</ele><time>2026-04-03T13:26:52.113Z</time></trkpt><trkpt lat="44.6349605" lon="8.9481478"><ele>314.25</ele><time>2026-04-03T13:26:53.107Z</time></trkpt><trkpt lat="44.6349499" lon="8.9479448"><ele>317.0</ele><time>2026-04-03T13:26:54.166Z</time></trkpt><trkpt lat="44.6349338" lon="8.9477294"><ele>319.25</ele><time>2026-04-03T13:26:55.17Z</time></trkpt><trkpt lat="44.6349123" lon="8.9475303"><ele>321.5</ele><time>2026-04-03T13:26:56.175Z</time></trkpt><trkpt lat="44.634885" lon="8.9473354"><ele>323.75</ele><time>2026-04-03T13:26:57.11Z</time></trkpt><trkpt lat="44.6348632" lon="8.9471512"><ele>326.0</ele><time>2026-04-03T13:26:58.107Z</time></trkpt><trkpt lat="44.6348216" lon="8.9469561"><ele>326.0</ele><time>2026-04-03T13:26:59.159Z</time></trkpt><trkpt lat="44.6347792" lon="8.9467649"><ele>326.0</ele><time>2026-04-03T13:27:00.165Z</time></trkpt><trkpt lat="44.6347279" lon="8.9465958"><ele>326.0</ele><time>2026-04-03T13:27:01.153Z</time></trkpt><trkpt lat="44.6346731" lon="8.9464061"><ele>326.0</ele><time>2026-04-03T13:27:02.11Z</time></trkpt><trkpt lat="44.6345988" lon="8.9461956"><ele>328.5</ele><time>2026-04-03T13:27:03.11Z</time></trkpt><trkpt lat="44.6345111" lon="8.9460535"><ele>331.0</ele><time>2026-04-03T13:27:04.163Z</time></trkpt><trkpt lat="44.6344048" lon="8.9459086"><ele>333.5</ele><time>2026-04-03T13:27:05.172Z</time></trkpt><trkpt lat="44.6342875" lon="8.945757"><ele>336.0</ele><time>2026-04-03T13:27:06.198Z</time></trkpt><trkpt lat="44.6341696" lon="8.945641"><ele>328.0</ele><time>2026-04-03T13:27:07.103Z</time></trkpt><trkpt lat="44.6340319" lon="8.9455183"><ele>320.0</ele><time>2026-04-03T13:27:08.11Z</time></trkpt><trkpt lat="44.6339443" lon="8.9453502"><ele>312.0</ele><time>2026-04-03T13:27:09.1Z</time></trkpt><trkpt lat="44.6338512" lon="8.9451637"><ele>310.0</ele><time>2026-04-03T13:27:10.107Z</time></trkpt><trkpt lat="44.6337511" lon="8.9449978"><ele>308.0</ele><time>2026-04-03T13:27:11.152Z</time></trkpt><trkpt lat="44.6336489" lon="8.9448207"><ele>306.0</ele><time>2026-04-03T13:27:12.103Z</time></trkpt><trkpt lat="44.6335493" lon="8.9446453"><ele>306.0</ele><time>2026-04-03T13:27:13.11Z</time></trkpt><trkpt lat="44.6334491" lon="8.9444904"><ele>306.0</ele><time>2026-04-03T13:27:14.143Z</time></trkpt><trkpt lat="44.6333375" lon="8.944352"><ele>306.0</ele><time>2026-04-03T13:27:15.198Z</time></trkpt><trkpt lat="44.6332247" lon="8.9442359"><ele>306.0</ele><time>2026-04-03T13:27:16.158Z</time></trkpt><trkpt lat="44.6331114" lon="8.9440864"><ele>307.75</ele><time>2026-04-03T13:27:17.108Z</time></trkpt><trkpt lat="44.633056" lon="8.9439101"><ele>309.5</ele><time>2026-04-03T13:27:18.107Z</time></trkpt><trkpt lat="44.632975" lon="8.9437397"><ele>311.25</ele><time>2026-04-03T13:27:19.158Z</time></trkpt><trkpt lat="44.6328932" lon="8.9435952"><ele>313.0</ele><time>2026-04-03T13:27:20.157Z</time></trkpt><trkpt lat="44.6328211" lon="8.9434406"><ele>312.0</ele><time>2026-04-03T13:27:21.166Z</time></trkpt><trkpt lat="44.6327485" lon="8.9432898"><ele>311.0</ele><time>2026-04-03T13:27:22.113Z</time></trkpt><trkpt lat="44.6326688" lon="8.9431474"><ele>310.0</ele><time>2026-04-03T13:27:23.111Z</time></trkpt><trkpt lat="44.6325932" lon="8.9430025"><ele>309.0</ele><time>2026-04-03T13:27:24.171Z</time></trkpt><trkpt lat="44.6325045" lon="8.9428499"><ele>309.0</ele><time>2026-04-03T13:27:25.166Z</time></trkpt><trkpt lat="44.6324241" lon="8.9427082"><ele>309.0</ele><time>2026-04-03T13:27:26.168Z</time></trkpt><trkpt lat="44.6323421" lon="8.9425665"><ele>309.0</ele><time>2026-04-03T13:27:27.106Z</time></trkpt><trkpt lat="44.6322559" lon="8.9424435"><ele>309.0</ele><time>2026-04-03T13:27:28.12Z</time></trkpt><trkpt lat="44.6321564" lon="8.942319"><ele>308.0</ele><time>2026-04-03T13:27:29.122Z</time></trkpt><trkpt lat="44.6320549" lon="8.9422078"><ele>307.0</ele><time>2026-04-03T13:27:30.156Z</time></trkpt><trkpt lat="44.6319418" lon="8.9421182"><ele>306.0</ele><time>2026-04-03T13:27:31.148Z</time></trkpt><trkpt lat="44.6318209" lon="8.9420655"><ele>305.0</ele><time>2026-04-03T13:27:32.112Z</time></trkpt><trkpt lat="44.6317112" lon="8.9419835"><ele>305.0</ele><time>2026-04-03T13:27:33.11Z</time></trkpt><trkpt lat="44.631606" lon="8.9418799"><ele>305.0</ele><time>2026-04-03T13:27:34.143Z</time></trkpt><trkpt lat="44.6314987" lon="8.941794"><ele>305.0</ele><time>2026-04-03T13:27:35.173Z</time></trkpt><trkpt lat="44.6313948" lon="8.9417049"><ele>305.0</ele><time>2026-04-03T13:27:36.154Z</time></trkpt><trkpt lat="44.6312821" lon="8.9416146"><ele>305.33333333333337</ele><time>2026-04-03T13:27:37.106Z</time></trkpt><trkpt lat="44.6310683" lon="8.9414365"><ele>305.6666666666667</ele><time>2026-04-03T13:27:39.124Z</time></trkpt><trkpt lat="44.6309688" lon="8.9413452"><ele>306.0</ele><time>2026-04-03T13:27:40.159Z</time></trkpt><trkpt lat="44.6308545" lon="8.9412519"><ele>306.0</ele><time>2026-04-03T13:27:41.15Z</time></trkpt><trkpt lat="44.6307464" lon="8.9411993"><ele>306.0</ele><time>2026-04-03T13:27:42.114Z</time></trkpt><trkpt lat="44.6306319" lon="8.941135"><ele>306.0</ele><time>2026-04-03T13:27:43.105Z</time></trkpt><trkpt lat="44.6305165" lon="8.9410957"><ele>306.0</ele><time>2026-04-03T13:27:44.154Z</time></trkpt><trkpt lat="44.6303952" lon="8.9410596"><ele>305.25</ele><time>2026-04-03T13:27:45.159Z</time></trkpt><trkpt lat="44.6302818" lon="8.9410256"><ele>304.5</ele><time>2026-04-03T13:27:46.105Z</time></trkpt><trkpt lat="44.6301635" lon="8.9410201"><ele>303.75</ele><time>2026-04-03T13:27:47.11Z</time></trkpt><trkpt lat="44.630045" lon="8.9410591"><ele>303.0</ele><time>2026-04-03T13:27:48.135Z</time></trkpt><trkpt lat="44.6299235" lon="8.9410856"><ele>303.0</ele><time>2026-04-03T13:27:49.167Z</time></trkpt><trkpt lat="44.6297918" lon="8.941202"><ele>303.0</ele><time>2026-04-03T13:27:50.161Z</time></trkpt><trkpt lat="44.62965" lon="8.9413218"><ele>303.0</ele><time>2026-04-03T13:27:51.16Z</time></trkpt><trkpt lat="44.6294956" lon="8.9414448"><ele>303.0</ele><time>2026-04-03T13:27:52.109Z</time></trkpt><trkpt lat="44.6293306" lon="8.9415599"><ele>303.0</ele><time>2026-04-03T13:27:53.11Z</time></trkpt><trkpt lat="44.6291518" lon="8.941679"><ele>303.0</ele><time>2026-04-03T13:27:54.17Z</time></trkpt><trkpt lat="44.6289711" lon="8.941807"><ele>303.0</ele><time>2026-04-03T13:27:55.186Z</time></trkpt><trkpt lat="44.6287867" lon="8.9419373"><ele>303.0</ele><time>2026-04-03T13:27:56.191Z</time></trkpt><trkpt lat="44.6286079" lon="8.9420508"><ele>303.0</ele><time>2026-04-03T13:27:57.112Z</time></trkpt><trkpt lat="44.6284392" lon="8.9421596"><ele>306.0</ele><time>2026-04-03T13:27:58.111Z</time></trkpt><trkpt lat="44.6282819" lon="8.9422691"><ele>309.0</ele><time>2026-04-03T13:27:59.175Z</time></trkpt><trkpt lat="44.6281326" lon="8.9423848"><ele>312.0</ele><time>2026-04-03T13:28:00.186Z</time></trkpt><trkpt lat="44.6279944" lon="8.9425018"><ele>311.3333333333333</ele><time>2026-04-03T13:28:01.163Z</time></trkpt><trkpt lat="44.6278796" lon="8.9426456"><ele>310.66666666666663</ele><time>2026-04-03T13:28:02.112Z</time></trkpt><trkpt lat="44.6277741" lon="8.9428177"><ele>310.0</ele><time>2026-04-03T13:28:03.108Z</time></trkpt><trkpt lat="44.6276714" lon="8.9430065"><ele>310.0</ele><time>2026-04-03T13:28:04.158Z</time></trkpt><trkpt lat="44.6275537" lon="8.9432097"><ele>310.0</ele><time>2026-04-03T13:28:05.185Z</time></trkpt><trkpt lat="44.6274294" lon="8.943412"><ele>310.0</ele><time>2026-04-03T13:28:06.187Z</time></trkpt><trkpt lat="44.6272806" lon="8.9436372"><ele>310.3333333333333</ele><time>2026-04-03T13:28:07.107Z</time></trkpt><trkpt lat="44.6271364" lon="8.9438695"><ele>310.6666666666667</ele><time>2026-04-03T13:28:08.118Z</time></trkpt><trkpt lat="44.6269934" lon="8.9441027"><ele>311.0</ele><time>2026-04-03T13:28:09.165Z</time></trkpt><trkpt lat="44.6268444" lon="8.9443306"><ele>311.0</ele><time>2026-04-03T13:28:10.161Z</time></trkpt><trkpt lat="44.6267016" lon="8.9445593"><ele>311.0</ele><time>2026-04-03T13:28:11.165Z</time></trkpt><trkpt lat="44.626556" lon="8.9447964"><ele>311.0</ele><time>2026-04-03T13:28:12.112Z</time></trkpt><trkpt lat="44.6264121" lon="8.9450232"><ele>309.0</ele><time>2026-04-03T13:28:13.112Z</time></trkpt><trkpt lat="44.6262735" lon="8.945246"><ele>307.0</ele><time>2026-04-03T13:28:14.16Z</time></trkpt><trkpt lat="44.6261406" lon="8.9454596"><ele>305.0</ele><time>2026-04-03T13:28:15.211Z</time></trkpt><trkpt lat="44.626011" lon="8.9456822"><ele>307.33333333333337</ele><time>2026-04-03T13:28:16.145Z</time></trkpt><trkpt lat="44.6258861" lon="8.9458974"><ele>309.6666666666667</ele><time>2026-04-03T13:28:17.11Z</time></trkpt><trkpt lat="44.6257727" lon="8.9461059"><ele>312.0</ele><time>2026-04-03T13:28:18.11Z</time></trkpt><trkpt lat="44.6255723" lon="8.9465286"><ele>309.6666666666667</ele><time>2026-04-03T13:28:20.11Z</time></trkpt><trkpt lat="44.6254792" lon="8.9467566"><ele>307.33333333333337</ele><time>2026-04-03T13:28:21.108Z</time></trkpt><trkpt lat="44.6253768" lon="8.946968"><ele>305.0</ele><time>2026-04-03T13:28:22.108Z</time></trkpt><trkpt lat="44.6252774" lon="8.9471822"><ele>308.33333333333337</ele><time>2026-04-03T13:28:23.113Z</time></trkpt><trkpt lat="44.6251766" lon="8.9473929"><ele>311.6666666666667</ele><time>2026-04-03T13:28:24.18Z</time></trkpt><trkpt lat="44.6250795" lon="8.9476087"><ele>315.0</ele><time>2026-04-03T13:28:25.145Z</time></trkpt><trkpt lat="44.6249802" lon="8.9478163"><ele>315.0</ele><time>2026-04-03T13:28:26.144Z</time></trkpt><trkpt lat="44.6248575" lon="8.9480131"><ele>315.0</ele><time>2026-04-03T13:28:27.108Z</time></trkpt><trkpt lat="44.6247427" lon="8.9482047"><ele>315.0</ele><time>2026-04-03T13:28:28.106Z</time></trkpt><trkpt lat="44.6246235" lon="8.9483888"><ele>315.6666666666667</ele><time>2026-04-03T13:28:29.147Z</time></trkpt><trkpt lat="44.6245262" lon="8.9485602"><ele>316.33333333333337</ele><time>2026-04-03T13:28:30.15Z</time></trkpt><trkpt lat="44.624414" lon="8.9487537"><ele>317.0</ele><time>2026-04-03T13:28:31.179Z</time></trkpt><trkpt lat="44.6243027" lon="8.9489518"><ele>315.33333333333337</ele><time>2026-04-03T13:28:32.108Z</time></trkpt><trkpt lat="44.6241832" lon="8.949137"><ele>313.6666666666667</ele><time>2026-04-03T13:28:33.112Z</time></trkpt><trkpt lat="44.6240757" lon="8.9493203"><ele>312.0</ele><time>2026-04-03T13:28:34.177Z</time></trkpt><trkpt lat="44.6239734" lon="8.9494901"><ele>312.0</ele><time>2026-04-03T13:28:35.174Z</time></trkpt><trkpt lat="44.6238396" lon="8.9496449"><ele>312.0</ele><time>2026-04-03T13:28:36.177Z</time></trkpt><trkpt lat="44.6237186" lon="8.9498142"><ele>312.0</ele><time>2026-04-03T13:28:37.106Z</time></trkpt><trkpt lat="44.6235828" lon="8.9499604"><ele>311.6666666666667</ele><time>2026-04-03T13:28:38.109Z</time></trkpt><trkpt lat="44.6234496" lon="8.9501014"><ele>311.33333333333337</ele><time>2026-04-03T13:28:39.166Z</time></trkpt><trkpt lat="44.6233275" lon="8.9502412"><ele>311.0</ele><time>2026-04-03T13:28:40.178Z</time></trkpt><trkpt lat="44.6232187" lon="8.9503684"><ele>311.0</ele><time>2026-04-03T13:28:41.143Z</time></trkpt><trkpt lat="44.6231119" lon="8.950476"><ele>311.0</ele><time>2026-04-03T13:28:42.107Z</time></trkpt><trkpt lat="44.6229946" lon="8.9505603"><ele>311.0</ele><time>2026-04-03T13:28:43.108Z</time></trkpt><trkpt lat="44.6228643" lon="8.9506203"><ele>311.0</ele><time>2026-04-03T13:28:44.153Z</time></trkpt><trkpt lat="44.6227309" lon="8.9506416"><ele>312.5</ele><time>2026-04-03T13:28:45.195Z</time></trkpt><trkpt lat="44.6225898" lon="8.9506602"><ele>314.0</ele><time>2026-04-03T13:28:46.144Z</time></trkpt><trkpt lat="44.6224427" lon="8.9506494"><ele>315.5</ele><time>2026-04-03T13:28:47.113Z</time></trkpt><trkpt lat="44.6223318" lon="8.950557"><ele>317.0</ele><time>2026-04-03T13:28:48.113Z</time></trkpt><trkpt lat="44.6222221" lon="8.9504762"><ele>317.0</ele><time>2026-04-03T13:28:49.113Z</time></trkpt><trkpt lat="44.622133" lon="8.9503574"><ele>317.0</ele><time>2026-04-03T13:28:50.109Z</time></trkpt><trkpt lat="44.6220614" lon="8.9502138"><ele>317.0</ele><time>2026-04-03T13:28:51.168Z</time></trkpt><trkpt lat="44.6220188" lon="8.9500155"><ele>317.0</ele><time>2026-04-03T13:28:52.107Z</time></trkpt><trkpt lat="44.6219876" lon="8.9498373"><ele>317.25</ele><time>2026-04-03T13:28:53.109Z</time></trkpt><trkpt lat="44.6219466" lon="8.949668"><ele>317.5</ele><time>2026-04-03T13:28:54.103Z</time></trkpt><trkpt lat="44.6219247" lon="8.9495234"><ele>317.75</ele><time>2026-04-03T13:28:55.11Z</time></trkpt><trkpt lat="44.6218861" lon="8.9493405"><ele>318.0</ele><time>2026-04-03T13:28:56.158Z</time></trkpt><trkpt lat="44.6218228" lon="8.9491026"><ele>319.3333333333333</ele><time>2026-04-03T13:28:57.109Z</time></trkpt><trkpt lat="44.6217317" lon="8.9488172"><ele>320.66666666666663</ele><time>2026-04-03T13:28:58.11Z</time></trkpt><trkpt lat="44.6216896" lon="8.9485398"><ele>322.0</ele><time>2026-04-03T13:28:59.163Z</time></trkpt><trkpt lat="44.621619" lon="8.9482627"><ele>328.0</ele><time>2026-04-03T13:29:00.18Z</time></trkpt><trkpt lat="44.6215442" lon="8.9479952"><ele>334.0</ele><time>2026-04-03T13:29:01.212Z</time></trkpt><trkpt lat="44.6213058" lon="8.9474343"><ele>328.0</ele><time>2026-04-03T13:29:03.108Z</time></trkpt><trkpt lat="44.6211887" lon="8.9471945"><ele>322.0</ele><time>2026-04-03T13:29:04.169Z</time></trkpt><trkpt lat="44.6210651" lon="8.9469701"><ele>316.0</ele><time>2026-04-03T13:29:05.166Z</time></trkpt><trkpt lat="44.6209519" lon="8.9467616"><ele>321.0</ele><time>2026-04-03T13:29:06.171Z</time></trkpt><trkpt lat="44.6208421" lon="8.9465634"><ele>326.0</ele><time>2026-04-03T13:29:07.116Z</time></trkpt><trkpt lat="44.6207419" lon="8.9463886"><ele>331.0</ele><time>2026-04-03T13:29:08.109Z</time></trkpt><trkpt lat="44.6206353" lon="8.946221"><ele>331.0</ele><time>2026-04-03T13:29:09.132Z</time></trkpt><trkpt lat="44.6205254" lon="8.9460596"><ele>331.0</ele><time>2026-04-03T13:29:10.135Z</time></trkpt><trkpt lat="44.6204074" lon="8.9459092"><ele>331.0</ele><time>2026-04-03T13:29:11.132Z</time></trkpt><trkpt lat="44.6202897" lon="8.9457811"><ele>328.0</ele><time>2026-04-03T13:29:12.106Z</time></trkpt><trkpt lat="44.6201754" lon="8.945683"><ele>325.0</ele><time>2026-04-03T13:29:13.111Z</time></trkpt><trkpt lat="44.620048" lon="8.9456047"><ele>322.0</ele><time>2026-04-03T13:29:14.144Z</time></trkpt><trkpt lat="44.6199175" lon="8.9455338"><ele>319.0</ele><time>2026-04-03T13:29:15.168Z</time></trkpt><trkpt lat="44.6197809" lon="8.9454701"><ele>319.0</ele><time>2026-04-03T13:29:16.15Z</time></trkpt><trkpt lat="44.6196394" lon="8.9454225"><ele>319.0</ele><time>2026-04-03T13:29:17.1Z</time></trkpt><trkpt lat="44.6194878" lon="8.9453662"><ele>319.0</ele><time>2026-04-03T13:29:18.111Z</time></trkpt><trkpt lat="44.6193478" lon="8.9453053"><ele>319.0</ele><time>2026-04-03T13:29:19.145Z</time></trkpt><trkpt lat="44.6192006" lon="8.9452245"><ele>319.75</ele><time>2026-04-03T13:29:20.18Z</time></trkpt><trkpt lat="44.6190613" lon="8.945159"><ele>320.5</ele><time>2026-04-03T13:29:21.151Z</time></trkpt><trkpt lat="44.6189056" lon="8.9451165"><ele>321.25</ele><time>2026-04-03T13:29:22.111Z</time></trkpt><trkpt lat="44.6187829" lon="8.945038"><ele>322.0</ele><time>2026-04-03T13:29:23.106Z</time></trkpt><trkpt lat="44.6186298" lon="8.9449889"><ele>322.0</ele><time>2026-04-03T13:29:24.145Z</time></trkpt><trkpt lat="44.6184967" lon="8.9449478"><ele>322.0</ele><time>2026-04-03T13:29:25.169Z</time></trkpt><trkpt lat="44.6183982" lon="8.9448439"><ele>322.0</ele><time>2026-04-03T13:29:26.176Z</time></trkpt><trkpt lat="44.6182881" lon="8.9447659"><ele>322.0</ele><time>2026-04-03T13:29:27.114Z</time></trkpt><trkpt lat="44.6181971" lon="8.9446783"><ele>322.0</ele><time>2026-04-03T13:29:28.108Z</time></trkpt><trkpt lat="44.6180966" lon="8.944588"><ele>322.0</ele><time>2026-04-03T13:29:29.113Z</time></trkpt><trkpt lat="44.617998" lon="8.9444695"><ele>322.0</ele><time>2026-04-03T13:29:30.148Z</time></trkpt><trkpt lat="44.6179073" lon="8.9443651"><ele>322.0</ele><time>2026-04-03T13:29:31.183Z</time></trkpt><trkpt lat="44.6178066" lon="8.9442786"><ele>323.75</ele><time>2026-04-03T13:29:32.109Z</time></trkpt><trkpt lat="44.6176897" lon="8.9442068"><ele>325.5</ele><time>2026-04-03T13:29:33.116Z</time></trkpt><trkpt lat="44.6175741" lon="8.9441414"><ele>327.25</ele><time>2026-04-03T13:29:34.163Z</time></trkpt><trkpt lat="44.6174613" lon="8.9441023"><ele>329.0</ele><time>2026-04-03T13:29:35.153Z</time></trkpt><trkpt lat="44.6173533" lon="8.9441004"><ele>329.0</ele><time>2026-04-03T13:29:36.19Z</time></trkpt><trkpt lat="44.617251" lon="8.9441064"><ele>329.0</ele><time>2026-04-03T13:29:37.111Z</time></trkpt><trkpt lat="44.6171602" lon="8.9441244"><ele>329.0</ele><time>2026-04-03T13:29:38.116Z</time></trkpt><trkpt lat="44.6170651" lon="8.9441362"><ele>329.0</ele><time>2026-04-03T13:29:39.157Z</time></trkpt><trkpt lat="44.6169707" lon="8.9441527"><ele>329.0</ele><time>2026-04-03T13:29:40.173Z</time></trkpt><trkpt lat="44.616878" lon="8.9441637"><ele>328.4</ele><time>2026-04-03T13:29:41.174Z</time></trkpt><trkpt lat="44.6167881" lon="8.9441755"><ele>327.79999999999995</ele><time>2026-04-03T13:29:42.11Z</time></trkpt><trkpt lat="44.6167144" lon="8.9441964"><ele>327.20000000000005</ele><time>2026-04-03T13:29:43.115Z</time></trkpt><trkpt lat="44.6165965" lon="8.9442081"><ele>326.6</ele><time>2026-04-03T13:29:45.175Z</time></trkpt><trkpt lat="44.6165287" lon="8.9442349"><ele>326.0</ele><time>2026-04-03T13:29:46.16Z</time></trkpt><trkpt lat="44.6164239" lon="8.944264"><ele>325.6</ele><time>2026-04-03T13:29:48.107Z</time></trkpt><trkpt lat="44.6163366" lon="8.9443231"><ele>325.20000000000005</ele><time>2026-04-03T13:29:50.16Z</time></trkpt><trkpt lat="44.6162309" lon="8.9444039"><ele>324.79999999999995</ele><time>2026-04-03T13:29:52.107Z</time></trkpt><trkpt lat="44.6161576" lon="8.944466"><ele>324.4</ele><time>2026-04-03T13:29:54.17Z</time></trkpt><trkpt lat="44.6160997" lon="8.944515"><ele>324.0</ele><time>2026-04-03T13:29:57.107Z</time></trkpt><trkpt lat="44.6160266" lon="8.9446134"><ele>324.0</ele><time>2026-04-03T13:30:08.107Z</time></trkpt><trkpt lat="44.6159881" lon="8.9446981"><ele>324.0</ele><time>2026-04-03T13:30:09.107Z</time></trkpt><trkpt lat="44.6159582" lon="8.9447988"><ele>324.0</ele><time>2026-04-03T13:30:10.104Z</time></trkpt><trkpt lat="44.6159252" lon="8.9448751"><ele>324.0</ele><time>2026-04-03T13:30:11.107Z</time></trkpt><trkpt lat="44.6158572" lon="8.9450311"><ele>324.0</ele><time>2026-04-03T13:30:12.105Z</time></trkpt><trkpt lat="44.6158108" lon="8.9451528"><ele>324.0</ele><time>2026-04-03T13:30:13.112Z</time></trkpt><trkpt lat="44.6157692" lon="8.9452688"><ele>323.2</ele><time>2026-04-03T13:30:14.149Z</time></trkpt><trkpt lat="44.6157233" lon="8.945398"><ele>322.4</ele><time>2026-04-03T13:30:15.168Z</time></trkpt><trkpt lat="44.615665" lon="8.9455372"><ele>321.6</ele><time>2026-04-03T13:30:16.11Z</time></trkpt><trkpt lat="44.6156211" lon="8.9456737"><ele>320.8</ele><time>2026-04-03T13:30:17.113Z</time></trkpt><trkpt lat="44.6155691" lon="8.9458226"><ele>320.0</ele><time>2026-04-03T13:30:18.105Z</time></trkpt><trkpt lat="44.6155176" lon="8.945968"><ele>319.75</ele><time>2026-04-03T13:30:19.108Z</time></trkpt><trkpt lat="44.6154592" lon="8.9460978"><ele>319.5</ele><time>2026-04-03T13:30:20.111Z</time></trkpt><trkpt lat="44.6153972" lon="8.9462377"><ele>319.25</ele><time>2026-04-03T13:30:21.175Z</time></trkpt><trkpt lat="44.6153519" lon="8.9463922"><ele>319.0</ele><time>2026-04-03T13:30:22.107Z</time></trkpt><trkpt lat="44.6153142" lon="8.9465334"><ele>320.4</ele><time>2026-04-03T13:30:23.11Z</time></trkpt><trkpt lat="44.6152677" lon="8.9466671"><ele>321.79999999999995</ele><time>2026-04-03T13:30:24.147Z</time></trkpt><trkpt lat="44.6152213" lon="8.9467767"><ele>323.20000000000005</ele><time>2026-04-03T13:30:25.151Z</time></trkpt><trkpt lat="44.6151876" lon="8.9469034"><ele>324.6</ele><time>2026-04-03T13:30:26.108Z</time></trkpt><trkpt lat="44.6151317" lon="8.9470417"><ele>326.0</ele><time>2026-04-03T13:30:27.109Z</time></trkpt><trkpt lat="44.6150837" lon="8.9471702"><ele>326.0</ele><time>2026-04-03T13:30:28.112Z</time></trkpt><trkpt lat="44.6149839" lon="8.9474067"><ele>326.0</ele><time>2026-04-03T13:30:30.16Z</time></trkpt><trkpt lat="44.6149327" lon="8.9475714"><ele>326.0</ele><time>2026-04-03T13:30:31.187Z</time></trkpt><trkpt lat="44.6148962" lon="8.9477055"><ele>326.0</ele><time>2026-04-03T13:30:32.116Z</time></trkpt><trkpt lat="44.6148034" lon="8.947864"><ele>325.4</ele><time>2026-04-03T13:30:33.113Z</time></trkpt><trkpt lat="44.6147456" lon="8.9480138"><ele>324.8</ele><time>2026-04-03T13:30:34.169Z</time></trkpt><trkpt lat="44.6146889" lon="8.9481552"><ele>324.2</ele><time>2026-04-03T13:30:35.187Z</time></trkpt><trkpt lat="44.6146513" lon="8.9482834"><ele>323.59999999999997</ele><time>2026-04-03T13:30:36.157Z</time></trkpt><trkpt lat="44.6146169" lon="8.9484144"><ele>323.0</ele><time>2026-04-03T13:30:37.116Z</time></trkpt><trkpt lat="44.6145358" lon="8.9485194"><ele>323.0</ele><time>2026-04-03T13:30:38.113Z</time></trkpt><trkpt lat="44.6144616" lon="8.9486326"><ele>323.0</ele><time>2026-04-03T13:30:39.113Z</time></trkpt><trkpt lat="44.6144272" lon="8.948724"><ele>323.0</ele><time>2026-04-03T13:30:40.158Z</time></trkpt><trkpt lat="44.6143844" lon="8.9488053"><ele>323.0</ele><time>2026-04-03T13:30:41.179Z</time></trkpt><trkpt lat="44.6142939" lon="8.9488485"><ele>323.0</ele><time>2026-04-03T13:30:43.173Z</time></trkpt><trkpt lat="44.614217" lon="8.9488854"><ele>323.0</ele><time>2026-04-03T13:30:44.192Z</time></trkpt><trkpt lat="44.6139952" lon="8.9488975"><ele>323.0</ele><time>2026-04-03T13:30:46.102Z</time></trkpt><trkpt lat="44.613865" lon="8.9488406"><ele>323.0</ele><time>2026-04-03T13:30:47.108Z</time></trkpt><trkpt lat="44.6137792" lon="8.9488476"><ele>323.0</ele><time>2026-04-03T13:30:48.106Z</time></trkpt><trkpt lat="44.6136966" lon="8.9488487"><ele>323.0</ele><time>2026-04-03T13:30:49.121Z</time></trkpt><trkpt lat="44.6135986" lon="8.9488793"><ele>323.0</ele><time>2026-04-03T13:30:50.179Z</time></trkpt><trkpt lat="44.6135269" lon="8.9489842"><ele>323.5</ele><time>2026-04-03T13:30:51.192Z</time></trkpt><trkpt lat="44.613441" lon="8.9490353"><ele>324.0</ele><time>2026-04-03T13:30:52.163Z</time></trkpt><trkpt lat="44.6133211" lon="8.9491385"><ele>324.5</ele><time>2026-04-03T13:30:53.161Z</time></trkpt><trkpt lat="44.6132356" lon="8.9492121"><ele>325.0</ele><time>2026-04-03T13:30:54.167Z</time></trkpt><trkpt lat="44.6131334" lon="8.9493103"><ele>325.0</ele><time>2026-04-03T13:30:55.139Z</time></trkpt><trkpt lat="44.6130619" lon="8.9493543"><ele>325.0</ele><time>2026-04-03T13:30:56.11Z</time></trkpt><trkpt lat="44.6129046" lon="8.9494889"><ele>325.0</ele><time>2026-04-03T13:30:58.149Z</time></trkpt><trkpt lat="44.6128182" lon="8.9495436"><ele>325.0</ele><time>2026-04-03T13:30:59.116Z</time></trkpt><trkpt lat="44.612739" lon="8.9496"><ele>325.0</ele><time>2026-04-03T13:31:00.159Z</time></trkpt><trkpt lat="44.6126613" lon="8.9496559"><ele>326.4</ele><time>2026-04-03T13:31:01.11Z</time></trkpt><trkpt lat="44.612588" lon="8.9497123"><ele>327.8</ele><time>2026-04-03T13:31:02.109Z</time></trkpt><trkpt lat="44.6125011" lon="8.949783"><ele>329.20000000000005</ele><time>2026-04-03T13:31:03.151Z</time></trkpt><trkpt lat="44.6124207" lon="8.9498583"><ele>330.6</ele><time>2026-04-03T13:31:04.153Z</time></trkpt><trkpt lat="44.6123355" lon="8.9499291"><ele>332.0</ele><time>2026-04-03T13:31:05.164Z</time></trkpt><trkpt lat="44.6122605" lon="8.9499943"><ele>331.40000000000003</ele><time>2026-04-03T13:31:06.107Z</time></trkpt><trkpt lat="44.6122196" lon="8.9501166"><ele>330.8</ele><time>2026-04-03T13:31:08.153Z</time></trkpt><trkpt lat="44.6122033" lon="8.9502505"><ele>330.2</ele><time>2026-04-03T13:31:09.151Z</time></trkpt><trkpt lat="44.6122043" lon="8.9503941"><ele>329.6</ele><time>2026-04-03T13:31:10.143Z</time></trkpt><trkpt lat="44.6122059" lon="8.9505354"><ele>329.0</ele><time>2026-04-03T13:31:11.113Z</time></trkpt><trkpt lat="44.612222" lon="8.9507755"><ele>329.83333333333337</ele><time>2026-04-03T13:31:13.17Z</time></trkpt><trkpt lat="44.6122329" lon="8.9508945"><ele>330.6666666666667</ele><time>2026-04-03T13:31:15.163Z</time></trkpt><trkpt lat="44.6122676" lon="8.9510929"><ele>331.5</ele><time>2026-04-03T13:31:17.106Z</time></trkpt><trkpt lat="44.6122744" lon="8.9511851"><ele>332.3333333333333</ele><time>2026-04-03T13:31:18.105Z</time></trkpt><trkpt lat="44.6122771" lon="8.9512839"><ele>333.16666666666663</ele><time>2026-04-03T13:31:19.161Z</time></trkpt><trkpt lat="44.6122791" lon="8.9513851"><ele>334.0</ele><time>2026-04-03T13:31:20.181Z</time></trkpt><trkpt lat="44.6122935" lon="8.9515023"><ele>334.0</ele><time>2026-04-03T13:31:21.109Z</time></trkpt><trkpt lat="44.6123062" lon="8.9516029"><ele>334.0</ele><time>2026-04-03T13:31:22.109Z</time></trkpt><trkpt lat="44.6123296" lon="8.9517174"><ele>334.0</ele><time>2026-04-03T13:31:23.105Z</time></trkpt><trkpt lat="44.6123553" lon="8.9518605"><ele>334.0</ele><time>2026-04-03T13:31:24.101Z</time></trkpt><trkpt lat="44.6123781" lon="8.9519987"><ele>334.0</ele><time>2026-04-03T13:31:25.104Z</time></trkpt><trkpt lat="44.6124143" lon="8.952133"><ele>333.79999999999995</ele><time>2026-04-03T13:31:26.109Z</time></trkpt><trkpt lat="44.6124221" lon="8.9522402"><ele>333.59999999999997</ele><time>2026-04-03T13:31:27.107Z</time></trkpt><trkpt lat="44.6124585" lon="8.9524442"><ele>333.4</ele><time>2026-04-03T13:31:29.175Z</time></trkpt><trkpt lat="44.612463" lon="8.9525711"><ele>333.2</ele><time>2026-04-03T13:31:30.154Z</time></trkpt><trkpt lat="44.6124815" lon="8.9527217"><ele>333.0</ele><time>2026-04-03T13:31:31.11Z</time></trkpt><trkpt lat="44.612471" lon="8.9528595"><ele>332.3333333333333</ele><time>2026-04-03T13:31:32.108Z</time></trkpt><trkpt lat="44.6124262" lon="8.9529733"><ele>331.6666666666667</ele><time>2026-04-03T13:31:33.111Z</time></trkpt><trkpt lat="44.6123844" lon="8.9530711"><ele>331.0</ele><time>2026-04-03T13:31:34.106Z</time></trkpt><trkpt lat="44.6123359" lon="8.9531559"><ele>330.33333333333337</ele><time>2026-04-03T13:31:35.107Z</time></trkpt><trkpt lat="44.6122738" lon="8.9532467"><ele>329.6666666666667</ele><time>2026-04-03T13:31:36.105Z</time></trkpt><trkpt lat="44.6122071" lon="8.9533164"><ele>329.0</ele><time>2026-04-03T13:31:37.185Z</time></trkpt><trkpt lat="44.6121316" lon="8.9533722"><ele>328.6666666666667</ele><time>2026-04-03T13:31:38.187Z</time></trkpt><trkpt lat="44.6120474" lon="8.9534379"><ele>328.33333333333337</ele><time>2026-04-03T13:31:39.154Z</time></trkpt><trkpt lat="44.6119788" lon="8.9535014"><ele>328.0</ele><time>2026-04-03T13:31:40.187Z</time></trkpt><trkpt lat="44.6119024" lon="8.9535582"><ele>327.6666666666667</ele><time>2026-04-03T13:31:41.117Z</time></trkpt><trkpt lat="44.6118172" lon="8.9536089"><ele>327.3333333333333</ele><time>2026-04-03T13:31:42.108Z</time></trkpt><trkpt lat="44.6117451" lon="8.9536615"><ele>327.0</ele><time>2026-04-03T13:31:43.14Z</time></trkpt><trkpt lat="44.6116853" lon="8.9537033"><ele>327.8</ele><time>2026-04-03T13:31:44.18Z</time></trkpt><trkpt lat="44.6116117" lon="8.953733"><ele>328.6</ele><time>2026-04-03T13:31:45.177Z</time></trkpt><trkpt lat="44.6115467" lon="8.9537583"><ele>329.40000000000003</ele><time>2026-04-03T13:31:46.113Z</time></trkpt><trkpt lat="44.6114818" lon="8.9538014"><ele>330.20000000000005</ele><time>2026-04-03T13:31:47.111Z</time></trkpt><trkpt lat="44.6113772" lon="8.9538506"><ele>331.0</ele><time>2026-04-03T13:31:49.154Z</time></trkpt><trkpt lat="44.6112642" lon="8.95395"><ele>331.4</ele><time>2026-04-03T13:31:51.103Z</time></trkpt><trkpt lat="44.6111366" lon="8.9540241"><ele>331.8</ele><time>2026-04-03T13:31:53.113Z</time></trkpt><trkpt lat="44.6110786" lon="8.9540677"><ele>332.2</ele><time>2026-04-03T13:31:54.171Z</time></trkpt><trkpt lat="44.6109666" lon="8.9541203"><ele>332.59999999999997</ele><time>2026-04-03T13:31:56.119Z</time></trkpt><trkpt lat="44.610877" lon="8.9541907"><ele>333.0</ele><time>2026-04-03T13:31:57.111Z</time></trkpt><trkpt lat="44.6107842" lon="8.9542529"><ele>333.0</ele><time>2026-04-03T13:31:58.157Z</time></trkpt><trkpt lat="44.6107055" lon="8.9542991"><ele>333.0</ele><time>2026-04-03T13:31:59.197Z</time></trkpt><trkpt lat="44.6106258" lon="8.9543383"><ele>333.0</ele><time>2026-04-03T13:32:00.191Z</time></trkpt><trkpt lat="44.6105455" lon="8.9543715"><ele>333.0</ele><time>2026-04-03T13:32:01.107Z</time></trkpt><trkpt lat="44.6104705" lon="8.9544019"><ele>333.0</ele><time>2026-04-03T13:32:02.106Z</time></trkpt><trkpt lat="44.6103992" lon="8.9544262"><ele>333.0</ele><time>2026-04-03T13:32:03.195Z</time></trkpt><trkpt lat="44.61033" lon="8.954454"><ele>333.4</ele><time>2026-04-03T13:32:04.155Z</time></trkpt><trkpt lat="44.6102658" lon="8.954468"><ele>333.79999999999995</ele><time>2026-04-03T13:32:05.162Z</time></trkpt><trkpt lat="44.6101985" lon="8.9544867"><ele>334.2</ele><time>2026-04-03T13:32:06.111Z</time></trkpt><trkpt lat="44.6100928" lon="8.9545188"><ele>334.6</ele><time>2026-04-03T13:32:08.122Z</time></trkpt><trkpt lat="44.6100052" lon="8.9545495"><ele>335.0</ele><time>2026-04-03T13:32:10.166Z</time></trkpt><trkpt lat="44.6098893" lon="8.9545794"><ele>335.0</ele><time>2026-04-03T13:32:12.108Z</time></trkpt><trkpt lat="44.6097796" lon="8.9546006"><ele>335.0</ele><time>2026-04-03T13:32:14.185Z</time></trkpt><trkpt lat="44.6096593" lon="8.954614"><ele>335.0</ele><time>2026-04-03T13:32:16.107Z</time></trkpt><trkpt lat="44.6095839" lon="8.9546266"><ele>335.0</ele><time>2026-04-03T13:32:17.121Z</time></trkpt><trkpt lat="44.6095095" lon="8.954642"><ele>335.0</ele><time>2026-04-03T13:32:18.16Z</time></trkpt><trkpt lat="44.6094016" lon="8.95467"><ele>335.0</ele><time>2026-04-03T13:32:20.189Z</time></trkpt><trkpt lat="44.6093323" lon="8.9546822"><ele>335.0</ele><time>2026-04-03T13:32:22.108Z</time></trkpt><trkpt lat="44.6092457" lon="8.9547047"><ele>335.0</ele><time>2026-04-03T13:32:24.107Z</time></trkpt><trkpt lat="44.609152" lon="8.9547386"><ele>335.0</ele><time>2026-04-03T13:32:26.108Z</time></trkpt><trkpt lat="44.6090035" lon="8.9548032"><ele>335.0</ele><time>2026-04-03T13:32:28.105Z</time></trkpt><trkpt lat="44.6089324" lon="8.9548389"><ele>335.0</ele><time>2026-04-03T13:32:29.109Z</time></trkpt><trkpt lat="44.6088547" lon="8.9548677"><ele>335.0</ele><time>2026-04-03T13:32:30.186Z</time></trkpt><trkpt lat="44.6087741" lon="8.9549114"><ele>335.0</ele><time>2026-04-03T13:32:31.116Z</time></trkpt><trkpt lat="44.6086501" lon="8.9549687"><ele>335.0</ele><time>2026-04-03T13:32:33.113Z</time></trkpt><trkpt lat="44.6085813" lon="8.9549981"><ele>335.0</ele><time>2026-04-03T13:32:34.111Z</time></trkpt><trkpt lat="44.608509" lon="8.9550337"><ele>335.0</ele><time>2026-04-03T13:32:35.114Z</time></trkpt><trkpt lat="44.6084158" lon="8.9550741"><ele>334.8</ele><time>2026-04-03T13:32:37.113Z</time></trkpt><trkpt lat="44.6083272" lon="8.9551116"><ele>334.6</ele><time>2026-04-03T13:32:39.105Z</time></trkpt><trkpt lat="44.6082208" lon="8.9551303"><ele>334.4</ele><time>2026-04-03T13:32:41.105Z</time></trkpt><trkpt lat="44.6081345" lon="8.9551402"><ele>334.2</ele><time>2026-04-03T13:32:42.111Z</time></trkpt><trkpt lat="44.6080578" lon="8.9551547"><ele>334.0</ele><time>2026-04-03T13:32:43.111Z</time></trkpt><trkpt lat="44.6079331" lon="8.9551117"><ele>334.0</ele><time>2026-04-03T13:32:45.112Z</time></trkpt><trkpt lat="44.6078519" lon="8.9550846"><ele>334.0</ele><time>2026-04-03T13:32:46.11Z</time></trkpt><trkpt lat="44.6077691" lon="8.9550683"><ele>334.0</ele><time>2026-04-03T13:32:47.11Z</time></trkpt><trkpt lat="44.6076797" lon="8.9550424"><ele>334.0</ele><time>2026-04-03T13:32:48.112Z</time></trkpt><trkpt lat="44.6076183" lon="8.9550193"><ele>334.0</ele><time>2026-04-03T13:32:49.117Z</time></trkpt><trkpt lat="44.6075319" lon="8.9549309"><ele>334.0</ele><time>2026-04-03T13:32:50.114Z</time></trkpt><trkpt lat="44.6074638" lon="8.9548674"><ele>333.79999999999995</ele><time>2026-04-03T13:32:51.114Z</time></trkpt><trkpt lat="44.6074003" lon="8.9547999"><ele>333.59999999999997</ele><time>2026-04-03T13:32:52.109Z</time></trkpt><trkpt lat="44.6073318" lon="8.9547328"><ele>333.4</ele><time>2026-04-03T13:32:53.114Z</time></trkpt><trkpt lat="44.6072624" lon="8.9546075"><ele>333.2</ele><time>2026-04-03T13:32:54.114Z</time></trkpt><trkpt lat="44.6072127" lon="8.9544889"><ele>333.0</ele><time>2026-04-03T13:32:55.111Z</time></trkpt><trkpt lat="44.6071567" lon="8.9543564"><ele>333.0</ele><time>2026-04-03T13:32:56.114Z</time></trkpt><trkpt lat="44.6071018" lon="8.9542237"><ele>333.0</ele><time>2026-04-03T13:32:57.116Z</time></trkpt><trkpt lat="44.6070564" lon="8.9540811"><ele>333.0</ele><time>2026-04-03T13:32:58.108Z</time></trkpt><trkpt lat="44.6070175" lon="8.9538998"><ele>333.0</ele><time>2026-04-03T13:32:59.114Z</time></trkpt><trkpt lat="44.606942" lon="8.9537823"><ele>332.0</ele><time>2026-04-03T13:33:00.111Z</time></trkpt><trkpt lat="44.6068914" lon="8.9536606"><ele>331.0</ele><time>2026-04-03T13:33:01.106Z</time></trkpt><trkpt lat="44.6068407" lon="8.9535182"><ele>330.0</ele><time>2026-04-03T13:33:02.11Z</time></trkpt><trkpt lat="44.6067936" lon="8.9533758"><ele>329.0</ele><time>2026-04-03T13:33:03.114Z</time></trkpt><trkpt lat="44.6067483" lon="8.9532187"><ele>328.0</ele><time>2026-04-03T13:33:04.109Z</time></trkpt><trkpt lat="44.6066977" lon="8.953075"><ele>330.5</ele><time>2026-04-03T13:33:05.115Z</time></trkpt><trkpt lat="44.6066635" lon="8.9529101"><ele>333.0</ele><time>2026-04-03T13:33:06.108Z</time></trkpt><trkpt lat="44.6066314" lon="8.9527543"><ele>335.5</ele><time>2026-04-03T13:33:07.113Z</time></trkpt><trkpt lat="44.6065985" lon="8.9525871"><ele>338.0</ele><time>2026-04-03T13:33:08.112Z</time></trkpt><trkpt lat="44.606554" lon="8.9524439"><ele>343.0</ele><time>2026-04-03T13:33:09.106Z</time></trkpt><trkpt lat="44.6065031" lon="8.9522744"><ele>348.0</ele><time>2026-04-03T13:33:10.118Z</time></trkpt><trkpt lat="44.6064328" lon="8.9521331"><ele>353.0</ele><time>2026-04-03T13:33:11.111Z</time></trkpt><trkpt lat="44.6063584" lon="8.952"><ele>358.0</ele><time>2026-04-03T13:33:12.115Z</time></trkpt><trkpt lat="44.6063069" lon="8.951871"><ele>358.0</ele><time>2026-04-03T13:33:13.109Z</time></trkpt><trkpt lat="44.6062418" lon="8.9517474"><ele>358.0</ele><time>2026-04-03T13:33:14.114Z</time></trkpt><trkpt lat="44.6061701" lon="8.9516125"><ele>358.0</ele><time>2026-04-03T13:33:15.11Z</time></trkpt><trkpt lat="44.6061081" lon="8.9514703"><ele>358.0</ele><time>2026-04-03T13:33:16.118Z</time></trkpt><trkpt lat="44.6060292" lon="8.9513366"><ele>355.25</ele><time>2026-04-03T13:33:17.107Z</time></trkpt><trkpt lat="44.6059503" lon="8.9511942"><ele>352.5</ele><time>2026-04-03T13:33:18.111Z</time></trkpt><trkpt lat="44.6058739" lon="8.9510473"><ele>349.75</ele><time>2026-04-03T13:33:19.115Z</time></trkpt><trkpt lat="44.6057937" lon="8.950903"><ele>347.0</ele><time>2026-04-03T13:33:20.115Z</time></trkpt><trkpt lat="44.6057201" lon="8.9507696"><ele>347.0</ele><time>2026-04-03T13:33:21.112Z</time></trkpt><trkpt lat="44.6056389" lon="8.9506492"><ele>347.0</ele><time>2026-04-03T13:33:22.158Z</time></trkpt><trkpt lat="44.6055527" lon="8.9505282"><ele>347.0</ele><time>2026-04-03T13:33:23.168Z</time></trkpt><trkpt lat="44.6054595" lon="8.950407"><ele>347.0</ele><time>2026-04-03T13:33:24.115Z</time></trkpt><trkpt lat="44.6053737" lon="8.9502745"><ele>345.75</ele><time>2026-04-03T13:33:25.173Z</time></trkpt><trkpt lat="44.6052894" lon="8.9501526"><ele>344.5</ele><time>2026-04-03T13:33:26.114Z</time></trkpt><trkpt lat="44.6052131" lon="8.9500291"><ele>343.25</ele><time>2026-04-03T13:33:27.115Z</time></trkpt><trkpt lat="44.6051316" lon="8.9499108"><ele>342.0</ele><time>2026-04-03T13:33:28.106Z</time></trkpt><trkpt lat="44.6049662" lon="8.9496832"><ele>342.0</ele><time>2026-04-03T13:33:30.138Z</time></trkpt><trkpt lat="44.6048971" lon="8.9495654"><ele>342.0</ele><time>2026-04-03T13:33:31.106Z</time></trkpt><trkpt lat="44.6048201" lon="8.9494559"><ele>342.0</ele><time>2026-04-03T13:33:32.116Z</time></trkpt><trkpt lat="44.6047481" lon="8.9493531"><ele>342.0</ele><time>2026-04-03T13:33:33.141Z</time></trkpt><trkpt lat="44.6046826" lon="8.9492541"><ele>342.0</ele><time>2026-04-03T13:33:34.168Z</time></trkpt><trkpt lat="44.6046065" lon="8.949167"><ele>340.0</ele><time>2026-04-03T13:33:35.173Z</time></trkpt><trkpt lat="44.6045356" lon="8.9490868"><ele>338.0</ele><time>2026-04-03T13:33:36.114Z</time></trkpt><trkpt lat="44.6044521" lon="8.9490144"><ele>336.0</ele><time>2026-04-03T13:33:37.112Z</time></trkpt><trkpt lat="44.6043649" lon="8.9489359"><ele>334.0</ele><time>2026-04-03T13:33:38.103Z</time></trkpt><trkpt lat="44.6041907" lon="8.9488048"><ele>334.0</ele><time>2026-04-03T13:33:40.155Z</time></trkpt><trkpt lat="44.6041034" lon="8.9487648"><ele>334.0</ele><time>2026-04-03T13:33:41.109Z</time></trkpt><trkpt lat="44.6040078" lon="8.9487331"><ele>334.0</ele><time>2026-04-03T13:33:42.115Z</time></trkpt><trkpt lat="44.603912" lon="8.9487082"><ele>334.0</ele><time>2026-04-03T13:33:43.113Z</time></trkpt><trkpt lat="44.6036957" lon="8.9486457"><ele>333.25</ele><time>2026-04-03T13:33:45.12Z</time></trkpt><trkpt lat="44.6035828" lon="8.9486247"><ele>332.5</ele><time>2026-04-03T13:33:46.102Z</time></trkpt><trkpt lat="44.6034684" lon="8.9486192"><ele>331.75</ele><time>2026-04-03T13:33:47.175Z</time></trkpt><trkpt lat="44.6033566" lon="8.9486201"><ele>331.0</ele><time>2026-04-03T13:33:48.156Z</time></trkpt><trkpt lat="44.6032463" lon="8.9486331"><ele>331.0</ele><time>2026-04-03T13:33:49.146Z</time></trkpt><trkpt lat="44.6031426" lon="8.9486579"><ele>331.0</ele><time>2026-04-03T13:33:50.153Z</time></trkpt><trkpt lat="44.6030455" lon="8.9486874"><ele>331.0</ele><time>2026-04-03T13:33:51.113Z</time></trkpt><trkpt lat="44.602945" lon="8.9487234"><ele>331.0</ele><time>2026-04-03T13:33:52.108Z</time></trkpt><trkpt lat="44.6028474" lon="8.9487661"><ele>331.0</ele><time>2026-04-03T13:33:53.184Z</time></trkpt><trkpt lat="44.6027493" lon="8.9488177"><ele>332.25</ele><time>2026-04-03T13:33:54.175Z</time></trkpt><trkpt lat="44.602659" lon="8.9488724"><ele>333.5</ele><time>2026-04-03T13:33:55.108Z</time></trkpt><trkpt lat="44.6024891" lon="8.9489853"><ele>334.75</ele><time>2026-04-03T13:33:57.104Z</time></trkpt><trkpt lat="44.6023959" lon="8.9490874"><ele>336.0</ele><time>2026-04-03T13:33:58.172Z</time></trkpt><trkpt lat="44.6023158" lon="8.9491798"><ele>336.0</ele><time>2026-04-03T13:33:59.131Z</time></trkpt><trkpt lat="44.6022346" lon="8.9492743"><ele>336.0</ele><time>2026-04-03T13:34:00.19Z</time></trkpt><trkpt lat="44.6021565" lon="8.9493652"><ele>336.0</ele><time>2026-04-03T13:34:01.11Z</time></trkpt><trkpt lat="44.6020905" lon="8.9494289"><ele>336.0</ele><time>2026-04-03T13:34:02.106Z</time></trkpt><trkpt lat="44.6020246" lon="8.9495078"><ele>336.0</ele><time>2026-04-03T13:34:03.173Z</time></trkpt><trkpt lat="44.6019611" lon="8.9495779"><ele>336.0</ele><time>2026-04-03T13:34:04.161Z</time></trkpt><trkpt lat="44.6018872" lon="8.9496666"><ele>336.0</ele><time>2026-04-03T13:34:05.153Z</time></trkpt><trkpt lat="44.6018246" lon="8.9497387"><ele>336.0</ele><time>2026-04-03T13:34:06.111Z</time></trkpt><trkpt lat="44.6017747" lon="8.9498048"><ele>336.0</ele><time>2026-04-03T13:34:07.108Z</time></trkpt><trkpt lat="44.6016992" lon="8.9498986"><ele>336.0</ele><time>2026-04-03T13:34:09.153Z</time></trkpt><trkpt lat="44.6016345" lon="8.9499881"><ele>336.0</ele><time>2026-04-03T13:34:11.103Z</time></trkpt><trkpt lat="44.6015379" lon="8.9501169"><ele>336.0</ele><time>2026-04-03T13:34:12.999Z</time></trkpt><trkpt lat="44.6014924" lon="8.9501808"><ele>336.0</ele><time>2026-04-03T13:34:14.156Z</time></trkpt><trkpt lat="44.6014178" lon="8.9502556"><ele>336.0</ele><time>2026-04-03T13:34:16.112Z</time></trkpt><trkpt lat="44.6013334" lon="8.950339"><ele>336.0</ele><time>2026-04-03T13:34:18.171Z</time></trkpt><trkpt lat="44.6012753" lon="8.9504092"><ele>336.0</ele><time>2026-04-03T13:34:20.101Z</time></trkpt><trkpt lat="44.6012226" lon="8.9504783"><ele>336.0</ele><time>2026-04-03T13:34:22.108Z</time></trkpt><trkpt lat="44.6011692" lon="8.950565"><ele>336.75</ele><time>2026-04-03T13:34:32.102Z</time></trkpt><trkpt lat="44.6010739" lon="8.950671"><ele>337.5</ele><time>2026-04-03T13:34:34.101Z</time></trkpt><trkpt lat="44.6009905" lon="8.9507735"><ele>338.25</ele><time>2026-04-03T13:34:36.115Z</time></trkpt><trkpt lat="44.6008743" lon="8.9509174"><ele>339.0</ele><time>2026-04-03T13:34:38.112Z</time></trkpt><trkpt lat="44.6008093" lon="8.950983"><ele>339.0</ele><time>2026-04-03T13:34:39.109Z</time></trkpt><trkpt lat="44.6007414" lon="8.9510553"><ele>339.0</ele><time>2026-04-03T13:34:40.112Z</time></trkpt><trkpt lat="44.6006725" lon="8.951132"><ele>339.0</ele><time>2026-04-03T13:34:41.108Z</time></trkpt><trkpt lat="44.6005965" lon="8.9512205"><ele>339.0</ele><time>2026-04-03T13:34:42.106Z</time></trkpt><trkpt lat="44.6005202" lon="8.9513161"><ele>339.0</ele><time>2026-04-03T13:34:43.113Z</time></trkpt><trkpt lat="44.6004474" lon="8.951406"><ele>339.0</ele><time>2026-04-03T13:34:44.111Z</time></trkpt><trkpt lat="44.6003595" lon="8.951504"><ele>339.0</ele><time>2026-04-03T13:34:45.183Z</time></trkpt><trkpt lat="44.6002782" lon="8.9516052"><ele>339.0</ele><time>2026-04-03T13:34:46.107Z</time></trkpt><trkpt lat="44.6001857" lon="8.9517072"><ele>339.0</ele><time>2026-04-03T13:34:47.111Z</time></trkpt><trkpt lat="44.6000818" lon="8.951829"><ele>339.25</ele><time>2026-04-03T13:34:48.188Z</time></trkpt><trkpt lat="44.5999824" lon="8.9519325"><ele>339.5</ele><time>2026-04-03T13:34:49.116Z</time></trkpt><trkpt lat="44.5998753" lon="8.9520317"><ele>339.75</ele><time>2026-04-03T13:34:50.19Z</time></trkpt><trkpt lat="44.5997778" lon="8.9521399"><ele>340.0</ele><time>2026-04-03T13:34:51.109Z</time></trkpt><trkpt lat="44.5996755" lon="8.9522375"><ele>340.0</ele><time>2026-04-03T13:34:52.113Z</time></trkpt><trkpt lat="44.5995685" lon="8.95233"><ele>340.0</ele><time>2026-04-03T13:34:53.192Z</time></trkpt><trkpt lat="44.5993387" lon="8.9524993"><ele>340.0</ele><time>2026-04-03T13:34:55.212Z</time></trkpt><trkpt lat="44.5992178" lon="8.9525779"><ele>340.0</ele><time>2026-04-03T13:34:56.113Z</time></trkpt><trkpt lat="44.5991007" lon="8.9526505"><ele>340.0</ele><time>2026-04-03T13:34:57.113Z</time></trkpt><trkpt lat="44.5989857" lon="8.9527245"><ele>340.0</ele><time>2026-04-03T13:34:58.16Z</time></trkpt><trkpt lat="44.5988725" lon="8.9527945"><ele>340.0</ele><time>2026-04-03T13:34:59.115Z</time></trkpt><trkpt lat="44.5987574" lon="8.9528662"><ele>340.0</ele><time>2026-04-03T13:35:00.168Z</time></trkpt><trkpt lat="44.5986482" lon="8.9529315"><ele>340.0</ele><time>2026-04-03T13:35:01.111Z</time></trkpt><trkpt lat="44.5985416" lon="8.9529994"><ele>340.0</ele><time>2026-04-03T13:35:02.112Z</time></trkpt><trkpt lat="44.5984339" lon="8.9530685"><ele>340.0</ele><time>2026-04-03T13:35:03.14Z</time></trkpt><trkpt lat="44.5983354" lon="8.9531213"><ele>340.0</ele><time>2026-04-03T13:35:04.18Z</time></trkpt><trkpt lat="44.5982353" lon="8.9531946"><ele>340.0</ele><time>2026-04-03T13:35:05.172Z</time></trkpt><trkpt lat="44.5981313" lon="8.9532588"><ele>340.0</ele><time>2026-04-03T13:35:06.119Z</time></trkpt><trkpt lat="44.598033" lon="8.9533246"><ele>340.0</ele><time>2026-04-03T13:35:07.108Z</time></trkpt><trkpt lat="44.5979271" lon="8.9533778"><ele>340.0</ele><time>2026-04-03T13:35:08.161Z</time></trkpt><trkpt lat="44.5978164" lon="8.9534355"><ele>339.25</ele><time>2026-04-03T13:35:09.172Z</time></trkpt><trkpt lat="44.5977058" lon="8.9534642"><ele>338.5</ele><time>2026-04-03T13:35:10.134Z</time></trkpt><trkpt lat="44.5975991" lon="8.9534901"><ele>337.75</ele><time>2026-04-03T13:35:11.106Z</time></trkpt><trkpt lat="44.5974757" lon="8.9534986"><ele>337.0</ele><time>2026-04-03T13:35:12.109Z</time></trkpt><trkpt lat="44.5973519" lon="8.9535032"><ele>337.0</ele><time>2026-04-03T13:35:13.163Z</time></trkpt><trkpt lat="44.5972178" lon="8.9535049"><ele>337.0</ele><time>2026-04-03T13:35:14.118Z</time></trkpt><trkpt lat="44.5970581" lon="8.9535241"><ele>337.0</ele><time>2026-04-03T13:35:15.109Z</time></trkpt><trkpt lat="44.5968925" lon="8.9535331"><ele>337.0</ele><time>2026-04-03T13:35:16.112Z</time></trkpt><trkpt lat="44.5967482" lon="8.9534735"><ele>337.0</ele><time>2026-04-03T13:35:17.139Z</time></trkpt><trkpt lat="44.5965826" lon="8.9534614"><ele>337.0</ele><time>2026-04-03T13:35:18.144Z</time></trkpt><trkpt lat="44.5964045" lon="8.9534612"><ele>337.0</ele><time>2026-04-03T13:35:19.113Z</time></trkpt><trkpt lat="44.5962354" lon="8.9534567"><ele>337.0</ele><time>2026-04-03T13:35:20.109Z</time></trkpt><trkpt lat="44.5960699" lon="8.9534641"><ele>337.0</ele><time>2026-04-03T13:35:21.116Z</time></trkpt><trkpt lat="44.5959509" lon="8.9534095"><ele>337.6</ele><time>2026-04-03T13:35:22.179Z</time></trkpt><trkpt lat="44.595832" lon="8.9533895"><ele>338.20000000000005</ele><time>2026-04-03T13:35:23.126Z</time></trkpt><trkpt lat="44.5957023" lon="8.9533883"><ele>338.8</ele><time>2026-04-03T13:35:24.145Z</time></trkpt><trkpt lat="44.5956218" lon="8.9533781"><ele>339.4</ele><time>2026-04-03T13:35:25.122Z</time></trkpt><trkpt lat="44.5955338" lon="8.9533803"><ele>340.0</ele><time>2026-04-03T13:35:26.104Z</time></trkpt><trkpt lat="44.5954675" lon="8.9533432"><ele>340.6</ele><time>2026-04-03T13:35:27.107Z</time></trkpt><trkpt lat="44.5954246" lon="8.9531551"><ele>341.2</ele><time>2026-04-03T13:35:29.123Z</time></trkpt><trkpt lat="44.5953948" lon="8.9530411"><ele>341.79999999999995</ele><time>2026-04-03T13:35:30.173Z</time></trkpt><trkpt lat="44.5953668" lon="8.9529378"><ele>342.4</ele><time>2026-04-03T13:35:31.113Z</time></trkpt><trkpt lat="44.5953664" lon="8.9528285"><ele>343.0</ele><time>2026-04-03T13:35:32.119Z</time></trkpt><trkpt lat="44.5953601" lon="8.9526806"><ele>347.0</ele><time>2026-04-03T13:35:33.108Z</time></trkpt><trkpt lat="44.5953734" lon="8.9525092"><ele>351.0</ele><time>2026-04-03T13:35:34.104Z</time></trkpt><trkpt lat="44.5953907" lon="8.9523209"><ele>355.0</ele><time>2026-04-03T13:35:35.11Z</time></trkpt><trkpt lat="44.5953951" lon="8.9521104"><ele>359.0</ele><time>2026-04-03T13:35:36.104Z</time></trkpt><trkpt lat="44.5954189" lon="8.9519001"><ele>362.33333333333337</ele><time>2026-04-03T13:35:37.161Z</time></trkpt><trkpt lat="44.5954368" lon="8.9516903"><ele>365.6666666666667</ele><time>2026-04-03T13:35:38.148Z</time></trkpt><trkpt lat="44.5954513" lon="8.9514713"><ele>369.0</ele><time>2026-04-03T13:35:39.131Z</time></trkpt><trkpt lat="44.5954612" lon="8.9512615"><ele>369.0</ele><time>2026-04-03T13:35:40.171Z</time></trkpt><trkpt lat="44.5954773" lon="8.9510543"><ele>369.0</ele><time>2026-04-03T13:35:41.108Z</time></trkpt><trkpt lat="44.5954841" lon="8.9508546"><ele>369.0</ele><time>2026-04-03T13:35:42.112Z</time></trkpt><trkpt lat="44.5955028" lon="8.9506616"><ele>369.0</ele><time>2026-04-03T13:35:43.159Z</time></trkpt><trkpt lat="44.5955008" lon="8.9504264"><ele>368.3333333333333</ele><time>2026-04-03T13:35:44.179Z</time></trkpt><trkpt lat="44.5955122" lon="8.9501975"><ele>367.66666666666663</ele><time>2026-04-03T13:35:45.161Z</time></trkpt><trkpt lat="44.5955333" lon="8.9499311"><ele>367.0</ele><time>2026-04-03T13:35:46.11Z</time></trkpt><trkpt lat="44.5955535" lon="8.9496821"><ele>366.0</ele><time>2026-04-03T13:35:47.11Z</time></trkpt><trkpt lat="44.5955624" lon="8.949432"><ele>365.0</ele><time>2026-04-03T13:35:48.19Z</time></trkpt><trkpt lat="44.5955809" lon="8.9492043"><ele>364.0</ele><time>2026-04-03T13:35:49.109Z</time></trkpt><trkpt lat="44.5956048" lon="8.9489846"><ele>362.5</ele><time>2026-04-03T13:35:50.12Z</time></trkpt><trkpt lat="44.5956129" lon="8.9488042"><ele>361.0</ele><time>2026-04-03T13:35:51.103Z</time></trkpt><trkpt lat="44.5956181" lon="8.9486298"><ele>359.5</ele><time>2026-04-03T13:35:52.114Z</time></trkpt><trkpt lat="44.5956059" lon="8.9484877"><ele>358.0</ele><time>2026-04-03T13:35:53.15Z</time></trkpt><trkpt lat="44.5955939" lon="8.9483537"><ele>358.0</ele><time>2026-04-03T13:35:54.105Z</time></trkpt><trkpt lat="44.5955757" lon="8.948234"><ele>358.0</ele><time>2026-04-03T13:35:55.114Z</time></trkpt><trkpt lat="44.5955628" lon="8.9481314"><ele>358.0</ele><time>2026-04-03T13:35:56.108Z</time></trkpt><trkpt lat="44.5955376" lon="8.9479935"><ele>358.0</ele><time>2026-04-03T13:35:58.111Z</time></trkpt><trkpt lat="44.5954939" lon="8.9478564"><ele>358.0</ele><time>2026-04-03T13:36:01.106Z</time></trkpt><trkpt lat="44.5954533" lon="8.9476844"><ele>358.0</ele><time>2026-04-03T13:36:03.11Z</time></trkpt><trkpt lat="44.5954382" lon="8.9475936"><ele>358.0</ele><time>2026-04-03T13:36:04.115Z</time></trkpt><trkpt lat="44.5954162" lon="8.9474295"><ele>358.0</ele><time>2026-04-03T13:36:06.113Z</time></trkpt><trkpt lat="44.5954174" lon="8.9472974"><ele>358.0</ele><time>2026-04-03T13:36:07.117Z</time></trkpt><trkpt lat="44.5954174" lon="8.9471606"><ele>358.0</ele><time>2026-04-03T13:36:08.11Z</time></trkpt><trkpt lat="44.5954217" lon="8.9470228"><ele>359.0</ele><time>2026-04-03T13:36:09.109Z</time></trkpt><trkpt lat="44.5954211" lon="8.9468811"><ele>360.0</ele><time>2026-04-03T13:36:10.113Z</time></trkpt><trkpt lat="44.5954258" lon="8.9467587"><ele>361.0</ele><time>2026-04-03T13:36:11.115Z</time></trkpt><trkpt lat="44.5954338" lon="8.9466524"><ele>362.0</ele><time>2026-04-03T13:36:12.11Z</time></trkpt><trkpt lat="44.5954467" lon="8.946544"><ele>363.0</ele><time>2026-04-03T13:36:13.111Z</time></trkpt><trkpt lat="44.5954523" lon="8.946422"><ele>364.0</ele><time>2026-04-03T13:36:14.108Z</time></trkpt><trkpt lat="44.5954985" lon="8.9462701"><ele>364.0</ele><time>2026-04-03T13:36:15.114Z</time></trkpt><trkpt lat="44.5955477" lon="8.9461079"><ele>364.0</ele><time>2026-04-03T13:36:16.108Z</time></trkpt><trkpt lat="44.5955916" lon="8.9459481"><ele>364.0</ele><time>2026-04-03T13:36:17.114Z</time></trkpt><trkpt lat="44.5956311" lon="8.9458053"><ele>364.0</ele><time>2026-04-03T13:36:18.109Z</time></trkpt><trkpt lat="44.5956584" lon="8.945684"><ele>364.0</ele><time>2026-04-03T13:36:19.151Z</time></trkpt><trkpt lat="44.5956845" lon="8.9455663"><ele>364.0</ele><time>2026-04-03T13:36:20.196Z</time></trkpt><trkpt lat="44.5957316" lon="8.9454427"><ele>364.0</ele><time>2026-04-03T13:36:21.109Z</time></trkpt><trkpt lat="44.5957634" lon="8.9453289"><ele>364.0</ele><time>2026-04-03T13:36:22.107Z</time></trkpt><trkpt lat="44.5957811" lon="8.945234"><ele>364.0</ele><time>2026-04-03T13:36:23.142Z</time></trkpt><trkpt lat="44.5958004" lon="8.9451401"><ele>364.0</ele><time>2026-04-03T13:36:24.137Z</time></trkpt><trkpt lat="44.595834" lon="8.9450602"><ele>364.0</ele><time>2026-04-03T13:36:25.144Z</time></trkpt><trkpt lat="44.5958744" lon="8.9449691"><ele>360.6</ele><time>2026-04-03T13:36:26.115Z</time></trkpt><trkpt lat="44.5959421" lon="8.9448104"><ele>357.2</ele><time>2026-04-03T13:36:28.168Z</time></trkpt><trkpt lat="44.5959975" lon="8.9447105"><ele>353.8</ele><time>2026-04-03T13:36:29.146Z</time></trkpt><trkpt lat="44.5960423" lon="8.9446424"><ele>350.40000000000003</ele><time>2026-04-03T13:36:30.171Z</time></trkpt><trkpt lat="44.5961215" lon="8.9445137"><ele>347.0</ele><time>2026-04-03T13:36:31.109Z</time></trkpt><trkpt lat="44.596188" lon="8.944416"><ele>351.8</ele><time>2026-04-03T13:36:32.11Z</time></trkpt><trkpt lat="44.5962707" lon="8.9443475"><ele>356.6</ele><time>2026-04-03T13:36:33.113Z</time></trkpt><trkpt lat="44.5963307" lon="8.9442585"><ele>361.40000000000003</ele><time>2026-04-03T13:36:34.11Z</time></trkpt><trkpt lat="44.5964079" lon="8.9441724"><ele>366.20000000000005</ele><time>2026-04-03T13:36:35.147Z</time></trkpt><trkpt lat="44.5964799" lon="8.9440831"><ele>371.0</ele><time>2026-04-03T13:36:36.11Z</time></trkpt><trkpt lat="44.5965295" lon="8.9439802"><ele>371.0</ele><time>2026-04-03T13:36:37.107Z</time></trkpt><trkpt lat="44.5965616" lon="8.9438462"><ele>371.0</ele><time>2026-04-03T13:36:38.14Z</time></trkpt><trkpt lat="44.5966158" lon="8.9437261"><ele>371.0</ele><time>2026-04-03T13:36:39.156Z</time></trkpt><trkpt lat="44.5966551" lon="8.9435762"><ele>371.0</ele><time>2026-04-03T13:36:40.17Z</time></trkpt><trkpt lat="44.596711" lon="8.9434676"><ele>371.0</ele><time>2026-04-03T13:36:41.108Z</time></trkpt><trkpt lat="44.596697" lon="8.9433028"><ele>369.1666666666667</ele><time>2026-04-03T13:36:42.112Z</time></trkpt><trkpt lat="44.5967" lon="8.9431728"><ele>367.33333333333337</ele><time>2026-04-03T13:36:43.147Z</time></trkpt><trkpt lat="44.5966953" lon="8.9430738"><ele>365.5</ele><time>2026-04-03T13:36:44.17Z</time></trkpt><trkpt lat="44.5966834" lon="8.9429744"><ele>363.6666666666667</ele><time>2026-04-03T13:36:45.148Z</time></trkpt><trkpt lat="44.5966825" lon="8.942843"><ele>361.8333333333333</ele><time>2026-04-03T13:36:46.112Z</time></trkpt><trkpt lat="44.5966884" lon="8.9426818"><ele>360.0</ele><time>2026-04-03T13:36:47.108Z</time></trkpt><trkpt lat="44.5967001" lon="8.9425284"><ele>358.6</ele><time>2026-04-03T13:36:48.107Z</time></trkpt><trkpt lat="44.5967023" lon="8.9423775"><ele>357.2</ele><time>2026-04-03T13:36:49.168Z</time></trkpt><trkpt lat="44.5967025" lon="8.9422298"><ele>355.79999999999995</ele><time>2026-04-03T13:36:50.175Z</time></trkpt><trkpt lat="44.5967106" lon="8.9421022"><ele>354.4</ele><time>2026-04-03T13:36:51.112Z</time></trkpt><trkpt lat="44.5967082" lon="8.9419643"><ele>353.0</ele><time>2026-04-03T13:36:52.101Z</time></trkpt><trkpt lat="44.5967169" lon="8.941842"><ele>353.0</ele><time>2026-04-03T13:36:53.155Z</time></trkpt><trkpt lat="44.5967141" lon="8.9417389"><ele>353.0</ele><time>2026-04-03T13:36:54.182Z</time></trkpt><trkpt lat="44.5967032" lon="8.941626"><ele>353.0</ele><time>2026-04-03T13:36:55.162Z</time></trkpt><trkpt lat="44.5966856" lon="8.9414974"><ele>353.0</ele><time>2026-04-03T13:36:56.117Z</time></trkpt><trkpt lat="44.596636" lon="8.9413612"><ele>353.0</ele><time>2026-04-03T13:36:57.109Z</time></trkpt><trkpt lat="44.5965787" lon="8.9412445"><ele>353.5</ele><time>2026-04-03T13:36:58.108Z</time></trkpt><trkpt lat="44.5964986" lon="8.941127"><ele>354.0</ele><time>2026-04-03T13:36:59.195Z</time></trkpt><trkpt lat="44.5964197" lon="8.9410237"><ele>354.5</ele><time>2026-04-03T13:37:00.168Z</time></trkpt><trkpt lat="44.5963167" lon="8.9408956"><ele>355.0</ele><time>2026-04-03T13:37:01.108Z</time></trkpt><trkpt lat="44.5962254" lon="8.9408004"><ele>353.6</ele><time>2026-04-03T13:37:02.108Z</time></trkpt><trkpt lat="44.5961335" lon="8.9407102"><ele>352.2</ele><time>2026-04-03T13:37:03.16Z</time></trkpt><trkpt lat="44.5960382" lon="8.9406365"><ele>350.79999999999995</ele><time>2026-04-03T13:37:04.18Z</time></trkpt><trkpt lat="44.5959681" lon="8.9405485"><ele>349.4</ele><time>2026-04-03T13:37:05.165Z</time></trkpt><trkpt lat="44.5959038" lon="8.9404504"><ele>348.0</ele><time>2026-04-03T13:37:06.107Z</time></trkpt><trkpt lat="44.5958247" lon="8.9403368"><ele>348.0</ele><time>2026-04-03T13:37:07.111Z</time></trkpt><trkpt lat="44.5957044" lon="8.940237"><ele>348.0</ele><time>2026-04-03T13:37:08.19Z</time></trkpt><trkpt lat="44.5955365" lon="8.9401523"><ele>348.0</ele><time>2026-04-03T13:37:09.178Z</time></trkpt><trkpt lat="44.595302" lon="8.9400736"><ele>348.3333333333333</ele><time>2026-04-03T13:37:10.2Z</time></trkpt><trkpt lat="44.5951276" lon="8.9399886"><ele>348.66666666666663</ele><time>2026-04-03T13:37:11.115Z</time></trkpt><trkpt lat="44.5949682" lon="8.939914"><ele>349.0</ele><time>2026-04-03T13:37:12.109Z</time></trkpt><trkpt lat="44.5948155" lon="8.9398368"><ele>349.0</ele><time>2026-04-03T13:37:13.187Z</time></trkpt><trkpt lat="44.5946819" lon="8.9397673"><ele>349.0</ele><time>2026-04-03T13:37:14.159Z</time></trkpt><trkpt lat="44.5945535" lon="8.9397056"><ele>349.0</ele><time>2026-04-03T13:37:15.168Z</time></trkpt><trkpt lat="44.5944428" lon="8.9396586"><ele>349.0</ele><time>2026-04-03T13:37:16.114Z</time></trkpt><trkpt lat="44.5943295" lon="8.9395987"><ele>348.6</ele><time>2026-04-03T13:37:17.102Z</time></trkpt><trkpt lat="44.5942263" lon="8.9395381"><ele>348.2</ele><time>2026-04-03T13:37:18.164Z</time></trkpt><trkpt lat="44.5941181" lon="8.9394806"><ele>347.8</ele><time>2026-04-03T13:37:19.137Z</time></trkpt><trkpt lat="44.5940109" lon="8.9394276"><ele>347.40000000000003</ele><time>2026-04-03T13:37:20.151Z</time></trkpt><trkpt lat="44.5939112" lon="8.9393728"><ele>347.0</ele><time>2026-04-03T13:37:21.112Z</time></trkpt><trkpt lat="44.5938359" lon="8.9393264"><ele>347.0</ele><time>2026-04-03T13:37:22.106Z</time></trkpt><trkpt lat="44.5937661" lon="8.9392875"><ele>347.0</ele><time>2026-04-03T13:37:23.14Z</time></trkpt><trkpt lat="44.593645" lon="8.9392246"><ele>347.0</ele><time>2026-04-03T13:37:25.151Z</time></trkpt><trkpt lat="44.5935815" lon="8.9391849"><ele>347.0</ele><time>2026-04-03T13:37:26.119Z</time></trkpt><trkpt lat="44.5935009" lon="8.9391392"><ele>347.0</ele><time>2026-04-03T13:37:27.108Z</time></trkpt><trkpt lat="44.5934192" lon="8.9390972"><ele>347.0</ele><time>2026-04-03T13:37:28.146Z</time></trkpt><trkpt lat="44.593327" lon="8.9390469"><ele>347.6</ele><time>2026-04-03T13:37:29.146Z</time></trkpt><trkpt lat="44.5932352" lon="8.9390087"><ele>348.20000000000005</ele><time>2026-04-03T13:37:30.158Z</time></trkpt><trkpt lat="44.5931352" lon="8.938939"><ele>348.8</ele><time>2026-04-03T13:37:31.11Z</time></trkpt><trkpt lat="44.5930654" lon="8.938901"><ele>349.4</ele><time>2026-04-03T13:37:32.111Z</time></trkpt><trkpt lat="44.5929544" lon="8.9388486"><ele>350.0</ele><time>2026-04-03T13:37:34.173Z</time></trkpt><trkpt lat="44.5928885" lon="8.9388132"><ele>349.33333333333337</ele><time>2026-04-03T13:37:36.111Z</time></trkpt><trkpt lat="44.5928075" lon="8.9387575"><ele>348.6666666666667</ele><time>2026-04-03T13:37:39.109Z</time></trkpt><trkpt lat="44.592743" lon="8.9387093"><ele>348.0</ele><time>2026-04-03T13:37:42.161Z</time></trkpt><trkpt lat="44.5926708" lon="8.9386668"><ele>347.3333333333333</ele><time>2026-04-03T13:38:02.118Z</time></trkpt><trkpt lat="44.5925785" lon="8.9386413"><ele>346.66666666666663</ele><time>2026-04-03T13:38:04.182Z</time></trkpt><trkpt lat="44.5924967" lon="8.9386101"><ele>346.0</ele><time>2026-04-03T13:38:05.105Z</time></trkpt><trkpt lat="44.592329" lon="8.9385381"><ele>346.0</ele><time>2026-04-03T13:38:06.12Z</time></trkpt><trkpt lat="44.592223" lon="8.9384795"><ele>346.0</ele><time>2026-04-03T13:38:07.189Z</time></trkpt><trkpt lat="44.5921041" lon="8.9384027"><ele>346.0</ele><time>2026-04-03T13:38:08.192Z</time></trkpt><trkpt lat="44.5920065" lon="8.9383525"><ele>346.0</ele><time>2026-04-03T13:38:09.109Z</time></trkpt><trkpt lat="44.5919044" lon="8.9382976"><ele>347.75</ele><time>2026-04-03T13:38:10.188Z</time></trkpt><trkpt lat="44.5918056" lon="8.9382246"><ele>349.5</ele><time>2026-04-03T13:38:11.111Z</time></trkpt><trkpt lat="44.5916974" lon="8.9381446"><ele>351.25</ele><time>2026-04-03T13:38:12.11Z</time></trkpt><trkpt lat="44.5915943" lon="8.9380677"><ele>353.0</ele><time>2026-04-03T13:38:13.163Z</time></trkpt><trkpt lat="44.5914804" lon="8.9379845"><ele>353.0</ele><time>2026-04-03T13:38:14.162Z</time></trkpt><trkpt lat="44.5913569" lon="8.9378998"><ele>353.0</ele><time>2026-04-03T13:38:15.144Z</time></trkpt><trkpt lat="44.5912262" lon="8.9378214"><ele>353.0</ele><time>2026-04-03T13:38:16.113Z</time></trkpt><trkpt lat="44.5910997" lon="8.9377562"><ele>353.0</ele><time>2026-04-03T13:38:17.113Z</time></trkpt><trkpt lat="44.5909881" lon="8.937693"><ele>352.79999999999995</ele><time>2026-04-03T13:38:18.141Z</time></trkpt><trkpt lat="44.5908822" lon="8.9376423"><ele>352.6</ele><time>2026-04-03T13:38:19.113Z</time></trkpt><trkpt lat="44.5907742" lon="8.9375858"><ele>352.4</ele><time>2026-04-03T13:38:20.168Z</time></trkpt><trkpt lat="44.5906806" lon="8.9375302"><ele>352.20000000000005</ele><time>2026-04-03T13:38:21.106Z</time></trkpt><trkpt lat="44.5905908" lon="8.9374661"><ele>352.0</ele><time>2026-04-03T13:38:22.115Z</time></trkpt><trkpt lat="44.5905016" lon="8.9374192"><ele>352.42857142857144</ele><time>2026-04-03T13:38:23.172Z</time></trkpt><trkpt lat="44.5904224" lon="8.9373795"><ele>352.85714285714283</ele><time>2026-04-03T13:38:24.171Z</time></trkpt><trkpt lat="44.5903538" lon="8.9373328"><ele>353.2857142857143</ele><time>2026-04-03T13:38:25.16Z</time></trkpt><trkpt lat="44.5902849" lon="8.9373017"><ele>353.7142857142857</ele><time>2026-04-03T13:38:26.112Z</time></trkpt><trkpt lat="44.5902212" lon="8.9372656"><ele>354.14285714285717</ele><time>2026-04-03T13:38:27.107Z</time></trkpt><trkpt lat="44.5901557" lon="8.9372557"><ele>354.57142857142856</ele><time>2026-04-03T13:38:28.109Z</time></trkpt><trkpt lat="44.5900742" lon="8.9372602"><ele>355.0</ele><time>2026-04-03T13:38:29.145Z</time></trkpt><trkpt lat="44.5900048" lon="8.9372529"><ele>355.0</ele><time>2026-04-03T13:38:30.142Z</time></trkpt><trkpt lat="44.5899263" lon="8.9372502"><ele>355.0</ele><time>2026-04-03T13:38:31.113Z</time></trkpt><trkpt lat="44.5898357" lon="8.9372567"><ele>355.0</ele><time>2026-04-03T13:38:32.11Z</time></trkpt><trkpt lat="44.5897526" lon="8.9372673"><ele>355.0</ele><time>2026-04-03T13:38:33.149Z</time></trkpt><trkpt lat="44.5896566" lon="8.9372819"><ele>355.0</ele><time>2026-04-03T13:38:34.114Z</time></trkpt><trkpt lat="44.5895551" lon="8.9373035"><ele>354.8</ele><time>2026-04-03T13:38:35.106Z</time></trkpt><trkpt lat="44.5894543" lon="8.9373307"><ele>354.6</ele><time>2026-04-03T13:38:36.115Z</time></trkpt><trkpt lat="44.5893537" lon="8.9373521"><ele>354.4</ele><time>2026-04-03T13:38:37.18Z</time></trkpt><trkpt lat="44.5892438" lon="8.9373734"><ele>354.2</ele><time>2026-04-03T13:38:38.174Z</time></trkpt><trkpt lat="44.5891392" lon="8.9373968"><ele>354.0</ele><time>2026-04-03T13:38:39.114Z</time></trkpt><trkpt lat="44.5890321" lon="8.9374249"><ele>354.0</ele><time>2026-04-03T13:38:40.105Z</time></trkpt><trkpt lat="44.588933" lon="8.9374494"><ele>354.0</ele><time>2026-04-03T13:38:41.111Z</time></trkpt><trkpt lat="44.5888441" lon="8.9374755"><ele>354.0</ele><time>2026-04-03T13:38:42.113Z</time></trkpt><trkpt lat="44.5887504" lon="8.9374902"><ele>354.0</ele><time>2026-04-03T13:38:43.184Z</time></trkpt><trkpt lat="44.5886517" lon="8.9375023"><ele>354.0</ele><time>2026-04-03T13:38:44.106Z</time></trkpt><trkpt lat="44.5885515" lon="8.9375304"><ele>353.75</ele><time>2026-04-03T13:38:45.113Z</time></trkpt><trkpt lat="44.5884305" lon="8.937561"><ele>353.5</ele><time>2026-04-03T13:38:46.11Z</time></trkpt><trkpt lat="44.5883145" lon="8.9375865"><ele>353.25</ele><time>2026-04-03T13:38:47.115Z</time></trkpt><trkpt lat="44.5881898" lon="8.9376198"><ele>353.0</ele><time>2026-04-03T13:38:48.112Z</time></trkpt><trkpt lat="44.5880631" lon="8.9376584"><ele>353.0</ele><time>2026-04-03T13:38:49.114Z</time></trkpt><trkpt lat="44.5879363" lon="8.9376946"><ele>353.0</ele><time>2026-04-03T13:38:50.111Z</time></trkpt><trkpt lat="44.5878117" lon="8.9377185"><ele>353.0</ele><time>2026-04-03T13:38:51.114Z</time></trkpt><trkpt lat="44.5876948" lon="8.9377515"><ele>353.0</ele><time>2026-04-03T13:38:52.11Z</time></trkpt><trkpt lat="44.5876097" lon="8.9377857"><ele>353.1666666666667</ele><time>2026-04-03T13:38:53.113Z</time></trkpt><trkpt lat="44.5875304" lon="8.9378146"><ele>353.33333333333337</ele><time>2026-04-03T13:38:54.111Z</time></trkpt><trkpt lat="44.5874501" lon="8.9378498"><ele>353.5</ele><time>2026-04-03T13:38:55.112Z</time></trkpt><trkpt lat="44.5875558" lon="8.9377819"><ele>353.6666666666667</ele><time>2026-04-03T13:38:57.107Z</time></trkpt><trkpt lat="44.5874821" lon="8.9378317"><ele>353.8333333333333</ele><time>2026-04-03T13:39:08.117Z</time></trkpt><trkpt lat="44.5874148" lon="8.9378673"><ele>354.0</ele><time>2026-04-03T13:39:10.111Z</time></trkpt><trkpt lat="44.5873401" lon="8.9378958"><ele>354.0</ele><time>2026-04-03T13:39:12.112Z</time></trkpt><trkpt lat="44.5872658" lon="8.9379143"><ele>354.0</ele><time>2026-04-03T13:39:14.11Z</time></trkpt><trkpt lat="44.58715" lon="8.9378998"><ele>354.0</ele><time>2026-04-03T13:39:16.106Z</time></trkpt><trkpt lat="44.5870148" lon="8.9379264"><ele>354.0</ele><time>2026-04-03T13:39:17.999Z</time></trkpt><trkpt lat="44.5869271" lon="8.9379512"><ele>354.0</ele><time>2026-04-03T13:39:19.11Z</time></trkpt><trkpt lat="44.5868462" lon="8.9379664"><ele>354.1666666666667</ele><time>2026-04-03T13:39:20.11Z</time></trkpt><trkpt lat="44.5867699" lon="8.9379785"><ele>354.3333333333333</ele><time>2026-04-03T13:39:21.105Z</time></trkpt><trkpt lat="44.586693" lon="8.9379861"><ele>354.5</ele><time>2026-04-03T13:39:22.109Z</time></trkpt><trkpt lat="44.5866197" lon="8.9380075"><ele>354.66666666666663</ele><time>2026-04-03T13:39:23.111Z</time></trkpt><trkpt lat="44.5865493" lon="8.9380362"><ele>354.8333333333333</ele><time>2026-04-03T13:39:24.114Z</time></trkpt><trkpt lat="44.5864718" lon="8.9380481"><ele>355.0</ele><time>2026-04-03T13:39:26.111Z</time></trkpt><trkpt lat="44.5863854" lon="8.9380633"><ele>355.0</ele><time>2026-04-03T13:39:29.101Z</time></trkpt><trkpt lat="44.5862917" lon="8.9380995"><ele>355.0</ele><time>2026-04-03T13:39:31.111Z</time></trkpt><trkpt lat="44.5862165" lon="8.938123"><ele>355.0</ele><time>2026-04-03T13:39:33.112Z</time></trkpt><trkpt lat="44.5860946" lon="8.9381295"><ele>355.0</ele><time>2026-04-03T13:39:35.107Z</time></trkpt><trkpt lat="44.5859294" lon="8.9381797"><ele>355.6</ele><time>2026-04-03T13:39:37.107Z</time></trkpt><trkpt lat="44.585819" lon="8.9381779"><ele>356.2</ele><time>2026-04-03T13:39:38.11Z</time></trkpt><trkpt lat="44.5856989" lon="8.9382023"><ele>356.79999999999995</ele><time>2026-04-03T13:39:39.109Z</time></trkpt><trkpt lat="44.5855877" lon="8.9382299"><ele>357.4</ele><time>2026-04-03T13:39:40.111Z</time></trkpt><trkpt lat="44.5854949" lon="8.9382395"><ele>358.0</ele><time>2026-04-03T13:39:41.107Z</time></trkpt><trkpt lat="44.5853769" lon="8.9382736"><ele>358.66666666666663</ele><time>2026-04-03T13:39:42.111Z</time></trkpt><trkpt lat="44.5852866" lon="8.9382943"><ele>359.3333333333333</ele><time>2026-04-03T13:39:43.113Z</time></trkpt><trkpt lat="44.5851963" lon="8.9383112"><ele>360.0</ele><time>2026-04-03T13:39:44.108Z</time></trkpt><trkpt lat="44.5851082" lon="8.9383266"><ele>360.6666666666667</ele><time>2026-04-03T13:39:45.105Z</time></trkpt><trkpt lat="44.585027" lon="8.9383475"><ele>361.33333333333337</ele><time>2026-04-03T13:39:46.106Z</time></trkpt><trkpt lat="44.5849567" lon="8.9383661"><ele>362.0</ele><time>2026-04-03T13:39:47.106Z</time></trkpt><trkpt lat="44.5848849" lon="8.9383807"><ele>360.83333333333337</ele><time>2026-04-03T13:39:48.113Z</time></trkpt><trkpt lat="44.5848124" lon="8.9383955"><ele>359.6666666666667</ele><time>2026-04-03T13:39:49.114Z</time></trkpt><trkpt lat="44.5847429" lon="8.9384136"><ele>358.5</ele><time>2026-04-03T13:39:50.111Z</time></trkpt><trkpt lat="44.5846732" lon="8.938428"><ele>357.3333333333333</ele><time>2026-04-03T13:39:51.113Z</time></trkpt><trkpt lat="44.5845985" lon="8.9384416"><ele>356.16666666666663</ele><time>2026-04-03T13:39:52.107Z</time></trkpt><trkpt lat="44.5845139" lon="8.9384642"><ele>355.0</ele><time>2026-04-03T13:39:53.117Z</time></trkpt><trkpt lat="44.5844307" lon="8.9384818"><ele>355.0</ele><time>2026-04-03T13:39:54.112Z</time></trkpt><trkpt lat="44.5843387" lon="8.9385028"><ele>355.0</ele><time>2026-04-03T13:39:55.113Z</time></trkpt><trkpt lat="44.5842424" lon="8.9385192"><ele>355.0</ele><time>2026-04-03T13:39:56.113Z</time></trkpt><trkpt lat="44.5841642" lon="8.9385343"><ele>355.0</ele><time>2026-04-03T13:39:57.114Z</time></trkpt><trkpt lat="44.5840928" lon="8.9385483"><ele>355.0</ele><time>2026-04-03T13:39:58.107Z</time></trkpt><trkpt lat="44.5840263" lon="8.9385577"><ele>355.0</ele><time>2026-04-03T13:39:59.11Z</time></trkpt><trkpt lat="44.5839629" lon="8.9385727"><ele>355.0</ele><time>2026-04-03T13:40:00.108Z</time></trkpt><trkpt lat="44.5838741" lon="8.9385798"><ele>355.0</ele><time>2026-04-03T13:40:02.112Z</time></trkpt><trkpt lat="44.5837836" lon="8.9386008"><ele>355.0</ele><time>2026-04-03T13:40:05Z</time></trkpt><trkpt lat="44.583694" lon="8.9386071"><ele>355.0</ele><time>2026-04-03T13:40:08.112Z</time></trkpt><trkpt lat="44.5836003" lon="8.9386241"><ele>355.0</ele><time>2026-04-03T13:40:11.113Z</time></trkpt><trkpt lat="44.5835244" lon="8.9386413"><ele>355.0</ele><time>2026-04-03T13:40:14.105Z</time></trkpt><trkpt lat="44.5834604" lon="8.9386587"><ele>355.2</ele><time>2026-04-03T13:40:16.102Z</time></trkpt><trkpt lat="44.5833322" lon="8.9386915"><ele>355.4</ele><time>2026-04-03T13:40:18.106Z</time></trkpt><trkpt lat="44.5832573" lon="8.9387067"><ele>355.6</ele><time>2026-04-03T13:40:19.103Z</time></trkpt><trkpt lat="44.5831521" lon="8.9387306"><ele>355.8</ele><time>2026-04-03T13:40:21.107Z</time></trkpt><trkpt lat="44.5830234" lon="8.9387633"><ele>356.0</ele><time>2026-04-03T13:40:23.116Z</time></trkpt><trkpt lat="44.5829569" lon="8.9387873"><ele>356.4</ele><time>2026-04-03T13:40:24.11Z</time></trkpt><trkpt lat="44.5828416" lon="8.9388099"><ele>356.8</ele><time>2026-04-03T13:40:25.105Z</time></trkpt><trkpt lat="44.5827384" lon="8.9388211"><ele>357.2</ele><time>2026-04-03T13:40:26.128Z</time></trkpt><trkpt lat="44.5826347" lon="8.9388302"><ele>357.59999999999997</ele><time>2026-04-03T13:40:27.115Z</time></trkpt><trkpt lat="44.5825274" lon="8.9388527"><ele>358.0</ele><time>2026-04-03T13:40:28.113Z</time></trkpt><trkpt lat="44.5824245" lon="8.9388678"><ele>358.0</ele><time>2026-04-03T13:40:29.114Z</time></trkpt><trkpt lat="44.5823393" lon="8.9388747"><ele>358.0</ele><time>2026-04-03T13:40:30.112Z</time></trkpt><trkpt lat="44.5822721" lon="8.9388888"><ele>358.0</ele><time>2026-04-03T13:40:31.107Z</time></trkpt><trkpt lat="44.5821635" lon="8.9388923"><ele>358.0</ele><time>2026-04-03T13:40:33.111Z</time></trkpt><trkpt lat="44.5820567" lon="8.9389178"><ele>358.0</ele><time>2026-04-03T13:40:35.109Z</time></trkpt><trkpt lat="44.5819873" lon="8.9389291"><ele>358.0</ele><time>2026-04-03T13:40:36.119Z</time></trkpt><trkpt lat="44.581835" lon="8.9389695"><ele>358.0</ele><time>2026-04-03T13:40:38.107Z</time></trkpt><trkpt lat="44.5816806" lon="8.9389493"><ele>358.0</ele><time>2026-04-03T13:40:39.113Z</time></trkpt><trkpt lat="44.5815751" lon="8.9389081"><ele>358.0</ele><time>2026-04-03T13:40:40.107Z</time></trkpt><trkpt lat="44.5814772" lon="8.938895"><ele>358.0</ele><time>2026-04-03T13:40:41.118Z</time></trkpt><trkpt lat="44.5813855" lon="8.9388949"><ele>358.0</ele><time>2026-04-03T13:40:42.111Z</time></trkpt><trkpt lat="44.5812966" lon="8.9388938"><ele>358.0</ele><time>2026-04-03T13:40:43.114Z</time></trkpt><trkpt lat="44.5811946" lon="8.9389016"><ele>358.0</ele><time>2026-04-03T13:40:44.11Z</time></trkpt><trkpt lat="44.5810825" lon="8.938909"><ele>358.0</ele><time>2026-04-03T13:40:45.111Z</time></trkpt><trkpt lat="44.5809818" lon="8.9389043"><ele>358.0</ele><time>2026-04-03T13:40:46.115Z</time></trkpt><trkpt lat="44.5808955" lon="8.9388999"><ele>358.75</ele><time>2026-04-03T13:40:47.114Z</time></trkpt><trkpt lat="44.5807754" lon="8.9389675"><ele>359.5</ele><time>2026-04-03T13:40:48.115Z</time></trkpt><trkpt lat="44.5806525" lon="8.9390193"><ele>360.25</ele><time>2026-04-03T13:40:49.11Z</time></trkpt><trkpt lat="44.580526" lon="8.9390853"><ele>361.0</ele><time>2026-04-03T13:40:50.11Z</time></trkpt><trkpt lat="44.5804061" lon="8.9391432"><ele>359.3333333333333</ele><time>2026-04-03T13:40:51.118Z</time></trkpt><trkpt lat="44.5802867" lon="8.9392068"><ele>357.6666666666667</ele><time>2026-04-03T13:40:52.112Z</time></trkpt><trkpt lat="44.5801353" lon="8.9393172"><ele>356.0</ele><time>2026-04-03T13:40:53.104Z</time></trkpt><trkpt lat="44.5799667" lon="8.9394562"><ele>356.0</ele><time>2026-04-03T13:40:54.115Z</time></trkpt><trkpt lat="44.5798094" lon="8.9395698"><ele>356.0</ele><time>2026-04-03T13:40:55.107Z</time></trkpt><trkpt lat="44.5796454" lon="8.9396876"><ele>356.0</ele><time>2026-04-03T13:40:56.112Z</time></trkpt><trkpt lat="44.5794825" lon="8.9398007"><ele>357.0</ele><time>2026-04-03T13:40:57.113Z</time></trkpt><trkpt lat="44.5793256" lon="8.9399072"><ele>358.0</ele><time>2026-04-03T13:40:58.111Z</time></trkpt><trkpt lat="44.5791891" lon="8.9399962"><ele>359.0</ele><time>2026-04-03T13:40:59.11Z</time></trkpt><trkpt lat="44.5790735" lon="8.9400848"><ele>359.2</ele><time>2026-04-03T13:41:00.115Z</time></trkpt><trkpt lat="44.578972" lon="8.9401563"><ele>359.4</ele><time>2026-04-03T13:41:01.116Z</time></trkpt><trkpt lat="44.578887" lon="8.9402014"><ele>359.6</ele><time>2026-04-03T13:41:02.113Z</time></trkpt><trkpt lat="44.5788129" lon="8.9402495"><ele>359.8</ele><time>2026-04-03T13:41:03.114Z</time></trkpt><trkpt lat="44.5787197" lon="8.9403119"><ele>360.0</ele><time>2026-04-03T13:41:05.108Z</time></trkpt><trkpt lat="44.5786304" lon="8.9403833"><ele>360.0</ele><time>2026-04-03T13:41:07.111Z</time></trkpt><trkpt lat="44.5785692" lon="8.940436"><ele>360.0</ele><time>2026-04-03T13:41:08.125Z</time></trkpt><trkpt lat="44.5784908" lon="8.9405015"><ele>360.0</ele><time>2026-04-03T13:41:09.106Z</time></trkpt><trkpt lat="44.5784034" lon="8.9405693"><ele>360.0</ele><time>2026-04-03T13:41:10.118Z</time></trkpt><trkpt lat="44.578312" lon="8.9406301"><ele>360.0</ele><time>2026-04-03T13:41:11.114Z</time></trkpt><trkpt lat="44.5782269" lon="8.940698"><ele>360.0</ele><time>2026-04-03T13:41:12.111Z</time></trkpt><trkpt lat="44.5781506" lon="8.9407548"><ele>360.0</ele><time>2026-04-03T13:41:13.114Z</time></trkpt><trkpt lat="44.5780587" lon="8.9408301"><ele>360.0</ele><time>2026-04-03T13:41:14.111Z</time></trkpt><trkpt lat="44.5779568" lon="8.9408992"><ele>360.0</ele><time>2026-04-03T13:41:15.107Z</time></trkpt><trkpt lat="44.5778574" lon="8.9409606"><ele>360.0</ele><time>2026-04-03T13:41:16.114Z</time></trkpt><trkpt lat="44.5777591" lon="8.9410333"><ele>359.6</ele><time>2026-04-03T13:41:17.106Z</time></trkpt><trkpt lat="44.5776568" lon="8.9411025"><ele>359.2</ele><time>2026-04-03T13:41:18.111Z</time></trkpt><trkpt lat="44.5775638" lon="8.9411691"><ele>358.79999999999995</ele><time>2026-04-03T13:41:19.111Z</time></trkpt><trkpt lat="44.5774665" lon="8.9412303"><ele>358.4</ele><time>2026-04-03T13:41:20.115Z</time></trkpt><trkpt lat="44.577358" lon="8.941296"><ele>358.0</ele><time>2026-04-03T13:41:21.112Z</time></trkpt><trkpt lat="44.5772729" lon="8.9413463"><ele>358.0</ele><time>2026-04-03T13:41:22.114Z</time></trkpt><trkpt lat="44.5771935" lon="8.9414116"><ele>358.0</ele><time>2026-04-03T13:41:23.11Z</time></trkpt><trkpt lat="44.5771325" lon="8.9414584"><ele>358.0</ele><time>2026-04-03T13:41:24.115Z</time></trkpt><trkpt lat="44.5770692" lon="8.9415095"><ele>358.0</ele><time>2026-04-03T13:41:25.108Z</time></trkpt><trkpt lat="44.5769938" lon="8.9415884"><ele>358.0</ele><time>2026-04-03T13:41:28.102Z</time></trkpt><trkpt lat="44.5769218" lon="8.9416673"><ele>358.0</ele><time>2026-04-03T13:41:30.114Z</time></trkpt><trkpt lat="44.5768613" lon="8.9417321"><ele>358.66666666666663</ele><time>2026-04-03T13:41:31.104Z</time></trkpt><trkpt lat="44.5767785" lon="8.9418202"><ele>359.3333333333333</ele><time>2026-04-03T13:41:32.112Z</time></trkpt><trkpt lat="44.5766811" lon="8.9419294"><ele>360.0</ele><time>2026-04-03T13:41:33.108Z</time></trkpt><trkpt lat="44.5765281" lon="8.9421768"><ele>360.0</ele><time>2026-04-03T13:41:35.108Z</time></trkpt><trkpt lat="44.5764709" lon="8.9422663"><ele>360.0</ele><time>2026-04-03T13:41:36.102Z</time></trkpt><trkpt lat="44.5764096" lon="8.942384"><ele>360.0</ele><time>2026-04-03T13:41:38.113Z</time></trkpt><trkpt lat="44.5763401" lon="8.9424847"><ele>360.0</ele><time>2026-04-03T13:41:40.104Z</time></trkpt><trkpt lat="44.5762679" lon="8.9425795"><ele>360.0</ele><time>2026-04-03T13:41:42.105Z</time></trkpt><trkpt lat="44.5761378" lon="8.9427054"><ele>360.5</ele><time>2026-04-03T13:41:45.164Z</time></trkpt><trkpt lat="44.5760793" lon="8.9427643"><ele>361.0</ele><time>2026-04-03T13:41:46.11Z</time></trkpt><trkpt lat="44.5760102" lon="8.942816"><ele>361.5</ele><time>2026-04-03T13:41:48.108Z</time></trkpt><trkpt lat="44.5759376" lon="8.9428599"><ele>362.0</ele><time>2026-04-03T13:41:51.102Z</time></trkpt><trkpt lat="44.5758554" lon="8.9429257"><ele>362.5</ele><time>2026-04-03T13:41:54.152Z</time></trkpt><trkpt lat="44.5757822" lon="8.9429772"><ele>363.0</ele><time>2026-04-03T13:41:56.118Z</time></trkpt><trkpt lat="44.575716" lon="8.943022"><ele>363.0</ele><time>2026-04-03T13:41:58.104Z</time></trkpt><trkpt lat="44.5756419" lon="8.9430751"><ele>363.0</ele><time>2026-04-03T13:42:00.191Z</time></trkpt><trkpt lat="44.5754589" lon="8.943129"><ele>363.0</ele><time>2026-04-03T13:42:02.106Z</time></trkpt><trkpt lat="44.5754029" lon="8.9431803"><ele>363.0</ele><time>2026-04-03T13:42:03.108Z</time></trkpt><trkpt lat="44.575319" lon="8.9432124"><ele>363.0</ele><time>2026-04-03T13:42:04.104Z</time></trkpt><trkpt lat="44.5752214" lon="8.9432804"><ele>363.4</ele><time>2026-04-03T13:42:05.119Z</time></trkpt><trkpt lat="44.5751325" lon="8.9433424"><ele>363.79999999999995</ele><time>2026-04-03T13:42:06.112Z</time></trkpt><trkpt lat="44.5750493" lon="8.9434039"><ele>364.2</ele><time>2026-04-03T13:42:07.109Z</time></trkpt><trkpt lat="44.574962" lon="8.9434377"><ele>364.6</ele><time>2026-04-03T13:42:08.109Z</time></trkpt><trkpt lat="44.5748743" lon="8.9434882"><ele>365.0</ele><time>2026-04-03T13:42:09.107Z</time></trkpt><trkpt lat="44.5747884" lon="8.9435416"><ele>365.25</ele><time>2026-04-03T13:42:10.113Z</time></trkpt><trkpt lat="44.5747151" lon="8.9435259"><ele>365.5</ele><time>2026-04-03T13:42:11.106Z</time></trkpt><trkpt lat="44.5746522" lon="8.943565"><ele>365.75</ele><time>2026-04-03T13:42:12.109Z</time></trkpt><trkpt lat="44.574562" lon="8.9435897"><ele>366.0</ele><time>2026-04-03T13:42:14.198Z</time></trkpt><trkpt lat="44.5742909" lon="8.9437388"><ele>366.0</ele><time>2026-04-03T13:42:23.104Z</time></trkpt><trkpt lat="44.5740876" lon="8.9438021"><ele>366.0</ele><time>2026-04-03T13:42:25.168Z</time></trkpt><trkpt lat="44.5740227" lon="8.9438282"><ele>366.0</ele><time>2026-04-03T13:42:26.11Z</time></trkpt><trkpt lat="44.5739524" lon="8.9438587"><ele>366.0</ele><time>2026-04-03T13:42:27.148Z</time></trkpt><trkpt lat="44.5738467" lon="8.9439079"><ele>366.0</ele><time>2026-04-03T13:42:29.111Z</time></trkpt><trkpt lat="44.5737774" lon="8.9439308"><ele>366.0</ele><time>2026-04-03T13:42:31.104Z</time></trkpt><trkpt lat="44.5736864" lon="8.943966"><ele>366.0</ele><time>2026-04-03T13:42:33.102Z</time></trkpt><trkpt lat="44.5736003" lon="8.9440269"><ele>366.0</ele><time>2026-04-03T13:42:35.112Z</time></trkpt><trkpt lat="44.5735097" lon="8.9440728"><ele>366.0</ele><time>2026-04-03T13:42:37.114Z</time></trkpt><trkpt lat="44.5734483" lon="8.9440991"><ele>366.0</ele><time>2026-04-03T13:42:38.109Z</time></trkpt><trkpt lat="44.5733856" lon="8.9441329"><ele>365.4</ele><time>2026-04-03T13:42:39.117Z</time></trkpt><trkpt lat="44.5733149" lon="8.9441799"><ele>364.8</ele><time>2026-04-03T13:42:40.11Z</time></trkpt><trkpt lat="44.5732223" lon="8.9442213"><ele>364.2</ele><time>2026-04-03T13:42:42.159Z</time></trkpt><trkpt lat="44.573093" lon="8.9442767"><ele>363.59999999999997</ele><time>2026-04-03T13:42:44.101Z</time></trkpt><trkpt lat="44.5730305" lon="8.9443076"><ele>363.0</ele><time>2026-04-03T13:42:45.106Z</time></trkpt><trkpt lat="44.5729606" lon="8.9443653"><ele>362.85714285714283</ele><time>2026-04-03T13:42:46.122Z</time></trkpt><trkpt lat="44.5728973" lon="8.9443914"><ele>362.7142857142857</ele><time>2026-04-03T13:42:47.111Z</time></trkpt><trkpt lat="44.5728232" lon="8.944444"><ele>362.57142857142856</ele><time>2026-04-03T13:42:48.141Z</time></trkpt><trkpt lat="44.5727598" lon="8.9444798"><ele>362.42857142857144</ele><time>2026-04-03T13:42:49.142Z</time></trkpt><trkpt lat="44.5726984" lon="8.9445099"><ele>362.2857142857143</ele><time>2026-04-03T13:42:50.118Z</time></trkpt><trkpt lat="44.5726333" lon="8.9445415"><ele>362.1428571428571</ele><time>2026-04-03T13:42:51.114Z</time></trkpt><trkpt lat="44.572565" lon="8.9445896"><ele>362.0</ele><time>2026-04-03T13:42:52.109Z</time></trkpt><trkpt lat="44.5724636" lon="8.9446408"><ele>362.0</ele><time>2026-04-03T13:42:54.146Z</time></trkpt><trkpt lat="44.5724024" lon="8.9446644"><ele>362.0</ele><time>2026-04-03T13:42:56.102Z</time></trkpt><trkpt lat="44.5723192" lon="8.944709"><ele>362.0</ele><time>2026-04-03T13:42:58.113Z</time></trkpt><trkpt lat="44.5721818" lon="8.9447731"><ele>362.0</ele><time>2026-04-03T13:43:01.114Z</time></trkpt><trkpt lat="44.5721038" lon="8.944824"><ele>362.0</ele><time>2026-04-03T13:43:02.111Z</time></trkpt><trkpt lat="44.5720362" lon="8.944855"><ele>362.8</ele><time>2026-04-03T13:43:03.163Z</time></trkpt><trkpt lat="44.5719438" lon="8.944912"><ele>363.6</ele><time>2026-04-03T13:43:04.115Z</time></trkpt><trkpt lat="44.5718657" lon="8.9449621"><ele>364.40000000000003</ele><time>2026-04-03T13:43:05.112Z</time></trkpt><trkpt lat="44.5717381" lon="8.9449987"><ele>365.20000000000005</ele><time>2026-04-03T13:43:07.106Z</time></trkpt><trkpt lat="44.5716326" lon="8.9450494"><ele>366.0</ele><time>2026-04-03T13:43:09.107Z</time></trkpt><trkpt lat="44.5715456" lon="8.9450841"><ele>367.0</ele><time>2026-04-03T13:43:11.112Z</time></trkpt><trkpt lat="44.5714782" lon="8.9451178"><ele>368.0</ele><time>2026-04-03T13:43:13.104Z</time></trkpt><trkpt lat="44.5713921" lon="8.9451631"><ele>369.0</ele><time>2026-04-03T13:43:15.106Z</time></trkpt><trkpt lat="44.571325" lon="8.9452086"><ele>370.0</ele><time>2026-04-03T13:43:18.108Z</time></trkpt><trkpt lat="44.5712331" lon="8.9452612"><ele>371.0</ele><time>2026-04-03T13:43:20.104Z</time></trkpt><trkpt lat="44.5711156" lon="8.9452982"><ele>371.4</ele><time>2026-04-03T13:43:22.115Z</time></trkpt><trkpt lat="44.5710281" lon="8.9453398"><ele>371.8</ele><time>2026-04-03T13:43:24.106Z</time></trkpt><trkpt lat="44.5709572" lon="8.9453664"><ele>372.2</ele><time>2026-04-03T13:43:26.108Z</time></trkpt><trkpt lat="44.570862" lon="8.9454282"><ele>372.59999999999997</ele><time>2026-04-03T13:43:29.107Z</time></trkpt><trkpt lat="44.5707688" lon="8.9454856"><ele>373.0</ele><time>2026-04-03T13:43:31.1Z</time></trkpt><trkpt lat="44.5706858" lon="8.945531"><ele>373.0</ele><time>2026-04-03T13:43:33.114Z</time></trkpt><trkpt lat="44.5705823" lon="8.9455781"><ele>373.0</ele><time>2026-04-03T13:43:35.108Z</time></trkpt><trkpt lat="44.5705174" lon="8.9456"><ele>373.0</ele><time>2026-04-03T13:43:36.113Z</time></trkpt><trkpt lat="44.5704014" lon="8.9456822"><ele>373.0</ele><time>2026-04-03T13:43:38.108Z</time></trkpt><trkpt lat="44.5702935" lon="8.9457407"><ele>373.0</ele><time>2026-04-03T13:43:40.113Z</time></trkpt><trkpt lat="44.5702131" lon="8.9457922"><ele>372.79999999999995</ele><time>2026-04-03T13:43:41.105Z</time></trkpt><trkpt lat="44.5701281" lon="8.9458397"><ele>372.6</ele><time>2026-04-03T13:43:42.124Z</time></trkpt><trkpt lat="44.5700498" lon="8.9458707"><ele>372.4</ele><time>2026-04-03T13:43:43.117Z</time></trkpt><trkpt lat="44.5699333" lon="8.9459254"><ele>372.20000000000005</ele><time>2026-04-03T13:43:45.113Z</time></trkpt><trkpt lat="44.5698536" lon="8.9459628"><ele>372.0</ele><time>2026-04-03T13:43:46.11Z</time></trkpt><trkpt lat="44.5697003" lon="8.9460214"><ele>371.40000000000003</ele><time>2026-04-03T13:43:48.109Z</time></trkpt><trkpt lat="44.5696196" lon="8.9460452"><ele>370.8</ele><time>2026-04-03T13:43:49.11Z</time></trkpt><trkpt lat="44.5695354" lon="8.946086"><ele>370.2</ele><time>2026-04-03T13:43:50.112Z</time></trkpt><trkpt lat="44.5694126" lon="8.9461122"><ele>369.6</ele><time>2026-04-03T13:43:51.104Z</time></trkpt><trkpt lat="44.5693165" lon="8.9461415"><ele>369.0</ele><time>2026-04-03T13:43:52.111Z</time></trkpt><trkpt lat="44.569221" lon="8.9461507"><ele>368.75</ele><time>2026-04-03T13:43:53.108Z</time></trkpt><trkpt lat="44.5691228" lon="8.9461746"><ele>368.5</ele><time>2026-04-03T13:43:54.114Z</time></trkpt><trkpt lat="44.5689583" lon="8.9461611"><ele>368.25</ele><time>2026-04-03T13:43:56.1Z</time></trkpt><trkpt lat="44.5688239" lon="8.9462255"><ele>368.0</ele><time>2026-04-03T13:43:57.103Z</time></trkpt><trkpt lat="44.5686755" lon="8.9461872"><ele>369.2</ele><time>2026-04-03T13:43:59.111Z</time></trkpt><trkpt lat="44.5685879" lon="8.9461528"><ele>370.4</ele><time>2026-04-03T13:44:00.109Z</time></trkpt><trkpt lat="44.5684926" lon="8.9461319"><ele>371.59999999999997</ele><time>2026-04-03T13:44:01.111Z</time></trkpt><trkpt lat="44.5683822" lon="8.9461245"><ele>372.79999999999995</ele><time>2026-04-03T13:44:02.106Z</time></trkpt><trkpt lat="44.5682787" lon="8.9460657"><ele>374.0</ele><time>2026-04-03T13:44:03.107Z</time></trkpt><trkpt lat="44.568182" lon="8.9460239"><ele>374.0</ele><time>2026-04-03T13:44:04.112Z</time></trkpt><trkpt lat="44.568087" lon="8.9459387"><ele>374.0</ele><time>2026-04-03T13:44:05.109Z</time></trkpt><trkpt lat="44.5679822" lon="8.9458446"><ele>374.0</ele><time>2026-04-03T13:44:06.107Z</time></trkpt><trkpt lat="44.5678742" lon="8.9457661"><ele>374.0</ele><time>2026-04-03T13:44:07.111Z</time></trkpt><trkpt lat="44.5677676" lon="8.9456889"><ele>374.75</ele><time>2026-04-03T13:44:08.109Z</time></trkpt><trkpt lat="44.5676573" lon="8.9456166"><ele>375.5</ele><time>2026-04-03T13:44:09.11Z</time></trkpt><trkpt lat="44.5675487" lon="8.9455451"><ele>376.25</ele><time>2026-04-03T13:44:10.111Z</time></trkpt><trkpt lat="44.5674478" lon="8.945462"><ele>377.0</ele><time>2026-04-03T13:44:11.106Z</time></trkpt><trkpt lat="44.5673393" lon="8.9453812"><ele>377.0</ele><time>2026-04-03T13:44:12.105Z</time></trkpt><trkpt lat="44.5672201" lon="8.9453032"><ele>377.0</ele><time>2026-04-03T13:44:13.104Z</time></trkpt><trkpt lat="44.5671048" lon="8.9452254"><ele>377.0</ele><time>2026-04-03T13:44:14.106Z</time></trkpt><trkpt lat="44.5669944" lon="8.9451459"><ele>377.0</ele><time>2026-04-03T13:44:15.11Z</time></trkpt><trkpt lat="44.5668877" lon="8.9450674"><ele>378.0</ele><time>2026-04-03T13:44:16.109Z</time></trkpt><trkpt lat="44.5667866" lon="8.9449963"><ele>379.0</ele><time>2026-04-03T13:44:17.105Z</time></trkpt><trkpt lat="44.5666838" lon="8.9449348"><ele>380.0</ele><time>2026-04-03T13:44:18.109Z</time></trkpt><trkpt lat="44.5665948" lon="8.944867"><ele>381.0</ele><time>2026-04-03T13:44:19.111Z</time></trkpt><trkpt lat="44.5665067" lon="8.9447866"><ele>382.0</ele><time>2026-04-03T13:44:20.107Z</time></trkpt><trkpt lat="44.5664126" lon="8.9447244"><ele>382.0</ele><time>2026-04-03T13:44:21.113Z</time></trkpt><trkpt lat="44.5663062" lon="8.9446495"><ele>382.0</ele><time>2026-04-03T13:44:22.109Z</time></trkpt><trkpt lat="44.5662091" lon="8.9445488"><ele>382.0</ele><time>2026-04-03T13:44:23.106Z</time></trkpt><trkpt lat="44.566094" lon="8.9444949"><ele>382.0</ele><time>2026-04-03T13:44:24.109Z</time></trkpt><trkpt lat="44.5659805" lon="8.9444419"><ele>381.66666666666663</ele><time>2026-04-03T13:44:25.114Z</time></trkpt><trkpt lat="44.5657846" lon="8.9442744"><ele>381.3333333333333</ele><time>2026-04-03T13:44:27.11Z</time></trkpt><trkpt lat="44.5656922" lon="8.9442076"><ele>381.0</ele><time>2026-04-03T13:44:28.112Z</time></trkpt><trkpt lat="44.5655832" lon="8.9441435"><ele>381.3333333333333</ele><time>2026-04-03T13:44:29.106Z</time></trkpt><trkpt lat="44.5654885" lon="8.9440737"><ele>381.66666666666663</ele><time>2026-04-03T13:44:30.115Z</time></trkpt><trkpt lat="44.5653883" lon="8.9439984"><ele>382.0</ele><time>2026-04-03T13:44:31.108Z</time></trkpt><trkpt lat="44.5651769" lon="8.9438664"><ele>382.0</ele><time>2026-04-03T13:44:33.115Z</time></trkpt><trkpt lat="44.5650728" lon="8.9438016"><ele>382.0</ele><time>2026-04-03T13:44:34.108Z</time></trkpt><trkpt lat="44.5649774" lon="8.943721"><ele>382.0</ele><time>2026-04-03T13:44:35.107Z</time></trkpt><trkpt lat="44.5648808" lon="8.943655"><ele>382.0</ele><time>2026-04-03T13:44:36.112Z</time></trkpt><trkpt lat="44.564786" lon="8.943573"><ele>382.0</ele><time>2026-04-03T13:44:37.1Z</time></trkpt><trkpt lat="44.5647001" lon="8.9434838"><ele>382.8</ele><time>2026-04-03T13:44:38.105Z</time></trkpt><trkpt lat="44.564614" lon="8.9433757"><ele>383.6</ele><time>2026-04-03T13:44:39.111Z</time></trkpt><trkpt lat="44.5645311" lon="8.9432648"><ele>384.40000000000003</ele><time>2026-04-03T13:44:40.105Z</time></trkpt><trkpt lat="44.5644471" lon="8.9431695"><ele>385.20000000000005</ele><time>2026-04-03T13:44:41.106Z</time></trkpt><trkpt lat="44.5643688" lon="8.9430628"><ele>386.0</ele><time>2026-04-03T13:44:42.108Z</time></trkpt><trkpt lat="44.5642776" lon="8.9429627"><ele>386.0</ele><time>2026-04-03T13:44:43.113Z</time></trkpt><trkpt lat="44.5641912" lon="8.9428575"><ele>386.0</ele><time>2026-04-03T13:44:44.114Z</time></trkpt><trkpt lat="44.5640993" lon="8.9427513"><ele>386.0</ele><time>2026-04-03T13:44:45.111Z</time></trkpt><trkpt lat="44.5639863" lon="8.9426275"><ele>386.0</ele><time>2026-04-03T13:44:46.107Z</time></trkpt><trkpt lat="44.5637372" lon="8.9423419"><ele>391.66666666666663</ele><time>2026-04-03T13:44:48.106Z</time></trkpt><trkpt lat="44.563605" lon="8.9421718"><ele>397.33333333333337</ele><time>2026-04-03T13:44:49.108Z</time></trkpt><trkpt lat="44.563478" lon="8.942025"><ele>403.0</ele><time>2026-04-03T13:44:50.116Z</time></trkpt><trkpt lat="44.5633502" lon="8.9418875"><ele>403.0</ele><time>2026-04-03T13:44:51.108Z</time></trkpt><trkpt lat="44.5632241" lon="8.9417294"><ele>403.0</ele><time>2026-04-03T13:44:52.108Z</time></trkpt><trkpt lat="44.5630979" lon="8.9415848"><ele>403.0</ele><time>2026-04-03T13:44:53.108Z</time></trkpt><trkpt lat="44.5629782" lon="8.9414499"><ele>407.0</ele><time>2026-04-03T13:44:54.113Z</time></trkpt><trkpt lat="44.5628607" lon="8.9413061"><ele>411.0</ele><time>2026-04-03T13:44:55.109Z</time></trkpt><trkpt lat="44.5627461" lon="8.94118"><ele>415.0</ele><time>2026-04-03T13:44:56.105Z</time></trkpt><trkpt lat="44.5626411" lon="8.9410523"><ele>419.0</ele><time>2026-04-03T13:44:57.108Z</time></trkpt><trkpt lat="44.5625381" lon="8.9409401"><ele>413.3333333333333</ele><time>2026-04-03T13:44:58.111Z</time></trkpt><trkpt lat="44.5624436" lon="8.9408357"><ele>407.66666666666663</ele><time>2026-04-03T13:44:59.102Z</time></trkpt><trkpt lat="44.5623404" lon="8.9407291"><ele>402.0</ele><time>2026-04-03T13:45:00.114Z</time></trkpt><trkpt lat="44.5621098" lon="8.9405768"><ele>405.75</ele><time>2026-04-03T13:45:02.104Z</time></trkpt><trkpt lat="44.5619804" lon="8.9405116"><ele>409.5</ele><time>2026-04-03T13:45:03.103Z</time></trkpt><trkpt lat="44.5618547" lon="8.9404658"><ele>413.25</ele><time>2026-04-03T13:45:04.106Z</time></trkpt><trkpt lat="44.5617201" lon="8.9404317"><ele>417.0</ele><time>2026-04-03T13:45:05.108Z</time></trkpt><trkpt lat="44.5615814" lon="8.9404158"><ele>417.0</ele><time>2026-04-03T13:45:06.106Z</time></trkpt><trkpt lat="44.5614399" lon="8.940405"><ele>417.0</ele><time>2026-04-03T13:45:07.109Z</time></trkpt><trkpt lat="44.5613011" lon="8.9404018"><ele>417.0</ele><time>2026-04-03T13:45:08.106Z</time></trkpt><trkpt lat="44.5611566" lon="8.9403976"><ele>417.0</ele><time>2026-04-03T13:45:09.105Z</time></trkpt><trkpt lat="44.5610084" lon="8.9403943"><ele>420.0</ele><time>2026-04-03T13:45:10.113Z</time></trkpt><trkpt lat="44.5608652" lon="8.9403943"><ele>423.0</ele><time>2026-04-03T13:45:11.106Z</time></trkpt><trkpt lat="44.5607304" lon="8.9403901"><ele>426.0</ele><time>2026-04-03T13:45:12.108Z</time></trkpt><trkpt lat="44.5605959" lon="8.9403923"><ele>429.0</ele><time>2026-04-03T13:45:13.111Z</time></trkpt><trkpt lat="44.56047" lon="8.9403837"><ele>431.5</ele><time>2026-04-03T13:45:14.114Z</time></trkpt><trkpt lat="44.5603472" lon="8.9403804"><ele>434.0</ele><time>2026-04-03T13:45:15.109Z</time></trkpt><trkpt lat="44.5602271" lon="8.9403774"><ele>436.5</ele><time>2026-04-03T13:45:16.111Z</time></trkpt><trkpt lat="44.560106" lon="8.9403786"><ele>439.0</ele><time>2026-04-03T13:45:17.108Z</time></trkpt><trkpt lat="44.5599893" lon="8.9403654"><ele>439.0</ele><time>2026-04-03T13:45:18.108Z</time></trkpt><trkpt lat="44.5598743" lon="8.9403526"><ele>439.0</ele><time>2026-04-03T13:45:19.115Z</time></trkpt><trkpt lat="44.559756" lon="8.940354"><ele>439.0</ele><time>2026-04-03T13:45:20.109Z</time></trkpt><trkpt lat="44.5596425" lon="8.9403543"><ele>439.0</ele><time>2026-04-03T13:45:21.114Z</time></trkpt><trkpt lat="44.5594012" lon="8.9403668"><ele>440.75</ele><time>2026-04-03T13:45:22.999Z</time></trkpt><trkpt lat="44.5592721" lon="8.9403721"><ele>442.5</ele><time>2026-04-03T13:45:23.999Z</time></trkpt><trkpt lat="44.5591285" lon="8.9403806"><ele>444.25</ele><time>2026-04-03T13:45:24.999Z</time></trkpt><trkpt lat="44.5589953" lon="8.940359"><ele>446.0</ele><time>2026-04-03T13:45:26.1Z</time></trkpt><trkpt lat="44.5588725" lon="8.9403103"><ele>446.0</ele><time>2026-04-03T13:45:27.114Z</time></trkpt><trkpt lat="44.5587255" lon="8.9401957"><ele>446.0</ele><time>2026-04-03T13:45:28.114Z</time></trkpt><trkpt lat="44.5585798" lon="8.9401128"><ele>446.0</ele><time>2026-04-03T13:45:29.116Z</time></trkpt><trkpt lat="44.5584257" lon="8.940055"><ele>441.3333333333333</ele><time>2026-04-03T13:45:30.108Z</time></trkpt><trkpt lat="44.5582742" lon="8.9400174"><ele>436.66666666666663</ele><time>2026-04-03T13:45:31.114Z</time></trkpt><trkpt lat="44.5581175" lon="8.9400102"><ele>432.0</ele><time>2026-04-03T13:45:32.112Z</time></trkpt><trkpt lat="44.5579559" lon="8.9400255"><ele>446.5</ele><time>2026-04-03T13:45:33.113Z</time></trkpt><trkpt lat="44.5577955" lon="8.9400584"><ele>461.0</ele><time>2026-04-03T13:45:34.112Z</time></trkpt><trkpt lat="44.5575121" lon="8.9401333"><ele>461.0</ele><time>2026-04-03T13:45:36.105Z</time></trkpt><trkpt lat="44.5573732" lon="8.9401656"><ele>461.0</ele><time>2026-04-03T13:45:37.106Z</time></trkpt><trkpt lat="44.5572379" lon="8.940196"><ele>461.0</ele><time>2026-04-03T13:45:38.11Z</time></trkpt><trkpt lat="44.5571149" lon="8.9402261"><ele>461.0</ele><time>2026-04-03T13:45:39.109Z</time></trkpt><trkpt lat="44.5569924" lon="8.9402494"><ele>462.25</ele><time>2026-04-03T13:45:40.105Z</time></trkpt><trkpt lat="44.5568939" lon="8.9402693"><ele>463.5</ele><time>2026-04-03T13:45:41.118Z</time></trkpt><trkpt lat="44.5567845" lon="8.9402305"><ele>464.75</ele><time>2026-04-03T13:45:42.107Z</time></trkpt><trkpt lat="44.5566873" lon="8.940097"><ele>466.0</ele><time>2026-04-03T13:45:43.104Z</time></trkpt><trkpt lat="44.5564861" lon="8.9398887"><ele>468.5</ele><time>2026-04-03T13:45:45.101Z</time></trkpt><trkpt lat="44.5562706" lon="8.9396837"><ele>471.0</ele><time>2026-04-03T13:45:47.103Z</time></trkpt><trkpt lat="44.556025" lon="8.9393773"><ele>471.0</ele><time>2026-04-03T13:45:49Z</time></trkpt><trkpt lat="44.5558986" lon="8.9392324"><ele>471.0</ele><time>2026-04-03T13:45:50.104Z</time></trkpt><trkpt lat="44.5557693" lon="8.9391089"><ele>471.0</ele><time>2026-04-03T13:45:51.109Z</time></trkpt><trkpt lat="44.5556487" lon="8.9390185"><ele>472.75</ele><time>2026-04-03T13:45:52.107Z</time></trkpt><trkpt lat="44.555518" lon="8.9389173"><ele>474.5</ele><time>2026-04-03T13:45:53.108Z</time></trkpt><trkpt lat="44.5553987" lon="8.9388014"><ele>476.25</ele><time>2026-04-03T13:45:54.109Z</time></trkpt><trkpt lat="44.5552679" lon="8.9386861"><ele>478.0</ele><time>2026-04-03T13:45:55.109Z</time></trkpt><trkpt lat="44.5549911" lon="8.9384955"><ele>478.0</ele><time>2026-04-03T13:45:57.102Z</time></trkpt><trkpt lat="44.554833" lon="8.9384368"><ele>478.0</ele><time>2026-04-03T13:45:58.106Z</time></trkpt><trkpt lat="44.5546817" lon="8.9383826"><ele>478.0</ele><time>2026-04-03T13:45:59.107Z</time></trkpt><trkpt lat="44.5543721" lon="8.9382716"><ele>475.25</ele><time>2026-04-03T13:46:00.999Z</time></trkpt><trkpt lat="44.5542331" lon="8.9382263"><ele>472.5</ele><time>2026-04-03T13:46:01.999Z</time></trkpt><trkpt lat="44.5541033" lon="8.9381681"><ele>469.75</ele><time>2026-04-03T13:46:02.999Z</time></trkpt><trkpt lat="44.5539753" lon="8.9381214"><ele>467.0</ele><time>2026-04-03T13:46:04Z</time></trkpt><trkpt lat="44.5538732" lon="8.9380033"><ele>467.0</ele><time>2026-04-03T13:46:04.999Z</time></trkpt><trkpt lat="44.5537704" lon="8.9379124"><ele>467.0</ele><time>2026-04-03T13:46:05.999Z</time></trkpt><trkpt lat="44.5536555" lon="8.9378142"><ele>467.0</ele><time>2026-04-03T13:46:06.999Z</time></trkpt><trkpt lat="44.5535558" lon="8.9377253"><ele>467.0</ele><time>2026-04-03T13:46:08Z</time></trkpt><trkpt lat="44.5534582" lon="8.9376302"><ele>468.0</ele><time>2026-04-03T13:46:08.999Z</time></trkpt><trkpt lat="44.5533708" lon="8.9375483"><ele>469.00000000000006</ele><time>2026-04-03T13:46:09.999Z</time></trkpt><trkpt lat="44.5532892" lon="8.9374735"><ele>470.00000000000006</ele><time>2026-04-03T13:46:10.999Z</time></trkpt><trkpt lat="44.5532071" lon="8.9374052"><ele>471.0</ele><time>2026-04-03T13:46:11.999Z</time></trkpt><trkpt lat="44.5531165" lon="8.9373456"><ele>472.0</ele><time>2026-04-03T13:46:13.105Z</time></trkpt><trkpt lat="44.5529581" lon="8.9372135"><ele>473.75</ele><time>2026-04-03T13:46:15.107Z</time></trkpt><trkpt lat="44.5528107" lon="8.9370924"><ele>475.5</ele><time>2026-04-03T13:46:17.107Z</time></trkpt><trkpt lat="44.5527363" lon="8.9370352"><ele>477.25</ele><time>2026-04-03T13:46:18.103Z</time></trkpt><trkpt lat="44.5526479" lon="8.9369839"><ele>479.0</ele><time>2026-04-03T13:46:19.113Z</time></trkpt><trkpt lat="44.5524639" lon="8.9368379"><ele>477.3333333333333</ele><time>2026-04-03T13:46:21.103Z</time></trkpt><trkpt lat="44.5522261" lon="8.9366883"><ele>475.66666666666663</ele><time>2026-04-03T13:46:23.104Z</time></trkpt><trkpt lat="44.5521179" lon="8.9366137"><ele>474.0</ele><time>2026-04-03T13:46:24.106Z</time></trkpt><trkpt lat="44.551998" lon="8.9365162"><ele>473.0</ele><time>2026-04-03T13:46:25.103Z</time></trkpt><trkpt lat="44.5518756" lon="8.9364647"><ele>472.0</ele><time>2026-04-03T13:46:26.108Z</time></trkpt><trkpt lat="44.551733" lon="8.9364421"><ele>471.0</ele><time>2026-04-03T13:46:27.11Z</time></trkpt><trkpt lat="44.5516025" lon="8.9363493"><ele>470.0</ele><time>2026-04-03T13:46:28.115Z</time></trkpt><trkpt lat="44.5514435" lon="8.9362616"><ele>470.0</ele><time>2026-04-03T13:46:29.102Z</time></trkpt><trkpt lat="44.5512146" lon="8.936062"><ele>470.0</ele><time>2026-04-03T13:46:31Z</time></trkpt><trkpt lat="44.5510916" lon="8.9359211"><ele>470.0</ele><time>2026-04-03T13:46:31.999Z</time></trkpt><trkpt lat="44.550979" lon="8.9357736"><ele>467.0</ele><time>2026-04-03T13:46:33.109Z</time></trkpt><trkpt lat="44.5507562" lon="8.9354423"><ele>464.0</ele><time>2026-04-03T13:46:35.141Z</time></trkpt><trkpt lat="44.5506038" lon="8.935275"><ele>464.0</ele><time>2026-04-03T13:46:36.107Z</time></trkpt><trkpt lat="44.5504706" lon="8.9352208"><ele>464.0</ele><time>2026-04-03T13:46:37.112Z</time></trkpt><trkpt lat="44.5503326" lon="8.9351382"><ele>464.0</ele><time>2026-04-03T13:46:38.107Z</time></trkpt><trkpt lat="44.550218" lon="8.9350913"><ele>464.0</ele><time>2026-04-03T13:46:39.141Z</time></trkpt><trkpt lat="44.5500756" lon="8.9350211"><ele>461.0</ele><time>2026-04-03T13:46:40.125Z</time></trkpt><trkpt lat="44.5499668" lon="8.9348674"><ele>458.0</ele><time>2026-04-03T13:46:41.113Z</time></trkpt><trkpt lat="44.5498707" lon="8.9347132"><ele>455.0</ele><time>2026-04-03T13:46:42.112Z</time></trkpt><trkpt lat="44.5498539" lon="8.9344705"><ele>455.0</ele><time>2026-04-03T13:46:43.152Z</time></trkpt><trkpt lat="44.5497782" lon="8.9343271"><ele>455.0</ele><time>2026-04-03T13:46:44.161Z</time></trkpt><trkpt lat="44.5497038" lon="8.934174"><ele>455.0</ele><time>2026-04-03T13:46:45.125Z</time></trkpt><trkpt lat="44.5496071" lon="8.9340601"><ele>455.0</ele><time>2026-04-03T13:46:46.114Z</time></trkpt><trkpt lat="44.5495029" lon="8.9339833"><ele>454.0</ele><time>2026-04-03T13:46:47.114Z</time></trkpt><trkpt lat="44.5493941" lon="8.9339218"><ele>453.0</ele><time>2026-04-03T13:46:48.141Z</time></trkpt><trkpt lat="44.5492706" lon="8.9338721"><ele>452.0</ele><time>2026-04-03T13:46:49.16Z</time></trkpt><trkpt lat="44.5491785" lon="8.933873"><ele>451.0</ele><time>2026-04-03T13:46:50.144Z</time></trkpt><trkpt lat="44.5490942" lon="8.93396"><ele>450.0</ele><time>2026-04-03T13:46:51.112Z</time></trkpt><trkpt lat="44.548967" lon="8.9340182"><ele>450.0</ele><time>2026-04-03T13:46:52.11Z</time></trkpt><trkpt lat="44.5488095" lon="8.9341022"><ele>450.0</ele><time>2026-04-03T13:46:53.107Z</time></trkpt><trkpt lat="44.5486913" lon="8.9340048"><ele>450.0</ele><time>2026-04-03T13:46:54.11Z</time></trkpt><trkpt lat="44.5485835" lon="8.9339494"><ele>450.0</ele><time>2026-04-03T13:46:55.107Z</time></trkpt><trkpt lat="44.5484313" lon="8.9338928"><ele>448.25</ele><time>2026-04-03T13:46:56.109Z</time></trkpt><trkpt lat="44.5483355" lon="8.9337593"><ele>446.5</ele><time>2026-04-03T13:46:57.111Z</time></trkpt><trkpt lat="44.5482294" lon="8.9336992"><ele>444.75</ele><time>2026-04-03T13:46:58.135Z</time></trkpt><trkpt lat="44.5481641" lon="8.9335869"><ele>443.0</ele><time>2026-04-03T13:46:59.107Z</time></trkpt><trkpt lat="44.5480696" lon="8.9334724"><ele>443.75</ele><time>2026-04-03T13:47:00.11Z</time></trkpt><trkpt lat="44.5479811" lon="8.9333585"><ele>444.5</ele><time>2026-04-03T13:47:01.114Z</time></trkpt><trkpt lat="44.5478949" lon="8.9332385"><ele>445.25</ele><time>2026-04-03T13:47:02.108Z</time></trkpt><trkpt lat="44.5478905" lon="8.9331313"><ele>446.0</ele><time>2026-04-03T13:47:03.11Z</time></trkpt><trkpt lat="44.5479558" lon="8.9329673"><ele>446.0</ele><time>2026-04-03T13:47:04.107Z</time></trkpt><trkpt lat="44.5481136" lon="8.9328667"><ele>446.0</ele><time>2026-04-03T13:47:05.106Z</time></trkpt><trkpt lat="44.5483763" lon="8.9327085"><ele>450.0</ele><time>2026-04-03T13:47:06.111Z</time></trkpt><trkpt lat="44.5486173" lon="8.9325291"><ele>454.0</ele><time>2026-04-03T13:47:07.112Z</time></trkpt><trkpt lat="44.5487699" lon="8.932382"><ele>454.0</ele><time>2026-04-03T13:47:08.18Z</time></trkpt><trkpt lat="44.5488441" lon="8.9322717"><ele>454.0</ele><time>2026-04-03T13:47:09.174Z</time></trkpt><trkpt lat="44.5489393" lon="8.9320994"><ele>454.0</ele><time>2026-04-03T13:47:10.121Z</time></trkpt><trkpt lat="44.5490134" lon="8.9319293"><ele>454.0</ele><time>2026-04-03T13:47:11.114Z</time></trkpt><trkpt lat="44.5489685" lon="8.9318014"><ele>452.4</ele><time>2026-04-03T13:47:12.116Z</time></trkpt><trkpt lat="44.5489278" lon="8.9316773"><ele>450.79999999999995</ele><time>2026-04-03T13:47:13.201Z</time></trkpt><trkpt lat="44.5488847" lon="8.9315837"><ele>449.20000000000005</ele><time>2026-04-03T13:47:14.161Z</time></trkpt><trkpt lat="44.5488193" lon="8.9314512"><ele>447.6</ele><time>2026-04-03T13:47:15.167Z</time></trkpt><trkpt lat="44.5487856" lon="8.9313457"><ele>446.0</ele><time>2026-04-03T13:47:16.104Z</time></trkpt><trkpt lat="44.548765" lon="8.9312376"><ele>446.0</ele><time>2026-04-03T13:47:17.11Z</time></trkpt><trkpt lat="44.5487934" lon="8.931153"><ele>446.0</ele><time>2026-04-03T13:47:18.165Z</time></trkpt><trkpt lat="44.5488176" lon="8.9310418"><ele>446.0</ele><time>2026-04-03T13:47:19.142Z</time></trkpt><trkpt lat="44.5488383" lon="8.9309567"><ele>446.0</ele><time>2026-04-03T13:47:20.188Z</time></trkpt><trkpt lat="44.5490768" lon="8.9308853"><ele>444.4</ele><time>2026-04-03T13:47:22.121Z</time></trkpt><trkpt lat="44.549109" lon="8.9308093"><ele>442.8</ele><time>2026-04-03T13:47:23.193Z</time></trkpt><trkpt lat="44.5491658" lon="8.9307119"><ele>441.19999999999993</ele><time>2026-04-03T13:47:24.196Z</time></trkpt><trkpt lat="44.5491867" lon="8.9306076"><ele>439.59999999999997</ele><time>2026-04-03T13:47:25.201Z</time></trkpt><trkpt lat="44.5491755" lon="8.9303974"><ele>438.0</ele><time>2026-04-03T13:47:26.111Z</time></trkpt><trkpt lat="44.5491853" lon="8.9302343"><ele>434.0</ele><time>2026-04-03T13:47:27.117Z</time></trkpt><trkpt lat="44.5492205" lon="8.9300336"><ele>430.0</ele><time>2026-04-03T13:47:28.192Z</time></trkpt><trkpt lat="44.5492422" lon="8.9298607"><ele>426.0</ele><time>2026-04-03T13:47:29.141Z</time></trkpt><trkpt lat="44.5492826" lon="8.9297054"><ele>422.0</ele><time>2026-04-03T13:47:30.181Z</time></trkpt><trkpt lat="44.549315" lon="8.9295381"><ele>422.0</ele><time>2026-04-03T13:47:31.108Z</time></trkpt><trkpt lat="44.5495394" lon="8.9293304"><ele>422.0</ele><time>2026-04-03T13:47:33.164Z</time></trkpt><trkpt lat="44.5496332" lon="8.9292389"><ele>422.0</ele><time>2026-04-03T13:47:34.163Z</time></trkpt><trkpt lat="44.5497199" lon="8.9291318"><ele>425.40000000000003</ele><time>2026-04-03T13:47:35.191Z</time></trkpt><trkpt lat="44.5497663" lon="8.9290126"><ele>428.8</ele><time>2026-04-03T13:47:36.116Z</time></trkpt><trkpt lat="44.5498236" lon="8.9289113"><ele>432.2</ele><time>2026-04-03T13:47:37.111Z</time></trkpt><trkpt lat="44.5498502" lon="8.9288081"><ele>435.6</ele><time>2026-04-03T13:47:38.164Z</time></trkpt><trkpt lat="44.5498787" lon="8.9286811"><ele>439.0</ele><time>2026-04-03T13:47:39.192Z</time></trkpt><trkpt lat="44.5498243" lon="8.92848"><ele>436.5</ele><time>2026-04-03T13:47:40.132Z</time></trkpt><trkpt lat="44.5498177" lon="8.9283476"><ele>434.0</ele><time>2026-04-03T13:47:41.11Z</time></trkpt><trkpt lat="44.5498244" lon="8.9281871"><ele>431.5</ele><time>2026-04-03T13:47:42.109Z</time></trkpt><trkpt lat="44.549823" lon="8.9279787"><ele>429.0</ele><time>2026-04-03T13:47:43.137Z</time></trkpt><trkpt lat="44.5498133" lon="8.9278102"><ele>429.0</ele><time>2026-04-03T13:47:44.141Z</time></trkpt><trkpt lat="44.5497704" lon="8.9276586"><ele>429.0</ele><time>2026-04-03T13:47:45.172Z</time></trkpt><trkpt lat="44.5497447" lon="8.9275072"><ele>429.0</ele><time>2026-04-03T13:47:46.111Z</time></trkpt><trkpt lat="44.5497001" lon="8.927361"><ele>429.0</ele><time>2026-04-03T13:47:47.107Z</time></trkpt><trkpt lat="44.5496523" lon="8.9272143"><ele>429.0</ele><time>2026-04-03T13:47:48.143Z</time></trkpt><trkpt lat="44.5495971" lon="8.927113"><ele>429.0</ele><time>2026-04-03T13:47:49.132Z</time></trkpt><trkpt lat="44.549508" lon="8.9269893"><ele>429.0</ele><time>2026-04-03T13:47:50.136Z</time></trkpt><trkpt lat="44.5494186" lon="8.9268736"><ele>429.0</ele><time>2026-04-03T13:47:51.118Z</time></trkpt><trkpt lat="44.5493375" lon="8.9267573"><ele>423.75</ele><time>2026-04-03T13:47:52.111Z</time></trkpt><trkpt lat="44.5492615" lon="8.9266436"><ele>418.5</ele><time>2026-04-03T13:47:53.111Z</time></trkpt><trkpt lat="44.5491724" lon="8.9265242"><ele>413.25</ele><time>2026-04-03T13:47:54.18Z</time></trkpt><trkpt lat="44.549086" lon="8.9263924"><ele>408.0</ele><time>2026-04-03T13:47:55.164Z</time></trkpt><trkpt lat="44.5490157" lon="8.9262972"><ele>408.0</ele><time>2026-04-03T13:47:56.106Z</time></trkpt><trkpt lat="44.5489477" lon="8.9262024"><ele>408.0</ele><time>2026-04-03T13:47:57.109Z</time></trkpt><trkpt lat="44.5488655" lon="8.926104"><ele>408.0</ele><time>2026-04-03T13:47:58.11Z</time></trkpt><trkpt lat="44.5487865" lon="8.9260443"><ele>408.0</ele><time>2026-04-03T13:47:59.154Z</time></trkpt><trkpt lat="44.5487078" lon="8.9260092"><ele>408.0</ele><time>2026-04-03T13:48:00.171Z</time></trkpt><trkpt lat="44.5486148" lon="8.9260121"><ele>404.3333333333333</ele><time>2026-04-03T13:48:01.108Z</time></trkpt><trkpt lat="44.5485523" lon="8.9260523"><ele>400.66666666666663</ele><time>2026-04-03T13:48:02.114Z</time></trkpt><trkpt lat="44.5484994" lon="8.9261292"><ele>397.0</ele><time>2026-04-03T13:48:03.157Z</time></trkpt><trkpt lat="44.5484884" lon="8.9262294"><ele>393.3333333333333</ele><time>2026-04-03T13:48:04.163Z</time></trkpt><trkpt lat="44.5485559" lon="8.9264007"><ele>389.66666666666663</ele><time>2026-04-03T13:48:06.108Z</time></trkpt><trkpt lat="44.5486177" lon="8.9264936"><ele>386.0</ele><time>2026-04-03T13:48:07.156Z</time></trkpt><trkpt lat="44.5486916" lon="8.9265907"><ele>390.25</ele><time>2026-04-03T13:48:08.19Z</time></trkpt><trkpt lat="44.5487641" lon="8.9267087"><ele>394.5</ele><time>2026-04-03T13:48:09.131Z</time></trkpt><trkpt lat="44.5488229" lon="8.9268451"><ele>398.75</ele><time>2026-04-03T13:48:10.179Z</time></trkpt><trkpt lat="44.5488671" lon="8.927002"><ele>403.0</ele><time>2026-04-03T13:48:11.108Z</time></trkpt><trkpt lat="44.5488906" lon="8.9271731"><ele>403.0</ele><time>2026-04-03T13:48:12.11Z</time></trkpt><trkpt lat="44.5488733" lon="8.9273517"><ele>403.0</ele><time>2026-04-03T13:48:13.163Z</time></trkpt><trkpt lat="44.5488592" lon="8.927527"><ele>403.0</ele><time>2026-04-03T13:48:14.163Z</time></trkpt><trkpt lat="44.5488434" lon="8.9276843"><ele>403.0</ele><time>2026-04-03T13:48:15.13Z</time></trkpt><trkpt lat="44.5488028" lon="8.9278393"><ele>402.79999999999995</ele><time>2026-04-03T13:48:16.112Z</time></trkpt><trkpt lat="44.5487592" lon="8.9279869"><ele>402.6</ele><time>2026-04-03T13:48:17.114Z</time></trkpt><trkpt lat="44.5487026" lon="8.9281146"><ele>402.4</ele><time>2026-04-03T13:48:18.196Z</time></trkpt><trkpt lat="44.5486552" lon="8.9282202"><ele>402.20000000000005</ele><time>2026-04-03T13:48:19.153Z</time></trkpt><trkpt lat="44.5486357" lon="8.9283394"><ele>402.0</ele><time>2026-04-03T13:48:20.199Z</time></trkpt><trkpt lat="44.5486402" lon="8.9284495"><ele>402.0</ele><time>2026-04-03T13:48:21.113Z</time></trkpt><trkpt lat="44.5486624" lon="8.9285702"><ele>402.0</ele><time>2026-04-03T13:48:22.114Z</time></trkpt><trkpt lat="44.5487044" lon="8.9286817"><ele>402.0</ele><time>2026-04-03T13:48:23.187Z</time></trkpt><trkpt lat="44.5487504" lon="8.9287784"><ele>402.0</ele><time>2026-04-03T13:48:24.158Z</time></trkpt><trkpt lat="44.5487743" lon="8.9288908"><ele>402.0</ele><time>2026-04-03T13:48:25.203Z</time></trkpt><trkpt lat="44.5488088" lon="8.9290314"><ele>402.0</ele><time>2026-04-03T13:48:26.111Z</time></trkpt><trkpt lat="44.5488085" lon="8.9291951"><ele>402.0</ele><time>2026-04-03T13:48:27.112Z</time></trkpt><trkpt lat="44.5487168" lon="8.9293323"><ele>402.0</ele><time>2026-04-03T13:48:28.163Z</time></trkpt><trkpt lat="44.5486602" lon="8.9294767"><ele>402.0</ele><time>2026-04-03T13:48:29.173Z</time></trkpt><trkpt lat="44.548554" lon="8.9296464"><ele>404.0</ele><time>2026-04-03T13:48:30.165Z</time></trkpt><trkpt lat="44.548424" lon="8.9298208"><ele>406.0</ele><time>2026-04-03T13:48:31.11Z</time></trkpt><trkpt lat="44.5482727" lon="8.9299664"><ele>408.0</ele><time>2026-04-03T13:48:32.106Z</time></trkpt><trkpt lat="44.5481338" lon="8.9301044"><ele>408.0</ele><time>2026-04-03T13:48:33.19Z</time></trkpt><trkpt lat="44.547988" lon="8.9302066"><ele>408.0</ele><time>2026-04-03T13:48:34.196Z</time></trkpt><trkpt lat="44.5478426" lon="8.930325"><ele>408.0</ele><time>2026-04-03T13:48:35.135Z</time></trkpt><trkpt lat="44.5477165" lon="8.9304535"><ele>404.0</ele><time>2026-04-03T13:48:36.111Z</time></trkpt><trkpt lat="44.5476116" lon="8.9305954"><ele>400.0</ele><time>2026-04-03T13:48:37.105Z</time></trkpt><trkpt lat="44.5475328" lon="8.9307706"><ele>396.0</ele><time>2026-04-03T13:48:38.16Z</time></trkpt><trkpt lat="44.5474662" lon="8.9309131"><ele>392.0</ele><time>2026-04-03T13:48:39.111Z</time></trkpt><trkpt lat="44.5474143" lon="8.9311149"><ele>392.0</ele><time>2026-04-03T13:48:40.105Z</time></trkpt><trkpt lat="44.5473455" lon="8.9312932"><ele>392.0</ele><time>2026-04-03T13:48:41.109Z</time></trkpt><trkpt lat="44.5472484" lon="8.9314213"><ele>392.0</ele><time>2026-04-03T13:48:42.117Z</time></trkpt><trkpt lat="44.5471528" lon="8.9315266"><ele>392.0</ele><time>2026-04-03T13:48:43.151Z</time></trkpt><trkpt lat="44.5470351" lon="8.9316017"><ele>390.5</ele><time>2026-04-03T13:48:44.144Z</time></trkpt><trkpt lat="44.546909" lon="8.9316343"><ele>389.0</ele><time>2026-04-03T13:48:45.171Z</time></trkpt><trkpt lat="44.5467757" lon="8.9316606"><ele>387.5</ele><time>2026-04-03T13:48:46.115Z</time></trkpt><trkpt lat="44.5466421" lon="8.9316906"><ele>386.0</ele><time>2026-04-03T13:48:47.109Z</time></trkpt><trkpt lat="44.5465205" lon="8.9317372"><ele>386.0</ele><time>2026-04-03T13:48:48.144Z</time></trkpt><trkpt lat="44.5463966" lon="8.9318415"><ele>386.0</ele><time>2026-04-03T13:48:49.163Z</time></trkpt><trkpt lat="44.5462856" lon="8.9319794"><ele>386.0</ele><time>2026-04-03T13:48:50.111Z</time></trkpt><trkpt lat="44.5461701" lon="8.9321132"><ele>386.0</ele><time>2026-04-03T13:48:51.113Z</time></trkpt><trkpt lat="44.5460617" lon="8.9322455"><ele>380.25</ele><time>2026-04-03T13:48:52.111Z</time></trkpt><trkpt lat="44.5459571" lon="8.9323645"><ele>374.5</ele><time>2026-04-03T13:48:53.164Z</time></trkpt><trkpt lat="44.5458672" lon="8.9324954"><ele>368.75</ele><time>2026-04-03T13:48:54.175Z</time></trkpt><trkpt lat="44.5457998" lon="8.9326409"><ele>363.0</ele><time>2026-04-03T13:48:55.173Z</time></trkpt><trkpt lat="44.5457401" lon="8.9327982"><ele>363.0</ele><time>2026-04-03T13:48:56.118Z</time></trkpt><trkpt lat="44.5456939" lon="8.9329728"><ele>363.0</ele><time>2026-04-03T13:48:57.122Z</time></trkpt><trkpt lat="44.5457868" lon="8.9331132"><ele>363.0</ele><time>2026-04-03T13:48:58.162Z</time></trkpt><trkpt lat="44.5458204" lon="8.9333012"><ele>363.0</ele><time>2026-04-03T13:48:59.152Z</time></trkpt><trkpt lat="44.545881" lon="8.9334918"><ele>362.75</ele><time>2026-04-03T13:49:00.115Z</time></trkpt><trkpt lat="44.5459308" lon="8.9336994"><ele>362.5</ele><time>2026-04-03T13:49:01.108Z</time></trkpt><trkpt lat="44.5459857" lon="8.9338852"><ele>362.25</ele><time>2026-04-03T13:49:02.118Z</time></trkpt><trkpt lat="44.5460381" lon="8.9340793"><ele>362.0</ele><time>2026-04-03T13:49:03.126Z</time></trkpt><trkpt lat="44.5460793" lon="8.9342597"><ele>362.0</ele><time>2026-04-03T13:49:04.188Z</time></trkpt><trkpt lat="44.5461147" lon="8.9344318"><ele>362.0</ele><time>2026-04-03T13:49:05.199Z</time></trkpt><trkpt lat="44.5461426" lon="8.934606"><ele>362.0</ele><time>2026-04-03T13:49:06.123Z</time></trkpt><trkpt lat="44.5461348" lon="8.9347448"><ele>362.0</ele><time>2026-04-03T13:49:07.115Z</time></trkpt><trkpt lat="44.5460853" lon="8.9348953"><ele>362.0</ele><time>2026-04-03T13:49:08.185Z</time></trkpt><trkpt lat="44.5460074" lon="8.935032"><ele>362.0</ele><time>2026-04-03T13:49:09.144Z</time></trkpt><trkpt lat="44.5459293" lon="8.9351489"><ele>362.0</ele><time>2026-04-03T13:49:10.19Z</time></trkpt><trkpt lat="44.5458005" lon="8.9352624"><ele>362.0</ele><time>2026-04-03T13:49:11.122Z</time></trkpt><trkpt lat="44.5456817" lon="8.9353672"><ele>362.33333333333337</ele><time>2026-04-03T13:49:12.113Z</time></trkpt><trkpt lat="44.5455535" lon="8.9355101"><ele>362.6666666666667</ele><time>2026-04-03T13:49:13.107Z</time></trkpt><trkpt lat="44.5454405" lon="8.9356556"><ele>363.0</ele><time>2026-04-03T13:49:14.114Z</time></trkpt><trkpt lat="44.5453192" lon="8.9358267"><ele>358.0</ele><time>2026-04-03T13:49:15.162Z</time></trkpt><trkpt lat="44.5452002" lon="8.9360107"><ele>353.0</ele><time>2026-04-03T13:49:16.113Z</time></trkpt><trkpt lat="44.5450927" lon="8.9361567"><ele>348.0</ele><time>2026-04-03T13:49:17.112Z</time></trkpt><trkpt lat="44.5449801" lon="8.9363236"><ele>348.0</ele><time>2026-04-03T13:49:18.163Z</time></trkpt><trkpt lat="44.5448811" lon="8.9364693"><ele>348.0</ele><time>2026-04-03T13:49:19.136Z</time></trkpt><trkpt lat="44.5447831" lon="8.9366266"><ele>348.0</ele><time>2026-04-03T13:49:20.197Z</time></trkpt><trkpt lat="44.544693" lon="8.936761"><ele>348.0</ele><time>2026-04-03T13:49:21.116Z</time></trkpt><trkpt lat="44.5446014" lon="8.9368948"><ele>345.4</ele><time>2026-04-03T13:49:22.108Z</time></trkpt><trkpt lat="44.5445308" lon="8.937028"><ele>342.79999999999995</ele><time>2026-04-03T13:49:23.165Z</time></trkpt><trkpt lat="44.5444778" lon="8.937166"><ele>340.2</ele><time>2026-04-03T13:49:24.201Z</time></trkpt><trkpt lat="44.5444396" lon="8.9372985"><ele>337.6</ele><time>2026-04-03T13:49:25.202Z</time></trkpt><trkpt lat="44.5443419" lon="8.9373702"><ele>335.0</ele><time>2026-04-03T13:49:27.116Z</time></trkpt><trkpt lat="44.544249" lon="8.937414"><ele>335.0</ele><time>2026-04-03T13:49:28.195Z</time></trkpt><trkpt lat="44.5442176" lon="8.9372705"><ele>335.0</ele><time>2026-04-03T13:49:29.102Z</time></trkpt><trkpt lat="44.54413" lon="8.9371366"><ele>335.0</ele><time>2026-04-03T13:49:30.119Z</time></trkpt><trkpt lat="44.5440287" lon="8.9369362"><ele>335.0</ele><time>2026-04-03T13:49:31.111Z</time></trkpt><trkpt lat="44.5438455" lon="8.9365603"><ele>331.6666666666667</ele><time>2026-04-03T13:49:32.101Z</time></trkpt><trkpt lat="44.5437016" lon="8.9363423"><ele>328.3333333333333</ele><time>2026-04-03T13:49:33.103Z</time></trkpt><trkpt lat="44.5435643" lon="8.9361459"><ele>325.0</ele><time>2026-04-03T13:49:34.113Z</time></trkpt><trkpt lat="44.5434306" lon="8.9359458"><ele>329.3333333333333</ele><time>2026-04-03T13:49:35.133Z</time></trkpt><trkpt lat="44.5433067" lon="8.9357506"><ele>333.6666666666667</ele><time>2026-04-03T13:49:36.114Z</time></trkpt><trkpt lat="44.5431854" lon="8.9355791"><ele>338.0</ele><time>2026-04-03T13:49:37.114Z</time></trkpt><trkpt lat="44.5430906" lon="8.9354045"><ele>338.0</ele><time>2026-04-03T13:49:38.158Z</time></trkpt><trkpt lat="44.5429999" lon="8.9352526"><ele>338.0</ele><time>2026-04-03T13:49:39.112Z</time></trkpt><trkpt lat="44.5428343" lon="8.9352204"><ele>338.0</ele><time>2026-04-03T13:49:40.179Z</time></trkpt><trkpt lat="44.5426987" lon="8.9351369"><ele>333.6666666666667</ele><time>2026-04-03T13:49:41.105Z</time></trkpt><trkpt lat="44.5425541" lon="8.9350786"><ele>329.3333333333333</ele><time>2026-04-03T13:49:42.111Z</time></trkpt><trkpt lat="44.5424149" lon="8.9350113"><ele>325.0</ele><time>2026-04-03T13:49:43.157Z</time></trkpt><trkpt lat="44.5422715" lon="8.9349358"><ele>325.0</ele><time>2026-04-03T13:49:44.159Z</time></trkpt><trkpt lat="44.542158" lon="8.9348609"><ele>325.0</ele><time>2026-04-03T13:49:45.151Z</time></trkpt><trkpt lat="44.5420807" lon="8.9347878"><ele>325.0</ele><time>2026-04-03T13:49:46.113Z</time></trkpt><trkpt lat="44.5420089" lon="8.9346282"><ele>325.0</ele><time>2026-04-03T13:49:47.109Z</time></trkpt><trkpt lat="44.5419254" lon="8.9344686"><ele>322.0</ele><time>2026-04-03T13:49:48.155Z</time></trkpt><trkpt lat="44.5418787" lon="8.9343397"><ele>319.0</ele><time>2026-04-03T13:49:49.113Z</time></trkpt><trkpt lat="44.5418236" lon="8.9341856"><ele>316.0</ele><time>2026-04-03T13:49:50.155Z</time></trkpt><trkpt lat="44.541778" lon="8.9339812"><ele>313.0</ele><time>2026-04-03T13:49:51.109Z</time></trkpt><trkpt lat="44.5417621" lon="8.9338266"><ele>312.66666666666663</ele><time>2026-04-03T13:49:52.111Z</time></trkpt><trkpt lat="44.5417595" lon="8.9336212"><ele>312.3333333333333</ele><time>2026-04-03T13:49:53.149Z</time></trkpt><trkpt lat="44.5419263" lon="8.9333172"><ele>312.0</ele><time>2026-04-03T13:49:54.157Z</time></trkpt><trkpt lat="44.5420395" lon="8.9331057"><ele>317.0</ele><time>2026-04-03T13:49:55.181Z</time></trkpt><trkpt lat="44.5421876" lon="8.932928"><ele>322.0</ele><time>2026-04-03T13:49:56.116Z</time></trkpt><trkpt lat="44.5422858" lon="8.9327609"><ele>327.0</ele><time>2026-04-03T13:49:57.109Z</time></trkpt><trkpt lat="44.5424142" lon="8.9325954"><ele>321.75</ele><time>2026-04-03T13:49:58.101Z</time></trkpt><trkpt lat="44.5425231" lon="8.9324539"><ele>316.5</ele><time>2026-04-03T13:49:59.125Z</time></trkpt><trkpt lat="44.5426132" lon="8.9323608"><ele>311.25</ele><time>2026-04-03T13:50:00.175Z</time></trkpt><trkpt lat="44.5427224" lon="8.9322749"><ele>306.0</ele><time>2026-04-03T13:50:01.117Z</time></trkpt><trkpt lat="44.5428027" lon="8.9322322"><ele>306.75</ele><time>2026-04-03T13:50:02.122Z</time></trkpt><trkpt lat="44.5429404" lon="8.932215"><ele>307.5</ele><time>2026-04-03T13:50:03.152Z</time></trkpt><trkpt lat="44.5430627" lon="8.9322521"><ele>308.25</ele><time>2026-04-03T13:50:04.153Z</time></trkpt><trkpt lat="44.5431894" lon="8.9323491"><ele>309.0</ele><time>2026-04-03T13:50:05.183Z</time></trkpt><trkpt lat="44.5433232" lon="8.9323728"><ele>309.0</ele><time>2026-04-03T13:50:06.111Z</time></trkpt><trkpt lat="44.5434288" lon="8.9323709"><ele>309.0</ele><time>2026-04-03T13:50:07.11Z</time></trkpt><trkpt lat="44.5435119" lon="8.9323547"><ele>309.0</ele><time>2026-04-03T13:50:08.169Z</time></trkpt><trkpt lat="44.5436026" lon="8.9322902"><ele>309.0</ele><time>2026-04-03T13:50:09.122Z</time></trkpt><trkpt lat="44.5436414" lon="8.9321766"><ele>309.0</ele><time>2026-04-03T13:50:10.182Z</time></trkpt><trkpt lat="44.5436885" lon="8.9320371"><ele>309.0</ele><time>2026-04-03T13:50:11.111Z</time></trkpt><trkpt lat="44.5436696" lon="8.9318905"><ele>309.0</ele><time>2026-04-03T13:50:12.107Z</time></trkpt><trkpt lat="44.5436649" lon="8.9317481"><ele>309.0</ele><time>2026-04-03T13:50:13.16Z</time></trkpt><trkpt lat="44.5436803" lon="8.9316329"><ele>309.0</ele><time>2026-04-03T13:50:14.177Z</time></trkpt><trkpt lat="44.5436848" lon="8.9315179"><ele>309.0</ele><time>2026-04-03T13:50:15.158Z</time></trkpt><trkpt lat="44.5436952" lon="8.9314159"><ele>309.0</ele><time>2026-04-03T13:50:16.112Z</time></trkpt><trkpt lat="44.5438801" lon="8.9314206"><ele>309.0</ele><time>2026-04-03T13:50:18.193Z</time></trkpt><trkpt lat="44.544037" lon="8.9313857"><ele>309.0</ele><time>2026-04-03T13:50:20.194Z</time></trkpt><trkpt lat="44.5441033" lon="8.9313259"><ele>309.0</ele><time>2026-04-03T13:50:21.112Z</time></trkpt><trkpt lat="44.5441395" lon="8.931042"><ele>309.0</ele><time>2026-04-03T13:50:23.162Z</time></trkpt><trkpt lat="44.5441254" lon="8.9309208"><ele>305.25</ele><time>2026-04-03T13:50:24.163Z</time></trkpt><trkpt lat="44.5440753" lon="8.9307228"><ele>301.5</ele><time>2026-04-03T13:50:25.19Z</time></trkpt><trkpt lat="44.5440421" lon="8.9305245"><ele>297.75</ele><time>2026-04-03T13:50:26.114Z</time></trkpt><trkpt lat="44.5439974" lon="8.9303353"><ele>294.0</ele><time>2026-04-03T13:50:27.115Z</time></trkpt><trkpt lat="44.543967" lon="8.9301381"><ele>292.5</ele><time>2026-04-03T13:50:28.196Z</time></trkpt><trkpt lat="44.5439464" lon="8.9299385"><ele>291.0</ele><time>2026-04-03T13:50:29.162Z</time></trkpt><trkpt lat="44.5439488" lon="8.9297481"><ele>289.5</ele><time>2026-04-03T13:50:30.172Z</time></trkpt><trkpt lat="44.543969" lon="8.9295802"><ele>288.0</ele><time>2026-04-03T13:50:31.109Z</time></trkpt><trkpt lat="44.5440286" lon="8.929455"><ele>288.0</ele><time>2026-04-03T13:50:32.113Z</time></trkpt><trkpt lat="44.5440713" lon="8.9293548"><ele>288.0</ele><time>2026-04-03T13:50:33.131Z</time></trkpt><trkpt lat="44.5441232" lon="8.9292647"><ele>288.0</ele><time>2026-04-03T13:50:34.178Z</time></trkpt><trkpt lat="44.5441841" lon="8.9291917"><ele>288.0</ele><time>2026-04-03T13:50:35.152Z</time></trkpt><trkpt lat="44.5442681" lon="8.9291524"><ele>288.0</ele><time>2026-04-03T13:50:36.115Z</time></trkpt><trkpt lat="44.5444145" lon="8.9291755"><ele>287.0</ele><time>2026-04-03T13:50:37.109Z</time></trkpt><trkpt lat="44.5445174" lon="8.9291775"><ele>286.0</ele><time>2026-04-03T13:50:38.145Z</time></trkpt><trkpt lat="44.5445958" lon="8.9291305"><ele>285.0</ele><time>2026-04-03T13:50:39.141Z</time></trkpt><trkpt lat="44.5446751" lon="8.9290499"><ele>284.0</ele><time>2026-04-03T13:50:40.144Z</time></trkpt><trkpt lat="44.5447333" lon="8.9289711"><ele>283.0</ele><time>2026-04-03T13:50:41.108Z</time></trkpt><trkpt lat="44.5447841" lon="8.9288488"><ele>283.0</ele><time>2026-04-03T13:50:42.112Z</time></trkpt><trkpt lat="44.5447942" lon="8.9287353"><ele>283.0</ele><time>2026-04-03T13:50:43.15Z</time></trkpt><trkpt lat="44.5447865" lon="8.9286409"><ele>283.0</ele><time>2026-04-03T13:50:44.148Z</time></trkpt><trkpt lat="44.5447303" lon="8.9285597"><ele>283.0</ele><time>2026-04-03T13:50:45.144Z</time></trkpt><trkpt lat="44.5446641" lon="8.9285068"><ele>283.0</ele><time>2026-04-03T13:50:46.111Z</time></trkpt><trkpt lat="44.5445878" lon="8.9284705"><ele>283.0</ele><time>2026-04-03T13:50:47.11Z</time></trkpt><trkpt lat="44.5444673" lon="8.9283213"><ele>276.66666666666663</ele><time>2026-04-03T13:50:48.176Z</time></trkpt><trkpt lat="44.5442851" lon="8.9280498"><ele>270.3333333333333</ele><time>2026-04-03T13:50:50.183Z</time></trkpt><trkpt lat="44.5442054" lon="8.9279605"><ele>264.0</ele><time>2026-04-03T13:50:51.115Z</time></trkpt><trkpt lat="44.5440993" lon="8.9279207"><ele>264.0</ele><time>2026-04-03T13:50:52.115Z</time></trkpt><trkpt lat="44.5440291" lon="8.9278821"><ele>264.0</ele><time>2026-04-03T13:50:53.154Z</time></trkpt><trkpt lat="44.543911" lon="8.9280025"><ele>264.0</ele><time>2026-04-03T13:50:54.175Z</time></trkpt><trkpt lat="44.5438107" lon="8.9280757"><ele>264.0</ele><time>2026-04-03T13:50:55.116Z</time></trkpt><trkpt lat="44.5436994" lon="8.9281605"><ele>263.75</ele><time>2026-04-03T13:50:56.111Z</time></trkpt><trkpt lat="44.543594" lon="8.928239"><ele>263.5</ele><time>2026-04-03T13:50:57.19Z</time></trkpt><trkpt lat="44.5434852" lon="8.9283403"><ele>263.25</ele><time>2026-04-03T13:50:58.163Z</time></trkpt><trkpt lat="44.5433876" lon="8.928446"><ele>263.0</ele><time>2026-04-03T13:50:59.151Z</time></trkpt><trkpt lat="44.5433219" lon="8.9285558"><ele>262.0</ele><time>2026-04-03T13:51:00.148Z</time></trkpt><trkpt lat="44.5432611" lon="8.928676"><ele>261.0</ele><time>2026-04-03T13:51:01.111Z</time></trkpt><trkpt lat="44.5432315" lon="8.9288005"><ele>260.0</ele><time>2026-04-03T13:51:02.108Z</time></trkpt><trkpt lat="44.5432033" lon="8.9289238"><ele>259.0</ele><time>2026-04-03T13:51:03.188Z</time></trkpt><trkpt lat="44.5430902" lon="8.9290952"><ele>259.0</ele><time>2026-04-03T13:51:05.159Z</time></trkpt><trkpt lat="44.5429837" lon="8.9291357"><ele>259.0</ele><time>2026-04-03T13:51:06.118Z</time></trkpt><trkpt lat="44.5428691" lon="8.9291402"><ele>259.0</ele><time>2026-04-03T13:51:07.112Z</time></trkpt><trkpt lat="44.5427212" lon="8.9292432"><ele>259.0</ele><time>2026-04-03T13:51:08.161Z</time></trkpt><trkpt lat="44.5426096" lon="8.929195"><ele>257.59999999999997</ele><time>2026-04-03T13:51:09.159Z</time></trkpt><trkpt lat="44.5424757" lon="8.9291694"><ele>256.2</ele><time>2026-04-03T13:51:10.184Z</time></trkpt><trkpt lat="44.5423648" lon="8.9292066"><ele>254.79999999999998</ele><time>2026-04-03T13:51:11.114Z</time></trkpt><trkpt lat="44.5422729" lon="8.9292098"><ele>253.39999999999998</ele><time>2026-04-03T13:51:12.112Z</time></trkpt><trkpt lat="44.5421857" lon="8.9292542"><ele>252.0</ele><time>2026-04-03T13:51:13.164Z</time></trkpt><trkpt lat="44.5420867" lon="8.9293124"><ele>253.39999999999998</ele><time>2026-04-03T13:51:14.163Z</time></trkpt><trkpt lat="44.5419873" lon="8.9293983"><ele>254.79999999999998</ele><time>2026-04-03T13:51:15.199Z</time></trkpt><trkpt lat="44.5419178" lon="8.9294921"><ele>256.2</ele><time>2026-04-03T13:51:16.115Z</time></trkpt><trkpt lat="44.5418763" lon="8.9296128"><ele>257.59999999999997</ele><time>2026-04-03T13:51:17.108Z</time></trkpt><trkpt lat="44.541847" lon="8.9297473"><ele>259.0</ele><time>2026-04-03T13:51:18.162Z</time></trkpt><trkpt lat="44.5418419" lon="8.9299004"><ele>259.0</ele><time>2026-04-03T13:51:19.13Z</time></trkpt><trkpt lat="44.5418316" lon="8.9300483"><ele>259.0</ele><time>2026-04-03T13:51:20.187Z</time></trkpt><trkpt lat="44.541822" lon="8.9301974"><ele>259.0</ele><time>2026-04-03T13:51:21.111Z</time></trkpt><trkpt lat="44.5417908" lon="8.9303542"><ele>259.0</ele><time>2026-04-03T13:51:22.115Z</time></trkpt><trkpt lat="44.5417488" lon="8.9305164"><ele>257.5</ele><time>2026-04-03T13:51:23.193Z</time></trkpt><trkpt lat="44.5416941" lon="8.9306032"><ele>256.0</ele><time>2026-04-03T13:51:24.11Z</time></trkpt><trkpt lat="44.5416235" lon="8.9306447"><ele>254.5</ele><time>2026-04-03T13:51:25.162Z</time></trkpt><trkpt lat="44.5415539" lon="8.9306669"><ele>253.0</ele><time>2026-04-03T13:51:26.111Z</time></trkpt><trkpt lat="44.5414734" lon="8.9306717"><ele>251.49999999999997</ele><time>2026-04-03T13:51:27.119Z</time></trkpt><trkpt lat="44.5413428" lon="8.930656"><ele>250.0</ele><time>2026-04-03T13:51:28.135Z</time></trkpt><trkpt lat="44.5410808" lon="8.9306989"><ele>250.0</ele><time>2026-04-03T13:51:30.1Z</time></trkpt><trkpt lat="44.5409152" lon="8.9307408"><ele>250.0</ele><time>2026-04-03T13:51:31.113Z</time></trkpt><trkpt lat="44.5407287" lon="8.9309417"><ele>250.0</ele><time>2026-04-03T13:51:32.114Z</time></trkpt><trkpt lat="44.5405786" lon="8.9309834"><ele>248.66666666666666</ele><time>2026-04-03T13:51:33.167Z</time></trkpt><trkpt lat="44.5404564" lon="8.9310368"><ele>247.33333333333331</ele><time>2026-04-03T13:51:34.116Z</time></trkpt><trkpt lat="44.5402529" lon="8.9312096"><ele>246.0</ele><time>2026-04-03T13:51:35.11Z</time></trkpt><trkpt lat="44.5401097" lon="8.9312754"><ele>242.0</ele><time>2026-04-03T13:51:36.11Z</time></trkpt><trkpt lat="44.5399834" lon="8.9313276"><ele>238.0</ele><time>2026-04-03T13:51:37.112Z</time></trkpt><trkpt lat="44.5398712" lon="8.9313876"><ele>234.0</ele><time>2026-04-03T13:51:38.116Z</time></trkpt><trkpt lat="44.5397535" lon="8.9314387"><ele>230.0</ele><time>2026-04-03T13:51:39.11Z</time></trkpt><trkpt lat="44.5396364" lon="8.9314586"><ele>231.8</ele><time>2026-04-03T13:51:40.109Z</time></trkpt><trkpt lat="44.5395336" lon="8.9314232"><ele>233.6</ele><time>2026-04-03T13:51:41.111Z</time></trkpt><trkpt lat="44.5394232" lon="8.9313533"><ele>235.39999999999998</ele><time>2026-04-03T13:51:42.11Z</time></trkpt><trkpt lat="44.539324" lon="8.9312619"><ele>237.2</ele><time>2026-04-03T13:51:43.116Z</time></trkpt><trkpt lat="44.5392953" lon="8.9311331"><ele>239.0</ele><time>2026-04-03T13:51:44.108Z</time></trkpt><trkpt lat="44.5392012" lon="8.9309567"><ele>236.66666666666669</ele><time>2026-04-03T13:51:45.114Z</time></trkpt><trkpt lat="44.5390909" lon="8.9307725"><ele>234.33333333333331</ele><time>2026-04-03T13:51:46.111Z</time></trkpt><trkpt lat="44.5389964" lon="8.9306001"><ele>232.0</ele><time>2026-04-03T13:51:47.111Z</time></trkpt><trkpt lat="44.5389078" lon="8.9304282"><ele>232.0</ele><time>2026-04-03T13:51:48.117Z</time></trkpt><trkpt lat="44.5388319" lon="8.930256"><ele>232.0</ele><time>2026-04-03T13:51:49.111Z</time></trkpt><trkpt lat="44.5387522" lon="8.9300908"><ele>232.0</ele><time>2026-04-03T13:51:50.11Z</time></trkpt><trkpt lat="44.5386817" lon="8.9298996"><ele>232.0</ele><time>2026-04-03T13:51:51.107Z</time></trkpt><trkpt lat="44.538615" lon="8.9296866"><ele>232.0</ele><time>2026-04-03T13:51:52.109Z</time></trkpt><trkpt lat="44.5385473" lon="8.9294547"><ele>232.0</ele><time>2026-04-03T13:51:53.112Z</time></trkpt><trkpt lat="44.5384799" lon="8.929215"><ele>232.0</ele><time>2026-04-03T13:51:54.115Z</time></trkpt><trkpt lat="44.5384142" lon="8.9289672"><ele>232.0</ele><time>2026-04-03T13:51:55.112Z</time></trkpt><trkpt lat="44.5383601" lon="8.9286816"><ele>232.0</ele><time>2026-04-03T13:51:56.112Z</time></trkpt><trkpt lat="44.5383031" lon="8.9283886"><ele>232.0</ele><time>2026-04-03T13:51:57.117Z</time></trkpt><trkpt lat="44.5382653" lon="8.92812"><ele>230.66666666666666</ele><time>2026-04-03T13:51:58.109Z</time></trkpt><trkpt lat="44.5382222" lon="8.927871"><ele>229.33333333333331</ele><time>2026-04-03T13:51:59.113Z</time></trkpt><trkpt lat="44.5381593" lon="8.9276527"><ele>228.0</ele><time>2026-04-03T13:52:00.145Z</time></trkpt><trkpt lat="44.5380969" lon="8.9274553"><ele>227.5</ele><time>2026-04-03T13:52:01.107Z</time></trkpt><trkpt lat="44.5380334" lon="8.9272826"><ele>227.0</ele><time>2026-04-03T13:52:02.11Z</time></trkpt><trkpt lat="44.5379921" lon="8.9271437"><ele>226.5</ele><time>2026-04-03T13:52:03.111Z</time></trkpt><trkpt lat="44.5380015" lon="8.9269545"><ele>226.0</ele><time>2026-04-03T13:52:04.122Z</time></trkpt><trkpt lat="44.5380381" lon="8.9267853"><ele>227.5</ele><time>2026-04-03T13:52:05.154Z</time></trkpt><trkpt lat="44.5380593" lon="8.9266131"><ele>229.0</ele><time>2026-04-03T13:52:06.111Z</time></trkpt><trkpt lat="44.5380646" lon="8.9264171"><ele>230.5</ele><time>2026-04-03T13:52:07.109Z</time></trkpt><trkpt lat="44.5380329" lon="8.926267"><ele>232.0</ele><time>2026-04-03T13:52:08.149Z</time></trkpt><trkpt lat="44.5379634" lon="8.926033"><ele>234.75</ele><time>2026-04-03T13:52:09.138Z</time></trkpt><trkpt lat="44.5379108" lon="8.9258472"><ele>237.5</ele><time>2026-04-03T13:52:10.18Z</time></trkpt><trkpt lat="44.5378542" lon="8.9256707"><ele>240.25</ele><time>2026-04-03T13:52:11.116Z</time></trkpt><trkpt lat="44.5378257" lon="8.9254674"><ele>243.0</ele><time>2026-04-03T13:52:12.114Z</time></trkpt><trkpt lat="44.5378359" lon="8.9253103"><ele>236.25</ele><time>2026-04-03T13:52:13.179Z</time></trkpt><trkpt lat="44.5378021" lon="8.925124"><ele>229.5</ele><time>2026-04-03T13:52:14.153Z</time></trkpt><trkpt lat="44.5377046" lon="8.924971"><ele>222.75</ele><time>2026-04-03T13:52:15.191Z</time></trkpt><trkpt lat="44.5376029" lon="8.9248142"><ele>216.0</ele><time>2026-04-03T13:52:16.111Z</time></trkpt><trkpt lat="44.537535" lon="8.9246774"><ele>216.0</ele><time>2026-04-03T13:52:17.111Z</time></trkpt><trkpt lat="44.5374624" lon="8.9245783"><ele>216.00000000000003</ele><time>2026-04-03T13:52:18.192Z</time></trkpt><trkpt lat="44.5373834" lon="8.9244833"><ele>216.00000000000003</ele><time>2026-04-03T13:52:19.157Z</time></trkpt><trkpt lat="44.5373277" lon="8.9244205"><ele>216.0</ele><time>2026-04-03T13:52:20.177Z</time></trkpt><trkpt lat="44.537231" lon="8.9243286"><ele>216.0</ele><time>2026-04-03T13:52:21.112Z</time></trkpt><trkpt lat="44.5371197" lon="8.9242643"><ele>215.0</ele><time>2026-04-03T13:52:22.105Z</time></trkpt><trkpt lat="44.5369933" lon="8.9242211"><ele>214.0</ele><time>2026-04-03T13:52:23.189Z</time></trkpt><trkpt lat="44.536888" lon="8.9242204"><ele>213.0</ele><time>2026-04-03T13:52:24.162Z</time></trkpt><trkpt lat="44.536689" lon="8.924384"><ele>213.0</ele><time>2026-04-03T13:52:25.157Z</time></trkpt><trkpt lat="44.5365954" lon="8.9243693"><ele>213.0</ele><time>2026-04-03T13:52:26.113Z</time></trkpt><trkpt lat="44.5364654" lon="8.9243054"><ele>213.0</ele><time>2026-04-03T13:52:27.111Z</time></trkpt><trkpt lat="44.5363206" lon="8.9242483"><ele>213.0</ele><time>2026-04-03T13:52:28.189Z</time></trkpt><trkpt lat="44.5362336" lon="8.924112"><ele>211.5</ele><time>2026-04-03T13:52:29.128Z</time></trkpt><trkpt lat="44.5361451" lon="8.9239851"><ele>210.0</ele><time>2026-04-03T13:52:30.181Z</time></trkpt><trkpt lat="44.5360625" lon="8.9238696"><ele>208.5</ele><time>2026-04-03T13:52:31.115Z</time></trkpt><trkpt lat="44.5359418" lon="8.9237619"><ele>207.0</ele><time>2026-04-03T13:52:32.114Z</time></trkpt><trkpt lat="44.5357995" lon="8.9237908"><ele>207.0</ele><time>2026-04-03T13:52:33.14Z</time></trkpt><trkpt lat="44.5356715" lon="8.9237267"><ele>207.0</ele><time>2026-04-03T13:52:34.166Z</time></trkpt><trkpt lat="44.5355573" lon="8.9236818"><ele>207.0</ele><time>2026-04-03T13:52:35.17Z</time></trkpt><trkpt lat="44.5354665" lon="8.9236695"><ele>207.0</ele><time>2026-04-03T13:52:36.111Z</time></trkpt><trkpt lat="44.5353686" lon="8.9236577"><ele>207.0</ele><time>2026-04-03T13:52:37.116Z</time></trkpt><trkpt lat="44.53524" lon="8.9237003"><ele>206.33333333333331</ele><time>2026-04-03T13:52:38.114Z</time></trkpt><trkpt lat="44.5350993" lon="8.9236974"><ele>205.66666666666666</ele><time>2026-04-03T13:52:39.13Z</time></trkpt><trkpt lat="44.5349371" lon="8.9236187"><ele>205.0</ele><time>2026-04-03T13:52:40.165Z</time></trkpt><trkpt lat="44.534763" lon="8.9233823"><ele>205.0</ele><time>2026-04-03T13:52:41.109Z</time></trkpt><trkpt lat="44.534582" lon="8.9232745"><ele>205.0</ele><time>2026-04-03T13:52:42.111Z</time></trkpt><trkpt lat="44.534406" lon="8.9231627"><ele>205.0</ele><time>2026-04-03T13:52:43.12Z</time></trkpt><trkpt lat="44.5342194" lon="8.9230643"><ele>204.33333333333331</ele><time>2026-04-03T13:52:44.183Z</time></trkpt><trkpt lat="44.5340459" lon="8.9230053"><ele>203.66666666666669</ele><time>2026-04-03T13:52:45.173Z</time></trkpt><trkpt lat="44.5338406" lon="8.9229572"><ele>203.0</ele><time>2026-04-03T13:52:46.12Z</time></trkpt><trkpt lat="44.5336701" lon="8.9228679"><ele>202.33333333333334</ele><time>2026-04-03T13:52:47.101Z</time></trkpt><trkpt lat="44.5334863" lon="8.9227914"><ele>201.66666666666669</ele><time>2026-04-03T13:52:48.118Z</time></trkpt><trkpt lat="44.5333687" lon="8.9225574"><ele>201.0</ele><time>2026-04-03T13:52:49.107Z</time></trkpt><trkpt lat="44.5332479" lon="8.9223321"><ele>201.0</ele><time>2026-04-03T13:52:50.179Z</time></trkpt><trkpt lat="44.5331119" lon="8.9221271"><ele>201.0</ele><time>2026-04-03T13:52:51.115Z</time></trkpt><trkpt lat="44.5330256" lon="8.921876"><ele>201.0</ele><time>2026-04-03T13:52:52.116Z</time></trkpt><trkpt lat="44.5328782" lon="8.9217002"><ele>199.0</ele><time>2026-04-03T13:52:53.146Z</time></trkpt><trkpt lat="44.5327366" lon="8.9215166"><ele>197.0</ele><time>2026-04-03T13:52:54.178Z</time></trkpt><trkpt lat="44.5326056" lon="8.921294"><ele>195.0</ele><time>2026-04-03T13:52:55.106Z</time></trkpt><trkpt lat="44.5324852" lon="8.9210807"><ele>195.33333333333331</ele><time>2026-04-03T13:52:56.117Z</time></trkpt><trkpt lat="44.5323757" lon="8.9208849"><ele>195.66666666666666</ele><time>2026-04-03T13:52:57.117Z</time></trkpt><trkpt lat="44.5322616" lon="8.9207301"><ele>196.0</ele><time>2026-04-03T13:52:58.171Z</time></trkpt><trkpt lat="44.5321427" lon="8.9205986"><ele>195.75</ele><time>2026-04-03T13:52:59.167Z</time></trkpt><trkpt lat="44.5320319" lon="8.9205193"><ele>195.5</ele><time>2026-04-03T13:53:00.177Z</time></trkpt><trkpt lat="44.531935" lon="8.9203915"><ele>195.25</ele><time>2026-04-03T13:53:01.111Z</time></trkpt><trkpt lat="44.5318283" lon="8.9202967"><ele>195.0</ele><time>2026-04-03T13:53:02.114Z</time></trkpt><trkpt lat="44.5318022" lon="8.9201446"><ele>192.75</ele><time>2026-04-03T13:53:03.151Z</time></trkpt><trkpt lat="44.531813" lon="8.9199895"><ele>190.5</ele><time>2026-04-03T13:53:04.137Z</time></trkpt><trkpt lat="44.5318197" lon="8.919816"><ele>188.25</ele><time>2026-04-03T13:53:05.191Z</time></trkpt><trkpt lat="44.5318329" lon="8.9196551"><ele>186.0</ele><time>2026-04-03T13:53:06.111Z</time></trkpt><trkpt lat="44.5318236" lon="8.9195004"><ele>186.0</ele><time>2026-04-03T13:53:07.117Z</time></trkpt><trkpt lat="44.5317701" lon="8.9193534"><ele>186.0</ele><time>2026-04-03T13:53:08.193Z</time></trkpt><trkpt lat="44.5317112" lon="8.9192345"><ele>186.0</ele><time>2026-04-03T13:53:09.157Z</time></trkpt><trkpt lat="44.5316489" lon="8.9191378"><ele>186.0</ele><time>2026-04-03T13:53:10.19Z</time></trkpt><trkpt lat="44.5315606" lon="8.9190786"><ele>186.0</ele><time>2026-04-03T13:53:11.115Z</time></trkpt><trkpt lat="44.531393" lon="8.9187988"><ele>187.5</ele><time>2026-04-03T13:53:13.187Z</time></trkpt><trkpt lat="44.5313329" lon="8.9186534"><ele>189.0</ele><time>2026-04-03T13:53:14.175Z</time></trkpt><trkpt lat="44.5312644" lon="8.918479"><ele>190.5</ele><time>2026-04-03T13:53:15.168Z</time></trkpt><trkpt lat="44.5312584" lon="8.9182582"><ele>192.0</ele><time>2026-04-03T13:53:16.115Z</time></trkpt><trkpt lat="44.5312011" lon="8.9181047"><ele>188.5</ele><time>2026-04-03T13:53:17.107Z</time></trkpt><trkpt lat="44.5311385" lon="8.9179338"><ele>185.0</ele><time>2026-04-03T13:53:18.178Z</time></trkpt><trkpt lat="44.5310685" lon="8.9177998"><ele>181.5</ele><time>2026-04-03T13:53:19.157Z</time></trkpt><trkpt lat="44.5309652" lon="8.9176833"><ele>178.0</ele><time>2026-04-03T13:53:20.168Z</time></trkpt><trkpt lat="44.5308589" lon="8.9175865"><ele>180.0</ele><time>2026-04-03T13:53:21.11Z</time></trkpt><trkpt lat="44.5307102" lon="8.9174738"><ele>182.0</ele><time>2026-04-03T13:53:22.113Z</time></trkpt><trkpt lat="44.5305767" lon="8.9173687"><ele>184.0</ele><time>2026-04-03T13:53:23.111Z</time></trkpt><trkpt lat="44.5304822" lon="8.9172746"><ele>186.0</ele><time>2026-04-03T13:53:24.179Z</time></trkpt><trkpt lat="44.5304114" lon="8.9171932"><ele>184.4</ele><time>2026-04-03T13:53:25.151Z</time></trkpt><trkpt lat="44.5303126" lon="8.917134"><ele>182.8</ele><time>2026-04-03T13:53:26.113Z</time></trkpt><trkpt lat="44.530206" lon="8.917059"><ele>181.20000000000002</ele><time>2026-04-03T13:53:27.109Z</time></trkpt><trkpt lat="44.5301243" lon="8.9169681"><ele>179.60000000000002</ele><time>2026-04-03T13:53:28.165Z</time></trkpt><trkpt lat="44.5300608" lon="8.9168707"><ele>178.0</ele><time>2026-04-03T13:53:29.117Z</time></trkpt><trkpt lat="44.5299868" lon="8.9167599"><ele>178.5</ele><time>2026-04-03T13:53:30.124Z</time></trkpt><trkpt lat="44.5299097" lon="8.9166314"><ele>179.0</ele><time>2026-04-03T13:53:31.11Z</time></trkpt><trkpt lat="44.5298316" lon="8.9164893"><ele>179.5</ele><time>2026-04-03T13:53:32.109Z</time></trkpt><trkpt lat="44.5297514" lon="8.916377"><ele>180.0</ele><time>2026-04-03T13:53:33.11Z</time></trkpt><trkpt lat="44.5296774" lon="8.9162594"><ele>180.0</ele><time>2026-04-03T13:53:34.159Z</time></trkpt><trkpt lat="44.5296106" lon="8.91614"><ele>180.0</ele><time>2026-04-03T13:53:35.153Z</time></trkpt><trkpt lat="44.5295356" lon="8.9160217"><ele>180.0</ele><time>2026-04-03T13:53:36.113Z</time></trkpt><trkpt lat="44.5294772" lon="8.9159106"><ele>180.0</ele><time>2026-04-03T13:53:37.111Z</time></trkpt><trkpt lat="44.5294206" lon="8.9157944"><ele>180.0</ele><time>2026-04-03T13:53:38.147Z</time></trkpt><trkpt lat="44.5293673" lon="8.91566"><ele>177.8</ele><time>2026-04-03T13:53:39.144Z</time></trkpt><trkpt lat="44.5293039" lon="8.9155611"><ele>175.6</ele><time>2026-04-03T13:53:40.147Z</time></trkpt><trkpt lat="44.529251" lon="8.9154294"><ele>173.39999999999998</ele><time>2026-04-03T13:53:41.109Z</time></trkpt><trkpt lat="44.529209" lon="8.9152839"><ele>171.2</ele><time>2026-04-03T13:53:42.107Z</time></trkpt><trkpt lat="44.529147" lon="8.915204"><ele>169.0</ele><time>2026-04-03T13:53:43.147Z</time></trkpt><trkpt lat="44.5290867" lon="8.9150877"><ele>168.6</ele><time>2026-04-03T13:53:44.145Z</time></trkpt><trkpt lat="44.5290162" lon="8.9150042"><ele>168.2</ele><time>2026-04-03T13:53:45.107Z</time></trkpt><trkpt lat="44.5289497" lon="8.9150086"><ele>167.79999999999998</ele><time>2026-04-03T13:53:46.111Z</time></trkpt><trkpt lat="44.5288524" lon="8.9150223"><ele>167.39999999999998</ele><time>2026-04-03T13:53:47.162Z</time></trkpt><trkpt lat="44.528739" lon="8.9150561"><ele>167.0</ele><time>2026-04-03T13:53:48.174Z</time></trkpt><trkpt lat="44.5285845" lon="8.9151153"><ele>167.0</ele><time>2026-04-03T13:53:49.153Z</time></trkpt><trkpt lat="44.5284487" lon="8.9151238"><ele>167.0</ele><time>2026-04-03T13:53:50.112Z</time></trkpt><trkpt lat="44.5282962" lon="8.9151495"><ele>167.0</ele><time>2026-04-03T13:53:51.117Z</time></trkpt><trkpt lat="44.5281409" lon="8.9151969"><ele>167.0</ele><time>2026-04-03T13:53:52.11Z</time></trkpt><trkpt lat="44.5280108" lon="8.9152077"><ele>167.0</ele><time>2026-04-03T13:53:53.152Z</time></trkpt><trkpt lat="44.5279089" lon="8.9151845"><ele>167.0</ele><time>2026-04-03T13:53:54.142Z</time></trkpt><trkpt lat="44.5278248" lon="8.9151284"><ele>167.0</ele><time>2026-04-03T13:53:55.147Z</time></trkpt><trkpt lat="44.5276826" lon="8.9149742"><ele>167.0</ele><time>2026-04-03T13:53:57.108Z</time></trkpt><trkpt lat="44.5276122" lon="8.9149211"><ele>166.8</ele><time>2026-04-03T13:53:58.162Z</time></trkpt><trkpt lat="44.5275376" lon="8.9148683"><ele>166.6</ele><time>2026-04-03T13:53:59.152Z</time></trkpt><trkpt lat="44.5274604" lon="8.9147898"><ele>166.4</ele><time>2026-04-03T13:54:00.19Z</time></trkpt><trkpt lat="44.5273643" lon="8.9146948"><ele>166.20000000000002</ele><time>2026-04-03T13:54:01.117Z</time></trkpt><trkpt lat="44.5272903" lon="8.9146179"><ele>166.0</ele><time>2026-04-03T13:54:02.114Z</time></trkpt><trkpt lat="44.5272092" lon="8.9144993"><ele>166.0</ele><time>2026-04-03T13:54:03.162Z</time></trkpt><trkpt lat="44.5271187" lon="8.9143769"><ele>166.0</ele><time>2026-04-03T13:54:04.153Z</time></trkpt><trkpt lat="44.5270203" lon="8.9142644"><ele>166.0</ele><time>2026-04-03T13:54:05.165Z</time></trkpt><trkpt lat="44.5269218" lon="8.9141499"><ele>166.0</ele><time>2026-04-03T13:54:06.111Z</time></trkpt><trkpt lat="44.5268396" lon="8.9140541"><ele>165.5</ele><time>2026-04-03T13:54:07.111Z</time></trkpt><trkpt lat="44.5267475" lon="8.9139467"><ele>165.0</ele><time>2026-04-03T13:54:08.187Z</time></trkpt><trkpt lat="44.5266787" lon="8.9138509"><ele>164.5</ele><time>2026-04-03T13:54:09.163Z</time></trkpt><trkpt lat="44.5265573" lon="8.9137917"><ele>164.0</ele><time>2026-04-03T13:54:10.19Z</time></trkpt><trkpt lat="44.5264459" lon="8.9137451"><ele>164.0</ele><time>2026-04-03T13:54:11.118Z</time></trkpt><trkpt lat="44.5263264" lon="8.9137047"><ele>164.0</ele><time>2026-04-03T13:54:12.109Z</time></trkpt><trkpt lat="44.5262159" lon="8.9136836"><ele>164.0</ele><time>2026-04-03T13:54:13.113Z</time></trkpt><trkpt lat="44.525967" lon="8.9136473"><ele>163.5</ele><time>2026-04-03T13:54:15.188Z</time></trkpt><trkpt lat="44.5258507" lon="8.9136055"><ele>163.0</ele><time>2026-04-03T13:54:16.106Z</time></trkpt><trkpt lat="44.5257627" lon="8.9135294"><ele>162.5</ele><time>2026-04-03T13:54:17.11Z</time></trkpt><trkpt lat="44.5256301" lon="8.91353"><ele>162.0</ele><time>2026-04-03T13:54:18.108Z</time></trkpt><trkpt lat="44.5255165" lon="8.9135305"><ele>162.0</ele><time>2026-04-03T13:54:19.115Z</time></trkpt><trkpt lat="44.5254143" lon="8.9135342"><ele>162.0</ele><time>2026-04-03T13:54:20.128Z</time></trkpt><trkpt lat="44.5253077" lon="8.9135481"><ele>162.0</ele><time>2026-04-03T13:54:21.117Z</time></trkpt><trkpt lat="44.525242" lon="8.9135263"><ele>162.0</ele><time>2026-04-03T13:54:22.199Z</time></trkpt><trkpt lat="44.5251327" lon="8.9135324"><ele>162.0</ele><time>2026-04-03T13:54:23.18Z</time></trkpt><trkpt lat="44.5250511" lon="8.9135508"><ele>162.0</ele><time>2026-04-03T13:54:24.17Z</time></trkpt><trkpt lat="44.5249478" lon="8.9135749"><ele>162.0</ele><time>2026-04-03T13:54:25.152Z</time></trkpt><trkpt lat="44.52484" lon="8.9135953"><ele>162.0</ele><time>2026-04-03T13:54:26.106Z</time></trkpt><trkpt lat="44.5247126" lon="8.9136676"><ele>162.0</ele><time>2026-04-03T13:54:27.109Z</time></trkpt><trkpt lat="44.5245506" lon="8.9137674"><ele>162.0</ele><time>2026-04-03T13:54:28.107Z</time></trkpt><trkpt lat="44.5244254" lon="8.9137562"><ele>162.0</ele><time>2026-04-03T13:54:29.117Z</time></trkpt><trkpt lat="44.5242611" lon="8.9137883"><ele>162.0</ele><time>2026-04-03T13:54:30.109Z</time></trkpt><trkpt lat="44.5241596" lon="8.9136766"><ele>162.0</ele><time>2026-04-03T13:54:31.112Z</time></trkpt><trkpt lat="44.5240229" lon="8.9136294"><ele>162.0</ele><time>2026-04-03T13:54:32.121Z</time></trkpt><trkpt lat="44.5238798" lon="8.9135988"><ele>162.0</ele><time>2026-04-03T13:54:33.193Z</time></trkpt><trkpt lat="44.5237599" lon="8.9135495"><ele>162.0</ele><time>2026-04-03T13:54:34.147Z</time></trkpt><trkpt lat="44.5236365" lon="8.913493"><ele>162.0</ele><time>2026-04-03T13:54:35.142Z</time></trkpt><trkpt lat="44.5235238" lon="8.9134446"><ele>160.25</ele><time>2026-04-03T13:54:36.123Z</time></trkpt><trkpt lat="44.5234036" lon="8.9133637"><ele>158.5</ele><time>2026-04-03T13:54:37.109Z</time></trkpt><trkpt lat="44.5232753" lon="8.9133277"><ele>156.75</ele><time>2026-04-03T13:54:38.143Z</time></trkpt><trkpt lat="44.5231433" lon="8.913306"><ele>155.0</ele><time>2026-04-03T13:54:39.145Z</time></trkpt><trkpt lat="44.5230281" lon="8.9132619"><ele>155.0</ele><time>2026-04-03T13:54:40.166Z</time></trkpt><trkpt lat="44.5229031" lon="8.9132239"><ele>155.0</ele><time>2026-04-03T13:54:41.123Z</time></trkpt><trkpt lat="44.5227877" lon="8.9132078"><ele>155.0</ele><time>2026-04-03T13:54:42.114Z</time></trkpt><trkpt lat="44.5226557" lon="8.9132263"><ele>155.0</ele><time>2026-04-03T13:54:43.184Z</time></trkpt><trkpt lat="44.5225314" lon="8.9132739"><ele>155.25</ele><time>2026-04-03T13:54:44.164Z</time></trkpt><trkpt lat="44.5224095" lon="8.9133374"><ele>155.5</ele><time>2026-04-03T13:54:45.18Z</time></trkpt><trkpt lat="44.522295" lon="8.9134159"><ele>155.75</ele><time>2026-04-03T13:54:46.114Z</time></trkpt><trkpt lat="44.5221683" lon="8.9135221"><ele>156.0</ele><time>2026-04-03T13:54:47.114Z</time></trkpt><trkpt lat="44.5221138" lon="8.9137102"><ele>155.75</ele><time>2026-04-03T13:54:48.179Z</time></trkpt><trkpt lat="44.5220408" lon="8.9138743"><ele>155.5</ele><time>2026-04-03T13:54:49.164Z</time></trkpt><trkpt lat="44.5219896" lon="8.9140419"><ele>155.25</ele><time>2026-04-03T13:54:50.161Z</time></trkpt><trkpt lat="44.5219331" lon="8.9142332"><ele>155.0</ele><time>2026-04-03T13:54:51.114Z</time></trkpt><trkpt lat="44.52188" lon="8.9144229"><ele>155.0</ele><time>2026-04-03T13:54:52.113Z</time></trkpt><trkpt lat="44.5218296" lon="8.9145965"><ele>155.0</ele><time>2026-04-03T13:54:53.114Z</time></trkpt><trkpt lat="44.5218159" lon="8.9147563"><ele>155.0</ele><time>2026-04-03T13:54:54.115Z</time></trkpt><trkpt lat="44.5217494" lon="8.9149111"><ele>155.0</ele><time>2026-04-03T13:54:55.153Z</time></trkpt><trkpt lat="44.5216531" lon="8.9150448"><ele>156.0</ele><time>2026-04-03T13:54:56.116Z</time></trkpt><trkpt lat="44.5214391" lon="8.915202"><ele>157.0</ele><time>2026-04-03T13:54:57.115Z</time></trkpt><trkpt lat="44.5213065" lon="8.915355"><ele>158.0</ele><time>2026-04-03T13:54:58.159Z</time></trkpt><trkpt lat="44.5211806" lon="8.9154977"><ele>158.0</ele><time>2026-04-03T13:54:59.136Z</time></trkpt><trkpt lat="44.5210647" lon="8.915613"><ele>158.0</ele><time>2026-04-03T13:55:00.16Z</time></trkpt><trkpt lat="44.5209542" lon="8.9157392"><ele>158.0</ele><time>2026-04-03T13:55:01.111Z</time></trkpt><trkpt lat="44.5208358" lon="8.9158692"><ele>158.0</ele><time>2026-04-03T13:55:02.109Z</time></trkpt><trkpt lat="44.5207213" lon="8.9160046"><ele>157.0</ele><time>2026-04-03T13:55:03.157Z</time></trkpt><trkpt lat="44.5206128" lon="8.9161258"><ele>156.0</ele><time>2026-04-03T13:55:04.174Z</time></trkpt><trkpt lat="44.5205188" lon="8.916263"><ele>155.0</ele><time>2026-04-03T13:55:05.195Z</time></trkpt><trkpt lat="44.5204409" lon="8.9164187"><ele>154.0</ele><time>2026-04-03T13:55:06.116Z</time></trkpt><trkpt lat="44.5203817" lon="8.9165842"><ele>154.0</ele><time>2026-04-03T13:55:07.109Z</time></trkpt><trkpt lat="44.5203059" lon="8.9167452"><ele>154.0</ele><time>2026-04-03T13:55:08.192Z</time></trkpt><trkpt lat="44.5202456" lon="8.9169159"><ele>154.0</ele><time>2026-04-03T13:55:09.152Z</time></trkpt><trkpt lat="44.5201809" lon="8.9170804"><ele>154.0</ele><time>2026-04-03T13:55:10.174Z</time></trkpt><trkpt lat="44.5201147" lon="8.9172404"><ele>154.0</ele><time>2026-04-03T13:55:11.109Z</time></trkpt><trkpt lat="44.5200657" lon="8.9173894"><ele>154.0</ele><time>2026-04-03T13:55:12.111Z</time></trkpt><trkpt lat="44.5200179" lon="8.917532"><ele>154.0</ele><time>2026-04-03T13:55:13.114Z</time></trkpt><trkpt lat="44.5199957" lon="8.9176561"><ele>154.0</ele><time>2026-04-03T13:55:14.104Z</time></trkpt><trkpt lat="44.5199393" lon="8.9177669"><ele>154.0</ele><time>2026-04-03T13:55:15.104Z</time></trkpt><trkpt lat="44.5198848" lon="8.9179079"><ele>151.33333333333334</ele><time>2026-04-03T13:55:16.108Z</time></trkpt><trkpt lat="44.5198283" lon="8.9180173"><ele>148.66666666666666</ele><time>2026-04-03T13:55:17.11Z</time></trkpt><trkpt lat="44.5197546" lon="8.9180232"><ele>146.0</ele><time>2026-04-03T13:55:19.131Z</time></trkpt><trkpt lat="44.5195253" lon="8.9177358"><ele>145.66666666666666</ele><time>2026-04-03T13:55:21.108Z</time></trkpt><trkpt lat="44.5193978" lon="8.9176129"><ele>145.33333333333334</ele><time>2026-04-03T13:55:22.11Z</time></trkpt><trkpt lat="44.5192882" lon="8.917463"><ele>145.0</ele><time>2026-04-03T13:55:23.109Z</time></trkpt><trkpt lat="44.5191893" lon="8.9173177"><ele>145.0</ele><time>2026-04-03T13:55:24.102Z</time></trkpt><trkpt lat="44.5191072" lon="8.9171725"><ele>145.0</ele><time>2026-04-03T13:55:25.112Z</time></trkpt><trkpt lat="44.5190715" lon="8.9170161"><ele>145.0</ele><time>2026-04-03T13:55:26.11Z</time></trkpt><trkpt lat="44.5190437" lon="8.9168415"><ele>145.0</ele><time>2026-04-03T13:55:27.111Z</time></trkpt><trkpt lat="44.5190138" lon="8.9166637"><ele>148.25</ele><time>2026-04-03T13:55:28.104Z</time></trkpt><trkpt lat="44.5190082" lon="8.9164693"><ele>151.5</ele><time>2026-04-03T13:55:29.112Z</time></trkpt><trkpt lat="44.5190349" lon="8.9163033"><ele>154.75</ele><time>2026-04-03T13:55:30.106Z</time></trkpt><trkpt lat="44.5190193" lon="8.9161087"><ele>158.0</ele><time>2026-04-03T13:55:31.113Z</time></trkpt><trkpt lat="44.5190221" lon="8.915963"><ele>159.75</ele><time>2026-04-03T13:55:32.107Z</time></trkpt><trkpt lat="44.518997" lon="8.9157972"><ele>161.5</ele><time>2026-04-03T13:55:33.111Z</time></trkpt><trkpt lat="44.5189621" lon="8.9156083"><ele>163.25</ele><time>2026-04-03T13:55:34.115Z</time></trkpt><trkpt lat="44.5189267" lon="8.9154249"><ele>165.0</ele><time>2026-04-03T13:55:35.11Z</time></trkpt><trkpt lat="44.5188836" lon="8.9152613"><ele>165.0</ele><time>2026-04-03T13:55:36.11Z</time></trkpt><trkpt lat="44.5188362" lon="8.9151144"><ele>165.0</ele><time>2026-04-03T13:55:37.111Z</time></trkpt><trkpt lat="44.5187947" lon="8.9149653"><ele>165.0</ele><time>2026-04-03T13:55:38.111Z</time></trkpt><trkpt lat="44.5187476" lon="8.9148191"><ele>165.0</ele><time>2026-04-03T13:55:39.107Z</time></trkpt><trkpt lat="44.5187088" lon="8.9146663"><ele>159.75</ele><time>2026-04-03T13:55:40.153Z</time></trkpt><trkpt lat="44.5186754" lon="8.9145135"><ele>154.5</ele><time>2026-04-03T13:55:41.114Z</time></trkpt><trkpt lat="44.5186397" lon="8.9143586"><ele>149.25</ele><time>2026-04-03T13:55:42.116Z</time></trkpt><trkpt lat="44.5185873" lon="8.9142001"><ele>144.0</ele><time>2026-04-03T13:55:43.158Z</time></trkpt><trkpt lat="44.5185349" lon="8.9140643"><ele>142.5</ele><time>2026-04-03T13:55:44.196Z</time></trkpt><trkpt lat="44.5184638" lon="8.913905"><ele>141.0</ele><time>2026-04-03T13:55:45.206Z</time></trkpt><trkpt lat="44.5183638" lon="8.9137373"><ele>139.5</ele><time>2026-04-03T13:55:46.113Z</time></trkpt><trkpt lat="44.5182738" lon="8.9136688"><ele>138.0</ele><time>2026-04-03T13:55:47.113Z</time></trkpt><trkpt lat="44.5181806" lon="8.9135632"><ele>138.0</ele><time>2026-04-03T13:55:48.185Z</time></trkpt><trkpt lat="44.5180917" lon="8.9134738"><ele>138.0</ele><time>2026-04-03T13:55:49.139Z</time></trkpt><trkpt lat="44.518028" lon="8.9133784"><ele>138.0</ele><time>2026-04-03T13:55:50.147Z</time></trkpt><trkpt lat="44.5179652" lon="8.9132838"><ele>138.0</ele><time>2026-04-03T13:55:51.114Z</time></trkpt><trkpt lat="44.5179011" lon="8.9131807"><ele>138.0</ele><time>2026-04-03T13:55:52.114Z</time></trkpt><trkpt lat="44.5178669" lon="8.9130789"><ele>137.4</ele><time>2026-04-03T13:55:53.141Z</time></trkpt><trkpt lat="44.517824" lon="8.9129935"><ele>136.8</ele><time>2026-04-03T13:55:54.139Z</time></trkpt><trkpt lat="44.517763" lon="8.9128928"><ele>136.2</ele><time>2026-04-03T13:55:55.157Z</time></trkpt><trkpt lat="44.5177032" lon="8.9128109"><ele>135.6</ele><time>2026-04-03T13:55:56.109Z</time></trkpt><trkpt lat="44.5176018" lon="8.9127283"><ele>135.0</ele><time>2026-04-03T13:55:57.108Z</time></trkpt><trkpt lat="44.5175037" lon="8.9126949"><ele>135.0</ele><time>2026-04-03T13:55:58.143Z</time></trkpt><trkpt lat="44.517403" lon="8.9126554"><ele>135.0</ele><time>2026-04-03T13:55:59.147Z</time></trkpt><trkpt lat="44.5173092" lon="8.9126109"><ele>135.0</ele><time>2026-04-03T13:56:00.11Z</time></trkpt><trkpt lat="44.5172206" lon="8.9125516"><ele>135.0</ele><time>2026-04-03T13:56:01.108Z</time></trkpt><trkpt lat="44.5171144" lon="8.9125074"><ele>135.0</ele><time>2026-04-03T13:56:02.129Z</time></trkpt><trkpt lat="44.5169894" lon="8.9125112"><ele>135.75</ele><time>2026-04-03T13:56:03.164Z</time></trkpt><trkpt lat="44.5168918" lon="8.9125361"><ele>136.5</ele><time>2026-04-03T13:56:04.178Z</time></trkpt><trkpt lat="44.5167935" lon="8.9125875"><ele>137.25</ele><time>2026-04-03T13:56:05.107Z</time></trkpt><trkpt lat="44.5166872" lon="8.9126691"><ele>138.0</ele><time>2026-04-03T13:56:06.109Z</time></trkpt><trkpt lat="44.5165954" lon="8.9127942"><ele>138.0</ele><time>2026-04-03T13:56:07.135Z</time></trkpt><trkpt lat="44.5165268" lon="8.9128765"><ele>138.0</ele><time>2026-04-03T13:56:08.172Z</time></trkpt><trkpt lat="44.5164583" lon="8.9129386"><ele>138.0</ele><time>2026-04-03T13:56:09.14Z</time></trkpt><trkpt lat="44.5163667" lon="8.9129992"><ele>138.0</ele><time>2026-04-03T13:56:10.154Z</time></trkpt><trkpt lat="44.5162971" lon="8.9130845"><ele>138.0</ele><time>2026-04-03T13:56:11.115Z</time></trkpt><trkpt lat="44.5161882" lon="8.9131576"><ele>138.0</ele><time>2026-04-03T13:56:12.107Z</time></trkpt><trkpt lat="44.516046" lon="8.9132784"><ele>138.0</ele><time>2026-04-03T13:56:13.151Z</time></trkpt><trkpt lat="44.515854" lon="8.9134421"><ele>138.0</ele><time>2026-04-03T13:56:14.187Z</time></trkpt><trkpt lat="44.515698" lon="8.9135213"><ele>136.25</ele><time>2026-04-03T13:56:15.152Z</time></trkpt><trkpt lat="44.5155445" lon="8.9135965"><ele>134.5</ele><time>2026-04-03T13:56:16.113Z</time></trkpt><trkpt lat="44.5154292" lon="8.9136535"><ele>132.75</ele><time>2026-04-03T13:56:17.111Z</time></trkpt><trkpt lat="44.5152938" lon="8.9137335"><ele>131.0</ele><time>2026-04-03T13:56:18.148Z</time></trkpt><trkpt lat="44.5151619" lon="8.9138071"><ele>130.0</ele><time>2026-04-03T13:56:19.155Z</time></trkpt><trkpt lat="44.5150255" lon="8.9139011"><ele>129.0</ele><time>2026-04-03T13:56:20.191Z</time></trkpt><trkpt lat="44.5149101" lon="8.913978"><ele>128.0</ele><time>2026-04-03T13:56:21.115Z</time></trkpt><trkpt lat="44.5147858" lon="8.9140481"><ele>127.0</ele><time>2026-04-03T13:56:22.116Z</time></trkpt><trkpt lat="44.5146804" lon="8.9141126"><ele>127.25</ele><time>2026-04-03T13:56:23.195Z</time></trkpt><trkpt lat="44.5145661" lon="8.9141853"><ele>127.5</ele><time>2026-04-03T13:56:24.194Z</time></trkpt><trkpt lat="44.5144618" lon="8.9142121"><ele>127.75</ele><time>2026-04-03T13:56:25.16Z</time></trkpt><trkpt lat="44.5143258" lon="8.9142349"><ele>128.0</ele><time>2026-04-03T13:56:26.114Z</time></trkpt><trkpt lat="44.5142061" lon="8.9142703"><ele>128.0</ele><time>2026-04-03T13:56:27.111Z</time></trkpt><trkpt lat="44.5140854" lon="8.9143047"><ele>128.0</ele><time>2026-04-03T13:56:28.197Z</time></trkpt><trkpt lat="44.5139698" lon="8.9143081"><ele>128.0</ele><time>2026-04-03T13:56:29.163Z</time></trkpt><trkpt lat="44.5138573" lon="8.9143079"><ele>128.0</ele><time>2026-04-03T13:56:30.158Z</time></trkpt><trkpt lat="44.5137516" lon="8.9143292"><ele>126.5</ele><time>2026-04-03T13:56:31.114Z</time></trkpt><trkpt lat="44.5136453" lon="8.9143336"><ele>125.0</ele><time>2026-04-03T13:56:32.114Z</time></trkpt><trkpt lat="44.5135307" lon="8.9143284"><ele>123.5</ele><time>2026-04-03T13:56:33.164Z</time></trkpt><trkpt lat="44.5134134" lon="8.9143186"><ele>122.0</ele><time>2026-04-03T13:56:34.109Z</time></trkpt><trkpt lat="44.5132756" lon="8.9143242"><ele>122.0</ele><time>2026-04-03T13:56:35.107Z</time></trkpt><trkpt lat="44.5131782" lon="8.9143604"><ele>122.0</ele><time>2026-04-03T13:56:36.108Z</time></trkpt><trkpt lat="44.5130906" lon="8.9143057"><ele>122.0</ele><time>2026-04-03T13:56:37.114Z</time></trkpt><trkpt lat="44.5129649" lon="8.9142679"><ele>122.0</ele><time>2026-04-03T13:56:38.109Z</time></trkpt><trkpt lat="44.5128363" lon="8.9141837"><ele>122.0</ele><time>2026-04-03T13:56:39.137Z</time></trkpt><trkpt lat="44.5127002" lon="8.9140775"><ele>122.0</ele><time>2026-04-03T13:56:40.196Z</time></trkpt><trkpt lat="44.5125514" lon="8.9139521"><ele>122.0</ele><time>2026-04-03T13:56:41.121Z</time></trkpt><trkpt lat="44.5123416" lon="8.9137329"><ele>122.0</ele><time>2026-04-03T13:56:42.113Z</time></trkpt><trkpt lat="44.5121634" lon="8.913503"><ele>122.0</ele><time>2026-04-03T13:56:43.164Z</time></trkpt><trkpt lat="44.5119974" lon="8.9133295"><ele>122.0</ele><time>2026-04-03T13:56:44.159Z</time></trkpt><trkpt lat="44.5118284" lon="8.9131939"><ele>123.0</ele><time>2026-04-03T13:56:45.146Z</time></trkpt><trkpt lat="44.5116841" lon="8.9130308"><ele>124.0</ele><time>2026-04-03T13:56:46.11Z</time></trkpt><trkpt lat="44.5115393" lon="8.9128664"><ele>125.0</ele><time>2026-04-03T13:56:47.106Z</time></trkpt><trkpt lat="44.5114244" lon="8.912715"><ele>124.5</ele><time>2026-04-03T13:56:48.167Z</time></trkpt><trkpt lat="44.5113052" lon="8.9125538"><ele>124.0</ele><time>2026-04-03T13:56:49.136Z</time></trkpt><trkpt lat="44.511178" lon="8.9124862"><ele>123.5</ele><time>2026-04-03T13:56:50.176Z</time></trkpt><trkpt lat="44.5110673" lon="8.9123607"><ele>123.0</ele><time>2026-04-03T13:56:51.117Z</time></trkpt><trkpt lat="44.5109893" lon="8.9122273"><ele>123.0</ele><time>2026-04-03T13:56:52.112Z</time></trkpt><trkpt lat="44.5109222" lon="8.912142"><ele>123.00000000000001</ele><time>2026-04-03T13:56:53.173Z</time></trkpt><trkpt lat="44.5108524" lon="8.9120077"><ele>123.00000000000001</ele><time>2026-04-03T13:56:54.145Z</time></trkpt><trkpt lat="44.5107898" lon="8.9118825"><ele>123.0</ele><time>2026-04-03T13:56:55.14Z</time></trkpt><trkpt lat="44.510738" lon="8.9117662"><ele>123.0</ele><time>2026-04-03T13:56:56.122Z</time></trkpt><trkpt lat="44.5106573" lon="8.9117354"><ele>123.0</ele><time>2026-04-03T13:56:57.11Z</time></trkpt><trkpt lat="44.5105864" lon="8.9117172"><ele>123.0</ele><time>2026-04-03T13:56:58.145Z</time></trkpt><trkpt lat="44.5105028" lon="8.9117219"><ele>123.0</ele><time>2026-04-03T13:56:59.128Z</time></trkpt><trkpt lat="44.5103926" lon="8.9117424"><ele>123.0</ele><time>2026-04-03T13:57:00.183Z</time></trkpt><trkpt lat="44.5103027" lon="8.9117285"><ele>123.0</ele><time>2026-04-03T13:57:01.115Z</time></trkpt><trkpt lat="44.5102174" lon="8.9117088"><ele>123.0</ele><time>2026-04-03T13:57:02.108Z</time></trkpt><trkpt lat="44.510145" lon="8.9116726"><ele>123.0</ele><time>2026-04-03T13:57:03.177Z</time></trkpt><trkpt lat="44.5099443" lon="8.911875"><ele>123.0</ele><time>2026-04-03T13:57:04.136Z</time></trkpt><trkpt lat="44.5098008" lon="8.9119995"><ele>123.0</ele><time>2026-04-03T13:57:05.147Z</time></trkpt><trkpt lat="44.5095555" lon="8.9122793"><ele>122.5</ele><time>2026-04-03T13:57:06.111Z</time></trkpt><trkpt lat="44.5094171" lon="8.9123793"><ele>122.0</ele><time>2026-04-03T13:57:07.111Z</time></trkpt><trkpt lat="44.5092911" lon="8.9125071"><ele>121.5</ele><time>2026-04-03T13:57:08.106Z</time></trkpt><trkpt lat="44.509176" lon="8.9125915"><ele>121.0</ele><time>2026-04-03T13:57:09.115Z</time></trkpt><trkpt lat="44.5090793" lon="8.9126525"><ele>120.25</ele><time>2026-04-03T13:57:10.183Z</time></trkpt><trkpt lat="44.5089706" lon="8.9127235"><ele>119.5</ele><time>2026-04-03T13:57:11.108Z</time></trkpt><trkpt lat="44.5088354" lon="8.9127661"><ele>118.75</ele><time>2026-04-03T13:57:12.108Z</time></trkpt><trkpt lat="44.5087099" lon="8.9128065"><ele>118.0</ele><time>2026-04-03T13:57:13.186Z</time></trkpt><trkpt lat="44.508618" lon="8.9128043"><ele>118.0</ele><time>2026-04-03T13:57:15.155Z</time></trkpt><trkpt lat="44.5085486" lon="8.9126886"><ele>118.00000000000001</ele><time>2026-04-03T13:57:16.107Z</time></trkpt><trkpt lat="44.5084891" lon="8.9126431"><ele>118.00000000000001</ele><time>2026-04-03T13:57:17.107Z</time></trkpt><trkpt lat="44.5084388" lon="8.9124823"><ele>118.0</ele><time>2026-04-03T13:57:18.183Z</time></trkpt><trkpt lat="44.5083885" lon="8.9123488"><ele>118.0</ele><time>2026-04-03T13:57:19.15Z</time></trkpt><trkpt lat="44.5083543" lon="8.9121991"><ele>117.80000000000001</ele><time>2026-04-03T13:57:20.171Z</time></trkpt><trkpt lat="44.508308" lon="8.9120574"><ele>117.60000000000001</ele><time>2026-04-03T13:57:21.108Z</time></trkpt><trkpt lat="44.5082646" lon="8.9119034"><ele>117.39999999999999</ele><time>2026-04-03T13:57:22.11Z</time></trkpt><trkpt lat="44.5082272" lon="8.9117632"><ele>117.19999999999999</ele><time>2026-04-03T13:57:23.161Z</time></trkpt><trkpt lat="44.5081845" lon="8.9116189"><ele>117.0</ele><time>2026-04-03T13:57:24.193Z</time></trkpt><trkpt lat="44.5081416" lon="8.9114756"><ele>117.0</ele><time>2026-04-03T13:57:25.19Z</time></trkpt><trkpt lat="44.5080948" lon="8.9113345"><ele>116.99999999999999</ele><time>2026-04-03T13:57:26.117Z</time></trkpt><trkpt lat="44.5080557" lon="8.911197"><ele>116.99999999999999</ele><time>2026-04-03T13:57:27.114Z</time></trkpt><trkpt lat="44.5080351" lon="8.911047"><ele>117.0</ele><time>2026-04-03T13:57:28.187Z</time></trkpt><trkpt lat="44.5079984" lon="8.9109144"><ele>117.0</ele><time>2026-04-03T13:57:29.183Z</time></trkpt><trkpt lat="44.5079614" lon="8.9107889"><ele>116.8</ele><time>2026-04-03T13:57:30.145Z</time></trkpt><trkpt lat="44.5079261" lon="8.9106598"><ele>116.6</ele><time>2026-04-03T13:57:31.108Z</time></trkpt><trkpt lat="44.5078813" lon="8.9105316"><ele>116.39999999999999</ele><time>2026-04-03T13:57:32.109Z</time></trkpt><trkpt lat="44.5078373" lon="8.9103963"><ele>116.19999999999999</ele><time>2026-04-03T13:57:33.166Z</time></trkpt><trkpt lat="44.5078" lon="8.9102653"><ele>116.0</ele><time>2026-04-03T13:57:34.158Z</time></trkpt><trkpt lat="44.5077599" lon="8.9101344"><ele>115.0</ele><time>2026-04-03T13:57:35.171Z</time></trkpt><trkpt lat="44.5077184" lon="8.9100109"><ele>114.0</ele><time>2026-04-03T13:57:36.111Z</time></trkpt><trkpt lat="44.5076889" lon="8.909885"><ele>113.0</ele><time>2026-04-03T13:57:37.114Z</time></trkpt><trkpt lat="44.5076269" lon="8.9097766"><ele>112.0</ele><time>2026-04-03T13:57:38.192Z</time></trkpt><trkpt lat="44.5075676" lon="8.9096809"><ele>111.0</ele><time>2026-04-03T13:57:39.162Z</time></trkpt><trkpt lat="44.5074969" lon="8.9095841"><ele>111.0</ele><time>2026-04-03T13:57:40.173Z</time></trkpt><trkpt lat="44.5073992" lon="8.9095173"><ele>111.0</ele><time>2026-04-03T13:57:41.107Z</time></trkpt><trkpt lat="44.5073198" lon="8.9094306"><ele>111.0</ele><time>2026-04-03T13:57:42.119Z</time></trkpt><trkpt lat="44.5072379" lon="8.9093485"><ele>111.0</ele><time>2026-04-03T13:57:43.112Z</time></trkpt><trkpt lat="44.5071548" lon="8.9092918"><ele>111.0</ele><time>2026-04-03T13:57:44.108Z</time></trkpt><trkpt lat="44.5070689" lon="8.9092095"><ele>111.4</ele><time>2026-04-03T13:57:45.107Z</time></trkpt><trkpt lat="44.5069828" lon="8.9091247"><ele>111.8</ele><time>2026-04-03T13:57:46.15Z</time></trkpt><trkpt lat="44.5069053" lon="8.9090476"><ele>112.20000000000002</ele><time>2026-04-03T13:57:47.115Z</time></trkpt><trkpt lat="44.5068163" lon="8.9089847"><ele>112.60000000000001</ele><time>2026-04-03T13:57:48.112Z</time></trkpt><trkpt lat="44.5067214" lon="8.9089359"><ele>113.0</ele><time>2026-04-03T13:57:49.125Z</time></trkpt><trkpt lat="44.5066228" lon="8.9089025"><ele>113.0</ele><time>2026-04-03T13:57:50.112Z</time></trkpt><trkpt lat="44.5065289" lon="8.908843"><ele>113.00000000000001</ele><time>2026-04-03T13:57:51.11Z</time></trkpt><trkpt lat="44.5063968" lon="8.9088347"><ele>113.00000000000001</ele><time>2026-04-03T13:57:53.163Z</time></trkpt><trkpt lat="44.5063175" lon="8.9088291"><ele>113.0</ele><time>2026-04-03T13:57:54.142Z</time></trkpt><trkpt lat="44.5062403" lon="8.9088171"><ele>113.0</ele><time>2026-04-03T13:57:55.152Z</time></trkpt><trkpt lat="44.506159" lon="8.9087968"><ele>112.16666666666666</ele><time>2026-04-03T13:57:56.114Z</time></trkpt><trkpt lat="44.5060937" lon="8.9087969"><ele>111.33333333333333</ele><time>2026-04-03T13:57:57.106Z</time></trkpt><trkpt lat="44.5060284" lon="8.9087797"><ele>110.5</ele><time>2026-04-03T13:57:58.171Z</time></trkpt><trkpt lat="44.5059714" lon="8.908725"><ele>109.66666666666666</ele><time>2026-04-03T13:58:00.177Z</time></trkpt><trkpt lat="44.5058765" lon="8.9086644"><ele>108.83333333333333</ele><time>2026-04-03T13:58:02.102Z</time></trkpt><trkpt lat="44.5057898" lon="8.9086114"><ele>108.0</ele><time>2026-04-03T13:58:04.158Z</time></trkpt><trkpt lat="44.5057165" lon="8.9085871"><ele>108.0</ele><time>2026-04-03T13:58:05.192Z</time></trkpt><trkpt lat="44.5056433" lon="8.9085227"><ele>108.0</ele><time>2026-04-03T13:58:06.116Z</time></trkpt><trkpt lat="44.5055563" lon="8.9084244"><ele>108.0</ele><time>2026-04-03T13:58:07.114Z</time></trkpt><trkpt lat="44.5054801" lon="8.9083824"><ele>108.0</ele><time>2026-04-03T13:58:08.149Z</time></trkpt><trkpt lat="44.5054067" lon="8.9083538"><ele>108.0</ele><time>2026-04-03T13:58:09.132Z</time></trkpt><trkpt lat="44.5053424" lon="8.9082913"><ele>108.0</ele><time>2026-04-03T13:58:10.202Z</time></trkpt><trkpt lat="44.5053052" lon="8.9082088"><ele>107.83333333333333</ele><time>2026-04-03T13:58:11.114Z</time></trkpt><trkpt lat="44.5052347" lon="8.9081016"><ele>107.66666666666666</ele><time>2026-04-03T13:58:13.168Z</time></trkpt><trkpt lat="44.5051678" lon="8.9080445"><ele>107.5</ele><time>2026-04-03T13:58:15.101Z</time></trkpt><trkpt lat="44.5050995" lon="8.9079761"><ele>107.33333333333333</ele><time>2026-04-03T13:58:16.103Z</time></trkpt><trkpt lat="44.50503" lon="8.9079002"><ele>107.16666666666666</ele><time>2026-04-03T13:58:17.122Z</time></trkpt><trkpt lat="44.5049748" lon="8.9078477"><ele>107.0</ele><time>2026-04-03T13:58:18.119Z</time></trkpt><trkpt lat="44.5048507" lon="8.9077373"><ele>106.99999999999999</ele><time>2026-04-03T13:58:20.193Z</time></trkpt><trkpt lat="44.5047903" lon="8.9076924"><ele>107.0</ele><time>2026-04-03T13:58:21.116Z</time></trkpt><trkpt lat="44.504721" lon="8.9076193"><ele>107.0</ele><time>2026-04-03T13:58:22.11Z</time></trkpt><trkpt lat="44.5046509" lon="8.9075385"><ele>107.0</ele><time>2026-04-03T13:58:23.146Z</time></trkpt><trkpt lat="44.5045816" lon="8.9074725"><ele>106.99999999999999</ele><time>2026-04-03T13:58:24.176Z</time></trkpt><trkpt lat="44.5045191" lon="8.9074232"><ele>107.0</ele><time>2026-04-03T13:58:25.128Z</time></trkpt><trkpt lat="44.5044626" lon="8.907376"><ele>106.42857142857143</ele><time>2026-04-03T13:58:26.109Z</time></trkpt><trkpt lat="44.5043891" lon="8.9073146"><ele>105.85714285714286</ele><time>2026-04-03T13:58:28.171Z</time></trkpt><trkpt lat="44.5043461" lon="8.9072298"><ele>105.28571428571428</ele><time>2026-04-03T13:58:31.103Z</time></trkpt><trkpt lat="44.50431" lon="8.9071511"><ele>104.71428571428572</ele><time>2026-04-03T13:59:15.166Z</time></trkpt><trkpt lat="44.5042624" lon="8.9070932"><ele>104.14285714285714</ele><time>2026-04-03T13:59:29.112Z</time></trkpt><trkpt lat="44.5042022" lon="8.9070336"><ele>103.57142857142857</ele><time>2026-04-03T13:59:33.11Z</time></trkpt><trkpt lat="44.5041363" lon="8.9069642"><ele>103.0</ele><time>2026-04-03T13:59:36.115Z</time></trkpt><trkpt lat="44.5040877" lon="8.9069042"><ele>103.0</ele><time>2026-04-03T13:59:39.114Z</time></trkpt><trkpt lat="44.5040338" lon="8.9068367"><ele>103.0</ele><time>2026-04-03T13:59:42.114Z</time></trkpt><trkpt lat="44.5039304" lon="8.906714"><ele>103.0</ele><time>2026-04-03T13:59:44.115Z</time></trkpt><trkpt lat="44.5038759" lon="8.9066537"><ele>103.0</ele><time>2026-04-03T13:59:45.113Z</time></trkpt><trkpt lat="44.5038113" lon="8.9065493"><ele>103.0</ele><time>2026-04-03T13:59:47.157Z</time></trkpt><trkpt lat="44.5037634" lon="8.9064653"><ele>102.80000000000001</ele><time>2026-04-03T13:59:48.123Z</time></trkpt><trkpt lat="44.5037171" lon="8.9063813"><ele>102.6</ele><time>2026-04-03T13:59:49.113Z</time></trkpt><trkpt lat="44.5036305" lon="8.9062732"><ele>102.4</ele><time>2026-04-03T13:59:50.177Z</time></trkpt><trkpt lat="44.5035505" lon="8.9061893"><ele>102.19999999999999</ele><time>2026-04-03T13:59:51.112Z</time></trkpt><trkpt lat="44.503475" lon="8.9061209"><ele>102.0</ele><time>2026-04-03T13:59:52.112Z</time></trkpt><trkpt lat="44.5034111" lon="8.9060549"><ele>102.0</ele><time>2026-04-03T13:59:53.141Z</time></trkpt><trkpt lat="44.5033533" lon="8.9059886"><ele>102.0</ele><time>2026-04-03T13:59:54.159Z</time></trkpt><trkpt lat="44.5032668" lon="8.9059124"><ele>102.0</ele><time>2026-04-03T13:59:56.11Z</time></trkpt><trkpt lat="44.5031476" lon="8.9058488"><ele>102.0</ele><time>2026-04-03T13:59:58.167Z</time></trkpt><trkpt lat="44.5030831" lon="8.9058349"><ele>102.0</ele><time>2026-04-03T13:59:59.163Z</time></trkpt><trkpt lat="44.5030183" lon="8.9057935"><ele>102.0</ele><time>2026-04-03T14:00:00.134Z</time></trkpt><trkpt lat="44.5029323" lon="8.9057858"><ele>103.5</ele><time>2026-04-03T14:00:02.112Z</time></trkpt><trkpt lat="44.5028292" lon="8.9057683"><ele>105.0</ele><time>2026-04-03T14:00:04.102Z</time></trkpt><trkpt lat="44.5027638" lon="8.9057654"><ele>106.5</ele><time>2026-04-03T14:00:05.111Z</time></trkpt><trkpt lat="44.5026825" lon="8.9057583"><ele>108.0</ele><time>2026-04-03T14:00:07.166Z</time></trkpt><trkpt lat="44.5025632" lon="8.9057738"><ele>109.5</ele><time>2026-04-03T14:00:09.1Z</time></trkpt><trkpt lat="44.5024906" lon="8.9057876"><ele>111.0</ele><time>2026-04-03T14:00:10.102Z</time></trkpt><trkpt lat="44.5023695" lon="8.9058161"><ele>111.0</ele><time>2026-04-03T14:00:12.107Z</time></trkpt><trkpt lat="44.5022935" lon="8.9058394"><ele>111.0</ele><time>2026-04-03T14:00:13.108Z</time></trkpt><trkpt lat="44.5021575" lon="8.9058194"><ele>111.0</ele><time>2026-04-03T14:00:15.168Z</time></trkpt><trkpt lat="44.5020129" lon="8.9057942"><ele>111.0</ele><time>2026-04-03T14:00:17.114Z</time></trkpt><trkpt lat="44.5019337" lon="8.9057599"><ele>111.0</ele><time>2026-04-03T14:00:18.204Z</time></trkpt><trkpt lat="44.501852" lon="8.9056968"><ele>108.6</ele><time>2026-04-03T14:00:20.209Z</time></trkpt><trkpt lat="44.5017863" lon="8.9056663"><ele>106.19999999999999</ele><time>2026-04-03T14:00:22.106Z</time></trkpt><trkpt lat="44.5016831" lon="8.9055949"><ele>103.80000000000001</ele><time>2026-04-03T14:00:24.11Z</time></trkpt><trkpt lat="44.5015949" lon="8.9055246"><ele>101.4</ele><time>2026-04-03T14:00:26.106Z</time></trkpt><trkpt lat="44.501464" lon="8.9054739"><ele>99.0</ele><time>2026-04-03T14:00:28.114Z</time></trkpt><trkpt lat="44.5013973" lon="8.9054222"><ele>99.0</ele><time>2026-04-03T14:00:29.159Z</time></trkpt><trkpt lat="44.5013798" lon="8.9053215"><ele>99.0</ele><time>2026-04-03T14:00:30.178Z</time></trkpt><trkpt lat="44.5013419" lon="8.9051953"><ele>99.0</ele><time>2026-04-03T14:00:32.104Z</time></trkpt><trkpt lat="44.5013111" lon="8.9050749"><ele>99.0</ele><time>2026-04-03T14:00:35.102Z</time></trkpt><trkpt lat="44.5013009" lon="8.9049814"><ele>99.0</ele><time>2026-04-03T14:00:44.123Z</time></trkpt><trkpt lat="44.501267" lon="8.9049013"><ele>99.0</ele><time>2026-04-03T14:01:45.111Z</time></trkpt><trkpt lat="44.5012426" lon="8.9048106"><ele>99.2</ele><time>2026-04-03T14:02:31.125Z</time></trkpt><trkpt lat="44.5012392" lon="8.9047149"><ele>99.4</ele><time>2026-04-03T14:02:32.159Z</time></trkpt><trkpt lat="44.5011917" lon="8.9046101"><ele>99.6</ele><time>2026-04-03T14:02:33.167Z</time></trkpt><trkpt lat="44.5011471" lon="8.9045159"><ele>99.8</ele><time>2026-04-03T14:02:34.109Z</time></trkpt><trkpt lat="44.50112" lon="8.9044259"><ele>100.0</ele><time>2026-04-03T14:02:35.106Z</time></trkpt><trkpt lat="44.5010264" lon="8.9042013"><ele>100.33333333333334</ele><time>2026-04-03T14:02:37.114Z</time></trkpt><trkpt lat="44.5009801" lon="8.9040953"><ele>100.66666666666667</ele><time>2026-04-03T14:02:38.116Z</time></trkpt><trkpt lat="44.5009309" lon="8.9039852"><ele>101.0</ele><time>2026-04-03T14:02:39.101Z</time></trkpt><trkpt lat="44.5008797" lon="8.90387"><ele>101.33333333333334</ele><time>2026-04-03T14:02:40.113Z</time></trkpt><trkpt lat="44.5008285" lon="8.9037553"><ele>101.66666666666667</ele><time>2026-04-03T14:02:41.107Z</time></trkpt><trkpt lat="44.500787" lon="8.9036785"><ele>102.0</ele><time>2026-04-03T14:02:42.112Z</time></trkpt><trkpt lat="44.5007515" lon="8.9035804"><ele>104.0</ele><time>2026-04-03T14:02:43.109Z</time></trkpt><trkpt lat="44.5006414" lon="8.9033972"><ele>106.0</ele><time>2026-04-03T14:02:45.114Z</time></trkpt><trkpt lat="44.5005851" lon="8.9032961"><ele>108.0</ele><time>2026-04-03T14:02:46.104Z</time></trkpt><trkpt lat="44.5005261" lon="8.9031863"><ele>110.0</ele><time>2026-04-03T14:02:47.109Z</time></trkpt><trkpt lat="44.5004271" lon="8.903051"><ele>107.8</ele><time>2026-04-03T14:02:49.116Z</time></trkpt><trkpt lat="44.5003656" lon="8.9029642"><ele>105.6</ele><time>2026-04-03T14:02:50.109Z</time></trkpt><trkpt lat="44.5003005" lon="8.9028913"><ele>103.4</ele><time>2026-04-03T14:02:51.111Z</time></trkpt><trkpt lat="44.5002298" lon="8.9028244"><ele>101.2</ele><time>2026-04-03T14:02:52.116Z</time></trkpt><trkpt lat="44.5001542" lon="8.902743"><ele>99.0</ele><time>2026-04-03T14:02:53.105Z</time></trkpt><trkpt lat="44.5000566" lon="8.9027162"><ele>99.0</ele><time>2026-04-03T14:02:54.107Z</time></trkpt><trkpt lat="44.4999223" lon="8.9027037"><ele>99.0</ele><time>2026-04-03T14:02:56.109Z</time></trkpt><trkpt lat="44.4998448" lon="8.9026966"><ele>99.0</ele><time>2026-04-03T14:02:57.111Z</time></trkpt><trkpt lat="44.499783" lon="8.9026658"><ele>99.0</ele><time>2026-04-03T14:02:58.107Z</time></trkpt><trkpt lat="44.499692" lon="8.9026576"><ele>99.0</ele><time>2026-04-03T14:02:59.113Z</time></trkpt><trkpt lat="44.4996144" lon="8.9026428"><ele>99.0</ele><time>2026-04-03T14:03:01.109Z</time></trkpt><trkpt lat="44.4995514" lon="8.9026876"><ele>98.80000000000001</ele><time>2026-04-03T14:03:03.105Z</time></trkpt><trkpt lat="44.499497" lon="8.9027635"><ele>98.60000000000001</ele><time>2026-04-03T14:03:05.11Z</time></trkpt><trkpt lat="44.4994186" lon="8.902829"><ele>98.4</ele><time>2026-04-03T14:03:08.999Z</time></trkpt><trkpt lat="44.4993387" lon="8.9027724"><ele>98.2</ele><time>2026-04-03T14:03:12.118Z</time></trkpt><trkpt lat="44.4993027" lon="8.9026946"><ele>98.0</ele><time>2026-04-03T14:03:13.106Z</time></trkpt><trkpt lat="44.4992054" lon="8.902382"><ele>98.0</ele><time>2026-04-03T14:03:14.114Z</time></trkpt><trkpt lat="44.4991604" lon="8.9022167"><ele>98.0</ele><time>2026-04-03T14:03:15.113Z</time></trkpt><trkpt lat="44.4991302" lon="8.9020854"><ele>98.0</ele><time>2026-04-03T14:03:16.109Z</time></trkpt><trkpt lat="44.4990901" lon="8.9019669"><ele>98.0</ele><time>2026-04-03T14:03:17.109Z</time></trkpt><trkpt lat="44.4990749" lon="8.901847"><ele>98.0</ele><time>2026-04-03T14:03:18.118Z</time></trkpt><trkpt lat="44.4990519" lon="8.9017173"><ele>96.99999999999999</ele><time>2026-04-03T14:03:19.108Z</time></trkpt><trkpt lat="44.4990315" lon="8.9016046"><ele>96.0</ele><time>2026-04-03T14:03:20.111Z</time></trkpt><trkpt lat="44.4989918" lon="8.9015094"><ele>95.0</ele><time>2026-04-03T14:03:21.117Z</time></trkpt><trkpt lat="44.4989613" lon="8.901388"><ele>94.0</ele><time>2026-04-03T14:03:23.115Z</time></trkpt><trkpt lat="44.499008" lon="8.9013233"><ele>93.0</ele><time>2026-04-03T14:03:24.11Z</time></trkpt><trkpt lat="44.499057" lon="8.9012096"><ele>92.0</ele><time>2026-04-03T14:03:27.117Z</time></trkpt><trkpt lat="44.4992003" lon="8.9011659"><ele>92.0</ele><time>2026-04-03T14:03:28.111Z</time></trkpt><trkpt lat="44.4992685" lon="8.9011014"><ele>92.0</ele><time>2026-04-03T14:03:29.109Z</time></trkpt><trkpt lat="44.4993593" lon="8.9010449"><ele>92.0</ele><time>2026-04-03T14:03:30.114Z</time></trkpt><trkpt lat="44.4994401" lon="8.9009938"><ele>92.0</ele><time>2026-04-03T14:03:31.109Z</time></trkpt><trkpt lat="44.499524" lon="8.9009448"><ele>92.0</ele><time>2026-04-03T14:03:32.115Z</time></trkpt><trkpt lat="44.4995958" lon="8.9009029"><ele>92.0</ele><time>2026-04-03T14:03:33.109Z</time></trkpt><trkpt lat="44.4996811" lon="8.9008705"><ele>92.19999999999999</ele><time>2026-04-03T14:03:34.112Z</time></trkpt><trkpt lat="44.4997637" lon="8.9008237"><ele>92.4</ele><time>2026-04-03T14:03:35.109Z</time></trkpt><trkpt lat="44.49985" lon="8.9007815"><ele>92.6</ele><time>2026-04-03T14:03:36.111Z</time></trkpt><trkpt lat="44.4999284" lon="8.9007466"><ele>92.80000000000001</ele><time>2026-04-03T14:03:37.118Z</time></trkpt><trkpt lat="44.5000178" lon="8.9007041"><ele>93.0</ele><time>2026-04-03T14:03:38.12Z</time></trkpt><trkpt lat="44.5001098" lon="8.9006591"><ele>93.0</ele><time>2026-04-03T14:03:39.113Z</time></trkpt><trkpt lat="44.5001915" lon="8.9006273"><ele>93.0</ele><time>2026-04-03T14:03:40.11Z</time></trkpt><trkpt lat="44.5002607" lon="8.900585"><ele>93.0</ele><time>2026-04-03T14:03:41.113Z</time></trkpt><trkpt lat="44.5003323" lon="8.9005515"><ele>93.0</ele><time>2026-04-03T14:03:42.114Z</time></trkpt><trkpt lat="44.5004079" lon="8.9005144"><ele>93.0</ele><time>2026-04-03T14:03:43.111Z</time></trkpt><trkpt lat="44.5004811" lon="8.9004632"><ele>93.0</ele><time>2026-04-03T14:03:44.107Z</time></trkpt><trkpt lat="44.5005482" lon="8.9003952"><ele>93.5</ele><time>2026-04-03T14:03:45.114Z</time></trkpt><trkpt lat="44.5006267" lon="8.9003488"><ele>94.0</ele><time>2026-04-03T14:03:46.107Z</time></trkpt><trkpt lat="44.5007057" lon="8.9003098"><ele>94.5</ele><time>2026-04-03T14:03:47.114Z</time></trkpt><trkpt lat="44.500786" lon="8.9002601"><ele>95.0</ele><time>2026-04-03T14:03:48.107Z</time></trkpt><trkpt lat="44.5008659" lon="8.9002005"><ele>95.5</ele><time>2026-04-03T14:03:49.108Z</time></trkpt><trkpt lat="44.5009481" lon="8.9001387"><ele>96.0</ele><time>2026-04-03T14:03:50.118Z</time></trkpt><trkpt lat="44.5010346" lon="8.9000727"><ele>96.0</ele><time>2026-04-03T14:03:51.113Z</time></trkpt><trkpt lat="44.5011166" lon="8.8999923"><ele>96.0</ele><time>2026-04-03T14:03:52.113Z</time></trkpt><trkpt lat="44.5011926" lon="8.8999114"><ele>96.0</ele><time>2026-04-03T14:03:53.114Z</time></trkpt><trkpt lat="44.501263" lon="8.8998144"><ele>96.0</ele><time>2026-04-03T14:03:54.105Z</time></trkpt><trkpt lat="44.5013308" lon="8.8997301"><ele>96.0</ele><time>2026-04-03T14:03:55.113Z</time></trkpt><trkpt lat="44.5014005" lon="8.899637"><ele>96.66666666666667</ele><time>2026-04-03T14:03:56.108Z</time></trkpt><trkpt lat="44.5014589" lon="8.8995496"><ele>97.33333333333334</ele><time>2026-04-03T14:03:57.11Z</time></trkpt><trkpt lat="44.5015268" lon="8.8994646"><ele>98.0</ele><time>2026-04-03T14:03:58.108Z</time></trkpt><trkpt lat="44.5015857" lon="8.8993735"><ele>98.66666666666667</ele><time>2026-04-03T14:03:59.11Z</time></trkpt><trkpt lat="44.5016412" lon="8.8992896"><ele>99.33333333333334</ele><time>2026-04-03T14:04:00.108Z</time></trkpt><trkpt lat="44.5016978" lon="8.8992055"><ele>100.0</ele><time>2026-04-03T14:04:01.111Z</time></trkpt><trkpt lat="44.5017421" lon="8.8991347"><ele>100.00000000000001</ele><time>2026-04-03T14:04:02.109Z</time></trkpt><trkpt lat="44.5017914" lon="8.8990693"><ele>100.0</ele><time>2026-04-03T14:04:03.118Z</time></trkpt><trkpt lat="44.5018752" lon="8.8989658"><ele>100.0</ele><time>2026-04-03T14:04:05.115Z</time></trkpt><trkpt lat="44.5019155" lon="8.898889"><ele>100.0</ele><time>2026-04-03T14:04:07.104Z</time></trkpt><trkpt lat="44.501832" lon="8.8989337"><ele>100.00000000000001</ele><time>2026-04-03T14:04:12.114Z</time></trkpt><trkpt lat="44.501779" lon="8.898982"><ele>100.0</ele><time>2026-04-03T14:04:13.106Z</time></trkpt><trkpt lat="44.5017152" lon="8.8990343"><ele>100.0</ele><time>2026-04-03T14:04:14.115Z</time></trkpt><trkpt lat="44.5016524" lon="8.8991301"><ele>100.0</ele><time>2026-04-03T14:04:15.106Z</time></trkpt><trkpt lat="44.5015707" lon="8.8991803"><ele>100.0</ele><time>2026-04-03T14:04:16.112Z</time></trkpt><trkpt lat="44.5014904" lon="8.8992496"><ele>100.0</ele><time>2026-04-03T14:04:17.109Z</time></trkpt><trkpt lat="44.5014113" lon="8.899312"><ele>100.0</ele><time>2026-04-03T14:04:18.11Z</time></trkpt><trkpt lat="44.5013228" lon="8.8993107"><ele>99.2</ele><time>2026-04-03T14:04:19.11Z</time></trkpt><trkpt lat="44.5012219" lon="8.8993891"><ele>98.4</ele><time>2026-04-03T14:04:20.109Z</time></trkpt><trkpt lat="44.5011409" lon="8.8993972"><ele>97.6</ele><time>2026-04-03T14:04:21.106Z</time></trkpt><trkpt lat="44.5010606" lon="8.8994052"><ele>96.8</ele><time>2026-04-03T14:04:22.101Z</time></trkpt><trkpt lat="44.5009736" lon="8.8993893"><ele>96.0</ele><time>2026-04-03T14:04:24.11Z</time></trkpt><trkpt lat="44.5009255" lon="8.8992557"><ele>96.0</ele><time>2026-04-03T14:04:27.107Z</time></trkpt><trkpt lat="44.5009117" lon="8.8991382"><ele>106.0</ele><time>2026-04-03T14:04:29.12Z</time></trkpt><trkpt lat="44.5009242" lon="8.8990506"><ele>106.0</ele><time>2026-04-03T14:04:32.11Z</time></trkpt><trkpt lat="44.5009682" lon="8.8989346"><ele>106.0</ele><time>2026-04-03T14:04:36.107Z</time></trkpt><trkpt lat="44.5011093" lon="8.8990044"><ele>106.0</ele><time>2026-04-03T14:05:00.999Z</time></trkpt></trkseg></trk></gpx>